Date time  Uvelocity_cm/s Vvelocity_cm/s W_velocity_cm/s horizontalSpeedCareful_cm/s TotalSpeedCareful_cm/s HorizontalWindDirection_deg WindElevation_deg SpeedOfSound_cm/sec Temperature_Kelvin pressure_mb2009/04/23 09:59:59.9    -108   -197    -65    225    234 208.7 -21.2  34142  289.28 0855.18
2009/04/23 10:00:00.0    -274   -151    -44    313    317 241.1  -8.1  34148  289.36 0855.18
2009/04/23 10:00:00.1    -185   -284    -31    340    342 213.1  -5.3  34152  289.45 0855.18
2009/04/23 10:00:00.2     -28   -230     54    232    239 187.1  13.2  34148  289.36 0855.18
2009/04/23 10:00:00.3     -87   -326     79    338    348 195.1  13.3  34138  289.20 0855.18
2009/04/23 10:00:00.4     -90   -314     18    327    328 196.0   3.2  34138  289.19 0855.18
2009/04/23 10:00:00.5       9   -306    108    307    326 178.2  19.4  34138  289.20 0855.18
2009/04/23 10:00:00.6    -131   -355    184    379    421 200.3  27.7  34140  289.22 0855.19
2009/04/23 10:00:00.7     -65   -346    168    353    390 190.7  27.2  34128  289.03 0855.19
2009/04/23 10:00:00.8     -70   -409    283    416    503 189.8  37.4  34140  289.23 0855.19
2009/04/23 10:00:00.9      17   -380    279    381    472 177.4  39.9  34140  289.24 0855.19
2009/04/23 10:00:01.0     -52   -303    223    308    380 189.8  39.5  34138  289.20 0855.19
2009/04/23 10:00:01.1       7   -312    245    313    397 178.6  42.0  34140  289.23 0855.19
2009/04/23 10:00:01.2      59   -309    163    315    354 169.1  29.4  34142  289.25 0855.19
2009/04/23 10:00:01.3      40   -381     51    384    388 173.9   7.6  34136  289.16 0855.19
2009/04/23 10:00:01.4     -31   -508     39    509    511 183.5   4.4  34134  289.13 0855.19
2009/04/23 10:00:01.5     175   -571    -65    598    602 163.0  -6.2  34134  289.12 0855.19
2009/04/23 10:00:01.6     116   -622     60    633    636 169.4   5.5  34142  289.25 0855.19
2009/04/23 10:00:01.7     206   -467     91    511    520 156.2  10.1  34134  289.13 0855.19
2009/04/23 10:00:01.8     120   -564    113    577    589 168.0  11.1  34120  288.88 0855.19
2009/04/23 10:00:01.9     163   -447    163    477    505 160.0  18.9  34136  289.17 0855.19
2009/04/23 10:00:02.0     160   -337    301    374    480 154.5  43.0  34136  289.16 0855.19
2009/04/23 10:00:02.1     211   -195    236    288    372 132.7  43.7  34144  289.30 0855.19
2009/04/23 10:00:02.2     164   -242    189    293    348 145.8  35.6  34136  289.15 0855.19
2009/04/23 10:00:02.3     293   -261    247    393    464 131.8  35.5  34138  289.19 0855.19
2009/04/23 10:00:02.4     315   -215    147    382    409 124.4  22.1  34136  289.18 0855.19
2009/04/23 10:00:02.5     211   -224    154    308    344 136.7  28.5  34132  289.11 0855.19
2009/04/23 10:00:02.6     190    -89    262    210    335 115.1  57.3  34138  289.20 0855.20
2009/04/23 10:00:02.7     287   -117    152    311    346 112.2  27.9  34132  289.10 0855.20
2009/04/23 10:00:02.8     350    -60    145    356    384  99.8  23.2  34130  289.06 0855.20
2009/04/23 10:00:02.9     241    -48     70    246    256 101.5  16.0  34138  289.20 0855.20
2009/04/23 10:00:03.0     198    -21     90    200    219  96.1  25.9  34134  289.13 0855.20
2009/04/23 10:00:03.1      21     16    120     27    123  52.2  87.5  34136  289.18 0855.20
2009/04/23 10:00:03.2     -69     40     99     80    127 300.2  56.9  34152  289.45 0855.20
2009/04/23 10:00:03.3      -8    -26    131     28    133 198.7  89.0  34150  289.40 0855.20
2009/04/23 10:00:03.4      64     21    131     68    147  71.6  70.8  34144  289.31 0855.20
2009/04/23 10:00:03.5      78    -27    157     83    177 109.5  69.8  34138  289.19 0855.20
2009/04/23 10:00:03.6       2     17    130     18    131   8.0  90.0  34152  289.43 0855.20
2009/04/23 10:00:03.7     120   -179    184    216    283 146.2  44.8  34140  289.22 0855.20
2009/04/23 10:00:03.8     -14   -264    264    265    374 183.1  50.0  34138  289.20 0855.20
2009/04/23 10:00:03.9      58   -299    263    305    402 168.9  45.1  34136  289.16 0855.20
2009/04/23 10:00:04.0      29   -157    219    160    271 169.3  60.5  34126  288.98 0855.20
2009/04/23 10:00:04.1     155   -159    214    223    309 135.7  49.0  34142  289.25 0855.20
2009/04/23 10:00:04.2     113   -203    219    233    319 151.0  48.2  34132  289.09 0855.20
2009/04/23 10:00:04.3       6   -104    202    105    227 176.4  70.6  34130  289.06 0855.20
2009/04/23 10:00:04.4      10   -128    224    129    258 175.5  67.7  34136  289.18 0855.20
2009/04/23 10:00:04.5      27    -92    128     96    160 163.5  59.4  34136  289.16 0855.20
2009/04/23 10:00:04.6     -10   -108    198    109    226 185.3  68.9  34142  289.26 0855.22
2009/04/23 10:00:04.7      85    -78    178    116    212 132.7  64.4  34140  289.24 0855.22
2009/04/23 10:00:04.8      47     93    101    105    145  27.2  49.0  34144  289.31 0855.22
2009/04/23 10:00:04.9     -25     24     90     35     96 313.3  78.6  34148  289.36 0855.22
2009/04/23 10:00:05.0      31    -94    132    100    165 161.7  59.2  34134  289.14 0855.22
2009/04/23 10:00:05.1      30    -90    206     96    227 161.3  73.1  34144  289.31 0855.22
2009/04/23 10:00:05.2      20     24    167     32    170  39.7  89.8  34144  289.31 0855.22
2009/04/23 10:00:05.3     140    -76    210    160    264 118.4  58.7  34144  289.29 0855.22
2009/04/23 10:00:05.4      18    -77    148     80    168 166.6  69.3  34146  289.35 0855.22
2009/04/23 10:00:05.5      89   -114    145    145    205 142.1  50.1  34138  289.21 0855.22
2009/04/23 10:00:05.6      35    -86    139     94    167 157.7  62.8  34136  289.18 0855.22
2009/04/23 10:00:05.7      19    -34     94     40    102 151.0  76.1  34144  289.30 0855.22
2009/04/23 10:00:05.8      86   -102    134    134    189 139.9  50.1  34146  289.33 0855.22
2009/04/23 10:00:05.9      89   -238    127    255    284 159.5  28.2  34136  289.15 0855.22
2009/04/23 10:00:06.0      87   -224    175    241    297 158.8  39.7  34134  289.12 0855.22
2009/04/23 10:00:06.1     -21   -198    171    200    263 186.2  44.8  34138  289.20 0855.22
2009/04/23 10:00:06.2     -41   -217     39    222    226 190.9  10.1  34132  289.09 0855.22
2009/04/23 10:00:06.3     -84   -259     77    273    284 198.0  15.8  34144  289.29 0855.22
2009/04/23 10:00:06.4    -145   -181     14    232    233 218.7   3.6  34148  289.36 0855.22
2009/04/23 10:00:06.5     -77    -93      1    121    122 219.7   0.8  34148  289.36 0855.22
2009/04/23 10:00:06.6     -93   -127     -4    158    159 216.1  -1.8  34146  289.33 0855.21
2009/04/23 10:00:06.7    -112   -175     -1    209    210 212.7  -0.5  34140  289.24 0855.21
2009/04/23 10:00:06.8     -83   -186    -23    204    206 204.1  -6.5  34140  289.23 0855.21
2009/04/23 10:00:06.9    -111   -200     61    229    238 209.0  15.0  34138  289.20 0855.21
2009/04/23 10:00:07.0    -141   -180     46    230    235 218.1  11.4  34144  289.31 0855.21
2009/04/23 10:00:07.1    -173   -137     34    221    224 231.6   8.8  34150  289.41 0855.21
2009/04/23 10:00:07.2    -152    -60     55    164    174 248.3  18.6  34146  289.33 0855.21
2009/04/23 10:00:07.3    -129     48    104    138    172 290.4  40.9  34154  289.48 0855.21
2009/04/23 10:00:07.4    -227     40    125    231    262 280.1  31.0  34176  289.85 0855.21
2009/04/23 10:00:07.5    -158    -12    113    159    195 265.6  39.1  34168  289.72 0855.21
2009/04/23 10:00:07.6     -84    -11    118     85    145 262.5  60.6  34180  289.91 0855.21
2009/04/23 10:00:07.7    -227    -52    126    233    264 257.0  30.6  34170  289.73 0855.21
2009/04/23 10:00:07.8     -95   -102    113    140    179 222.8  43.3  34158  289.55 0855.21
2009/04/23 10:00:07.9    -131   -104    147    168    223 231.4  45.8  34148  289.38 0855.21
2009/04/23 10:00:08.0     -93   -119    105    152    184 217.9  37.8  34142  289.26 0855.21
2009/04/23 10:00:08.1    -111   -201    266    230    351 208.9  54.7  34142  289.25 0855.21
2009/04/23 10:00:08.2    -284    -53     62    289    296 259.4  12.2  34174  289.81 0855.21
2009/04/23 10:00:08.3     -53   -143    133    153    202 200.5  45.8  34152  289.43 0855.21
2009/04/23 10:00:08.4    -127    -93    114    158    194 233.6  39.5  34152  289.45 0855.21
2009/04/23 10:00:08.5    -318    140     21    348    349 293.9   3.5  34144  289.30 0855.21
2009/04/23 10:00:08.6    -370    274   -151    461    486 306.5 -18.2  34124  288.95 0855.19
2009/04/23 10:00:08.7    -354    131    -88    378    389 290.3 -13.2  34124  288.96 0855.19
2009/04/23 10:00:08.8    -347    -67     63    354    360 259.0  10.2  34136  289.16 0855.19
2009/04/23 10:00:08.9    -126    -42    186    133    228 251.6  60.8  34178  289.89 0855.19
2009/04/23 10:00:09.0      -7    100    185    101    210 355.6  69.1  34170  289.74 0855.19
2009/04/23 10:00:09.1     -49    149    135    157    207 341.7  45.4  34172  289.79 0855.19
2009/04/23 10:00:09.2    -138    137    121    195    229 314.9  35.2  34154  289.48 0855.19
2009/04/23 10:00:09.3     -87    220    193    237    305 338.4  43.7  34160  289.58 0855.19
2009/04/23 10:00:09.4    -154     94     79    181    197 301.3  25.1  34166  289.67 0855.19
2009/04/23 10:00:09.5      -9    -15    146     18    147 212.5  90.0  34172  289.79 0855.19
2009/04/23 10:00:09.6    -114    -16    171    116    206 261.6  62.7  34184  289.97 0855.19
2009/04/23 10:00:09.7     -99     36    224    106    247 290.4  72.9  34196  290.19 0855.19
2009/04/23 10:00:09.8     -69    -42    169     81    187 238.5  72.8  34206  290.36 0855.19
2009/04/23 10:00:09.9    -142   -102    186    176    256 234.3  52.0  34188  290.06 0855.19
2009/04/23 10:00:10.0    -288   -131    214    317    382 245.6  37.4  34208  290.38 0855.19
2009/04/23 10:00:10.1    -276   -181    221    331    397 236.7  36.9  34202  290.28 0855.19
2009/04/23 10:00:10.2    -281   -202    183    347    392 234.3  30.1  34210  290.42 0855.19
2009/04/23 10:00:10.3    -362   -262     97    448    459 234.1  12.3  34198  290.22 0855.19
2009/04/23 10:00:10.4    -393   -131    152    415    441 251.5  21.0  34196  290.17 0855.19
2009/04/23 10:00:10.5    -346   -139    138    374    398 248.1  21.1  34188  290.06 0855.19
2009/04/23 10:00:10.6    -313   -197    180    370    411 237.8  27.9  34204  290.32 0855.19
2009/04/23 10:00:10.7    -227   -280     84    361    371 219.0  13.2  34180  289.91 0855.19
2009/04/23 10:00:10.8    -149   -476     93    499    508 197.4  10.6  34136  289.17 0855.19
2009/04/23 10:00:10.9      -5   -475    117    476    491 180.7  13.8  34156  289.52 0855.19
2009/04/23 10:00:11.0      93   -396    178    407    444 166.8  25.2  34160  289.58 0855.19
2009/04/23 10:00:11.1    -133   -400     29    422    424 198.5   4.0  34114  288.78 0855.19
2009/04/23 10:00:11.2    -195   -488    -87    526    534 201.8  -9.4  34096  288.48 0855.19
2009/04/23 10:00:11.3     -64   -606    -80    610    616 186.1  -7.5  34104  288.61 0855.19
2009/04/23 10:00:11.4     -38   -583   -149    585    604 183.7 -14.3  34094  288.44 0855.19
2009/04/23 10:00:11.5      67   -393   -129    399    420 170.3 -17.9  34088  288.34 0855.19
2009/04/23 10:00:11.6    -135   -487      6    506    507 195.6   0.7  34108  288.69 0855.19
2009/04/23 10:00:11.7    -223   -531    -85    577    584 202.8  -8.4  34094  288.46 0855.19
2009/04/23 10:00:11.8    -161   -519   -166    544    569 197.3 -17.0  34096  288.50 0855.19
2009/04/23 10:00:12.0    -203   -403    -91    452    462 206.8 -11.5  34096  288.48 0855.19
2009/04/23 10:00:12.0    -179   -474   -122    507    522 200.7 -13.6  34110  288.73 0855.19
2009/04/23 10:00:12.1    -313   -491   -178    583    610 212.5 -17.0  34116  288.83 0855.19
2009/04/23 10:00:12.3    -267   -542   -203    605    639 206.3 -18.6  34112  288.76 0855.19
2009/04/23 10:00:12.4    -317   -425   -165    531    557 216.8 -17.3  34122  288.92 0855.19
2009/04/23 10:00:12.5    -300   -282    -84    413    422 226.8 -11.5  34132  289.09 0855.19
2009/04/23 10:00:12.6    -237   -234   -127    334    357 225.4 -26.1  34142  289.25 0855.19
2009/04/23 10:00:12.7    -145   -238   -129    280    308 211.4 -31.0  34132  289.10 0855.19
2009/04/23 10:00:12.7    -250   -249    -70    354    361 225.1 -11.2  34136  289.16 0855.19
2009/04/23 10:00:12.9    -296   -310    -34    429    431 223.7  -4.6  34136  289.16 0855.19
2009/04/23 10:00:13.0    -329   -310    -78    453    460 226.7  -9.8  34146  289.34 0855.19
2009/04/23 10:00:13.1    -305   -129    -74    332    341 247.0 -12.7  34148  289.37 0855.19
2009/04/23 10:00:13.2    -239   -185    -99    303    319 232.2 -18.2  34132  289.10 0855.19
2009/04/23 10:00:13.3    -213   -298    163    367    401 215.5  25.6  34138  289.21 0855.19
2009/04/23 10:00:13.4    -187   -165     61    250    258 228.6  13.7  34174  289.80 0855.19
2009/04/23 10:00:13.5     -78    -69    115    105    155 228.7  52.2  34170  289.74 0855.19
2009/04/23 10:00:13.6     -10     11     76     16     77 316.6  89.0  34162  289.62 0855.19
2009/04/23 10:00:13.7      15    -45    -15     48     50 161.5 -22.8  34158  289.53 0855.19
2009/04/23 10:00:13.8     125   -150   -104    196    221 140.3 -35.0  34128  289.04 0855.19
2009/04/23 10:00:13.9     178   -152    -38    235    239 130.4  -9.3  34120  288.88 0855.19
2009/04/23 10:00:14.0     118    -36     14    124    125 106.9   6.9  34120  288.91 0855.19
2009/04/23 10:00:14.1       3    -14     85     15     86 168.4  90.0  34128  289.02 0855.19
2009/04/23 10:00:14.2    -100   -237    169    258    308 202.8  36.3  34122  288.92 0855.19
2009/04/23 10:00:14.3     -42   -246    127    250    280 189.7  29.2  34124  288.97 0855.19
2009/04/23 10:00:14.4      37   -293    112    296    316 172.7  21.7  34122  288.92 0855.19
2009/04/23 10:00:14.5      25   -321     56    323    328 175.5   9.9  34118  288.87 0855.19
2009/04/23 10:00:14.6      58   -210    -52    219    226 164.4 -13.4  34120  288.91 0855.19
2009/04/23 10:00:14.7     -13   -229     27    230    232 183.4   6.9  34116  288.84 0855.20
2009/04/23 10:00:14.8     -84   -242     65    257    266 199.2  14.2  34118  288.85 0855.20
2009/04/23 10:00:14.9     -87   -187    -23    207    209 204.9  -6.5  34114  288.79 0855.20
2009/04/23 10:00:15.0     -95   -169     16    195    196 209.4   4.9  34114  288.80 0855.20
2009/04/23 10:00:15.1     -15   -387    123    388    408 182.2  17.7  34116  288.81 0855.20
2009/04/23 10:00:15.2     -50   -311      0    316    317 189.1   0.0  34118  288.87 0855.20
2009/04/23 10:00:15.3     -63   -233     85    242    256 195.2  20.0  34118  288.85 0855.20
2009/04/23 10:00:15.4     -16   -118    165    120    204 188.0  60.5  34122  288.92 0855.20
2009/04/23 10:00:15.5     -20    -90    178     93    200 192.5  70.6  34130  289.06 0855.20
2009/04/23 10:00:15.6    -105     -2    123    106    162 268.7  54.8  34128  289.02 0855.20
2009/04/23 10:00:15.7     -58      4     96     59    112 274.4  65.1  34132  289.09 0855.20
2009/04/23 10:00:15.8     -47     33    129     58    141 305.1  74.5  34138  289.21 0855.20
2009/04/23 10:00:15.9      17     54     79     57     97  17.8  60.5  34134  289.14 0855.20
2009/04/23 10:00:16.0      78     15     69     80    105  78.5  45.4  34120  288.91 0855.20
2009/04/23 10:00:16.1      77    -69    130    104    166 132.2  56.9  34120  288.89 0855.20
2009/04/23 10:00:16.2      82    -82     85    116    143 135.0  39.7  34120  288.91 0855.20
2009/04/23 10:00:16.3     126     45     92    135    163  70.1  37.3  34118  288.86 0855.20
2009/04/23 10:00:16.4      79      1     94     80    123  89.2  54.8  34124  288.97 0855.20
2009/04/23 10:00:16.5      35    -66     41     75     85 151.9  31.4  34124  288.97 0855.20
2009/04/23 10:00:16.6      -9    -28     66     30     72 198.7  73.1  34134  289.13 0855.20
2009/04/23 10:00:16.7     -79    -35     29     87     92 246.0  18.4  34130  289.06 0855.22
2009/04/23 10:00:16.8    -132    -44     38    140    146 251.4  15.3  34118  288.86 0855.22
2009/04/23 10:00:16.9    -154      0     30    155    158 270.0  11.1  34114  288.80 0855.22
2009/04/23 10:00:17.0    -111    -26     84    115    142 256.7  39.7  34120  288.89 0855.22
2009/04/23 10:00:17.1    -253    -86     20    268    269 251.2   4.4  34124  288.97 0855.22
2009/04/23 10:00:17.2    -235    -63     36    244    247 254.9   8.5  34116  288.81 0855.22
2009/04/23 10:00:17.3    -233      9    130    234    267 272.4  31.4  34122  288.93 0855.22
2009/04/23 10:00:17.4     -75   -193    117    208    238 201.4  31.9  34124  288.96 0855.22
2009/04/23 10:00:17.5    -285   -182   -103    339    354 237.5 -21.8  34118  288.86 0855.22
2009/04/23 10:00:17.6    -404   -162   -149    436    461 248.2 -18.9  34120  288.90 0855.22
2009/04/23 10:00:17.7    -486   -167   -149    515    536 251.0 -21.0  34120  288.91 0855.22
2009/04/23 10:00:17.8    -360    -69      1    367    368 259.1   0.2  34122  288.93 0855.22
2009/04/23 10:00:17.9    -338    -12   -114    339    357 267.9 -23.5  34122  288.93 0855.22
2009/04/23 10:00:18.0    -412    -43   -138    415    437 263.9 -23.7  34132  289.11 0855.22
2009/04/23 10:00:18.1    -275   -226   -141    357    383 230.6 -27.3  34122  288.93 0855.22
2009/04/23 10:00:18.2    -288   -284   -155    405    433 225.4 -26.4  34112  288.75 0855.22
2009/04/23 10:00:18.3    -447   -175   -220    481    528 248.6 -30.7  34112  288.76 0855.22
2009/04/23 10:00:18.4    -428    -61   -233    433    491 261.9 -35.1  34134  289.13 0855.22
2009/04/23 10:00:18.5    -406    -57   -136    411    432 262.0 -23.6  34138  289.21 0855.22
2009/04/23 10:00:18.6    -323     51   -173    328    370 279.1 -34.6  34132  289.11 0855.22
2009/04/23 10:00:18.7    -149     40   -288    155    327 285.1 -74.0  34128  289.03 0855.25
2009/04/23 10:00:18.8     -82    -77   -187    113    218 226.9 -70.6  34136  289.18 0855.25
2009/04/23 10:00:18.9    -190    -24    -67    192    203 262.8 -24.0  34134  289.14 0855.25
2009/04/23 10:00:19.0    -248     22   -111    250    273 275.2 -29.7  34136  289.17 0855.25
2009/04/23 10:00:19.1    -187    -62    -99    198    221 251.6 -32.9  34142  289.28 0855.25
2009/04/23 10:00:19.2    -153      0   -113    154    191 270.4 -44.3  34146  289.35 0855.25
2009/04/23 10:00:19.3    -285     54   -191    291    348 280.8 -40.7  34144  289.30 0855.25
2009/04/23 10:00:19.4    -205    169   -219    266    344 309.5 -48.1  34140  289.24 0855.25
2009/04/23 10:00:19.5    -113    130    -97    173    198 319.0 -36.0  34140  289.24 0855.25
2009/04/23 10:00:19.6     -92     79      5    122    123 310.4   2.8  34136  289.16 0855.25
2009/04/23 10:00:19.7     -59     -4    100     60    116 265.7  65.7  34152  289.45 0855.29
2009/04/23 10:00:19.8     -66    -24    113     71    133 250.0  64.7  34156  289.50 0855.29
2009/04/23 10:00:19.9      41     14    178     44    183  71.4  85.9  34152  289.43 0855.29
2009/04/23 10:00:20.0      74    -13    143     76    161 100.6  70.0  34146  289.33 0855.29
2009/04/23 10:00:20.1      37   -109    136    116    178 161.3  55.4  34144  289.30 0855.29
2009/04/23 10:00:20.2      61   -259    154    267    308 166.6  32.4  34140  289.22 0855.29
2009/04/23 10:00:20.3     -50   -185     94    192    213 195.2  28.0  34138  289.19 0855.29
2009/04/23 10:00:20.4    -111   -144    -28    183    186 217.6  -8.8  34138  289.21 0855.29
2009/04/23 10:00:20.5    -203   -135     11    245    246 236.3   2.8  34146  289.32 0855.29
2009/04/23 10:00:20.6    -102   -234     70    256    266 203.6  15.3  34144  289.29 0855.29
2009/04/23 10:00:20.7    -276   -341    120    440    457 219.0  15.3  34152  289.43 0855.29
2009/04/23 10:00:20.8    -168   -203     21    264    265 219.6   4.6  34160  289.56 0855.29
2009/04/23 10:00:20.9    -102   -129     -7    165    166 218.5  -2.6  34148  289.36 0855.29
2009/04/23 10:00:21.0     -86   -118    -39    147    153 216.1 -15.0  34144  289.30 0855.29
2009/04/23 10:00:21.1    -240   -310    -46    393    396 217.8  -6.7  34142  289.26 0855.29
2009/04/23 10:00:21.2    -262   -234   -104    352    367 228.3 -21.5  34144  289.30 0855.29
2009/04/23 10:00:21.3    -363   -285    125    462    479 231.9  15.1  34132  289.10 0855.29
2009/04/23 10:00:21.4     -24   -352    245    353    429 184.0  38.0  34140  289.22 0855.29
2009/04/23 10:00:21.5    -115   -347    197    366    415 198.5  30.7  34124  288.96 0855.29
2009/04/23 10:00:21.6     -64   -451    213    456    503 188.1  27.0  34126  289.01 0855.29
2009/04/23 10:00:21.7     -74   -474    202    480    520 188.9  24.2  34130  289.08 0855.30
2009/04/23 10:00:21.8    -327   -306    213    449    496 226.9  27.2  34134  289.12 0855.30
2009/04/23 10:00:21.9    -182   -317    214    366    423 209.9  33.0  34130  289.05 0855.30
2009/04/23 10:00:22.0     -81   -395    -14    404    405 191.7  -2.1  34124  288.95 0855.30
2009/04/23 10:00:22.1     -74   -478     68    484    489 188.9   8.0  34126  288.98 0855.30
2009/04/23 10:00:22.2     -73   -495    123    501    516 188.5  13.8  34128  289.03 0855.30
2009/04/23 10:00:22.3    -151   -395     99    424    436 201.0  13.2  34132  289.11 0855.30
2009/04/23 10:00:22.4     -62   -411    106    416    430 188.7  14.4  34126  289.00 0855.30
2009/04/23 10:00:22.5     -20   -421     83    422    431 182.8  11.1  34128  289.02 0855.30
2009/04/23 10:00:22.6     -97   -401    101    413    426 193.7  13.8  34130  289.07 0855.30
2009/04/23 10:00:22.7     -86   -382     -4    392    393 192.8  -0.7  34130  289.06 0855.30
2009/04/23 10:00:22.8     -47   -354     27    358    359 187.6   4.3  34130  289.06 0855.30
2009/04/23 10:00:22.9     -54   -380    156    384    414 188.1  23.4  34128  289.02 0855.30
2009/04/23 10:00:23.0     -58   -364     67    369    376 189.1  10.3  34128  289.04 0855.30
2009/04/23 10:00:23.1     -68   -399     40    406    408 189.8   5.7  34124  288.97 0855.30
2009/04/23 10:00:23.2     -30   -339    200    341    395 185.2  33.1  34120  288.91 0855.30
2009/04/23 10:00:23.3     -41   -225    102    229    250 190.5  25.7  34132  289.09 0855.30
2009/04/23 10:00:23.4    -152   -206     50    257    262 216.5  11.1  34124  288.97 0855.30
2009/04/23 10:00:23.5    -132   -111    105    173    202 229.8  34.2  34136  289.16 0855.30
2009/04/23 10:00:23.6     -40    -27     95     49    106 235.8  70.4  34140  289.23 0855.30
2009/04/23 10:00:23.7     -23   -100     96    103    140 193.4  47.9  34138  289.19 0855.28
2009/04/23 10:00:23.8    -201   -106    153    228    274 242.2  37.3  34134  289.12 0855.28
2009/04/23 10:00:23.9    -289     93    -52    304    309 287.9  -9.7  34130  289.05 0855.28
2009/04/23 10:00:24.0    -113    -71    -26    134    137 237.5 -11.3  34132  289.09 0855.28
2009/04/23 10:00:24.1    -162   -222    -24    275    277 216.1  -5.1  34130  289.07 0855.28
2009/04/23 10:00:24.2     -56   -221     52    229    235 194.3  12.9  34132  289.10 0855.28
2009/04/23 10:00:24.3     -60   -293     17    300    301 191.6   3.3  34136  289.17 0855.28
2009/04/23 10:00:24.4     -71   -264     96    274    290 195.1  20.0  34136  289.15 0855.28
2009/04/23 10:00:24.5      21   -206     92    208    227 174.2  25.3  34136  289.18 0855.28
2009/04/23 10:00:24.6      11   -168     75    169    184 176.2  25.7  34134  289.14 0855.28
2009/04/23 10:00:24.7      19   -170    -65    172    183 173.5 -25.9  34136  289.16 0855.28
2009/04/23 10:00:24.8    -176   -472   -170    505    532 200.5 -23.6  34128  289.04 0855.28
2009/04/23 10:00:24.9    -114   -424    -26    440    441 195.1  -3.5  34136  289.16 0855.28
2009/04/23 10:00:25.0    -247   -257    -30    357    359 223.8  -4.9  34132  289.11 0855.28
2009/04/23 10:00:25.1    -204   -324   -123    383    402 212.2 -22.9  34132  289.11 0855.28
2009/04/23 10:00:25.2    -284   -555     32    624    625 207.1   3.0  34132  289.09 0855.28
2009/04/23 10:00:25.3    -457   -518     30    692    693 221.4   2.5  34164  289.63 0855.28
2009/04/23 10:00:25.4    -435   -473     -6    643    644 222.6  -0.6  34128  289.03 0855.28
2009/04/23 10:00:25.5    -376   -304    -97    484    494 231.0 -11.3  34136  289.15 0855.28
2009/04/23 10:00:25.6     -93   -521   -163    530    554 190.1 -22.1  34138  289.19 0855.28
2009/04/23 10:00:25.7     -77   -670    239    675    716 186.6  20.3  34126  289.01 0855.27
2009/04/23 10:00:25.8    -124   -610    261    623    675 191.6  24.2  34134  289.12 0855.27
2009/04/23 10:00:25.9    -227   -531    280    578    642 203.2  27.8  34136  289.18 0855.27
2009/04/23 10:00:26.0    -273   -421    232    503    553 213.0  26.4  34148  289.36 0855.27
2009/04/23 10:00:26.1    -514   -389    141    645    661 232.9  12.4  34154  289.48 0855.27
2009/04/23 10:00:26.2    -437   -333    -33    550    551 232.7  -3.5  34138  289.21 0855.27
2009/04/23 10:00:26.3     -65   -433    270    438    514 188.6  34.5  34150  289.39 0855.27
2009/04/23 10:00:26.4    -377   -273    125    466    483 234.0  15.0  34138  289.20 0855.27
2009/04/23 10:00:26.5    -260   -276    247    380    453 223.2  36.0  34140  289.22 0855.27
2009/04/23 10:00:26.6     -90   -197    177    217    280 204.5  43.7  34132  289.10 0855.27
2009/04/23 10:00:26.7     -56   -249    162    256    302 192.7  35.5  34134  289.14 0855.27
2009/04/23 10:00:26.8     -32   -227    266    230    351 188.0  54.7  34134  289.12 0855.27
2009/04/23 10:00:26.9     -40   -290    175    293    341 188.0  33.8  34134  289.12 0855.27
2009/04/23 10:00:27.0       3   -199    154    200    252 179.0  41.6  34132  289.09 0855.27
2009/04/23 10:00:27.1     -55   -235    205    242    317 193.3  44.7  34136  289.17 0855.27
2009/04/23 10:00:27.2     -41   -297    306    301    429 188.0  50.4  34136  289.15 0855.27
2009/04/23 10:00:27.3     -14   -304    257    305    398 182.7  44.5  34132  289.11 0855.27
2009/04/23 10:00:27.4     -77   -276    293    287    410 195.6  50.6  34132  289.10 0855.27
2009/04/23 10:00:27.5    -180   -326    191    373    419 208.9  29.3  34146  289.33 0855.27
2009/04/23 10:00:27.6    -120   -253    218    281    355 205.4  41.7  34138  289.21 0855.27
2009/04/23 10:00:27.7    -114   -214     81    243    257 208.1  18.6  34152  289.42 0855.24
2009/04/23 10:00:27.8    -154   -175    140    234    272 221.4  34.0  34152  289.42 0855.24
2009/04/23 10:00:27.9    -266    -74    173    277    326 254.5  35.1  34168  289.70 0855.24
2009/04/23 10:00:28.0    -243    -78    165    256    304 252.1  35.6  34164  289.64 0855.24
2009/04/23 10:00:28.1    -214   -188    132    285    314 228.7  26.5  34152  289.42 0855.24
2009/04/23 10:00:28.2    -265   -114    135    289    318 246.7  26.9  34146  289.32 0855.24
2009/04/23 10:00:28.3    -237    -80     86    251    266 251.2  18.9  34148  289.37 0855.24
2009/04/23 10:00:28.4    -209     58    -29    218    220 285.7  -7.7  34144  289.30 0855.24
2009/04/23 10:00:28.5    -287    104   -123    306    329 290.0 -27.3  34130  289.07 0855.24
2009/04/23 10:00:28.6    -216    104   -132    240    273 295.8 -35.7  34136  289.15 0855.24
2009/04/23 10:00:28.7    -300     46     75    304    314 278.8  13.9  34138  289.20 0855.24
2009/04/23 10:00:28.8    -322    -85    118    334    355 255.1  19.6  34148  289.37 0855.24
2009/04/23 10:00:28.9    -400    -69    -12    407    408 260.2  -1.7  34146  289.33 0855.24
2009/04/23 10:00:29.0    -318   -189    129    370    391 239.3  20.0  34136  289.18 0855.24
2009/04/23 10:00:29.1     -90   -326    117    339    359 195.5  19.2  34138  289.21 0855.24
2009/04/23 10:00:29.2     -56   -300    203    306    367 190.7  36.6  34130  289.08 0855.24
2009/04/23 10:00:29.3     -97   -254    290    273    398 200.9  52.0  34142  289.28 0855.24
2009/04/23 10:00:29.4    -190   -222    266    293    395 220.5  46.9  34144  289.30 0855.24
2009/04/23 10:00:29.5    -169   -124    144    210    254 233.6  37.8  34146  289.34 0855.24
2009/04/23 10:00:29.6    -143    -38     82    149    170 254.9  31.0  34148  289.38 0855.24
2009/04/23 10:00:29.7    -201   -100    120    225    255 243.6  30.3  34140  289.24 0855.24
2009/04/23 10:00:29.8    -202   -187    159    276    318 227.3  32.6  34146  289.34 0855.24
2009/04/23 10:00:29.9       8     -8     74     12     74 135.0  90.0  34142  289.28 0855.24
2009/04/23 10:00:30.0     129   -131    148    184    236 135.5  43.0  34142  289.28 0855.24
2009/04/23 10:00:30.1      23   -136     88    139    164 170.2  35.5  34140  289.24 0855.24
2009/04/23 10:00:30.2      -1    -80     76     81    111 180.9  48.0  34144  289.30 0855.24
2009/04/23 10:00:30.3     -36   -108     59    115    129 198.7  29.3  34146  289.35 0855.24
2009/04/23 10:00:30.4     -69   -116     87    136    161 210.8  35.7  34142  289.28 0855.24
2009/04/23 10:00:30.5     -50   -115    108    126    165 203.6  45.4  34154  289.48 0855.24
2009/04/23 10:00:30.6     -85    -28     67     90    112 251.8  40.1  34164  289.63 0855.24
2009/04/23 10:00:30.7     -66    -22     -1     70     71 251.4  -1.3  34172  289.77 0855.24
2009/04/23 10:00:30.8      -3    -44    -32     45     55 184.5 -43.0  34166  289.67 0855.24
2009/04/23 10:00:30.9      -1    -52     -6     53     54 181.8  -7.3  34156  289.50 0855.24
2009/04/23 10:00:31.0       8    -87     23     88     91 174.7  14.7  34148  289.38 0855.24
2009/04/23 10:00:31.1      -3    -83     16     84     86 182.2  11.1  34142  289.28 0855.24
2009/04/23 10:00:31.2     -16    -52    -28     55     61 197.8 -32.6  34138  289.21 0855.24
2009/04/23 10:00:31.3      -7      0    -63      8     63 270.0 -90.0  34136  289.16 0855.24
2009/04/23 10:00:31.4      -6      5    -48      8     48 309.5 -90.0  34136  289.18 0855.24
2009/04/23 10:00:31.5       0     26    -26     27     37 359.1 -56.4  34136  289.18 0855.24
2009/04/23 10:00:31.6     -11     16     -6     20     21 323.9 -17.6  34136  289.16 0855.24
2009/04/23 10:00:31.7     -15    -20      9     26     28 217.8  19.4  34140  289.24 0855.26
2009/04/23 10:00:31.8      -6    -66     81     67    105 185.3  56.3  34148  289.38 0855.26
2009/04/23 10:00:31.9       5    -44    107     45    116 172.9  76.1  34156  289.50 0855.26
2009/04/23 10:00:32.0     -16     26     85     31     90 327.5  79.2  34156  289.50 0855.26
2009/04/23 10:00:32.1    -108     28     -7    112    113 284.6  -3.7  34150  289.41 0855.26
2009/04/23 10:00:32.2    -105    -92     66    140    154 228.7  27.2  34156  289.50 0855.26
2009/04/23 10:00:32.3     -89    -48     75    102    126 241.6  39.7  34150  289.40 0855.26
2009/04/23 10:00:32.4    -184    -30    -50    187    194 260.5 -15.0  34146  289.33 0855.26
2009/04/23 10:00:32.5    -147   -105    -22    181    183 234.5  -7.2  34146  289.35 0855.26
2009/04/23 10:00:32.6    -102   -164     66    194    206 211.9  18.9  34142  289.26 0855.26
2009/04/23 10:00:32.7     -70   -167     89    182    202 202.9  27.8  34140  289.24 0855.26
2009/04/23 10:00:32.8     -52   -224    125    231    262 193.1  31.0  34142  289.27 0855.26
2009/04/23 10:00:32.9     -56   -235    190    242    307 193.6  42.2  34138  289.20 0855.26
2009/04/23 10:00:33.0    -105   -291    112    310    329 200.0  20.6  34156  289.49 0855.26
2009/04/23 10:00:33.1     -45   -263    117    267    291 189.8  25.2  34144  289.31 0855.26
2009/04/23 10:00:33.2     -83   -303    180    315    362 195.4  32.3  34142  289.26 0855.26
2009/04/23 10:00:33.3    -270   -364    133    454    474 216.6  16.4  34144  289.30 0855.26
2009/04/23 10:00:33.4    -153   -396     28    425    426 201.2   3.9  34152  289.43 0855.26
2009/04/23 10:00:33.5    -183   -294     74    347    356 211.9  12.2  34148  289.38 0855.26
2009/04/23 10:00:33.6    -265   -324     54    419    423 219.3   7.5  34144  289.29 0855.26
2009/04/23 10:00:33.7    -136   -265    119    299    321 207.2  22.8  34144  289.29 0855.18
2009/04/23 10:00:33.8    -152   -363     62    394    399 202.7   9.0  34124  288.96 0855.18
2009/04/23 10:00:33.9    -193   -140     50    239    245 234.0  12.0  34138  289.20 0855.18
2009/04/23 10:00:34.0    -141   -111     18    180    181 231.6   5.9  34130  289.06 0855.18
2009/04/23 10:00:34.1    -308   -104    -63    326    333 251.3 -11.0  34106  288.66 0855.18
2009/04/23 10:00:34.2    -324    -36   -101    327    343 263.6 -17.3  34122  288.93 0855.18
2009/04/23 10:00:34.3    -251    -46    -23    256    258 259.5  -5.2  34114  288.78 0855.18
2009/04/23 10:00:34.4    -190    -62     -7    201    202 251.8  -2.1  34120  288.89 0855.18
2009/04/23 10:00:34.5    -299   -101     15    316    317 251.2   2.8  34124  288.97 0855.18
2009/04/23 10:00:34.6    -246    -78      7    259    260 252.3   1.7  34150  289.41 0855.18
2009/04/23 10:00:34.7    -302   -166    121    345    365 241.2  20.1  34136  289.16 0855.18
2009/04/23 10:00:34.8    -217   -146    157    262    305 235.9  33.7  34126  288.98 0855.18
2009/04/23 10:00:34.9    -289    -12    142    290    322 267.5  28.0  34168  289.70 0855.18
2009/04/23 10:00:35.0    -274   -140    134    308    335 242.9  25.0  34152  289.42 0855.18
2009/04/23 10:00:35.1    -198    -52     72    205    217 255.2  20.2  34164  289.65 0855.18
2009/04/23 10:00:35.2    -141   -135    177    196    264 226.2  46.9  34134  289.12 0855.18
2009/04/23 10:00:35.3    -161   -153    138    223    262 226.4  35.0  34150  289.39 0855.18
2009/04/23 10:00:35.4    -275   -110    170    297    342 248.2  32.4  34134  289.14 0855.18
2009/04/23 10:00:35.5     -81   -235    220    249    332 199.1  46.2  34114  288.78 0855.18
2009/04/23 10:00:35.6     -63   -267    126    275    302 193.4  26.2  34120  288.90 0855.18
2009/04/23 10:00:35.7    -439   -200    -15    483    484 245.5  -1.9  34136  289.15 0855.18
2009/04/23 10:00:35.8    -376   -233     37    443    445 238.3   4.9  34122  288.94 0855.18
2009/04/23 10:00:35.9    -164   -147     97    221    241 228.2  25.1  34124  288.95 0855.18
2009/04/23 10:00:36.0       1    -90    156     91    180 179.1  67.2  34136  289.18 0855.18
2009/04/23 10:00:36.1     156   -202    107    256    277 142.4  24.1  34128  289.02 0855.18
2009/04/23 10:00:36.2     117   -278    109    302    321 157.2  20.6  34122  288.93 0855.18
2009/04/23 10:00:36.3     103   -208    153    233    278 153.5  36.5  34124  288.95 0855.18
2009/04/23 10:00:36.4       7   -276    137    277    309 178.4  28.2  34128  289.02 0855.18
2009/04/23 10:00:36.5     -45   -290    129    294    321 188.9  25.1  34126  288.98 0855.18
2009/04/23 10:00:36.6     -15   -334    112    335    354 182.7  18.6  34126  288.98 0855.18
2009/04/23 10:00:36.7       7   -328    201    329    385 178.6  34.4  34124  288.96 0855.18
2009/04/23 10:00:36.8      26   -359    140    360    386 175.8  22.5  34126  289.01 0855.18
2009/04/23 10:00:36.9      39   -364     85    367    377 173.8  13.1  34126  288.98 0855.18
2009/04/23 10:00:37.0     -12   -282    116    283    305 182.5  23.4  34126  288.98 0855.18
2009/04/23 10:00:37.1       0   -248    117    249    275 179.9  27.1  34128  289.03 0855.18
2009/04/23 10:00:37.2      51   -250    121    256    283 168.4  27.1  34126  289.00 0855.18
2009/04/23 10:00:37.3      45   -276    123    280    305 170.7  25.2  34122  288.92 0855.18
2009/04/23 10:00:37.4     -20   -263    115    264    287 184.4  25.1  34122  288.92 0855.18
2009/04/23 10:00:37.5     -32   -351    137    353    378 185.4  22.4  34120  288.88 0855.18
2009/04/23 10:00:37.6     -35   -387    130    389    411 185.2  18.5  34124  288.97 0855.18
2009/04/23 10:00:37.7     -37   -490    222    492    539 184.4  26.0  34122  288.92 0855.17
2009/04/23 10:00:37.8     -21   -462    293    463    547 182.7  35.5  34114  288.80 0855.17
2009/04/23 10:00:38.0      19   -295    305    296    425 176.2  51.1  34120  288.91 0855.17
2009/04/23 10:00:38.0     173   -301    240    348    422 150.1  37.9  34122  288.93 0855.17
2009/04/23 10:00:38.1     196   -409     81    454    462 154.4  10.1  34114  288.80 0855.17
2009/04/23 10:00:38.2     188   -342     37    391    393 151.1   5.4  34114  288.79 0855.17
2009/04/23 10:00:38.4     223   -346     46    412    415 147.2   6.5  34118  288.87 0855.17
2009/04/23 10:00:38.4     181   -302    115    353    372 149.1  18.1  34110  288.71 0855.17
2009/04/23 10:00:38.5     240   -353    187    427    466 145.8  25.2  34114  288.78 0855.17
2009/04/23 10:00:38.7     161   -347    249    383    456 155.1  36.0  34114  288.80 0855.17
2009/04/23 10:00:38.7      20   -267    230    268    353 175.5  45.1  34114  288.80 0855.17
2009/04/23 10:00:38.9      63   -287    221    295    368 167.5  40.7  34120  288.88 0855.17
2009/04/23 10:00:39.0      82   -295    161    307    346 164.4  30.0  34118  288.86 0855.17
2009/04/23 10:00:39.0     107   -293     64    313    320 159.9  11.6  34118  288.85 0855.17
2009/04/23 10:00:39.2     130   -292     58    320    326 155.9  10.4  34120  288.88 0855.17
2009/04/23 10:00:39.3     170   -182    167    250    300 137.0  36.7  34116  288.81 0855.17
2009/04/23 10:00:39.4     188   -221    133    291    319 139.7  26.3  34116  288.83 0855.17
2009/04/23 10:00:39.5     138   -303    170    333    373 155.5  29.2  34116  288.81 0855.17
2009/04/23 10:00:39.6      54   -424    206    428    474 172.7  27.7  34112  288.77 0855.17
2009/04/23 10:00:39.7     136   -550    153    567    588 166.1  15.1  34118  288.85 0855.17
2009/04/23 10:00:39.8     263   -312    -40    409    412 139.8  -5.6  34112  288.77 0855.20
2009/04/23 10:00:39.9     253   -206    -72    327    335 129.2 -12.5  34116  288.81 0855.20
2009/04/23 10:00:40.0     144   -239   -100    280    298 149.0 -19.7  34112  288.76 0855.20
2009/04/23 10:00:40.1     234   -260    110    351    368 138.0  17.4  34120  288.88 0855.20
2009/04/23 10:00:40.2     182   -328     21    376    377 151.0   3.2  34120  288.88 0855.20
2009/04/23 10:00:40.3     168   -334     78    374    383 153.3  11.8  34116  288.82 0855.20
2009/04/23 10:00:40.4     281   -341    -17    443    444 140.5  -2.2  34120  288.89 0855.20
2009/04/23 10:00:40.5     278   -378     88    470    479 143.6  10.6  34116  288.83 0855.20
2009/04/23 10:00:40.6     269   -526     77    591    596 152.9   7.4  34116  288.81 0855.20
2009/04/23 10:00:40.7     233   -657     87    698    704 160.5   7.1  34116  288.84 0855.20
2009/04/23 10:00:40.8     275   -601    -25    662    663 155.4  -2.2  34116  288.82 0855.14
2009/04/23 10:00:40.9     260   -528    -32    589    590 153.7  -3.2  34112  288.75 0855.14
2009/04/23 10:00:41.0     146   -408    -47    434    437 160.2  -6.2  34122  288.94 0855.14
2009/04/23 10:00:41.1     220   -504     86    551    558 156.4   8.9  34120  288.89 0855.14
2009/04/23 10:00:41.2     192   -458    180    497    528 157.2  20.9  34116  288.84 0855.14
2009/04/23 10:00:41.3      98   -239    -92    259    276 157.7 -19.7  34124  288.95 0855.14
2009/04/23 10:00:41.4      46   -225    -70    230    240 168.4 -22.1  34124  288.95 0855.14
2009/04/23 10:00:41.5     -12   -182    -63    183    193 184.0 -23.6  34120  288.89 0855.14
2009/04/23 10:00:41.6       3   -253    -10    254    255 179.1  -2.3  34126  289.00 0855.14
2009/04/23 10:00:41.7      26   -201    -53    203    210 172.4 -14.7  34126  288.99 0855.14
2009/04/23 10:00:41.8      -8   -131    -25    132    135 183.6 -10.9  34126  289.01 0855.14
2009/04/23 10:00:41.9      39   -116     -6    123    124 161.3  -3.1  34130  289.06 0855.14
2009/04/23 10:00:42.0     116    -59     -5    131    132 117.0  -2.2  34128  289.02 0855.14
2009/04/23 10:00:42.1     168   -138    -12    218    219 129.3  -3.2  34128  289.04 0855.14
2009/04/23 10:00:42.2     269   -213      4    344    345 128.4   0.8  34124  288.96 0855.14
2009/04/23 10:00:42.3     205   -289    -11    355    356 144.7  -1.9  34120  288.91 0855.14
2009/04/23 10:00:42.4     153   -335     24    369    370 155.5   3.8  34120  288.89 0855.14
2009/04/23 10:00:42.5     219   -264     48    344    348 140.4   8.0  34120  288.91 0855.14
2009/04/23 10:00:42.6     102   -330    115    346    365 162.8  18.4  34120  288.89 0855.14
2009/04/23 10:00:42.7     118   -370    146    389    415 162.3  21.5  34114  288.80 0855.14
2009/04/23 10:00:42.8     122   -571    277    585    647 167.9  27.1  34110  288.71 0855.13
2009/04/23 10:00:42.9     111   -471    239    484    539 166.7  28.2  34104  288.63 0855.13
2009/04/23 10:00:43.0       0   -586    102    587    596 180.0   9.9  34114  288.78 0855.13
2009/04/23 10:00:43.1      94   -469    138    479    499 168.6  16.1  34110  288.73 0855.13
2009/04/23 10:00:43.2     238   -409     89    474    483 149.8  10.7  34104  288.62 0855.13
2009/04/23 10:00:43.3     245   -233    117    339    359 133.5  19.2  34116  288.81 0855.13
2009/04/23 10:00:43.4     144   -269      4    306    307 151.9   0.8  34118  288.87 0855.13
2009/04/23 10:00:43.5     120   -187     10    223    224 147.4   2.8  34118  288.87 0855.13
2009/04/23 10:00:43.6     109   -162     -5    196    197 146.2  -1.6  34116  288.82 0855.13
2009/04/23 10:00:43.7       0    -52     32     53     61 180.9  34.4  34120  288.91 0855.13
2009/04/23 10:00:43.8     -67    -44     27     81     86 236.7  18.9  34122  288.92 0855.13
2009/04/23 10:00:43.9     -33    -99     82    105    133 198.5  42.2  34122  288.94 0855.13
2009/04/23 10:00:44.0    -154   -127    140    200    244 230.4  38.5  34126  288.99 0855.13
2009/04/23 10:00:44.1    -307     -4    -72    308    317 269.2 -13.2  34132  289.10 0855.13
2009/04/23 10:00:44.2    -275     72   -149    285    321 284.8 -34.4  34130  289.05 0855.13
2009/04/23 10:00:44.3    -289    -32    -80    291    302 263.6 -15.4  34132  289.09 0855.13
2009/04/23 10:00:44.4    -291   -108    -89    311    324 249.6 -16.0  34134  289.12 0855.13
2009/04/23 10:00:44.5    -144   -150     71    209    221 223.9  18.9  34120  288.91 0855.13
2009/04/23 10:00:44.6    -179   -211    205    277    344 220.3  40.1  34134  289.12 0855.13
2009/04/23 10:00:44.7    -152     50    229    161    279 288.2  61.5  34138  289.19 0855.13
2009/04/23 10:00:44.8    -303     55    111    308    328 280.4  19.9  34124  288.97 0855.14
2009/04/23 10:00:44.9    -212    -16   -105    213    237 265.6 -32.6  34122  288.94 0855.14
2009/04/23 10:00:45.0     -85     -2     43     86     96 268.3  28.2  34132  289.09 0855.14
2009/04/23 10:00:45.1      59    -45     85     75    113 127.8  53.7  34136  289.16 0855.14
2009/04/23 10:00:45.2     104   -132    163    169    234 141.9  49.0  34130  289.06 0855.14
2009/04/23 10:00:45.3      85   -133    240    159    287 147.4  63.6  34118  288.85 0855.14
2009/04/23 10:00:45.4     131   -215     71    252    262 148.6  15.8  34128  289.02 0855.14
2009/04/23 10:00:45.5     207   -315     -7    378    379 146.7  -1.2  34118  288.86 0855.14
2009/04/23 10:00:45.6     249   -406   -106    477    489 148.5 -12.6  34120  288.88 0855.14
2009/04/23 10:00:45.7     399   -293    -58    496    500 126.3  -6.7  34120  288.88 0855.14
2009/04/23 10:00:45.8     354   -239    120    428    445 124.0  15.7  34114  288.80 0855.14
2009/04/23 10:00:45.9     205    -97      2    227    228 115.3   0.7  34116  288.82 0855.14
2009/04/23 10:00:46.0     152    -50    225    161    276 108.2  60.8  34132  289.09 0855.14
2009/04/23 10:00:46.1     -65     82    150    105    183 321.7  61.8  34132  289.09 0855.14
2009/04/23 10:00:46.2      96   -196    167    219    275 153.9  41.4  34122  288.93 0855.14
2009/04/23 10:00:46.3     171   -170    117    242    268 134.8  27.3  34124  288.95 0855.14
2009/04/23 10:00:46.4     179   -217    -18    282    283 140.4  -3.7  34122  288.93 0855.14
2009/04/23 10:00:46.5     186   -263    105    323    340 144.8  18.1  34114  288.79 0855.14
2009/04/23 10:00:46.6     118   -111    142    163    216 133.1  45.8  34124  288.97 0855.14
2009/04/23 10:00:46.7      67   -159    150    173    228 157.1  45.4  34126  289.01 0855.14
2009/04/23 10:00:46.8      52   -146    154    156    219 160.4  50.0  34118  288.87 0855.15
2009/04/23 10:00:46.9      26    -92    124     96    156 164.0  58.2  34126  289.01 0855.15
2009/04/23 10:00:47.0      82   -174    150    193    244 154.6  41.7  34122  288.92 0855.15
2009/04/23 10:00:47.1      57   -159    107    170    200 160.2  35.2  34122  288.92 0855.15
2009/04/23 10:00:47.2      94   -197     93    219    237 154.5  24.3  34122  288.92 0855.15
2009/04/23 10:00:47.3     128   -180    108    222    246 144.6  27.8  34120  288.90 0855.15
2009/04/23 10:00:47.4      -4   -275    185    276    332 181.0  37.0  34118  288.87 0855.15
2009/04/23 10:00:47.5     157    -17    240    158    287  96.2  63.6  34122  288.92 0855.15
2009/04/23 10:00:47.6      56    -14    150     58    160 104.2  77.8  34128  289.02 0855.15
2009/04/23 10:00:47.7      -1   -101    161    102    190 180.9  64.7  34122  288.92 0855.15
2009/04/23 10:00:47.8       9    -83    193     84    210 173.8  75.0  34132  289.11 0855.15
2009/04/23 10:00:47.9     -28   -119    168    123    208 193.4  60.5  34124  288.96 0855.15
2009/04/23 10:00:48.0     -19   -169    209    171    270 186.5  56.4  34122  288.93 0855.15
2009/04/23 10:00:48.1     -75   -203    168    217    274 200.3  41.7  34122  288.92 0855.15
2009/04/23 10:00:48.2      -7    -96    113     97    148 184.5  55.4  34126  289.01 0855.15
2009/04/23 10:00:48.3      -2   -182    193    183    265 180.9  52.0  34128  289.02 0855.15
2009/04/23 10:00:48.4     -38   -141    244    147    284 195.1  66.4  34136  289.17 0855.15
2009/04/23 10:00:48.5     -64   -188    249    199    318 198.9  57.5  34132  289.10 0855.15
2009/04/23 10:00:48.6     -97   -184    162    209    264 207.9  41.7  34132  289.10 0855.15
2009/04/23 10:00:48.7      31   -270    166    272    318 173.3  34.3  34128  289.03 0855.15
2009/04/23 10:00:48.8    -106   -170    307    201    366 212.1  63.9  34140  289.24 0855.17
2009/04/23 10:00:48.9    -234    -54    121    241    269 257.0  28.5  34142  289.25 0855.17
2009/04/23 10:00:49.0    -215     49    207    221    302 283.0  48.0  34140  289.24 0855.17
2009/04/23 10:00:49.1    -205   -182    222    275    353 228.4  43.1  34144  289.30 0855.17
2009/04/23 10:00:49.2    -336   -226     95    406    418 236.1  13.2  34146  289.33 0855.17
2009/04/23 10:00:49.3    -293   -241    108    380    396 230.5  15.9  34130  289.08 0855.17
2009/04/23 10:00:49.4    -359   -257     12    442    443 234.4   1.6  34140  289.24 0855.17
2009/04/23 10:00:49.5    -198   -249    155    319    354 218.5  27.8  34146  289.35 0855.17
2009/04/23 10:00:49.6    -148   -168    149    225    269 221.4  36.5  34146  289.32 0855.17
2009/04/23 10:00:49.7    -210   -172     42    272    276 230.7   8.9  34142  289.27 0855.17
2009/04/23 10:00:49.8    -273   -193    -68    335    342 234.7 -11.5  34136  289.18 0855.17
2009/04/23 10:00:49.9    -156   -271    -35    313    316 209.9  -6.5  34124  288.97 0855.17
2009/04/23 10:00:50.0    -226   -220     68    316    324 225.8  12.2  34134  289.12 0855.17
2009/04/23 10:00:50.1    -248   -263    240    362    434 223.3  36.7  34142  289.26 0855.17
2009/04/23 10:00:50.2    -145   -177    235    230    328 219.4  50.6  34134  289.12 0855.17
2009/04/23 10:00:50.3    -168   -193    285    256    383 221.0  53.5  34132  289.11 0855.17
2009/04/23 10:00:50.4    -147   -173    201    228    303 220.3  45.8  34136  289.17 0855.17
2009/04/23 10:00:50.5    -258    -92    115    275    298 250.3  24.1  34146  289.32 0855.17
2009/04/23 10:00:50.6    -405   -332     68    524    529 230.6   7.5  34138  289.21 0855.17
2009/04/23 10:00:50.7    -443   -348    -27    564    565 231.9  -2.8  34156  289.51 0855.17
2009/04/23 10:00:50.8    -387   -473    -23    612    613 219.3  -2.2  34142  289.27 0855.18
2009/04/23 10:00:50.9    -398   -451     79    602    608 221.4   7.5  34136  289.17 0855.18
2009/04/23 10:00:51.0    -311   -524     29    610    611 210.7   2.8  34142  289.25 0855.18
2009/04/23 10:00:51.1    -304   -463      6    555    556 213.3   0.7  34140  289.24 0855.18
2009/04/23 10:00:51.2    -371   -436     -2    573    574 220.4  -0.3  34134  289.12 0855.18
2009/04/23 10:00:51.3    -419   -419    -84    593    600 225.0  -8.1  34130  289.08 0855.18
2009/04/23 10:00:51.4    -409   -422    -96    589    598 224.1  -9.3  34134  289.12 0855.18
2009/04/23 10:00:51.5    -308   -298    -38    429    431 226.0  -5.2  34134  289.12 0855.18
2009/04/23 10:00:51.6    -203   -264     47    334    338 217.6   8.0  34146  289.32 0855.18
2009/04/23 10:00:51.7    -331   -257   -118    420    437 232.2 -15.8  34148  289.36 0855.18
2009/04/23 10:00:51.8    -434   -230    -19    492    493 242.1  -2.2  34136  289.18 0855.18
2009/04/23 10:00:51.9    -298   -298     85    422    431 225.0  11.4  34138  289.21 0855.18
2009/04/23 10:00:52.0     -22   -242     69    244    254 185.3  15.8  34142  289.27 0855.18
2009/04/23 10:00:52.1     -34   -248    128    251    281 188.0  29.2  34142  289.25 0855.18
2009/04/23 10:00:52.2    -103   -304    123    322    344 198.7  21.8  34144  289.30 0855.18
2009/04/23 10:00:52.3    -112   -211     70    239    250 208.0  16.3  34148  289.37 0855.18
2009/04/23 10:00:52.4    -141   -150     79    206    220 223.2  21.7  34154  289.48 0855.18
2009/04/23 10:00:52.5     -15   -194     53    195    203 184.5  15.2  34144  289.30 0855.18
2009/04/23 10:00:52.6      13   -259    131    260    291 177.1  28.7  34134  289.14 0855.18
2009/04/23 10:00:52.7     -46   -292    213    296    364 189.1  39.3  34116  288.82 0855.18
2009/04/23 10:00:52.8     -99   -313    250    329    413 197.6  41.1  34114  288.79 0855.19
2009/04/23 10:00:52.9     -57   -179    183    189    263 197.8  49.2  34124  288.95 0855.19
2009/04/23 10:00:53.0     -40    -16     22     44     49 247.4  27.3  34118  288.87 0855.19
2009/04/23 10:00:53.1     -36   -134     73    139    157 195.2  29.8  34118  288.86 0855.19
2009/04/23 10:00:53.2    -157   -246     19    293    294 212.6   3.8  34116  288.83 0855.19
2009/04/23 10:00:53.3    -190   -249    110    314    333 217.3  19.3  34116  288.83 0855.19
2009/04/23 10:00:53.4     -63   -169    118    181    216 200.7  36.0  34116  288.84 0855.19
2009/04/23 10:00:53.5      35    -64    181     74    195 151.1  76.8  34132  289.09 0855.19
2009/04/23 10:00:53.6      22   -155    128    157    202 171.9  43.7  34120  288.89 0855.19
2009/04/23 10:00:53.7      78   -111     96    136    166 144.8  38.8  34118  288.87 0855.19
2009/04/23 10:00:53.8     163    -59     93    174    197 110.0  30.6  34116  288.82 0855.19
2009/04/23 10:00:53.9     223   -180     25    287    289 128.9   5.0  34118  288.85 0855.19
2009/04/23 10:00:54.0     174   -269     52    321    326 147.0   9.3  34110  288.71 0855.19
2009/04/23 10:00:54.1     239   -224     54    328    333 133.2   9.4  34110  288.74 0855.19
2009/04/23 10:00:54.2     182   -146    110    234    258 128.9  27.1  34108  288.68 0855.19
2009/04/23 10:00:54.3     171   -147    173    226    284 130.7  41.6  34112  288.75 0855.19
2009/04/23 10:00:54.4     158    -71    166    174    240 114.4  48.7  34108  288.69 0855.19
2009/04/23 10:00:54.5      24      4    131     25    133  80.3  89.6  34122  288.94 0855.19
2009/04/23 10:00:54.6      23      4    105     24    107  80.3  88.0  34116  288.82 0855.19
2009/04/23 10:00:54.7     -26      3    111     27    114 277.9  85.9  34128  289.04 0855.19
2009/04/23 10:00:54.8      99   -151    188    181    260 146.8  51.2  34114  288.78 0855.21
2009/04/23 10:00:54.9     100     22    199    103    224  77.6  70.6  34100  288.57 0855.21
2009/04/23 10:00:55.0      93     72    144    118    186  52.2  56.4  34124  288.96 0855.21
2009/04/23 10:00:55.1     119    -41    159    126    202 109.1  57.9  34122  288.94 0855.21
2009/04/23 10:00:55.2      52    -17    194     55    201 108.4  84.1  34124  288.97 0855.21
2009/04/23 10:00:55.3     263    -52    193    269    331 101.2  39.1  34116  288.81 0855.21
2009/04/23 10:00:55.4     182    -72    239    196    309 111.7  56.4  34100  288.54 0855.21
2009/04/23 10:00:55.5      84    -11    172     85    191  97.5  72.4  34110  288.72 0855.21
2009/04/23 10:00:55.6      44   -151    202    158    256 163.5  58.2  34098  288.52 0855.21
2009/04/23 10:00:55.7      58    -70    213     92    232 140.4  75.3  34106  288.67 0855.21
2009/04/23 10:00:55.8     136    -54    217    147    262 111.8  62.7  34098  288.53 0855.21
2009/04/23 10:00:55.9     105    -27    149    109    184 104.6  60.5  34106  288.65 0855.21
2009/04/23 10:00:56.0      15   -121    230    122    260 172.9  69.8  34110  288.72 0855.21
2009/04/23 10:00:56.1     -73   -140    100    158    186 207.6  35.5  34112  288.75 0855.21
2009/04/23 10:00:56.2     -97    -11     91     98    133 263.0  47.9  34110  288.74 0855.21
2009/04/23 10:00:56.3     -68     72     37    100    106 316.8  20.4  34104  288.62 0855.21
2009/04/23 10:00:56.4     -88      8     90     89    126 275.7  50.1  34120  288.91 0855.21
2009/04/23 10:00:56.5      -2    162     32    163    167 359.1  11.1  34106  288.67 0855.21
2009/04/23 10:00:56.6      33    204     11    207    208   9.3   3.1  34108  288.70 0855.21
2009/04/23 10:00:56.7      19    171    100    173    199   6.5  32.7  34108  288.70 0855.21
2009/04/23 10:00:56.8      31    -10     74     33     81 108.2  74.5  34116  288.82 0855.18
2009/04/23 10:00:56.9     -93   -118    120    151    192 218.3  42.7  34104  288.64 0855.18
2009/04/23 10:00:57.0     -76   -247     92    259    276 197.2  19.6  34094  288.44 0855.18
2009/04/23 10:00:57.1       3   -308    176    309    355 179.3  32.3  34094  288.44 0855.18
2009/04/23 10:00:57.2      -3   -305    218    306    375 180.7  39.1  34094  288.44 0855.18
2009/04/23 10:00:57.3     -20   -330    198    331    385 183.5  33.7  34096  288.50 0855.18
2009/04/23 10:00:57.4      -5   -300    271    301    405 181.0  46.8  34090  288.38 0855.18
2009/04/23 10:00:57.5      32   -299    248    301    390 173.8  43.7  34096  288.49 0855.18
2009/04/23 10:00:57.6      76   -333    256    342    427 167.1  40.6  34098  288.52 0855.18
2009/04/23 10:00:57.7      60   -274    260    281    382 167.5  47.8  34100  288.55 0855.18
2009/04/23 10:00:57.8     242   -370    154    443    470 146.8  19.2  34096  288.48 0855.18
2009/04/23 10:00:57.9     234   -337    216    411    464 145.3  30.0  34094  288.45 0855.18
2009/04/23 10:00:58.0     203   -393    106    443    456 152.7  13.5  34098  288.51 0855.18
2009/04/23 10:00:58.1     124   -406    127    425    444 163.0  16.7  34096  288.48 0855.18
2009/04/23 10:00:58.2     127   -344    193    367    414 159.7  30.2  34092  288.42 0855.18
2009/04/23 10:00:58.3     145   -363    172    392    428 158.2  25.2  34092  288.41 0855.18
2009/04/23 10:00:58.4     179   -493    146    525    546 160.0  15.6  34096  288.48 0855.18
2009/04/23 10:00:58.5      92   -421    122    432    449 167.6  15.8  34098  288.51 0855.18
2009/04/23 10:00:58.6      33   -410    137    412    435 175.3  18.4  34098  288.51 0855.18
2009/04/23 10:00:58.7      -5   -408    141    409    433 180.8  19.1  34100  288.56 0855.18
2009/04/23 10:00:58.8      65   -324    106    331    348 168.7  17.8  34100  288.55 0855.17
2009/04/23 10:00:58.9      25   -270     96    272    289 174.7  19.4  34102  288.58 0855.17
2009/04/23 10:00:59.0      -3   -204    156    205    257 180.9  40.9  34100  288.56 0855.17
2009/04/23 10:00:59.1     -63   -368     35    374    376 189.7   5.4  34100  288.57 0855.17
2009/04/23 10:00:59.2     -81   -412     39    421    423 191.2   5.4  34100  288.55 0855.17
2009/04/23 10:00:59.3     -78   -388    -21    396    397 191.4  -3.1  34094  288.45 0855.17
2009/04/23 10:00:59.4     -56   -406     95    410    421 187.9  13.1  34098  288.53 0855.17
2009/04/23 10:00:59.5    -478   -197   -142    518    537 247.6 -20.0  34098  288.53 0855.17
2009/04/23 10:00:59.6    -381    -74   -233    389    453 259.0 -38.0  34096  288.48 0855.17
2009/04/23 10:00:59.7    -286    -87     12    300    301 253.1   2.3  34094  288.44 0855.17
2009/04/23 10:00:59.8    -334      0      0    335    336 270.0   0.0  34106  288.66 0855.17
2009/04/23 10:00:59.9    -177    -59     59    187    197 251.6  17.7  34106  288.67 0855.17
2009/04/23 10:01:00.0    -137   -135    110    193    222 225.6  32.1  34100  288.55 0855.17
2009/04/23 10:01:00.1    -191   -356    146    404    430 208.2  19.9  34106  288.67 0855.17
2009/04/23 10:01:00.2    -336    -94    166    350    387 254.3  27.2  34112  288.76 0855.17
2009/04/23 10:01:00.3    -235    -34    220    238    324 261.6  47.7  34118  288.85 0855.17
2009/04/23 10:01:00.4    -110    -49    111    121    164 246.0  47.7  34122  288.94 0855.17
2009/04/23 10:01:00.5    -139    -28   -144    142    202 258.6 -54.5  34108  288.70 0855.17
2009/04/23 10:01:00.6    -141    193    -72    240    250 323.9 -21.8  34102  288.58 0855.17
2009/04/23 10:01:00.7    -252    120    -84    280    293 295.4 -16.8  34110  288.73 0855.17
2009/04/23 10:01:00.8    -369    121    -32    389    391 288.2  -4.8  34108  288.69 0855.20
2009/04/23 10:01:00.9    -407    109    -61    422    427 285.1  -8.3  34112  288.75 0855.20
2009/04/23 10:01:01.0    -346    -26     -5    347    348 265.6  -0.9  34106  288.66 0855.20
2009/04/23 10:01:01.1    -334    -69    121    342    363 258.3  19.5  34110  288.72 0855.20
2009/04/23 10:01:01.2    -205   -369    164    423    453 209.0  22.3  34124  288.97 0855.20
2009/04/23 10:01:01.3    -217   -209    -83    302    313 226.0 -20.0  34122  288.93 0855.20
2009/04/23 10:01:01.4    -325     30   -106    327    343 275.3 -23.0  34110  288.74 0855.20
2009/04/23 10:01:01.5    -654     -6   -188    655    682 269.4 -16.0  34108  288.68 0855.20
2009/04/23 10:01:01.6    -509    109   -221    521    565 282.2 -28.7  34104  288.63 0855.20
2009/04/23 10:01:01.7    -534    223   -223    580    621 292.7 -26.5  34104  288.64 0855.20
2009/04/23 10:01:01.8    -286     26   -184    288    341 275.2 -40.0  34108  288.68 0855.16
2009/04/23 10:01:01.9    -199     82   -163    216    270 292.4 -45.1  34106  288.65 0855.16
2009/04/23 10:01:02.0    -254    101   -198    274    338 291.8 -43.9  34110  288.71 0855.16
2009/04/23 10:01:02.1    -194    220   -227    294    371 318.5 -46.0  34096  288.49 0855.16
2009/04/23 10:01:02.2    -118     52   -144    130    194 294.0 -57.4  34120  288.89 0855.16
2009/04/23 10:01:02.3     -74     55    -93     93    131 306.4 -54.5  34116  288.84 0855.16
2009/04/23 10:01:02.4     113   -146    -47    185    191 142.2 -14.3  34116  288.84 0855.16
2009/04/23 10:01:02.5     182    -62     53    193    201 108.8  15.3  34116  288.84 0855.16
2009/04/23 10:01:02.6     131     64     50    146    155  63.8  18.9  34112  288.75 0855.16
2009/04/23 10:01:02.7     151    -11    136    152    203  94.4  46.4  34116  288.82 0855.16
2009/04/23 10:01:02.8     183    -45    204    189    278 103.9  52.2  34120  288.90 0855.16
2009/04/23 10:01:02.9     106     76    191    131    231  54.0  62.6  34116  288.84 0855.16
2009/04/23 10:01:03.0     193   -131    160    234    283 124.2  37.6  34116  288.81 0855.16
2009/04/23 10:01:03.1      23     16    176     29    178  55.8  90.0  34130  289.08 0855.16
2009/04/23 10:01:03.2      41    -53    193     68    204 142.2  80.2  34126  289.01 0855.16
2009/04/23 10:01:03.3     118     97    148    154    213  50.5  49.2  34130  289.06 0855.16
2009/04/23 10:01:03.4     134     10    113    135    176  85.6  44.3  34122  288.94 0855.16
2009/04/23 10:01:03.5     -34   -351    124    353    374 185.6  20.2  34110  288.71 0855.16
2009/04/23 10:01:03.6     186   -393    222    435    488 154.7  29.2  34108  288.68 0855.16
2009/04/23 10:01:03.7     230   -305    236    383    449 143.0  34.5  34118  288.87 0855.16
2009/04/23 10:01:03.8     254   -322    128    411    431 141.8  17.3  34116  288.82 0855.16
2009/04/23 10:01:03.9     272    -64    143    280    314 103.3  29.2  34108  288.70 0855.16
2009/04/23 10:01:04.0      77   -157    256    176    310 153.7  62.6  34122  288.92 0855.16
2009/04/23 10:01:04.1      62     78    216    100    238  38.7  73.5  34120  288.91 0855.16
2009/04/23 10:01:04.2     164     32    175    168    242  79.0  51.2  34110  288.74 0855.16
2009/04/23 10:01:04.3     145     11    208    146    254  85.7  61.5  34124  288.96 0855.16
2009/04/23 10:01:04.4      99   -112    149    150    211 138.6  50.0  34128  289.02 0855.16
2009/04/23 10:01:04.5     -15   -145    167    146    221 186.2  54.3  34116  288.84 0855.16
2009/04/23 10:01:04.6      68   -272    186    281    336 165.8  36.6  34114  288.80 0855.16
2009/04/23 10:01:04.7      -9   -350    170    351    390 181.5  27.8  34116  288.81 0855.16
2009/04/23 10:01:04.8    -157   -487    167    512    539 197.9  18.1  34132  289.09 0855.16
2009/04/23 10:01:04.9      58   -403    159    408    437 171.8  22.4  34116  288.82 0855.16
2009/04/23 10:01:05.0     260   -260    309    368    480 135.0  44.3  34112  288.75 0855.16
2009/04/23 10:01:05.2     118   -240    263    268    375 153.7  49.7  34116  288.84 0855.16
2009/04/23 10:01:05.3     -15   -433    256    434    503 182.1  33.4  34116  288.84 0855.16
2009/04/23 10:01:05.3      14   -448    217    449    498 178.2  27.7  34116  288.81 0855.16
2009/04/23 10:01:05.5     -69   -352    231    359    426 191.2  35.6  34120  288.90 0855.16
2009/04/23 10:01:05.6    -209   -229    215    311    378 222.3  38.0  34126  288.99 0855.16
2009/04/23 10:01:05.7     -97   -223    213    244    323 203.6  45.5  34122  288.92 0855.16
2009/04/23 10:01:05.8      73   -176    195    191    272 157.5  50.4  34120  288.88 0855.16
2009/04/23 10:01:05.9     148   -244    176    286    335 148.8  34.6  34116  288.83 0855.16
2009/04/23 10:01:06.0     142   -204    174    249    303 145.0  38.5  34116  288.83 0855.16
2009/04/23 10:01:06.1     178   -106    137    208    249 120.9  36.5  34118  288.85 0855.16
2009/04/23 10:01:06.2      39   -104    155    112    191 159.1  60.6  34124  288.97 0855.16
2009/04/23 10:01:06.3     105   -298    173    317    361 160.6  31.3  34116  288.84 0855.16
2009/04/23 10:01:06.4      76   -333    188    342    390 167.0  31.4  34122  288.93 0855.16
2009/04/23 10:01:06.5      90   -294    147    308    341 163.0  27.3  34120  288.91 0855.16
2009/04/23 10:01:06.6     104   -232    160    255    301 155.9  35.5  34114  288.78 0855.16
2009/04/23 10:01:06.7     115   -259    154    284    323 155.9  30.8  34114  288.78 0855.16
2009/04/23 10:01:06.8     135   -285    222    316    386 154.7  38.6  34120  288.91 0855.16
2009/04/23 10:01:06.9     109   -358    247    375    449 163.0  36.5  34112  288.75 0855.16
2009/04/23 10:01:07.0     110   -377    186    393    434 163.7  27.1  34116  288.83 0855.16
2009/04/23 10:01:07.1    -105   -172    221    202    299 211.6  53.0  34114  288.80 0855.16
2009/04/23 10:01:07.2     -47    -14    152     50    160 253.2  81.0  34126  288.99 0855.16
2009/04/23 10:01:07.3      56   -101    113    116    161 150.6  49.4  34124  288.97 0855.16
2009/04/23 10:01:07.4      39   -218    116    222    250 169.8  29.8  34116  288.83 0855.16
2009/04/23 10:01:07.5     -55   -307    153    313    348 190.2  27.9  34126  288.98 0855.16
2009/04/23 10:01:07.6      71   -361     75    369    377 168.8  11.6  34120  288.88 0855.16
2009/04/23 10:01:07.7      91   -330     59    343    349 164.5   9.9  34116  288.82 0855.16
2009/04/23 10:01:07.8     178   -317     46    364    367 150.7   7.2  34120  288.88 0855.16
2009/04/23 10:01:07.9      87   -413    -38    423    425 168.1  -5.2  34118  288.87 0855.15
2009/04/23 10:01:08.0     186   -377     81    421    429 153.7  11.0  34110  288.73 0855.15
2009/04/23 10:01:08.1     252   -383     43    459    462 146.6   5.5  34116  288.82 0855.15
2009/04/23 10:01:08.2     222   -349      0    414    415 147.5   0.0  34118  288.87 0855.15
2009/04/23 10:01:08.3     318   -285     47    428    431 131.9   6.4  34114  288.78 0855.15
2009/04/23 10:01:08.4     236   -235     34    334    336 134.8   6.0  34112  288.76 0855.15
2009/04/23 10:01:08.5     172   -294     71    341    349 149.6  11.8  34114  288.79 0855.15
2009/04/23 10:01:08.6     217   -231    -87    317    329 136.8 -15.5  34118  288.87 0855.15
2009/04/23 10:01:08.7     270   -249    -31    368    370 132.7  -4.9  34116  288.81 0855.15
2009/04/23 10:01:08.8     198   -255    -54    323    328 142.2  -9.6  34122  288.92 0855.15
2009/04/23 10:01:08.9     218   -218    -76    309    319 135.0 -13.9  34120  288.90 0855.15
2009/04/23 10:01:09.0     251   -297    -94    389    401 139.8 -13.7  34114  288.79 0855.15
2009/04/23 10:01:09.1     250   -339   -126    422    440 143.6 -21.7  34120  288.89 0855.15
2009/04/23 10:01:09.2     166   -268   -121    316    338 148.3 -26.4  34116  288.81 0855.15
2009/04/23 10:01:09.3     193   -204   -115    282    304 136.6 -27.5  34120  288.88 0855.15
2009/04/23 10:01:09.4      22   -153    -24    155    157 171.5  -8.8  34122  288.92 0855.15
2009/04/23 10:01:09.5     -21   -156   -111    158    193 188.0 -42.8  34122  288.94 0855.15
2009/04/23 10:01:09.6     159   -158     43    225    230 134.9  11.0  34118  288.87 0855.15
2009/04/23 10:01:09.7      31   -114     12    119    120 164.9   5.9  34120  288.89 0855.15
2009/04/23 10:01:09.8      53    -98    -40    112    120 151.5 -19.7  34122  288.94 0855.15
2009/04/23 10:01:09.9      66    -73    -44     99    108 137.7 -30.1  34124  288.96 0855.13
2009/04/23 10:01:10.0      55    -39    -16     68     70 126.0 -13.4  34120  288.91 0855.13
2009/04/23 10:01:10.1     -17   -123    -42    125    131 188.0 -23.6  34124  288.97 0855.13
2009/04/23 10:01:10.2      47   -134    -66    143    157 160.4 -30.8  34124  288.96 0855.13
2009/04/23 10:01:10.3      47   -104    -36    115    120 155.5 -22.3  34124  288.97 0855.13
2009/04/23 10:01:10.4      -5    -79      5     80     81 184.0   3.8  34120  288.91 0855.13
2009/04/23 10:01:10.5     -16    -18    -16     25     29 221.4 -39.9  34120  288.89 0855.13
2009/04/23 10:01:10.6      -1      4     12      5     13 348.4  81.2  34126  288.99 0855.13
2009/04/23 10:01:10.7     -17     53     24     56     60 341.3  24.1  34132  289.09 0855.13
2009/04/23 10:01:10.8     -87     48     34    100    106 298.9  18.9  34126  289.01 0855.13
2009/04/23 10:01:10.9     -74      2     14     75     77 271.7  11.1  34124  288.96 0855.13
2009/04/23 10:01:11.0    -138      6    -38    139    145 272.6 -15.5  34120  288.89 0855.13
2009/04/23 10:01:11.1    -111    -45    -15    120    121 247.8  -7.2  34116  288.84 0855.13
2009/04/23 10:01:11.2     -93    -31    -12     99    100 251.4  -7.3  34118  288.87 0855.13
2009/04/23 10:01:11.3       0     20    -13     21     24 357.3 -39.9  34128  289.02 0855.13
2009/04/23 10:01:11.4     -10     11     35     16     38 316.6  75.0  34132  289.11 0855.13
2009/04/23 10:01:11.5     -29      3     10     30     32 276.1  18.9  34128  289.04 0855.13
2009/04/23 10:01:11.6      -3    -11     32     12     34 198.5  81.2  34136  289.18 0855.13
2009/04/23 10:01:11.7    -115    -51     15    126    127 246.0   7.1  34122  288.92 0855.13
2009/04/23 10:01:11.8    -209    -84      2    226    227 248.0   0.7  34112  288.75 0855.13
2009/04/23 10:01:11.9    -148    -49     52    157    166 251.6  18.6  34120  288.91 0855.16
2009/04/23 10:01:12.0    -148     49     60    156    167 288.4  22.0  34116  288.82 0855.16
2009/04/23 10:01:12.1    -163     68     99    177    202 292.6  31.9  34120  288.91 0855.16
2009/04/23 10:01:12.2    -141     77    -50    161    168 298.6 -22.3  34126  288.99 0855.16
2009/04/23 10:01:12.3     -65    -95      7    116    117 214.3   3.8  34122  288.94 0855.16
2009/04/23 10:01:12.4    -101    -93    126    138    186 227.3  47.5  34134  289.13 0855.16
2009/04/23 10:01:12.5     -80   -137    152    159    219 210.3  48.7  34136  289.16 0855.16
2009/04/23 10:01:12.6    -194    -78     88    210    227 248.2  24.1  34134  289.14 0855.16
2009/04/23 10:01:12.7    -174   -117    -16    210    211 236.0  -4.6  34136  289.18 0855.16
2009/04/23 10:01:12.8     -38   -224    -37    228    232 189.8  -9.3  34134  289.13 0855.16
2009/04/23 10:01:12.9      15   -111    -40    113    120 172.0 -19.6  34140  289.23 0855.16
2009/04/23 10:01:13.0      72   -149     69    166    179 154.1  23.8  34128  289.04 0855.16
2009/04/23 10:01:13.1      62   -152     70    165    179 157.7  24.1  34122  288.94 0855.16
2009/04/23 10:01:13.2     -13   -172     65    173    184 184.5  21.3  34122  288.92 0855.16
2009/04/23 10:01:13.3      -9   -189     27    190    192 182.9   8.2  34120  288.91 0855.16
2009/04/23 10:01:13.4     -50   -123     16    134    136 202.3   7.1  34118  288.87 0855.16
2009/04/23 10:01:13.5      59   -194     74    203    216 163.1  20.9  34114  288.79 0855.16
2009/04/23 10:01:13.6      42   -224     79    228    242 169.3  19.2  34116  288.83 0855.16
2009/04/23 10:01:13.7      62   -230     99    239    258 164.8  23.6  34116  288.83 0855.16
2009/04/23 10:01:13.8     120   -189    186    225    291 147.5  43.8  34124  288.97 0855.16
2009/04/23 10:01:13.9     -24   -291    187    293    347 184.9  35.6  34116  288.82 0855.21
2009/04/23 10:01:14.0      10   -241    279    242    369 177.5  54.7  34112  288.76 0855.21
2009/04/23 10:01:14.1      24   -114    181    117    215 168.0  64.4  34124  288.97 0855.21
2009/04/23 10:01:14.2     130   -169    185    214    282 142.4  45.6  34124  288.95 0855.21
2009/04/23 10:01:14.3     167   -179    153    246    289 137.0  35.0  34120  288.90 0855.21
2009/04/23 10:01:14.4     100   -162     98    191    214 148.4  29.3  34118  288.87 0855.21
2009/04/23 10:01:14.5     -47   -157    220    164    274 196.7  59.6  34120  288.88 0855.21
2009/04/23 10:01:14.6     127   -257    289    287    407 153.7  50.1  34120  288.91 0855.21
2009/04/23 10:01:14.7     177   -382    323    422    531 155.1  41.3  34124  288.95 0855.21
2009/04/23 10:01:14.8      64   -324    239    331    408 168.8  39.3  34120  288.89 0855.21
2009/04/23 10:01:14.9     -21   -279    210    280    350 184.4  40.6  34122  288.93 0855.21
2009/04/23 10:01:15.0       5   -305    221    306    377 179.0  39.5  34120  288.88 0855.21
2009/04/23 10:01:15.1     -35   -236    171    239    293 188.5  39.5  34120  288.90 0855.21
2009/04/23 10:01:15.2     -14   -226    157    227    276 183.6  38.0  34120  288.88 0855.21
2009/04/23 10:01:15.3      -6   -204    196    205    283 181.8  49.0  34120  288.90 0855.21
2009/04/23 10:01:15.4     -10      7    111     13    111 306.0  90.0  34132  289.09 0855.21
2009/04/23 10:01:15.5     195    -63    181    205    273 107.9  45.9  34122  288.92 0855.21
2009/04/23 10:01:15.6     209   -113    233    238    333 118.4  49.3  34124  288.97 0855.21
2009/04/23 10:01:15.7      44      0    152     45    158  90.8  83.3  34124  288.96 0855.21
2009/04/23 10:01:15.8       0    -21    128     22    129 180.9  90.0  34130  289.08 0855.21
2009/04/23 10:01:15.9      22    -35    100     42    108 148.4  76.1  34124  288.96 0855.22
2009/04/23 10:01:16.0     -17   -232    266    233    353 184.4  54.3  34118  288.85 0855.22
2009/04/23 10:01:16.1       0   -324    119    325    346 179.9  21.0  34116  288.84 0855.22
2009/04/23 10:01:16.2      46   -231     82    236    250 168.5  19.2  34116  288.83 0855.22
2009/04/23 10:01:16.3     118   -380    140    398    421 162.7  20.1  34116  288.82 0855.22
2009/04/23 10:01:16.4     126   -458    124    476    492 164.6  14.6  34116  288.84 0855.22
2009/04/23 10:01:16.5     295   -332     31    445    447 138.3   4.0  34118  288.85 0855.22
2009/04/23 10:01:16.6     155   -435    224    463    514 160.3  27.8  34110  288.73 0855.22
2009/04/23 10:01:16.7     -69   -432    215    438    487 189.1  28.0  34116  288.83 0855.22
2009/04/23 10:01:16.8     160   -182    170    243    296 138.6  38.5  34116  288.83 0855.22
2009/04/23 10:01:16.9     265   -306    -52    405    409 139.1  -7.3  34112  288.75 0855.22
2009/04/23 10:01:17.0     131   -208     70    247    257 147.7  16.0  34118  288.87 0855.22
2009/04/23 10:01:17.1     137   -201     52    244    250 145.8  12.2  34114  288.80 0855.22
2009/04/23 10:01:17.2     150   -126     34    197    201 130.0   9.9  34118  288.86 0855.22
2009/04/23 10:01:17.3     146   -208     46    255    260 145.0  10.3  34116  288.83 0855.22
2009/04/23 10:01:17.4     204   -129     86    242    256 122.4  20.4  34118  288.85 0855.22
2009/04/23 10:01:17.5     163   -151     28    223    225 132.7   7.2  34120  288.89 0855.22
2009/04/23 10:01:17.6     160   -165     -5    230    231 135.9  -1.3  34118  288.86 0855.22
2009/04/23 10:01:17.7     196   -229     20    302    303 139.5   3.8  34118  288.87 0855.22
2009/04/23 10:01:17.8     144   -252    164    291    334 150.2  31.7  34120  288.90 0855.22
2009/04/23 10:01:17.9      99   -265    210    284    353 159.5  40.2  34120  288.88 0855.26
2009/04/23 10:01:18.0     -62   -420    170    425    457 188.5  23.0  34120  288.90 0855.26
2009/04/23 10:01:18.1    -116   -523    214    536    577 192.6  23.0  34124  288.96 0855.26
2009/04/23 10:01:18.2      48   -486    259    489    553 174.3  30.2  34126  289.01 0855.26
2009/04/23 10:01:18.3     328   -450    275    558    622 143.9  28.2  34126  289.00 0855.26
2009/04/23 10:01:18.4     117   -433    200    449    491 164.9  25.6  34124  288.95 0855.26
2009/04/23 10:01:18.5     166   -494    -56    522    526 161.4  -6.2  34128  289.04 0855.26
2009/04/23 10:01:18.6     178   -454    -26    488    489 158.6  -3.1  34124  288.95 0855.26
2009/04/23 10:01:18.7     262   -331    -15    423    424 141.6  -2.1  34124  288.97 0855.26
2009/04/23 10:01:18.8      92   -380    197    392    438 166.3  28.7  34122  288.94 0855.26
2009/04/23 10:01:18.9      53   -389     73    393    400 172.2  10.6  34126  288.98 0855.26
2009/04/23 10:01:19.0      33   -358     79    360    369 174.7  12.5  34128  289.03 0855.26
2009/04/23 10:01:19.1     109   -600     12    610    611 169.7   1.2  34120  288.88 0855.26
2009/04/23 10:01:19.2     121   -569     38    582    584 168.0   3.8  34122  288.93 0855.26
2009/04/23 10:01:19.3     124   -495    131    511    528 165.9  14.4  34120  288.91 0855.26
2009/04/23 10:01:19.4     172   -596    225    621    661 163.9  19.9  34116  288.82 0855.26
2009/04/23 10:01:19.5     131   -575    150    590    609 167.1  14.3  34112  288.76 0855.26
2009/04/23 10:01:19.6      57   -455    123    459    476 172.8  15.0  34114  288.79 0855.26
2009/04/23 10:01:19.7     111   -332    -32    351    353 161.5  -5.3  34122  288.93 0855.26
2009/04/23 10:01:19.8     143   -289    -30    323    325 153.6  -5.5  34118  288.85 0855.26
2009/04/23 10:01:19.9     112   -193     12    224    225 149.9   3.3  34116  288.84 0855.27
2009/04/23 10:01:20.0      61   -119     42    134    141 152.9  17.4  34116  288.82 0855.27
2009/04/23 10:01:20.1     212   -166     95    270    287 128.0  19.4  34114  288.78 0855.27
2009/04/23 10:01:20.2     311    -33    -12    313    314  96.2  -2.2  34120  288.90 0855.27
2009/04/23 10:01:20.3     192    -68    -89    204    222 109.5 -29.5  34120  288.89 0855.27
2009/04/23 10:01:20.4     198   -188   -170    274    322 133.6 -39.3  34120  288.88 0855.27
2009/04/23 10:01:20.5     211   -127   -203    247    319 121.1 -48.0  34124  288.95 0855.27
2009/04/23 10:01:20.6     151   -111    -64    188    198 126.2 -23.8  34120  288.89 0855.27
2009/04/23 10:01:20.7     137   -101    -59    171    180 126.4 -23.8  34122  288.92 0855.27
2009/04/23 10:01:20.8      81     22    -74     85    112  74.5 -49.8  34124  288.97 0855.27
2009/04/23 10:01:20.9      60    -32    -29     69     74 118.0 -28.5  34126  289.01 0855.27
2009/04/23 10:01:21.0     177    -14     32    178    181  94.8  10.3  34118  288.86 0855.27
2009/04/23 10:01:21.1     306    -28     86    308    320  95.3  15.7  34118  288.87 0855.27
2009/04/23 10:01:21.2     312    -25     52    314    319  94.6   9.5  34118  288.87 0855.27
2009/04/23 10:01:21.3     390      5   -107    391    406  89.2 -15.4  34122  288.93 0855.27
2009/04/23 10:01:21.4     331    -32   -143    333    362  95.6 -29.3  34122  288.94 0855.27
2009/04/23 10:01:21.5     242   -105   -204    264    333 113.5 -46.1  34128  289.02 0855.27
2009/04/23 10:01:21.6     154   -182   -204    239    314 139.7 -49.2  34120  288.90 0855.27
2009/04/23 10:01:21.7     185   -240   -173    304    349 142.4 -36.7  34120  288.91 0855.27
2009/04/23 10:01:21.8     272   -399   -165    484    512 145.7 -18.8  34116  288.81 0855.27
2009/04/23 10:01:21.9      11   -421   -167    422    453 178.4 -27.3  34104  288.63 0855.25
2009/04/23 10:01:22.0      46   -269   -217    274    349 170.2 -47.0  34116  288.81 0855.25
2009/04/23 10:01:22.1      72   -166   -140    182    229 156.4 -46.1  34118  288.87 0855.25
2009/04/23 10:01:22.2      67   -196   -115    208    237 161.1 -35.8  34114  288.79 0855.25
2009/04/23 10:01:22.3      19   -201    -82    202    218 174.4 -27.5  34124  288.96 0855.25
2009/04/23 10:01:22.4      46   -196    -74    202    215 166.6 -25.3  34120  288.89 0855.25
2009/04/23 10:01:22.5     150   -260    -64    301    308 150.1 -12.0  34116  288.83 0855.25
2009/04/23 10:01:22.6     225   -211    -51    309    314 133.1  -9.5  34120  288.88 0855.25
2009/04/23 10:01:22.7     207   -166   -102    266    284 128.6 -26.4  34120  288.88 0855.25
2009/04/23 10:01:22.8     172   -284     16    333    334 148.8   2.8  34116  288.82 0855.25
2009/04/23 10:01:22.9     102   -201     78    226    240 153.0  19.2  34120  288.88 0855.24
2009/04/23 10:01:23.0     118   -232     66    261    270 153.0  14.2  34120  288.88 0855.24
2009/04/23 10:01:23.1      55   -271     43    277    281 168.4   9.0  34120  288.88 0855.24
2009/04/23 10:01:23.2      40   -233     42    237    241 170.2  10.1  34116  288.81 0855.24
2009/04/23 10:01:23.3      13   -164     75    165    181 175.1  26.2  34122  288.92 0855.24
2009/04/23 10:01:23.4      21    -43    113     48    122 153.7  76.1  34134  289.13 0855.24
2009/04/23 10:01:23.5     -23   -112    104    115    155 191.6  46.9  34124  288.96 0855.24
2009/04/23 10:01:23.6      20   -187     48    189    196 173.8  14.3  34116  288.84 0855.24
2009/04/23 10:01:23.7      -8   -109    143    110    180 184.5  58.7  34120  288.89 0855.24
2009/04/23 10:01:23.8      10   -219    181    220    284 177.3  43.7  34118  288.87 0855.24
2009/04/23 10:01:23.9      19   -243    203    244    317 175.5  44.1  34122  288.92 0855.24
2009/04/23 10:01:24.0      -9   -189    239    190    305 182.9  57.5  34116  288.83 0855.24
2009/04/23 10:01:24.1      64   -212    203    222    300 163.1  47.5  34118  288.85 0855.24
2009/04/23 10:01:24.2      26   -106    175    110    206 166.2  64.7  34122  288.92 0855.24
2009/04/23 10:01:24.3      61   -137    130    151    199 155.9  45.4  34122  288.94 0855.24
2009/04/23 10:01:24.4     160   -209     65    264    272 142.6  13.9  34120  288.88 0855.24
2009/04/23 10:01:24.5     191   -220     85    292    305 139.0  16.3  34120  288.90 0855.24
2009/04/23 10:01:24.6     186   -221     43    290    294 139.9   8.5  34120  288.90 0855.24
2009/04/23 10:01:24.7     230   -199     73    305    314 130.9  13.5  34118  288.85 0855.24
2009/04/23 10:01:24.8     212   -149    110    260    282 125.1  24.2  34118  288.87 0855.24
2009/04/23 10:01:24.9     148   -148     79    210    224 135.0  21.3  34120  288.89 0855.23
2009/04/23 10:01:25.1     178   -154     58    236    244 130.9  13.9  34118  288.87 0855.23
2009/04/23 10:01:25.1     175   -104     40    204    208 120.7  11.1  34122  288.92 0855.23
2009/04/23 10:01:25.2     177    -92     28    200    203 117.5   8.0  34122  288.92 0855.23
2009/04/23 10:01:25.3     130    -91     86    159    180 125.1  30.8  34122  288.92 0855.23
2009/04/23 10:01:25.4      94    -80     75    124    144 130.4  34.4  34122  288.92 0855.23
2009/04/23 10:01:25.5      91   -142    -19    169    171 147.3  -6.7  34120  288.89 0855.23
2009/04/23 10:01:25.6     111    -37    -30    118    122 108.4 -14.5  34118  288.87 0855.23
2009/04/23 10:01:25.7      69     24    -20     74     77  70.9 -15.5  34120  288.89 0855.23
2009/04/23 10:01:25.8      57     47    -23     75     78  50.4 -23.8  34120  288.89 0855.23
2009/04/23 10:01:25.9      29     77    -24     83     86  20.5 -21.2  34120  288.89 0855.23
2009/04/23 10:01:26.0      18     93    -27     95     99  11.5 -16.0  34122  288.94 0855.23
2009/04/23 10:01:26.1       3     96    -35     97    104   1.8 -19.7  34122  288.94 0855.23
2009/04/23 10:01:26.2       0     97     -2     98     99 359.6  -1.3  34120  288.91 0855.23
2009/04/23 10:01:26.3       4     58     31     59     66   4.4  30.3  34124  288.97 0855.23
2009/04/23 10:01:26.4      14     55     47     57     73  14.3  43.8  34132  289.11 0855.23
2009/04/23 10:01:26.5      -9     28     79     30     84 341.3  79.2  34136  289.16 0855.23
2009/04/23 10:01:26.6      16     -6    105     18    106 111.7  90.0  34128  289.04 0855.23
2009/04/23 10:01:26.7      -4    -99    117    100    153 182.7  55.4  34124  288.96 0855.23
2009/04/23 10:01:26.8      25    -25    125     36    130 135.0  83.3  34130  289.08 0855.23
2009/04/23 10:01:26.9      45    -56    128     72    146 141.3  68.8  34130  289.08 0855.22
2009/04/23 10:01:27.0      95   -164    126    190    227 149.7  36.5  34122  288.94 0855.22
2009/04/23 10:01:27.1      50   -185     88    192    211 164.9  26.4  34118  288.87 0855.22
2009/04/23 10:01:27.2      96   -148     93    177    199 146.8  29.8  34120  288.89 0855.22
2009/04/23 10:01:27.3     115   -149    -24    189    191 142.2  -7.3  34120  288.91 0855.22
2009/04/23 10:01:27.4     164   -112     -7    199    200 124.4  -2.1  34120  288.89 0855.22
2009/04/23 10:01:27.5     180    -32     -7    183    184 100.1  -2.2  34120  288.89 0855.22
2009/04/23 10:01:27.6     187    -29     -7    190    191  98.8  -2.3  34120  288.89 0855.22
2009/04/23 10:01:27.7      93    -91    -21    131    133 134.4  -9.4  34120  288.89 0855.22
2009/04/23 10:01:27.8      82    -31     -4     88     89 110.8  -3.1  34118  288.87 0855.22
2009/04/23 10:01:27.9      45    -32     17     56     59 125.1  17.3  34120  288.91 0855.22
2009/04/23 10:01:28.0     -28    -85    -27     90     95 198.5 -17.0  34124  288.97 0855.22
2009/04/23 10:01:28.1     -47    -59    -42     76     86 218.7 -36.3  34128  289.04 0855.22
2009/04/23 10:01:28.2       3    -72    -85     73    112 177.3 -59.8  34124  288.96 0855.22
2009/04/23 10:01:28.3     -35   -146    -68    151    165 193.4 -30.1  34122  288.92 0855.22
2009/04/23 10:01:28.4      21   -178    -96    180    204 173.1 -35.0  34122  288.94 0855.22
2009/04/23 10:01:28.5     -28    -85    -22     90     93 198.3 -13.9  34130  289.08 0855.22
2009/04/23 10:01:28.6      -3    -61    -63     62     88 183.6 -54.1  34134  289.13 0855.22
2009/04/23 10:01:28.7      60    -16    -63     63     89 105.1 -54.5  34128  289.02 0855.22
2009/04/23 10:01:28.8      62    -39    -37     74     82 122.5 -32.6  34126  289.01 0855.22
2009/04/23 10:01:28.9      54    -34    -31     65     72 122.5 -31.6  34126  289.01 0855.23
2009/04/23 10:01:29.0      26    -75     -5     80     81 160.8  -4.1  34126  289.01 0855.23
2009/04/23 10:01:29.1       6   -143    -39    144    150 177.4 -15.4  34126  288.99 0855.23
2009/04/23 10:01:29.2     -99   -293    -39    310    313 198.7  -7.3  34122  288.93 0855.23
2009/04/23 10:01:29.3      37   -342   -162    345    381 173.7 -31.5  34122  288.93 0855.23
2009/04/23 10:01:29.4      68   -438   -133    444    463 171.2 -21.7  34116  288.83 0855.23
2009/04/23 10:01:29.5    -276   -310   -123    416    434 221.7 -16.5  34126  288.99 0855.23
2009/04/23 10:01:29.6    -454   -218    -32    504    506 244.3  -3.7  34122  288.93 0855.23
2009/04/23 10:01:29.7    -525   -322    -79    616    622 238.5  -7.3  34110  288.72 0855.23
2009/04/23 10:01:29.8    -373   -112     -7    390    391 253.2  -1.2  34126  288.98 0855.23
2009/04/23 10:01:29.9    -299    -65    -74    307    316 257.6 -13.6  34124  288.95 0855.23
2009/04/23 10:01:30.0     -37   -142    -90    147    172 194.7 -39.2  34128  289.04 0855.23
2009/04/23 10:01:30.1     -68   -297   -110    305    325 192.9 -19.8  34122  288.93 0855.23
2009/04/23 10:01:30.2      21   -282     29    283    285 175.6   5.9  34106  288.66 0855.23
2009/04/23 10:01:30.3    -131   -117    172    177    246 228.2  49.2  34124  288.97 0855.23
2009/04/23 10:01:30.4    -116    -42   -131    124    180 250.1 -56.4  34124  288.97 0855.23
2009/04/23 10:01:30.5    -227    -34    -32    230    233 261.4  -8.0  34126  288.99 0855.23
2009/04/23 10:01:30.6    -313     -7    -76    314    324 268.6 -13.7  34138  289.19 0855.23
2009/04/23 10:01:30.7    -273    -97   -140    290    322 250.3 -32.1  34136  289.17 0855.23
2009/04/23 10:01:30.8    -316    -64   -185    323    372 258.5 -36.7  34116  288.82 0855.23
2009/04/23 10:01:30.9    -130     39    -22    136    138 286.9  -9.4  34134  289.13 0855.23
2009/04/23 10:01:31.0    -237    112    -91    263    279 295.4 -19.1  34122  288.93 0855.23
2009/04/23 10:01:31.1    -296   -138   -138    327    354 244.9 -28.7  34138  289.21 0855.23
2009/04/23 10:01:31.2    -393   -200    -99    442    454 243.0 -12.7  34140  289.22 0855.23
2009/04/23 10:01:31.3    -228   -228    -27    323    325 225.0  -4.8  34136  289.17 0855.23
2009/04/23 10:01:31.4    -251   -197     44    320    324 231.8   7.9  34134  289.12 0855.23
2009/04/23 10:01:31.5    -398     -2   -130    399    420 269.6 -18.1  34118  288.87 0855.23
2009/04/23 10:01:31.6    -391     66   -230    397    458 279.6 -37.2  34114  288.78 0855.23
2009/04/23 10:01:31.7    -348    -69   -176    355    396 258.8 -32.6  34116  288.81 0855.23
2009/04/23 10:01:31.8    -221   -236    -78    324    334 223.2 -13.7  34132  289.10 0855.23
2009/04/23 10:01:31.9    -235   -159    -15    284    285 235.9  -3.1  34132  289.09 0855.23
2009/04/23 10:01:32.0    -299    -70    -15    308    309 256.7  -2.8  34148  289.37 0855.23
2009/04/23 10:01:32.1    -307      4    -49    308    313 270.9  -9.1  34126  288.98 0855.23
2009/04/23 10:01:32.2    -187    -16   -102    188    213 265.0 -35.4  34124  288.97 0855.23
2009/04/23 10:01:32.3    -161    -88    -98    184    208 241.1 -34.7  34128  289.02 0855.23
2009/04/23 10:01:32.4    -208    -84   -108    225    249 248.0 -31.7  34134  289.14 0855.23
2009/04/23 10:01:32.5    -186     13    -66    187    198 274.1 -24.6  34132  289.11 0855.23
2009/04/23 10:01:32.6    -256    -20    -85    257    270 265.4 -23.8  34122  288.93 0855.23
2009/04/23 10:01:32.7    -245     -3   -139    246    282 269.1 -36.5  34120  288.90 0855.23
2009/04/23 10:01:32.9    -300   -167   -136    344    369 240.9 -27.3  34132  289.10 0855.23
2009/04/23 10:01:33.0    -306      5   -111    307    326 271.0 -25.0  34148  289.37 0855.21
2009/04/23 10:01:33.1    -196    -64    -30    207    210 251.8  -8.2  34150  289.40 0855.21
2009/04/23 10:01:33.2    -194   -102     -8    220    221 242.2  -2.2  34148  289.38 0855.21
2009/04/23 10:01:33.3    -198    -79    -24    214    216 248.2  -6.5  34144  289.31 0855.21
2009/04/23 10:01:33.4    -188   -197      3    273    274 223.7   0.7  34138  289.20 0855.21
2009/04/23 10:01:33.5    -126   -126      2    179    180 224.9   0.8  34144  289.30 0855.21
2009/04/23 10:01:33.6     -42   -128   -116    135    177 198.5 -49.5  34142  289.28 0855.21
2009/04/23 10:01:33.7    -264   -213     68    340    347 231.2  11.3  34144  289.30 0855.21
2009/04/23 10:01:33.8    -246   -194    -87    314    326 231.8 -15.5  34132  289.09 0855.21
2009/04/23 10:01:33.9    -278    -70    -97    287    302 255.8 -23.3  34140  289.22 0855.21
2009/04/23 10:01:34.0    -112   -131    -51    173    181 220.5 -16.6  34136  289.18 0855.21
2009/04/23 10:01:34.1     -94   -166    -58    192    201 209.6 -17.0  34148  289.38 0855.21
2009/04/23 10:01:34.2      -3   -167     32    168    172 181.1  11.0  34148  289.38 0855.21
2009/04/23 10:01:34.3      29   -172      5    175    176 170.4   1.8  34122  288.94 0855.21
2009/04/23 10:01:34.4     -46    -67    -96     82    126 214.3 -59.2  34124  288.97 0855.21
2009/04/23 10:01:34.5    -182     37   -196    186    270 281.5 -56.0  34118  288.85 0855.21
2009/04/23 10:01:34.6    -155     55   -149    165    222 289.5 -51.5  34120  288.91 0855.21
2009/04/23 10:01:34.7     -89    -64    -73    110    132 234.0 -40.9  34134  289.14 0855.21
2009/04/23 10:01:34.8    -121   -131     35    179    183 222.8  11.1  34138  289.19 0855.21
2009/04/23 10:01:34.9    -258   -131    -80    290    301 243.0 -15.5  34126  288.98 0855.21
2009/04/23 10:01:35.0    -347   -138    -76    374    382 248.3 -11.6  34114  288.79 0855.21
2009/04/23 10:01:35.1    -368   -173     -8    407    408 244.8  -1.3  34134  289.14 0855.21
2009/04/23 10:01:35.2    -363   -242    -39    437    439 236.3  -5.2  34142  289.27 0855.21
2009/04/23 10:01:35.3    -222   -194     -1    296    297 228.9  -0.3  34146  289.34 0855.21
2009/04/23 10:01:35.4    -203   -283      9    349    350 215.6   1.5  34154  289.48 0855.21
2009/04/23 10:01:35.5    -144   -301    128    334    357 205.6  22.0  34146  289.35 0855.21
2009/04/23 10:01:35.6     -26   -345     29    346    348 184.4   4.9  34130  289.06 0855.21
2009/04/23 10:01:35.7     -40   -323     42    326    329 187.2   7.5  34128  289.03 0855.21
2009/04/23 10:01:35.8     -67   -285    -48    293    297 193.4  -9.3  34128  289.02 0855.21
2009/04/23 10:01:35.9    -229   -209    -94    311    326 227.6 -16.9  34128  289.03 0855.21
2009/04/23 10:01:36.0    -209   -284     26    354    355 216.4   4.2  34130  289.06 0855.21
2009/04/23 10:01:36.1    -179   -285     73    337    345 212.1  12.3  34136  289.15 0855.21
2009/04/23 10:01:36.2      21   -283    110    284    304 175.6  22.3  34130  289.05 0855.21
2009/04/23 10:01:36.3      16   -400    140    401    424 177.7  20.0  34128  289.02 0855.21
2009/04/23 10:01:36.4       0   -468     49    469    472 179.9   6.0  34128  289.03 0855.21
2009/04/23 10:01:36.5     180   -514   -109    545    556 160.7 -11.3  34118  288.87 0855.21
2009/04/23 10:01:36.6      64   -467    104    472    484 172.2  12.5  34110  288.73 0855.21
2009/04/23 10:01:36.7     129   -406    150    427    452 162.3  20.1  34120  288.89 0855.21
2009/04/23 10:01:36.8     203   -454    200    498    536 155.9  23.1  34120  288.91 0855.21
2009/04/23 10:01:36.9     128   -452    187    470    505 164.1  23.0  34120  288.90 0855.21
2009/04/23 10:01:37.0     155   -465    125    491    507 161.5  14.3  34118  288.86 0855.21
2009/04/23 10:01:37.1     150   -404    190    432    471 159.6  25.3  34120  288.89 0855.21
2009/04/23 10:01:37.2      95   -472    206    482    524 168.5  24.6  34118  288.86 0855.21
2009/04/23 10:01:37.3      35   -454    177    456    489 175.5  22.4  34120  288.88 0855.21
2009/04/23 10:01:37.4       9   -452    181    453    487 178.8  23.0  34122  288.93 0855.21
2009/04/23 10:01:37.5    -125   -398     98    418    430 197.4  13.2  34128  289.02 0855.21
2009/04/23 10:01:37.6     -68   -288     63    297    304 193.4  12.0  34126  289.00 0855.21
2009/04/23 10:01:37.7     -63   -542    -79    546    552 186.7  -8.3  34122  288.92 0855.21
2009/04/23 10:01:37.8    -201   -497    -17    537    538 202.1  -1.9  34124  288.96 0855.21
2009/04/23 10:01:37.9    -369   -460   -168    590    614 218.7 -15.9  34122  288.92 0855.21
2009/04/23 10:01:38.0    -336   -452   -133    564    580 216.6 -13.3  34120  288.88 0855.21
2009/04/23 10:01:38.1     -39   -466   -183    468    502 184.9 -26.9  34120  288.90 0855.21
2009/04/23 10:01:38.2    -134   -261   -157    294    333 207.2 -34.9  34118  288.87 0855.21
2009/04/23 10:01:38.3     -80   -312    -79    323    333 194.5 -13.8  34128  289.04 0855.21
2009/04/23 10:01:38.4     207   -425    -50    473    476 154.0  -6.1  34112  288.76 0855.21
2009/04/23 10:01:38.5       0   -450    -25    451    452 180.0  -3.2  34120  288.89 0855.21
2009/04/23 10:01:38.6      53   -404    -73    408    415 172.4 -10.3  34126  289.00 0855.21
2009/04/23 10:01:38.7       9   -352   -122    353    373 178.5 -24.0  34130  289.06 0855.21
2009/04/23 10:01:38.8      36   -480    -64    482    487 175.6  -7.6  34124  288.95 0855.21
2009/04/23 10:01:38.9      86   -460     31    468    470 169.4   3.8  34126  289.01 0855.21
2009/04/23 10:01:39.0     152   -550    -94    571    579 164.5  -9.4  34126  289.00 0855.25
2009/04/23 10:01:39.1     162   -491   -132    518    535 161.7 -14.3  34124  288.96 0855.25
2009/04/23 10:01:39.2      98   -385   -109    398    413 165.7 -15.4  34122  288.92 0855.25
2009/04/23 10:01:39.3      25   -428    -86    429    438 176.6 -11.3  34124  288.95 0855.25
2009/04/23 10:01:39.4       7   -453    -57    454    458 179.1  -7.2  34126  288.99 0855.25
2009/04/23 10:01:39.5      35   -453     -2    455    456 175.5  -0.3  34118  288.87 0855.25
2009/04/23 10:01:39.6      70   -637     69    641    645 173.7   6.2  34126  289.01 0855.25
2009/04/23 10:01:39.7       0   -542    127    543    558 180.1  13.2  34128  289.02 0855.25
2009/04/23 10:01:39.8     107   -598    -45    608    610 169.8  -4.2  34128  289.02 0855.25
2009/04/23 10:01:39.9      96   -580    -22    588    589 170.6  -2.2  34126  288.98 0855.25
2009/04/23 10:01:40.0     111   -460    -17    474    475 166.4  -2.1  34126  289.00 0855.25
2009/04/23 10:01:40.1     144   -578    -23    596    597 166.0  -2.2  34126  289.00 0855.25
2009/04/23 10:01:40.2      75   -684    -49    689    691 173.7  -4.1  34120  288.88 0855.25
2009/04/23 10:01:40.3    -101   -571    -22    581    582 190.1  -2.2  34112  288.76 0855.25
2009/04/23 10:01:40.4    -231   -489   -172    541    568 205.3 -17.7  34134  289.13 0855.25
2009/04/23 10:01:40.5    -233   -511   -232    562    608 204.5 -28.1  34128  289.02 0855.25
2009/04/23 10:01:40.6    -177   -532   -171    561    586 198.4 -21.8  34126  288.98 0855.25
2009/04/23 10:01:40.7    -167   -489    -85    517    525 198.9  -9.3  34130  289.07 0855.25
2009/04/23 10:01:40.8    -214   -471    -12    518    519 204.5  -1.4  34136  289.15 0855.25
2009/04/23 10:01:40.9    -108   -491    -19    503    504 192.5  -2.2  34134  289.13 0855.25
2009/04/23 10:01:41.0    -198   -413   -145    459    482 205.7 -17.6  34132  289.10 0855.28
2009/04/23 10:01:41.1    -157   -520   -176    544    571 196.8 -23.0  34120  288.91 0855.28
2009/04/23 10:01:41.2    -223   -472   -154    523    546 205.3 -16.4  34124  288.96 0855.28
2009/04/23 10:01:41.3    -308   -445   -281    542    610 214.7 -33.8  34106  288.66 0855.28
2009/04/23 10:01:41.4    -120   -482   -269    497    565 194.0 -35.2  34114  288.79 0855.28
2009/04/23 10:01:41.5    -298   -454   -218    544    586 213.3 -27.5  34126  288.98 0855.28
2009/04/23 10:01:41.6    -250   -509   -145    568    587 206.2 -14.4  34128  289.02 0855.28
2009/04/23 10:01:41.7    -124   -431   -124    449    466 196.1 -15.5  34114  288.78 0855.28
2009/04/23 10:01:41.8    -208   -398   -239    450    509 207.6 -34.6  34126  289.01 0855.28
2009/04/23 10:01:41.9     -46   -400   -254    403    476 186.7 -39.6  34108  288.70 0855.28
2009/04/23 10:01:42.0    -193   -304   -249    361    438 212.4 -42.2  34122  288.94 0855.28
2009/04/23 10:01:42.1    -314   -253   -191    404    446 231.1 -31.5  34128  289.02 0855.28
2009/04/23 10:01:42.2    -327   -251   -143    413    437 232.5 -24.3  34128  289.02 0855.28
2009/04/23 10:01:42.3    -275   -262    -68    381    388 226.4 -10.2  34130  289.06 0855.28
2009/04/23 10:01:42.4    -420   -276   -191    503    538 236.7 -26.4  34130  289.07 0855.28
2009/04/23 10:01:42.5    -212   -393    -42    447    450 208.4  -5.5  34130  289.07 0855.28
2009/04/23 10:01:42.6    -207   -342    -21    400    401 211.2  -3.1  34130  289.06 0855.28
2009/04/23 10:01:42.7    -183   -233    -93    297    311 218.1 -22.8  34132  289.10 0855.28
2009/04/23 10:01:42.8    -129   -128   -107    182    211 225.2 -37.8  34126  289.01 0855.28
2009/04/23 10:01:42.9    -271   -316    -98    417    429 220.5 -13.3  34124  288.95 0855.28
2009/04/23 10:01:43.0    -293   -407   -134    502    520 215.7 -15.0  34124  288.95 0855.31
2009/04/23 10:01:43.1    -127   -442   -165    460    489 196.0 -19.8  34114  288.79 0855.31
2009/04/23 10:01:43.2    -112   -379     16    396    397 196.5   2.4  34120  288.91 0855.31
2009/04/23 10:01:43.3    -108   -408     51    423    427 194.9   6.9  34120  288.90 0855.31
2009/04/23 10:01:43.4     -96   -418      5    429    430 193.0   0.7  34124  288.95 0855.31
2009/04/23 10:01:43.5    -115   -400     -9    417    418 196.0  -1.3  34124  288.95 0855.31
2009/04/23 10:01:43.6    -146   -415    -67    441    447 199.4  -8.7  34124  288.97 0855.31
2009/04/23 10:01:43.7    -158   -448    -66    476    481 199.4  -7.9  34122  288.93 0855.31
2009/04/23 10:01:43.8    -161   -483    -94    510    519 198.4 -10.5  34120  288.88 0855.31
2009/04/23 10:01:43.9    -159   -492    -85    518    526 197.9  -9.4  34122  288.92 0855.31
2009/04/23 10:01:44.0     -77   -507    -93    513    522 188.7 -10.3  34122  288.94 0855.24
2009/04/23 10:01:44.1     -89   -431   -152    441    466 191.7 -23.9  34122  288.92 0855.24
2009/04/23 10:01:44.2      15   -455    -91    456    466 178.0 -11.3  34120  288.90 0855.24
2009/04/23 10:01:44.3    -121   -318   -119    341    362 201.0 -19.3  34122  288.94 0855.24
2009/04/23 10:01:44.4     -98   -293   -103    310    326 198.5 -23.7  34126  289.00 0855.24
2009/04/23 10:01:44.5     -29   -233   -110    235    259 187.1 -31.5  34122  288.93 0855.24
2009/04/23 10:01:44.6      79   -245    -88    258    272 162.1 -23.3  34120  288.90 0855.24
2009/04/23 10:01:44.7      92   -310   -103    324    341 163.5 -17.7  34120  288.91 0855.24
2009/04/23 10:01:44.8      93   -355    -78    367    376 165.3 -12.0  34120  288.88 0855.24
2009/04/23 10:01:44.9      76   -372    -57    380    385 168.3  -8.6  34120  288.88 0855.24
2009/04/23 10:01:45.0      97   -332    -19    347    348 163.6  -3.3  34120  288.89 0855.24
2009/04/23 10:01:45.1     120   -268     -6    294    295 155.9  -1.3  34120  288.88 0855.24
2009/04/23 10:01:45.2      94   -216     78    236    249 156.4  18.5  34124  288.95 0855.24
2009/04/23 10:01:45.3     -14   -278    140    279    312 182.9  28.5  34122  288.93 0855.24
2009/04/23 10:01:45.4      22   -195    101    197    221 173.5  29.3  34122  288.94 0855.24
2009/04/23 10:01:45.5     160   -140    129    213    249 131.1  34.2  34122  288.93 0855.24
2009/04/23 10:01:45.6      67   -475     89    480    489 171.9  10.6  34122  288.93 0855.24
2009/04/23 10:01:45.7     147   -542     63    562    566 164.8   6.5  34116  288.84 0855.24
2009/04/23 10:01:45.8     195   -465    144    505    526 157.2  15.9  34120  288.88 0855.24
2009/04/23 10:01:45.9      94   -452    189    462    499 168.2  23.6  34120  288.91 0855.24
2009/04/23 10:01:46.0       0   -502    158    503    528 180.1  17.5  34118  288.86 0855.19
2009/04/23 10:01:46.1     -77   -493    272    500    569 188.9  30.9  34116  288.82 0855.19
2009/04/23 10:01:46.2      49   -507    314    510    598 174.4  34.5  34122  288.92 0855.19
2009/04/23 10:01:46.3     161   -615    320    636    711 165.3  28.7  34122  288.92 0855.19
2009/04/23 10:01:46.4     341   -692    209    772    801 153.7  15.2  34120  288.88 0855.19
2009/04/23 10:01:46.5     269   -691    159    742    760 158.7  12.1  34122  288.94 0855.19
2009/04/23 10:01:46.6     161   -545    122    569    583 163.5  12.1  34124  288.95 0855.19
2009/04/23 10:01:46.7      -9   -607    220    608    646 180.9  20.8  34122  288.94 0855.19
2009/04/23 10:01:46.8     193   -452    388    492    626 156.8  42.2  34110  288.73 0855.19
2009/04/23 10:01:46.9     284   -490    226    567    610 149.9  23.0  34120  288.88 0855.19
2009/04/23 10:01:47.0     149   -586    313    605    681 165.7  29.5  34124  288.97 0855.19
2009/04/23 10:01:47.1     162   -619    334    640    721 165.3  29.8  34126  289.00 0855.19
2009/04/23 10:01:47.2     224   -620    404    660    773 160.1  34.4  34108  288.68 0855.19
2009/04/23 10:01:47.3       7   -499    366    500    619 179.1  39.7  34106  288.66 0855.19
2009/04/23 10:01:47.4     -44   -521    207    524    563 184.9  22.7  34098  288.52 0855.19
2009/04/23 10:01:47.5     118   -590    432    602    740 168.7  39.3  34094  288.47 0855.19
2009/04/23 10:01:47.6     169   -625    320    648    722 164.9  28.2  34116  288.84 0855.19
2009/04/23 10:01:47.7     139   -634    240    650    692 167.6  21.1  34116  288.83 0855.19
2009/04/23 10:01:47.8      34   -567    199    569    602 176.5  20.0  34112  288.76 0855.19
2009/04/23 10:01:47.9     -55   -411     57    415    419 187.7   7.9  34110  288.73 0855.19
2009/04/23 10:01:48.0       0   -476     49    477    480 179.9   5.9  34110  288.71 0855.20
2009/04/23 10:01:48.1    -135   -472    100    492    503 196.0  11.6  34102  288.59 0855.20
2009/04/23 10:01:48.2    -163   -407      0    439    440 201.8   0.1  34102  288.60 0855.20
2009/04/23 10:01:48.3     -59   -667     93    670    677 185.1   7.9  34106  288.66 0855.20
2009/04/23 10:01:48.4    -318   -659    112    732    741 205.8   8.7  34092  288.43 0855.20
2009/04/23 10:01:48.5     -93   -416    137    427    449 192.6  17.8  34100  288.55 0855.20
2009/04/23 10:01:48.6      18   -298    172    299    344 176.4  32.6  34102  288.59 0855.20
2009/04/23 10:01:48.7     -53   -342    220    347    410 188.8  35.5  34110  288.74 0855.20
2009/04/23 10:01:48.8     -46   -420    198    423    467 186.3  27.1  34106  288.65 0855.20
2009/04/23 10:01:48.9      33   -589    127    590    604 176.8  12.2  34102  288.58 0855.20
2009/04/23 10:01:49.0      77   -450     42    457    460 170.2   5.3  34104  288.63 0855.20
2009/04/23 10:01:49.1     106   -439    132    452    471 166.4  16.3  34102  288.59 0855.20
2009/04/23 10:01:49.2     138   -495   -211    514    555 164.4 -28.0  34104  288.62 0855.20
2009/04/23 10:01:49.3      85   -455   -212    463    509 169.4 -30.6  34100  288.57 0855.20
2009/04/23 10:01:49.4     -91   -599   -136    606    622 188.7 -12.7  34104  288.64 0855.20
2009/04/23 10:01:49.5     -78   -528    -74    534    540 188.5  -7.9  34104  288.62 0855.20
2009/04/23 10:01:49.6     -28   -451   -116    452    467 183.6 -14.4  34104  288.61 0855.20
2009/04/23 10:01:49.7     141   -505   -105    525    536 164.3 -11.3  34104  288.62 0855.20
2009/04/23 10:01:49.8     227   -406   -128    466    484 150.8 -15.4  34110  288.73 0855.20
2009/04/23 10:01:49.9     245   -349   -124    427    445 144.9 -16.2  34106  288.67 0855.20
2009/04/23 10:01:50.0     236   -375   -136    444    464 147.8 -21.9  34102  288.58 0855.21
2009/04/23 10:01:50.1     233   -410   -163    472    500 150.4 -19.1  34100  288.54 0855.21
2009/04/23 10:01:50.2     238   -368    -26    439    440 147.0  -3.5  34104  288.61 0855.21
2009/04/23 10:01:50.3     102   -255   -113    275    297 158.2 -27.8  34102  288.59 0855.21
2009/04/23 10:01:50.4     129   -119     -8    176    177 132.7  -2.6  34104  288.62 0855.21
2009/04/23 10:01:50.5     115   -108      4    158    159 133.1   1.6  34106  288.65 0855.21
2009/04/23 10:01:50.6     220   -154     73    269    279 125.1  15.3  34106  288.65 0855.21
2009/04/23 10:01:50.7     108   -167    116    200    231 147.0  33.1  34110  288.74 0855.21
2009/04/23 10:01:50.8      79   -200    -68    216    227 158.4 -17.6  34112  288.75 0855.21
2009/04/23 10:01:50.9     153   -105     -7    186    187 124.4  -2.2  34110  288.74 0855.21
2009/04/23 10:01:51.0     138    -46    -52    146    156 108.6 -19.7  34110  288.74 0855.21
2009/04/23 10:01:51.1      72    -39    -20     83     86 118.8 -13.9  34106  288.67 0855.21
2009/04/23 10:01:51.2      -3     -8     63      9     63 205.4  90.0  34110  288.74 0855.21
2009/04/23 10:01:51.3      -2    -16     81     17     82 188.0  88.5  34110  288.72 0855.21
2009/04/23 10:01:51.4      44      4     90     45    100  83.9  71.9  34114  288.80 0855.21
2009/04/23 10:01:51.5     188    -99     47    213    219 117.8  12.6  34110  288.72 0855.21
2009/04/23 10:01:51.6     245      0    109    246    269  90.0  25.7  34106  288.66 0855.21
2009/04/23 10:01:51.7     120     45     -2    129    130  69.2  -1.2  34110  288.74 0855.21
2009/04/23 10:01:51.8     157    -47   -183    165    246 106.8 -57.7  34102  288.60 0855.21
2009/04/23 10:01:51.9     171    -87   -159    193    250 117.1 -48.1  34102  288.60 0855.21
2009/04/23 10:01:52.0     229    -69    -78    240    253 106.8 -18.1  34108  288.70 0855.21
2009/04/23 10:01:52.1     106   -184     75    213    226 150.1  19.4  34104  288.64 0855.21
2009/04/23 10:01:52.2      24   -319     86    320    332 175.6  15.1  34108  288.68 0855.21
2009/04/23 10:01:52.3     -75   -225     -4    238    239 198.5  -1.1  34110  288.71 0855.21
2009/04/23 10:01:52.4      55   -271     59    277    284 168.5  12.0  34106  288.66 0855.21
2009/04/23 10:01:52.5     184   -229   -115    294    315 141.2 -26.9  34108  288.68 0855.21
2009/04/23 10:01:52.6     191   -213   -198    287    348 138.1 -42.3  34110  288.72 0855.21
2009/04/23 10:01:52.7     178   -215   -261    280    382 140.4 -52.3  34110  288.72 0855.21
2009/04/23 10:01:52.8     112   -329   -269    348    439 161.1 -46.0  34108  288.70 0855.21
2009/04/23 10:01:52.9      36   -139   -176    144    227 165.3 -60.8  34112  288.77 0855.21
2009/04/23 10:01:53.0       9   -206   -223    207    304 177.4 -56.6  34112  288.75 0855.21
2009/04/23 10:01:53.1     134   -304   -112    333    352 156.2 -18.7  34102  288.60 0855.21
2009/04/23 10:01:53.2     372   -217    -69    432    438 120.3  -9.1  34104  288.61 0855.21
2009/04/23 10:01:53.3     138   -169   -297    219    369 140.8 -64.5  34116  288.83 0855.21
2009/04/23 10:01:53.4    -181   -362   -338    405    527 206.6 -48.4  34100  288.57 0855.21
2009/04/23 10:01:53.5    -252   -238   -290    347    452 226.7 -48.4  34108  288.70 0855.21
2009/04/23 10:01:53.6    -167   -213   -218    271    347 218.1 -47.5  34102  288.59 0855.21
2009/04/23 10:01:53.7    -164   -129   -182    209    277 231.8 -50.2  34106  288.66 0855.21
2009/04/23 10:01:53.8    -213    -58   -218    221    310 254.7 -54.3  34112  288.75 0855.21
2009/04/23 10:01:53.9     -34   -164   -211    168    269 192.0 -61.9  34114  288.78 0855.21
2009/04/23 10:01:54.0     113   -192   -217    224    311 149.5 -53.4  34108  288.68 0855.21
2009/04/23 10:01:54.1     214   -154   -137    264    297 125.7 -33.7  34108  288.70 0855.21
2009/04/23 10:01:54.2     134    -41   -151    141    206 106.9 -56.6  34116  288.82 0855.21
2009/04/23 10:01:54.3      41    115   -138    123    184  20.0 -58.1  34116  288.82 0855.21
2009/04/23 10:01:54.4    -139      0   -212    140    254 269.6 -68.0  34120  288.89 0855.21
2009/04/23 10:01:54.5    -154    133   -174    204    268 310.9 -49.2  34122  288.92 0855.21
2009/04/23 10:01:54.6    -307     36   -201    310    369 276.8 -40.1  34126  288.99 0855.21
2009/04/23 10:01:54.7    -337     25   -146    338    368 274.4 -29.4  34120  288.89 0855.21
2009/04/23 10:01:54.8    -164    -99   -169    192    255 238.9 -50.2  34116  288.81 0855.21
2009/04/23 10:01:54.9     -62    -87   -191    107    218 215.6 -73.2  34114  288.79 0855.21
2009/04/23 10:01:55.0      61   -218   -207    227    307 164.2 -51.5  34108  288.70 0855.21
2009/04/23 10:01:55.1       0   -164   -209    165    266 180.2 -61.9  34108  288.68 0855.21
2009/04/23 10:01:55.2      -7    -54   -124     55    135 188.0 -79.3  34120  288.91 0855.21
2009/04/23 10:01:55.3      82   -129   -132    153    202 147.5 -50.0  34122  288.92 0855.21
2009/04/23 10:01:55.4    -147     25   -131    150    199 279.7 -50.2  34124  288.97 0855.21
2009/04/23 10:01:55.5    -203     73   -185    216    284 289.9 -49.2  34128  289.02 0855.21
2009/04/23 10:01:55.6     -78     -5   -161     79    179 265.7 -76.5  34124  288.97 0855.21
2009/04/23 10:01:55.7      75      2   -100     76    125  88.3 -63.4  34134  289.13 0855.21
2009/04/23 10:01:55.8     158   -138    -69    210    221 131.1 -23.8  34128  289.02 0855.21
2009/04/23 10:01:55.9     450   -125    -93    468    478 105.5 -11.3  34116  288.84 0855.21
2009/04/23 10:01:56.0     544    -67     31    549    550  97.1   3.3  34104  288.63 0855.19
2009/04/23 10:01:56.1     394   -152    -16    423    424 111.2  -2.2  34116  288.82 0855.19
2009/04/23 10:01:56.2     331   -274     39    430    432 129.6   5.2  34118  288.85 0855.19
2009/04/23 10:01:56.3     307   -188    -14    361    362 121.5  -2.2  34120  288.91 0855.19
2009/04/23 10:01:56.4     423   -212    -17    474    475 116.6  -2.1  34120  288.88 0855.19
2009/04/23 10:01:56.5     350   -158    -18    385    386 114.3  -2.7  34120  288.88 0855.19
2009/04/23 10:01:56.6     254   -210      2    330    331 129.6   0.5  34112  288.77 0855.19
2009/04/23 10:01:56.7     206   -334     84    393    403 148.4  12.2  34116  288.84 0855.19
2009/04/23 10:01:56.8      93   -275    102    291    308 161.3  20.0  34112  288.76 0855.19
2009/04/23 10:01:56.9     -12   -250    106    251    272 182.9  24.1  34112  288.76 0855.19
2009/04/23 10:01:57.0     -27   -252     96    254    271 186.2  21.7  34110  288.73 0855.19
2009/04/23 10:01:57.1     -70   -227     95    238    256 197.2  23.0  34112  288.75 0855.19
2009/04/23 10:01:57.2     -85   -418    152    427    453 191.6  20.3  34110  288.73 0855.19
2009/04/23 10:01:57.3    -205   -408    202    457    499 206.7  25.6  34114  288.79 0855.19
2009/04/23 10:01:57.4    -209   -364    101    421    434 209.9  13.6  34114  288.78 0855.19
2009/04/23 10:01:57.5    -249   -330    -16    414    415 217.1  -2.2  34112  288.77 0855.19
2009/04/23 10:01:57.6    -269   -314     75    414    421 220.6  10.3  34110  288.73 0855.19
2009/04/23 10:01:57.7    -292   -391    177    489    520 216.7  20.9  34114  288.79 0855.19
2009/04/23 10:01:57.8    -202   -381     56    432    436 208.0   7.5  34112  288.75 0855.19
2009/04/23 10:01:57.9    -175   -423    -17    458    459 202.5  -2.2  34114  288.80 0855.19
2009/04/23 10:01:58.0    -112   -478    -19    492    493 193.3  -2.2  34116  288.83 0855.18
2009/04/23 10:01:58.1    -179   -425    -49    462    465 202.8  -6.1  34120  288.90 0855.18
2009/04/23 10:01:58.2    -358   -454    222    579    620 218.2  22.1  34120  288.90 0855.18
2009/04/23 10:01:58.3    -296   -501    135    583    599 210.6  13.1  34116  288.81 0855.18
2009/04/23 10:01:58.4    -176   -433     83    468    476 202.2  10.1  34116  288.84 0855.18
2009/04/23 10:01:58.5     -23   -347     45    348    351 183.8   7.5  34110  288.74 0855.18
2009/04/23 10:01:58.6      36   -322     63    325    332 173.5  11.1  34114  288.79 0855.18
2009/04/23 10:01:58.7     -36   -455     30    457    459 184.6   3.8  34114  288.80 0855.18
2009/04/23 10:01:58.8      13   -469     23    470    471 178.4   2.9  34112  288.76 0855.18
2009/04/23 10:01:58.9      12   -497    165    498    525 178.6  18.4  34114  288.78 0855.18
2009/04/23 10:01:59.0     -35   -418     96    420    431 184.9  12.9  34114  288.78 0855.18
2009/04/23 10:01:59.1     -21   -363    142    364    390 183.4  22.4  34114  288.79 0855.18
2009/04/23 10:01:59.2     -41   -386    106    389    404 186.1  15.3  34120  288.88 0855.18
2009/04/23 10:01:59.3     -45   -384     25    387    388 186.7   3.7  34120  288.91 0855.18
2009/04/23 10:01:59.4    -182   -348     13    393    394 207.6   1.9  34122  288.93 0855.18
2009/04/23 10:01:59.5    -282   -260     -8    384    385 227.4  -1.3  34124  288.96 0855.18
2009/04/23 10:01:59.6    -203   -181    -28    273    275 228.2  -6.0  34126  288.98 0855.18
2009/04/23 10:01:59.7    -179   -144     80    230    244 231.1  19.2  34126  288.98 0855.18
2009/04/23 10:01:59.8    -177   -161     64    240    249 227.7  15.0  34122  288.93 0855.18
2009/04/23 10:01:59.9    -228   -127     34    261    264 240.9   7.5  34118  288.87 0855.18
2009/04/23 10:02:00.0    -179   -162     74    242    254 227.8  17.1  34118  288.85 0855.18
2009/04/23 10:02:00.1    -110   -149     24    186    188 216.5   7.5  34116  288.84 0855.18
2009/04/23 10:02:00.2     -69   -135     37    152    157 207.2  13.9  34116  288.82 0855.18
2009/04/23 10:02:00.3     -87    -71     22    113    116 230.9  11.1  34116  288.84 0855.18
2009/04/23 10:02:00.4    -152      3    119    153    193 271.3  42.0  34122  288.92 0855.18
2009/04/23 10:02:00.5    -229     87     32    246    249 290.8   7.5  34128  289.02 0855.18
2009/04/23 10:02:00.7    -135     79    -28    157    160 300.4 -10.1  34124  288.97 0855.18
2009/04/23 10:02:00.8    -135     31    -48    139    147 283.2 -23.3  34120  288.89 0855.18
2009/04/23 10:02:00.9    -168     21    -74    170    185 277.2 -29.3  34118  288.86 0855.18
2009/04/23 10:02:01.0     -18     45    -19     49     52 337.3 -26.4  34124  288.96 0855.18
2009/04/23 10:02:01.1     -46     27     -7     54     55 300.7  -7.3  34126  288.99 0855.18
2009/04/23 10:02:01.2     -40    -26     17     49     53 236.7  19.4  34128  289.04 0855.18
2009/04/23 10:02:01.3       7    -19     39     21     44 158.2  68.8  34126  289.01 0855.18
2009/04/23 10:02:01.4      87    -35     58     94    110 112.2  35.5  34118  288.86 0855.18
2009/04/23 10:02:01.5      97   -103     66    142    156 136.8  26.6  34120  288.91 0855.18
2009/04/23 10:02:01.6      94   -137      9    167    168 145.5   3.3  34122  288.92 0855.18
2009/04/23 10:02:01.7      84   -143     36    167    171 149.5  12.2  34120  288.89 0855.18
2009/04/23 10:02:01.8     118   -199    -12    232    233 149.3  -3.1  34116  288.84 0855.18
2009/04/23 10:02:01.9     120   -187    -48    223    229 147.4 -12.2  34114  288.80 0855.18
2009/04/23 10:02:02.0     102   -222    -13    245    246 155.3  -3.1  34118  288.85 0855.18
2009/04/23 10:02:02.1      97   -221    -57    242    249 156.3 -13.4  34118  288.85 0855.18
2009/04/23 10:02:02.2     173   -234    -75    292    302 143.5 -14.4  34114  288.80 0855.18
2009/04/23 10:02:02.3     270   -247     17    367    368 132.4   2.8  34116  288.82 0855.18
2009/04/23 10:02:02.4     213   -171     80    274    286 128.7  16.3  34116  288.81 0855.18
2009/04/23 10:02:02.5     307   -238   -122    389    407 127.9 -22.6  34120  288.88 0855.18
2009/04/23 10:02:02.6     332   -159   -112    369    385 115.7 -21.8  34110  288.71 0855.18
2009/04/23 10:02:02.7     497     77    -11    503    504  81.2  -1.3  34112  288.76 0855.18
2009/04/23 10:02:02.8     478     67    -21    483    484  82.0  -2.6  34108  288.68 0855.18
2009/04/23 10:02:02.9     470     72    163    476    504  81.2  18.9  34110  288.71 0855.18
2009/04/23 10:02:03.0     344     -7    116    345    365  91.3  18.6  34110  288.74 0855.18
2009/04/23 10:02:03.1     309   -122    232    333    405 111.6  38.4  34116  288.82 0855.18
2009/04/23 10:02:03.2     374   -152    171    404    438 112.2  24.3  34114  288.78 0855.18
2009/04/23 10:02:03.3      81   -302    209    313    376 164.9  37.0  34120  288.88 0855.18
2009/04/23 10:02:03.4     119   -196    189    230    297 148.6  43.7  34114  288.80 0855.18
2009/04/23 10:02:03.5     153   -248    112    292    312 148.4  22.0  34116  288.81 0855.18
2009/04/23 10:02:03.6      59   -207    101    216    238 164.0  27.0  34118  288.86 0855.18
2009/04/23 10:02:03.7       7   -254    157    255    299 178.4  34.8  34122  288.92 0855.18
2009/04/23 10:02:03.8     -12   -259    222    260    341 182.7  44.8  34120  288.88 0855.18
2009/04/23 10:02:03.9     -24   -225    326    227    397 186.2  61.8  34120  288.91 0855.18
2009/04/23 10:02:04.0     -48   -211    288    217    360 192.9  59.4  34118  288.87 0855.18
2009/04/23 10:02:04.1     -97   -222    305    243    389 203.6  57.5  34130  289.06 0855.18
2009/04/23 10:02:04.2     -97   -254    306    273    410 200.9  53.7  34120  288.91 0855.18
2009/04/23 10:02:04.3     -85   -258    266    272    380 198.3  49.7  34122  288.93 0855.18
2009/04/23 10:02:04.4    -178   -253    242    310    393 215.1  42.0  34132  289.11 0855.18
2009/04/23 10:02:04.5    -144   -198    215    246    326 216.1  45.6  34128  289.03 0855.18
2009/04/23 10:02:04.6    -102   -296    180    314    361 199.1  32.4  34120  288.89 0855.18
2009/04/23 10:02:04.7     -94   -283    193    299    355 198.5  35.9  34120  288.89 0855.18
2009/04/23 10:02:04.8     -97   -307    187    323    373 197.6  32.7  34120  288.89 0855.18
2009/04/23 10:02:04.9     -99   -204    255    227    341 205.9  53.9  34128  289.02 0855.18
2009/04/23 10:02:05.0    -149   -246    128    288    315 211.2  25.6  34126  288.98 0855.18
2009/04/23 10:02:05.1    -134   -217    110    256    278 211.6  25.1  34128  289.02 0855.18
2009/04/23 10:02:05.2     -99   -225     69    246    256 203.8  15.8  34126  289.00 0855.18
2009/04/23 10:02:05.3    -114   -210    101    240    260 208.5  24.1  34128  289.02 0855.18
2009/04/23 10:02:05.4    -123   -231     95    262    278 208.0  20.9  34126  288.98 0855.18
2009/04/23 10:02:05.5    -172   -237    103    294    312 216.0  19.3  34130  289.05 0855.18
2009/04/23 10:02:05.6    -145   -274    154    310    346 207.9  28.4  34126  288.99 0855.18
2009/04/23 10:02:05.7    -150   -259    159    300    339 210.1  30.2  34128  289.02 0855.18
2009/04/23 10:02:05.8    -200   -242    140    315    344 219.6  25.7  34134  289.13 0855.18
2009/04/23 10:02:05.9    -218   -268     88    346    358 219.1  14.3  34142  289.28 0855.18
2009/04/23 10:02:06.0    -338   -144     58    368    373 246.9   9.0  34168  289.72 0855.18
2009/04/23 10:02:06.1    -240    -45    131    245    277 259.2  30.3  34170  289.75 0855.18
2009/04/23 10:02:06.2    -110   -147    213    184    281 216.7  54.6  34126  289.00 0855.18
2009/04/23 10:02:06.3    -149   -142    175    206    270 226.4  44.5  34128  289.03 0855.18
2009/04/23 10:02:06.4    -258    -58    262    265    372 257.2  49.8  34144  289.30 0855.18
2009/04/23 10:02:06.5    -246    -26     87    248    263 263.8  19.4  34162  289.61 0855.18
2009/04/23 10:02:06.6    -298    -55    107    304    322 259.5  20.0  34148  289.37 0855.18
2009/04/23 10:02:06.7    -326    -24     98    327    342 265.6  16.7  34126  288.99 0855.18
2009/04/23 10:02:06.8    -203    -61    121    213    244 253.2  32.1  34122  288.92 0855.18
2009/04/23 10:02:06.9    -331   -117     87    352    363 250.4  13.9  34142  289.26 0855.18
2009/04/23 10:02:07.0    -338      0     42    339    342 270.0   7.2  34130  289.08 0855.18
2009/04/23 10:02:07.1    -196     71    178    209    274 290.0  44.8  34148  289.37 0855.19
2009/04/23 10:02:07.2    -149    108    201    185    273 306.0  52.2  34142  289.25 0855.19
2009/04/23 10:02:07.3    -176    -30    104    179    207 260.1  32.9  34132  289.11 0855.19
2009/04/23 10:02:07.4     -54   -106     28    120    124 207.1  13.2  34134  289.13 0855.19
2009/04/23 10:02:07.5     -68   -144    123    160    201 205.5  41.6  34138  289.19 0855.19
2009/04/23 10:02:07.6     -51   -125    113    136    176 202.3  43.8  34130  289.08 0855.19
2009/04/23 10:02:07.7      -6    -78    110     79    135 184.5  61.1  34134  289.14 0855.19
2009/04/23 10:02:07.8     -93    -71     93    118    150 232.7  42.7  34136  289.18 0855.19
2009/04/23 10:02:07.9     -45    -68     11     82     83 213.4   8.0  34136  289.16 0855.19
2009/04/23 10:02:08.0      58    -87     56    105    119 146.2  30.3  34132  289.11 0855.19
2009/04/23 10:02:08.1      39    -44     76     60     96 138.6  57.5  34128  289.04 0855.19
2009/04/23 10:02:08.2       0    -57     64     58     86 180.9  52.7  34130  289.08 0855.19
2009/04/23 10:02:08.3       2    -21     51     22     55 173.8  75.0  34136  289.16 0855.19
2009/04/23 10:02:08.4      43    -27     65     51     82 122.5  57.5  34134  289.14 0855.19
2009/04/23 10:02:08.5      70      1     81     71    107  89.1  54.3  34134  289.14 0855.19
2009/04/23 10:02:08.6      34     -4     54     35     64  97.9  64.6  34134  289.13 0855.19
2009/04/23 10:02:08.7      34     11     60     36     69  71.8  65.7  34138  289.19 0855.19
2009/04/23 10:02:08.8      69     32     89     77    117  64.8  54.3  34132  289.09 0855.19
2009/04/23 10:02:08.9     166    179     -2    245    246  42.8  -0.5  34158  289.53 0855.19
2009/04/23 10:02:09.0      69    159     46    174    181  23.6  15.0  34162  289.62 0855.19
2009/04/23 10:02:09.1      55     35     92     66    113  57.6  60.6  34152  289.45 0855.19
2009/04/23 10:02:09.2     137    235    192    273    333  30.3  38.7  34194  290.14 0855.19
2009/04/23 10:02:09.3     198    163    197    257    323  50.5  41.4  34186  290.02 0855.19
2009/04/23 10:02:09.4     166    215    120    272    297  37.8  25.2  34202  290.27 0855.19
2009/04/23 10:02:09.5     233    143    108    274    294  58.4  23.0  34172  289.76 0855.19
2009/04/23 10:02:09.6     164     95     42    190    195  59.8  12.6  34166  289.69 0855.19
2009/04/23 10:02:09.7      94     88     94    129    159  46.9  39.7  34174  289.82 0855.19
2009/04/23 10:02:09.8     115     45    115    124    169  68.3  47.9  34158  289.53 0855.19
2009/04/23 10:02:09.9     153     73    136    170    217  64.5  43.0  34174  289.82 0855.19
2009/04/23 10:02:10.0     143    133     90    196    215  47.1  26.6  34194  290.16 0855.19
2009/04/23 10:02:10.1     165     91     37    189    193  61.1  11.1  34202  290.30 0855.19
2009/04/23 10:02:10.2     157    103     63    189    200  56.7  18.4  34178  289.89 0855.19
2009/04/23 10:02:10.3     225     31     62    228    237  82.0  15.3  34186  290.02 0855.19
2009/04/23 10:02:10.4     209      3     94    210    230  89.1  25.9  34154  289.48 0855.19
2009/04/23 10:02:10.5     178      3    113    179    211  89.0  35.5  34156  289.50 0855.19
2009/04/23 10:02:10.6     156     16     65    157    169  83.9  23.8  34164  289.65 0855.19
2009/04/23 10:02:10.7     142     22    144    144    203  81.2  50.1  34164  289.65 0855.19
2009/04/23 10:02:10.8     162     41    183    168    248  75.6  52.7  34186  290.02 0855.19
2009/04/23 10:02:10.9     168     27    172    171    242  80.8  50.1  34176  289.84 0855.19
2009/04/23 10:02:11.0     287     16    118    288    311  86.7  23.4  34154  289.47 0855.19
2009/04/23 10:02:11.1     298    -86     71    311    320 106.2  12.9  34234  290.82 0855.20
2009/04/23 10:02:11.2     250     59    100    257    275  76.7  22.5  34212  290.46 0855.20
2009/04/23 10:02:11.3     154     46     84    161    181  73.2  29.8  34232  290.79 0855.20
2009/04/23 10:02:11.4     317    161     74    356    364  63.0  11.8  34248  291.06 0855.20
2009/04/23 10:02:11.5     362     45     86    365    376  82.8  13.3  34210  290.43 0855.20
2009/04/23 10:02:11.6     321    164    101    361    375  62.8  15.7  34228  290.74 0855.20
2009/04/23 10:02:11.7     394    164     39    427    430  67.4   5.3  34184  289.97 0855.20
2009/04/23 10:02:11.8     438    168     66    470    475  69.0   8.0  34214  290.49 0855.20
2009/04/23 10:02:11.9     415    228     25    474    475  61.1   3.1  34232  290.81 0855.20
2009/04/23 10:02:12.0     318    148    124    351    373  65.0  19.5  34202  290.30 0855.20
2009/04/23 10:02:12.1     215     43    -53    220    227  78.5 -13.7  34188  290.04 0855.20
2009/04/23 10:02:12.2     208     43     73    213    226  78.1  18.9  34162  289.60 0855.20
2009/04/23 10:02:12.3     292     44    -10    296    297  81.4  -2.1  34144  289.29 0855.20
2009/04/23 10:02:12.4     259     36      7    262    263  82.1   1.7  34160  289.58 0855.20
2009/04/23 10:02:12.5     347     24     18    348    349  85.9   3.0  34172  289.77 0855.20
2009/04/23 10:02:12.6     374     83     -3    384    385  77.5  -0.5  34232  290.81 0855.20
2009/04/23 10:02:12.7     349    158    258    384    462  65.6  37.2  34204  290.31 0855.20
2009/04/23 10:02:12.8     383    145    142    410    433  69.2  20.0  34236  290.85 0855.20
2009/04/23 10:02:12.9     310    135    141    339    367  66.5  23.9  34220  290.59 0855.20
2009/04/23 10:02:13.0     305     53     76    310    320  80.1  13.8  34184  289.97 0855.20
2009/04/23 10:02:13.1     352     17     61    353    359  87.2   9.9  34234  290.84 0855.20
2009/04/23 10:02:13.2     342    160    140    378    403  64.9  21.3  34234  290.83 0855.20
2009/04/23 10:02:13.3     307    210    173    373    411  55.6  26.9  34238  290.89 0855.20
2009/04/23 10:02:13.4     327    237     26    404    405  54.1   3.7  34258  291.23 0855.20
2009/04/23 10:02:13.5     225    202     -6    303    304  48.0  -1.3  34252  291.12 0855.20
2009/04/23 10:02:13.6     196    220      2    295    296  41.7   0.5  34300  291.94 0855.20
2009/04/23 10:02:13.7     108    195    -32    224    227  29.0  -8.2  34280  291.60 0855.20
2009/04/23 10:02:13.8     146    194    -77    244    256  37.0 -17.6  34230  290.75 0855.20
2009/04/23 10:02:13.9      61    226    -43    235    239  15.1 -10.5  34230  290.76 0855.20
2009/04/23 10:02:14.0      24    214    -29    216    218   6.5  -7.7  34224  290.65 0855.20
2009/04/23 10:02:14.1     116    171    -88    207    224  34.2 -29.0  34218  290.57 0855.20
2009/04/23 10:02:14.2     114    114   -101    162    190  45.0 -39.6  34188  290.06 0855.20
2009/04/23 10:02:14.3     101    129    -88    164    186  38.1 -35.0  34178  289.89 0855.20
2009/04/23 10:02:14.4       0     39    -97     40    104   0.9 -81.5  34188  290.06 0855.20
2009/04/23 10:02:14.5       0     34   -115     35    120 359.1 -87.1  34204  290.31 0855.20
2009/04/23 10:02:14.6      -5     69   -143     70    159 355.5 -76.5  34188  290.06 0855.20
2009/04/23 10:02:14.7      44    131   -108    139    176  18.7 -46.4  34186  290.02 0855.20
2009/04/23 10:02:14.8      42     72    -82     84    117  30.7 -54.3  34206  290.35 0855.20
2009/04/23 10:02:14.9     118    -85     18    146    148 126.0   7.1  34192  290.13 0855.20
2009/04/23 10:02:15.0      99    -51     76    112    135 117.5  37.4  34178  289.89 0855.20
2009/04/23 10:02:15.1     108    -89     76    141    160 129.5  30.6  34190  290.09 0855.19
2009/04/23 10:02:15.2     115    -63     89    132    159 118.9  37.3  34188  290.04 0855.19
2009/04/23 10:02:15.3      12      4    105     13    105  71.8  90.0  34202  290.30 0855.19
2009/04/23 10:02:15.4      89    -26    121     93    152 106.4  58.5  34188  290.04 0855.19
2009/04/23 10:02:15.5     136   -128    104    187    213 133.2  31.4  34168  289.72 0855.19
2009/04/23 10:02:15.6     172   -147     88    227    243 130.7  22.0  34162  289.61 0855.19
2009/04/23 10:02:15.7     197   -125     84    234    249 122.5  19.9  34152  289.44 0855.19
2009/04/23 10:02:15.8     139   -163    102    215    237 139.5  27.2  34156  289.50 0855.19
2009/04/23 10:02:15.9      12   -159    102    160    189 175.6  35.6  34156  289.50 0855.19
2009/04/23 10:02:16.0      79      6    142     80    162  85.6  68.1  34182  289.96 0855.19
2009/04/23 10:02:16.1     101     18    187    103    213  79.4  68.8  34212  290.47 0855.19
2009/04/23 10:02:16.2    -141    -67    152    157    218 244.7  49.2  34198  290.21 0855.19
2009/04/23 10:02:16.3      22     53    178     58    187  22.7  81.0  34204  290.33 0855.19
2009/04/23 10:02:16.4      43     26    180     51    187  58.5  84.4  34198  290.23 0855.19
2009/04/23 10:02:16.5      28      6     96     29    100  76.7  82.8  34206  290.36 0855.19
2009/04/23 10:02:16.6    -169   -139     22    219    221 230.5   5.9  34168  289.72 0855.19
2009/04/23 10:02:16.7    -226   -180     36    290    293 231.4   7.1  34158  289.53 0855.19
2009/04/23 10:02:16.8    -219   -206     47    301    305 226.7   9.0  34158  289.53 0855.19
2009/04/23 10:02:16.9    -210   -208     10    296    297 225.2   2.1  34142  289.27 0855.19
2009/04/23 10:02:17.0    -167   -218     53    275    281 217.4  11.0  34150  289.39 0855.19
2009/04/23 10:02:17.1    -165   -214      2    271    272 217.8   0.5  34126  289.00 0855.18
2009/04/23 10:02:17.2    -162   -216     43    271    275 216.9   9.0  34140  289.24 0855.18
2009/04/23 10:02:17.3    -150   -244     -6    287    288 211.6  -1.3  34130  289.07 0855.18
2009/04/23 10:02:17.4    -128   -234     30    267    269 208.7   6.5  34138  289.20 0855.18
2009/04/23 10:02:17.5    -187   -235     42    301    305 218.5   8.0  34142  289.25 0855.18
2009/04/23 10:02:17.6    -138   -234     58    272    279 210.5  12.2  34140  289.22 0855.18
2009/04/23 10:02:17.7    -111   -215    124    243    272 207.4  29.2  34160  289.56 0855.18
2009/04/23 10:02:17.8    -126   -198     84    235    249 212.5  20.2  34158  289.54 0855.18
2009/04/23 10:02:17.9    -130   -157    118    204    235 219.6  32.4  34164  289.63 0855.18
2009/04/23 10:02:18.0    -157   -186    155    244    289 220.3  35.5  34160  289.58 0855.18
2009/04/23 10:02:18.1     -43   -235    261    239    353 190.5  52.9  34140  289.24 0855.18
2009/04/23 10:02:18.2    -105   -261    236    282    367 201.9  44.1  34142  289.28 0855.18
2009/04/23 10:02:18.3    -102   -296    198    314    371 199.1  35.5  34126  289.01 0855.18
2009/04/23 10:02:18.4     -72   -322    220    331    397 192.6  36.7  34124  288.96 0855.18
2009/04/23 10:02:18.5       0   -222    197    223    297 180.0  45.9  34124  288.97 0855.18
2009/04/23 10:02:18.6     106   -171    156    202    255 148.1  41.7  34132  289.09 0855.18
2009/04/23 10:02:18.7     142   -171     68    223    234 140.3  17.1  34126  288.99 0855.18
2009/04/23 10:02:18.8     101   -138     20    172    174 143.7   6.7  34124  288.96 0855.18
2009/04/23 10:02:18.9       0    -57     61     58     84 180.9  51.2  34134  289.14 0855.18
2009/04/23 10:02:19.0     -33    -93     41     99    107 199.6  23.1  34132  289.11 0855.18
2009/04/23 10:02:19.1     -31    -65     67     73     99 205.5  47.9  34130  289.08 0855.18
2009/04/23 10:02:19.2     -25   -105    114    109    157 193.8  51.4  34132  289.09 0855.18
2009/04/23 10:02:19.3     -87    -55     77    104    129 237.5  40.1  34134  289.13 0855.18
2009/04/23 10:02:19.4    -119    -31     68    123    140 255.4  31.4  34128  289.02 0855.18
2009/04/23 10:02:19.5     -77    -64    103    101    144 230.4  50.1  34132  289.11 0855.18
2009/04/23 10:02:19.6      -8    -60     82     61    102 188.0  60.0  34134  289.14 0855.18
2009/04/23 10:02:19.7      10    -18     37     21     42 151.0  67.7  34142  289.26 0855.18
2009/04/23 10:02:19.8       5      2     47      6     47  64.7  90.0  34142  289.26 0855.18
2009/04/23 10:02:19.9       9     17     36     20     41  29.0  68.8  34146  289.35 0855.18
2009/04/23 10:02:20.0     -50    -10     39     52     65 258.5  39.7  34150  289.40 0855.18
2009/04/23 10:02:20.1     -15     41      0     44     45 339.1   0.8  34142  289.28 0855.18
2009/04/23 10:02:20.2     -35     48      3     60     61 323.9   2.9  34136  289.18 0855.18
2009/04/23 10:02:20.3     -72     52     44     90    100 306.0  27.8  34132  289.09 0855.18
2009/04/23 10:02:20.4     -74     96     62    122    136 322.2  29.2  34134  289.13 0855.18
2009/04/23 10:02:20.5     -58     57     65     82    104 314.9  42.7  34134  289.14 0855.18
2009/04/23 10:02:20.6     -80     23     71     84    109 285.9  43.8  34140  289.23 0855.18
2009/04/23 10:02:20.7     -85     -7     67     86    109 264.8  42.2  34138  289.19 0855.18
2009/04/23 10:02:20.8     -83    -23     48     87     99 254.5  31.4  34138  289.19 0855.18
2009/04/23 10:02:20.9     -55    -52     37     76     84 226.8  27.8  34136  289.16 0855.18
2009/04/23 10:02:21.0     -19    -28     58     34     67 214.3  66.8  34138  289.21 0855.18
2009/04/23 10:02:21.1     -12     54     52     56     76 347.5  48.0  34142  289.28 0855.19
2009/04/23 10:02:21.2       9      4     82     11     82  64.7  90.0  34144  289.30 0855.19
2009/04/23 10:02:21.3      -1    -12     85     13     85 186.2  90.0  34162  289.60 0855.19
2009/04/23 10:02:21.4     -23    -30     77     39     86 217.8  70.8  34156  289.52 0855.19
2009/04/23 10:02:21.5     -65    -15     79     67    103 256.7  55.4  34150  289.41 0855.19
2009/04/23 10:02:21.6    -115      8     58    116    129 274.4  28.7  34140  289.23 0855.19
2009/04/23 10:02:21.7     -91     14     61     93    111 278.8  36.0  34142  289.28 0855.19
2009/04/23 10:02:21.8     -24     16     54     30     61 304.2  68.8  34140  289.23 0855.19
2009/04/23 10:02:21.9     -24     73     76     77    108 341.5  50.5  34142  289.26 0855.19
2009/04/23 10:02:22.0      38     75     78     85    115  26.7  47.9  34148  289.38 0855.19
2009/04/23 10:02:22.1     -16    -18    113     25    115 221.4  88.5  34156  289.52 0855.19
2009/04/23 10:02:22.2      24    -12     85     27     89 117.1  81.2  34144  289.30 0855.19
2009/04/23 10:02:22.3      38    -17    111     42    118 114.4  78.6  34148  289.36 0855.19
2009/04/23 10:02:22.4      91    -67    140    114    180 126.4  56.4  34142  289.26 0855.19
2009/04/23 10:02:22.5     262     19    166    263    311  85.7  35.5  34142  289.25 0855.19
2009/04/23 10:02:22.6     271    104     24    291    293  68.9   4.9  34158  289.54 0855.19
2009/04/23 10:02:22.7     200     60    111    209    236  73.2  30.3  34162  289.60 0855.19
2009/04/23 10:02:22.8     232     53    121    239    267  77.0  29.1  34164  289.63 0855.19
2009/04/23 10:02:22.9     140     11    179    141    227  85.2  57.7  34150  289.41 0855.19
2009/04/23 10:02:23.0      69     -7    128     70    145  96.1  68.8  34148  289.38 0855.19
2009/04/23 10:02:23.1      30     20    134     37    139  55.8  84.8  34154  289.46 0855.19
2009/04/23 10:02:23.2     196     14    165    197    256  85.7  44.3  34132  289.10 0855.19
2009/04/23 10:02:23.3     180      1    153    181    237  89.4  44.8  34130  289.08 0855.19
2009/04/23 10:02:23.4     153      2    171    154    230  89.1  53.5  34136  289.16 0855.19
2009/04/23 10:02:23.5     154     31    168    158    230  78.5  52.1  34140  289.24 0855.19
2009/04/23 10:02:23.6     122     10    145    123    190  85.2  55.6  34138  289.21 0855.19
2009/04/23 10:02:23.7      75     24    117     79    141  72.3  62.6  34144  289.30 0855.19
2009/04/23 10:02:23.8      29     45    108     54    120  32.5  71.4  34144  289.31 0855.19
2009/04/23 10:02:23.9     -55     10     68     56     88 280.6  56.3  34150  289.40 0855.19
2009/04/23 10:02:24.0     -14     -1     79     15     80 265.7  90.0  34148  289.36 0855.19
2009/04/23 10:02:24.1      -7    -60    115     61    130 187.1  69.8  34142  289.28 0855.19
2009/04/23 10:02:24.2       8    -63     82     64    104 172.0  57.9  34138  289.21 0855.19
2009/04/23 10:02:24.3      73    -38     90     83    122 118.0  52.2  34140  289.23 0855.19
2009/04/23 10:02:24.4     135      0     62    136    149  90.0  27.1  34158  289.53 0855.19
2009/04/23 10:02:24.5     205     -7     81    206    221  92.1  22.8  34182  289.96 0855.19
2009/04/23 10:02:24.6     184     27     11    186    187  81.6   3.6  34184  289.97 0855.19
2009/04/23 10:02:24.7     196     14     38    197    201  85.9  11.1  34188  290.04 0855.19
2009/04/23 10:02:24.8     180      1     64    181    191  89.4  20.0  34170  289.75 0855.19
2009/04/23 10:02:24.9     115    -41    100    123    158 109.9  43.3  34144  289.30 0855.19
2009/04/23 10:02:25.0     122    -36     51    128    137 106.8  23.0  34138  289.21 0855.19
2009/04/23 10:02:25.1      78    -42     15     89     91 118.4  10.1  34140  289.24 0855.19
2009/04/23 10:02:25.2      39    -51     38     65     75 142.2  33.5  34142  289.26 0855.19
2009/04/23 10:02:25.3      75    -35     46     83     94 115.2  31.9  34138  289.21 0855.19
2009/04/23 10:02:25.4     145    -10    108    146    181  94.3  40.1  34168  289.70 0855.19
2009/04/23 10:02:25.5     154    -16     81    155    174  96.2  29.8  34176  289.84 0855.19
2009/04/23 10:02:25.6     142     -2     23    143    145  90.8   9.5  34174  289.80 0855.19
2009/04/23 10:02:25.7      60    -33     40     69     79 118.9  32.9  34166  289.67 0855.19
2009/04/23 10:02:25.8      40    -49     49     64     80 140.4  41.2  34144  289.31 0855.19
2009/04/23 10:02:25.9     -48   -123     75    133    152 201.4  31.9  34132  289.09 0855.19
2009/04/23 10:02:26.0     -50   -174     43    182    188 196.0  13.5  34130  289.06 0855.19
2009/04/23 10:02:26.1     -36   -136     58    141    152 195.2  23.1  34130  289.06 0855.16
2009/04/23 10:02:26.2     -22   -146     61    148    160 188.9  23.6  34132  289.09 0855.16
2009/04/23 10:02:26.3     -26   -137     18    140    142 190.7   7.5  34126  289.01 0855.16
2009/04/23 10:02:26.4     -26   -127     60    130    143 191.6  26.6  34126  288.99 0855.16
2009/04/23 10:02:26.5       0   -117    100    118    154 180.0  44.3  34130  289.08 0855.16
2009/04/23 10:02:26.6     -50   -138     74    147    164 200.0  28.7  34128  289.02 0855.16
2009/04/23 10:02:26.7     -58   -154     20    165    167 200.7   7.2  34130  289.06 0855.16
2009/04/23 10:02:26.8     -62   -174     -7    185    186 199.8  -2.2  34128  289.02 0855.16
2009/04/23 10:02:26.9     -49   -128     84    138    161 200.9  34.2  34126  288.99 0855.16
2009/04/23 10:02:27.0     -52    -90    104    105    147 210.3  50.0  34142  289.26 0855.16
2009/04/23 10:02:27.1     -14   -106     50    107    118 187.6  26.6  34132  289.09 0855.16
2009/04/23 10:02:27.2     -33   -168     56    172    182 191.3  18.1  34126  289.01 0855.16
2009/04/23 10:02:27.3     -50   -152     57    161    170 198.3  20.0  34128  289.04 0855.16
2009/04/23 10:02:27.4    -130   -146     56    196    204 221.7  16.0  34128  289.04 0855.16
2009/04/23 10:02:27.5    -162    -61    -48    174    181 249.4 -15.5  34126  289.01 0855.16
2009/04/23 10:02:27.6    -146    -41    -49    152    159 254.1 -23.0  34126  289.01 0855.16
2009/04/23 10:02:27.7    -110    -30    -59    115    129 254.9 -33.7  34128  289.04 0855.16
2009/04/23 10:02:27.8     -97     44      9    107    108 294.8   4.9  34126  289.01 0855.16
2009/04/23 10:02:27.9    -164     11     -1    165    166 274.1  -0.5  34128  289.02 0855.16
2009/04/23 10:02:28.0    -148      7     29    149    152 273.0  11.1  34128  289.04 0855.16
2009/04/23 10:02:28.1    -168     -2     97    169    194 269.0  32.7  34130  289.06 0855.13
2009/04/23 10:02:28.3    -252     -6     40    253    257 268.5   9.0  34140  289.24 0855.13
2009/04/23 10:02:28.4    -213   -108    109    239    262 243.1  26.2  34132  289.10 0855.13
2009/04/23 10:02:28.5     -87   -137     42    163    169 212.6  14.7  34134  289.13 0855.13
2009/04/23 10:02:28.6    -143   -134    172    197    261 226.9  45.8  34144  289.31 0855.13
2009/04/23 10:02:28.7    -265    -84     25    279    281 252.3   5.2  34168  289.71 0855.13
2009/04/23 10:02:28.8    -177   -187     -1    258    259 223.4  -0.3  34142  289.27 0855.13
2009/04/23 10:02:28.9    -164   -132    -19    211    212 231.1  -5.2  34140  289.24 0855.13
2009/04/23 10:02:29.0    -164   -121    -41    204    209 233.6 -11.3  34148  289.36 0855.13
2009/04/23 10:02:29.1    -115   -115     44    163    169 225.0  15.3  34148  289.38 0855.13
2009/04/23 10:02:29.2    -108   -112     49    156    164 223.9  17.7  34152  289.45 0855.13
2009/04/23 10:02:29.3     -89   -140     17    167    168 212.5   5.9  34148  289.36 0855.13
2009/04/23 10:02:29.4    -100   -151      3    182    183 213.6   1.0  34138  289.19 0855.13
2009/04/23 10:02:29.5     -74   -157     55    174    183 205.3  17.7  34136  289.18 0855.13
2009/04/23 10:02:29.6     -91   -137     81    165    183 213.8  28.0  34154  289.48 0855.13
2009/04/23 10:02:29.7    -187   -112    -23    219    221 239.1  -6.2  34166  289.67 0855.13
2009/04/23 10:02:29.8    -168   -106    -58    199    208 237.8 -16.4  34166  289.69 0855.13
2009/04/23 10:02:29.9    -195    -65    -26    206    208 251.4  -7.3  34200  290.26 0855.13
2009/04/23 10:02:30.0    -244    -80    -63    257    265 251.8 -13.9  34194  290.15 0855.13
2009/04/23 10:02:30.1    -239   -121    -79    268    280 243.1 -16.4  34176  289.85 0855.13
2009/04/23 10:02:30.2    -262   -114    -41    286    290 246.5  -8.2  34168  289.70 0855.15
2009/04/23 10:02:30.3    -265    -50    -85    270    284 259.2 -17.6  34170  289.73 0855.15
2009/04/23 10:02:30.4    -229    -53    -73    236    248 256.8 -17.3  34166  289.68 0855.15
2009/04/23 10:02:30.5    -191    -78    -70    207    219 247.8 -18.7  34160  289.58 0855.15
2009/04/23 10:02:30.6    -200   -102    -64    225    235 242.9 -16.0  34170  289.75 0855.15
2009/04/23 10:02:30.7    -212    -79    -75    227    240 249.4 -18.3  34184  289.98 0855.15
2009/04/23 10:02:30.8    -181    -52    -84    189    206 253.8 -29.7  34186  290.01 0855.15
2009/04/23 10:02:30.9    -193    -63   -102    204    228 251.8 -32.9  34164  289.65 0855.15
2009/04/23 10:02:31.0    -171    -49    -90    179    200 253.8 -33.1  34170  289.75 0855.15
2009/04/23 10:02:31.1    -154    -53    -63    163    174 250.9 -26.1  34164  289.63 0855.15
2009/04/23 10:02:31.2     -93    -93    -70    132    149 225.2 -34.7  34152  289.45 0855.15
2009/04/23 10:02:31.3     -17   -152    -76    154    171 186.7 -32.4  34152  289.43 0855.15
2009/04/23 10:02:31.4      23   -217    -33    219    222 173.8  -8.6  34136  289.18 0855.15
2009/04/23 10:02:31.5     -46   -192    -11    198    199 193.6  -3.2  34140  289.24 0855.15
2009/04/23 10:02:31.6      -6   -168      0    169    170 182.2   0.0  34132  289.11 0855.15
2009/04/23 10:02:31.7       8   -237     30    238    240 178.0   7.2  34130  289.07 0855.15
2009/04/23 10:02:31.8     -19   -225      6    226    227 184.9   1.6  34128  289.02 0855.15
2009/04/23 10:02:31.9     -95   -256     10    274    275 200.5   2.1  34132  289.10 0855.15
2009/04/23 10:02:32.0    -140   -275      2    309    310 207.1   0.5  34130  289.07 0855.15
2009/04/23 10:02:32.1    -181   -327    -39    374    377 209.0  -6.0  34130  289.08 0855.15
2009/04/23 10:02:32.2    -116   -349    -70    369    376 198.5 -10.8  34126  289.01 0855.14
2009/04/23 10:02:32.3       6   -400    -15    401    402 179.0  -2.2  34128  289.04 0855.14
2009/04/23 10:02:32.4     -58   -364     -1    369    370 189.1  -0.3  34126  289.01 0855.14
2009/04/23 10:02:32.5     -63   -391     77    397    405 189.2  11.0  34128  289.04 0855.14
2009/04/23 10:02:32.6     -22   -415    106    416    430 183.1  14.3  34130  289.07 0855.14
2009/04/23 10:02:32.7     -41   -420    147    423    448 185.6  19.2  34130  289.05 0855.14
2009/04/23 10:02:32.8     -54   -434     82    438    446 187.2  10.6  34130  289.05 0855.14
2009/04/23 10:02:32.9     -30   -393    111    395    411 184.5  15.8  34132  289.09 0855.14
2009/04/23 10:02:33.0      23   -389    120    390    409 176.6  17.2  34134  289.12 0855.14
2009/04/23 10:02:33.1      19   -408    109    409    424 177.3  15.0  34126  288.99 0855.14
2009/04/23 10:02:33.2     -41   -329    130    332    356 187.2  22.7  34130  289.08 0855.14
2009/04/23 10:02:33.3     -22   -288    101    289    307 184.5  19.4  34132  289.09 0855.14
2009/04/23 10:02:33.4     -26   -296     69    298    306 185.1  13.1  34130  289.05 0855.14
2009/04/23 10:02:33.5     -46   -299     75    303    313 188.9  13.9  34132  289.09 0855.14
2009/04/23 10:02:33.6     -98   -266    115    284    306 200.3  23.1  34126  288.98 0855.14
2009/04/23 10:02:33.7    -116   -201     82    233    247 210.1  20.0  34122  288.92 0855.14
2009/04/23 10:02:33.8    -115    -83    155    143    210 234.0  52.5  34122  288.94 0855.14
2009/04/23 10:02:33.9    -236     -9     -1    237    238 267.6  -0.3  34114  288.80 0855.14
2009/04/23 10:02:34.0    -226   -120     26    257    259 242.0   5.9  34120  288.90 0855.14
2009/04/23 10:02:34.1    -138   -137     72    195    207 225.1  21.0  34118  288.87 0855.14
2009/04/23 10:02:34.2    -164    -99     23    192    194 238.9   6.9  34122  288.92 0855.14
2009/04/23 10:02:34.3     -93     -7    -29     94     98 265.7 -21.7  34122  288.94 0855.14
2009/04/23 10:02:34.4     -22    -39    -15     45     47 209.9 -23.6  34126  289.01 0855.14
2009/04/23 10:02:34.5       0    -62     18     63     66 180.9  16.3  34128  289.04 0855.14
2009/04/23 10:02:34.6      -2    -28     34     29     44 184.5  54.3  34132  289.11 0855.14
2009/04/23 10:02:34.7      -7    -97    -19     98    100 184.4 -11.3  34128  289.02 0855.14
2009/04/23 10:02:34.8      20    -80    -16     83     85 165.7 -11.3  34128  289.02 0855.14
2009/04/23 10:02:34.9      19    -89    -17     92     94 168.0 -10.9  34126  288.99 0855.14
2009/04/23 10:02:35.0      15    -87    -35     89     95 170.2 -26.9  34124  288.96 0855.14
2009/04/23 10:02:35.1      16    -63    -48     66     81 165.7 -44.5  34126  288.99 0855.14
2009/04/23 10:02:35.2       2   -132    -53    133    143 179.1 -27.4  34122  288.94 0855.14
2009/04/23 10:02:35.3     -35   -162    -23    166    168 192.3  -8.0  34122  288.92 0855.14
2009/04/23 10:02:35.4    -165   -183      3    247    248 221.9   0.8  34126  288.98 0855.14
2009/04/23 10:02:35.5    -119   -160     69    200    212 216.7  19.2  34124  288.97 0855.14
2009/04/23 10:02:35.6    -152   -152     25    215    217 225.0   6.7  34128  289.04 0855.14
2009/04/23 10:02:35.7     -81   -245     50    259    264 198.3  11.1  34128  289.03 0855.14
2009/04/23 10:02:35.8    -131   -261     68    293    301 206.7  13.2  34140  289.22 0855.14
2009/04/23 10:02:35.9    -123   -334    113    357    375 200.3  17.7  34146  289.33 0855.14
2009/04/23 10:02:36.0    -155   -252     35    296    299 211.6   6.9  34144  289.29 0855.14
2009/04/23 10:02:36.1     -65   -306     53    313    318 192.0   9.7  34142  289.27 0855.14
2009/04/23 10:02:36.2      56   -423    -61    427    432 172.4  -8.2  34128  289.02 0855.13
2009/04/23 10:02:36.3      88   -366    -14    377    378 166.5  -2.2  34122  288.94 0855.13
2009/04/23 10:02:36.4     148   -375     22    404    405 158.4   3.2  34122  288.92 0855.13
2009/04/23 10:02:36.5     142   -297     31    330    332 154.5   5.4  34120  288.91 0855.13
2009/04/23 10:02:36.6     110   -398    111    414    429 164.5  15.0  34124  288.95 0855.13
2009/04/23 10:02:36.7      79   -363    143    372    398 167.7  22.0  34122  288.94 0855.13
2009/04/23 10:02:36.8      83   -338    148    349    379 166.1  24.3  34122  288.94 0855.13
2009/04/23 10:02:36.9      63   -336    128    342    365 169.3  21.4  34126  288.98 0855.13
2009/04/23 10:02:37.0     123   -283    172    309    353 156.4  31.4  34122  288.94 0855.13
2009/04/23 10:02:37.1     244   -315     76    399    407 142.2  10.8  34122  288.94 0855.13
2009/04/23 10:02:37.2     201   -318     55    377    382 147.7   8.3  34120  288.91 0855.13
2009/04/23 10:02:37.3      64   -284     42    292    296 167.3   8.2  34124  288.97 0855.13
2009/04/23 10:02:37.4     104   -249    -10    271    272 157.3  -2.2  34126  288.98 0855.13
2009/04/23 10:02:37.5      92   -209     -6    229    230 156.2  -1.6  34124  288.97 0855.13
2009/04/23 10:02:37.6      73   -176    160    191    249 157.3  44.1  34128  289.02 0855.13
2009/04/23 10:02:37.7     -47   -156    185    164    247 196.9  54.0  34126  288.99 0855.13
2009/04/23 10:02:37.8    -128   -150    107    198    225 220.5  30.8  34126  288.99 0855.13
2009/04/23 10:02:37.9    -249    -99     76    269    280 248.3  15.8  34126  288.98 0855.13
2009/04/23 10:02:38.0    -228   -138     51    267    272 238.9  11.0  34126  289.00 0855.13
2009/04/23 10:02:38.1    -180   -151    115    236    262 230.0  28.0  34128  289.02 0855.13
2009/04/23 10:02:38.2    -136   -196    142    239    278 214.7  33.5  34130  289.05 0855.14
2009/04/23 10:02:38.3    -192   -193     96    273    289 224.8  20.0  34136  289.15 0855.14
2009/04/23 10:02:38.4    -264   -179     28    320    322 235.8   5.1  34130  289.05 0855.14
2009/04/23 10:02:38.5    -289    -95    -44    305    309 251.8  -8.2  34128  289.03 0855.14
2009/04/23 10:02:38.6    -333    -78    -13    343    344 256.7  -2.2  34132  289.10 0855.14
2009/04/23 10:02:38.7    -293    -81     71    305    314 254.5  13.1  34132  289.10 0855.14
2009/04/23 10:02:38.8    -214     71    -53    226    233 288.4 -13.3  34130  289.06 0855.14
2009/04/23 10:02:38.9    -289    133    -47    319    323 294.8  -8.4  34130  289.05 0855.14
2009/04/23 10:02:39.0    -260     70    -24    270    272 285.1  -5.2  34130  289.05 0855.14
2009/04/23 10:02:39.1    -167    168    -25    238    240 315.2  -6.1  34130  289.07 0855.14
2009/04/23 10:02:39.2    -192    144    -43    240    244 306.9 -10.3  34130  289.05 0855.14
2009/04/23 10:02:39.3    -207    220     15    303    304 316.7   2.9  34130  289.07 0855.14
2009/04/23 10:02:39.4    -193    193     97    274    290 315.0  20.0  34134  289.14 0855.14
2009/04/23 10:02:39.5    -206    243    106    319    337 319.7  18.5  34132  289.10 0855.14
2009/04/23 10:02:39.6    -148    309      9    343    344 334.4   1.6  34134  289.13 0855.14
2009/04/23 10:02:39.7    -111    127    144    170    222 318.8  44.8  34142  289.28 0855.14
2009/04/23 10:02:39.8    -189     12    121    190    225 273.7  35.5  34128  289.04 0855.14
2009/04/23 10:02:39.9    -158     84    112    180    212 298.0  35.5  34132  289.11 0855.14
2009/04/23 10:02:40.0     -99    118    113    155    191 319.9  39.7  34134  289.13 0855.14
2009/04/23 10:02:40.1    -140    115     66    182    193 309.3  20.4  34132  289.09 0855.14
2009/04/23 10:02:40.2    -147     26    101    150    180 280.1  37.3  34138  289.19 0855.15
2009/04/23 10:02:40.3     -43    -13     76     46     88 252.3  65.7  34138  289.19 0855.15
2009/04/23 10:02:40.4      -8     12    107     15    108 327.5  90.0  34144  289.31 0855.15
2009/04/23 10:02:40.5     -34    -21    133     41    139 237.6  82.3  34144  289.30 0855.15
2009/04/23 10:02:40.6    -100    -63    116    119    166 237.5  49.4  34134  289.14 0855.15
2009/04/23 10:02:40.7     -44    -36    132     58    144 230.5  74.9  34138  289.21 0855.15
2009/04/23 10:02:40.8     -46    -28    100     55    114 238.5  68.8  34140  289.23 0855.15
2009/04/23 10:02:40.9     -38     60     74     72    103 327.5  50.1  34144  289.30 0855.15
2009/04/23 10:02:41.0     -53     17     82     56     99 288.6  62.1  34138  289.21 0855.15
2009/04/23 10:02:41.1      80     50    151     95    178  57.6  64.7  34142  289.26 0855.15
2009/04/23 10:02:41.2     176    -74    152    191    244 112.8  42.7  34134  289.13 0855.15
2009/04/23 10:02:41.3     186    -98    141    211    253 117.8  37.0  34134  289.12 0855.15
2009/04/23 10:02:41.4     144     48    131    152    200  71.4  45.4  34150  289.40 0855.15
2009/04/23 10:02:41.5     140     38    155    146    212  74.9  52.0  34150  289.41 0855.15
2009/04/23 10:02:41.6     179     71    149    193    243  68.2  41.6  34158  289.55 0855.15
2009/04/23 10:02:41.7     233     65    120    243    271  74.3  28.0  34156  289.49 0855.15
2009/04/23 10:02:41.8     183     72    177    197    264  68.5  46.6  34170  289.73 0855.15
2009/04/23 10:02:41.9     263     69    106    272    291  75.2  22.3  34162  289.59 0855.15
2009/04/23 10:02:42.0     247    108    130    270    299  66.3  27.3  34168  289.71 0855.15
2009/04/23 10:02:42.1     235     52    247    241    345  77.4  50.7  34174  289.80 0855.15
2009/04/23 10:02:42.2     127     58    173    140    222  65.2  56.6  34172  289.77 0855.16
2009/04/23 10:02:42.3     225    211    199    309    367  46.9  35.7  34162  289.62 0855.16
2009/04/23 10:02:42.4     121    163    161    204    259  36.5  42.4  34152  289.42 0855.16
2009/04/23 10:02:42.5     153    256    145    299    332  30.8  27.8  34116  288.83 0855.16
2009/04/23 10:02:42.6     214    213    158    303    341  45.2  29.6  34126  288.98 0855.16
2009/04/23 10:02:42.7      80    168    138    187    232  25.5  39.7  34130  289.08 0855.16
2009/04/23 10:02:42.8    -111     99    202    150    251 311.8  59.8  34126  289.01 0855.16
2009/04/23 10:02:42.9    -158    274    110    317    336 330.0  19.2  34130  289.06 0855.16
2009/04/23 10:02:43.0    -128    213    170    249    301 329.0  37.6  34130  289.07 0855.16
2009/04/23 10:02:43.1    -224    179     40    287    290 308.6   8.0  34144  289.31 0855.16
2009/04/23 10:02:43.2    -200    213     31    293    295 316.7   6.1  34134  289.14 0855.16
2009/04/23 10:02:43.3    -169    196     98    260    277 319.2  21.7  34148  289.36 0855.16
2009/04/23 10:02:43.4    -238    205    142    315    345 310.7  26.0  34136  289.16 0855.16
2009/04/23 10:02:43.5    -252    191     87    317    329 307.2  15.4  34128  289.03 0855.16
2009/04/23 10:02:43.6    -223    178     50    286    291 308.6  10.0  34120  288.90 0855.16
2009/04/23 10:02:43.7    -205    144     47    251    256 305.1  10.6  34126  288.98 0855.16
2009/04/23 10:02:43.8    -177    112     75    210    222 302.4  20.2  34132  289.09 0855.16
2009/04/23 10:02:43.9    -160    131     78    208    222 309.3  21.5  34122  288.92 0855.16
2009/04/23 10:02:44.0    -288    184    103    343    359 302.6  16.7  34124  288.96 0855.16
2009/04/23 10:02:44.1    -421    235    171    483    513 299.2  19.5  34124  288.96 0855.16
2009/04/23 10:02:44.2    -548    329     71    640    644 301.0   6.4  34116  288.84 0855.18
2009/04/23 10:02:44.3    -450    210     77    497    504 295.1   8.9  34116  288.84 0855.18
2009/04/23 10:02:44.4    -425    121    -14    442    443 285.9  -1.9  34124  288.97 0855.18
2009/04/23 10:02:44.5    -423    118     21    440    441 285.6   2.8  34124  288.95 0855.18
2009/04/23 10:02:44.6    -343     96     23    357    358 285.7   3.7  34132  289.11 0855.18
2009/04/23 10:02:44.7    -294    -14     15    295    296 267.2   2.9  34146  289.32 0855.18
2009/04/23 10:02:44.8    -425     18     20    426    427 272.5   2.8  34146  289.33 0855.18
2009/04/23 10:02:44.9    -423    130    -97    443    454 287.2 -12.4  34114  288.80 0855.18
2009/04/23 10:02:45.0    -390    -72   -141    397    422 259.5 -19.6  34126  288.99 0855.18
2009/04/23 10:02:45.1    -371   -173    -70    410    416 244.9  -9.7  34126  288.99 0855.18
2009/04/23 10:02:45.2    -269   -205     39    339    342 232.7   6.6  34130  289.06 0855.18
2009/04/23 10:02:45.3    -230   -172     45    288    292 233.1   9.0  34128  289.03 0855.18
2009/04/23 10:02:45.4    -268    -78    110    280    300 253.8  23.0  34136  289.17 0855.18
2009/04/23 10:02:45.5    -205   -139     82    248    262 235.8  18.4  34144  289.29 0855.18
2009/04/23 10:02:45.6     -93    -31     43     99    107 251.4  25.1  34146  289.33 0855.18
2009/04/23 10:02:45.7     -99    -72    116    123    169 234.0  48.5  34158  289.53 0855.18
2009/04/23 10:02:45.8    -110    -57     97    125    158 242.5  41.7  34154  289.48 0855.18
2009/04/23 10:02:45.9     -65      4     74     66     99 273.5  53.3  34154  289.46 0855.18
2009/04/23 10:02:46.0     -39    184    149    189    240 348.0  42.4  34138  289.19 0855.18
2009/04/23 10:02:46.1     -17    176    232    177    291 354.4  59.0  34138  289.20 0855.18
2009/04/23 10:02:46.2     -54    275     60    281    288 348.9  12.1  34138  289.19 0855.17
2009/04/23 10:02:46.3     -41     58     14     72     74 324.8  11.1  34136  289.16 0855.17
2009/04/23 10:02:46.4     -31    177   -110    180    210 349.8 -38.8  34144  289.30 0855.17
2009/04/23 10:02:46.5     -10    122    -56    123    135 355.1 -30.6  34142  289.28 0855.17
2009/04/23 10:02:46.6      54     29     -2     62     63  62.0  -2.2  34136  289.18 0855.17
2009/04/23 10:02:46.7      84    -36     98     92    134 113.5  51.6  34144  289.30 0855.17
2009/04/23 10:02:46.8     149    -11     89    150    174  94.3  33.7  34138  289.19 0855.17
2009/04/23 10:02:46.9     240     82    132    254    286  70.9  29.5  34132  289.09 0855.17
2009/04/23 10:02:47.0     163     84    231    184    295  62.5  57.5  34134  289.14 0855.17
2009/04/23 10:02:47.1      95     54    156    110    190  60.2  61.3  34140  289.24 0855.17
2009/04/23 10:02:47.2      41     26    104     49    114  57.6  73.1  34146  289.33 0855.19
2009/04/23 10:02:47.3     -38    -17    124     42    130 245.6  81.2  34160  289.57 0855.19
2009/04/23 10:02:47.4     -76    -25    113     81    139 251.8  60.6  34152  289.43 0855.19
2009/04/23 10:02:47.5     -98   -119     57    155    165 219.6  20.7  34146  289.33 0855.19
2009/04/23 10:02:47.6    -151   -253    -27    295    297 210.8  -5.4  34134  289.12 0855.19
2009/04/23 10:02:47.7    -124   -190     -9    228    229 213.2  -2.3  34138  289.19 0855.19
2009/04/23 10:02:47.8     -77    -90   -154    119    194 220.5 -62.9  34140  289.24 0855.19
2009/04/23 10:02:47.9     -69   -159   -122    174    212 203.4 -42.8  34142  289.26 0855.19
2009/04/23 10:02:48.0     -94   -160     -1    186    187 210.5  -0.5  34136  289.16 0855.19
2009/04/23 10:02:48.1      65   -196     25    207    209 161.5   7.1  34138  289.19 0855.19
2009/04/23 10:02:48.2     -75   -260    135    271    302 196.1  28.2  34136  289.15 0855.19
2009/04/23 10:02:48.3     -68   -305     88    313    326 192.7  15.8  34136  289.17 0855.19
2009/04/23 10:02:48.4    -108   -306    114    325    344 199.6  20.0  34138  289.20 0855.19
2009/04/23 10:02:48.5     -96   -324    133    338    363 196.5  22.7  34138  289.20 0855.19
2009/04/23 10:02:48.6     -63   -361    148    367    395 189.9  23.1  34140  289.23 0855.19
2009/04/23 10:02:48.7     -68   -298   -107    306    324 192.9 -24.4  34132  289.10 0855.19
2009/04/23 10:02:48.8       2   -116   -218    117    247 178.6 -74.2  34132  289.09 0855.19
2009/04/23 10:02:48.9     -45    -78    -82     91    122 210.3 -51.3  34134  289.13 0855.19
2009/04/23 10:02:49.0     -96   -265    -72    282    292 200.0 -14.4  34132  289.10 0855.19
2009/04/23 10:02:49.1     -55   -233    -15    240    241 193.4  -3.7  34136  289.15 0855.19
2009/04/23 10:02:49.2      11   -266     92    267    283 177.5  19.2  34140  289.24 0855.19
2009/04/23 10:02:49.3     -96   -263    190    281    339 200.1  37.2  34134  289.12 0855.19
2009/04/23 10:02:49.4    -134   -225    205    263    333 210.8  42.0  34130  289.07 0855.19
2009/04/23 10:02:49.5    -156   -185    203    243    316 220.1  44.3  34134  289.14 0855.19
2009/04/23 10:02:49.6     -68   -175    141    189    235 201.4  40.7  34130  289.08 0855.19
2009/04/23 10:02:49.7     -94   -246    161    264    309 201.0  34.4  34134  289.12 0855.19
2009/04/23 10:02:49.8    -105   -215    141    240    278 206.1  33.4  34128  289.03 0855.19
2009/04/23 10:02:49.9     -67   -203    249    214    328 198.3  55.3  34136  289.17 0855.19
2009/04/23 10:02:50.0     -26   -161    242    164    292 189.3  62.7  34146  289.32 0855.19
2009/04/23 10:02:50.1     -20    -59    210     63    219 198.7  82.8  34152  289.45 0855.19
2009/04/23 10:02:50.2       1   -154    223    155    271 179.5  62.1  34148  289.37 0855.19
2009/04/23 10:02:50.3     -37   -280    285    283    401 187.6  50.1  34144  289.30 0855.19
2009/04/23 10:02:50.4      16   -320    315    321    449 177.1  49.7  34140  289.24 0855.19
2009/04/23 10:02:50.5      -9   -325    268    326    422 181.7  43.7  34136  289.18 0855.19
2009/04/23 10:02:50.7     -22   -255    239    257    350 185.1  47.9  34132  289.09 0855.19
2009/04/23 10:02:50.7     -15     24    197     29    199 327.5  90.0  34148  289.36 0855.19
2009/04/23 10:02:50.8      39    -44    154     60    165 138.6  77.8  34146  289.35 0855.19
2009/04/23 10:02:50.9      67   -148    152    163    222 155.5  47.9  34136  289.16 0855.19
2009/04/23 10:02:51.0     -68   -227    254    237    347 196.7  52.2  34140  289.22 0855.19
2009/04/23 10:02:51.1      -4   -147    253    148    293 181.8  67.0  34148  289.36 0855.19
2009/04/23 10:02:51.2     -60   -198    260    208    332 196.9  57.3  34134  289.12 0855.19
2009/04/23 10:02:51.3     -37     22    146     44    152 300.7  82.7  34152  289.43 0855.19
2009/04/23 10:02:51.4     -15     35    141     39    146 336.4  84.8  34152  289.43 0855.19
2009/04/23 10:02:51.5     -81     37    129     90    157 294.4  61.5  34144  289.30 0855.19
2009/04/23 10:02:51.6      85    -67    206    109    233 128.2  69.8  34142  289.28 0855.19
2009/04/23 10:02:51.7     -50     53    181     73    195 316.7  77.1  34144  289.31 0855.19
2009/04/23 10:02:51.8     -40    -68    178     80    195 210.7  74.0  34144  289.31 0855.19
2009/04/23 10:02:51.9     -33     55    161     65    173 329.3  77.1  34144  289.31 0855.19
2009/04/23 10:02:52.0     -26    -52    178     59    187 207.2  80.7  34148  289.36 0855.19
2009/04/23 10:02:52.1     -33    -45    123     56    135 216.1  74.0  34144  289.30 0855.19
2009/04/23 10:02:52.2      -1      4     79      5     79 341.5  90.0  34146  289.33 0855.19
2009/04/23 10:02:52.3      48     -7     76     49     90  98.8  64.6  34140  289.23 0855.19
2009/04/23 10:02:52.4     -66   -218    133    228    263 197.0  32.9  34136  289.17 0855.19
2009/04/23 10:02:52.5     -51   -275     96    280    297 190.6  18.9  34136  289.17 0855.19
2009/04/23 10:02:52.6     -35   -235    108    238    261 188.5  26.2  34140  289.24 0855.19
2009/04/23 10:02:52.7      48   -158    -24    166    168 163.1  -8.2  34134  289.14 0855.19
2009/04/23 10:02:52.8      49    -59    102     77    127 140.4  58.5  34144  289.31 0855.19
2009/04/23 10:02:52.9     -10      3     56     11     57 288.4  89.1  34154  289.48 0855.19
2009/04/23 10:02:53.0     -17    -29    112     34    117 210.7  82.7  34154  289.48 0855.19
2009/04/23 10:02:53.1      -5    -31    137     32    140 189.8  87.0  34148  289.38 0855.19
2009/04/23 10:02:53.2       1   -281    237    282    368 179.8  44.2  34130  289.08 0855.21
2009/04/23 10:02:53.3       6   -235    224    236    325 178.4  48.5  34144  289.31 0855.21
2009/04/23 10:02:53.4       6   -136    238    137    274 177.3  67.7  34142  289.27 0855.21
2009/04/23 10:02:53.5      60    -50    156     79    174 129.6  71.4  34144  289.31 0855.21
2009/04/23 10:02:53.6      37    -89    206     97    227 157.3  73.1  34148  289.36 0855.21
2009/04/23 10:02:53.7     -15   -194    228    195    300 184.5  55.3  34142  289.25 0855.21
2009/04/23 10:02:53.8       5   -298    236    299    380 178.9  42.3  34142  289.28 0855.21
2009/04/23 10:02:53.9       0   -258    265    259    370 180.1  50.6  34142  289.26 0855.21
2009/04/23 10:02:54.0    -130   -276    200    306    365 205.2  36.3  34142  289.26 0855.21
2009/04/23 10:02:54.1    -102   -280    101    299    316 200.1  18.8  34142  289.25 0855.21
2009/04/23 10:02:54.3     -74   -332    117    341    361 192.7  19.1  34142  289.28 0855.21
2009/04/23 10:02:54.3     -80   -377    170    386    421 192.0  25.2  34140  289.22 0855.21
2009/04/23 10:02:54.5     -33   -308    236    310    389 186.2  41.2  34142  289.26 0855.21
2009/04/23 10:02:54.5     -99   -301    189    317    369 198.3  33.7  34142  289.26 0855.21
2009/04/23 10:02:54.7     -96   -300    129    316    341 197.8  23.4  34142  289.28 0855.21
2009/04/23 10:02:54.7     -64   -203    173    213    274 197.6  43.5  34140  289.24 0855.21
2009/04/23 10:02:54.8     -72   -228    192    240    307 197.6  42.8  34144  289.31 0855.21
2009/04/23 10:02:55.0     -16   -255    214    256    333 183.6  44.2  34144  289.31 0855.21
2009/04/23 10:02:55.1     -40   -282    209    285    353 188.1  39.9  34140  289.23 0855.21
2009/04/23 10:02:55.2     -57   -325    190    331    381 190.0  32.6  34138  289.21 0855.21
2009/04/23 10:02:55.3    -100   -335    214    350    410 196.7  34.4  34142  289.26 0855.21
2009/04/23 10:02:55.4    -126   -403     36    423    425 197.4   5.0  34140  289.24 0855.21
2009/04/23 10:02:55.5    -148   -390    163    418    448 200.8  22.4  34134  289.12 0855.21
2009/04/23 10:02:55.6     -96   -357    115    370    388 195.2  17.3  34142  289.28 0855.21
2009/04/23 10:02:55.7    -112   -359     51    377    381 197.4   7.8  34136  289.18 0855.21
2009/04/23 10:02:55.8    -151   -364     49    395    399 202.6   7.1  34142  289.25 0855.21
2009/04/23 10:02:55.9    -153   -347     20    380    381 203.9   3.0  34136  289.18 0855.21
2009/04/23 10:02:56.0     -66   -339    164    346    382 191.1  27.2  34142  289.26 0855.21
2009/04/23 10:02:56.1    -112   -279    118    301    323 201.9  22.5  34128  289.03 0855.21
2009/04/23 10:02:56.2     -58   -259    167    266    314 192.7  35.1  34140  289.22 0855.21
2009/04/23 10:02:56.3     -53   -262     93    268    284 191.6  19.2  34140  289.22 0855.21
2009/04/23 10:02:56.4     -84   -193    105    211    235 203.6  28.2  34140  289.23 0855.21
2009/04/23 10:02:56.5     -46   -164    153    171    229 195.8  46.4  34144  289.30 0855.21
2009/04/23 10:02:56.6      20   -146    158    148    216 171.9  52.1  34142  289.26 0855.21
2009/04/23 10:02:56.7     -48   -281    160    286    327 189.7  31.7  34138  289.20 0855.21
2009/04/23 10:02:56.8     -41   -296    150    299    334 188.0  28.6  34138  289.20 0855.21
2009/04/23 10:02:56.9     -40   -287    164    290    333 188.0  31.9  34144  289.29 0855.21
2009/04/23 10:02:57.0     -76   -280    172    291    338 195.2  33.3  34140  289.22 0855.21
2009/04/23 10:02:57.1    -116   -267    155    292    330 203.6  30.3  34144  289.29 0855.21
2009/04/23 10:02:57.2    -129   -273    107    303    321 205.4  20.1  34144  289.29 0855.21
2009/04/23 10:02:57.3    -128   -252    103    283    301 207.1  20.9  34140  289.22 0855.20
2009/04/23 10:02:57.4     -74   -277    128    287    314 195.1  25.7  34144  289.29 0855.20
2009/04/23 10:02:57.5     -52   -362    150    366    395 188.2  23.6  34136  289.16 0855.20
2009/04/23 10:02:57.6     -86   -376    178    386    425 193.0  26.5  34140  289.24 0855.20
2009/04/23 10:02:57.7    -163   -321    169    361    398 207.0  27.0  34138  289.21 0855.20
2009/04/23 10:02:57.8    -174   -348     75    390    398 206.6  11.0  34140  289.23 0855.20
2009/04/23 10:02:57.9    -180   -317     17    365    366 209.7   2.8  34140  289.23 0855.20
2009/04/23 10:02:58.0    -206   -259    -15    332    333 218.5  -2.7  34140  289.23 0855.20
2009/04/23 10:02:58.1    -117   -161     47    200    206 216.0  13.2  34140  289.24 0855.20
2009/04/23 10:02:58.2     -88   -203     82    222    236 203.4  21.3  34142  289.28 0855.20
2009/04/23 10:02:58.3     -83   -206     57    223    231 201.9  14.5  34140  289.24 0855.20
2009/04/23 10:02:58.4     -47   -206     84    212    228 192.9  23.0  34140  289.23 0855.20
2009/04/23 10:02:58.5     -52   -190     81    198    213 195.4  23.1  34140  289.24 0855.20
2009/04/23 10:02:58.6     -92   -224    112    243    267 202.3  26.4  34140  289.24 0855.20
2009/04/23 10:02:58.7     -23   -254     84    256    270 185.3  18.1  34144  289.29 0855.20
2009/04/23 10:02:58.8     -80   -215    146    230    272 200.5  35.5  34144  289.29 0855.20
2009/04/23 10:02:58.9     -51   -149    173    158    234 199.2  52.7  34146  289.33 0855.20
2009/04/23 10:02:59.0     -49   -206    210    212    298 193.4  50.0  34140  289.24 0855.20
2009/04/23 10:02:59.1     -58   -255    199    262    329 192.9  41.1  34142  289.25 0855.20
2009/04/23 10:02:59.2    -119   -238    240    267    359 206.5  46.5  34140  289.23 0855.20
2009/04/23 10:02:59.3     -77   -230    194    243    310 198.7  42.8  34142  289.27 0855.19
2009/04/23 10:02:59.4     -48   -183    159    190    247 194.7  44.1  34138  289.21 0855.19
2009/04/23 10:02:59.5     -47   -392     55    395    399 186.9   8.0  34140  289.23 0855.19
2009/04/23 10:02:59.6     -60   -388     57    393    398 188.8   8.3  34136  289.16 0855.19
2009/04/23 10:02:59.7     -11   -322    102    323    339 182.0  17.5  34142  289.26 0855.19
2009/04/23 10:02:59.8    -107   -343    103    360    375 197.4  16.0  34144  289.30 0855.19
2009/04/23 10:02:59.9    -107   -347    148    364    392 197.2  23.4  34142  289.26 0855.19
2009/04/23 10:03:00.0     -49   -342    123    346    367 188.3  20.2  34142  289.25 0855.19
2009/04/23 10:03:00.1    -172   -295    153    342    374 210.3  25.7  34142  289.26 0855.19
2009/04/23 10:03:00.2    -330   -125   -101    354    368 249.2 -20.7  34132  289.11 0855.19
2009/04/23 10:03:00.3    -263   -139    -70    298    307 242.1 -13.3  34138  289.20 0855.19
2009/04/23 10:03:00.4    -233   -101     12    255    256 246.5   2.8  34150  289.41 0855.19
2009/04/23 10:03:00.5     -69   -274     13    283    284 194.2   2.8  34138  289.20 0855.19
2009/04/23 10:03:00.6     -45   -355     45    358    361 187.4   7.2  34142  289.26 0855.19
2009/04/23 10:03:00.7    -123   -378     66    398    404 198.0   9.4  34142  289.28 0855.19
2009/04/23 10:03:00.8    -132   -346     74    371    379 201.0  11.3  34142  289.28 0855.19
2009/04/23 10:03:00.9    -171   -221     44    280    284 217.8   9.0  34146  289.32 0855.19
2009/04/23 10:03:01.0    -188   -194    -49    271    276 224.1 -10.4  34146  289.32 0855.19
2009/04/23 10:03:01.1    -232   -245    -57    338    343 223.5  -9.7  34144  289.30 0855.19
2009/04/23 10:03:01.2    -169   -298    -45    343    347 209.5  -7.6  34142  289.25 0855.19
2009/04/23 10:03:01.3    -134   -174    -21    220    222 217.6  -5.6  34142  289.28 0855.20
2009/04/23 10:03:01.4     -96   -335    -99    349    363 196.1 -15.9  34136  289.16 0855.20
2009/04/23 10:03:01.5    -144   -144   -139    204    246 225.0 -42.0  34142  289.27 0855.20
2009/04/23 10:03:01.6    -123   -219    -88    252    266 209.4 -24.3  34140  289.22 0855.20
2009/04/23 10:03:01.7      40   -204    -43    208    213 168.9 -11.9  34142  289.26 0855.20
2009/04/23 10:03:01.8     -17   -328    131    329    354 183.0  23.0  34142  289.28 0855.20
2009/04/23 10:03:01.9     -90   -375    154    386    415 193.5  23.0  34148  289.36 0855.20
2009/04/23 10:03:02.0     -21   -356    189    357    403 183.4  30.2  34142  289.25 0855.20
2009/04/23 10:03:02.1       9   -288    168    289    334 178.2  32.7  34140  289.24 0855.20
2009/04/23 10:03:02.2      92   -295    160    310    348 162.6  29.4  34142  289.26 0855.20
2009/04/23 10:03:02.3      52   -414     66    418    424 172.8   9.0  34138  289.21 0855.20
2009/04/23 10:03:02.4      52   -424     48    428    431 172.9   6.5  34142  289.26 0855.20
2009/04/23 10:03:02.5      62   -352     72    358    366 169.9  11.4  34136  289.16 0855.20
2009/04/23 10:03:02.6      60   -310     54    316    321 168.9   9.7  34142  289.25 0855.20
2009/04/23 10:03:02.7      42   -303    -40    307    310 172.0  -7.5  34142  289.27 0855.20
2009/04/23 10:03:02.8      81   -343    -51    353    357 166.6  -8.4  34146  289.32 0855.20
2009/04/23 10:03:02.9     150   -271    -82    311    322 151.0 -14.8  34140  289.24 0855.20
2009/04/23 10:03:03.0     124   -286   -111    312    332 156.5 -19.6  34142  289.25 0855.20
2009/04/23 10:03:03.1     102   -263    -92    283    297 158.8 -23.3  34136  289.15 0855.20
2009/04/23 10:03:03.2     103   -192    -37    219    223 151.7  -9.8  34142  289.28 0855.20
2009/04/23 10:03:03.3     119   -188    -65    223    233 147.5 -16.4  34142  289.28 0855.22
2009/04/23 10:03:03.4     104   -287     15    306    307 160.0   2.9  34134  289.14 0855.22
2009/04/23 10:03:03.5      69   -209     51    221    227 161.7  13.2  34136  289.18 0855.22
2009/04/23 10:03:03.6     -16   -262     56    263    270 183.6  12.2  34138  289.19 0855.22
2009/04/23 10:03:03.7    -149   -327     10    360    361 204.5   1.6  34132  289.11 0855.22
2009/04/23 10:03:03.8     -75   -265    -34    276    279 195.8  -7.2  34134  289.14 0855.22
2009/04/23 10:03:03.9    -158   -289    -89    330    343 208.7 -15.2  34130  289.08 0855.22
2009/04/23 10:03:04.0     -60   -197    -10    207    208 196.9  -2.8  34134  289.13 0855.22
2009/04/23 10:03:04.1      93   -197    133    219    256 154.7  34.4  34134  289.14 0855.22
2009/04/23 10:03:04.2     -28   -202    292    205    356 188.0  61.7  34140  289.22 0855.22
2009/04/23 10:03:04.3     -30   -112    246    116    271 195.1  73.1  34146  289.32 0855.22
2009/04/23 10:03:04.4      49     82    191     96    213  31.2  71.4  34148  289.36 0855.22
2009/04/23 10:03:04.5     121     24    182    124    220  78.6  62.6  34146  289.35 0855.22
2009/04/23 10:03:04.6      17     25    164     31    166  34.3  89.8  34150  289.41 0855.22
2009/04/23 10:03:04.7     -91     84     34    125    130 312.7  15.3  34144  289.30 0855.22
2009/04/23 10:03:04.8    -202    153     27    254    256 307.3   6.1  34138  289.19 0855.22
2009/04/23 10:03:04.9    -175    238     77    296    306 323.7  14.6  34136  289.17 0855.22
2009/04/23 10:03:05.0    -110    169     41    202    207 326.8  11.4  34140  289.24 0855.22
2009/04/23 10:03:05.1    -231    164    189    284    341 305.3  36.6  34130  289.07 0855.22
2009/04/23 10:03:05.2    -347     10    129    348    371 271.8  21.1  34136  289.16 0855.22
2009/04/23 10:03:05.3    -277   -120    106    303    322 246.5  19.3  34140  289.24 0855.23
2009/04/23 10:03:05.4    -186   -214    154    284    323 221.0  30.8  34138  289.19 0855.23
2009/04/23 10:03:05.5    -161   -151    143    221    263 226.9  35.7  34142  289.25 0855.23
2009/04/23 10:03:05.6    -202   -146     77    250    262 234.1  17.3  34142  289.25 0855.23
2009/04/23 10:03:05.7    -250    -60     78    258    270 256.5  16.8  34142  289.27 0855.23
2009/04/23 10:03:05.8    -279    124     60    306    312 294.0  11.1  34142  289.25 0855.23
2009/04/23 10:03:05.9    -341     15     87    342    353 272.6  14.3  34138  289.21 0855.23
2009/04/23 10:03:06.0    -394     17     44    395    398 272.5   6.4  34138  289.21 0855.23
2009/04/23 10:03:06.1    -358    -70    130    365    387 258.8  20.2  34140  289.23 0855.23
2009/04/23 10:03:06.2    -357     55    170    362    399 278.8  27.1  34136  289.18 0855.23
2009/04/23 10:03:06.3    -356     48    110    360    377 277.8  17.0  34138  289.20 0855.23
2009/04/23 10:03:06.4    -296    -12    199    297    357 267.5  37.2  34136  289.15 0855.23
2009/04/23 10:03:06.5    -271    -50    158    276    318 259.4  32.4  34140  289.24 0855.23
2009/04/23 10:03:06.6    -324    -71     -6    332    333 257.6  -1.1  34136  289.18 0855.23
2009/04/23 10:03:06.7    -311   -143     49    343    347 245.3   8.2  34142  289.25 0855.23
2009/04/23 10:03:06.8    -365   -232    166    433    463 237.6  22.0  34150  289.39 0855.23
2009/04/23 10:03:06.9    -312   -229    208    388    440 233.7  30.5  34156  289.49 0855.23
2009/04/23 10:03:07.0    -222   -222    243    314    397 225.0  41.6  34144  289.30 0855.23
2009/04/23 10:03:07.1     -88   -212    248    230    338 202.7  52.2  34146  289.34 0855.23
2009/04/23 10:03:07.2    -110   -149    224    186    291 216.3  56.3  34148  289.37 0855.23
2009/04/23 10:03:07.3     -71   -178    230    192    299 201.8  56.3  34152  289.42 0855.24
2009/04/23 10:03:07.4       2   -119    238    120    266 178.6  71.4  34150  289.41 0855.24
2009/04/23 10:03:07.5     -96   -266    283    283    400 200.0  50.1  34148  289.38 0855.24
2009/04/23 10:03:07.6    -182   -359    221    403    459 207.0  31.3  34166  289.66 0855.24
2009/04/23 10:03:07.7    -246   -335    202    416    462 216.3  27.7  34178  289.88 0855.24
2009/04/23 10:03:07.8    -290   -355    172    459    490 219.2  21.5  34186  290.01 0855.24
2009/04/23 10:03:07.9    -341   -282    100    443    455 230.4  12.8  34180  289.90 0855.24
2009/04/23 10:03:08.0    -183   -350    161    395    426 207.6  23.4  34164  289.63 0855.24
2009/04/23 10:03:08.1    -139   -356    156    383    413 201.4  23.2  34150  289.39 0855.24
2009/04/23 10:03:08.2    -120   -420    215    437    487 196.0  28.2  34152  289.42 0855.24
2009/04/23 10:03:08.3    -151   -316     84    351    362 205.6  13.6  34140  289.23 0855.25
2009/04/23 10:03:08.4    -188   -305    136    359    383 211.7  21.7  34142  289.26 0855.25
2009/04/23 10:03:08.5    -203   -336    173    393    429 211.2  25.2  34146  289.34 0855.25
2009/04/23 10:03:08.6     -67   -328    230    335    406 191.6  37.7  34146  289.33 0855.25
2009/04/23 10:03:08.7      28   -433    252    434    501 176.3  32.9  34152  289.42 0855.25
2009/04/23 10:03:08.8      59   -370    271    375    462 170.9  39.5  34150  289.39 0855.25
2009/04/23 10:03:08.9      -1   -402    272    403    486 180.3  37.2  34150  289.41 0855.25
2009/04/23 10:03:09.0     -86   -399    296    409    504 192.3  39.5  34146  289.35 0855.25
2009/04/23 10:03:09.1    -132   -491    204    509    548 195.1  23.0  34150  289.40 0855.25
2009/04/23 10:03:09.2    -226   -481     99    532    542 205.2  10.6  34154  289.48 0855.25
2009/04/23 10:03:09.3    -329   -327     26    465    466 225.2   3.3  34178  289.86 0855.25
2009/04/23 10:03:09.4    -226   -393    218    454    503 209.9  27.3  34146  289.32 0855.25
2009/04/23 10:03:09.5      15   -320    158    321    357 177.3  28.1  34140  289.23 0855.25
2009/04/23 10:03:09.6     -57   -296    160    302    341 190.9  30.2  34136  289.15 0855.25
2009/04/23 10:03:09.7    -125   -243    122    274    299 207.2  25.3  34136  289.15 0855.25
2009/04/23 10:03:09.8     -96   -138    158    169    231 215.0  47.9  34140  289.24 0855.25
2009/04/23 10:03:09.9    -216   -138    203    257    327 237.5  42.4  34132  289.10 0855.25
2009/04/23 10:03:10.0    -223   -231     13    322    323 223.9   2.4  34136  289.17 0855.25
2009/04/23 10:03:10.1    -131   -108     97    170    195 230.5  32.4  34138  289.19 0855.25
2009/04/23 10:03:10.2     -51   -119    127    130    181 203.2  49.4  34140  289.23 0855.25
2009/04/23 10:03:10.3    -206   -217     82    300    312 223.4  15.4  34140  289.22 0855.25
2009/04/23 10:03:10.4     -73   -199    100    213    235 200.3  27.0  34136  289.16 0855.25
2009/04/23 10:03:10.5      15   -166     78    167    184 174.7  27.0  34136  289.16 0855.25
2009/04/23 10:03:10.6     -59   -254    220    261    341 193.1  44.4  34132  289.09 0855.25
2009/04/23 10:03:10.7     -78   -272    184    284    338 196.0  36.0  34138  289.19 0855.25
2009/04/23 10:03:10.8    -100   -328     -7    343    344 197.0  -1.3  34134  289.13 0855.25
2009/04/23 10:03:10.9    -113   -283    108    305    324 201.9  19.5  34134  289.14 0855.25
2009/04/23 10:03:11.0     -33   -423     40    425    428 184.5   5.5  34132  289.11 0855.25
2009/04/23 10:03:11.1     -99   -467    129    478    496 192.0  15.2  34134  289.12 0855.25
2009/04/23 10:03:11.2      80   -412    159    420    449 168.9  21.7  34118  288.85 0855.25
2009/04/23 10:03:11.3     202   -260     58    330    336 142.1  10.0  34130  289.08 0855.25
2009/04/23 10:03:11.4     157   -420     68    449    455 159.4   8.7  34130  289.05 0855.25
2009/04/23 10:03:11.5      77   -394    182    402    441 168.9  26.2  34130  289.05 0855.25
2009/04/23 10:03:11.6     272   -475    139    548    566 150.2  14.3  34118  288.85 0855.25
2009/04/23 10:03:11.7     198   -474    203    515    553 157.3  22.7  34124  288.97 0855.25
2009/04/23 10:03:11.8     170   -475    164    505    532 160.2  18.0  34128  289.02 0855.25
2009/04/23 10:03:11.9     151   -289    199    327    382 152.4  34.2  34132  289.10 0855.25
2009/04/23 10:03:12.0     228   -381    230    445    500 149.1  29.4  34142  289.27 0855.25
2009/04/23 10:03:12.1     271   -403     73    486    492 146.1   8.6  34126  289.01 0855.25
2009/04/23 10:03:12.2     350   -378     80    516    523 137.2   8.9  34128  289.02 0855.25
2009/04/23 10:03:12.3     350   -338    138    487    507 134.0  15.8  34130  289.08 0855.25
2009/04/23 10:03:12.4     228   -345    232    414    474 146.5  31.9  34120  288.90 0855.25
2009/04/23 10:03:12.5     206   -402     91    453    463 152.8  11.4  34128  289.04 0855.25
2009/04/23 10:03:12.6      95   -386     70    398    405 166.1  10.0  34128  289.02 0855.25
2009/04/23 10:03:12.7      74   -364     54    372    376 168.5   8.3  34130  289.06 0855.25
2009/04/23 10:03:12.8      58   -470    -64    474    479 172.9  -7.7  34128  289.03 0855.25
2009/04/23 10:03:12.9      84   -458      2    466    467 169.5   0.4  34132  289.10 0855.25
2009/04/23 10:03:13.0    -174   -312   -104    358    372 209.2 -21.0  34140  289.23 0855.25
2009/04/23 10:03:13.1     -89   -292    -74    306    315 197.0 -13.7  34144  289.29 0855.25
2009/04/23 10:03:13.2     -16   -211   -212    212    299 184.4 -54.5  34138  289.20 0855.25
2009/04/23 10:03:13.3     106    -45   -133    116    176 113.1 -59.0  34148  289.36 0855.25
2009/04/23 10:03:13.4      46    -29    -65     55     85 122.4 -59.8  34140  289.24 0855.25
2009/04/23 10:03:13.5     -99     -9    -92    100    135 264.8 -52.3  34142  289.28 0855.25
2009/04/23 10:03:13.6       0   -277    -65    278    286 180.0 -13.3  34136  289.15 0855.25
2009/04/23 10:03:13.7     -18   -196   -225    197    299 185.3 -58.7  34140  289.24 0855.25
2009/04/23 10:03:13.8    -166    -33   -160    170    233 258.8 -52.6  34142  289.28 0855.25
2009/04/23 10:03:13.9    -127   -142   -267    191    328 221.9 -65.5  34144  289.31 0855.25
2009/04/23 10:03:14.0    -142    -32   -212    146    257 257.2 -66.5  34142  289.28 0855.25
2009/04/23 10:03:14.1    -147     21    -76    149    167 278.4 -33.1  34142  289.28 0855.25
2009/04/23 10:03:14.2    -207    -22    -69    209    220 263.9 -23.8  34138  289.19 0855.25
2009/04/23 10:03:14.3    -176    -92    -95    199    220 242.2 -31.7  34140  289.24 0855.26
2009/04/23 10:03:14.4    -150   -114     23    189    191 232.7   7.1  34142  289.26 0855.26
2009/04/23 10:03:14.5    -158    -59     75    169    184 249.4  25.7  34140  289.24 0855.26
2009/04/23 10:03:14.6    -328    -68     40    336    339 258.2   6.9  34138  289.20 0855.26
2009/04/23 10:03:14.7    -207   -138    148    249    289 236.3  33.5  34138  289.19 0855.26
2009/04/23 10:03:14.8    -100   -183    221    209    304 208.9  52.1  34144  289.29 0855.26
2009/04/23 10:03:14.9    -138   -264    175    298    345 207.6  33.1  34132  289.11 0855.26
2009/04/23 10:03:15.0    -234   -325    196    401    446 215.7  28.0  34132  289.09 0855.26
2009/04/23 10:03:15.1     -99   -337    189    352    399 196.4  30.6  34132  289.11 0855.26
2009/04/23 10:03:15.2     -73   -242     74    254    265 196.9  16.3  34136  289.15 0855.26
2009/04/23 10:03:15.3      33    -73     73     81    109 155.5  47.5  34140  289.23 0855.26
2009/04/23 10:03:15.4      27      0    167     28    169  90.0  90.0  34170  289.75 0855.26
2009/04/23 10:03:15.5     -59    -19    127     63    141 251.8  71.9  34178  289.89 0855.26
2009/04/23 10:03:15.6       0    -42     91     43    100 180.0  72.9  34166  289.69 0855.26
2009/04/23 10:03:15.7     -52    -83    100     98    140 212.1  50.1  34158  289.55 0855.26
2009/04/23 10:03:15.8    -153   -287    136    326    353 208.0  23.9  34136  289.15 0855.26
2009/04/23 10:03:15.9    -216   -307     88    376    387 215.1  13.2  34126  289.01 0855.26
2009/04/23 10:03:16.0     -93   -275     45    291    295 198.7   8.8  34132  289.10 0855.26
2009/04/23 10:03:16.1     -76   -131     17    152    153 210.3   6.5  34130  289.08 0855.26
2009/04/23 10:03:16.2     -43   -188    168    193    255 192.9  45.6  34138  289.20 0855.26
2009/04/23 10:03:16.3     -60   -285     35    292    295 192.0   6.9  34134  289.14 0855.30
2009/04/23 10:03:16.4    -176   -168    -58    244    251 226.2 -13.4  34132  289.09 0855.30
2009/04/23 10:03:16.5    -189   -288    -16    345    346 213.3  -2.8  34132  289.11 0855.30
2009/04/23 10:03:16.6     -29   -202    219    205    299 188.2  52.1  34144  289.29 0855.30
2009/04/23 10:03:16.7     -95   -102     49    140    149 222.8  19.4  34132  289.11 0855.30
2009/04/23 10:03:16.8     -72    -68      1    100    101 226.9   0.8  34132  289.09 0855.30
2009/04/23 10:03:16.9     -47     35     61     59     84 306.9  50.1  34140  289.24 0855.30
2009/04/23 10:03:17.0     -30    108    117    113    162 344.4  50.9  34156  289.52 0855.30
2009/04/23 10:03:17.1     -73     26    156     78    174 290.0  71.7  34152  289.43 0855.30
2009/04/23 10:03:17.2    -145     -6    132    146    196 267.5  46.9  34152  289.43 0855.30
2009/04/23 10:03:17.3      97   -250     87    269    283 158.8  17.9  34142  289.25 0855.30
2009/04/23 10:03:17.4     -56   -322     24    327    328 189.9   4.2  34126  289.00 0855.30
2009/04/23 10:03:17.5     -83   -245     64    259    267 198.7  13.9  34132  289.09 0855.30
2009/04/23 10:03:17.6     -81   -196     59    213    222 202.5  15.6  34132  289.09 0855.30
2009/04/23 10:03:17.7     -36   -253     91    256    272 188.2  19.6  34124  288.97 0855.30
2009/04/23 10:03:17.8     -85   -374    158    384    415 192.9  23.7  34126  289.00 0855.30
2009/04/23 10:03:17.9      33   -187    169    191    255 169.8  46.2  34128  289.03 0855.30
2009/04/23 10:03:18.0     133    -68    189    150    241 117.1  57.5  34136  289.16 0855.30
2009/04/23 10:03:18.1     236   -171    205    292    356 125.9  38.5  34138  289.20 0855.30
2009/04/23 10:03:18.2     256   -237    197    350    401 132.8  31.9  34130  289.06 0855.30
2009/04/23 10:03:18.3     198   -286    136    348    373 145.3  22.7  34124  288.96 0855.30
2009/04/23 10:03:18.4     208   -276     73    346    354 143.0  12.0  34126  289.01 0855.30
2009/04/23 10:03:18.5     151   -316    117    351    371 154.5  18.5  34126  289.01 0855.30
2009/04/23 10:03:18.6     193   -267     73    330    339 144.2  12.6  34126  289.01 0855.30
2009/04/23 10:03:18.7     249   -245     68    350    357 134.6  11.1  34122  288.93 0855.30
2009/04/23 10:03:18.8     294   -239     43    379    382 129.1   6.5  34120  288.91 0855.30
2009/04/23 10:03:18.9      23   -226     42    228    232 174.2  10.6  34122  288.94 0855.30
2009/04/23 10:03:19.0     -23   -219    102    221    243 186.2  26.4  34134  289.12 0855.30
2009/04/23 10:03:19.1       3   -226    109    227    251 179.1  27.3  34130  289.07 0855.30
2009/04/23 10:03:19.2      65   -284     90    292    306 167.1  17.3  34130  289.05 0855.30
2009/04/23 10:03:19.3      79   -232     88    246    261 161.1  20.2  34130  289.05 0855.30
2009/04/23 10:03:19.4      77   -280    168    291    336 164.6  32.6  34128  289.02 0855.30
2009/04/23 10:03:19.5     170   -276    155    325    360 148.4  27.3  34134  289.13 0855.30
2009/04/23 10:03:19.6     -77   -173    107    190    218 204.1  31.6  34122  288.92 0855.30
2009/04/23 10:03:19.7     -14    -15    -26     21     33 223.2 -60.8  34126  288.99 0855.30
2009/04/23 10:03:19.8      90     14     20     92     95  80.8  12.6  34128  289.02 0855.30
2009/04/23 10:03:19.9      36    152    -81    157    176  13.3 -33.7  34128  289.02 0855.30
2009/04/23 10:03:20.0     -21    184   -110    186    216 353.3 -37.9  34130  289.08 0855.30
2009/04/23 10:03:20.1      60    182    -72    192    205  18.5 -25.4  34136  289.18 0855.30
2009/04/23 10:03:20.2      83     19     19     86     89  77.2  12.6  34140  289.24 0855.30
2009/04/23 10:03:20.3     -63    -55     55     84    100 228.7  36.0  34148  289.36 0855.30
2009/04/23 10:03:20.4    -143    -54     -6    153    154 249.2  -2.2  34136  289.18 0855.30
2009/04/23 10:03:20.5    -102    139    -21    173    175 323.7  -7.2  34146  289.33 0855.30
2009/04/23 10:03:20.6      44     90      0    101    102  25.9   0.2  34136  289.16 0855.30
2009/04/23 10:03:20.7     178     -9    120    179    215  93.0  37.0  34132  289.11 0855.30
2009/04/23 10:03:20.8     180    -39    265    185    323 102.4  61.7  34136  289.15 0855.30
2009/04/23 10:03:21.0     102      0    164    103    193  90.0  64.7  34142  289.26 0855.30
2009/04/23 10:03:21.0      63    -52    245     82    258 129.5  81.0  34146  289.33 0855.30
2009/04/23 10:03:21.1     -20     15    125     26    127 307.8  89.0  34156  289.50 0855.30
2009/04/23 10:03:21.2     -58     -9    147     59    158 261.2  77.1  34154  289.48 0855.30
2009/04/23 10:03:21.4     -40    -74     63     85    105 208.1  40.1  34140  289.23 0855.30
2009/04/23 10:03:21.5     -88    -41    165     98    191 244.7  66.4  34150  289.41 0855.30
2009/04/23 10:03:21.6     -74     54    100     92    135 306.0  52.2  34150  289.40 0855.30
2009/04/23 10:03:21.7    -306     -6    -27    307    309 268.7  -5.1  34158  289.54 0855.30
2009/04/23 10:03:21.8    -319    -83   -119    330    350 255.4 -24.8  34154  289.48 0855.30
2009/04/23 10:03:21.9    -168   -106     74    199    212 237.8  21.0  34152  289.45 0855.30
2009/04/23 10:03:22.0     112    -92   -107    146    181 129.5 -44.1  34150  289.41 0855.30
2009/04/23 10:03:22.1      87   -102   -110    135    174 139.5 -47.9  34150  289.41 0855.30
2009/04/23 10:03:22.2     194   -124    -34    231    234 122.5  -8.6  34152  289.44 0855.30
2009/04/23 10:03:22.3     172   -172     27    244    246 135.0   6.5  34142  289.25 0855.30
2009/04/23 10:03:22.4      82   -259     96    272    289 162.4  19.6  34132  289.10 0855.31
2009/04/23 10:03:22.5      31   -220      1    223    224 172.0   0.5  34134  289.13 0855.31
2009/04/23 10:03:22.6     157   -166     49    229    235 136.7  12.2  34132  289.10 0855.31
2009/04/23 10:03:22.7      60   -180      9    190    191 161.5   2.8  34130  289.06 0855.31
2009/04/23 10:03:22.8     130   -380    261    402    479 161.1  36.0  34130  289.05 0855.31
2009/04/23 10:03:22.9     118   -520    287    534    606 167.2  30.6  34130  289.07 0855.31
2009/04/23 10:03:23.0     328   -669    181    746    768 153.9  13.7  34136  289.16 0855.31
2009/04/23 10:03:23.1     204   -590    169    625    648 160.9  15.2  34136  289.15 0855.31
2009/04/23 10:03:23.2     146   -452    -94    475    485 162.1 -11.2  34126  289.01 0855.31
2009/04/23 10:03:23.3     165   -246   -106    297    316 146.2 -19.7  34134  289.12 0855.31
2009/04/23 10:03:23.4     140   -129    -64    191    201 132.7 -23.6  34130  289.08 0855.31
2009/04/23 10:03:23.5      13    -90     54     92    106 171.5  33.5  34130  289.06 0855.31
2009/04/23 10:03:23.6    -176   -213    107    277    296 219.7  22.3  34134  289.14 0855.31
2009/04/23 10:03:23.7    -154   -271    109    312    331 209.6  19.4  34132  289.09 0855.31
2009/04/23 10:03:23.8     102   -303    242    320    401 161.3  40.9  34136  289.16 0855.31
2009/04/23 10:03:23.9      16   -270    198    271    335 176.6  39.7  34136  289.15 0855.31
2009/04/23 10:03:24.0     150   -181    133    236    270 140.4  31.9  34140  289.24 0855.31
2009/04/23 10:03:24.1      15   -177     82    178    195 174.9  26.4  34132  289.11 0855.31
2009/04/23 10:03:24.2     -36    -84    -30     92     96 203.6 -23.8  34132  289.11 0855.31
2009/04/23 10:03:24.3     -50    -44    -73     67     99 228.7 -56.6  34132  289.11 0855.31
2009/04/23 10:03:24.4      -7     94    -55     95    109 355.5 -37.3  34132  289.09 0855.30
2009/04/23 10:03:24.5     131     72    115    150    189  61.1  41.4  34138  289.21 0855.30
2009/04/23 10:03:24.6      65     56    128     86    154  49.1  63.2  34142  289.28 0855.30
2009/04/23 10:03:24.7     -26     35     56     44     71 323.0  56.4  34150  289.40 0855.30
2009/04/23 10:03:24.8     -26    -16    113     31    117 237.6  84.4  34154  289.46 0855.30
2009/04/23 10:03:24.9     -86   -109    135    139    193 218.3  49.4  34140  289.23 0855.30
2009/04/23 10:03:25.0    -161   -237     69    287    296 214.2  13.5  34128  289.02 0855.30
2009/04/23 10:03:25.1    -133   -180     29    225    227 216.5   7.5  34124  288.97 0855.30
2009/04/23 10:03:25.2    -165   -175    -70    241    250 223.3 -21.0  34128  289.02 0855.30
2009/04/23 10:03:25.3     -75   -159    145    176    228 205.4  43.7  34128  289.02 0855.30
2009/04/23 10:03:25.4    -160    -54    211    170    270 251.2  56.9  34132  289.09 0855.30
2009/04/23 10:03:25.5    -443   -247    122    508    523 240.8  13.6  34134  289.13 0855.30
2009/04/23 10:03:25.6    -542   -732   -182    911    930 216.5 -11.3  34078  288.19 0855.30
2009/04/23 10:03:25.7    -801   -377   -273    886    927 244.8 -22.1  34098  288.53 0855.30
2009/04/23 10:03:25.8    -735   -503   -266    891    930 235.6 -16.6  34100  288.55 0855.30
2009/04/23 10:03:25.9    -512   -565    106    763    771 222.2   7.9  34122  288.92 0855.30
2009/04/23 10:03:26.0    -692   -435   -156    818    833 237.9 -10.8  34096  288.50 0855.30
2009/04/23 10:03:26.1    -416   -528    156    673    691 218.2  13.1  34118  288.85 0855.30
2009/04/23 10:03:26.2    -439   -351     87    563    570 231.4   8.8  34116  288.84 0855.30
2009/04/23 10:03:26.3    -367   -264    102    453    465 234.3  12.8  34084  288.29 0855.30
2009/04/23 10:03:26.4    -330   -381    276    505    575 220.9  31.3  34116  288.82 0855.29
2009/04/23 10:03:26.5    -327   -593    255    678    724 208.9  21.7  34114  288.78 0855.29
2009/04/23 10:03:26.6    -454   -435   -148    629    647 226.2 -13.3  34096  288.49 0855.29
2009/04/23 10:03:26.7    -468   -292   -155    552    573 238.0 -20.3  34088  288.36 0855.29
2009/04/23 10:03:26.8    -651   -233   -163    692    711 250.3 -13.3  34098  288.52 0855.29
2009/04/23 10:03:26.9    -715   -408   -277    824    870 240.3 -18.6  34104  288.61 0855.29
2009/04/23 10:03:27.0    -712   -631   -187    952    971 228.5 -11.1  34096  288.50 0855.29
2009/04/23 10:03:27.1    -517   -486     -7    710    711 226.8  -0.6  34078  288.18 0855.29
2009/04/23 10:03:27.2    -626   -119   -179    638    663 259.2 -15.7  34100  288.54 0855.29
2009/04/23 10:03:27.3    -545   -307    -19    626    627 240.6  -1.8  34102  288.59 0855.29
2009/04/23 10:03:27.4    -749    -83     10    754    755 263.6   0.8  34090  288.40 0855.29
2009/04/23 10:03:27.5    -712   -133   -186    725    749 259.4 -14.4  34108  288.70 0855.29
2009/04/23 10:03:27.6    -833   -163   -258    850    889 258.9 -16.9  34098  288.52 0855.29
2009/04/23 10:03:27.7    -734   -216   -246    766    804 253.6 -22.9  34108  288.68 0855.29
2009/04/23 10:03:27.8    -722   -296   -182    781    803 247.7 -13.2  34090  288.39 0855.29
2009/04/23 10:03:27.9    -690   -269   -217    741    772 248.7 -21.2  34106  288.65 0855.29
2009/04/23 10:03:28.0    -658   -317   -263    731    777 244.2 -19.8  34098  288.52 0855.29
2009/04/23 10:03:28.1    -542   -304   -323    622    700 240.7 -34.0  34106  288.66 0855.29
2009/04/23 10:03:28.2    -459   -123   -190    476    512 255.0 -27.4  34110  288.74 0855.29
2009/04/23 10:03:28.3    -180    -85    -59    200    209 244.6 -16.6  34126  289.01 0855.29
2009/04/23 10:03:28.4       4     54   -156     55    165   4.5 -84.9  34120  288.89 0855.28
2009/04/23 10:03:28.5      15      1    -57     16     59  85.7 -89.2  34124  288.96 0855.28
2009/04/23 10:03:28.6      -8     26    -20     28     34 341.7 -42.0  34124  288.97 0855.28
2009/04/23 10:03:28.7     -77    161    -82    179    196 334.4 -30.6  34120  288.91 0855.28
2009/04/23 10:03:28.8    -130   -147    173    197    262 221.4  45.9  34118  288.87 0855.28
2009/04/23 10:03:28.9      47     22   -114     52    125  64.8 -78.4  34122  288.94 0855.28
2009/04/23 10:03:29.0       1    -35    -15     36     39 177.3 -25.4  34124  288.96 0855.28
2009/04/23 10:03:29.1     -88    -58    -80    106    132 236.3 -46.0  34120  288.91 0855.28
2009/04/23 10:03:29.2    -561   -187   -257    592    645 251.6 -29.3  34110  288.72 0855.28
2009/04/23 10:03:29.3    -420   -459   -412    623    746 222.4 -41.0  34104  288.64 0855.28
2009/04/23 10:03:29.4    -431   -530   -185    684    709 219.1 -15.2  34106  288.67 0855.26
2009/04/23 10:03:29.5    -280   -441   -302    523    603 212.5 -37.0  34104  288.61 0855.26
2009/04/23 10:03:29.6    -132   -578   -235    593    637 192.9 -27.3  34116  288.82 0855.26
2009/04/23 10:03:29.7    -136   -652   -182    667    692 191.8 -15.3  34122  288.92 0855.26
2009/04/23 10:03:29.8    -129   -644   -225    657    695 191.4 -19.0  34112  288.77 0855.26
2009/04/23 10:03:29.9    -230   -614   -200    656    687 200.6 -17.0  34114  288.78 0855.26
2009/04/23 10:03:30.0    -112   -461   -359    475    595 193.7 -45.3  34104  288.62 0855.26
2009/04/23 10:03:30.1    -181   -428   -180    465    498 202.9 -26.7  34116  288.84 0855.26
2009/04/23 10:03:30.2    -183   -181   -252    258    360 225.3 -54.1  34126  288.99 0855.26
2009/04/23 10:03:30.3    -168   -247   -162    299    340 214.3 -35.3  34130  289.07 0855.26
2009/04/23 10:03:30.4     -71   -362     -1    370    371 191.2  -0.3  34134  289.13 0855.26
2009/04/23 10:03:30.5      60   -240     -9    248    249 166.0  -2.2  34128  289.02 0855.26
2009/04/23 10:03:30.6     221    -89    115    239    265 112.0  27.3  34124  288.95 0855.26
2009/04/23 10:03:30.7      51    -31    227     60    234 121.5  85.4  34128  289.04 0855.26
2009/04/23 10:03:30.8    -109     -3    126    110    167 268.3  54.6  34126  289.01 0855.26
2009/04/23 10:03:30.9    -161    -99     18    190    191 238.5   5.7  34128  289.02 0855.26
2009/04/23 10:03:31.0     -96    169    -78    195    210 330.4 -27.4  34128  289.04 0855.26
2009/04/23 10:03:31.1     -27    347   -100    349    363 355.5 -20.7  34116  288.82 0855.26
2009/04/23 10:03:31.2     165    260    -92    309    323  32.5 -16.7  34122  288.93 0855.26
2009/04/23 10:03:31.3      49    239     11    245    246  11.6   2.8  34116  288.83 0855.26
2009/04/23 10:03:31.4     162     81     77    182    197  63.4  24.3  34116  288.84 0855.25
2009/04/23 10:03:31.5     144     55    275    155    315  69.2  68.2  34124  288.95 0855.25
2009/04/23 10:03:31.6     -52    -13    148     54    157 255.8  79.2  34138  289.21 0855.25
2009/04/23 10:03:31.7    -159   -150    232    219    319 226.7  51.9  34128  289.02 0855.25
2009/04/23 10:03:31.8    -132   -349    255    374    452 200.8  37.6  34118  288.87 0855.25
2009/04/23 10:03:31.9    -334   -260    201    424    469 232.2  27.1  34124  288.95 0855.25
2009/04/23 10:03:32.0     218      8    255    219    336  87.9  55.0  34128  289.02 0855.25
2009/04/23 10:03:32.1     205    -41    288    210    356 101.5  60.5  34130  289.05 0855.25
2009/04/23 10:03:32.2      52    110    228    122    258  25.3  69.6  34118  288.86 0855.25
2009/04/23 10:03:32.3     -96    123    157    157    222 322.2  50.1  34120  288.91 0855.25
2009/04/23 10:03:32.4    -429      0    112    430    445 270.0  14.7  34122  288.94 0855.25
2009/04/23 10:03:32.5    -476    167    232    505    555 289.4  26.3  34120  288.91 0855.25
2009/04/23 10:03:32.6    -250   -345    364    427    561 216.0  44.8  34120  288.89 0855.25
2009/04/23 10:03:32.7     -67   -370    436    377    576 190.3  54.9  34126  289.00 0855.25
2009/04/23 10:03:32.8     -31   -133    333    137    360 193.3  76.6  34142  289.25 0855.25
2009/04/23 10:03:32.9      25    -95    269     99    286 165.3  79.1  34148  289.36 0855.25
2009/04/23 10:03:33.0     -80   -152    219    173    279 207.9  57.7  34144  289.29 0855.25
2009/04/23 10:03:33.1    -191    190    148    270    307 314.9  31.3  34130  289.07 0855.25
2009/04/23 10:03:33.2    -119     97     58    154    164 309.1  21.3  34138  289.19 0855.25
2009/04/23 10:03:33.3    -178      0     74    179    193 270.1  23.4  34128  289.04 0855.25
2009/04/23 10:03:33.4    -190    -32     -3    193    194 260.3  -1.1  34130  289.06 0855.22
2009/04/23 10:03:33.5    -192    -14     30    193    196 265.7   9.0  34126  288.99 0855.22
2009/04/23 10:03:33.6    -290    -36      2    293    294 262.9   0.5  34128  289.03 0855.22
2009/04/23 10:03:33.7    -381     -8    -68    382    389 268.8 -10.1  34120  288.91 0855.22
2009/04/23 10:03:33.8    -380   -119    -41    399    402 252.6  -6.0  34122  288.94 0855.22
2009/04/23 10:03:33.9    -444   -272    -86    521    529 238.5  -9.4  34130  289.07 0855.22
2009/04/23 10:03:34.0    -535   -339    -95    634    642 237.6  -8.6  34126  288.99 0855.22
2009/04/23 10:03:34.1    -540   -245   -204    594    629 245.6 -19.0  34136  289.18 0855.22
2009/04/23 10:03:34.2    -456   -298   -183    546    577 236.8 -18.6  34124  288.97 0855.22
2009/04/23 10:03:34.3    -426   -290   -157    516    540 235.8 -17.0  34130  289.06 0855.22
2009/04/23 10:03:34.4    -452   -182   -150    488    510 248.1 -21.9  34130  289.06 0855.22
2009/04/23 10:03:34.5    -441   -215   -174    491    521 244.0 -19.5  34128  289.03 0855.22
2009/04/23 10:03:34.6    -388   -185   -185    430    468 244.5 -29.0  34132  289.09 0855.22
2009/04/23 10:03:34.7    -432   -188   -175    472    503 246.5 -25.8  34146  289.32 0855.22
2009/04/23 10:03:34.8    -496   -143   -145    517    537 253.9 -15.7  34150  289.40 0855.22
2009/04/23 10:03:34.9    -278    -92    -87    293    306 251.6 -16.5  34140  289.24 0855.22
2009/04/23 10:03:35.0    -245   -102    -14    266    267 247.3  -3.2  34150  289.39 0855.22
2009/04/23 10:03:35.1    -182   -371    -53    414    418 206.1  -7.3  34142  289.26 0855.22
2009/04/23 10:03:35.2    -315   -490    -97    583    592 212.8  -9.5  34142  289.27 0855.22
2009/04/23 10:03:35.3    -213   -507    -45    551    553 202.8  -4.7  34140  289.23 0855.22
2009/04/23 10:03:35.4    -153   -460    -65    486    491 198.5  -7.7  34130  289.08 0855.21
2009/04/23 10:03:35.5    -151   -212     12    261    262 215.6   2.8  34134  289.14 0855.21
2009/04/23 10:03:35.6    -306   -223     36    379    381 233.9   5.5  34136  289.18 0855.21
2009/04/23 10:03:35.7    -404   -225   -140    463    483 240.9 -21.7  34142  289.28 0855.21
2009/04/23 10:03:35.8    -860   -376   -322    939    993 246.4 -19.0  34134  289.13 0855.21
2009/04/23 10:03:35.9    -706   -403    -55    813    815 240.3  -3.9  34132  289.11 0855.21
2009/04/23 10:03:36.0    -643   -351    -65    733    737 241.4  -5.1  34134  289.14 0855.21
2009/04/23 10:03:36.1    -644   -398     -2    758    759 238.3  -0.2  34126  289.01 0855.21
2009/04/23 10:03:36.2    -560   -280     -7    627    628 243.4  -0.7  34138  289.20 0855.21
2009/04/23 10:03:36.3    -381   -357    188    523    555 226.9  20.6  34144  289.29 0855.21
2009/04/23 10:03:36.4    -537   -162    -21    561    562 253.2  -2.2  34146  289.35 0855.21
2009/04/23 10:03:36.5    -396   -157   -111    427    442 248.3 -14.6  34136  289.17 0855.21
2009/04/23 10:03:36.6    -200   -393    -61    442    447 207.0  -7.9  34138  289.19 0855.21
2009/04/23 10:03:36.7    -104   -649    -61    658    662 189.1  -5.3  34130  289.05 0855.21
2009/04/23 10:03:36.8    -168   -543    -75    569    574 197.2  -7.6  34128  289.03 0855.21
2009/04/23 10:03:36.9    -252   -474    105    537    548 208.0  11.1  34134  289.14 0855.21
2009/04/23 10:03:37.0    -184   -592     50    620    623 197.3   4.7  34132  289.11 0855.21
2009/04/23 10:03:37.1    -103   -503    100    514    524 191.6  11.1  34128  289.04 0855.21
2009/04/23 10:03:37.2     -29   -446    143    447    470 183.7  17.8  34126  289.00 0855.21
2009/04/23 10:03:37.3    -149   -489     85    512    520 197.0   9.4  34130  289.05 0855.21
2009/04/23 10:03:37.4     -46   -300     74    304    313 188.9  13.7  34132  289.09 0855.20
2009/04/23 10:03:37.5     -13   -200    -71    201    213 183.8 -24.4  34130  289.08 0855.20
2009/04/23 10:03:37.6      88   -203   -109    222    247 156.4 -32.6  34136  289.15 0855.20
2009/04/23 10:03:37.7      94   -394    -19    406    407 166.6  -2.7  34128  289.04 0855.20
2009/04/23 10:03:37.8      13   -298    -49    299    304 177.5  -9.3  34136  289.17 0855.20
2009/04/23 10:03:37.9    -123   -312     19    336    337 201.6   3.3  34134  289.13 0855.20
2009/04/23 10:03:38.0    -109   -231   -115    256    280 205.3 -30.1  34132  289.10 0855.20
2009/04/23 10:03:38.1     -44   -179   -155    185    241 193.8 -48.9  34132  289.11 0855.20
2009/04/23 10:03:38.2     -25   -270   -127    272    300 185.3 -31.5  34128  289.03 0855.20
2009/04/23 10:03:38.3     -23   -457   -166    458    487 182.9 -25.2  34130  289.08 0855.20
2009/04/23 10:03:38.4       1   -497    -41    498    500 179.8  -4.8  34130  289.05 0855.20
2009/04/23 10:03:38.5      24   -544     22    545    546 177.4   2.3  34134  289.14 0855.20
2009/04/23 10:03:38.6     143   -428    -61    452    457 161.4  -7.7  34132  289.09 0855.20
2009/04/23 10:03:38.7     146   -364     39    393    396 158.1   5.8  34134  289.13 0855.20
2009/04/23 10:03:38.8     207   -299    -10    365    366 145.3  -1.7  34132  289.10 0855.20
2009/04/23 10:03:38.9     206   -152    140    257    292 126.4  31.3  34136  289.15 0855.20
2009/04/23 10:03:39.1     167   -205    108    265    286 140.8  23.4  34138  289.19 0855.20
2009/04/23 10:03:39.2     128   -167    119    211    242 142.4  32.1  34134  289.13 0855.20
2009/04/23 10:03:39.2     130   -259    199    291    352 153.3  37.7  34138  289.20 0855.20
2009/04/23 10:03:39.3      53   -232    211    238    318 167.1  46.3  34140  289.24 0855.20
2009/04/23 10:03:39.4      18   -231    150    232    276 175.5  36.0  34138  289.19 0855.20
2009/04/23 10:03:39.5      -5   -286     88    287    301 181.1  17.1  34138  289.20 0855.20
2009/04/23 10:03:39.6      44   -260     12    264    265 170.4   2.8  34136  289.17 0855.20
2009/04/23 10:03:39.7      43   -150    -26    157    160 164.0  -9.6  34136  289.18 0855.20
2009/04/23 10:03:39.8      14   -122      8    123    124 173.3   3.8  34134  289.13 0855.20
2009/04/23 10:03:39.9      -2   -204    106    205    230 180.7  29.3  34130  289.08 0855.20
2009/04/23 10:03:40.0     -11   -176    164    177    241 183.8  47.9  34138  289.21 0855.20
2009/04/23 10:03:40.1      27   -122    138    125    186 167.5  53.3  34140  289.24 0855.20
2009/04/23 10:03:40.2     -51   -229    160    235    284 192.7  37.4  34138  289.19 0855.20
2009/04/23 10:03:40.3     -53   -285    210    290    358 190.6  39.5  34134  289.13 0855.20
2009/04/23 10:03:40.4     -26   -191     79    193    208 188.0  23.4  34130  289.06 0855.20
2009/04/23 10:03:40.5      68   -134    145    151    209 152.9  49.2  34132  289.11 0855.20
2009/04/23 10:03:40.6      49   -284    135    289    318 170.2  26.9  34138  289.20 0855.20
2009/04/23 10:03:40.7     -60   -312    245    318    401 190.9  41.6  34130  289.06 0855.20
2009/04/23 10:03:40.8    -102   -344    188    359    405 196.5  29.8  34128  289.04 0855.20
2009/04/23 10:03:40.9    -100   -300    154    317    352 198.5  27.8  34114  288.79 0855.20
2009/04/23 10:03:41.0    -210    -70     64    222    232 251.4  16.0  34122  288.92 0855.20
2009/04/23 10:03:41.1     -92    -86    -23    127    130 226.9 -10.3  34130  289.06 0855.20
2009/04/23 10:03:41.2      42     11    -28     44     52  74.9 -39.9  34128  289.04 0855.20
2009/04/23 10:03:41.3     -37     58     76     69    102 327.4  52.7  34130  289.06 0855.20
2009/04/23 10:03:41.4    -319    -73    161    328    365 257.1  27.9  34154  289.48 0855.21
2009/04/23 10:03:41.5    -437     60    135    442    463 277.9  17.0  34158  289.53 0855.21
2009/04/23 10:03:41.6    -315   -199    203    373    424 237.8  31.0  34146  289.33 0855.21
2009/04/23 10:03:41.7     -63   -243    265    252    365 194.5  51.6  34138  289.21 0855.21
2009/04/23 10:03:41.8    -430   -280   -153    514    537 236.9 -16.6  34104  288.62 0855.21
2009/04/23 10:03:41.9    -463   -236   -139    520    539 243.0 -15.0  34104  288.63 0855.21
2009/04/23 10:03:42.0    -473   -108    -83    486    494 257.1  -9.7  34124  288.96 0855.21
2009/04/23 10:03:42.1    -450   -223    -54    503    507 243.6  -6.2  34110  288.73 0855.21
2009/04/23 10:03:42.2    -501    -89   -164    509    535 259.9 -17.9  34108  288.69 0855.21
2009/04/23 10:03:42.3    -562    -71    -93    567    575 262.8  -9.3  34110  288.73 0855.21
2009/04/23 10:03:42.4    -455     46   -131    458    476 275.8 -20.7  34120  288.91 0855.21
2009/04/23 10:03:42.5    -483    105   -423    495    651 282.3 -49.3  34116  288.83 0855.21
2009/04/23 10:03:42.6    -647    289   -146    709    725 294.1 -11.7  34136  289.15 0855.21
2009/04/23 10:03:42.7    -634    128   -304    647    714 281.5 -31.5  34098  288.53 0855.21
2009/04/23 10:03:42.8    -428    230   -283    487    563 298.3 -37.3  34100  288.57 0855.21
2009/04/23 10:03:42.9    -498    -83   -157    505    529 260.5 -17.3  34134  289.13 0855.21
2009/04/23 10:03:43.0    -372    -39   -184    375    417 263.9 -32.5  34122  288.92 0855.21
2009/04/23 10:03:43.1    -470    117   -395    485    625 284.1 -47.7  34108  288.68 0855.21
2009/04/23 10:03:43.2    -502    -85   -151    510    531 260.4 -21.4  34122  288.94 0855.21
2009/04/23 10:03:43.3    -360    327   -195    487    524 312.2 -27.4  34120  288.91 0855.21
2009/04/23 10:03:43.4    -364    -60   -240    370    441 260.5 -40.4  34118  288.87 0855.22
2009/04/23 10:03:43.5    -258    -13    -92    259    276 267.0 -19.7  34126  289.00 0855.22
2009/04/23 10:03:43.6     -95     95   -174    135    220 315.0 -62.9  34116  288.82 0855.22
2009/04/23 10:03:43.7     -91    131    -85    160    181 325.3 -34.7  34118  288.87 0855.22
2009/04/23 10:03:43.8      19    291     24    292    294   3.8   4.9  34114  288.80 0855.22
2009/04/23 10:03:43.9     -82    198     26    215    217 337.5   7.1  34124  288.97 0855.22
2009/04/23 10:03:44.0     108    165     19    198    199  33.4   5.7  34120  288.89 0855.22
2009/04/23 10:03:44.1     -80     83      9    116    117 316.3   4.9  34126  289.01 0855.22
2009/04/23 10:03:44.2     -17   -115    -51    117    127 188.5 -29.5  34128  289.04 0855.22
2009/04/23 10:03:44.3     -82   -333   -100    344    359 193.9 -16.2  34120  288.91 0855.22
2009/04/23 10:03:44.4     142   -256   -140    293    324 151.0 -31.7  34128  289.02 0855.22
2009/04/23 10:03:44.5      62   -305    -37    312    315 168.5  -6.9  34128  289.03 0855.22
2009/04/23 10:03:44.6     132   -291    -98    320    334 155.5 -22.1  34126  288.99 0855.22
2009/04/23 10:03:44.7     160   -241    139    290    321 146.4  27.3  34116  288.83 0855.22
2009/04/23 10:03:44.8      89     -2    137     90    163  91.7  63.9  34120  288.91 0855.22
2009/04/23 10:03:44.9     171     61    159    182    241  70.3  45.8  34126  289.01 0855.22
2009/04/23 10:03:45.0     183   -116    230    217    316 122.4  52.0  34126  288.98 0855.22
2009/04/23 10:03:45.1     208     12    149    209    256  86.5  39.1  34122  288.93 0855.22
2009/04/23 10:03:45.2      74   -124    115    145    185 149.3  43.0  34130  289.08 0855.22
2009/04/23 10:03:45.3      81    176   -188    194    270  24.7 -53.6  34120  288.88 0855.22
2009/04/23 10:03:45.4     334    200   -147    390    416  59.1 -26.1  34118  288.87 0855.23
2009/04/23 10:03:45.5     269    197   -126    334    356  53.8 -26.0  34118  288.86 0855.23
2009/04/23 10:03:45.6     163    271   -130    317    342  31.0 -27.9  34120  288.91 0855.23
2009/04/23 10:03:45.7     132   -145      0    197    198 137.7   0.0  34124  288.96 0855.23
2009/04/23 10:03:45.8      93   -156    -42    182    187 149.3 -13.2  34128  289.04 0855.23
2009/04/23 10:03:45.9     168     92    -16    192    193  61.1  -4.9  34136  289.18 0855.23
2009/04/23 10:03:46.0     396    278     37    484    486  54.9   4.4  34134  289.12 0855.23
2009/04/23 10:03:46.1     441     37     81    443    451  85.1  10.4  34122  288.92 0855.23
2009/04/23 10:03:46.2     290   -115    170    313    356 111.7  30.9  34162  289.59 0855.23
2009/04/23 10:03:46.3     295   -128    101    322    338 113.5  17.5  34136  289.18 0855.23
2009/04/23 10:03:46.4     127    -17    218    129    253  97.9  66.7  34146  289.35 0855.23
2009/04/23 10:03:46.5      64   -331    191    338    388 169.0  31.9  34132  289.11 0855.23
2009/04/23 10:03:46.6     207    -99    200    230    304 115.8  45.6  34132  289.10 0855.23
2009/04/23 10:03:46.7     232    -86     89    248    263 110.4  20.2  34136  289.17 0855.23
2009/04/23 10:03:46.8     307     -4    148    308    341  90.8  27.3  34154  289.48 0855.23
2009/04/23 10:03:46.9     284      0     14    285    286  90.0   2.9  34136  289.15 0855.23
2009/04/23 10:03:47.1     362      5     34    363    365  89.2   5.4  34122  288.94 0855.23
2009/04/23 10:03:47.2      86   -134     90    160    183 147.4  31.9  34116  288.84 0855.23
2009/04/23 10:03:47.3     146   -222    148    266    304 146.6  31.4  34130  289.05 0855.23
2009/04/23 10:03:47.3     -29   -371    214    373    430 184.6  32.4  34120  288.90 0855.23
2009/04/23 10:03:47.4    -120   -278    184    303    354 203.4  34.1  34128  289.04 0855.26
2009/04/23 10:03:47.5    -163   -220    155    275    315 216.5  32.0  34130  289.07 0855.26
2009/04/23 10:03:47.7    -156   -275    148    317    349 209.6  27.0  34124  288.96 0855.26
2009/04/23 10:03:47.8     -20   -432    152    433    460 182.7  19.4  34122  288.92 0855.26
2009/04/23 10:03:47.9     -99   -400     81    413    421 194.0  11.1  34124  288.95 0855.26
2009/04/23 10:03:48.0    -192   -305     41    361    364 212.2   6.5  34126  288.98 0855.26
2009/04/23 10:03:48.1     -89   -328    172    341    381 195.3  28.7  34126  288.98 0855.26
2009/04/23 10:03:48.2     -83   -305    140    317    346 195.2  25.3  34126  288.98 0855.26
2009/04/23 10:03:48.3    -111   -235    206    261    332 205.3  42.3  34122  288.93 0855.26
2009/04/23 10:03:48.4    -144   -302    208    335    394 205.6  34.8  34126  288.98 0855.26
2009/04/23 10:03:48.5    -308   -423    191    524    557 216.1  20.9  34136  289.16 0855.26
2009/04/23 10:03:48.6    -266   -500     88    567    575 208.0   8.9  34128  289.02 0855.26
2009/04/23 10:03:48.7    -309   -613     95    687    694 206.8   7.9  34128  289.02 0855.26
2009/04/23 10:03:48.8    -321   -567     74    652    657 209.5   6.5  34126  288.99 0855.26
2009/04/23 10:03:48.9    -423   -544   -123    690    701 217.9 -10.1  34122  288.93 0855.26
2009/04/23 10:03:49.0    -246   -447    -81    511    518 208.8  -9.0  34118  288.86 0855.26
2009/04/23 10:03:49.1    -228   -266    -32    351    353 220.5  -5.4  34120  288.91 0855.26
2009/04/23 10:03:49.2    -187   -314    124    366    387 210.8  18.8  34126  288.99 0855.26
2009/04/23 10:03:49.3    -230   -488     98    540    549 205.3  10.3  34124  288.96 0855.26
2009/04/23 10:03:49.4    -222   -387     81    447    455 209.9  10.3  34124  288.97 0855.26
2009/04/23 10:03:49.5    -323   -431      7    539    540 216.9   0.8  34120  288.91 0855.25
2009/04/23 10:03:49.6    -313   -451     58    549    553 214.8   6.1  34126  288.99 0855.25
2009/04/23 10:03:49.7    -300   -448      6    540    541 213.8   0.7  34120  288.91 0855.25
2009/04/23 10:03:49.8    -187   -410    114    451    466 204.5  14.2  34124  288.95 0855.25
2009/04/23 10:03:49.9    -120   -365    112    385    402 198.3  16.3  34114  288.79 0855.25
2009/04/23 10:03:50.0      47   -444    105    447    460 173.9  13.3  34118  288.87 0855.25
2009/04/23 10:03:50.1      48   -489    101    492    503 174.3  11.7  34120  288.90 0855.25
2009/04/23 10:03:50.2      58   -472    129    476    494 172.9  15.1  34116  288.83 0855.25
2009/04/23 10:03:50.3     -89   -567    202    575    609 189.0  20.1  34112  288.76 0855.25
2009/04/23 10:03:50.4    -202   -385    273    435    513 207.7  35.1  34120  288.88 0855.25
2009/04/23 10:03:50.5     -33   -312    203    314    373 186.2  35.7  34122  288.93 0855.23
2009/04/23 10:03:50.6      29   -232     68    234    244 172.7  16.4  34114  288.80 0855.23
2009/04/23 10:03:50.7     102   -289    109    307    325 160.4  20.3  34120  288.90 0855.23
2009/04/23 10:03:50.8      65   -590    206    594    628 173.7  20.0  34118  288.87 0855.23
2009/04/23 10:03:50.9      16   -670    148    671    688 178.6  12.5  34118  288.85 0855.23
2009/04/23 10:03:51.0     108   -593    176    603    629 169.7  16.3  34118  288.86 0855.23
2009/04/23 10:03:51.1     107   -537    143    548    567 168.7  14.7  34116  288.84 0855.23
2009/04/23 10:03:51.2     143   -528    100    548    558 164.8  10.3  34118  288.85 0855.23
2009/04/23 10:03:51.3     180   -522    184    553    584 161.0  18.5  34124  288.97 0855.23
2009/04/23 10:03:51.4     207   -469    114    513    526 156.2  12.6  34116  288.84 0855.23
2009/04/23 10:03:51.5      65   -461    103    466    478 171.9  12.5  34120  288.90 0855.23
2009/04/23 10:03:51.6      90   -341    109    353    370 165.2  17.2  34116  288.82 0855.23
2009/04/23 10:03:51.7     181   -134     63    226    235 126.4  15.6  34120  288.89 0855.23
2009/04/23 10:03:51.8     128    -34    210    133    248 105.1  64.7  34118  288.86 0855.23
2009/04/23 10:03:51.9     -89     20    152     92    177 282.8  66.0  34138  289.21 0855.23
2009/04/23 10:03:52.0      97    -53    224    111    249 118.8  71.9  34130  289.08 0855.23
2009/04/23 10:03:52.1     172    -94    123    197    232 118.6  35.5  34128  289.02 0855.23
2009/04/23 10:03:52.2      40    -77    118     88    147 152.4  59.4  34128  289.04 0855.23
2009/04/23 10:03:52.3    -116    -17     61    118    132 261.6  29.3  34132  289.11 0855.23
2009/04/23 10:03:52.4    -218   -120    133    250    283 241.1  30.3  34126  288.98 0855.23
2009/04/23 10:03:52.5    -201   -185    216    274    348 227.3  42.4  34130  289.05 0855.25
2009/04/23 10:03:52.6    -167   -336    232    376    441 206.5  34.6  34128  289.02 0855.25
2009/04/23 10:03:52.7    -151   -237    157    282    322 212.6  31.6  34122  288.93 0855.25
2009/04/23 10:03:52.8    -106   -311    169    329    369 199.0  29.3  34120  288.88 0855.25
2009/04/23 10:03:52.9    -208   -375    252    430    498 209.0  33.1  34122  288.93 0855.25
2009/04/23 10:03:53.0    -450   -187    138    488    508 247.4  15.8  34120  288.91 0855.25
2009/04/23 10:03:53.1    -571   -134   -185    587    616 256.7 -17.5  34120  288.88 0855.25
2009/04/23 10:03:53.2    -355   -292    111    460    474 230.5  13.6  34110  288.73 0855.25
2009/04/23 10:03:53.3    -228   -208     45    309    313 227.7   8.3  34120  288.88 0855.25
2009/04/23 10:03:53.4    -102   -107    -51    148    156 223.7 -23.3  34110  288.74 0855.25
2009/04/23 10:03:53.5     -12   -183    -36    184    188 184.0 -11.3  34110  288.74 0855.25
2009/04/23 10:03:53.6     -49   -216    -44    222    227 192.9 -11.3  34118  288.87 0855.25
2009/04/23 10:03:53.7    -123   -296    -88    321    334 202.7 -15.4  34120  288.89 0855.25
2009/04/23 10:03:53.8    -136   -187    -47    232    237 216.1 -11.5  34122  288.93 0855.25
2009/04/23 10:03:53.9    -201   -118   -100    234    254 239.6 -29.0  34114  288.78 0855.25
2009/04/23 10:03:54.0    -174   -159      3    236    237 227.6   0.8  34122  288.92 0855.25
2009/04/23 10:03:54.1    -187   -193     28    270    272 224.1   6.1  34122  288.93 0855.25
2009/04/23 10:03:54.2    -211    -31     41    214    218 261.6  11.0  34126  288.99 0855.25
2009/04/23 10:03:54.3    -166    -89     -7    189    190 241.8  -2.3  34122  288.94 0855.25
2009/04/23 10:03:54.4    -107   -195     75    223    236 208.9  18.6  34116  288.82 0855.25
2009/04/23 10:03:54.5    -170   -359     45    398    401 205.3   6.5  34122  288.93 0855.25
2009/04/23 10:03:54.6    -212   -285      5    356    357 216.6   0.8  34122  288.93 0855.25
2009/04/23 10:03:54.7    -137   -310    -30    340    342 203.9  -5.2  34122  288.94 0855.25
2009/04/23 10:03:54.8    -260   -388     -2    468    469 213.8  -0.3  34114  288.79 0855.25
2009/04/23 10:03:54.9    -464   -294    -49    550    553 237.6  -5.2  34116  288.84 0855.25
2009/04/23 10:03:55.0    -407   -130   -151    428    453 252.2 -24.6  34108  288.68 0855.25
2009/04/23 10:03:55.1    -308     93    -50    322    326 286.8  -8.9  34116  288.81 0855.25
2009/04/23 10:03:55.2    -220   -220    197    312    368 224.9  35.5  34116  288.81 0855.25
2009/04/23 10:03:55.3     -86    -77    301    116    322 228.2  78.2  34138  289.20 0855.25
2009/04/23 10:03:55.4     -19   -351    408    352    538 183.2  54.9  34120  288.90 0855.25
2009/04/23 10:03:55.5      47   -302    298    306    427 171.1  49.2  34120  288.89 0855.25
2009/04/23 10:03:55.6     131   -457    265    476    544 164.0  31.4  34116  288.84 0855.25
2009/04/23 10:03:55.7     313   -524    262    611    664 149.1  24.8  34114  288.79 0855.25
2009/04/23 10:03:55.8     315   -551    282    635    694 150.2  25.6  34112  288.75 0855.25
2009/04/23 10:03:55.9     235   -504    270    557    618 155.0  27.7  34116  288.81 0855.25
2009/04/23 10:03:56.0     219   -438    209    490    532 153.4  24.6  34110  288.74 0855.25
2009/04/23 10:03:56.1     360   -321     61    483    487 131.8   7.2  34104  288.62 0855.25
2009/04/23 10:03:56.2     449   -120     19    465    466 105.0   2.3  34110  288.71 0855.25
2009/04/23 10:03:56.3     323   -159    -15    361    362 116.3  -2.5  34112  288.77 0855.25
2009/04/23 10:03:56.4     430   -220    203    483    523 117.1  24.2  34108  288.68 0855.25
2009/04/23 10:03:56.5     391   -209    191    444    483 118.2  24.8  34112  288.76 0855.25
2009/04/23 10:03:56.6     294   -123    320    319    451 112.7  50.1  34108  288.70 0855.25
2009/04/23 10:03:56.7     453     54    407    457    611  83.2  46.3  34110  288.74 0855.25
2009/04/23 10:03:56.8     285   -182    332    339    474 122.6  49.4  34122  288.94 0855.25
2009/04/23 10:03:56.9     290   -212    230    360    427 126.2  35.6  34120  288.89 0855.25
2009/04/23 10:03:57.0      64   -311    228    318    391 168.2  39.3  34120  288.91 0855.25
2009/04/23 10:03:57.1     114   -308    213    329    391 159.6  36.0  34124  288.96 0855.25
2009/04/23 10:03:57.2     126   -276    107    304    323 155.5  19.4  34120  288.90 0855.25
2009/04/23 10:03:57.3      79   -324     38    334    337 166.2   6.6  34120  288.88 0855.25
2009/04/23 10:03:57.4      37   -225    100    229    249 170.7  25.1  34110  288.71 0855.25
2009/04/23 10:03:57.5     179   -149    175    233    291 129.8  40.7  34122  288.93 0855.25
2009/04/23 10:03:57.6     207   -244    287    321    430 139.7  46.4  34128  289.04 0855.25
2009/04/23 10:03:57.7      93    -93    197    132    237 135.0  63.2  34128  289.02 0855.25
2009/04/23 10:03:57.8      -4   -159    150    160    219 181.6  48.0  34112  288.75 0855.25
2009/04/23 10:03:57.9      99    150    156    180    238  33.4  45.4  34124  288.97 0855.25
2009/04/23 10:03:58.0     -80    126    117    150    190 327.4  42.2  34126  288.99 0855.25
2009/04/23 10:03:58.1       8    135     97    136    167   3.6  39.1  34124  288.97 0855.25
2009/04/23 10:03:58.2      13    108    141    109    178   7.1  58.5  34122  288.94 0855.25
2009/04/23 10:03:58.3     111     -1    209    112    237  90.8  69.8  34122  288.94 0855.25
2009/04/23 10:03:58.4     296    -73    241    305    388 103.9  42.4  34118  288.86 0855.25
2009/04/23 10:03:58.5     367    -35    284    369    465  95.6  41.6  34118  288.87 0855.21
2009/04/23 10:03:58.6      98     -4    190     99    214  92.6  70.6  34120  288.91 0855.21
2009/04/23 10:03:58.7      72    -85    222    112    248 139.5  71.4  34102  288.60 0855.21
2009/04/23 10:03:58.8     238    -64    175    247    302 105.1  38.8  34118  288.85 0855.21
2009/04/23 10:03:58.9      97    -79     29    126    130 129.1  13.2  34124  288.96 0855.21
2009/04/23 10:03:59.0     157    -43    121    163    203 105.5  40.1  34122  288.94 0855.21
2009/04/23 10:03:59.1     147     85    117    170    206  60.0  37.8  34130  289.08 0855.21
2009/04/23 10:03:59.2      43     68     39     81     89  32.6  27.3  34128  289.02 0855.21
2009/04/23 10:03:59.3    -139      4     22    140    142 271.7   9.0  34128  289.02 0855.21
2009/04/23 10:03:59.4    -144    -94    -23    173    175 236.7  -7.7  34128  289.02 0855.21
2009/04/23 10:03:59.5    -129    -30    -22    133    135 256.7  -9.4  34126  289.01 0855.21
2009/04/23 10:03:59.6    -195   -111   -142    225    266 240.2 -39.9  34120  288.90 0855.21
2009/04/23 10:03:59.7    -215     -3   -127    216    250 269.2 -37.8  34124  288.97 0855.21
2009/04/23 10:03:59.8    -236    112   -170    262    312 295.4 -40.6  34118  288.87 0855.21
2009/04/23 10:03:59.9    -242    159    -58    290    296 303.3 -11.3  34112  288.75 0855.21
2009/04/23 10:04:00.0    -293   -161     29    335    337 241.2   5.1  34108  288.69 0855.21
2009/04/23 10:04:00.1    -440   -229    -41    496    498 242.5  -4.8  34122  288.93 0855.21
2009/04/23 10:04:00.2    -501     66     20    506    507 277.6   2.3  34090  288.40 0855.21
2009/04/23 10:04:00.3    -682     39    -46    684    686 273.3  -3.9  34096  288.50 0855.21
2009/04/23 10:04:00.4    -666    -88    -61    672    675 262.4  -5.2  34096  288.48 0855.21
2009/04/23 10:04:00.5    -367   -156      4    399    400 247.0   0.7  34112  288.77 0855.21
2009/04/23 10:04:00.6    -423    -92    -16    433    434 257.7  -2.2  34124  288.97 0855.21
2009/04/23 10:04:00.7    -338   -214    151    401    428 237.6  21.6  34132  289.11 0855.21
2009/04/23 10:04:00.8    -269   -324     32    422    424 219.6   4.4  34138  289.21 0855.21
2009/04/23 10:04:00.9    -233   -324    136    400    423 215.7  18.8  34164  289.63 0855.21
2009/04/23 10:04:01.0    -290   -328    181    438    473 221.5  23.8  34152  289.43 0855.21
2009/04/23 10:04:01.1    -258   -241    181    354    397 226.9  29.2  34164  289.64 0855.21
2009/04/23 10:04:01.2    -323   -180    105    370    385 240.9  15.9  34158  289.54 0855.21
2009/04/23 10:04:01.3    -372   -123     79    392    400 251.6  11.5  34146  289.32 0855.21
2009/04/23 10:04:01.4    -245   -259    179    357    399 223.5  28.6  34146  289.35 0855.21
2009/04/23 10:04:01.5    -274   -272    245    387    458 225.2  35.5  34150  289.39 0855.21
2009/04/23 10:04:01.6    -236   -207     84    315    327 228.7  15.0  34154  289.46 0855.21
2009/04/23 10:04:01.7    -315   -344     76    467    474 222.5   9.3  34142  289.27 0855.21
2009/04/23 10:04:01.8    -264   -347     85    437    446 217.3  11.1  34148  289.38 0855.21
2009/04/23 10:04:01.9    -292   -393    210    490    533 216.6  24.6  34134  289.14 0855.21
2009/04/23 10:04:02.0    -325   -314     63    452    457 226.0   8.0  34114  288.80 0855.21
2009/04/23 10:04:02.1    -409   -417     49    585    588 224.4   4.9  34118  288.85 0855.21
2009/04/23 10:04:02.2    -576   -403    -27    704    705 235.0  -2.2  34120  288.88 0855.21
2009/04/23 10:04:02.3    -388   -155     68    419    425 248.2   9.3  34134  289.12 0855.21
2009/04/23 10:04:02.4    -435   -295    141    526    545 235.8  15.0  34142  289.28 0855.21
2009/04/23 10:04:02.5    -353   -272    113    446    461 232.4  14.3  34152  289.43 0855.20
2009/04/23 10:04:02.6    -543   -256     62    601    605 244.7   5.9  34162  289.59 0855.20
2009/04/23 10:04:02.7    -769   -359   -163    849    865 245.0 -10.9  34082  288.26 0855.20
2009/04/23 10:04:02.8    -896   -407   -294    985   1028 245.6 -16.6  34094  288.47 0855.20
2009/04/23 10:04:02.9    -894   -417   -264    987   1022 245.0 -15.0  34096  288.49 0855.20
2009/04/23 10:04:03.0    -745   -331   -257    816    856 246.0 -17.5  34096  288.48 0855.20
2009/04/23 10:04:03.1    -745   -219   -278    777    826 253.6 -19.7  34090  288.37 0855.20
2009/04/23 10:04:03.2    -676   -457   -219    817    846 235.9 -15.1  34114  288.79 0855.20
2009/04/23 10:04:03.3    -643   -248   -248    690    734 248.9 -19.8  34102  288.59 0855.20
2009/04/23 10:04:03.4    -658   -215   -199    693    721 251.9 -20.8  34108  288.69 0855.20
2009/04/23 10:04:03.5    -675   -148   -218    692    725 257.6 -22.5  34090  288.40 0855.20
2009/04/23 10:04:03.6    -638   -108   -255    648    696 260.4 -27.2  34088  288.36 0855.20
2009/04/23 10:04:03.7    -579   -114   -208    591    626 258.8 -24.6  34094  288.47 0855.20
2009/04/23 10:04:03.8    -523   -202   -320    561    645 248.8 -36.6  34104  288.64 0855.20
2009/04/23 10:04:03.9    -547   -154   -303    569    644 254.2 -34.7  34104  288.62 0855.20
2009/04/23 10:04:04.0    -563    -91   -249    571    622 260.8 -29.4  34102  288.59 0855.20
2009/04/23 10:04:04.1    -540   -378    -10    660    661 235.0  -0.9  34122  288.94 0855.20
2009/04/23 10:04:04.2    -193   -492    -10    529    530 201.4  -1.2  34120  288.91 0855.20
2009/04/23 10:04:04.3    -201   -479    -49    520    523 202.8  -5.5  34114  288.80 0855.20
2009/04/23 10:04:04.4    -376   -329   -209    500    541 228.8 -28.5  34106  288.65 0855.20
2009/04/23 10:04:04.5    -277   -265   -192    384    429 226.3 -33.0  34106  288.67 0855.18
2009/04/23 10:04:04.6    -209   -208   -120    296    319 225.1 -27.8  34108  288.68 0855.18
2009/04/23 10:04:04.7    -482   -194   -122    520    535 248.0 -13.3  34104  288.63 0855.18
2009/04/23 10:04:04.8    -375   -342   -162    508    533 227.6 -22.8  34116  288.82 0855.18
2009/04/23 10:04:04.9    -349   -300   -257    461    527 229.4 -35.8  34100  288.56 0855.18
2009/04/23 10:04:05.0    -435   -404   -219    594    633 227.1 -25.5  34120  288.89 0855.18
2009/04/23 10:04:05.1    -434   -364   -174    567    593 230.0 -21.9  34100  288.56 0855.18
2009/04/23 10:04:05.2    -480   -226   -264    531    593 244.8 -32.8  34104  288.63 0855.18
2009/04/23 10:04:05.3    -366   -229   -247    432    497 238.0 -36.8  34104  288.61 0855.18
2009/04/23 10:04:05.4    -380   -194   -251    427    495 242.9 -37.5  34102  288.59 0855.18
2009/04/23 10:04:05.5    -394   -187   -223    437    490 244.6 -33.6  34102  288.59 0855.18
2009/04/23 10:04:05.6    -396   -166   -271    430    508 247.3 -39.6  34094  288.47 0855.18
2009/04/23 10:04:05.7    -435   -157   -254    463    528 250.1 -35.7  34100  288.57 0855.18
2009/04/23 10:04:05.8    -276    -73   -142    286    319 255.2 -32.8  34088  288.36 0855.18
2009/04/23 10:04:05.9    -324    -73   -210    333    393 257.3 -39.6  34096  288.49 0855.18
2009/04/23 10:04:06.0    -289    -57   -280    295    406 258.8 -52.9  34102  288.59 0855.18
2009/04/23 10:04:06.1    -215    -68   -280    226    359 252.5 -61.4  34100  288.54 0855.18
2009/04/23 10:04:06.2      70   -172   -267    186    325 157.7 -66.4  34104  288.61 0855.18
2009/04/23 10:04:06.3     292   -465     91    550    558 147.9   9.5  34110  288.72 0855.18
2009/04/23 10:04:06.4     215   -737     37    768    770 163.7   2.8  34104  288.62 0855.18
2009/04/23 10:04:06.5     223   -897     78    925    929 166.0   4.9  34102  288.58 0855.18
2009/04/23 10:04:06.6     264   -644     42    697    699 157.7   3.5  34110  288.73 0855.18
2009/04/23 10:04:06.7     520   -564    -33    768    769 137.3  -2.5  34108  288.70 0855.18
2009/04/23 10:04:06.8      82   -386    141    395    419 167.9  20.4  34096  288.50 0855.18
2009/04/23 10:04:06.9     -99   -200    206    224    304 206.5  47.7  34116  288.83 0855.18
2009/04/23 10:04:07.0     245   -262    127    359    380 136.9  20.2  34106  288.66 0855.18
2009/04/23 10:04:07.1     323   -283    109    430    444 131.2  14.3  34106  288.67 0855.18
2009/04/23 10:04:07.2     213   -384    357    440    566 151.0  43.3  34104  288.62 0855.18
2009/04/23 10:04:07.3     104   -509    364    520    634 168.4  38.4  34116  288.81 0855.18
2009/04/23 10:04:07.4     369   -340    215    502    546 132.7  24.5  34112  288.77 0855.18
2009/04/23 10:04:07.5     273   -339    226    436    491 141.2  29.6  34116  288.83 0855.18
2009/04/23 10:04:07.6     428   -527    319    680    751 140.9  27.1  34110  288.74 0855.18
2009/04/23 10:04:07.7     440   -364    298    572    644 129.6  29.8  34108  288.69 0855.18
2009/04/23 10:04:07.8     406   -358    236    542    591 131.4  25.1  34108  288.68 0855.18
2009/04/23 10:04:07.9     202   -356    312    410    515 150.5  41.2  34100  288.56 0855.18
2009/04/23 10:04:08.0      73   -273    254    283    380 164.9  46.6  34110  288.74 0855.18
2009/04/23 10:04:08.1     122   -302    210    327    388 157.9  35.6  34118  288.86 0855.18
2009/04/23 10:04:08.2      -3   -385    198    386    433 180.5  29.3  34114  288.78 0855.18
2009/04/23 10:04:08.3     -22   -343      4    344    345 183.7   0.7  34120  288.91 0855.18
2009/04/23 10:04:08.4    -188   -339   -100    388    401 209.0 -14.5  34118  288.86 0855.18
2009/04/23 10:04:08.5    -152   -359   -167    390    424 203.0 -29.0  34124  288.97 0855.15
2009/04/23 10:04:08.6    -171   -469   -105    500    511 200.1 -11.9  34124  288.95 0855.15
2009/04/23 10:04:08.7    -101   -453      5    465    466 192.6   0.7  34118  288.86 0855.15
2009/04/23 10:04:08.8     -74   -494    -90    500    509 188.6 -10.3  34116  288.81 0855.15
2009/04/23 10:04:08.9    -242   -480    -30    538    539 206.8  -3.3  34122  288.92 0855.15
2009/04/23 10:04:09.0    -222   -408   -157    465    491 208.6 -18.7  34124  288.95 0855.15
2009/04/23 10:04:09.1    -183   -383    -77    425    433 205.6 -10.4  34124  288.95 0855.15
2009/04/23 10:04:09.2    -244   -267   -166    362    398 222.4 -30.7  34122  288.93 0855.15
2009/04/23 10:04:09.3    -226   -269   -218    352    414 220.1 -39.2  34118  288.86 0855.15
2009/04/23 10:04:09.4    -294    -59   -115    300    321 258.5 -26.4  34140  289.24 0855.15
2009/04/23 10:04:09.5     -60    -49   -105     78    130 230.4 -64.4  34144  289.31 0855.15
2009/04/23 10:04:09.6       8     -8    -64     12     65 133.1 -90.0  34128  289.04 0855.15
2009/04/23 10:04:09.7      22     61    -59     65     87  20.0 -51.9  34130  289.08 0855.15
2009/04/23 10:04:09.8      -4     -3    -54      6     54 230.5 -90.0  34124  288.96 0855.15
2009/04/23 10:04:09.9    -224     28   -200    226    301 277.2 -50.6  34122  288.92 0855.15
2009/04/23 10:04:10.0    -196      3   -185    197    270 271.0 -52.4  34124  288.95 0855.15
2009/04/23 10:04:10.1      61    -85   -168    105    198 144.4 -69.5  34118  288.87 0855.15
2009/04/23 10:04:10.2      13    -44   -122     47    130 163.1 -82.6  34128  289.04 0855.15
2009/04/23 10:04:10.3     145    -58   -111    157    192 111.7 -43.2  34124  288.97 0855.15
2009/04/23 10:04:10.4      78   -123   -236    146    277 147.5 -69.8  34124  288.97 0855.15
2009/04/23 10:04:10.5      72   -164   -254    180    311 156.2 -65.7  34124  288.95 0855.15
2009/04/23 10:04:10.6      87   -137   -209    163    265 147.5 -62.3  34124  288.95 0855.15
2009/04/23 10:04:10.7     -22    -22   -183     32    185 225.0 -90.0  34130  289.06 0855.15
2009/04/23 10:04:10.8    -226   -177   -214    288    358 232.0 -44.8  34126  288.99 0855.15
2009/04/23 10:04:10.9    -256   -213   -170    334    374 230.2 -33.6  34118  288.86 0855.15
2009/04/23 10:04:11.0    -157   -340    -96    375    388 204.8 -14.4  34114  288.79 0855.15
2009/04/23 10:04:11.1     -99   -415     82    427    435 193.4  11.0  34122  288.92 0855.15
2009/04/23 10:04:11.2       0   -277    141    278    311 180.0  29.2  34120  288.90 0855.15
2009/04/23 10:04:11.3      23   -371    134    372    396 176.4  19.9  34120  288.88 0855.15
2009/04/23 10:04:11.4      24   -409    -22    410    411 176.6  -3.2  34116  288.83 0855.15
2009/04/23 10:04:11.5      54   -372    -47    376    379 171.7  -7.2  34116  288.84 0855.09
2009/04/23 10:04:11.6      99   -320    -77    336    345 162.7 -12.9  34118  288.86 0855.09
2009/04/23 10:04:11.7     168   -266    -50    315    320 147.7  -9.1  34118  288.85 0855.09
2009/04/23 10:04:11.8     185   -235    -99    300    316 141.7 -18.3  34118  288.85 0855.09
2009/04/23 10:04:11.9     183   -252    -44    312    316 143.9  -8.1  34118  288.85 0855.09
2009/04/23 10:04:12.0     216   -221    -12    310    311 135.7  -2.3  34118  288.87 0855.09
2009/04/23 10:04:12.1     184   -268    -92    326    339 145.5 -15.8  34116  288.82 0855.09
2009/04/23 10:04:12.2     261   -278    -70    382    389 136.8 -10.5  34116  288.84 0855.09
2009/04/23 10:04:12.3     271   -216    -35    347    349 128.6  -5.9  34116  288.82 0855.09
2009/04/23 10:04:12.4     286   -143    -61    320    326 116.6 -10.9  34112  288.76 0855.09
2009/04/23 10:04:12.5     156   -301     16    339    340 152.6   2.8  34104  288.64 0855.09
2009/04/23 10:04:12.6      29   -374    138    376    400 175.5  21.0  34088  288.35 0855.09
2009/04/23 10:04:12.7      -7   -433    340    434    551 181.0  42.1  34094  288.44 0855.09
2009/04/23 10:04:12.8     -45   -436    194    439    479 186.0  25.6  34090  288.37 0855.09
2009/04/23 10:04:12.9     -42   -505     83    507    514 184.9   9.3  34090  288.37 0855.09
2009/04/23 10:04:13.0      15   -476     44    477    480 178.1   5.3  34088  288.35 0855.09
2009/04/23 10:04:13.1     -69   -594    -11    599    600 186.7  -1.1  34092  288.42 0855.09
2009/04/23 10:04:13.2      63   -451    -69    456    462 172.0  -8.6  34084  288.29 0855.09
2009/04/23 10:04:13.4     192   -390     26    435    436 153.8   3.5  34086  288.31 0855.09
2009/04/23 10:04:13.5     271   -323     59    422    427 140.0   8.0  34084  288.29 0855.09
2009/04/23 10:04:13.6     299   -130    134    327    353 113.6  23.5  34094  288.45 0855.05
2009/04/23 10:04:13.6     293   -276    156    403    432 133.3  22.3  34094  288.45 0855.05
2009/04/23 10:04:13.7     136   -289    177    320    365 154.7  31.4  34090  288.38 0855.05
2009/04/23 10:04:13.9     -58   -300    188    306    359 191.1  34.6  34098  288.52 0855.05
2009/04/23 10:04:14.0    -130   -168    -18    213    214 217.8  -4.9  34094  288.47 0855.05
2009/04/23 10:04:14.1       4   -263      5    264    265 179.1   1.2  34098  288.51 0855.05
2009/04/23 10:04:14.2     131   -205     78    244    257 147.5  17.7  34098  288.51 0855.05
2009/04/23 10:04:14.3     145   -199      7    247    248 143.9   1.7  34092  288.43 0855.05
2009/04/23 10:04:14.4      86   -305     70    317    325 164.2  12.5  34098  288.51 0855.05
2009/04/23 10:04:14.5      60   -255     92    263    278 166.6  20.0  34098  288.51 0855.05
2009/04/23 10:04:14.6     121   -256     95    284    300 154.7  18.6  34096  288.49 0855.05
2009/04/23 10:04:14.7      68   -180    140    193    238 159.1  39.7  34100  288.55 0855.05
2009/04/23 10:04:14.8      87   -264    112    279    300 161.7  23.0  34104  288.61 0855.05
2009/04/23 10:04:14.9     166   -140     44    218    223 130.2  11.4  34102  288.58 0855.05
2009/04/23 10:04:15.0     121   -212     10    245    246 150.4   2.5  34100  288.56 0855.05
2009/04/23 10:04:15.1     121   -145    -52    190    198 140.1 -15.5  34100  288.57 0855.05
2009/04/23 10:04:15.2     174   -182     -5    252    253 136.3  -1.3  34102  288.58 0855.05
2009/04/23 10:04:15.3     149   -219    -83    266    278 145.7 -22.3  34100  288.56 0855.05
2009/04/23 10:04:15.4     244   -253   -160    352    386 136.1 -30.7  34094  288.47 0855.05
2009/04/23 10:04:15.5     155   -199   -183    253    312 142.2 -43.9  34102  288.58 0855.05
2009/04/23 10:04:15.6      50    -52   -269     73    278 135.8 -89.2  34098  288.52 0855.09
2009/04/23 10:04:15.7      -2     35   -164     36    167 355.5 -90.0  34112  288.77 0855.09
2009/04/23 10:04:15.8    -107   -153    -76    187    201 215.0 -27.5  34104  288.64 0855.09
2009/04/23 10:04:15.9      71     71   -116    101    153  44.7 -58.7  34110  288.74 0855.09
2009/04/23 10:04:16.0    -146     32    -82    150    170 282.4 -35.4  34108  288.69 0855.09
2009/04/23 10:04:16.1      21   -185    137    187    231 173.3  39.7  34102  288.60 0855.09
2009/04/23 10:04:16.2     -56   -185    228    194    299 196.9  55.4  34108  288.70 0855.09
2009/04/23 10:04:16.3     -13    -39    170     42    175 198.5  86.2  34112  288.77 0855.09
2009/04/23 10:04:16.4    -112    -16    123    114    167 261.6  52.5  34122  288.92 0855.09
2009/04/23 10:04:16.5      15      2     74     16     75  82.1  89.0  34114  288.79 0855.09
2009/04/23 10:04:16.6     101      7     89    102    135  85.6  45.8  34108  288.69 0855.09
2009/04/23 10:04:16.7     148     57     58    159    169  68.7  20.7  34104  288.64 0855.09
2009/04/23 10:04:16.8      46    -51     51     69     85 137.7  40.1  34106  288.65 0855.09
2009/04/23 10:04:16.9      64     35     88     74    114  61.2  56.3  34108  288.70 0855.09
2009/04/23 10:04:17.0     116    -23    158    119    197 101.4  59.4  34106  288.65 0855.09
2009/04/23 10:04:17.1      46     46    139     66    153  45.1  72.9  34112  288.77 0855.09
2009/04/23 10:04:17.2     131    103    136    167    215  51.8  43.7  34104  288.64 0855.09
2009/04/23 10:04:17.3     219     86     94    236    254  68.5  23.0  34106  288.66 0855.09
2009/04/23 10:04:17.4      99     17    144    101    175  79.9  61.8  34102  288.58 0855.09
2009/04/23 10:04:17.5     -35    -27    162     45    168 232.2  84.4  34120  288.91 0855.09
2009/04/23 10:04:17.6      56   -120    190    133    231 154.7  61.8  34110  288.72 0855.21
2009/04/23 10:04:17.7      54    -58    222     80    235 136.8  79.5  34104  288.62 0855.21
2009/04/23 10:04:17.8     296    -99    250    313    400 108.6  42.7  34106  288.66 0855.21
2009/04/23 10:04:17.9      41    -62    213     75    225 146.6  80.2  34100  288.55 0855.21
2009/04/23 10:04:18.0      24      7    251     26    252  73.2  90.0  34108  288.70 0855.21
2009/04/23 10:04:18.1      58    123    228    137    265  25.4  66.2  34102  288.58 0855.21
2009/04/23 10:04:18.2     -46    372    194    375    422 352.9  29.4  34106  288.65 0855.21
2009/04/23 10:04:18.3    -207    393    131    445    464 332.3  16.4  34104  288.61 0855.21
2009/04/23 10:04:18.4    -168    330      3    371    372 333.0   0.5  34100  288.55 0855.21
2009/04/23 10:04:18.5     460    133     68    479    484  73.9   8.1  34094  288.47 0855.21
2009/04/23 10:04:18.6     185    194    170    269    318  43.7  35.2  34102  288.58 0855.21
2009/04/23 10:04:18.7      61    140    260    153    301  23.7  66.8  34116  288.81 0855.21
2009/04/23 10:04:18.8     154    112    258    191    321  54.1  60.0  34110  288.71 0855.21
2009/04/23 10:04:18.9      84     86    266    121    292  44.5  74.0  34116  288.81 0855.21
2009/04/23 10:04:19.0     169    -69    179    183    255 112.2  49.2  34106  288.66 0855.21
2009/04/23 10:04:19.1     186     25    271    188    329  82.1  62.2  34110  288.73 0855.21
2009/04/23 10:04:19.2     119     98    305    155    342  50.5  71.1  34110  288.73 0855.21
2009/04/23 10:04:19.3      81    129    274    153    313  32.1  68.5  34104  288.63 0855.21
2009/04/23 10:04:19.4      12    167    173    168    241   4.4  50.9  34108  288.69 0855.21
2009/04/23 10:04:19.5    -101      0    108    102    148 270.0  52.1  34116  288.82 0855.21
2009/04/23 10:04:19.6    -185     84    211    204    293 294.6  51.2  34118  288.87 0855.22
2009/04/23 10:04:19.7    -311    -67     36    319    322 257.8   6.6  34108  288.68 0855.22
2009/04/23 10:04:19.8    -291    158     43    332    335 298.6   7.5  34106  288.66 0855.22
2009/04/23 10:04:19.9    -285    292     95    409    420 315.7  13.1  34092  288.43 0855.22
2009/04/23 10:04:20.0    -421    150     72    448    454 289.7   9.2  34100  288.55 0855.22
2009/04/23 10:04:20.1    -337    112    100    356    370 288.4  15.7  34100  288.57 0855.22
2009/04/23 10:04:20.2    -274     20     15    275    276 274.3   3.1  34094  288.46 0855.22
2009/04/23 10:04:20.3    -327   -192     67    380    386 239.5  10.0  34102  288.59 0855.22
2009/04/23 10:04:20.4    -175   -211    147    275    311 219.7  30.6  34106  288.65 0855.22
2009/04/23 10:04:20.5    -188   -208      7    281    282 222.1   1.6  34098  288.51 0855.22
2009/04/23 10:04:20.6     -20   -322    -12    323    324 183.6  -2.2  34098  288.53 0855.22
2009/04/23 10:04:20.7     113   -332     58    351    356 161.2   9.5  34100  288.54 0855.22
2009/04/23 10:04:20.8     134   -389     99    412    424 161.0  13.5  34094  288.46 0855.22
2009/04/23 10:04:20.9     -39   -392     51    395    399 185.8   7.4  34106  288.67 0855.22
2009/04/23 10:04:21.0     -73   -419     45    426    429 189.9   6.1  34104  288.63 0855.22
2009/04/23 10:04:21.1     165   -418     42    450    453 158.5   5.4  34106  288.67 0855.22
2009/04/23 10:04:21.2     182   -132    103    225    247 126.0  26.2  34100  288.54 0855.22
2009/04/23 10:04:21.3      45     31    225     55    231  54.9  86.4  34112  288.77 0855.22
2009/04/23 10:04:21.4     294     70    445    303    538  76.5  62.6  34098  288.51 0855.22
2009/04/23 10:04:21.5     -35    166    353    170    391 348.0  72.6  34104  288.64 0855.22
2009/04/23 10:04:21.6     236    435    212    496    539  28.5  24.6  34104  288.62 0855.22
2009/04/23 10:04:21.7     281    281   -108    398    413  45.0 -15.2  34106  288.65 0855.22
2009/04/23 10:04:21.8     536     57    -29    540    541  83.9  -3.1  34102  288.60 0855.22
2009/04/23 10:04:21.9     442     33    -20    444    445  85.6  -2.7  34100  288.55 0855.22
2009/04/23 10:04:22.0     407   -107   -126    421    439 104.8 -21.7  34108  288.68 0855.22
2009/04/23 10:04:22.1     452    -95   -168    462    491 101.9 -25.3  34104  288.61 0855.22
2009/04/23 10:04:22.2     362    154   -143    394    419  67.0 -25.2  34096  288.48 0855.22
2009/04/23 10:04:22.3     305     62     95    312    327  78.5  17.0  34110  288.73 0855.22
2009/04/23 10:04:22.4     326    174    216    370    428  61.8  33.1  34110  288.73 0855.22
2009/04/23 10:04:22.5     362    178    224    404    461  63.8  31.4  34120  288.90 0855.22
2009/04/23 10:04:22.6     441    155    235    468    523  70.6  28.7  34126  289.01 0855.22
2009/04/23 10:04:22.7     391    195    183    437    473  63.5  24.2  34124  288.97 0855.22
2009/04/23 10:04:22.8     401    110    181    416    453  74.6  25.1  34130  289.05 0855.22
2009/04/23 10:04:22.9     402     74    204    409    457  79.5  28.5  34124  288.97 0855.22
2009/04/23 10:04:23.0     333    124    200    356    408  69.6  32.0  34116  288.84 0855.22
2009/04/23 10:04:23.1     280    239    207    369    423  49.6  31.7  34122  288.94 0855.22
2009/04/23 10:04:23.2     420    189    137    461    482  65.7  16.6  34114  288.79 0855.22
2009/04/23 10:04:23.3     296    222     93    371    383  53.2  14.2  34134  289.13 0855.22
2009/04/23 10:04:23.4     301     29    294    303    422  84.3  49.0  34104  288.62 0855.22
2009/04/23 10:04:23.5     226    -26    215    228    313  96.8  48.2  34106  288.66 0855.22
2009/04/23 10:04:23.6     173    -51    105    181    209 106.4  32.9  34100  288.57 0855.23
2009/04/23 10:04:23.7     185     81    113    203    232  66.4  31.4  34106  288.65 0855.23
2009/04/23 10:04:23.8     204      3    193    205    281  89.1  48.0  34104  288.63 0855.23
2009/04/23 10:04:23.9     179    -49    197    186    270 105.3  52.1  34108  288.70 0855.23
2009/04/23 10:04:24.0     262   -109    190    284    341 112.6  36.9  34106  288.65 0855.23
2009/04/23 10:04:24.1     255   -125    197    285    346 116.2  38.0  34104  288.63 0855.23
2009/04/23 10:04:24.2     218   -180    234    283    367 129.5  43.7  34102  288.59 0855.23
2009/04/23 10:04:24.3     240   -186    192    304    359 127.8  35.5  34112  288.77 0855.23
2009/04/23 10:04:24.4     109   -154    143    189    237 144.6  40.9  34114  288.80 0855.23
2009/04/23 10:04:24.5      74   -210    140    223    263 160.4  35.5  34114  288.80 0855.23
2009/04/23 10:04:24.6      33   -233    210    236    315 171.9  46.4  34110  288.73 0855.23
2009/04/23 10:04:24.7     -31   -293    179    295    345 186.2  34.2  34108  288.69 0855.23
2009/04/23 10:04:24.8      48   -281    224    286    363 170.3  42.1  34122  288.93 0855.23
2009/04/23 10:04:24.9      21   -278    264    279    384 175.6  48.2  34126  288.99 0855.23
2009/04/23 10:04:25.0      75   -296    229    306    382 165.7  40.6  34126  288.98 0855.23
2009/04/23 10:04:25.1      79   -168    189    186    265 154.8  50.4  34114  288.78 0855.23
2009/04/23 10:04:25.2      11   -265    174    266    317 177.5  36.4  34110  288.71 0855.23
2009/04/23 10:04:25.3      39   -118    206    125    240 161.5  65.7  34118  288.87 0855.23
2009/04/23 10:04:25.4      28    -83    150     88    173 161.3  66.8  34116  288.84 0855.23
2009/04/23 10:04:25.5      94   -177    161    201    257 152.1  42.8  34128  289.02 0855.23
2009/04/23 10:04:25.6     -88   -241    222    257    339 200.1  45.2  34122  288.93 0855.28
2009/04/23 10:04:25.7       0   -245     52    246    252 180.0  12.1  34116  288.81 0855.28
2009/04/23 10:04:25.8    -142    -84    164    165    232 239.4  50.0  34120  288.89 0855.28
2009/04/23 10:04:25.9    -106    -93    189    142    236 228.7  59.4  34124  288.96 0855.28
2009/04/23 10:04:26.0       1    -35    164     36    167 177.3  88.0  34134  289.13 0855.28
2009/04/23 10:04:26.1     -16    -62    105     65    123 194.3  64.7  34128  289.02 0855.28
2009/04/23 10:04:26.2     -40     45     79     61     99 318.6  58.5  34124  288.97 0855.28
2009/04/23 10:04:26.3     -96     24    121    100    156 284.2  56.1  34120  288.91 0855.28
2009/04/23 10:04:26.4     -89   -183    114    204    233 205.9  31.6  34118  288.86 0855.28
2009/04/23 10:04:26.5     -86   -216    164    233    284 201.8  38.6  34120  288.88 0855.28
2009/04/23 10:04:26.6     -64    -68    143     94    171 223.2  63.9  34118  288.86 0855.28
2009/04/23 10:04:26.7    -205     65    141    216    257 287.5  36.3  34120  288.90 0855.28
2009/04/23 10:04:26.8    -184     89     29    205    208 296.0   8.2  34120  288.91 0855.28
2009/04/23 10:04:26.9     -97    174    -29    200    203 330.8  -8.2  34122  288.92 0855.28
2009/04/23 10:04:27.0    -186    178     65    258    267 313.8  14.3  34122  288.93 0855.28
2009/04/23 10:04:27.1     -84    -89     79    123    146 223.3  35.6  34118  288.87 0855.28
2009/04/23 10:04:27.2      60   -180     12    190    191 161.5   3.6  34118  288.87 0855.28
2009/04/23 10:04:27.3      54   -186    145    194    242 163.7  40.6  34116  288.84 0855.28
2009/04/23 10:04:27.4       6   -201    210    202    291 178.2  51.2  34116  288.81 0855.28
2009/04/23 10:04:27.5     -49   -301    176    306    353 189.3  32.6  34118  288.86 0855.28
2009/04/23 10:04:27.6      34   -206    104    209    233 170.4  28.2  34122  288.92 0855.24
2009/04/23 10:04:27.7       6    -76    105     77    130 175.5  60.5  34124  288.96 0855.24
2009/04/23 10:04:27.8      19    -31     90     37     97 147.5  77.1  34138  289.19 0855.24
2009/04/23 10:04:27.9    -108     40     13    116    117 290.4   6.9  34124  288.96 0855.24
2009/04/23 10:04:28.0    -155     54    -33    165    169 289.3 -11.3  34148  289.36 0855.24
2009/04/23 10:04:28.1    -185     66    -86    197    214 289.7 -29.5  34176  289.84 0855.24
2009/04/23 10:04:28.2    -114     58    -71    128    146 297.0 -35.8  34162  289.60 0855.24
2009/04/23 10:04:28.3    -112    -47   -101    122    158 246.9 -48.5  34152  289.45 0855.24
2009/04/23 10:04:28.4     -33    -53   -101     63    119 212.5 -69.1  34148  289.36 0855.24
2009/04/23 10:04:28.5     -60    -60    -61     85    104 225.0 -43.9  34166  289.67 0855.24
2009/04/23 10:04:28.6      -5   -118    -60    119    133 182.7 -32.6  34144  289.31 0855.24
2009/04/23 10:04:28.7      33   -259    -63    262    270 172.7 -13.7  34126  289.00 0855.24
2009/04/23 10:04:28.8      56   -298    -58    304    310 169.3 -10.9  34122  288.93 0855.24
2009/04/23 10:04:28.9      98   -291    -91    308    322 161.3 -16.5  34128  289.03 0855.24
2009/04/23 10:04:29.0     111   -225    -79    252    264 153.7 -22.8  34118  288.85 0855.24
2009/04/23 10:04:29.1     142   -261     58    298    304 151.5  11.1  34122  288.93 0855.24
2009/04/23 10:04:29.2     110   -157    131    192    232 145.0  37.4  34122  288.94 0855.24
2009/04/23 10:04:29.3      99   -176     74    203    216 150.6  20.9  34118  288.87 0855.24
2009/04/23 10:04:29.4     128   -299    173    326    369 156.8  30.2  34112  288.76 0855.24
2009/04/23 10:04:29.5      36   -270    178    273    325 172.4  36.2  34110  288.71 0855.24
2009/04/23 10:04:29.6     122   -291    226    316    388 157.3  39.2  34114  288.79 0855.24
2009/04/23 10:04:29.7      64   -336    139    343    370 169.2  23.1  34110  288.71 0855.24
2009/04/23 10:04:29.8     -53   -371    290    375    474 188.2  41.6  34114  288.78 0855.24
2009/04/23 10:04:29.9     128   -340     19    364    365 159.3   3.0  34112  288.77 0855.24
2009/04/23 10:04:30.0     230   -342     88    413    423 146.1  12.1  34112  288.77 0855.24
2009/04/23 10:04:30.1      70   -261    156    271    312 164.9  32.6  34110  288.71 0855.24
2009/04/23 10:04:30.2     102   -407    146    420    445 165.8  19.2  34110  288.72 0855.24
2009/04/23 10:04:30.3     149   -318    101    352    367 154.8  16.0  34112  288.77 0855.24
2009/04/23 10:04:30.4      83   -265     52    278    283 162.4  10.6  34114  288.78 0855.24
2009/04/23 10:04:30.5      48   -250    114    255    279 169.1  25.7  34112  288.75 0855.24
2009/04/23 10:04:30.6      23   -147     -1    149    150 171.1  -0.7  34112  288.75 0855.24
2009/04/23 10:04:30.7     -19   -141     52    143    152 188.0  20.4  34114  288.79 0855.24
2009/04/23 10:04:30.8       7   -152     -1    153    154 177.3  -0.7  34110  288.74 0855.24
2009/04/23 10:04:30.9     -51   -248     -2    254    255 191.8  -0.5  34112  288.75 0855.24
2009/04/23 10:04:31.0    -153   -218     73    267    277 215.2  15.3  34108  288.70 0855.24
2009/04/23 10:04:31.1     -66   -369    219    375    434 190.3  33.0  34110  288.73 0855.24
2009/04/23 10:04:31.2     -33   -323    177    325    370 185.9  31.3  34116  288.82 0855.24
2009/04/23 10:04:31.3    -243   -346    234    423    483 215.1  31.4  34110  288.73 0855.24
2009/04/23 10:04:31.4     -56   -342    218    347    409 189.3  35.3  34118  288.86 0855.24
2009/04/23 10:04:31.5     -50   -340    167    344    382 188.5  27.7  34116  288.81 0855.24
2009/04/23 10:04:31.6     -69   -337    169    345    384 191.6  27.9  34110  288.72 0855.25
2009/04/23 10:04:31.7     -24   -113    264    116    288 192.0  74.9  34116  288.83 0855.25
2009/04/23 10:04:31.8      44    -28    239     53    244 122.4  88.0  34136  289.16 0855.25
2009/04/23 10:04:31.9      -8   -112    147    113    185 184.5  58.5  34134  289.13 0855.25
2009/04/23 10:04:32.0    -158     25     52    161    170 279.2  18.1  34126  289.01 0855.25
2009/04/23 10:04:32.1      21     65     27     69     74  18.5  22.0  34136  289.18 0855.25
2009/04/23 10:04:32.2     -54     11     36     56     66 281.5  35.6  34134  289.13 0855.25
2009/04/23 10:04:32.3    -101   -181    -70    208    220 209.2 -18.7  34128  289.04 0855.25
2009/04/23 10:04:32.4    -285   -259    105    386    401 227.7  15.2  34120  288.88 0855.25
2009/04/23 10:04:32.5    -229   -185    -86    295    307 231.1 -21.0  34122  288.92 0855.25
2009/04/23 10:04:32.6    -266   -193    -45    329    333 234.0  -7.9  34122  288.94 0855.25
2009/04/23 10:04:32.7    -215   -152     66    264    273 234.7  14.2  34120  288.90 0855.25
2009/04/23 10:04:32.8    -226   -148     85    271    285 236.7  17.4  34128  289.02 0855.25
2009/04/23 10:04:32.9    -256   -211    124    332    354 230.5  21.4  34142  289.28 0855.25
2009/04/23 10:04:33.0    -229   -228     28    324    326 225.1   5.1  34138  289.19 0855.25
2009/04/23 10:04:33.1    -121   -257    -84    285    297 205.3 -21.2  34130  289.05 0855.25
2009/04/23 10:04:33.2    -209   -438    -87    486    494 205.5 -10.2  34112  288.76 0855.25
2009/04/23 10:04:33.3    -297   -341    -83    453    461 221.0 -10.4  34110  288.73 0855.25
2009/04/23 10:04:33.4     -63   -275     35    283    286 192.9   7.2  34140  289.24 0855.25
2009/04/23 10:04:33.5    -181   -283    242    337    414 212.6  39.3  34166  289.67 0855.25
2009/04/23 10:04:33.6    -157   -398    172    429    462 201.6  23.0  34118  288.85 0855.25
2009/04/23 10:04:33.7     -23   -279    229    281    362 184.9  43.5  34118  288.86 0855.25
2009/04/23 10:04:33.8     -72   -445    206    451    495 189.2  26.2  34120  288.88 0855.25
2009/04/23 10:04:33.9     -51   -430    151    434    460 186.9  19.2  34114  288.78 0855.25
2009/04/23 10:04:34.0     -80   -465    136    473    493 189.8  16.0  34116  288.84 0855.25
2009/04/23 10:04:34.1     -69   -385    117    392    410 190.2  16.7  34116  288.83 0855.25
2009/04/23 10:04:34.2     -72   -418    195    425    467 189.8  26.4  34118  288.87 0855.25
2009/04/23 10:04:34.3     -66   -403    281    409    496 189.3  37.8  34120  288.88 0855.25
2009/04/23 10:04:34.4      33   -340    268    342    434 174.4  42.0  34116  288.83 0855.25
2009/04/23 10:04:34.5      31   -287    335    289    442 173.7  54.9  34122  288.94 0855.25
2009/04/23 10:04:34.6      42   -300    298    304    425 171.9  49.7  34126  288.98 0855.26
2009/04/23 10:04:34.7    -128   -411    239    431    492 197.4  31.4  34116  288.83 0855.26
2009/04/23 10:04:34.8    -201   -412    162    459    487 206.1  19.5  34116  288.84 0855.26
2009/04/23 10:04:34.9    -164   -332    144    371    397 206.3  22.2  34116  288.84 0855.26
2009/04/23 10:04:35.0     -97   -279    173    296    342 199.2  33.0  34118  288.87 0855.26
2009/04/23 10:04:35.1      -6   -176    115    177    211 182.2  35.7  34120  288.91 0855.26
2009/04/23 10:04:35.2      -6   -176    169    177    244 182.2  49.0  34120  288.91 0855.26
2009/04/23 10:04:35.3       0   -255    158    256    300 180.2  35.0  34116  288.81 0855.26
2009/04/23 10:04:35.4     222   -145    134    266    297 123.1  29.1  34116  288.81 0855.26
2009/04/23 10:04:35.5      60   -238    131    246    278 165.8  30.3  34116  288.83 0855.26
2009/04/23 10:04:35.6      62   -246    216    254    333 165.7  44.7  34112  288.75 0855.26
2009/04/23 10:04:35.7      13   -171    171    172    242 175.5  50.0  34118  288.86 0855.26
2009/04/23 10:04:35.8      13     -4    142     14    142 108.6  90.0  34128  289.02 0855.26
2009/04/23 10:04:35.9      71   -245    164    256    304 163.9  35.6  34124  288.95 0855.26
2009/04/23 10:04:36.0     295   -162    155    337    370 118.8  26.5  34120  288.88 0855.26
2009/04/23 10:04:36.1     209   -380     21    434    435 151.1   2.8  34112  288.75 0855.26
2009/04/23 10:04:36.2     239   -439    -11    500    501 151.4  -1.3  34110  288.74 0855.26
2009/04/23 10:04:36.3     235   -340    -10    414    415 145.4  -1.4  34118  288.85 0855.26
2009/04/23 10:04:36.4     161   -279    -24    323    324 150.1  -4.4  34110  288.73 0855.26
2009/04/23 10:04:36.5     120   -138     74    183    197 139.0  23.1  34110  288.72 0855.26
2009/04/23 10:04:36.6     213   -109     70    240    251 117.1  16.3  34116  288.81 0855.25
2009/04/23 10:04:36.7     170    -63    127    182    221 110.6  38.0  34118  288.87 0855.25
2009/04/23 10:04:36.8     163    -80    121    182    218 116.2  36.7  34116  288.84 0855.25
2009/04/23 10:04:36.9      12   -147     52    148    158 175.1  19.6  34116  288.84 0855.25
2009/04/23 10:04:37.0     -83   -215    199    231    304 201.2  45.1  34120  288.90 0855.25
2009/04/23 10:04:37.1    -133   -126     64    184    195 226.7  19.2  34114  288.79 0855.25
2009/04/23 10:04:37.2      32   -186    152    189    242 170.0  42.8  34120  288.89 0855.25
2009/04/23 10:04:37.3      81   -242     79    256    269 161.5  17.3  34122  288.92 0855.25
2009/04/23 10:04:37.4      69   -227     25    238    240 163.0   6.1  34118  288.85 0855.25
2009/04/23 10:04:37.5      31   -268     79    270    282 173.3  16.3  34118  288.87 0855.25
2009/04/23 10:04:37.6     100   -181    109    207    233 151.0  30.2  34120  288.89 0855.25
2009/04/23 10:04:37.7      58   -129    126    142    189 155.5  46.2  34128  289.02 0855.25
2009/04/23 10:04:37.8      64   -139     73    154    170 155.1  27.2  34120  288.89 0855.25
2009/04/23 10:04:37.9      71   -227     51    238    244 162.6  12.2  34118  288.87 0855.25
2009/04/23 10:04:38.0     119   -215     18    246    247 151.0   4.4  34108  288.70 0855.25
2009/04/23 10:04:38.1     268   -269    132    380    403 135.1  19.2  34104  288.62 0855.25
2009/04/23 10:04:38.2     190   -233    157    301    339 140.8  29.8  34104  288.61 0855.25
2009/04/23 10:04:38.3     169   -281    185    329    377 149.0  31.7  34106  288.67 0855.25
2009/04/23 10:04:38.4     185   -350    243    396    464 152.1  34.5  34104  288.63 0855.25
2009/04/23 10:04:38.5      42   -354    305    357    469 173.2  44.9  34102  288.60 0855.25
2009/04/23 10:04:38.6      71   -188    171    202    264 159.3  44.3  34112  288.76 0855.25
2009/04/23 10:04:38.7     107   -155     81    189    205 145.5  24.9  34110  288.74 0855.25
2009/04/23 10:04:38.8       0   -268     44    269    273 179.9   9.3  34106  288.66 0855.25
2009/04/23 10:04:38.9      35   -310    -23    313    314 173.5  -4.4  34114  288.78 0855.25
2009/04/23 10:04:39.0     122   -227      4    258    259 151.7   1.0  34116  288.83 0855.25
2009/04/23 10:04:39.1     188   -216    112    287    308 138.8  22.5  34100  288.54 0855.25
2009/04/23 10:04:39.2     343    -82   -121    353    374 103.5 -19.0  34110  288.71 0855.25
2009/04/23 10:04:39.3     342    -83    -45    352    355 103.7  -7.4  34110  288.72 0855.25
2009/04/23 10:04:39.4     333    -59    157    339    373 100.1  26.9  34098  288.52 0855.25
2009/04/23 10:04:39.5     243    -29     58    245    252  96.8  13.5  34092  288.41 0855.25
2009/04/23 10:04:39.6     171    -77    -42    188    193 114.2 -12.6  34112  288.75 0855.25
2009/04/23 10:04:39.7      98   -281    -19    298    299 160.6  -3.7  34108  288.68 0855.25
2009/04/23 10:04:39.8     205   -320    124    381    401 147.4  18.0  34110  288.72 0855.25
2009/04/23 10:04:39.9     163   -353     19    389    390 155.2   2.9  34104  288.62 0855.25
2009/04/23 10:04:40.0     182    -93    -20    205    207 117.1  -5.6  34110  288.74 0855.25
2009/04/23 10:04:40.1      16   -270     95    271    288 176.6  19.4  34106  288.65 0855.25
2009/04/23 10:04:40.2     -87   -428    210    438    485 191.6  27.4  34100  288.57 0855.25
2009/04/23 10:04:40.3     -19   -290    103    291    309 183.8  19.6  34102  288.59 0855.25
2009/04/23 10:04:40.4     142   -242     70    281    290 149.5  14.2  34108  288.68 0855.25
2009/04/23 10:04:40.5     278   -159     -6    321    322 119.8  -1.1  34110  288.71 0855.25
2009/04/23 10:04:40.7     224   -157    -35    274    277 125.1  -7.3  34108  288.70 0855.27
2009/04/23 10:04:40.8     115    -85    -80    144    164 126.4 -36.0  34106  288.67 0855.27
2009/04/23 10:04:40.9      98    -49    -33    110    116 116.6 -17.0  34106  288.67 0855.27
2009/04/23 10:04:41.0     174   -174    -91    247    263 135.1 -25.4  34108  288.68 0855.27
2009/04/23 10:04:41.1     122    -41    -39    129    134 108.6 -22.3  34102  288.60 0855.27
2009/04/23 10:04:41.2     -18    -69     87     72    112 195.1  56.3  34110  288.74 0855.27
2009/04/23 10:04:41.3       0    -86     -3     87     88 180.0  -2.2  34110  288.74 0855.27
2009/04/23 10:04:41.4      69   -118   -122    137    183 149.7 -51.0  34098  288.53 0855.27
2009/04/23 10:04:41.5     175     13    138    176    223  85.7  42.0  34098  288.53 0855.27
2009/04/23 10:04:41.6    -277      8    148    278    314 271.7  30.3  34112  288.76 0855.27
2009/04/23 10:04:41.7    -268     88    118    283    306 288.2  24.1  34116  288.81 0855.27
2009/04/23 10:04:41.8    -271    186    186    329    377 304.5  31.9  34116  288.84 0855.27
2009/04/23 10:04:41.9    -255    185    195    316    371 306.0  34.8  34116  288.82 0855.27
2009/04/23 10:04:42.0    -236    265    240    355    428 318.3  37.2  34114  288.80 0855.27
2009/04/23 10:04:42.1    -423    -28    238    424    486 266.2  31.9  34104  288.64 0855.27
2009/04/23 10:04:42.2    -145     13    133    146    197 275.2  47.1  34114  288.79 0855.27
2009/04/23 10:04:42.3    -225    -96     84    245    260 246.7  18.9  34102  288.58 0855.27
2009/04/23 10:04:42.4     -91    137     56    165    175 326.2  18.9  34112  288.77 0855.27
2009/04/23 10:04:42.5     -70    -19    171     73    185 254.9  75.5  34122  288.94 0855.27
2009/04/23 10:04:42.6    -518   -221     52    564    567 246.9   5.3  34108  288.69 0855.27
2009/04/23 10:04:42.7    -719   -167   -297    739    796 256.9 -27.5  34080  288.22 0855.30
2009/04/23 10:04:42.8    -467   -444   -191    645    672 226.5 -21.4  34086  288.33 0855.30
2009/04/23 10:04:42.9    -650     19    243    651    694 271.7  21.5  34114  288.80 0855.30
2009/04/23 10:04:43.0    -627     -9    -81    628    634 269.1  -7.4  34104  288.64 0855.30
2009/04/23 10:04:43.1    -816   -282    -76    864    868 250.9  -5.1  34104  288.63 0855.30
2009/04/23 10:04:43.2    -874   -234    -49    905    907 255.0  -3.1  34084  288.29 0855.30
2009/04/23 10:04:43.3   -1003    106    -89   1009   1014 276.1  -5.1  34094  288.47 0855.30
2009/04/23 10:04:43.4    -947    118    -50    955    957 277.1  -3.0  34092  288.42 0855.30
2009/04/23 10:04:43.5    -790    108   -162    798    815 277.8 -11.5  34098  288.52 0855.30
2009/04/23 10:04:43.6    -533     69    -57    538    542 277.5  -6.1  34110  288.74 0855.30
2009/04/23 10:04:43.7    -302    197   -110    361    377 303.2 -21.8  34106  288.67 0855.30
2009/04/23 10:04:43.8    -523    305    283    606    668 300.2  26.9  34118  288.87 0855.30
2009/04/23 10:04:43.9    -605   -238    296    651    715 248.5  26.2  34120  288.90 0855.30
2009/04/23 10:04:44.0    -669   -168    187    690    716 255.8  15.2  34128  289.03 0855.30
2009/04/23 10:04:44.1    -494   -260     23    559    560 242.2   2.4  34116  288.84 0855.30
2009/04/23 10:04:44.2    -387   -127    -12    408    409 251.8  -1.7  34126  288.99 0855.30
2009/04/23 10:04:44.3    -438   -212    133    487    505 244.1  15.3  34096  288.49 0855.30
2009/04/23 10:04:44.4    -494   -325     84    592    599 236.7   8.1  34104  288.64 0855.30
2009/04/23 10:04:44.5    -400    -49    -66    404    410 262.9  -9.4  34108  288.70 0855.30
2009/04/23 10:04:44.6    -218   -111    163    245    294 242.9  37.0  34110  288.71 0855.30
2009/04/23 10:04:44.7    -111    -79    242    137    278 234.5  68.1  34128  289.03 0855.32
2009/04/23 10:04:44.8      73    -56    179     93    201 127.3  70.6  34134  289.14 0855.32
2009/04/23 10:04:44.9      25    -64    205     69    216 158.2  81.2  34138  289.21 0855.32
2009/04/23 10:04:45.0     -12   -121    243    122    271 185.8  71.7  34136  289.15 0855.32
2009/04/23 10:04:45.1      43   -434    161    437    465 174.3  21.0  34112  288.75 0855.32
2009/04/23 10:04:45.2     151   -448     78    474    481 161.3   9.4  34108  288.68 0855.32
2009/04/23 10:04:45.3     149   -313    132    347    371 154.5  21.8  34104  288.62 0855.32
2009/04/23 10:04:45.4     104   -327    164    344    381 162.3  27.3  34100  288.57 0855.32
2009/04/23 10:04:45.5     110   -395     49    411    414 164.4   6.9  34100  288.56 0855.32
2009/04/23 10:04:45.6     124   -393    112    413    429 162.5  15.2  34096  288.48 0855.32
2009/04/23 10:04:45.7       0   -377    131    378    401 179.9  19.2  34100  288.55 0855.32
2009/04/23 10:04:45.8     -34   -347    186    349    395 185.7  30.3  34096  288.50 0855.32
2009/04/23 10:04:45.9     -54   -208    160    215    268 194.7  40.4  34098  288.53 0855.32
2009/04/23 10:04:46.0     -71   -201    229    214    313 199.6  52.2  34106  288.66 0855.32
2009/04/23 10:04:46.1      -9   -112    174    113    207 184.9  64.4  34114  288.79 0855.32
2009/04/23 10:04:46.2    -139   -193    139    239    276 215.8  32.9  34108  288.70 0855.32
2009/04/23 10:04:46.3    -120   -275    143    301    333 203.6  27.3  34102  288.59 0855.32
2009/04/23 10:04:46.4      -5   -123    151    124    195 182.6  56.4  34116  288.84 0855.32
2009/04/23 10:04:46.5       1    -74    131     75    150 179.1  67.7  34116  288.82 0855.32
2009/04/23 10:04:46.6     -49   -130    114    140    180 200.9  43.7  34112  288.77 0855.32
2009/04/23 10:04:46.7    -206   -203    147    290    325 225.3  28.7  34106  288.66 0855.32
2009/04/23 10:04:46.8    -244    -79    116    257    281 252.1  25.9  34112  288.75 0855.32
2009/04/23 10:04:46.9    -172     36    111    176    208 281.9  35.5  34110  288.74 0855.32
2009/04/23 10:04:47.0    -214     13     80    215    229 273.7  21.0  34110  288.74 0855.32
2009/04/23 10:04:47.1    -127    -73     85    147    169 240.2  32.9  34118  288.87 0855.32
2009/04/23 10:04:47.2     -67    -67     62     95    113 225.0  35.6  34118  288.86 0855.32
2009/04/23 10:04:47.3    -120   -144     88    188    207 219.7  27.1  34108  288.70 0855.32
2009/04/23 10:04:47.4    -129   -111    134    171    217 229.1  42.2  34120  288.89 0855.32
2009/04/23 10:04:47.5    -256    -95     87    274    288 249.6  17.7  34126  289.00 0855.32
2009/04/23 10:04:47.6    -310     -3     61    311    317 269.4  11.1  34128  289.02 0855.32
2009/04/23 10:04:47.7    -294    -89     60    308    314 253.1  11.1  34134  289.12 0855.32
2009/04/23 10:04:47.8    -270    -73    -94    280    295 254.9 -23.3  34128  289.03 0855.32
2009/04/23 10:04:47.9    -215   -210     28    301    303 225.6   5.4  34130  289.07 0855.32
2009/04/23 10:04:48.0    -250   -250     75    354    362 225.0  12.0  34130  289.06 0855.32
2009/04/23 10:04:48.1    -310   -267     76    410    418 229.2  10.6  34136  289.16 0855.32
2009/04/23 10:04:48.2    -409   -252    164    481    509 238.4  18.8  34112  288.76 0855.32
2009/04/23 10:04:48.3    -435   -126     12    453    454 253.8   1.6  34112  288.77 0855.32
2009/04/23 10:04:48.4    -324   -364    134    488    507 221.7  15.4  34104  288.62 0855.32
2009/04/23 10:04:48.5    -292   -356    179    461    494 219.3  22.4  34106  288.66 0855.32
2009/04/23 10:04:48.6    -324   -407    174    521    550 218.5  18.5  34104  288.63 0855.32
2009/04/23 10:04:48.7    -331   -381    141    505    525 221.0  15.6  34104  288.64 0855.29
2009/04/23 10:04:48.8    -318   -460    211    560    598 214.7  21.6  34108  288.68 0855.29
2009/04/23 10:04:48.9    -328   -527    198    621    652 211.9  17.7  34106  288.65 0855.29
2009/04/23 10:04:49.0    -194   -569    208    602    638 198.8  19.1  34110  288.72 0855.29
2009/04/23 10:04:49.1    -134   -485    118    504    518 195.5  13.2  34130  289.08 0855.29
2009/04/23 10:04:49.2    -368   -505     17    626    627 216.1   1.6  34156  289.50 0855.29
2009/04/23 10:04:49.3    -362   -409    -95    547    556 221.5  -9.9  34120  288.89 0855.29
2009/04/23 10:04:49.4    -327   -388   -101    508    519 220.2 -11.3  34126  289.00 0855.29
2009/04/23 10:04:49.5    -258   -321   -133    412    434 218.8 -17.9  34116  288.82 0855.29
2009/04/23 10:04:49.6    -220   -371    -19    432    433 210.7  -2.6  34122  288.94 0855.29
2009/04/23 10:04:49.7    -203   -403   -124    452    469 206.7 -15.4  34114  288.78 0855.29
2009/04/23 10:04:49.8     -96   -281   -112    298    318 198.9 -26.0  34110  288.73 0855.29
2009/04/23 10:04:49.9     -37   -206      0    210    211 190.2   0.2  34114  288.79 0855.29
2009/04/23 10:04:50.0       1   -276     25    277    279 179.8   5.2  34110  288.71 0855.29
2009/04/23 10:04:50.1      32   -468     92    470    480 176.0  11.1  34116  288.83 0855.29
2009/04/23 10:04:50.2     -13   -334    232    335    407 182.2  38.0  34124  288.96 0855.29
2009/04/23 10:04:50.3     170   -396    132    432    452 156.7  17.1  34108  288.68 0855.29
2009/04/23 10:04:50.4     138   -396     52    420    424 160.7   7.1  34110  288.73 0855.29
2009/04/23 10:04:50.5     207   -371    107    425    439 150.8  14.2  34106  288.67 0855.29
2009/04/23 10:04:50.6      52   -271    133    277    307 169.1  27.3  34114  288.78 0855.29
2009/04/23 10:04:50.7      15   -200    134    201    241 175.5  36.5  34112  288.77 0855.27
2009/04/23 10:04:50.8      -4   -255    148    256    295 181.1  32.7  34114  288.80 0855.27
2009/04/23 10:04:50.9      76   -159    172    177    246 154.5  49.2  34116  288.84 0855.27
2009/04/23 10:04:51.0      30   -147    149    151    212 168.4  50.0  34120  288.89 0855.27
2009/04/23 10:04:51.1       5    -65    156     66    169 175.6  75.5  34122  288.92 0855.27
2009/04/23 10:04:51.2     -33    -39    137     52    146 220.5  78.6  34122  288.94 0855.27
2009/04/23 10:04:51.3     -58     -4    132     59    144 265.7  74.5  34136  289.16 0855.27
2009/04/23 10:04:51.4       9    -69    131     70    148 172.0  69.3  34122  288.92 0855.27
2009/04/23 10:04:51.5     104    -93    134    140    193 131.8  49.0  34108  288.70 0855.27
2009/04/23 10:04:51.6     187     34    199    191    275  79.6  51.2  34112  288.76 0855.27
2009/04/23 10:04:51.7     149     11    235    150    278  85.7  64.6  34110  288.71 0855.27
2009/04/23 10:04:51.8     128     -5    224    129    258  92.6  67.7  34114  288.80 0855.27
2009/04/23 10:04:51.9     305    -48    275    309    413  99.0  46.3  34114  288.79 0855.27
2009/04/23 10:04:52.0     170     26    218    173    278  81.2  57.7  34112  288.75 0855.27
2009/04/23 10:04:52.1     186    -57    220    195    293 107.3  54.2  34118  288.87 0855.27
2009/04/23 10:04:52.2     226    -16    258    227    343  94.1  54.4  34118  288.85 0855.27
2009/04/23 10:04:52.3      57    -14    213     59    221 104.2  84.6  34126  288.99 0855.27
2009/04/23 10:04:52.4     -53    -55    166     77    182 224.2  73.5  34130  289.06 0855.27
2009/04/23 10:04:52.5      86   -153    183    176    253 150.6  51.2  34130  289.08 0855.27
2009/04/23 10:04:52.6     111   -212    260    240    353 152.4  52.5  34124  288.95 0855.27
2009/04/23 10:04:52.7      60     -4    182     61    191  94.4  81.0  34128  289.04 0855.27
2009/04/23 10:04:52.8      10    -33    188     35    191 163.1  90.0  34128  289.02 0855.27
2009/04/23 10:04:52.9       2   -165    227    166    281 179.3  60.5  34124  288.95 0855.27
2009/04/23 10:04:53.0     103    -66    193    123    228 122.5  64.6  34118  288.86 0855.27
2009/04/23 10:04:53.1      -4    -61    155     62    166 184.5  77.1  34120  288.89 0855.27
2009/04/23 10:04:53.2      90   -162    225    186    291 150.8  56.3  34122  288.92 0855.27
2009/04/23 10:04:53.3      68    -69    153     98    181 135.3  64.6  34124  288.97 0855.27
2009/04/23 10:04:53.4      64    -67    126     94    157 136.3  59.4  34118  288.87 0855.27
2009/04/23 10:04:53.5     112   -115    137    161    211 135.9  44.8  34116  288.82 0855.27
2009/04/23 10:04:53.6      42   -252    129    256    286 170.4  28.7  34120  288.88 0855.27
2009/04/23 10:04:53.7      53   -259    219    265    343 168.4  43.8  34118  288.85 0855.23
2009/04/23 10:04:53.8     173   -147    159    228    277 130.4  38.4  34134  289.12 0855.23
2009/04/23 10:04:53.9     130   -191    152    232    277 145.7  36.5  34132  289.09 0855.23
2009/04/23 10:04:54.0     173   -208     80    271    283 140.3  16.6  34130  289.05 0855.23
2009/04/23 10:04:54.1     261   -213     72    338    346 129.2  12.1  34146  289.33 0855.23
2009/04/23 10:04:54.2     211   -243     28    323    325 139.0   5.1  34132  289.09 0855.23
2009/04/23 10:04:54.3     268   -268    174    380    417 135.0  26.3  34130  289.05 0855.23
2009/04/23 10:04:54.4      31   -221    212    224    308 171.9  48.2  34136  289.15 0855.23
2009/04/23 10:04:54.5      81   -176    164    194    254 155.3  44.5  34130  289.05 0855.23
2009/04/23 10:04:54.6     -24   -195    237    197    308 187.1  56.3  34140  289.22 0855.23
2009/04/23 10:04:54.7     -79   -180    184    197    269 203.8  48.0  34140  289.24 0855.23
2009/04/23 10:04:54.8     -21   -150    -43    152    157 188.0 -20.4  34138  289.19 0855.23
2009/04/23 10:04:54.9    -174    -93   -257    198    324 241.8 -63.0  34120  288.90 0855.23
2009/04/23 10:04:55.0    -122   -346   -263    368    452 199.5 -43.7  34110  288.73 0855.23
2009/04/23 10:04:55.1    -243   -337    -11    416    417 215.9  -1.6  34124  288.95 0855.23
2009/04/23 10:04:55.2    -260   -165    -36    309    312 237.6  -6.8  34126  289.00 0855.23
2009/04/23 10:04:55.3    -200   -170   -176    263    316 229.6 -41.4  34114  288.80 0855.23
2009/04/23 10:04:55.4    -272    -64   -186    280    336 256.7 -41.1  34124  288.97 0855.23
2009/04/23 10:04:55.5    -213   -226   -230    311    386 223.3 -44.4  34106  288.67 0855.23
2009/04/23 10:04:55.6    -223   -189   -213    293    362 229.8 -44.1  34100  288.57 0855.23
2009/04/23 10:04:55.7    -296    -43   -172    300    345 261.6 -36.8  34110  288.71 0855.20
2009/04/23 10:04:55.8    -253     15   -143    254    291 273.5 -36.3  34118  288.85 0855.20
2009/04/23 10:04:55.9    -216    -26    -52    218    225 263.0 -13.4  34118  288.87 0855.20
2009/04/23 10:04:56.0    -209    -22    -26    211    213 263.9  -7.2  34116  288.84 0855.20
2009/04/23 10:04:56.1    -292     73    -35    302    305 284.2  -6.7  34116  288.81 0855.20
2009/04/23 10:04:56.2    -243     25   -110    245    268 276.1 -30.6  34108  288.70 0855.20
2009/04/23 10:04:56.3    -233     12    -83    234    249 273.0 -19.7  34108  288.70 0855.20
2009/04/23 10:04:56.4    -192    -34    -39    196    200 259.9 -11.3  34106  288.67 0855.20
2009/04/23 10:04:56.5    -236    -63    -87    245    261 254.9 -19.7  34098  288.51 0855.20
2009/04/23 10:04:56.6    -219    -79    -77    233    245 250.1 -23.8  34096  288.48 0855.20
2009/04/23 10:04:56.7    -197    -53    -87    205    222 254.9 -28.7  34092  288.43 0855.20
2009/04/23 10:04:56.8     -94   -162    -16    188    189 210.1  -4.9  34100  288.57 0855.20
2009/04/23 10:04:56.9    -146   -133    -14    198    199 227.6  -4.1  34110  288.74 0855.20
2009/04/23 10:04:57.0    -235    -82    -19    249    250 250.7  -4.6  34104  288.63 0855.20
2009/04/23 10:04:57.1    -226    -54     -9    233    234 256.5  -2.2  34110  288.73 0855.20
2009/04/23 10:04:57.2    -241    -29    -23    243    245 263.0  -5.6  34110  288.73 0855.20
2009/04/23 10:04:57.3    -177    -91    -40    200    205 242.7 -11.5  34116  288.84 0855.20
2009/04/23 10:04:57.4     -93   -152    -39    179    184 211.6 -12.4  34116  288.84 0855.20
2009/04/23 10:04:57.5     -66   -157    -35    171    175 202.9 -11.6  34118  288.86 0855.20
2009/04/23 10:04:57.6     -27   -132     16    135    136 191.6   6.9  34118  288.86 0855.20
2009/04/23 10:04:57.7       4   -130    -10    131    132 178.2  -4.6  34112  288.77 0855.21
2009/04/23 10:04:57.8     -25   -175      5    177    178 188.2   1.8  34114  288.79 0855.21
2009/04/23 10:04:57.9      24   -171     10    173    174 171.8   3.6  34114  288.79 0855.21
2009/04/23 10:04:58.0      36   -140    -43    145    152 165.3 -16.6  34114  288.80 0855.21
2009/04/23 10:04:58.1      68   -126    -60    144    156 151.5 -28.0  34112  288.77 0855.21
2009/04/23 10:04:58.2      63   -122    -32    138    142 152.8 -13.4  34116  288.82 0855.21
2009/04/23 10:04:58.3      78   -156    -84    175    194 153.3 -31.7  34118  288.87 0855.21
2009/04/23 10:04:58.4      44   -109   -120    118    168 158.1 -54.5  34122  288.92 0855.21
2009/04/23 10:04:58.5      47   -118    -85    128    153 158.2 -40.4  34124  288.96 0855.21
2009/04/23 10:04:58.6      62   -130    -52    145    155 154.5 -19.7  34122  288.94 0855.21
2009/04/23 10:04:58.7      48    -94    -74    106    129 152.8 -42.4  34122  288.92 0855.21
2009/04/23 10:04:58.8       0    -58    -90     59    107 180.9 -69.0  34124  288.96 0855.21
2009/04/23 10:04:58.9      -1     -6    -81      7     81 189.7 -90.0  34122  288.92 0855.21
2009/04/23 10:04:59.0     -39      0    -93     40    101 270.0 -79.9  34114  288.80 0855.21
2009/04/23 10:04:59.1     -82    -14   -117     84    144 259.9 -65.0  34110  288.72 0855.21
2009/04/23 10:04:59.2      41    -78   -125     89    153 151.9 -65.5  34116  288.82 0855.21
2009/04/23 10:04:59.3     -79   -134    -90    156    180 210.7 -37.1  34118  288.86 0855.21
2009/04/23 10:04:59.4    -158   -168    -75    231    243 223.3 -18.1  34122  288.92 0855.21
2009/04/23 10:04:59.5    -200   -159    -91    256    272 231.6 -19.6  34120  288.88 0855.21
2009/04/23 10:04:59.6    -208   -172    -57    271    277 230.4 -11.9  34118  288.85 0855.21
2009/04/23 10:04:59.7    -270   -102   -123    289    314 249.2 -29.0  34110  288.71 0855.19
2009/04/23 10:04:59.8    -216   -151    -80    264    277 234.9 -17.0  34110  288.71 0855.19
2009/04/23 10:04:59.9    -218    -80    -38    233    237 249.8  -9.3  34108  288.70 0855.19
2009/04/23 10:05:00.0    -324   -305     38    446    448 226.7   5.0  34110  288.72 0855.19
2009/04/23 10:05:00.1    -317   -334    -60    461    465 223.5  -7.5  34094  288.46 0855.19
2009/04/23 10:05:00.2    -298   -298   -134    422    443 225.0 -17.7  34098  288.53 0855.19
2009/04/23 10:05:00.3    -257   -310   -120    403    420 219.7 -21.6  34098  288.53 0855.19
2009/04/23 10:05:00.4    -166   -287   -136    332    358 210.1 -27.9  34096  288.50 0855.19
2009/04/23 10:05:00.5    -127   -231   -206    264    334 208.9 -46.5  34100  288.56 0855.19
2009/04/23 10:05:00.6    -241   -249   -177    347    389 224.0 -33.7  34100  288.54 0855.19
2009/04/23 10:05:00.7    -154   -154   -129    219    254 225.0 -37.8  34102  288.59 0855.19
2009/04/23 10:05:00.8    -149   -106   -150    183    236 234.5 -48.1  34104  288.62 0855.19
2009/04/23 10:05:00.9    -146   -112   -122    185    221 232.5 -40.7  34100  288.57 0855.19
2009/04/23 10:05:01.0    -103    -14   -122    104    160 262.1 -59.4  34106  288.67 0855.19
2009/04/23 10:05:01.1    -143    -47   -179    151    234 251.8 -60.0  34110  288.74 0855.19
2009/04/23 10:05:01.2    -149    -65   -153    163    223 246.5 -52.4  34118  288.87 0855.19
2009/04/23 10:05:01.3    -110     -1   -130    111    170 269.1 -59.8  34118  288.87 0855.19
2009/04/23 10:05:01.4    -187    -14    -98    188    212 265.6 -34.2  34120  288.91 0855.19
2009/04/23 10:05:01.5    -197     24   -119    199    231 277.2 -38.4  34140  289.23 0855.19
2009/04/23 10:05:01.6    -170      0   -129    171    214 270.0 -45.3  34144  289.30 0855.19
2009/04/23 10:05:01.7    -154      0   -126    155    199 270.4 -47.9  34140  289.23 0855.21
2009/04/23 10:05:01.8    -136    -25   -115    139    180 259.4 -48.2  34142  289.26 0855.21
2009/04/23 10:05:01.9    -147     -9   -104    148    180 266.5 -43.2  34140  289.23 0855.21
2009/04/23 10:05:02.0    -172    -35    -70    176    189 258.3 -27.4  34130  289.06 0855.21
2009/04/23 10:05:02.1    -131     11   -106    132    169 275.2 -47.7  34136  289.18 0855.21
2009/04/23 10:05:02.2     -90      0   -117     91    148 270.0 -62.8  34128  289.02 0855.21
2009/04/23 10:05:02.3     -51    -42    -64     67     92 230.5 -53.4  34128  289.02 0855.21
2009/04/23 10:05:02.4      21   -124    -31    126    130 170.2 -13.9  34124  288.96 0855.21
2009/04/23 10:05:02.5      39    -62     -9     74     75 147.4  -7.3  34124  288.97 0855.21
2009/04/23 10:05:02.6     -29    -71     62     77     98 202.7  43.7  34130  289.08 0855.21
2009/04/23 10:05:02.7     -69   -115     56    135    146 210.8  23.1  34132  289.11 0855.21
2009/04/23 10:05:02.8    -110   -131     63    172    183 220.1  20.7  34134  289.13 0855.21
2009/04/23 10:05:02.9    -146    -69     30    162    165 244.8  10.6  34130  289.08 0855.21
2009/04/23 10:05:03.0    -118   -135     13    180    181 221.0   4.2  34118  288.87 0855.21
2009/04/23 10:05:03.1    -104   -161      0    192    193 213.0   0.2  34114  288.79 0855.21
2009/04/23 10:05:03.2     -76   -149    -31    168    171 207.2 -10.5  34112  288.75 0855.21
2009/04/23 10:05:03.3    -145    -69     -8    161    162 244.2  -3.1  34130  289.08 0855.21
2009/04/23 10:05:03.4    -130    -37     -5    136    137 254.1  -2.2  34130  289.06 0855.21
2009/04/23 10:05:03.5    -131    -31     40    135    141 256.3  16.8  34128  289.02 0855.21
2009/04/23 10:05:03.6    -153    -16     42    154    160 263.8  15.3  34124  288.96 0855.21
2009/04/23 10:05:03.7    -177    -52     19    185    187 253.4   6.1  34128  289.02 0855.24
2009/04/23 10:05:03.8    -160    -80     99    180    205 243.4  31.4  34132  289.11 0855.24
2009/04/23 10:05:03.9    -141    -53     18    151    153 249.2   7.1  34138  289.19 0855.24
2009/04/23 10:05:04.0    -121    -32     39    126    133 255.0  17.4  34144  289.30 0855.24
2009/04/23 10:05:04.1    -133    -39     62    139    152 253.6  25.7  34136  289.18 0855.24
2009/04/23 10:05:04.2    -199    -34     39    202    206 260.3  11.1  34132  289.11 0855.24
2009/04/23 10:05:04.3    -138   -114    -25    180    182 230.5  -8.0  34116  288.84 0855.24
2009/04/23 10:05:04.4    -151    -69    -39    167    172 245.4 -13.2  34116  288.84 0855.24
2009/04/23 10:05:04.5    -231     25    -74    233    244 276.4 -22.8  34118  288.87 0855.24
2009/04/23 10:05:04.6    -179    -14    -63    180    191 265.4 -19.4  34128  289.02 0855.24
2009/04/23 10:05:04.7    -152   -114     24    190    192 233.1   7.5  34128  289.02 0855.24
2009/04/23 10:05:04.8     -82    -82    -26    116    120 225.0 -12.9  34124  288.96 0855.24
2009/04/23 10:05:04.9    -156     11    -11    157    158 274.4  -4.1  34132  289.11 0855.24
2009/04/23 10:05:05.0    -130    -17      6    132    133 262.5   2.8  34138  289.19 0855.24
2009/04/23 10:05:05.1     -70    -80     -4    107    108 221.0  -2.2  34130  289.06 0855.24
2009/04/23 10:05:05.2     -30   -139    119    143    186 192.5  43.8  34124  288.96 0855.24
2009/04/23 10:05:05.3     -38   -158     -3    163    164 193.6  -1.3  34124  288.96 0855.24
2009/04/23 10:05:05.4     -88   -149    -52    174    182 210.5 -16.8  34120  288.91 0855.24
2009/04/23 10:05:05.5    -103    -86     55    135    145 230.4  23.1  34112  288.77 0855.24
2009/04/23 10:05:05.6     -63   -198     88    208    225 197.8  24.3  34122  288.92 0855.24
2009/04/23 10:05:05.7     -72   -239     53    250    256 197.0  12.2  34122  288.93 0855.26
2009/04/23 10:05:05.8    -123   -214     30    248    250 209.9   7.1  34118  288.85 0855.26
2009/04/23 10:05:05.9     -90   -249     -5    265    266 200.0  -1.3  34116  288.81 0855.26
2009/04/23 10:05:06.0     -78   -259    -59    271    278 196.9 -12.4  34112  288.76 0855.26
2009/04/23 10:05:06.1     -63   -264    -39    272    275 193.6  -8.3  34118  288.87 0855.26
2009/04/23 10:05:06.2     -85   -279    -59    292    299 196.9 -11.6  34114  288.80 0855.26
2009/04/23 10:05:06.3     -95   -293   -106    309    327 198.0 -19.1  34116  288.83 0855.26
2009/04/23 10:05:06.4     -58   -244    -57    251    258 193.4 -12.9  34114  288.80 0855.26
2009/04/23 10:05:06.5      28   -216    -94    218    237 172.4 -29.3  34126  288.99 0855.26
2009/04/23 10:05:06.6      36   -331    -46    334    338 173.8  -7.9  34112  288.76 0855.26
2009/04/23 10:05:06.7      66   -304     40    312    315 167.6   7.4  34112  288.75 0855.26
2009/04/23 10:05:06.8      95   -281     69    297    305 161.3  13.1  34114  288.78 0855.26
2009/04/23 10:05:06.9     111   -254     22    278    279 156.4   4.6  34116  288.83 0855.26
2009/04/23 10:05:07.0      62   -226    -51    235    241 164.6 -12.4  34114  288.78 0855.26
2009/04/23 10:05:07.1      54   -233    -66    240    248 166.9 -20.2  34124  288.95 0855.26
2009/04/23 10:05:07.2      25   -181    -67    183    194 172.0 -24.8  34124  288.96 0855.26
2009/04/23 10:05:07.3      56   -196    -82    204    219 164.0 -27.5  34132  289.11 0855.26
2009/04/23 10:05:07.4      91   -194    -77    215    229 154.7 -19.7  34118  288.87 0855.26
2009/04/23 10:05:07.5     102   -169    -58    198    207 149.0 -16.4  34114  288.80 0855.26
2009/04/23 10:05:07.6     106   -158    -81    191    207 146.2 -29.0  34118  288.87 0855.26
2009/04/23 10:05:07.7     104   -162    -52    193    200 147.3 -15.2  34118  288.87 0855.27
2009/04/23 10:05:07.8     157   -158    -54    223    230 135.2 -13.7  34114  288.79 0855.27
2009/04/23 10:05:07.9     161   -181    -63    243    252 138.5 -14.7  34116  288.81 0855.27
2009/04/23 10:05:08.0     142   -157    -70    212    224 137.9 -18.3  34118  288.87 0855.27
2009/04/23 10:05:08.1     161   -152    -63    222    231 133.3 -16.0  34114  288.80 0855.27
2009/04/23 10:05:08.2     172   -175    -49    246    251 135.5 -11.3  34114  288.80 0855.27
2009/04/23 10:05:08.3     189   -166    -31    252    255 131.3  -7.2  34114  288.78 0855.27
2009/04/23 10:05:08.5     175   -141     -6    226    227 128.9  -1.6  34112  288.77 0855.27
2009/04/23 10:05:08.6     191   -164     16    253    254 130.7   3.8  34118  288.87 0855.27
2009/04/23 10:05:08.7     150   -194     62    246    254 142.2  14.2  34120  288.90 0855.27
2009/04/23 10:05:08.8      88   -211     55    229    236 157.3  13.5  34118  288.85 0855.27
2009/04/23 10:05:08.9      54   -203     79    211    225 165.1  21.3  34114  288.80 0855.27
2009/04/23 10:05:09.0      89   -178     97    200    222 153.3  27.3  34112  288.75 0855.27
2009/04/23 10:05:09.1      99   -219     69    241    251 155.5  16.0  34114  288.78 0855.27
2009/04/23 10:05:09.2     119   -206     58    239    246 149.9  13.7  34112  288.76 0855.27
2009/04/23 10:05:09.3     175   -186     40    256    260 136.8   9.0  34112  288.76 0855.27
2009/04/23 10:05:09.4     151   -203     49    254    259 143.3  11.0  34116  288.83 0855.27
2009/04/23 10:05:09.5     136   -186     74    231    243 143.9  17.9  34114  288.78 0855.27
2009/04/23 10:05:09.6     152   -128     62    199    209 130.2  17.4  34112  288.75 0855.27
2009/04/23 10:05:09.7     160   -194     69    252    262 140.4  15.3  34114  288.80 0855.27
2009/04/23 10:05:09.8     163   -197    125    257    285 140.4  27.4  34116  288.81 0855.25
2009/04/23 10:05:09.9     214   -135     94    253    269 122.2  21.0  34118  288.85 0855.25
2009/04/23 10:05:10.0     215   -164    125    271    298 127.3  26.6  34118  288.85 0855.25
2009/04/23 10:05:10.1     212   -180     44    279    283 130.4   9.0  34120  288.90 0855.25
2009/04/23 10:05:10.2     188   -144     66    237    247 127.5  15.6  34122  288.92 0855.25
2009/04/23 10:05:10.3     169   -138     79    219    232 129.3  20.4  34120  288.89 0855.25
2009/04/23 10:05:10.4     167   -133     96    214    234 128.6  25.9  34120  288.89 0855.25
2009/04/23 10:05:10.5     138   -117    112    182    213 130.4  35.0  34124  288.97 0855.25
2009/04/23 10:05:10.6     139   -108    106    177    206 128.0  33.5  34122  288.92 0855.25
2009/04/23 10:05:10.7      31    -71    139     78    159 156.4  68.3  34130  289.08 0855.25
2009/04/23 10:05:10.8      78   -100    119    127    174 142.1  48.5  34130  289.08 0855.25
2009/04/23 10:05:10.9      85    -33     82     92    123 111.3  46.9  34134  289.14 0855.25
2009/04/23 10:05:11.0      79    -53    104     96    141 123.7  52.2  34132  289.09 0855.25
2009/04/23 10:05:11.1      19    -40     97     45    106 154.6  73.5  34136  289.18 0855.25
2009/04/23 10:05:11.2     113    -30    108    118    159 105.1  47.5  34128  289.02 0855.25
2009/04/23 10:05:11.3      55    -80    113     98    149 145.3  54.8  34136  289.16 0855.25
2009/04/23 10:05:11.4      21    -49    118     54    129 156.4  73.5  34134  289.14 0855.25
2009/04/23 10:05:11.5      11      0     99     12     99  90.8  90.0  34140  289.23 0855.25
2009/04/23 10:05:11.6     -26     26     73     37     81 315.0  71.4  34134  289.13 0855.25
2009/04/23 10:05:11.7       0    -20     73     21     75 182.7  82.8  34134  289.13 0855.25
2009/04/23 10:05:11.8       4     -5     79      7     79 140.4  90.0  34136  289.18 0855.27
2009/04/23 10:05:11.9     -19     30     80     36     87 327.5  74.5  34142  289.26 0855.27
2009/04/23 10:05:12.0      -5    -70     89     71    113 184.4  56.9  34128  289.04 0855.27
2009/04/23 10:05:12.1       7    -62     90     63    109 172.9  61.5  34130  289.06 0855.27
2009/04/23 10:05:12.2       7    -23     63     25     67 161.5  77.1  34136  289.18 0855.27
2009/04/23 10:05:12.3       5    -37     71     38     80 172.0  69.8  34134  289.14 0855.27
2009/04/23 10:05:12.4      56    -26     59     62     85 115.2  49.0  34140  289.24 0855.27
2009/04/23 10:05:12.5      33      2     67     34     75  85.6  71.9  34140  289.23 0855.27
2009/04/23 10:05:12.6       0     28     32     29     43 359.1  52.2  34136  289.18 0855.27
2009/04/23 10:05:12.7      25     16     59     30     66  57.6  70.8  34142  289.26 0855.27
2009/04/23 10:05:12.8      24      8     37     26     45  71.8  62.6  34138  289.19 0855.27
2009/04/23 10:05:12.9      27     35     32     45     55  37.0  38.6  34132  289.11 0855.27
2009/04/23 10:05:13.0       0     15     26     16     30 357.3  64.7  34136  289.18 0855.27
2009/04/23 10:05:13.1     -27     11     -9     30     32 293.5 -17.6  34130  289.08 0855.27
2009/04/23 10:05:13.2     -91     11     11     92     93 277.5   6.9  34134  289.13 0855.27
2009/04/23 10:05:13.3     -98     46     46    109    118 295.2  24.1  34132  289.09 0855.27
2009/04/23 10:05:13.4     -98    111     88    149    173 318.5  33.7  34132  289.11 0855.27
2009/04/23 10:05:13.5     -31     83     80     89    119 339.1  46.9  34132  289.09 0855.27
2009/04/23 10:05:13.6     -15     32     70     36     78 334.5  70.8  34134  289.14 0855.27
2009/04/23 10:05:13.7     -37     12     56     40     68 288.6  60.6  34132  289.09 0855.27
2009/04/23 10:05:13.8     -81     42     49     92    104 297.5  30.8  34132  289.11 0855.28
2009/04/23 10:05:13.9     -83     73     61    111    126 311.3  31.4  34132  289.09 0855.28
2009/04/23 10:05:14.0    -100     36     39    107    113 290.0  20.0  34134  289.13 0855.28
2009/04/23 10:05:14.1     -85     41     65     95    115 296.2  37.6  34136  289.16 0855.28
2009/04/23 10:05:14.2      -2     16     61     17     63 352.0  83.9  34138  289.19 0855.28
2009/04/23 10:05:14.3      16    -34     35     38     51 154.6  47.9  34140  289.24 0855.28
2009/04/23 10:05:14.4     -33    -53     35     63     72 212.5  31.4  34140  289.23 0855.28
2009/04/23 10:05:14.5     -69    -21     73     73    103 253.2  50.1  34138  289.19 0855.28
2009/04/23 10:05:14.6    -139      8     30    140    144 273.5  12.2  34156  289.50 0855.28
2009/04/23 10:05:14.7    -147     20      9    149    150 278.0   3.8  34164  289.63 0855.28
2009/04/23 10:05:14.8    -151     38    -21    156    158 284.2  -7.7  34158  289.55 0855.27
2009/04/23 10:05:14.9    -106     15     29    108    112 278.0  15.3  34148  289.36 0855.27
2009/04/23 10:05:15.0     -66     49     49     83     96 306.4  34.0  34152  289.43 0855.27
2009/04/23 10:05:15.1     -81     52     72     97    120 302.9  40.1  34148  289.38 0855.27
2009/04/23 10:05:15.2     -66     54     69     86    110 309.5  43.7  34152  289.45 0855.27
2009/04/23 10:05:15.3     -14      6    115     16    116 295.3  90.0  34172  289.79 0855.27
2009/04/23 10:05:15.4       0    -49     84     50     97 180.9  65.7  34172  289.77 0855.27
2009/04/23 10:05:15.5     -24    -40     72     47     85 211.6  64.1  34168  289.72 0855.27
2009/04/23 10:05:15.6     -34      3    101     35    106 276.1  81.2  34160  289.58 0855.27
2009/04/23 10:05:15.7     -55     20    123     59    136 290.0  72.8  34162  289.62 0855.27
2009/04/23 10:05:15.8     -86     72     73    113    134 310.0  35.6  34150  289.40 0855.27
2009/04/23 10:05:15.9     -47     50     72     69     99 316.7  51.2  34142  289.28 0855.27
2009/04/23 10:05:16.0      -5     31     42     32     52 350.2  57.5  34142  289.26 0855.27
2009/04/23 10:05:16.1      30     25     65     40     76  50.5  64.7  34142  289.26 0855.27
2009/04/23 10:05:16.2       0     -7     74      8     74 182.7  90.0  34152  289.43 0855.27
2009/04/23 10:05:16.3     -50     23     58     56     80 295.2  50.7  34140  289.24 0855.27
2009/04/23 10:05:16.4     -27     77     74     82    110 340.4  46.9  34142  289.26 0855.27
2009/04/23 10:05:16.5     -86     85    105    122    160 314.8  45.4  34136  289.16 0855.27
2009/04/23 10:05:16.6     -89     91    100    128    162 315.5  42.2  34140  289.23 0855.27
2009/04/23 10:05:16.7     -26     87     92     92    130 343.1  50.1  34142  289.26 0855.27
2009/04/23 10:05:16.8      26     68     90     73    115  20.9  56.4  34140  289.23 0855.27
2009/04/23 10:05:16.9       7     80     53     81     96   5.3  35.6  34134  289.14 0855.27
2009/04/23 10:05:17.0      18     58     43     61     74  17.8  38.6  34132  289.09 0855.27
2009/04/23 10:05:17.1      21     17     55     28     61  50.5  71.9  34138  289.19 0855.27
2009/04/23 10:05:17.2      47     -5     73     48     87  97.0  64.1  34134  289.13 0855.27
2009/04/23 10:05:17.3      60     -8     72     61     94  97.9  55.4  34134  289.13 0855.27
2009/04/23 10:05:17.4       7     -7     49     11     50 135.0  89.0  34144  289.30 0855.27
2009/04/23 10:05:17.5       9     17     57     20     60  29.0  81.2  34144  289.31 0855.27
2009/04/23 10:05:17.6      -4     -7     42      9     42 212.5  89.0  34144  289.31 0855.27
2009/04/23 10:05:17.7      -5      0     30      6     30 270.0  89.0  34144  289.31 0855.27
2009/04/23 10:05:17.8     -25     -9     60     27     65 248.3  74.0  34146  289.35 0855.27
2009/04/23 10:05:17.9     -63    -62     81     89    120 225.4  47.5  34136  289.16 0855.27
2009/04/23 10:05:18.0     -83    -28     79     88    118 251.4  46.9  34138  289.21 0855.27
2009/04/23 10:05:18.1     -45      0     50     46     67 270.0  52.1  34134  289.13 0855.27
2009/04/23 10:05:18.2       4    -32    100     33    105 172.0  80.7  34142  289.26 0855.27
2009/04/23 10:05:18.3      -8    -88    127     89    155 185.3  61.5  34140  289.23 0855.27
2009/04/23 10:05:18.4       8    -79    125     80    148 173.8  64.6  34134  289.13 0855.27
2009/04/23 10:05:18.5      41    -58     83     72    109 144.8  55.4  34134  289.13 0855.27
2009/04/23 10:05:18.6      -1    -53     87     54    102 181.8  65.1  34136  289.16 0855.27
2009/04/23 10:05:18.7      61    -87     92    107    141 144.8  45.4  34132  289.11 0855.27
2009/04/23 10:05:18.8     129   -109     82    170    188 130.2  27.3  34130  289.06 0855.28
2009/04/23 10:05:18.9     116   -176     85    212    228 146.6  23.0  34124  288.97 0855.28
2009/04/23 10:05:19.0      14   -193    102    194    219 175.8  30.1  34126  288.99 0855.28
2009/04/23 10:05:19.1     -23   -219    108    221    245 186.2  27.8  34124  288.95 0855.28
2009/04/23 10:05:19.2     -32   -225    137    228    265 188.2  34.0  34126  288.98 0855.28
2009/04/23 10:05:19.3     -29   -241     71    243    254 186.9  16.4  34128  289.02 0855.28
2009/04/23 10:05:19.4     -31   -279     88    281    295 186.5  17.4  34130  289.05 0855.28
2009/04/23 10:05:19.5     -44   -274     75    278    289 189.1  15.2  34134  289.12 0855.28
2009/04/23 10:05:19.6     -55   -218     89    225    241 194.3  22.8  34122  288.93 0855.28
2009/04/23 10:05:19.7     -31   -196    146    199    246 189.1  39.9  34124  288.96 0855.28
2009/04/23 10:05:19.8     -67   -249    180    258    314 195.1  38.4  34124  288.95 0855.28
2009/04/23 10:05:19.9     -33   -174    213    178    277 190.7  56.3  34130  289.05 0855.28
2009/04/23 10:05:20.0     -61   -187    151    197    248 198.3  41.6  34124  288.95 0855.28
2009/04/23 10:05:20.1     -59   -269    173    276    325 192.5  35.1  34124  288.97 0855.28
2009/04/23 10:05:20.2    -132   -316     80    343    353 202.7  13.1  34120  288.89 0855.28
2009/04/23 10:05:20.3     -59   -359     26    364    365 189.4   4.2  34118  288.86 0855.28
2009/04/23 10:05:20.4    -180   -271    -33    326    328 213.6  -5.9  34124  288.97 0855.28
2009/04/23 10:05:20.5    -163   -256      4    304    305 212.5   0.8  34122  288.93 0855.28
2009/04/23 10:05:20.6    -216   -236     12    321    322 222.4   2.2  34120  288.90 0855.28
2009/04/23 10:05:20.7    -236   -221    -21    324    325 226.8  -3.8  34120  288.88 0855.28
2009/04/23 10:05:20.8    -169   -225    -25    282    284 217.0  -5.1  34120  288.90 0855.28
2009/04/23 10:05:20.9    -214   -258     -1    336    337 219.6  -0.3  34122  288.93 0855.28
2009/04/23 10:05:21.0    -153   -246    119    290    313 211.9  23.6  34124  288.95 0855.28
2009/04/23 10:05:21.1     -56   -238     66    245    254 193.4  15.2  34130  289.05 0855.28
2009/04/23 10:05:21.2     -56   -148     91    159    183 200.9  32.4  34124  288.97 0855.28
2009/04/23 10:05:21.3     -19   -159     78    161    178 187.1  27.4  34124  288.97 0855.28
2009/04/23 10:05:21.4     -34   -169      0    173    174 191.6   0.2  34122  288.92 0855.28
2009/04/23 10:05:21.5      -5   -165    -20    166    168 181.8  -6.9  34122  288.94 0855.28
2009/04/23 10:05:21.6     -47   -242    -45    247    252 191.1 -10.4  34120  288.90 0855.28
2009/04/23 10:05:21.7     -46   -243   -103    248    268 190.7 -28.2  34118  288.85 0855.28
2009/04/23 10:05:21.8     -73   -182    -59    197    205 201.9 -21.8  34122  288.92 0855.28
2009/04/23 10:05:21.9     -88   -185    -85    205    221 205.5 -28.0  34120  288.91 0855.28
2009/04/23 10:05:22.0     -95   -172    -22    197    199 209.0  -6.5  34120  288.89 0855.28
2009/04/23 10:05:22.1     -95   -193    -50    216    222 206.3 -13.3  34118  288.86 0855.28
2009/04/23 10:05:22.2     -64   -236     43    245    249 195.2  10.0  34122  288.93 0855.28
2009/04/23 10:05:22.3     -70   -226     86    237    253 197.2  19.9  34122  288.93 0855.28
2009/04/23 10:05:22.4      11   -290    105    291    309 177.8  20.7  34124  288.97 0855.28
2009/04/23 10:05:22.5      79   -327     91    337    350 166.4  15.2  34126  288.98 0855.28
2009/04/23 10:05:22.6      89   -370    107    381    396 166.4  15.8  34128  289.03 0855.28
2009/04/23 10:05:22.7      67   -279    132    287    315 166.4  26.3  34126  288.98 0855.28
2009/04/23 10:05:22.8      -8   -300     93    301    316 181.6  17.3  34126  289.00 0855.29
2009/04/23 10:05:22.9      42   -379    104    382    397 173.7  15.3  34120  288.88 0855.29
2009/04/23 10:05:23.0      16   -405    135    406    428 177.7  18.4  34124  288.95 0855.29
2009/04/23 10:05:23.1     -57   -429    117    433    449 187.6  15.2  34118  288.85 0855.29
2009/04/23 10:05:23.2     -46   -331    227    335    404 188.0  37.4  34128  289.03 0855.29
2009/04/23 10:05:23.3      32   -294    224    296    371 173.7  40.9  34120  288.89 0855.29
2009/04/23 10:05:23.4     -36   -236    160    239    287 188.7  37.0  34124  288.95 0855.29
2009/04/23 10:05:23.5     -78   -383    254    392    467 191.6  35.7  34118  288.87 0855.29
2009/04/23 10:05:23.6      21   -221    239    223    326 174.4  52.2  34132  289.09 0855.29
2009/04/23 10:05:23.7     -30   -214    219    217    308 188.0  50.1  34124  288.97 0855.29
2009/04/23 10:05:23.8     -41   -296    195    299    356 188.0  36.3  34122  288.94 0855.29
2009/04/23 10:05:23.9     -68   -398    209    404    454 189.7  29.4  34120  288.90 0855.29
2009/04/23 10:05:24.0       0   -255    242    256    352 180.0  48.2  34128  289.03 0855.29
2009/04/23 10:05:24.1      51   -141    198    151    249 159.9  59.0  34134  289.14 0855.29
2009/04/23 10:05:24.2     -16   -214    203    215    295 184.5  48.0  34128  289.02 0855.29
2009/04/23 10:05:24.3     -12   -212    212    213    300 183.4  50.0  34126  289.00 0855.29
2009/04/23 10:05:24.4     -80   -263    137    276    308 196.9  28.2  34126  289.00 0855.29
2009/04/23 10:05:24.5     -84   -440     76    448    455 190.8   9.7  34122  288.92 0855.29
2009/04/23 10:05:24.6     -16   -525    190    526    559 181.8  20.8  34120  288.91 0855.29
2009/04/23 10:05:24.7     154   -428    192    455    493 160.2  24.2  34120  288.90 0855.29
2009/04/23 10:05:24.8     170   -416    262    450    520 157.7  32.9  34122  288.93 0855.30
2009/04/23 10:05:24.9     125   -463    246    480    539 164.8  29.3  34126  288.99 0855.30
2009/04/23 10:05:25.0     204   -518    172    557    584 158.5  17.2  34126  288.98 0855.30
2009/04/23 10:05:25.1     250   -470    239    533    584 152.0  25.7  34122  288.94 0855.30
2009/04/23 10:05:25.2     279   -402    237    490    544 145.2  27.7  34126  288.99 0855.30
2009/04/23 10:05:25.3     225   -405    262    464    532 151.0  32.0  34116  288.81 0855.30
2009/04/23 10:05:25.4     178   -422    222    459    509 157.1  27.8  34126  288.98 0855.30
2009/04/23 10:05:25.5     177   -520    256    550    606 161.2  26.9  34122  288.93 0855.30
2009/04/23 10:05:25.6     168   -582    243    606    652 163.9  23.0  34128  289.04 0855.30
2009/04/23 10:05:25.7     189   -519    285    553    622 160.0  29.3  34130  289.05 0855.30
2009/04/23 10:05:25.8     274   -581    307    643    712 154.7  27.3  34124  288.97 0855.30
2009/04/23 10:05:25.9     288   -533    324    606    687 151.6  30.5  34128  289.02 0855.30
2009/04/23 10:05:26.0     321   -550    344    638    724 149.7  30.7  34126  288.98 0855.30
2009/04/23 10:05:26.1     245   -496    280    554    620 153.7  28.9  34120  288.88 0855.30
2009/04/23 10:05:26.2     227   -484    190    535    569 154.8  19.6  34126  288.99 0855.30
2009/04/23 10:05:26.3     187   -513    208    547    585 160.0  21.8  34128  289.03 0855.30
2009/04/23 10:05:26.4     211   -525    232    567    612 158.1  23.5  34124  288.95 0855.30
2009/04/23 10:05:26.5     182   -420    337    458    568 156.5  40.0  34122  288.92 0855.30
2009/04/23 10:05:26.6      79   -312    310    322    446 165.7  49.0  34134  289.14 0855.30
2009/04/23 10:05:26.7     -39   -334    308    337    456 186.8  47.3  34132  289.09 0855.30
2009/04/23 10:05:26.8      39   -259    338    262    427 171.3  58.4  34128  289.04 0855.27
2009/04/23 10:05:26.9     110   -359    363    376    522 163.0  49.0  34138  289.20 0855.27
2009/04/23 10:05:27.0      -1   -604    354    605    700 180.1  33.0  34128  289.04 0855.27
2009/04/23 10:05:27.1      72   -576    288    581    648 172.8  28.4  34130  289.08 0855.27
2009/04/23 10:05:27.2     -56   -699    260    702    748 184.6  21.3  34124  288.95 0855.27
2009/04/23 10:05:27.3     -13   -643    245    644    689 181.2  21.8  34132  289.09 0855.27
2009/04/23 10:05:27.4     -39   -704     10    706    707 183.2   0.8  34128  289.03 0855.27
2009/04/23 10:05:27.5     139   -630     -4    646    647 167.5  -0.4  34120  288.89 0855.27
2009/04/23 10:05:27.6     239   -651     43    694    696 159.8   3.6  34128  289.04 0855.27
2009/04/23 10:05:27.7     147   -665      2    682    683 167.5   0.2  34130  289.05 0855.27
2009/04/23 10:05:27.8      95   -697    -76    704    709 172.2  -6.2  34130  289.06 0855.27
2009/04/23 10:05:27.9      72   -653   -173    658    681 173.6 -14.8  34130  289.05 0855.27
2009/04/23 10:05:28.0      56   -667   -128    670    683 175.1 -10.8  34134  289.12 0855.27
2009/04/23 10:05:28.1      98   -606   -103    614    623 170.8  -9.6  34134  289.13 0855.27
2009/04/23 10:05:28.2      80   -677    -97    682    690 173.2  -8.1  34132  289.10 0855.27
2009/04/23 10:05:28.3     -12   -627     -7    628    629 181.1  -0.7  34130  289.08 0855.27
2009/04/23 10:05:28.4     -30   -505     50    506    509 183.5   5.7  34130  289.06 0855.27
2009/04/23 10:05:28.5      10   -250    235    251    343 177.5  48.0  34132  289.10 0855.27
2009/04/23 10:05:28.6     162   -389    237    422    483 157.3  31.9  34130  289.08 0855.27
2009/04/23 10:05:28.7     252   -373    240    451    510 145.9  30.2  34126  289.01 0855.27
2009/04/23 10:05:28.8     221   -282    237    359    430 142.0  36.5  34136  289.16 0855.25
2009/04/23 10:05:28.9     160   -269    287    313    424 149.3  47.3  34120  288.91 0855.25
2009/04/23 10:05:29.0     130   -152    260    201    328 139.5  58.5  34136  289.17 0855.25
2009/04/23 10:05:29.1     313   -134    251    341    423 113.2  39.9  34134  289.13 0855.25
2009/04/23 10:05:29.2     373   -262    233    456    512 125.1  29.2  34128  289.03 0855.25
2009/04/23 10:05:29.3     226   -345    208    413    462 146.7  28.7  34124  288.95 0855.25
2009/04/23 10:05:29.4     137   -376    179    401    439 160.0  25.8  34128  289.02 0855.25
2009/04/23 10:05:29.5     131   -430    287    450    533 163.0  35.6  34130  289.08 0855.25
2009/04/23 10:05:29.6     134   -442    186    463    498 163.1  23.1  34126  289.01 0855.25
2009/04/23 10:05:29.7     178   -498    176    529    558 160.3  18.5  34128  289.04 0855.25
2009/04/23 10:05:29.8     104   -518    275    529    596 168.6  29.6  34126  288.98 0855.25
2009/04/23 10:05:29.9      49   -421    270    424    502 173.3  35.6  34130  289.06 0855.25
2009/04/23 10:05:30.0     140   -367    202    393    441 159.1  29.3  34128  289.02 0855.25
2009/04/23 10:05:30.1     155   -356    208    389    441 156.5  30.3  34126  289.00 0855.25
2009/04/23 10:05:30.2     167   -326    256    367    447 152.8  38.3  34126  289.00 0855.25
2009/04/23 10:05:30.3      60   -238    222    246    331 165.7  46.9  34128  289.03 0855.25
2009/04/23 10:05:30.4     117   -390    240    408    473 163.2  33.1  34126  289.00 0855.25
2009/04/23 10:05:30.5      55   -363    246    368    442 171.3  37.0  34126  289.00 0855.25
2009/04/23 10:05:30.6      65   -372    133    378    400 170.0  20.0  34126  288.99 0855.25
2009/04/23 10:05:30.7     -67   -429     82    435    443 188.9  10.7  34126  289.00 0855.25
2009/04/23 10:05:30.8     -31   -291    166    293    336 186.2  32.0  34124  288.95 0855.27
2009/04/23 10:05:30.9      54   -327    111    332    351 170.6  18.6  34124  288.96 0855.27
2009/04/23 10:05:31.0      -8   -462    -18    463    464 181.0  -2.2  34120  288.90 0855.27
2009/04/23 10:05:31.1      85   -327    -82    338    348 165.3 -13.7  34126  288.99 0855.27
2009/04/23 10:05:31.2     139   -335   -128    363    384 157.4 -24.5  34130  289.06 0855.27
2009/04/23 10:05:31.3      51   -387   -123    391    410 172.4 -17.5  34128  289.02 0855.27
2009/04/23 10:05:31.4      51   -280    -57    285    291 169.5 -11.3  34124  288.97 0855.27
2009/04/23 10:05:31.5     122   -201     29    236    238 148.8   7.1  34114  288.80 0855.27
2009/04/23 10:05:31.6      85   -209     25    226    228 157.7   6.5  34116  288.82 0855.27
2009/04/23 10:05:31.7      82   -175    190    194    271 154.7  49.8  34114  288.78 0855.27
2009/04/23 10:05:31.8      76   -210     91    224    241 160.0  23.1  34118  288.87 0855.27
2009/04/23 10:05:31.9     187    -87    120    207    239 115.1  32.7  34116  288.82 0855.27
2009/04/23 10:05:32.0     172   -189     30    256    258 137.7   6.7  34120  288.90 0855.27
2009/04/23 10:05:32.1     146   -228    202    272    338 147.3  40.2  34118  288.87 0855.27
2009/04/23 10:05:32.2     237   -211    124    318    341 131.6  22.5  34124  288.96 0855.27
2009/04/23 10:05:32.3     158   -178     89    239    255 138.3  21.5  34106  288.65 0855.27
2009/04/23 10:05:32.4      -9   -275   -238    276    364 182.0 -49.6  34120  288.88 0855.27
2009/04/23 10:05:32.5      -8   -412    -91    413    424 181.2 -12.5  34118  288.87 0855.27
2009/04/23 10:05:32.6     115   -274    -37    298    301 157.2  -7.2  34114  288.80 0855.27
2009/04/23 10:05:32.7     169   -101     37    198    202 120.9  10.6  34114  288.80 0855.27
2009/04/23 10:05:32.8      44   -130     32    138    142 161.3  13.2  34118  288.87 0855.26
2009/04/23 10:05:33.0     -33   -269    124    272    298 187.1  26.2  34120  288.88 0855.26
2009/04/23 10:05:33.0     -23   -347    149    348    378 183.9  24.6  34116  288.82 0855.26
2009/04/23 10:05:33.1    -155   -154    106    219    243 225.1  27.8  34114  288.78 0855.26
2009/04/23 10:05:33.2     -11    -72     80     73    108 188.9  52.7  34130  289.06 0855.26
2009/04/23 10:05:33.3      25    -86     -3     90     91 163.5  -2.2  34120  288.91 0855.26
2009/04/23 10:05:33.4     101   -118    -43    156    162 139.5 -15.5  34110  288.74 0855.26
2009/04/23 10:05:33.5     384   -104     41    398    401 105.2   6.0  34104  288.62 0855.26
2009/04/23 10:05:33.6     220    -57     16    228    229 104.6   4.2  34102  288.60 0855.26
2009/04/23 10:05:33.7     105    165   -167    196    257  32.5 -49.2  34106  288.66 0855.26
2009/04/23 10:05:33.8     113    129    -58    172    181  41.2 -23.3  34092  288.42 0855.26
2009/04/23 10:05:33.9     -34    242   -123    245    274 352.0 -33.1  34108  288.68 0855.26
2009/04/23 10:05:34.0    -225    182   -100    290    307 308.9 -19.1  34104  288.63 0855.26
2009/04/23 10:05:34.1    -275    148     24    313    315 298.2   4.5  34104  288.63 0855.26
2009/04/23 10:05:34.2    -421     85    153    430    456 281.5  20.3  34098  288.51 0855.26
2009/04/23 10:05:34.3    -341    137     22    368    369 291.9   3.5  34098  288.52 0855.26
2009/04/23 10:05:34.4    -238    -18    241    239    339 265.6  50.1  34118  288.85 0855.26
2009/04/23 10:05:34.5    -173     14    204    174    268 274.8  55.4  34106  288.66 0855.26
2009/04/23 10:05:34.6    -169    203    209    265    337 320.3  42.3  34098  288.53 0855.26
2009/04/23 10:05:34.7    -148    302    109    337    355 333.8  18.0  34098  288.52 0855.26
2009/04/23 10:05:34.8    -185    108    190    215    286 300.4  45.9  34090  288.37 0855.22
2009/04/23 10:05:34.9    -413    262    150    490    513 302.4  17.1  34090  288.40 0855.22
2009/04/23 10:05:35.0       8     77    239     78    251   6.2  81.0  34108  288.70 0855.22
2009/04/23 10:05:35.1    -268      0     99    269    286 270.0  21.0  34104  288.63 0855.22
2009/04/23 10:05:35.2    -512    185    -61    545    549 290.0  -6.5  34088  288.36 0855.22
2009/04/23 10:05:35.3    -561     69    100    566    575 277.1  10.1  34092  288.42 0855.22
2009/04/23 10:05:35.4    -511    166   -148    538    557 288.1 -20.1  34088  288.35 0855.22
2009/04/23 10:05:35.5    -272    195    102    335    351 305.6  17.0  34084  288.30 0855.22
2009/04/23 10:05:35.6    -401    205     70    451    457 297.1   8.9  34092  288.41 0855.22
2009/04/23 10:05:35.7    -180    104    164    209    265 300.0  42.4  34100  288.54 0855.22
2009/04/23 10:05:35.8    -126    -38    156    132    204 253.2  55.6  34106  288.65 0855.21
2009/04/23 10:05:35.9     -34   -170    -34    174    178 191.6 -11.1  34098  288.53 0855.21
2009/04/23 10:05:36.0       6   -170    -74    171    186 177.8 -29.3  34092  288.42 0855.21
2009/04/23 10:05:36.1      60   -206    -55    215    223 163.7 -14.5  34096  288.48 0855.21
2009/04/23 10:05:36.3      25   -151    -66    154    167 170.3 -29.0  34098  288.52 0855.21
2009/04/23 10:05:36.4     297    -70    -27    306    308 103.3  -5.1  34090  288.37 0855.21
2009/04/23 10:05:36.5     470   -176    154    503    527 110.6  17.1  34094  288.44 0855.21
2009/04/23 10:05:36.6     475    -88    161    484    511 100.5  18.5  34084  288.27 0855.21
2009/04/23 10:05:36.7     527     41     88    529    537  85.5   9.5  34090  288.40 0855.21
2009/04/23 10:05:36.8     553    118    333    566    656  77.9  33.1  34090  288.38 0855.21
2009/04/23 10:05:36.9     452     50    422    455    620  83.6  47.8  34098  288.53 0855.21
2009/04/23 10:05:37.0     344    174     43    386    389  63.1   6.4  34090  288.40 0855.21
2009/04/23 10:05:37.1     301     21    252    302    393  85.9  44.2  34094  288.44 0855.21
2009/04/23 10:05:37.2     135   -175    256    222    338 142.4  54.7  34096  288.49 0855.21
2009/04/23 10:05:37.3     320    -74    195    329    382 103.2  33.5  34094  288.45 0855.21
2009/04/23 10:05:37.4     128   -158    183    204    274 140.8  46.4  34096  288.49 0855.21
2009/04/23 10:05:37.5      -6    -26     33     27     42 193.4  55.4  34100  288.57 0855.21
2009/04/23 10:05:37.6      66   -117    163    135    211 150.6  56.3  34096  288.48 0855.21
2009/04/23 10:05:37.7      93     64    213    113    241  55.4  69.9  34104  288.62 0855.21
2009/04/23 10:05:37.8     149     27    216    152    264  79.4  61.5  34104  288.61 0855.21
2009/04/23 10:05:37.9     141     36    260    146    298  75.4  68.5  34106  288.66 0855.21
2009/04/23 10:05:38.0     210     -6    100    211    233  91.9  27.2  34088  288.36 0855.21
2009/04/23 10:05:38.1     225   -125    156    258    301 119.1  34.2  34096  288.49 0855.21
2009/04/23 10:05:38.2      76   -100    144    126    191 142.6  54.3  34096  288.50 0855.21
2009/04/23 10:05:38.3     265   -171    199    316    373 122.9  35.3  34100  288.57 0855.21
2009/04/23 10:05:38.4     213   -315     76    381    389 145.9  11.3  34094  288.45 0855.21
2009/04/23 10:05:38.5     223   -209    126    306    330 133.1  23.7  34096  288.48 0855.21
2009/04/23 10:05:38.6     254   -134    128    288    315 117.8  25.6  34096  288.49 0855.21
2009/04/23 10:05:38.7     231    -42    185    235    299 100.4  42.2  34094  288.46 0855.21
2009/04/23 10:05:38.8     243   -129    177    276    327 118.0  35.6  34104  288.63 0855.21
2009/04/23 10:05:38.9     193   -181    188    265    324 133.2  38.8  34102  288.58 0855.21
2009/04/23 10:05:39.0     182   -146    127    234    266 128.9  31.0  34104  288.61 0855.21
2009/04/23 10:05:39.1      95    -79    141    124    187 129.6  54.3  34114  288.79 0855.21
2009/04/23 10:05:39.2      25    -93    120     97    154 164.9  56.4  34116  288.82 0855.21
2009/04/23 10:05:39.3      43   -157    131    163    209 164.6  43.3  34108  288.70 0855.21
2009/04/23 10:05:39.4     -14   -154    123    155    197 185.3  42.4  34108  288.70 0855.21
2009/04/23 10:05:39.5     -77   -145    184    165    247 207.9  53.5  34108  288.70 0855.21
2009/04/23 10:05:39.6    -122   -147    173    192    258 219.6  46.9  34110  288.73 0855.21
2009/04/23 10:05:39.7    -146    -51     59    155    165 250.5  21.7  34106  288.67 0855.21
2009/04/23 10:05:39.8    -188     37     75    192    206 281.4  22.5  34108  288.70 0855.21
2009/04/23 10:05:39.9    -201     54     42    209    214 285.0  11.4  34108  288.69 0855.19
2009/04/23 10:05:40.0    -221     25     74    223    236 276.6  18.4  34114  288.79 0855.19
2009/04/23 10:05:40.1    -224    122     96    256    273 298.6  21.3  34110  288.71 0855.19
2009/04/23 10:05:40.2    -219    112     33    246    249 297.1   7.8  34104  288.63 0855.19
2009/04/23 10:05:40.3    -272    238     13    362    363 311.1   2.1  34102  288.60 0855.19
2009/04/23 10:05:40.4    -256    305    -15    399    400 319.9  -2.2  34116  288.82 0855.19
2009/04/23 10:05:40.5    -333    343    -86    479    487 315.9 -10.3  34116  288.81 0855.19
2009/04/23 10:05:40.6    -357    303    -41    469    471 310.3  -5.1  34110  288.73 0855.19
2009/04/23 10:05:40.7    -415    300    -91    513    522 305.9 -10.1  34100  288.56 0855.19
2009/04/23 10:05:40.8    -467    316   -169    565    589 304.1 -21.7  34116  288.81 0855.19
2009/04/23 10:05:40.9    -459    247   -166    522    547 298.3 -22.8  34130  289.06 0855.19
2009/04/23 10:05:41.0    -130    367   -113    390    406 340.5 -21.0  34126  288.99 0855.19
2009/04/23 10:05:41.1     -80    483    -68    490    495 350.6  -8.0  34110  288.71 0855.19
2009/04/23 10:05:41.2     -65    434     13    439    440 351.4   1.7  34122  288.94 0855.19
2009/04/23 10:05:41.3    -136    265   -123    299    323 332.8 -28.1  34128  289.03 0855.19
2009/04/23 10:05:41.4      34    326   -213    328    391   6.0 -40.6  34114  288.79 0855.19
2009/04/23 10:05:41.5     213    234   -114    317    336  42.3 -24.8  34120  288.88 0855.19
2009/04/23 10:05:41.6     105     65     69    124    141  58.0  31.4  34122  288.92 0855.19
2009/04/23 10:05:41.7      90   -141    -11    168    169 147.4  -3.9  34124  288.96 0855.19
2009/04/23 10:05:41.8    -195   -289   -105    349    364 214.1 -21.7  34128  289.03 0855.19
2009/04/23 10:05:41.9     -95   -261     19    279    280 200.1   3.9  34124  288.97 0855.21
2009/04/23 10:05:42.0    -142    -20   -192    144    240 261.6 -63.8  34132  289.09 0855.21
2009/04/23 10:05:42.1     -65   -181     19    193    194 199.8   5.7  34132  289.11 0855.21
2009/04/23 10:05:42.2      21   -154      4    156    157 171.9   1.6  34128  289.02 0855.21
2009/04/23 10:05:42.3      13    -35   -108     38    114 160.0 -85.6  34152  289.43 0855.21
2009/04/23 10:05:42.4      12    132    -65    133    148   5.3 -31.7  34146  289.33 0855.21
2009/04/23 10:05:42.5     168    185     -1    251    252  42.3  -0.3  34142  289.25 0855.21
2009/04/23 10:05:42.6     246    197   -110    316    335  51.4 -19.3  34142  289.25 0855.21
2009/04/23 10:05:42.7     274     87   -144    288    321  72.3 -32.9  34154  289.47 0855.21
2009/04/23 10:05:42.8     292     59   -101    298    314  78.6 -23.8  34160  289.58 0855.21
2009/04/23 10:05:42.9     276     79    -25    288    290  74.0  -5.1  34172  289.78 0855.21
2009/04/23 10:05:43.0     340     88     -2    352    353  75.5  -0.4  34172  289.76 0855.21
2009/04/23 10:05:43.1     486    135      7    505    506  74.5   0.8  34178  289.88 0855.21
2009/04/23 10:05:43.2     692    159    190    711    736  77.0  15.0  34208  290.37 0855.21
2009/04/23 10:05:43.3     478    248    238    539    589  62.5  25.2  34180  289.91 0855.21
2009/04/23 10:05:43.4     421    268   -288    500    577  57.5 -36.8  34162  289.60 0855.21
2009/04/23 10:05:43.5     342    250   -140    424    446  53.8 -23.7  34166  289.66 0855.21
2009/04/23 10:05:43.6     439    362   -134    570    586  50.5 -13.3  34152  289.42 0855.21
2009/04/23 10:05:43.7     572      0   -157    573    594  90.0 -20.0  34158  289.54 0855.21
2009/04/23 10:05:43.8     515     33   -231    517    566  86.3 -30.2  34156  289.51 0855.21
2009/04/23 10:05:43.9     450   -252    -74    516    522 119.3  -8.2  34168  289.72 0855.20
2009/04/23 10:05:44.0     355   -304   -102    468    480 130.5 -12.3  34172  289.78 0855.20
2009/04/23 10:05:44.1     379   -270    -80    466    474 125.5  -9.8  34156  289.52 0855.20
2009/04/23 10:05:44.2     388   -332    -55    511    515 130.6  -6.2  34142  289.25 0855.20
2009/04/23 10:05:44.3     298   -124     58    323    329 112.6  10.3  34146  289.34 0855.20
2009/04/23 10:05:44.4     538     19    139    539    557  87.9  14.5  34154  289.46 0855.20
2009/04/23 10:05:44.5     608    123    186    621    649  78.5  16.7  34140  289.23 0855.20
2009/04/23 10:05:44.6     648     26    111    649    659  87.6   9.7  34158  289.53 0855.20
2009/04/23 10:05:44.7     412    -52     80    416    424  97.2  11.0  34140  289.22 0855.20
2009/04/23 10:05:44.8     426     45    162    429    458  83.9  21.6  34128  289.04 0855.20
2009/04/23 10:05:44.9     610     46    165    612    635  85.6  15.1  34128  289.03 0855.20
2009/04/23 10:05:45.0     600    105    435    610    749  80.0  39.0  34134  289.13 0855.20
2009/04/23 10:05:45.1     472   -184    343    507    612 111.3  37.4  34142  289.27 0855.20
2009/04/23 10:05:45.2     223   -340    142    407    432 146.7  19.3  34140  289.24 0855.20
2009/04/23 10:05:45.3     255   -255    135    362    386 135.0  21.3  34136  289.18 0855.20
2009/04/23 10:05:45.4      53   -333    287    338    443 170.9  44.7  34146  289.34 0855.20
2009/04/23 10:05:45.5      11   -425    178    426    461 178.4  24.1  34134  289.12 0855.20
2009/04/23 10:05:45.6      19   -432    240    433    495 177.4  31.4  34130  289.05 0855.20
2009/04/23 10:05:45.7     -22   -386    245    387    458 183.4  35.5  34138  289.19 0855.20
2009/04/23 10:05:45.8    -109   -413    215    428    478 194.8  28.7  34132  289.11 0855.20
2009/04/23 10:05:45.9    -110   -524    271    536    600 191.9  28.9  34140  289.24 0855.19
2009/04/23 10:05:46.0     -12   -357    328    358    485 182.0  47.3  34138  289.21 0855.19
2009/04/23 10:05:46.1     -77   -451    311    458    553 189.8  37.4  34134  289.13 0855.19
2009/04/23 10:05:46.2    -186   -557    306    588    662 198.5  29.8  34126  288.99 0855.19
2009/04/23 10:05:46.3    -335   -474    -18    581    582 215.2  -1.8  34134  289.14 0855.19
2009/04/23 10:05:46.4    -642    -28   -190    643    670 267.5 -21.2  34132  289.10 0855.19
2009/04/23 10:05:46.5    -563     44      3    565    566 274.5   0.4  34116  288.84 0855.19
2009/04/23 10:05:46.6    -674   -127    -31    687    688 259.3  -2.6  34138  289.19 0855.19
2009/04/23 10:05:46.7    -591   -268   -133    650    664 245.6 -11.6  34130  289.07 0855.19
2009/04/23 10:05:46.8    -672   -144   -210    688    720 257.9 -17.0  34118  288.86 0855.19
2009/04/23 10:05:46.9    -265   -259    179    371    411 225.6  27.7  34116  288.84 0855.19
2009/04/23 10:05:47.0    -227   -529    260    576    631 203.2  25.9  34120  288.89 0855.19
2009/04/23 10:05:47.1    -273   -489    214    561    600 209.2  22.0  34116  288.83 0855.19
2009/04/23 10:05:47.2    -262   -494    143    560    579 208.0  14.4  34100  288.54 0855.19
2009/04/23 10:05:47.3    -266   -266    241    377    447 225.0  35.6  34128  289.04 0855.19
2009/04/23 10:05:47.4    -316   -436     35    539    541 216.0   3.7  34110  288.72 0855.19
2009/04/23 10:05:47.5    -284   -330    -14    436    437 220.8  -1.9  34112  288.75 0855.19
2009/04/23 10:05:47.6    -498   -428   -125    658    670 229.3 -10.8  34126  289.00 0855.19
2009/04/23 10:05:47.7    -356   -417    -21    549    550 220.5  -2.2  34082  288.25 0855.19
2009/04/23 10:05:47.8    -372   -273   -112    462    476 233.7 -13.7  34098  288.52 0855.19
2009/04/23 10:05:47.9    -300   -165     34    343    345 241.1   5.7  34100  288.54 0855.20
2009/04/23 10:05:48.0    -405   -441    329    600    684 222.6  31.3  34124  288.95 0855.20
2009/04/23 10:05:48.1    -160   -275    104    319    336 210.1  18.2  34130  289.08 0855.20
2009/04/23 10:05:48.2    -283   -599   -115    663    674 205.3  -9.9  34112  288.77 0855.20
2009/04/23 10:05:48.3    -217   -363   -303    424    521 210.9 -43.6  34114  288.78 0855.20
2009/04/23 10:05:48.4    -254   -423   -128    494    511 211.0 -14.5  34128  289.03 0855.20
2009/04/23 10:05:48.5    -433    -10   -205    434    479 268.6 -31.5  34152  289.45 0855.20
2009/04/23 10:05:48.6    -208   -106    -33    234    237 243.0  -8.2  34144  289.31 0855.20
2009/04/23 10:05:48.7    -273   -198   -110    338    355 234.0 -23.2  34126  288.98 0855.20
2009/04/23 10:05:48.8    -351   -143    -97    380    393 247.8 -14.4  34110  288.74 0855.20
2009/04/23 10:05:48.9    -248    -82    -53    262    268 251.6 -11.6  34118  288.85 0855.20
2009/04/23 10:05:49.0    -325   -178    -49    371    375 241.2  -7.6  34120  288.88 0855.20
2009/04/23 10:05:49.1    -148   -169     79    225    238 221.2  20.0  34116  288.81 0855.20
2009/04/23 10:05:49.2     -18   -236    279    237    366 184.5  55.5  34122  288.94 0855.20
2009/04/23 10:05:49.3    -193   -447     97    488    498 203.4  11.3  34120  288.88 0855.20
2009/04/23 10:05:49.4    -253   -346    177    429    464 216.2  23.7  34116  288.82 0855.20
2009/04/23 10:05:49.5    -352   -234    -36    423    425 236.4  -4.9  34124  288.95 0855.20
2009/04/23 10:05:49.6    -470    -72   -135    476    494 261.2 -20.5  34110  288.74 0855.20
2009/04/23 10:05:49.7    -411   -408   -174    580    605 225.2 -21.7  34128  289.02 0855.20
2009/04/23 10:05:49.8    -463   -178     25    497    498 248.9   2.9  34132  289.10 0855.20
2009/04/23 10:05:49.9    -381   -144   -106    408    422 249.2 -14.6  34124  288.95 0855.20
2009/04/23 10:05:50.0    -487    -86   -111    495    508 259.9 -12.7  34126  289.00 0855.20
2009/04/23 10:05:50.1    -358   -176   -111    400    415 243.8 -20.1  34130  289.05 0855.20
2009/04/23 10:05:50.2    -425     38   -130    427    447 275.2 -16.9  34132  289.09 0855.20
2009/04/23 10:05:50.3    -257    -67    108    266    287 255.2  23.1  34138  289.19 0855.20
2009/04/23 10:05:50.4    -395   -173     28    432    433 246.4   3.8  34140  289.24 0855.20
2009/04/23 10:05:50.5    -425   -243     14    490    491 240.3   1.7  34146  289.35 0855.20
2009/04/23 10:05:50.6    -435     19    197    436    478 272.6  26.0  34140  289.23 0855.20
2009/04/23 10:05:50.7    -497    124   -122    513    528 284.1 -13.4  34134  289.13 0855.20
2009/04/23 10:05:50.8    -400    111   -148    416    442 285.5 -19.6  34136  289.17 0855.20
2009/04/23 10:05:50.9    -217    184   -162    285    327 310.4 -36.5  34130  289.07 0855.20
2009/04/23 10:05:51.0     -49    149   -219    157    269 341.7 -65.0  34132  289.10 0855.20
2009/04/23 10:05:51.1       0    191   -153    192    245 359.8 -47.1  34128  289.04 0855.20
2009/04/23 10:05:51.2     -80    -75   -139    110    177 226.8 -61.9  34130  289.06 0855.20
2009/04/23 10:05:51.3     123    -58    -53    137    146 115.3 -26.4  34128  289.02 0855.20
2009/04/23 10:05:51.4     213     25     30    215    218  83.2   8.0  34130  289.08 0855.20
2009/04/23 10:05:51.5     -57    121    149    135    201 334.6  53.0  34144  289.30 0855.20
2009/04/23 10:05:51.6     -64     85    121    107    161 322.6  53.7  34136  289.18 0855.20
2009/04/23 10:05:51.7    -103    217    186    241    304 334.7  41.7  34132  289.10 0855.20
2009/04/23 10:05:51.8    -149    -30    120    153    194 258.6  42.2  34136  289.16 0855.20
2009/04/23 10:05:51.9     -94      0    124     95    156 269.6  58.5  34142  289.28 0855.21
2009/04/23 10:05:52.0     -42      3     78     43     89 274.4  68.8  34144  289.31 0855.21
2009/04/23 10:05:52.1      45    -24     66     52     84 118.0  57.9  34146  289.33 0855.21
2009/04/23 10:05:52.2      58    -38     51     70     86 123.3  39.7  34146  289.35 0855.21
2009/04/23 10:05:52.3     188    -47     12    194    195 104.2   3.8  34130  289.06 0855.21
2009/04/23 10:05:52.4     242    -21     12    243    244  95.0   2.9  34126  288.98 0855.21
2009/04/23 10:05:52.5     289    -32     46    291    295  96.4   9.0  34132  289.09 0855.21
2009/04/23 10:05:52.6     279    -13     87    280    294  92.8  17.3  34128  289.03 0855.21
2009/04/23 10:05:52.7     327    -18     71    328    336  93.3  12.3  34126  289.01 0855.21
2009/04/23 10:05:52.8     426     95      1    437    438  77.3   0.2  34122  288.94 0855.21
2009/04/23 10:05:52.9     321     30    104    323    340  84.6  17.9  34136  289.16 0855.21
2009/04/23 10:05:53.0     411    105    -30    425    427  75.6  -4.1  34126  288.99 0855.21
2009/04/23 10:05:53.1     397    176    101    435    447  66.1  13.1  34134  289.12 0855.21
2009/04/23 10:05:53.2     393     97    242    405    471  76.1  33.6  34142  289.26 0855.21
2009/04/23 10:05:53.3     475    124    153    491    515  75.3  17.3  34136  289.15 0855.21
2009/04/23 10:05:53.4     343     77     64    352    358  77.3  10.4  34132  289.11 0855.21
2009/04/23 10:05:53.5     362    149     52    392    396  67.5   7.6  34128  289.04 0855.21
2009/04/23 10:05:53.6     374     44    -14    377    378  83.2  -2.2  34128  289.03 0855.21
2009/04/23 10:05:53.7     328    -64    -43    335    338 101.1  -7.3  34126  288.98 0855.21
2009/04/23 10:05:53.8     200    -14   -102    201    225  94.3 -33.1  34124  288.97 0855.21
2009/04/23 10:05:53.9     194     -7    -10    195    196  92.1  -3.1  34148  289.38 0855.22
2009/04/23 10:05:54.0     121     16    137    123    184  82.1  53.3  34200  290.26 0855.22
2009/04/23 10:05:54.1      85     31    168     91    191  69.6  69.3  34192  290.13 0855.22
2009/04/23 10:05:54.2     116     96    227    151    272  50.4  63.6  34202  290.27 0855.22
2009/04/23 10:05:54.3      32     29    127     44    134  47.8  81.2  34192  290.13 0855.22
2009/04/23 10:05:54.4     173     14     64    174    185  85.2  20.7  34136  289.16 0855.22
2009/04/23 10:05:54.5     240     13     20    241    242  86.7   4.9  34136  289.15 0855.22
2009/04/23 10:05:54.6     140    -29    108    144    180 101.9  40.7  34152  289.43 0855.22
2009/04/23 10:05:54.7      61     68    137     92    165  42.3  63.2  34206  290.35 0855.22
2009/04/23 10:05:54.8     112     99     82    150    170  48.6  31.0  34210  290.43 0855.22
2009/04/23 10:05:54.9      92    -14     13     94     95  98.8   8.0  34200  290.26 0855.22
2009/04/23 10:05:55.0      97    -57    -31    113    118 120.7 -15.4  34186  290.01 0855.22
2009/04/23 10:05:55.1     170    -89     67    193    205 117.8  19.2  34178  289.89 0855.22
2009/04/23 10:05:55.2     118    -16    169    120    207  97.9  61.3  34178  289.89 0855.22
2009/04/23 10:05:55.3     274     32    208    276    345  83.2  40.8  34206  290.36 0855.22
2009/04/23 10:05:55.4     255     30    218    257    337  83.2  44.7  34200  290.24 0855.22
2009/04/23 10:05:55.5     211     29    236    213    317  82.1  53.4  34184  289.97 0855.22
2009/04/23 10:05:55.6     106    -21    180    109    210 101.5  66.2  34190  290.09 0855.22
2009/04/23 10:05:55.7      -7    -41     85     42     94 190.7  72.4  34200  290.25 0855.22
2009/04/23 10:05:55.8     -39     25     76     47     89 303.3  65.1  34200  290.25 0855.22
2009/04/23 10:05:55.9    -104     57     82    119    144 298.9  37.6  34182  289.96 0855.23
2009/04/23 10:05:56.0    -116     17     78    118    141 278.4  36.5  34168  289.72 0855.23
2009/04/23 10:05:56.1    -150    -40     28    156    159 254.9  10.3  34172  289.77 0855.23
2009/04/23 10:05:56.2    -246     -7    -69    247    256 268.3 -20.2  34178  289.86 0855.23
2009/04/23 10:05:56.3    -186    -29    -80    189    205 261.0 -28.7  34156  289.50 0855.23
2009/04/23 10:05:56.4    -273    229   -148    357    386 310.0 -28.1  34100  288.57 0855.23
2009/04/23 10:05:56.5    -220    212   -127    306    331 314.0 -28.2  34098  288.53 0855.23
2009/04/23 10:05:56.6     -10    271     14    272    273 357.8   3.1  34102  288.58 0855.23
2009/04/23 10:05:56.7      97    138    114    169    203  35.2  37.3  34108  288.70 0855.23
2009/04/23 10:05:56.8     144     78    197    164    256  61.4  56.3  34124  288.96 0855.23
2009/04/23 10:05:56.9     188     61    237    198    308  71.8  56.3  34126  289.00 0855.24
2009/04/23 10:05:57.0     152     36    198    157    252  76.7  57.5  34150  289.40 0855.24
2009/04/23 10:05:57.1      -2   -188    195    189    271 180.9  50.9  34126  289.00 0855.24
2009/04/23 10:05:57.2     -12   -158     93    159    184 184.4  33.1  34126  288.99 0855.24
2009/04/23 10:05:57.3      -7   -127     78    128    149 183.1  35.0  34124  288.97 0855.24
2009/04/23 10:05:57.4     -14    -71     10     73     74 191.5   8.0  34124  288.96 0855.24
2009/04/23 10:05:57.5     123   -125     41    176    181 135.5  13.2  34126  289.01 0855.24
2009/04/23 10:05:57.6      82   -123    -38    149    154 146.2 -14.3  34126  289.01 0855.24
2009/04/23 10:05:57.7     220    -74     75    233    245 108.6  17.9  34156  289.49 0855.24
2009/04/23 10:05:57.8     198     37     87    202    219  79.2  24.9  34168  289.72 0855.24
2009/04/23 10:05:57.9     136     66    146    152    210  64.2  49.0  34186  290.02 0855.24
2009/04/23 10:05:58.0     158    -11    152    159    219  94.3  48.7  34148  289.36 0855.24
2009/04/23 10:05:58.1     196     76     77    211    224  68.7  20.9  34140  289.24 0855.24
2009/04/23 10:05:58.2     208    124     87    243    258  59.1  20.4  34156  289.49 0855.24
2009/04/23 10:05:58.3     202    172    107    266    286  49.6  23.0  34194  290.15 0855.24
2009/04/23 10:05:58.4     273    125    184    301    352  65.4  34.3  34182  289.94 0855.24
2009/04/23 10:05:58.5     262    196    175    328    371  53.2  30.5  34216  290.52 0855.24
2009/04/23 10:05:58.6     193     91    185    214    282  64.8  45.6  34176  289.85 0855.24
2009/04/23 10:05:58.7     158     96    203    186    275  58.7  53.0  34192  290.12 0855.24
2009/04/23 10:05:58.8     230     68    291    241    377  73.4  56.3  34166  289.69 0855.24
2009/04/23 10:05:58.9      87     35    256     94    272  67.8  79.2  34172  289.77 0855.25
2009/04/23 10:05:59.0       5    -24    159     25    160 168.4  90.0  34180  289.91 0855.25
2009/04/23 10:05:59.1     -33    -50    188     60    197 213.4  81.8  34188  290.04 0855.25
2009/04/23 10:05:59.2     457    113    301    471    558  76.1  35.6  34154  289.48 0855.25
2009/04/23 10:05:59.3     700    164    333    720    793  76.8  26.6  34132  289.11 0855.25
2009/04/23 10:05:59.4     729    183    251    752    794  75.9  18.5  34120  288.91 0855.25
2009/04/23 10:05:59.5     632    218    -26    669    670  70.9  -2.2  34126  288.99 0855.25
2009/04/23 10:05:59.6     783    190    121    806    816  76.3   8.6  34128  289.03 0855.25
2009/04/23 10:05:59.7     352    123    134    374    397  70.7  20.4  34126  288.98 0855.25
2009/04/23 10:05:59.8     435    323    -31    543    544  53.4  -3.3  34132  289.09 0855.25
2009/04/23 10:05:59.9     319    149    -55    353    358  64.9  -8.9  34152  289.42 0855.25
2009/04/23 10:06:00.0     437    352      8    562    563  51.1   0.9  34156  289.50 0855.25
2009/04/23 10:06:00.1     473    365     -2    598    599  52.3  -0.3  34154  289.46 0855.25
2009/04/23 10:06:00.2     490    292    -21    571    572  59.3  -2.1  34204  290.31 0855.25
2009/04/23 10:06:00.3     600    112    242    611    657  79.4  22.9  34290  291.78 0855.25
2009/04/23 10:06:00.4     179    270    236    325    401  33.6  39.7  34280  291.61 0855.25
2009/04/23 10:06:00.5     644    288    247    706    747  65.9  20.1  34254  291.16 0855.25
2009/04/23 10:06:00.6     825    311    394    882    966  69.3  25.7  34232  290.80 0855.25
2009/04/23 10:06:00.7     927     58    503    929   1056  86.4  30.8  34182  289.93 0855.25
2009/04/23 10:06:00.8    1178    364    370   1234   1289  72.8  16.7  34140  289.23 0855.25
2009/04/23 10:06:00.9    1259    242    -31   1283   1284  79.1  -1.4  34132  289.09 0855.25
2009/04/23 10:06:01.0    1215    316    198   1256   1272  75.4   9.0  34132  289.09 0855.25
2009/04/23 10:06:01.1     607    489    434    780    892  51.2  31.5  34160  289.58 0855.25
2009/04/23 10:06:01.2     642    304    -91    711    717  64.6  -7.3  34130  289.08 0855.25
2009/04/23 10:06:01.3     733    242    -97    772    779  71.7  -7.2  34124  288.97 0855.25
2009/04/23 10:06:01.4     620    256   -144    671    687  67.5 -12.2  34134  289.14 0855.25
2009/04/23 10:06:01.5     666    316   -114    738    747  64.6  -8.8  34122  288.94 0855.25
2009/04/23 10:06:01.6     680    165    -72    700    704  76.3  -5.9  34124  288.96 0855.25
2009/04/23 10:06:01.7     802    160    -89    818    823  78.7  -6.3  34132  289.09 0855.25
2009/04/23 10:06:01.8     849    166     49    866    868  78.9   3.2  34134  289.12 0855.25
2009/04/23 10:06:01.9     677      4     93    678    685  89.6   7.8  34136  289.17 0855.25
2009/04/23 10:06:02.0     589    -29    210    590    627  92.9  19.6  34136  289.15 0855.25
2009/04/23 10:06:02.1     733    -14    276    734    784  91.2  21.7  34128  289.04 0855.25
2009/04/23 10:06:02.2     845    212    310    872    926  75.9  19.6  34170  289.75 0855.25
2009/04/23 10:06:02.4     710     74    253    714    758  84.0  19.5  34158  289.53 0855.25
2009/04/23 10:06:02.4     750    245    179    790    811  71.9  12.8  34128  289.03 0855.25
2009/04/23 10:06:02.5     578    318    155    660    679  61.1  13.3  34132  289.09 0855.25
2009/04/23 10:06:02.6     465    236    232    522    571  63.0  25.7  34136  289.16 0855.25
2009/04/23 10:06:02.7     653    133    294    667    728  78.4  25.3  34150  289.39 0855.25
2009/04/23 10:06:02.8     700    306    173    765    785  66.4  12.8  34130  289.08 0855.25
2009/04/23 10:06:03.0     755    304    191    815    838  68.1  13.2  34126  288.98 0855.26
2009/04/23 10:06:03.0     601    137    177    617    642  77.1  16.0  34124  288.96 0855.26
2009/04/23 10:06:03.2     552      7    130    553    569  89.2  13.2  34130  289.07 0855.26
2009/04/23 10:06:03.2     655    -11    258    656    704  91.0  22.7  34134  289.14 0855.26
2009/04/23 10:06:03.3     555     12    -50    556    559  88.7  -5.2  34118  288.87 0855.26
2009/04/23 10:06:03.5     595   -220    205    635    668 110.3  17.9  34136  289.17 0855.26
2009/04/23 10:06:03.6     537    -78    232    543    590  98.3  24.6  34152  289.42 0855.26
2009/04/23 10:06:03.7     663    -49    218    665    700  94.2  18.2  34144  289.31 0855.26
2009/04/23 10:06:03.8     596    198     73    629    634  71.6   6.7  34130  289.08 0855.26
2009/04/23 10:06:03.9     711     75    272    716    765  83.9  22.0  34136  289.18 0855.26
2009/04/23 10:06:04.0     705     -7    435    706    829  90.6  34.5  34146  289.34 0855.26
2009/04/23 10:06:04.1     747   -126    312    758    819  99.6  23.7  34130  289.08 0855.26
2009/04/23 10:06:04.2     620   -143    195    637    667 103.0  17.0  34132  289.09 0855.26
2009/04/23 10:06:04.3     572    -55     58    575    579  95.6   5.8  34130  289.07 0855.26
2009/04/23 10:06:04.4     467    -45     95    470    480  95.6  11.4  34134  289.13 0855.26
2009/04/23 10:06:04.5     399   -225     42    459    462 119.4   5.3  34136  289.17 0855.26
2009/04/23 10:06:04.6     302   -191    192    358    406 122.2  30.5  34136  289.15 0855.26
2009/04/23 10:06:04.7     259   -216    264    338    428 129.9  41.9  34142  289.25 0855.26
2009/04/23 10:06:04.8     218   -260    184    340    386 140.1  30.9  34148  289.37 0855.26
2009/04/23 10:06:04.9      67   -376    125    382    402 169.9  18.1  34140  289.23 0855.26
2009/04/23 10:06:05.0      98   -280    153    297    334 160.6  29.4  34150  289.39 0855.26
2009/04/23 10:06:05.1     178   -158      2    239    240 131.6   0.7  34148  289.36 0855.26
2009/04/23 10:06:05.2     269   -112    -58    292    298 112.7 -11.3  34146  289.32 0855.26
2009/04/23 10:06:05.3     223    -31    -58    226    234  97.9 -14.5  34140  289.23 0855.26
2009/04/23 10:06:05.4      14    -73     95     75    121 168.5  57.9  34148  289.38 0855.26
2009/04/23 10:06:05.5      37   -158     91    163    186 166.6  31.4  34150  289.41 0855.26
2009/04/23 10:06:05.6     -29   -345     89    347    359 184.8  14.5  34138  289.21 0855.26
2009/04/23 10:06:05.7     -33   -450    175    452    484 184.3  22.2  34142  289.27 0855.26
2009/04/23 10:06:05.8    -102   -393    177    407    443 194.6  25.1  34148  289.36 0855.26
2009/04/23 10:06:05.9    -131   -288    103    317    334 204.4  18.1  34138  289.19 0855.26
2009/04/23 10:06:06.0     -55   -270   -152    276    315 191.6 -35.8  34138  289.19 0855.26
2009/04/23 10:06:06.1    -272   -451   -177    527    555 211.1 -23.6  34130  289.06 0855.26
2009/04/23 10:06:06.2    -532   -320   -217    621    658 239.0 -19.3  34128  289.03 0855.26
2009/04/23 10:06:06.3    -506   -249    -11    564    565 243.8  -1.2  34140  289.24 0855.26
2009/04/23 10:06:06.4    -331   -559     35    650    652 210.6   3.1  34134  289.13 0855.26
2009/04/23 10:06:06.5    -121   -627    -24    639    640 191.0  -2.2  34120  288.89 0855.26
2009/04/23 10:06:06.6    -222   -554     34    597    598 201.9   3.3  34120  288.88 0855.26
2009/04/23 10:06:06.7    -163   -584    143    607    624 195.6  13.3  34112  288.77 0855.26
2009/04/23 10:06:06.8    -129   -402    396    423    579 197.8  47.9  34120  288.89 0855.26
2009/04/23 10:06:06.9     139   -337    174    365    404 157.6  27.3  34124  288.96 0855.26
2009/04/23 10:06:07.0     113   -337    126    356    377 161.4  20.2  34126  289.01 0855.28
2009/04/23 10:06:07.1     305   -317     55    441    445 136.1   7.1  34122  288.92 0855.28
2009/04/23 10:06:07.2      30   -424    118    426    443 175.9  15.6  34106  288.67 0855.28
2009/04/23 10:06:07.3    -106   -519    203    530    567 191.6  22.1  34112  288.75 0855.28
2009/04/23 10:06:07.4     -26   -518    205    519    558 182.9  22.8  34108  288.70 0855.28
2009/04/23 10:06:07.5     -31   -455    248    457    519 184.0  30.8  34116  288.81 0855.28
2009/04/23 10:06:07.6    -193   -424     91    466    475 204.5  11.1  34118  288.86 0855.28
2009/04/23 10:06:07.7     -67   -410    -86    416    426 189.3 -11.8  34112  288.77 0855.28
2009/04/23 10:06:07.8    -227   -280    -94    361    374 219.0 -14.7  34116  288.84 0855.28
2009/04/23 10:06:07.9    -215   -330   -135    394    416 213.1 -23.9  34120  288.89 0855.28
2009/04/23 10:06:08.0      10   -221   -157    222    271 177.4 -43.0  34118  288.87 0855.28
2009/04/23 10:06:08.1     -44   -286    -37    290    293 188.9  -7.3  34112  288.75 0855.28
2009/04/23 10:06:08.2    -199      9     10    200    201 272.6   3.1  34104  288.62 0855.28
2009/04/23 10:06:08.3    -184    106    -63    213    223 300.0 -16.6  34114  288.80 0855.28
2009/04/23 10:06:08.4    -124     79     62    148    160 302.5  24.1  34126  289.01 0855.28
2009/04/23 10:06:08.5    -168     75    -51    185    193 294.2 -15.5  34130  289.08 0855.28
2009/04/23 10:06:08.6     -93      8      5     94     95 275.2   3.3  34128  289.04 0855.28
2009/04/23 10:06:08.7     -93    -98    -52    136    145 223.3 -26.4  34128  289.04 0855.28
2009/04/23 10:06:08.8    -124    -49    -96    134    164 248.3 -43.5  34118  288.86 0855.28
2009/04/23 10:06:08.9    -194    -64   -272    205    340 251.6 -63.8  34130  289.05 0855.28
2009/04/23 10:06:09.0      40      8   -208     41    212  78.5 -90.0  34126  288.99 0855.27
2009/04/23 10:06:09.1      79    142   -255    163    302  29.0 -69.0  34124  288.97 0855.27
2009/04/23 10:06:09.2     -60    111   -344    127    366 331.5 -83.5  34128  289.02 0855.27
2009/04/23 10:06:09.3    -481    384   -201    616    647 308.6 -23.2  34112  288.77 0855.27
2009/04/23 10:06:09.4    -314    260      1    409    410 309.6   0.2  34122  288.94 0855.27
2009/04/23 10:06:09.5    -155    473    212    498    541 341.8  24.5  34126  288.99 0855.27
2009/04/23 10:06:09.6    -131    471    219    489    535 344.4  25.8  34118  288.87 0855.27
2009/04/23 10:06:09.7    -320    498    294    593    661 327.3  28.4  34126  288.98 0855.27
2009/04/23 10:06:09.8    -205    443    203    489    529 335.2  23.9  34120  288.90 0855.27
2009/04/23 10:06:09.9      28    160    296    163    337  10.2  68.9  34132  289.09 0855.27
2009/04/23 10:06:10.0     -83   -479   -102    487    498 189.9 -11.9  34122  288.93 0855.27
2009/04/23 10:06:10.1     -49   -380   -232    384    448 187.4 -38.4  34120  288.90 0855.27
2009/04/23 10:06:10.2     200   -331   -165    387    420 148.8 -29.0  34120  288.90 0855.27
2009/04/23 10:06:10.3     381   -144     19    408    409 110.7   2.8  34114  288.78 0855.27
2009/04/23 10:06:10.4     276   -200    227    342    410 126.0  36.6  34112  288.76 0855.27
2009/04/23 10:06:10.5     157   -322    321    359    481 154.0  46.4  34114  288.80 0855.27
2009/04/23 10:06:10.6     160   -411    217    442    492 158.7  28.1  34108  288.68 0855.27
2009/04/23 10:06:10.7     217   -448     68    499    504 154.1   7.8  34116  288.83 0855.27
2009/04/23 10:06:10.8     -30   -294     82    296    308 186.0  15.6  34112  288.75 0855.27
2009/04/23 10:06:10.9     -67   -241    168    251    302 195.6  36.7  34114  288.80 0855.27
2009/04/23 10:06:11.0      -4   -331    175    332    375 180.8  30.1  34118  288.86 0855.28
2009/04/23 10:06:11.1     -15   -170    111    171    203 185.3  35.7  34114  288.79 0855.28
2009/04/23 10:06:11.2     -45    -88    225     99    245 207.2  74.8  34122  288.92 0855.28
2009/04/23 10:06:11.3     -94   -199    261    221    341 205.3  55.7  34122  288.93 0855.28
2009/04/23 10:06:11.4    -240   -412    218    477    524 210.2  26.2  34116  288.81 0855.28
2009/04/23 10:06:11.5    -302   -353     90    465    474 220.6  11.0  34126  289.01 0855.28
2009/04/23 10:06:11.6    -259   -133   -128    292    318 242.7 -29.6  34114  288.78 0855.28
2009/04/23 10:06:11.7    -127   -330     39    354    357 201.2   6.4  34116  288.84 0855.28
2009/04/23 10:06:11.8    -141   -344    272    372    460 202.3  39.7  34120  288.89 0855.28
2009/04/23 10:06:11.9     -71   -249    165    260    307 196.0  35.5  34120  288.88 0855.28
2009/04/23 10:06:12.0    -102   -184    157    211    263 209.0  40.4  34116  288.83 0855.28
2009/04/23 10:06:12.1    -125   -141    164    189    250 221.4  45.4  34126  288.99 0855.28
2009/04/23 10:06:12.2    -175   -276    139    328    356 212.4  24.3  34116  288.82 0855.28
2009/04/23 10:06:12.3     -37   -297    163    300    341 187.1  31.0  34120  288.90 0855.28
2009/04/23 10:06:12.4     -67   -198    147    210    256 198.7  38.5  34120  288.90 0855.28
2009/04/23 10:06:12.5     -78   -132    142    154    209 210.7  47.7  34122  288.92 0855.28
2009/04/23 10:06:12.6     -74    -41    128     85    153 241.1  64.1  34132  289.11 0855.28
2009/04/23 10:06:12.7    -158    -79    162    177    239 243.4  47.1  34128  289.02 0855.28
2009/04/23 10:06:12.8    -385   -214    -24    441    442 240.9  -3.2  34124  288.97 0855.28
2009/04/23 10:06:12.9    -271   -316    164    417    448 220.6  22.8  34124  288.95 0855.28
2009/04/23 10:06:13.0    -228   -571    285    616    678 201.8  26.6  34114  288.78 0855.26
2009/04/23 10:06:13.1    -143   -425    140    449    471 198.6  17.3  34114  288.78 0855.26
2009/04/23 10:06:13.2     -48   -449    141    452    474 186.2  17.4  34118  288.86 0855.26
2009/04/23 10:06:13.3     -68   -577    -31    582    583 186.8  -3.1  34116  288.81 0855.26
2009/04/23 10:06:13.4     -16   -543     36    544    546 181.7   3.8  34110  288.74 0855.26
2009/04/23 10:06:13.5    -186   -557    -18    588    589 198.5  -1.8  34114  288.78 0855.26
2009/04/23 10:06:13.6    -158   -307    -96    346    360 207.2 -15.5  34094  288.45 0855.26
2009/04/23 10:06:13.7    -180     -8    -39    181    186 267.2 -12.4  34096  288.50 0855.26
2009/04/23 10:06:13.8     -80     29     69     86    110 290.4  43.7  34098  288.53 0855.26
2009/04/23 10:06:13.9       6    -15     82     17     83 158.2  89.0  34104  288.64 0855.26
2009/04/23 10:06:14.0     129   -136     29    188    191 136.6   8.8  34104  288.62 0855.26
2009/04/23 10:06:14.1     182   -106    116    211    240 120.4  31.3  34106  288.65 0855.26
2009/04/23 10:06:14.2      89   -118    116    148    188 143.0  42.2  34114  288.79 0855.26
2009/04/23 10:06:14.3      15    -31     26     35     43 154.6  40.7  34116  288.84 0855.26
2009/04/23 10:06:14.4     -47     15      1     50     51 288.4   1.8  34116  288.84 0855.26
2009/04/23 10:06:14.5     -51   -139     -5    149    150 200.1  -2.2  34110  288.72 0855.26
2009/04/23 10:06:14.6      -8   -271    -77    272    283 181.8 -15.8  34102  288.58 0855.26
2009/04/23 10:06:14.7      96   -243    -67    262    271 158.4 -14.4  34098  288.51 0855.26
2009/04/23 10:06:14.8      83   -194    -26    212    214 156.8  -7.2  34094  288.47 0855.26
2009/04/23 10:06:14.9      64   -120    -57    137    148 151.9 -28.0  34100  288.57 0855.26
2009/04/23 10:06:15.0      99    -30     50    104    115 106.8  27.3  34096  288.50 0855.25
2009/04/23 10:06:15.1      56    -42    169     71    183 126.9  76.3  34104  288.62 0855.25
2009/04/23 10:06:15.2      82     10    127     83    151  83.0  64.6  34108  288.70 0855.25
2009/04/23 10:06:15.3     -15    -76     58     78     97 191.6  40.7  34110  288.74 0855.25
2009/04/23 10:06:15.4     -42   -206     76    211    224 191.6  20.4  34102  288.60 0855.25
2009/04/23 10:06:15.5     188   -338    190    388    432 150.9  28.1  34100  288.55 0855.25
2009/04/23 10:06:15.6     191   -246    223    312    383 142.2  39.3  34104  288.64 0855.25
2009/04/23 10:06:15.7     139   -281     73    314    323 153.7  13.1  34104  288.61 0855.25
2009/04/23 10:06:15.8     212   -255     23    332    333 140.2   4.0  34102  288.60 0855.25
2009/04/23 10:06:15.9     -66   -465    -62    470    475 188.1  -7.6  34100  288.56 0855.25
2009/04/23 10:06:16.0     -23   -472    -18    473    474 182.8  -2.2  34104  288.62 0855.25
2009/04/23 10:06:16.1     112   -359     59    377    382 162.7   9.0  34112  288.77 0855.25
2009/04/23 10:06:16.2      77   -409     61    417    422 169.3   8.3  34110  288.73 0855.25
2009/04/23 10:06:16.3      16   -372     -7    373    374 177.5  -1.1  34110  288.72 0855.25
2009/04/23 10:06:16.4     -36   -439   -105    441    454 184.7 -13.4  34112  288.75 0855.25
2009/04/23 10:06:16.5      76   -429    -17    436    437 169.9  -2.2  34110  288.73 0855.25
2009/04/23 10:06:16.6     146   -491    -20    513    514 163.4  -2.3  34110  288.71 0855.25
2009/04/23 10:06:16.7      25   -414    -43    415    418 176.5  -6.0  34110  288.73 0855.25
2009/04/23 10:06:16.8     173   -363    -12    403    404 154.5  -1.8  34102  288.60 0855.25
2009/04/23 10:06:16.9     151   -396    -86    425    434 159.1 -11.5  34110  288.72 0855.25
2009/04/23 10:06:17.0     120   -310    -22    333    334 158.8  -3.8  34102  288.60 0855.24
2009/04/23 10:06:17.1    -101   -254     43    274    278 201.8   9.0  34122  288.93 0855.24
2009/04/23 10:06:17.2     -19    -94    130     96    161 191.6  59.8  34122  288.92 0855.24
2009/04/23 10:06:17.3      48     -4     54     49     72  95.2  52.2  34124  288.96 0855.24
2009/04/23 10:06:17.4       3      0     38      4     38  90.0  90.0  34134  289.13 0855.24
2009/04/23 10:06:17.5      25    -26      7     37     38 136.8  11.1  34124  288.97 0855.24
2009/04/23 10:06:17.6      35   -106     30    112    117 161.3  15.2  34116  288.82 0855.24
2009/04/23 10:06:17.7     -28    -68     34     74     81 202.7  26.2  34112  288.77 0855.24
2009/04/23 10:06:17.8      86    -72      5    113    114 130.0   2.8  34114  288.79 0855.24
2009/04/23 10:06:17.9      56    -81    -12     99    100 145.3  -7.2  34114  288.80 0855.24
2009/04/23 10:06:18.0     100     26     56    104    118  75.4  30.8  34118  288.87 0855.23
2009/04/23 10:06:18.1     128    -24     15    131    132 100.6   6.9  34116  288.84 0855.23
2009/04/23 10:06:18.2     194   -143     49    242    248 126.4  11.6  34110  288.71 0855.23
2009/04/23 10:06:18.3     246   -130     -6    279    280 118.0  -1.3  34114  288.78 0855.23
2009/04/23 10:06:18.4     159   -183     83    243    257 139.0  18.9  34112  288.76 0855.23
2009/04/23 10:06:18.5     109   -172     90    204    222 147.5  25.2  34108  288.70 0855.23
2009/04/23 10:06:18.6     288    -48     41    292    295  99.5   8.0  34110  288.71 0855.23
2009/04/23 10:06:18.7     329     43     43    332    335  82.4   7.5  34114  288.79 0855.23
2009/04/23 10:06:18.8     395    -68   -134    401    422  99.8 -23.6  34114  288.78 0855.23
2009/04/23 10:06:18.9     373   -163    -81    408    417 113.6 -11.3  34108  288.70 0855.23
2009/04/23 10:06:19.0     457      0    -66    458    463  90.0  -8.3  34110  288.72 0855.23
2009/04/23 10:06:19.1     493    -75    -57    499    503  98.7  -6.6  34110  288.71 0855.23
2009/04/23 10:06:19.2     379   -165   -170    414    447 113.6 -27.9  34114  288.80 0855.23
2009/04/23 10:06:19.3     434    -80   -131    442    461 100.5 -21.5  34112  288.75 0855.23
2009/04/23 10:06:19.4     547    -11    -18    548    549  91.2  -1.9  34100  288.57 0855.23
2009/04/23 10:06:19.5     546      0     23    547    548  90.1   2.5  34106  288.65 0855.23
2009/04/23 10:06:19.6     513    -20      1    514    515  92.3   0.2  34104  288.64 0855.23
2009/04/23 10:06:19.7     384    -98     85    397    407 104.3  12.1  34100  288.56 0855.23
2009/04/23 10:06:19.8     259   -111     99    283    301 113.3  19.4  34110  288.71 0855.23
2009/04/23 10:06:19.9     310   -240    131    393    415 127.7  18.4  34118  288.85 0855.23
2009/04/23 10:06:20.0     318   -246    211    403    454 127.8  30.0  34102  288.58 0855.22
2009/04/23 10:06:20.1     320   -239    276    400    485 126.8  38.0  34098  288.51 0855.22
2009/04/23 10:06:20.2     313   -188    232    366    433 121.0  35.5  34108  288.70 0855.22
2009/04/23 10:06:20.3     302   -268    238    404    468 131.6  33.3  34104  288.63 0855.22
2009/04/23 10:06:20.4     229   -247    240    338    414 137.2  39.0  34100  288.54 0855.22
2009/04/23 10:06:20.5     201   -201    214    285    356 135.1  40.7  34100  288.54 0855.22
2009/04/23 10:06:20.6     196   -203    185    283    338 135.9  36.3  34100  288.56 0855.22
2009/04/23 10:06:20.7      80   -279    172    291    338 163.9  33.3  34100  288.56 0855.22
2009/04/23 10:06:20.8     102   -230    190    252    315 155.9  40.8  34104  288.61 0855.22
2009/04/23 10:06:20.9      68   -207    176    219    280 161.7  42.8  34104  288.63 0855.22
2009/04/23 10:06:21.0       7   -115    156    116    194 176.4  60.0  34110  288.72 0855.22
2009/04/23 10:06:21.1      15    -64    127     66    143 166.6  70.8  34108  288.70 0855.22
2009/04/23 10:06:21.2      30     16     57     35     66  61.1  64.7  34118  288.87 0855.22
2009/04/23 10:06:21.3     153    -31     73    157    173 101.5  26.6  34108  288.70 0855.22
2009/04/23 10:06:21.4     164    -11    151    165    223  94.1  47.9  34106  288.65 0855.22
2009/04/23 10:06:21.5     -10     31    156     33    159 341.3  88.8  34120  288.91 0855.22
2009/04/23 10:06:21.6     -53     50    127     74    146 313.2  66.8  34126  288.99 0855.22
2009/04/23 10:06:21.7     -53    -63    141     83    163 220.5  66.8  34116  288.84 0855.22
2009/04/23 10:06:21.8     -56   -102    169    117    205 209.0  62.4  34118  288.86 0855.22
2009/04/23 10:06:21.9     -91   -158    141    183    231 209.9  41.7  34112  288.77 0855.22
2009/04/23 10:06:22.0     -71    -71    132    101    166 224.7  59.0  34116  288.84 0855.24
2009/04/23 10:06:22.1      20    -75     60     78     98 164.9  42.2  34114  288.79 0855.24
2009/04/23 10:06:22.2     108   -129    106    169    199 140.1  35.2  34120  288.91 0855.24
2009/04/23 10:06:22.3     -58    -88      5    106    107 213.4   2.8  34114  288.79 0855.24
2009/04/23 10:06:22.4    -197    108    118    225    254 298.8  29.8  34110  288.71 0855.24
2009/04/23 10:06:22.5     -87     -2    152     88    175 268.3  67.5  34108  288.70 0855.24
2009/04/23 10:06:22.6    -225   -317    232    389    452 215.4  33.5  34104  288.61 0855.24
2009/04/23 10:06:22.7    -411   -256    103    485    496 238.1  12.0  34114  288.79 0855.24
2009/04/23 10:06:22.8    -421   -257    -10    494    495 238.6  -1.3  34110  288.71 0855.24
2009/04/23 10:06:22.9    -230   -167    -99    285    301 234.1 -24.0  34104  288.61 0855.24
2009/04/23 10:06:23.0    -301    -81    159    312    350 254.9  29.1  34110  288.74 0855.24
2009/04/23 10:06:23.1    -151   -228    178    274    326 213.6  36.0  34104  288.61 0855.24
2009/04/23 10:06:23.2    -258   -282    287    383    478 222.5  40.7  34116  288.82 0855.24
2009/04/23 10:06:23.3    -366   -250     87    444    453 235.6  11.1  34126  289.00 0855.24
2009/04/23 10:06:23.4    -335   -191    105    386    401 240.2  15.3  34120  288.88 0855.24
2009/04/23 10:06:23.5    -332   -149    126    364    386 245.8  19.2  34118  288.86 0855.24
2009/04/23 10:06:23.6    -366   -261    208    450    495 234.5  26.6  34122  288.93 0855.24
2009/04/23 10:06:23.7    -317   -160     99    356    370 243.2  15.6  34122  288.94 0855.24
2009/04/23 10:06:23.8    -368   -174    109    408    423 244.6  15.0  34136  289.16 0855.24
2009/04/23 10:06:23.9    -391    -96    -31    403    405 256.2  -4.5  34126  288.99 0855.24
2009/04/23 10:06:24.0    -374    -31     -7    376    377 265.2  -1.2  34126  288.99 0855.26
2009/04/23 10:06:24.1    -417   -203   -174    464    495 244.0 -25.9  34120  288.90 0855.26
2009/04/23 10:06:24.2    -311   -221    -63    382    388 234.5  -9.4  34130  289.06 0855.26
2009/04/23 10:06:24.3    -368    -96   -137    381    405 255.4 -19.8  34082  288.25 0855.26
2009/04/23 10:06:24.4    -485   -115   -106    499    511 256.6 -12.0  34118  288.86 0855.26
2009/04/23 10:06:24.5    -516   -108    120    528    542 258.1  12.9  34120  288.91 0855.26
2009/04/23 10:06:24.6    -429    -58    179    433    468 262.2  23.9  34112  288.75 0855.26
2009/04/23 10:06:24.7    -370    -31     58    372    377 265.1   9.0  34120  288.88 0855.26
2009/04/23 10:06:24.8    -269     97    140    287    319 289.9  27.9  34112  288.76 0855.26
2009/04/23 10:06:24.9    -262    -20    102    263    282 265.6  22.1  34112  288.76 0855.26
2009/04/23 10:06:25.0    -239     56    148    246    287 283.2  34.0  34112  288.76 0855.26
2009/04/23 10:06:25.1    -216    146    128    261    290 304.1  28.0  34110  288.73 0855.26
2009/04/23 10:06:25.2    -283    124    135    310    338 293.6  24.9  34116  288.82 0855.26
2009/04/23 10:06:25.3    -321    173    140    365    390 298.4  22.0  34120  288.91 0855.26
2009/04/23 10:06:25.4    -254    233     82    345    355 312.6  13.5  34134  289.13 0855.26
2009/04/23 10:06:25.5    -205    225    100    305    322 317.7  18.2  34126  288.98 0855.26
2009/04/23 10:06:25.6    -271    129    131    301    328 295.5  25.1  34122  288.92 0855.26
2009/04/23 10:06:25.7    -209    104     59    234    242 296.6  14.2  34116  288.83 0855.26
2009/04/23 10:06:25.8    -193    248     86    315    327 322.2  15.4  34118  288.87 0855.26
2009/04/23 10:06:25.9    -288    286    256    407    480 314.8  35.2  34126  289.00 0855.26
2009/04/23 10:06:26.0    -210     43    231    215    315 281.7  52.3  34122  288.92 0855.28
2009/04/23 10:06:26.1    -319    -80    202    329    386 255.8  34.6  34120  288.88 0855.28
2009/04/23 10:06:26.2    -243   -249    179    349    392 224.3  29.3  34120  288.88 0855.28
2009/04/23 10:06:26.3    -208   -160    126    263    291 232.5  27.3  34122  288.92 0855.28
2009/04/23 10:06:26.4    -195   -171    131    260    291 228.7  28.7  34116  288.81 0855.28
2009/04/23 10:06:26.5    -136   -128     85    188    206 226.7  25.9  34128  289.04 0855.28
2009/04/23 10:06:26.6     -93   -142     83    170    189 213.2  27.4  34132  289.11 0855.28
2009/04/23 10:06:26.7     -99      0     74    100    124 270.0  40.1  34132  289.09 0855.28
2009/04/23 10:06:26.8    -312      4    206    313    374 270.8  36.4  34132  289.10 0855.28
2009/04/23 10:06:26.9    -230     69    224    241    329 286.8  47.8  34128  289.02 0855.28
2009/04/23 10:06:27.0    -261     43    215    265    341 279.5  43.4  34132  289.10 0855.28
2009/04/23 10:06:27.1    -160    -95     44    187    193 239.3  13.2  34126  289.01 0855.28
2009/04/23 10:06:27.2    -201   -194    -46    280    284 226.0  -9.3  34130  289.05 0855.28
2009/04/23 10:06:27.3    -270   -250     89    369    380 227.2  13.7  34118  288.86 0855.28
2009/04/23 10:06:27.4    -229   -193     58    300    306 229.8  11.0  34126  288.98 0855.28
2009/04/23 10:06:27.5    -199   -131     45    239    244 236.5  10.8  34130  289.05 0855.28
2009/04/23 10:06:27.6    -175    -90    -32    197    200 242.7  -9.3  34126  289.01 0855.28
2009/04/23 10:06:27.7    -167    -38     97    172    197 257.0  31.9  34128  289.04 0855.28
2009/04/23 10:06:27.8    -156     18     64    158    170 276.6  23.4  34124  288.96 0855.28
2009/04/23 10:06:27.9    -210    -31    145    213    257 261.6  37.6  34138  289.19 0855.28
2009/04/23 10:06:28.0    -171   -160    121    235    264 226.8  29.3  34130  289.07 0855.27
2009/04/23 10:06:28.1     -87   -157    119    180    215 209.2  36.5  34130  289.06 0855.27
2009/04/23 10:06:28.2      33   -209     41    212    217 170.9  11.1  34124  288.97 0855.27
2009/04/23 10:06:28.3    -106   -203     76    230    243 207.6  18.4  34124  288.97 0855.27
2009/04/23 10:06:28.4    -115   -210     98    240    259 208.7  23.1  34126  288.98 0855.27
2009/04/23 10:06:28.5    -118   -193     70    227    238 211.4  17.3  34126  288.98 0855.27
2009/04/23 10:06:28.6    -192   -185     46    267    272 226.0   9.9  34128  289.02 0855.27
2009/04/23 10:06:28.7    -120   -159     54    200    208 217.2  15.3  34136  289.16 0855.27
2009/04/23 10:06:28.8    -221   -162     32    275    277 233.8   6.7  34146  289.32 0855.27
2009/04/23 10:06:28.9    -179   -304     32    353    355 210.5   5.2  34146  289.33 0855.27
2009/04/23 10:06:29.0    -270   -345     28    439    440 218.1   3.7  34166  289.66 0855.27
2009/04/23 10:06:29.1    -228   -395     98    457    468 210.0  12.2  34140  289.22 0855.27
2009/04/23 10:06:29.3    -109   -352    108    369    385 197.3  16.3  34120  288.89 0855.27
2009/04/23 10:06:29.3    -117   -370    112    389    405 197.6  16.1  34116  288.81 0855.27
2009/04/23 10:06:29.4      17   -453    -10    454    455 177.8  -1.3  34116  288.83 0855.27
2009/04/23 10:06:29.5      74   -465     49    472    475 170.9   6.0  34116  288.83 0855.27
2009/04/23 10:06:29.6      75   -578    141    583    600 172.5  13.7  34118  288.86 0855.27
2009/04/23 10:06:29.8      58   -578     91    582    590 174.2   8.9  34118  288.85 0855.27
2009/04/23 10:06:29.9      77   -560    178    566    594 172.1  17.5  34120  288.90 0855.27
2009/04/23 10:06:30.0      20   -500    263    501    565 177.7  30.0  34118  288.87 0855.27
2009/04/23 10:06:30.1      74   -393    332    400    519 169.3  43.8  34120  288.90 0855.24
2009/04/23 10:06:30.2     -44   -485    245    487    545 185.2  28.8  34118  288.85 0855.24
2009/04/23 10:06:30.3    -196   -599    128    631    644 198.2  11.5  34120  288.91 0855.24
2009/04/23 10:06:30.4    -201   -441    113    485    498 204.5  13.1  34116  288.84 0855.24
2009/04/23 10:06:30.5      44   -405     78    408    416 173.7  10.8  34112  288.75 0855.24
2009/04/23 10:06:30.6      42   -270     37    274    277 171.1   7.8  34120  288.88 0855.24
2009/04/23 10:06:30.7      34   -401    -51    403    407 175.1  -7.3  34122  288.94 0855.24
2009/04/23 10:06:30.8      23   -313     76    314    324 175.6  13.6  34122  288.93 0855.24
2009/04/23 10:06:30.9     -35   -261    -22    264    266 187.8  -4.9  34126  288.98 0855.24
2009/04/23 10:06:31.0     -22   -205    -17    207    208 186.2  -4.9  34122  288.92 0855.24
2009/04/23 10:06:31.1       0   -322     -6    323    324 180.1  -1.2  34112  288.76 0855.24
2009/04/23 10:06:31.2     -80   -412     98    420    432 191.0  13.1  34118  288.87 0855.24
2009/04/23 10:06:31.3    -136   -299     21    329    330 204.6   3.8  34118  288.86 0855.24
2009/04/23 10:06:31.4     -84   -386     47    396    399 192.4   6.9  34118  288.86 0855.24
2009/04/23 10:06:31.5    -185   -472     -1    508    509 201.4  -0.2  34112  288.76 0855.24
2009/04/23 10:06:31.6    -187   -405   -124    447    463 204.8 -20.1  34100  288.55 0855.24
2009/04/23 10:06:31.7    -109   -304    -78    324    334 199.8 -13.6  34112  288.76 0855.24
2009/04/23 10:06:31.8    -162   -255   -134    303    331 212.5 -29.7  34112  288.75 0855.24
2009/04/23 10:06:31.9      60   -296   -150    302    337 168.5 -32.8  34116  288.81 0855.24
2009/04/23 10:06:32.0      86   -284   -155    297    335 163.1 -34.4  34120  288.90 0855.24
2009/04/23 10:06:32.1      86   -205   -128    223    257 157.3 -36.8  34118  288.85 0855.18
2009/04/23 10:06:32.2     136   -199    -35    242    245 145.7  -8.3  34108  288.70 0855.18
2009/04/23 10:06:32.3     184   -141    121    233    262 127.5  29.8  34112  288.76 0855.18
2009/04/23 10:06:32.4     232   -107    173    256    308 114.8  37.4  34112  288.75 0855.18
2009/04/23 10:06:32.5     300   -304    237    428    489 135.4  31.4  34124  288.95 0855.18
2009/04/23 10:06:32.6     205   -434     63    481    486 154.7   7.5  34114  288.79 0855.18
2009/04/23 10:06:32.7     153   -505    -77    529    535 163.1  -8.4  34110  288.72 0855.18
2009/04/23 10:06:32.8     161   -499    -16    525    526 162.1  -1.8  34106  288.67 0855.18
2009/04/23 10:06:32.9     215   -572     17    612    613 159.4   1.6  34104  288.63 0855.18
2009/04/23 10:06:33.0     120   -513     16    527    528 166.8   1.8  34110  288.74 0855.18
2009/04/23 10:06:33.1     115   -403    -16    420    421 164.1  -2.2  34110  288.73 0855.18
2009/04/23 10:06:33.2     281   -329    138    433    455 139.5  17.7  34112  288.77 0855.18
2009/04/23 10:06:33.3     250   -354    177    434    468 144.8  23.5  34106  288.67 0855.18
2009/04/23 10:06:33.4     247   -280    189    374    419 138.6  28.9  34108  288.68 0855.18
2009/04/23 10:06:33.5     251   -163    211    300    366 123.1  38.6  34110  288.74 0855.18
2009/04/23 10:06:33.6     195   -251    240    319    399 142.2  40.7  34106  288.66 0855.18
2009/04/23 10:06:33.7     181   -266    239    322    401 145.7  40.4  34106  288.67 0855.18
2009/04/23 10:06:33.8     158   -203    267    258    371 142.2  51.2  34100  288.57 0855.18
2009/04/23 10:06:33.9      27    -52    184     59    193 151.9  81.2  34114  288.79 0855.18
2009/04/23 10:06:34.0     140   -155    260    210    334 137.9  56.9  34110  288.73 0855.18
2009/04/23 10:06:34.1      52   -194    275    202    341 164.9  60.4  34114  288.78 0855.12
2009/04/23 10:06:34.2      64   -204    281    214    353 162.4  59.0  34110  288.71 0855.12
2009/04/23 10:06:34.3      88   -143    176    168    243 148.4  51.2  34114  288.79 0855.12
2009/04/23 10:06:34.4      88   -129    255    157    299 145.7  65.4  34106  288.65 0855.12
2009/04/23 10:06:34.5      22   -176    230    178    290 172.7  58.5  34106  288.66 0855.12
2009/04/23 10:06:34.6     -44   -110    217    119    247 201.8  68.9  34110  288.74 0855.12
2009/04/23 10:06:34.7     -72   -219    264    231    350 198.3  54.4  34108  288.68 0855.12
2009/04/23 10:06:34.8    -103   -198    264    224    346 207.6  55.6  34108  288.68 0855.12
2009/04/23 10:06:34.9      -2   -133    168    134    214 180.9  57.1  34116  288.82 0855.12
2009/04/23 10:06:35.0      11     33    150     35    154  18.7  87.0  34116  288.84 0855.12
2009/04/23 10:06:35.1     -48     45    131     67    147 313.1  71.0  34122  288.94 0855.12
2009/04/23 10:06:35.2      28     60    154     67    167  25.5  75.3  34124  288.97 0855.12
2009/04/23 10:06:35.3    -108      4     82    109    136 272.1  40.7  34116  288.84 0855.12
2009/04/23 10:06:35.4    -190    103     25    217    219 298.6   6.7  34108  288.69 0855.12
2009/04/23 10:06:35.5    -199    145    117    247    273 306.2  27.2  34114  288.78 0855.12
2009/04/23 10:06:35.6    -125    128    159    180    240 315.7  45.9  34116  288.84 0855.12
2009/04/23 10:06:35.7     -58    172    148    182    234 341.3  43.5  34112  288.77 0855.12
2009/04/23 10:06:35.8    -169    139    108    219    244 309.5  28.2  34112  288.75 0855.12
2009/04/23 10:06:35.9     -75     -3     96     76    122 267.4  57.5  34114  288.79 0855.12
2009/04/23 10:06:36.0     -64   -104    108    123    163 211.6  46.2  34116  288.84 0855.12
2009/04/23 10:06:36.1     -66     18    143     69    158 285.9  72.4  34120  288.91 0855.14
2009/04/23 10:06:36.2    -114     37    122    120    171 288.2  50.1  34120  288.89 0855.14
2009/04/23 10:06:36.3     -71     32    141     79    161 294.4  68.3  34124  288.96 0855.14
2009/04/23 10:06:36.4    -324    -54    181    329    375 260.4  31.3  34120  288.88 0855.14
2009/04/23 10:06:36.5    -497    -51    -67    500    505 264.1  -7.7  34140  289.23 0855.14
2009/04/23 10:06:36.6    -384     25    -66    385    391 273.8  -9.8  34136  289.15 0855.14
2009/04/23 10:06:36.7    -225     35     -1    228    229 279.0  -0.3  34122  288.94 0855.14
2009/04/23 10:06:36.8    -272    163     62    318    325 300.9  11.1  34118  288.87 0855.14
2009/04/23 10:06:36.9    -187    -48    174    194    260 255.6  46.9  34126  289.00 0855.14
2009/04/23 10:06:37.0    -164   -163    193    232    301 225.1  43.8  34112  288.76 0855.14
2009/04/23 10:06:37.1    -160   -214    206    268    338 216.9  41.4  34112  288.75 0855.14
2009/04/23 10:06:37.2    -207   -155    165    259    307 233.1  35.6  34118  288.85 0855.14
2009/04/23 10:06:37.3    -234    -74     97    246    264 252.3  22.8  34128  289.03 0855.14
2009/04/23 10:06:37.4    -231    -61      9    239    240 255.2   2.3  34116  288.81 0855.14
2009/04/23 10:06:37.5    -109    -94   -126    145    192 229.1 -49.8  34112  288.77 0855.14
2009/04/23 10:06:37.6     -45   -173     65    179    190 194.7  20.4  34116  288.82 0855.14
2009/04/23 10:06:37.7      -8   -160     -6    161    162 182.9  -2.2  34112  288.75 0855.14
2009/04/23 10:06:37.8       5    -67    118     68    136 175.6  66.8  34126  289.01 0855.14
2009/04/23 10:06:37.9    -122    -32    116    127    172 255.0  47.1  34136  289.16 0855.14
2009/04/23 10:06:38.0    -290    -67    130    298    325 257.0  25.1  34142  289.25 0855.14
2009/04/23 10:06:38.1    -197    -93    136    219    257 244.7  34.8  34142  289.27 0855.16
2009/04/23 10:06:38.2    -110    -40     99    118    154 250.0  43.8  34140  289.24 0855.16
2009/04/23 10:06:38.3    -130     12    107    131    169 275.7  43.7  34150  289.40 0855.16
2009/04/23 10:06:38.4    -129     93    174    160    236 305.7  52.7  34138  289.19 0855.16
2009/04/23 10:06:38.5    -106     45     86    116    144 293.1  39.7  34136  289.16 0855.16
2009/04/23 10:06:38.6     -49    -16     78     52     93 251.8  63.6  34140  289.24 0855.16
2009/04/23 10:06:38.7     -22      4     62     23     66 281.5  80.2  34146  289.35 0855.16
2009/04/23 10:06:38.8     -14      0     47     15     49 270.0  80.7  34148  289.38 0855.16
2009/04/23 10:06:38.9     -29    -10     84     31     89 250.0  79.7  34150  289.40 0855.16
2009/04/23 10:06:39.0     -33      6    103     34    108 281.5  80.7  34148  289.38 0855.16
2009/04/23 10:06:39.1     -53    -34    100     64    118 237.5  64.6  34124  288.97 0855.21
2009/04/23 10:06:39.2     -84     46     75     97    122 298.9  41.7  34130  289.08 0855.21
2009/04/23 10:06:39.3    -215     68    137    226    264 287.7  34.4  34126  289.00 0855.21
2009/04/23 10:06:39.4    -174     99    131    201    239 299.8  36.5  34116  288.82 0855.21
2009/04/23 10:06:39.5    -219     85     79    236    250 291.3  18.6  34116  288.83 0855.21
2009/04/23 10:06:39.6    -202    -23    -43    204    209 263.4 -11.9  34112  288.77 0855.21
2009/04/23 10:06:39.7    -101      0    -49    102    113 270.0 -31.6  34108  288.69 0855.21
2009/04/23 10:06:39.8     -56    -44    117     72    137 231.4  65.1  34122  288.92 0855.21
2009/04/23 10:06:39.9     -89      4    123     90    152 272.6  60.5  34132  289.09 0855.21
2009/04/23 10:06:40.0    -147    -11    103    148    180 265.6  38.4  34128  289.04 0855.21
2009/04/23 10:06:40.1    -182     88    121    203    236 296.0  33.5  34144  289.31 0855.21
2009/04/23 10:06:40.2    -202    103    133    227    263 297.1  33.4  34142  289.27 0855.21
2009/04/23 10:06:40.3    -237     63    106    246    267 285.1  24.9  34132  289.09 0855.21
2009/04/23 10:06:40.4    -247     61     71    255    265 284.1  15.6  34138  289.19 0855.21
2009/04/23 10:06:40.5    -309    115    139    330    358 290.5  24.1  34170  289.74 0855.21
2009/04/23 10:06:40.6    -386    153     43    416    419 291.7   6.0  34164  289.63 0855.21
2009/04/23 10:06:40.7    -401    101     -2    414    415 284.2  -0.4  34208  290.39 0855.21
2009/04/23 10:06:40.8    -379     62     -4    385    386 279.4  -0.6  34220  290.60 0855.21
2009/04/23 10:06:40.9    -504     57    -23    508    509 276.5  -2.7  34178  289.86 0855.21
2009/04/23 10:06:41.0    -476     73     58    482    486 278.8   6.9  34166  289.67 0855.21
2009/04/23 10:06:41.1    -380     69      4    387    388 280.3   0.7  34164  289.64 0855.27
2009/04/23 10:06:41.2    -420     57    102    424    437 277.8  13.6  34146  289.34 0855.27
2009/04/23 10:06:41.3    -477     56     18    481    482 276.7   2.2  34162  289.62 0855.27
2009/04/23 10:06:41.4    -346     59     37    352    355 279.8   6.1  34128  289.04 0855.27
2009/04/23 10:06:41.5    -423     25     86    424    433 273.4  11.5  34122  288.92 0855.27
2009/04/23 10:06:41.6    -453   -102    289    465    547 257.2  34.9  34122  288.92 0855.27
2009/04/23 10:06:41.7    -330    -93    276    343    440 254.2  42.9  34130  289.05 0855.27
2009/04/23 10:06:41.8    -343    -94     66    356    363 254.6  10.6  34144  289.30 0855.27
2009/04/23 10:06:41.9    -353   -175     -7    395    396 243.6  -1.1  34130  289.08 0855.27
2009/04/23 10:06:42.0    -432   -247     24    498    499 240.3   2.8  34130  289.05 0855.27
2009/04/23 10:06:42.1    -519   -250     13    577    578 244.3   1.4  34150  289.41 0855.27
2009/04/23 10:06:42.2    -437   -198    110    480    493 245.6  12.9  34142  289.28 0855.27
2009/04/23 10:06:42.3    -371   -242    120    444    461 236.9  15.1  34144  289.29 0855.27
2009/04/23 10:06:42.4    -293   -260     84    393    403 228.4  12.2  34148  289.38 0855.27
2009/04/23 10:06:42.5    -185   -296     86    350    361 212.0  13.9  34148  289.37 0855.27
2009/04/23 10:06:42.6    -220   -281    173    358    397 218.1  27.8  34148  289.38 0855.27
2009/04/23 10:06:42.7    -107   -333     91    350    362 197.9  14.6  34136  289.18 0855.27
2009/04/23 10:06:42.8     -64   -441    117    446    462 188.3  14.7  34140  289.24 0855.27
2009/04/23 10:06:42.9    -157   -383    251    414    484 202.3  34.1  34128  289.02 0855.27
2009/04/23 10:06:43.0    -155   -494    260    518    579 197.5  28.7  34132  289.11 0855.27
2009/04/23 10:06:43.1    -106   -669     34    678    679 189.0   2.9  34154  289.46 0855.30
2009/04/23 10:06:43.2    -184   -693    -28    718    719 194.9  -2.2  34132  289.10 0855.30
2009/04/23 10:06:43.3    -153   -669      2    687    688 192.9   0.2  34122  288.92 0855.30
2009/04/23 10:06:43.4     -22   -487    138    488    508 182.7  15.8  34132  289.10 0855.30
2009/04/23 10:06:43.5      55   -596    116    599    611 174.7  11.0  34140  289.24 0855.30
2009/04/23 10:06:43.6      17   -566     27    567    568 178.2   2.8  34132  289.11 0855.30
2009/04/23 10:06:43.7     -20   -505     73    506    512 182.3   8.2  34132  289.10 0855.30
2009/04/23 10:06:43.8     -47   -604     49    606    609 184.5   4.7  34132  289.10 0855.30
2009/04/23 10:06:43.9      26   -592     39    593    595 177.4   3.8  34112  288.76 0855.30
2009/04/23 10:06:44.0     -84   -449    -91    457    467 190.7 -11.3  34118  288.85 0855.30
2009/04/23 10:06:44.1    -222   -487     -6    536    537 204.5  -0.7  34136  289.16 0855.30
2009/04/23 10:06:44.2    -356   -503   -123    617    630 215.3 -11.3  34126  289.01 0855.30
2009/04/23 10:06:44.3    -205   -434   -120    481    496 205.3 -14.0  34118  288.86 0855.30
2009/04/23 10:06:44.4    -266   -431    -36    507    509 211.7  -4.1  34110  288.73 0855.30
2009/04/23 10:06:44.5    -420   -338    -43    540    542 231.1  -4.6  34124  288.96 0855.30
2009/04/23 10:06:44.6    -303   -634    134    703    716 205.6  10.8  34118  288.86 0855.30
2009/04/23 10:06:44.7     -73   -359    126    367    389 191.5  18.9  34114  288.79 0855.30
2009/04/23 10:06:44.8    -114   -343    190    362    408 198.5  30.1  34110  288.74 0855.30
2009/04/23 10:06:44.9    -107   -245     83    268    281 203.7  17.3  34114  288.80 0855.30
2009/04/23 10:06:45.0      29   -143    186    147    237 168.4  57.7  34118  288.87 0855.30
2009/04/23 10:06:45.1      96   -116    196    151    247 140.3  58.5  34116  288.84 0855.27
2009/04/23 10:06:45.2     193   -218    232    292    372 138.5  42.6  34110  288.74 0855.27
2009/04/23 10:06:45.3      29   -220    168    222    278 172.4  40.9  34100  288.56 0855.27
2009/04/23 10:06:45.4     -32   -302    201    304    364 186.2  36.5  34100  288.57 0855.27
2009/04/23 10:06:45.5     -67   -265    214    274    347 194.3  42.1  34104  288.63 0855.27
2009/04/23 10:06:45.6     -35   -285    173    288    335 187.1  33.8  34104  288.63 0855.27
2009/04/23 10:06:45.7    -162   -263     85    309    321 211.6  15.4  34100  288.56 0855.27
2009/04/23 10:06:45.8    -120   -333    125    355    376 199.8  20.2  34100  288.57 0855.27
2009/04/23 10:06:45.9    -118   -254     15    281    282 204.9   3.1  34100  288.56 0855.27
2009/04/23 10:06:46.0     -50   -250     -2    256    257 191.5  -0.5  34102  288.58 0855.27
2009/04/23 10:06:46.1    -163   -280    -34    325    327 210.3  -6.0  34102  288.59 0855.27
2009/04/23 10:06:46.2     -54   -387     -7    391    392 188.0  -1.1  34106  288.66 0855.27
2009/04/23 10:06:46.3    -140   -368    124    395    415 200.9  17.4  34106  288.65 0855.27
2009/04/23 10:06:46.4     -77   -314    180    324    370 193.8  31.4  34102  288.60 0855.27
2009/04/23 10:06:46.5      -9   -320     81    321    332 181.7  14.2  34108  288.70 0855.27
2009/04/23 10:06:46.6      74   -273    166    283    328 164.8  33.1  34104  288.63 0855.27
2009/04/23 10:06:46.7     -33   -278    182    281    334 186.9  35.9  34106  288.65 0855.27
2009/04/23 10:06:46.8     -64   -251     92    260    275 194.3  20.2  34102  288.59 0855.27
2009/04/23 10:06:46.9     -94   -286    159    302    341 198.3  30.1  34104  288.62 0855.27
2009/04/23 10:06:47.0    -119   -273    144    299    331 203.6  27.4  34104  288.61 0855.27
2009/04/23 10:06:47.1      15   -256    195    257    322 176.6  41.2  34102  288.58 0855.25
2009/04/23 10:06:47.2      67   -329    230    336    407 168.4  37.7  34110  288.71 0855.25
2009/04/23 10:06:47.3     -10   -423    256    424    495 181.4  34.0  34098  288.52 0855.25
2009/04/23 10:06:47.4      78   -474    302    481    567 170.6  35.1  34100  288.57 0855.25
2009/04/23 10:06:47.5      63   -570    201    574    608 173.7  20.0  34090  288.39 0855.25
2009/04/23 10:06:47.6     136   -671    387    685    786 168.5  32.0  34092  288.43 0855.25
2009/04/23 10:06:47.7     506   -322    426    601    736 122.5  38.8  34104  288.63 0855.25
2009/04/23 10:06:47.8     414   -290    395    506    641 125.0  41.9  34104  288.61 0855.25
2009/04/23 10:06:47.9     379    -97    362    392    533 104.4  47.7  34104  288.62 0855.25
2009/04/23 10:06:48.0     569   -249    277    622    680 113.6  25.7  34106  288.66 0855.25
2009/04/23 10:06:48.1     399   -340    148    525    546 130.4  15.8  34098  288.53 0855.25
2009/04/23 10:06:48.2     420   -199    139    465    486 115.4  16.7  34090  288.39 0855.25
2009/04/23 10:06:48.3     304   -160    148    344    374 117.9  24.9  34094  288.45 0855.25
2009/04/23 10:06:48.4     214    -45     38    219    223 101.9   9.9  34098  288.52 0855.25
2009/04/23 10:06:48.5      74   -134    131    154    202 151.1  44.8  34096  288.50 0855.25
2009/04/23 10:06:48.6     -22   -298    192    299    355 184.4  35.6  34096  288.49 0855.25
2009/04/23 10:06:48.7      66   -390    192    396    440 170.4  27.8  34096  288.50 0855.25
2009/04/23 10:06:48.8     225   -405    307    464    556 151.0  36.5  34094  288.47 0855.25
2009/04/23 10:06:48.9     300   -362    222    471    520 140.3  27.1  34090  288.40 0855.25
2009/04/23 10:06:49.0     273   -530    128    597    611 152.7  12.2  34094  288.44 0855.25
2009/04/23 10:06:49.1     369   -649    209    747    776 150.4  15.7  34094  288.45 0855.20
2009/04/23 10:06:49.2     388   -636    166    746    765 148.6  12.6  34090  288.38 0855.20
2009/04/23 10:06:49.3     330   -428    175    541    569 142.4  17.9  34088  288.35 0855.20
2009/04/23 10:06:49.4     202   -335    315    392    502 148.9  43.0  34082  288.25 0855.20
2009/04/23 10:06:49.5      73   -254    254    265    367 163.9  48.7  34094  288.45 0855.20
2009/04/23 10:06:49.6     164   -211    113    268    290 142.1  24.2  34100  288.56 0855.20
2009/04/23 10:06:49.7      50   -264     66    269    278 169.3  13.9  34100  288.54 0855.20
2009/04/23 10:06:49.8      -8   -266     91    267    283 181.8  18.9  34096  288.49 0855.20
2009/04/23 10:06:49.9     -37   -430    166    432    462 185.0  22.2  34096  288.48 0855.20
2009/04/23 10:06:50.0     -28   -429    251    430    497 183.8  32.9  34102  288.59 0855.20
2009/04/23 10:06:50.1    -160   -400    -34    432    434 201.9  -4.6  34098  288.53 0855.20
2009/04/23 10:06:50.2    -112   -219    194    247    314 207.2  42.2  34094  288.44 0855.20
2009/04/23 10:06:50.3      25   -375    244    376    448 176.1  35.9  34088  288.34 0855.20
2009/04/23 10:06:50.4     -47   -432    337    435    550 186.2  41.7  34096  288.49 0855.20
2009/04/23 10:06:50.5    -154   -528    317    551    635 196.3  32.6  34102  288.58 0855.20
2009/04/23 10:06:50.6     -17   -518    297    519    597 181.9  32.4  34098  288.53 0855.20
2009/04/23 10:06:50.7       2   -406    267    407    486 179.7  36.3  34100  288.55 0855.20
2009/04/23 10:06:50.8     135   -200    263    242    357 145.9  52.6  34102  288.58 0855.20
2009/04/23 10:06:50.9     177   -106    218    207    300 120.9  52.0  34110  288.71 0855.20
2009/04/23 10:06:51.0     267    -97    226    285    363 110.0  42.4  34100  288.54 0855.20
2009/04/23 10:06:51.1     115    -26    225    118    254 102.8  70.4  34096  288.50 0855.20
2009/04/23 10:06:51.2     -16   -209    198    210    288 184.4  48.2  34102  288.58 0855.20
2009/04/23 10:06:51.3      -3   -212    295    213    363 181.0  60.7  34098  288.53 0855.20
2009/04/23 10:06:51.4     -34   -267    307    270    408 187.3  54.3  34102  288.59 0855.20
2009/04/23 10:06:51.5     -26   -187    171    189    254 188.0  46.9  34100  288.56 0855.20
2009/04/23 10:06:51.6     102   -163    119    193    226 148.1  35.0  34096  288.48 0855.20
2009/04/23 10:06:51.7     -70    126    156    145    212 331.0  52.2  34104  288.62 0855.20
2009/04/23 10:06:51.8     -47    120    137    129    188 338.6  52.0  34102  288.58 0855.20
2009/04/23 10:06:51.9     -21   -172    173    174    245 187.1  50.0  34104  288.64 0855.20
2009/04/23 10:06:52.0    -119   -211    232    243    335 209.4  48.5  34098  288.51 0855.20
2009/04/23 10:06:52.1     -97   -251    133    270    300 201.2  28.2  34096  288.49 0855.20
2009/04/23 10:06:52.2    -205   -220    128    301    327 223.0  24.5  34094  288.44 0855.20
2009/04/23 10:06:52.3    -180   -168    100    247    266 226.9  23.1  34096  288.48 0855.20
2009/04/23 10:06:52.4    -186   -210    -25    281    283 221.5  -5.1  34096  288.48 0855.20
2009/04/23 10:06:52.5    -248   -218    -12    331    332 228.7  -2.2  34092  288.42 0855.20
2009/04/23 10:06:52.6    -277   -379     88    470    479 216.1  10.6  34094  288.44 0855.20
2009/04/23 10:06:52.7    -236   -572    231    619    660 202.4  21.4  34094  288.47 0855.20
2009/04/23 10:06:52.8    -183   -384    121    426    443 205.5  15.9  34094  288.45 0855.20
2009/04/23 10:06:52.9    -146   -403    280    429    512 199.9  36.3  34094  288.47 0855.20
2009/04/23 10:06:53.0    -178   -373    319    414    522 205.5  41.6  34094  288.44 0855.20
2009/04/23 10:06:53.1    -105   -306    295    324    438 198.9  47.0  34090  288.38 0855.21
2009/04/23 10:06:53.2    -205   -324    176    384    422 212.3  26.4  34106  288.65 0855.21
2009/04/23 10:06:53.3    -213   -373    354    430    556 209.8  43.7  34092  288.42 0855.21
2009/04/23 10:06:53.4    -420   -349    197    547    581 230.3  20.7  34106  288.66 0855.21
2009/04/23 10:06:53.6    -449   -384    105    592    602 229.5  10.1  34112  288.76 0855.21
2009/04/23 10:06:53.6    -609   -436    137    750    763 234.4  10.4  34122  288.94 0855.21
2009/04/23 10:06:53.7    -597   -522    103    794    801 228.8   7.4  34108  288.68 0855.21
2009/04/23 10:06:53.8    -238   -464    390    522    651 207.2  40.5  34096  288.48 0855.21
2009/04/23 10:06:53.9    -363   -445    183    575    604 219.2  17.7  34116  288.81 0855.21
2009/04/23 10:06:54.0    -394   -725    134    826    837 208.5   9.2  34096  288.50 0855.21
2009/04/23 10:06:54.1    -277   -763    321    812    873 200.0  22.8  34088  288.36 0855.21
2009/04/23 10:06:54.2    -743   -842    -49   1124   1125 221.4  -2.5  34078  288.19 0855.21
2009/04/23 10:06:54.3    -830   -384   -289    915    960 245.2 -17.5  34084  288.29 0855.21
2009/04/23 10:06:54.4    -753   -295   -279    809    857 248.6 -19.1  34074  288.12 0855.21
2009/04/23 10:06:54.5    -612   -320   -233    691    730 242.4 -18.7  34086  288.32 0855.21
2009/04/23 10:06:54.6    -675   -252   -153    721    738 249.5 -12.0  34084  288.30 0855.21
2009/04/23 10:06:54.7    -504   -406     96    648    656 231.1   8.5  34094  288.47 0855.21
2009/04/23 10:06:54.8    -328   -439    206    549    586 216.7  21.5  34068  288.00 0855.21
2009/04/23 10:06:54.9    -639   -370    160    739    757 239.9  12.3  34114  288.79 0855.21
2009/04/23 10:06:55.0    -555   -284     72    624    629 242.9   6.6  34112  288.77 0855.21
2009/04/23 10:06:55.1    -619   -247     10    667    668 248.2   0.9  34098  288.53 0855.16
2009/04/23 10:06:55.2    -675   -239   -182    717    740 250.5 -14.3  34100  288.54 0855.16
2009/04/23 10:06:55.3    -752    -90   -244    758    796 263.1 -22.9  34096  288.49 0855.16
2009/04/23 10:06:55.4    -766     45   -181    768    790 273.4 -13.3  34090  288.37 0855.16
2009/04/23 10:06:55.5    -670    -35   -247    671    715 267.0 -25.5  34084  288.29 0855.16
2009/04/23 10:06:55.6    -807     10   -195    808    832 270.7 -13.6  34084  288.28 0855.16
2009/04/23 10:06:55.7    -779    -11   -142    780    793 269.2 -10.4  34072  288.07 0855.16
2009/04/23 10:06:55.8    -724    164   -148    743    758 282.8 -11.3  34094  288.45 0855.16
2009/04/23 10:06:55.9    -650    110   -223    660    697 279.6 -18.7  34076  288.14 0855.16
2009/04/23 10:06:56.1    -632     37   -209    634    667 273.4 -23.3  34084  288.29 0855.16
2009/04/23 10:06:56.2    -487    -58   -266    491    558 263.2 -35.2  34078  288.18 0855.16
2009/04/23 10:06:56.2    -317    233    -50    394    398 306.4  -7.3  34080  288.22 0855.16
2009/04/23 10:06:56.4    -352    205    111    408    424 300.2  15.3  34100  288.55 0855.16
2009/04/23 10:06:56.5    -398    189     36    441    443 295.4   4.7  34102  288.58 0855.16
2009/04/23 10:06:56.6    -280    109     36    301    304 291.3   6.9  34098  288.51 0855.16
2009/04/23 10:06:56.7    -187    167     65    251    260 311.8  14.5  34106  288.66 0855.16
2009/04/23 10:06:56.8    -235    276   -119    363    383 319.6 -18.2  34104  288.62 0855.16
2009/04/23 10:06:56.9    -268    202      1    336    337 307.0   0.2  34110  288.72 0855.16
2009/04/23 10:06:57.0    -439     78   -171    446    477 280.1 -26.4  34092  288.42 0855.16
2009/04/23 10:06:57.1    -383    121   -149    402    428 287.5 -25.5  34092  288.41 0855.16
2009/04/23 10:06:57.2    -308    206   -122    371    391 303.9 -18.2  34088  288.35 0855.18
2009/04/23 10:06:57.3    -343    234    -63    416    421 304.3  -8.7  34108  288.68 0855.18
2009/04/23 10:06:57.4    -316    186     17    367    368 300.5   2.8  34100  288.54 0855.18
2009/04/23 10:06:57.5    -248     50      7    254    255 281.5   1.8  34110  288.71 0855.18
2009/04/23 10:06:57.6    -328      0     -9    329    330 270.0  -1.7  34112  288.76 0855.18
2009/04/23 10:06:57.7    -254      9    -90    255    271 272.1 -19.6  34100  288.54 0855.18
2009/04/23 10:06:57.8    -333    -26   -100    335    350 265.4 -16.7  34102  288.59 0855.18
2009/04/23 10:06:57.9    -291   -176    -48    341    345 238.9  -8.1  34116  288.81 0855.18
2009/04/23 10:06:58.0    -315   -140    -69    345    352 246.0 -11.3  34114  288.79 0855.18
2009/04/23 10:06:58.1    -352    -26   -107    353    370 265.7 -16.9  34102  288.59 0855.18
2009/04/23 10:06:58.2    -240   -106    -78    263    275 246.0 -16.6  34094  288.46 0855.18
2009/04/23 10:06:58.3    -163    -28    -65    166    178 260.1 -26.9  34104  288.64 0855.18
2009/04/23 10:06:58.4    -378   -314   -116    492    506 230.2 -13.3  34094  288.44 0855.18
2009/04/23 10:06:58.5    -355   -226    -19    421    422 237.5  -2.7  34122  288.94 0855.18
2009/04/23 10:06:58.6    -374   -306    -75    484    490 230.7  -8.8  34132  289.10 0855.18
2009/04/23 10:06:58.7    -443    -52   -296    447    536 263.2 -40.9  34092  288.42 0855.18
2009/04/23 10:06:58.8    -512   -325   -217    607    644 237.6 -25.0  34106  288.65 0855.18
2009/04/23 10:06:58.9    -536   -235   -288    586    652 246.3 -32.5  34100  288.55 0855.18
2009/04/23 10:06:59.0    -517   -291   -140    594    611 240.6 -13.3  34104  288.61 0855.18
2009/04/23 10:06:59.1    -415   -428   -157    597    618 224.1 -14.8  34112  288.75 0855.18
2009/04/23 10:06:59.2    -410   -154   -242    439    501 249.4 -35.7  34094  288.46 0855.13
2009/04/23 10:06:59.3    -422   -111   -288    437    523 255.2 -40.9  34090  288.39 0855.13
2009/04/23 10:06:59.4    -470   -214   -319    517    607 245.5 -39.0  34094  288.46 0855.13
2009/04/23 10:06:59.5    -189   -201   -317    277    420 223.2 -58.8  34100  288.55 0855.13
2009/04/23 10:06:59.6    -369   -148   -370    398    543 248.1 -52.3  34100  288.54 0855.13
2009/04/23 10:06:59.7    -487   -205   -284    529    600 247.2 -34.9  34100  288.56 0855.13
2009/04/23 10:06:59.8    -464   -170   -270    495    563 249.8 -35.3  34102  288.60 0855.13
2009/04/23 10:06:59.9    -430   -192   -259    471    537 245.9 -35.7  34108  288.69 0855.13
2009/04/23 10:07:00.0    -448   -156   -412    475    628 250.8 -49.8  34106  288.66 0855.13
2009/04/23 10:07:00.1    -357   -126   -392    379    545 250.5 -55.6  34102  288.59 0855.13
2009/04/23 10:07:00.2    -241   -172   -368    297    472 234.5 -61.5  34104  288.63 0855.15
2009/04/23 10:07:00.3    -242   -126   -341    273    436 242.5 -61.9  34104  288.64 0855.15
2009/04/23 10:07:00.4    -312   -150   -319    347    471 244.2 -51.7  34104  288.61 0855.15
2009/04/23 10:07:00.5    -282   -136   -281    314    421 244.2 -50.9  34100  288.57 0855.15
2009/04/23 10:07:00.6    -265   -204   -283    335    438 232.3 -48.8  34102  288.58 0855.15
2009/04/23 10:07:00.7    -161   -114   -230    198    303 234.5 -59.7  34104  288.63 0855.15
2009/04/23 10:07:00.8    -220   -140   -179    262    317 237.5 -42.1  34098  288.51 0855.15
2009/04/23 10:07:00.9    -239    -48   -239    244    341 258.5 -53.8  34108  288.68 0855.15
2009/04/23 10:07:01.0    -386    -64   -239    392    459 260.5 -38.8  34108  288.68 0855.15
2009/04/23 10:07:01.1    -326     -9   -234    327    402 268.4 -43.6  34106  288.67 0855.15
2009/04/23 10:07:01.2    -426     45   -239    429    491 276.1 -35.9  34098  288.52 0855.15
2009/04/23 10:07:01.3    -411     67   -242    417    482 279.4 -37.3  34088  288.36 0855.15
2009/04/23 10:07:01.4    -358   -108   -194    374    421 253.2 -33.9  34102  288.58 0855.15
2009/04/23 10:07:01.5    -165    -81   -194    184    267 243.8 -56.0  34108  288.68 0855.15
2009/04/23 10:07:01.6    -157   -157   -228    223    318 225.1 -55.1  34108  288.68 0855.15
2009/04/23 10:07:01.7    -132   -230   -292    266    394 209.8 -57.6  34108  288.69 0855.15
2009/04/23 10:07:01.8      78   -272   -249    284    377 163.9 -50.2  34110  288.71 0855.15
2009/04/23 10:07:01.9      78   -327   -148    337    368 166.6 -29.6  34110  288.71 0855.15
2009/04/23 10:07:02.0     196   -252     57    320    326 142.2  10.2  34102  288.58 0855.15
2009/04/23 10:07:02.1     273   -224     68    354    361 129.3  11.0  34100  288.55 0855.15
2009/04/23 10:07:02.2     337   -415     27    535    536 140.9   2.9  34096  288.50 0855.15
2009/04/23 10:07:02.3     243   -492     57    549    553 153.7   6.0  34102  288.58 0855.15
2009/04/23 10:07:02.4      84   -379    -28    389    391 167.5  -4.2  34102  288.60 0855.15
2009/04/23 10:07:02.5      92   -392     26    403    404 166.8   3.8  34102  288.60 0855.15
2009/04/23 10:07:02.6      84   -507    -33    515    517 170.6  -3.7  34108  288.69 0855.15
2009/04/23 10:07:02.7      53   -473      1    477    478 173.5   0.2  34104  288.64 0855.15
2009/04/23 10:07:02.8      32   -421     -4    423    424 175.6  -0.6  34104  288.63 0855.15
2009/04/23 10:07:02.9     214   -506     21    550    551 157.1   2.2  34094  288.47 0855.15
2009/04/23 10:07:03.0      89   -475    122    484    500 169.3  14.2  34098  288.52 0855.15
2009/04/23 10:07:03.1      -7   -633     67    634    638 180.7   6.1  34092  288.43 0855.15
2009/04/23 10:07:03.2     -66   -639     16    643    644 186.0   1.5  34086  288.33 0855.15
2009/04/23 10:07:03.3    -177   -505    -71    536    541 199.3  -7.6  34098  288.52 0855.15
2009/04/23 10:07:03.4    -355   -577   -117    678    689 211.6  -9.8  34098  288.51 0855.15
2009/04/23 10:07:03.5    -293   -574     -4    645    646 207.1  -0.4  34106  288.65 0855.15
2009/04/23 10:07:03.6    -192   -553     33    586    587 199.2   3.3  34100  288.54 0855.15
2009/04/23 10:07:03.7     -12   -365    119    366    385 181.9  18.0  34102  288.59 0855.15
2009/04/23 10:07:03.8    -116   -291     36    314    317 201.8   6.6  34104  288.61 0855.15
2009/04/23 10:07:03.9    -131   -361    182    385    425 200.0  27.1  34100  288.55 0855.15
2009/04/23 10:07:04.0     -92   -352    259    364    446 194.7  39.0  34104  288.63 0855.15
2009/04/23 10:07:04.1    -136   -409    197    431    473 198.4  26.2  34100  288.55 0855.15
2009/04/23 10:07:04.2    -111   -434    117    449    465 194.4  14.7  34102  288.58 0855.18
2009/04/23 10:07:04.3    -120   -417     68    434    440 196.1   8.9  34102  288.60 0855.18
2009/04/23 10:07:04.4    -119   -382     52    401    405 197.3   7.4  34102  288.60 0855.18
2009/04/23 10:07:04.5     -60   -384    101    389    402 189.0  14.6  34094  288.47 0855.18
2009/04/23 10:07:04.6     162   -338     52    375    379 154.4   7.9  34090  288.38 0855.18
2009/04/23 10:07:04.7     239   -321     91    401    412 143.4  12.8  34088  288.34 0855.18
2009/04/23 10:07:04.8     210   -362    100    419    431 149.9  13.5  34094  288.46 0855.18
2009/04/23 10:07:04.9     184   -304     27    356    358 148.9   4.5  34094  288.44 0855.18
2009/04/23 10:07:05.0     230   -398    -12    460    461 150.0  -1.6  34088  288.36 0855.18
2009/04/23 10:07:05.1     279   -380     11    472    473 143.7   1.4  34090  288.39 0855.18
2009/04/23 10:07:05.2     362   -386      9    530    531 136.8   1.0  34090  288.38 0855.18
2009/04/23 10:07:05.3     239   -345     61    420    425 145.3   8.3  34088  288.36 0855.18
2009/04/23 10:07:05.4     168   -337    -59    377    382 153.5  -9.0  34094  288.45 0855.18
2009/04/23 10:07:05.5     -20   -549    -33    550    551 182.1  -3.5  34094  288.47 0855.18
2009/04/23 10:07:05.6      15   -544    -98    545    554 178.4 -10.3  34098  288.53 0855.18
2009/04/23 10:07:05.7      32   -505    -52    507    510 176.4  -5.9  34104  288.61 0855.18
2009/04/23 10:07:05.8     -77   -425    -86    432    441 190.3 -11.3  34110  288.73 0855.18
2009/04/23 10:07:05.9      49   -453    -72    456    462 173.8  -9.0  34114  288.80 0855.18
2009/04/23 10:07:06.0     -29   -542    -68    543    548 183.1  -7.2  34106  288.67 0855.18
2009/04/23 10:07:06.1     -15   -387     15    388    389 182.2   2.2  34102  288.59 0855.18
2009/04/23 10:07:06.2      43   -334    -62    337    343 172.6 -10.5  34098  288.52 0855.21
2009/04/23 10:07:06.3      11   -244    -89    245    260 177.3 -25.1  34110  288.71 0855.21
2009/04/23 10:07:06.4      93   -256    -60    273    280 159.9 -12.4  34106  288.66 0855.21
2009/04/23 10:07:06.5    -104   -342    -31    358    360 197.0  -5.1  34106  288.67 0855.21
2009/04/23 10:07:06.6       0   -317    103    318    335 180.0  18.0  34108  288.69 0855.21
2009/04/23 10:07:06.7       0   -238    156    239    285 180.0  36.0  34108  288.68 0855.21
2009/04/23 10:07:06.8      21   -227    180    229    291 174.7  42.2  34104  288.61 0855.21
2009/04/23 10:07:06.9      68   -195     51    207    214 160.8  13.9  34102  288.58 0855.21
2009/04/23 10:07:07.0    -110   -236     53    261    267 204.9  11.6  34100  288.56 0855.21
2009/04/23 10:07:07.1    -200   -255    -12    325    326 218.1  -2.2  34102  288.59 0855.21
2009/04/23 10:07:07.2    -161   -276    -67    320    328 210.3 -11.9  34106  288.65 0855.21
2009/04/23 10:07:07.3      -3   -245   -125    246    275 180.7 -33.6  34108  288.70 0855.21
2009/04/23 10:07:07.4     114   -209    -98    239    258 151.3 -27.8  34110  288.71 0855.21
2009/04/23 10:07:07.5     178   -120    -20    215    217 124.1  -5.4  34108  288.69 0855.21
2009/04/23 10:07:07.6     181    -54     70    189    201 106.6  21.0  34102  288.60 0855.21
2009/04/23 10:07:07.7     170    -22    118    172    208  97.5  37.6  34102  288.60 0855.21
2009/04/23 10:07:07.8      24     10    121     27    123  66.5  88.0  34122  288.92 0855.21
2009/04/23 10:07:07.9     109   -109    123    155    197 134.9  42.4  34108  288.70 0855.21
2009/04/23 10:07:08.0      66   -182     97    194    216 160.0  28.5  34108  288.70 0855.21
2009/04/23 10:07:08.1      73   -272     72    282    292 164.8  14.3  34106  288.66 0855.21
2009/04/23 10:07:08.2       2   -260     15    261    262 179.5   3.3  34106  288.66 0855.21
2009/04/23 10:07:08.3      -9   -124      6    125    126 184.4   2.9  34106  288.65 0855.21
2009/04/23 10:07:08.4      46    -96     -4    107    108 154.1  -2.2  34106  288.67 0855.21
2009/04/23 10:07:08.5      65    -66     46     94    104 135.5  27.8  34110  288.72 0855.21
2009/04/23 10:07:08.6     125    -80     92    149    175 122.5  35.0  34108  288.69 0855.21
2009/04/23 10:07:08.7     188   -176    145    258    295 133.1  31.6  34108  288.68 0855.21
2009/04/23 10:07:08.8     260   -219    154    341    374 130.1  25.9  34100  288.55 0855.21
2009/04/23 10:07:08.9     298   -236    146    381    408 128.4  22.0  34102  288.60 0855.21
2009/04/23 10:07:09.0     278   -206    120    347    368 126.6  19.2  34106  288.66 0855.21
2009/04/23 10:07:09.1     214   -227    122    312    335 136.7  22.5  34104  288.63 0855.21
2009/04/23 10:07:09.2     127   -171     88    214    231 143.3  23.4  34106  288.67 0855.21
2009/04/23 10:07:09.3       9   -184    111    185    215 177.1  33.5  34104  288.62 0855.21
2009/04/23 10:07:09.4     -68   -287    200    296    357 193.4  37.4  34108  288.69 0855.21
2009/04/23 10:07:09.5    -140   -296    169    328    368 205.3  29.3  34102  288.59 0855.21
2009/04/23 10:07:09.6    -101   -232    140    254    290 203.6  31.4  34106  288.66 0855.21
2009/04/23 10:07:09.7     -66   -282    119    290    313 193.3  23.6  34108  288.68 0855.21
2009/04/23 10:07:09.8    -101   -297    141    314    344 198.9  25.9  34102  288.60 0855.21
2009/04/23 10:07:09.9    -249   -259     77    360    369 223.8  12.2  34106  288.66 0855.21
2009/04/23 10:07:10.0    -174   -243    162    299    340 215.6  30.9  34108  288.68 0855.21
2009/04/23 10:07:10.1    -132   -158     71    206    219 219.9  19.2  34106  288.67 0855.21
2009/04/23 10:07:10.2      -5   -123    103    124    161 182.6  44.1  34110  288.74 0855.22
2009/04/23 10:07:10.3      -9   -122     98    123    157 184.5  42.7  34110  288.72 0855.22
2009/04/23 10:07:10.4     -26   -128     62    131    144 191.6  27.2  34108  288.70 0855.22
2009/04/23 10:07:10.5     -71   -108     11    130    131 213.4   5.0  34106  288.65 0855.22
2009/04/23 10:07:10.6    -115    -73     -3    137    138 237.6  -1.3  34110  288.74 0855.22
2009/04/23 10:07:10.7    -143    -38     40    149    155 254.9  15.3  34108  288.69 0855.22
2009/04/23 10:07:10.8    -206   -112      8    235    236 241.4   2.1  34106  288.66 0855.22
2009/04/23 10:07:10.9    -213    -78     81    227    241 249.8  20.2  34110  288.71 0855.22
2009/04/23 10:07:11.0    -360   -126    -14    382    383 250.6  -2.2  34100  288.57 0855.22
2009/04/23 10:07:11.1    -260    -25    -72    262    271 264.3 -20.0  34092  288.43 0855.22
2009/04/23 10:07:11.2    -481    -88    -66    489    494 259.6  -7.7  34100  288.57 0855.22
2009/04/23 10:07:11.3    -472    -87   -113    480    494 259.5 -13.3  34094  288.46 0855.22
2009/04/23 10:07:11.4    -430   -205    -49    477    480 244.5  -6.0  34096  288.49 0855.22
2009/04/23 10:07:11.5    -462   -184   -177    498    529 248.3 -19.6  34098  288.52 0855.22
2009/04/23 10:07:11.6    -403    -49   -165    407    439 263.0 -27.8  34110  288.72 0855.22
2009/04/23 10:07:11.7    -402    -10   -216    403    457 268.5 -34.9  34114  288.78 0855.22
2009/04/23 10:07:11.8    -343    108    -41    360    363 287.6  -6.6  34092  288.42 0855.22
2009/04/23 10:07:11.9    -386    254   -138    463    483 303.3 -21.4  34104  288.64 0855.22
2009/04/23 10:07:12.0    -275    -51    -88    280    294 259.4 -17.5  34112  288.75 0855.22
2009/04/23 10:07:12.1    -100    -36    144    107    179 250.0  60.0  34114  288.79 0855.22
2009/04/23 10:07:12.2       3   -140     79    141    161 178.6  31.9  34122  288.94 0855.22
2009/04/23 10:07:12.3     -15   -203     66    204    215 184.5  17.9  34118  288.86 0855.22
2009/04/23 10:07:12.4     -91   -147      1    174    175 211.9   0.5  34112  288.77 0855.22
2009/04/23 10:07:12.5    -164   -164    -55    233    240 225.0 -13.3  34128  289.02 0855.22
2009/04/23 10:07:12.6    -111     56     -5    125    126 297.1  -2.6  34116  288.84 0855.22
2009/04/23 10:07:12.7    -100    144     -6    176    177 325.0  -2.1  34118  288.87 0855.22
2009/04/23 10:07:12.8    -126     55    -22    138    140 293.6  -9.4  34120  288.91 0855.22
2009/04/23 10:07:12.9    -301    -67    -76    309    319 257.4 -13.9  34122  288.92 0855.22
2009/04/23 10:07:13.0    -538    -68   -146    543    563 262.8 -15.1  34102  288.60 0855.22
2009/04/23 10:07:13.1    -688     -8   -193    689    715 269.3 -20.4  34106  288.67 0855.22
2009/04/23 10:07:13.2    -584     33   -168    585    608 273.3 -20.7  34118  288.85 0855.22
2009/04/23 10:07:13.3    -601    -32   -221    602    641 266.9 -25.4  34106  288.67 0855.22
2009/04/23 10:07:13.4    -626   -126   -196    639    668 258.6 -21.9  34096  288.50 0855.22
2009/04/23 10:07:13.5    -432     -6   -143    433    457 269.1 -18.3  34114  288.78 0855.22
2009/04/23 10:07:13.6    -687     45   -251    689    733 273.8 -25.3  34124  288.95 0855.22
2009/04/23 10:07:13.7    -670      6   -212    671    704 270.6 -17.6  34104  288.61 0855.22
2009/04/23 10:07:13.8    -685     77   -334    690    766 276.5 -32.2  34098  288.53 0855.22
2009/04/23 10:07:13.9    -620     16   -295    621    687 271.5 -31.7  34098  288.53 0855.22
2009/04/23 10:07:14.0    -601     10   -288    602    667 271.0 -31.8  34102  288.59 0855.22
2009/04/23 10:07:14.1    -656     13   -335    657    737 271.2 -33.6  34116  288.83 0855.22
2009/04/23 10:07:14.2    -620     28   -275    621    679 272.6 -29.9  34102  288.58 0855.25
2009/04/23 10:07:14.3    -463    -88   -317    472    568 259.2 -41.5  34096  288.50 0855.25
2009/04/23 10:07:14.4    -346    -59   -300    351    461 260.3 -49.2  34116  288.83 0855.25
2009/04/23 10:07:14.5    -394    -92   -204    405    453 256.8 -33.1  34104  288.61 0855.25
2009/04/23 10:07:14.6    -272    -41    -30    276    278 261.4  -6.2  34098  288.51 0855.25
2009/04/23 10:07:14.7    -334    238   -140    411    435 305.5 -18.8  34108  288.70 0855.25
2009/04/23 10:07:14.8    -300    108   -147    320    352 289.9 -30.8  34116  288.82 0855.25
2009/04/23 10:07:14.9    -137     53   -131    148    197 291.3 -50.6  34104  288.64 0855.25
2009/04/23 10:07:15.0    -291    -88   -229    305    381 253.1 -45.1  34104  288.62 0855.25
2009/04/23 10:07:15.1    -192   -101   -123    217    249 242.2 -36.7  34112  288.76 0855.25
2009/04/23 10:07:15.2    -157     21   -269    159    312 277.9 -71.2  34122  288.92 0855.25
2009/04/23 10:07:15.3    -220   -165   -152    276    315 233.2 -35.8  34118  288.87 0855.25
2009/04/23 10:07:15.4    -150    -83   -148    172    226 241.1 -49.5  34114  288.80 0855.25
2009/04/23 10:07:15.5    -287    -21   -189    288    344 265.7 -40.7  34114  288.80 0855.25
2009/04/23 10:07:15.6    -206   -261   -179    333    378 218.3 -35.1  34116  288.81 0855.25
2009/04/23 10:07:15.7    -256    -27   -284    258    383 263.8 -57.6  34120  288.91 0855.25
2009/04/23 10:07:15.8    -155     57   -341    166    379 290.4 -76.8  34126  288.98 0855.25
2009/04/23 10:07:15.9    -311    -84   -310    323    447 254.9 -53.4  34118  288.87 0855.25
2009/04/23 10:07:16.0     -47     -2   -210     48    215 266.5 -90.0  34122  288.92 0855.25
2009/04/23 10:07:16.1     -47   -161   -179    168    245 196.5 -56.6  34112  288.77 0855.25
2009/04/23 10:07:16.2    -196   -293   -126    353    376 213.8 -19.7  34112  288.76 0855.25
2009/04/23 10:07:16.3    -209   -442   -142    489    510 205.3 -16.2  34104  288.64 0855.25
2009/04/23 10:07:16.4    -148   -459   -158    483    508 197.9 -23.2  34106  288.66 0855.25
2009/04/23 10:07:16.5     -70   -331   -146    339    369 192.0 -29.3  34104  288.64 0855.25
2009/04/23 10:07:16.6     -96   -361   -107    374    389 195.0 -20.7  34110  288.74 0855.25
2009/04/23 10:07:16.7     -30   -367   -113    369    385 184.8 -22.1  34112  288.76 0855.25
2009/04/23 10:07:16.8     -81   -404   -123    413    432 191.3 -16.6  34110  288.72 0855.25
2009/04/23 10:07:16.9     -81   -372    -79    381    390 192.3 -11.8  34112  288.76 0855.25
2009/04/23 10:07:17.0     -45   -288    -64    292    299 188.9 -12.4  34112  288.76 0855.25
2009/04/23 10:07:17.1       0   -280    -15    281    282 180.0  -3.1  34116  288.81 0855.25
2009/04/23 10:07:17.2     -39   -334    -37    337    340 186.8  -6.3  34116  288.84 0855.25
2009/04/23 10:07:17.3     -11   -253    -23    254    256 182.7  -5.2  34112  288.76 0855.25
2009/04/23 10:07:17.4      14   -337    -43    338    341 177.5  -7.4  34112  288.77 0855.25
2009/04/23 10:07:17.5     -63   -368    -10    374    375 189.7  -1.6  34112  288.76 0855.25
2009/04/23 10:07:17.6      42   -240    106    244    266 170.0  25.1  34116  288.81 0855.25
2009/04/23 10:07:17.7       1   -214    145    215    259 179.5  37.4  34114  288.80 0855.25
2009/04/23 10:07:17.8     -23   -140    141    142    200 189.3  50.0  34120  288.91 0855.25
2009/04/23 10:07:17.9      -7    -22     38     24     44 198.3  64.7  34116  288.82 0855.25
2009/04/23 10:07:18.0      77      0    211     78    224  90.0  79.2  34102  288.58 0855.25
2009/04/23 10:07:18.1     212     96    272    233    358  65.6  55.3  34118  288.85 0855.25
2009/04/23 10:07:18.2     215    102    180    239    299  64.6  40.7  34122  288.93 0855.26
2009/04/23 10:07:18.3     237    103    143    259    295  66.4  31.4  34140  289.24 0855.26
2009/04/23 10:07:18.4     323     34    149    325    357  83.9  26.4  34120  288.89 0855.26
2009/04/23 10:07:18.5     373    110    220    390    447  73.5  32.1  34174  289.82 0855.26
2009/04/23 10:07:18.6     404     89     68    414    420  77.5   9.3  34112  288.75 0855.26
2009/04/23 10:07:18.7     359     74    -61    367    373  78.3  -9.5  34146  289.32 0855.26
2009/04/23 10:07:18.8     313     10    -69    314    322  88.1 -12.5  34120  288.90 0855.26
2009/04/23 10:07:18.9     272     25     91    274    289  84.7  18.4  34202  290.29 0855.26
2009/04/23 10:07:19.0     267     85    123    281    306  72.3  25.2  34224  290.65 0855.26
2009/04/23 10:07:19.1     207    122    140    241    278  59.4  32.9  34202  290.27 0855.26
2009/04/23 10:07:19.2     129    120    110    177    208  46.9  35.0  34206  290.36 0855.26
2009/04/23 10:07:19.3     172     44     36    178    182  75.4  11.4  34244  290.99 0855.26
2009/04/23 10:07:19.4     207     -9     40    208    212  92.6  11.0  34238  290.89 0855.26
2009/04/23 10:07:19.5     198     58    139    207    249  73.6  37.0  34240  290.92 0855.26
2009/04/23 10:07:19.6     224     38    143    228    269  80.3  35.5  34242  290.97 0855.26
2009/04/23 10:07:19.7     198     82    168    215    272  67.6  42.0  34260  291.27 0855.26
2009/04/23 10:07:19.8     159     32    160    163    228  78.5  49.8  34272  291.49 0855.26
2009/04/23 10:07:19.9      97     -7    128     98    161  94.3  58.7  34264  291.33 0855.26
2009/04/23 10:07:20.0     138     14    136    139    194  83.9  49.8  34248  291.06 0855.26
2009/04/23 10:07:20.1      73     41    103     84    132  60.7  56.4  34242  290.96 0855.26
2009/04/23 10:07:20.2     147     35    146    152    210  76.3  49.0  34228  290.72 0855.27
2009/04/23 10:07:20.3     158     75    157    176    235  64.5  46.4  34258  291.25 0855.27
2009/04/23 10:07:20.4     158     52    175    167    241  71.8  51.2  34214  290.48 0855.27
2009/04/23 10:07:20.5     101    -22    132    104    168 102.4  57.7  34210  290.43 0855.27
2009/04/23 10:07:20.6     181    -31    130    184    225  99.9  39.1  34170  289.74 0855.27
2009/04/23 10:07:20.7     132    -67    122    149    192 117.1  43.7  34176  289.84 0855.27
2009/04/23 10:07:20.8      50    -42     86     66    108 129.6  58.5  34180  289.92 0855.27
2009/04/23 10:07:20.9      76    -26     87     81    118 109.1  52.1  34180  289.92 0855.27
2009/04/23 10:07:21.0      72    -66     67     98    118 132.7  37.6  34170  289.75 0855.27
2009/04/23 10:07:21.1      74    -59     97     95    135 128.6  50.1  34146  289.35 0855.27
2009/04/23 10:07:21.2      68    -58    100     90    134 130.4  53.3  34156  289.50 0855.26
2009/04/23 10:07:21.3      77    -38     49     87     99 116.6  31.9  34162  289.62 0855.26
2009/04/23 10:07:21.4      30    -23     56     38     67 127.8  62.6  34148  289.38 0855.26
2009/04/23 10:07:21.5      24     -4     31     25     39  99.7  56.4  34142  289.26 0855.26
2009/04/23 10:07:21.6      43    -41     30     60     67 134.1  28.2  34144  289.31 0855.26
2009/04/23 10:07:21.7      -5    -26      6     27     28 191.6  13.2  34146  289.35 0855.26
2009/04/23 10:07:21.8      51     12     10     53     55  76.7  11.1  34148  289.38 0855.26
2009/04/23 10:07:21.9     126     13     88    127    154  83.9  37.6  34154  289.46 0855.26
2009/04/23 10:07:22.0     125     21    115    127    171  80.3  46.9  34134  289.13 0855.26
2009/04/23 10:07:22.1      91    -41    156    100    185 114.4  64.6  34154  289.48 0855.26
2009/04/23 10:07:22.2      36    -12    105     39    112 108.6  79.2  34150  289.41 0855.26
2009/04/23 10:07:22.3      -3     -3    114      5    114 223.4  90.0  34168  289.72 0855.26
2009/04/23 10:07:22.5      85    -37    132     93    161 113.5  61.5  34166  289.69 0855.26
2009/04/23 10:07:22.5      12    -58    135     60    147 168.4  74.9  34178  289.89 0855.26
2009/04/23 10:07:22.7     -40   -100    130    108    169 201.9  56.3  34166  289.67 0855.26
2009/04/23 10:07:22.8    -103   -137     -2    172    173 217.0  -0.7  34178  289.89 0855.26
2009/04/23 10:07:22.9    -115   -127    -33    172    176 222.1 -11.1  34182  289.96 0855.26
2009/04/23 10:07:23.0    -132    -53    -42    143    149 248.2 -21.2  34186  290.01 0855.26
2009/04/23 10:07:23.1     -89    -26    -52     93    106 253.6 -35.8  34186  290.01 0855.26
2009/04/23 10:07:23.2      -3    -11     -2     12     13 198.3 -11.3  34178  289.87 0855.26
2009/04/23 10:07:23.3      79    -42     57     90    106 118.0  35.5  34172  289.79 0855.25
2009/04/23 10:07:23.4      43   -198     96    203    224 167.7  27.1  34174  289.80 0855.25
2009/04/23 10:07:23.5      -6   -285    108    286    305 181.4  21.7  34186  290.00 0855.25
2009/04/23 10:07:23.6     -19   -296    104    297    315 183.8  19.3  34180  289.92 0855.25
2009/04/23 10:07:23.7       0   -295    111    296    316 180.1  21.5  34172  289.76 0855.25
2009/04/23 10:07:23.8      -8   -332     55    333    338 181.4   9.4  34172  289.76 0855.25
2009/04/23 10:07:23.9     -84   -342    122    353    374 193.8  19.1  34184  289.98 0855.25
2009/04/23 10:07:24.0     -87   -318    153    330    363 195.3  26.9  34158  289.54 0855.25
2009/04/23 10:07:24.1     -67   -282    143    290    323 193.4  28.1  34126  289.00 0855.25
2009/04/23 10:07:24.2    -105   -261    124    282    308 201.9  25.2  34152  289.42 0855.25
2009/04/23 10:07:24.3    -122   -268    139    295    326 204.5  27.1  34128  289.02 0855.25
2009/04/23 10:07:24.4     -90   -273    110    288    308 198.3  22.0  34120  288.88 0855.25
2009/04/23 10:07:24.5    -102   -274    130    293    320 200.5  25.3  34118  288.87 0855.25
2009/04/23 10:07:24.6     -80   -240    112    254    277 198.5  25.2  34122  288.92 0855.25
2009/04/23 10:07:24.7     -83   -296    108    308    326 195.8  20.0  34120  288.90 0855.25
2009/04/23 10:07:24.8    -146   -456    115    479    493 197.8  13.5  34120  288.90 0855.25
2009/04/23 10:07:24.9     -88   -364     90    375    386 193.6  13.5  34118  288.86 0855.25
2009/04/23 10:07:25.0     -13   -302    159    303    342 182.6  30.0  34110  288.74 0855.25
2009/04/23 10:07:25.1     -17   -269     47    270    275 183.8   9.9  34116  288.83 0855.25
2009/04/23 10:07:25.2      14   -308     29    309    311 177.4   5.4  34118  288.87 0855.25
2009/04/23 10:07:25.3     -92   -308     63    322    329 196.7  11.1  34118  288.85 0855.26
2009/04/23 10:07:25.4     -89   -259    120    275    300 199.1  25.1  34122  288.92 0855.26
2009/04/23 10:07:25.5    -105   -134     61    171    181 218.3  20.4  34122  288.94 0855.26
2009/04/23 10:07:25.6     -72   -158     73    174    188 204.5  23.8  34122  288.94 0855.26
2009/04/23 10:07:25.7     -82   -134     -4    158    159 211.6  -1.8  34124  288.97 0855.26
2009/04/23 10:07:25.8     -81   -125     13    150    151 213.0   5.0  34124  288.97 0855.26
2009/04/23 10:07:25.9     -83    -65      8    106    107 231.8   4.4  34122  288.92 0855.26
2009/04/23 10:07:26.0     -87    -59     16    106    108 235.8   9.0  34120  288.91 0855.26
2009/04/23 10:07:26.1      -6   -146     94    147    174 182.7  35.6  34112  288.77 0855.26
2009/04/23 10:07:26.2     -59   -220     83    228    242 195.1  20.9  34120  288.88 0855.26
2009/04/23 10:07:26.3     -44   -161    120    168    206 195.4  39.1  34120  288.91 0855.26
2009/04/23 10:07:26.4     -40   -135     83    141    163 196.5  33.5  34120  288.91 0855.26
2009/04/23 10:07:26.5      30    -31     49     44     65 135.9  52.2  34122  288.94 0855.26
2009/04/23 10:07:26.6     -86     80     82    118    143 312.7  38.0  34128  289.04 0855.26
2009/04/23 10:07:26.7    -158     46     23    165    167 286.2   8.0  34118  288.87 0855.26
2009/04/23 10:07:26.8    -130     10    -45    131    139 274.4 -19.1  34118  288.87 0855.26
2009/04/23 10:07:26.9      -2     29    -23     30     37 355.5 -46.1  34118  288.86 0855.26
2009/04/23 10:07:27.0     119     -6     48    120    129  93.0  23.0  34122  288.94 0855.26
2009/04/23 10:07:27.1     118      0     70    119    138  90.0  33.4  34128  289.02 0855.26
2009/04/23 10:07:27.2      71     19     35     74     81  74.9  26.6  34126  289.01 0855.26
2009/04/23 10:07:27.3       8     46     77     47     90  10.7  65.1  34128  289.04 0855.26
2009/04/23 10:07:27.4      53     55     98     77    124  44.2  58.4  34124  288.97 0855.26
2009/04/23 10:07:27.5      70    139     88    156    179  26.7  31.9  34118  288.86 0855.26
2009/04/23 10:07:27.6     106    106     95    151    178  45.0  35.5  34118  288.87 0855.26
2009/04/23 10:07:27.7      86     58     91    104    138  55.8  45.8  34122  288.94 0855.26
2009/04/23 10:07:27.8      48      0     60     49     77  90.0  56.4  34128  289.02 0855.26
2009/04/23 10:07:27.9      15    -64     34     66     74 166.6  29.3  34126  288.99 0855.26
2009/04/23 10:07:28.0     -55    -55      6     79     80 225.0   4.9  34124  288.97 0855.26
2009/04/23 10:07:28.1    -133     47      7    142    143 289.5   2.9  34122  288.94 0855.26
2009/04/23 10:07:28.2    -205     -4     13    206    207 268.7   3.8  34128  289.04 0855.26
2009/04/23 10:07:28.3    -209      0     30    210    213 270.0   8.2  34126  288.99 0855.26
2009/04/23 10:07:28.4    -276    -83    -26    289    291 253.2  -5.2  34134  289.14 0855.26
2009/04/23 10:07:28.5    -247   -120    -12    275    276 244.0  -2.6  34134  289.14 0855.26
2009/04/23 10:07:28.6    -229     17    -82    230    244 274.4 -24.6  34138  289.20 0855.26
2009/04/23 10:07:28.7    -167    -29    -55    170    178 259.9 -23.0  34138  289.19 0855.26
2009/04/23 10:07:28.8    -168      5     30    169    172 271.7  10.1  34132  289.11 0855.26
2009/04/23 10:07:28.9    -197      8     17    198    199 272.4   5.2  34132  289.09 0855.26
2009/04/23 10:07:29.0    -211    -63     16    221    222 253.4   4.2  34124  288.96 0855.26
2009/04/23 10:07:29.1    -138   -110     35    177    181 231.4  11.4  34124  288.96 0855.26
2009/04/23 10:07:29.2     -14   -106    110    107    153 187.6  50.2  34122  288.94 0855.26
2009/04/23 10:07:29.3    -128    -81     63    152    164 237.6  23.6  34124  288.96 0855.30
2009/04/23 10:07:29.4     -74    -94     78    120    143 218.3  35.6  34122  288.94 0855.30
2009/04/23 10:07:29.5     -61    -70    127     94    158 221.0  60.0  34134  289.13 0855.30
2009/04/23 10:07:29.6     -55    -39    125     68    142 234.1  68.9  34136  289.18 0855.30
2009/04/23 10:07:29.7      -1    -12    154     13    154 188.0  90.0  34134  289.13 0855.30
2009/04/23 10:07:29.8    -122   -133    184    181    258 222.5  50.4  34130  289.05 0855.30
2009/04/23 10:07:29.9     -83    -65    100    106    145 231.8  48.0  34122  288.94 0855.30
2009/04/23 10:07:30.0      48    -30     66     57     87 122.5  54.3  34122  288.92 0855.30
2009/04/23 10:07:30.1      41   -178    169    183    249 166.9  47.9  34120  288.89 0855.30
2009/04/23 10:07:30.2      74   -135    153    155    217 151.1  49.9  34120  288.91 0855.30
2009/04/23 10:07:30.3      36   -185    123    189    225 168.9  35.7  34120  288.89 0855.30
2009/04/23 10:07:30.4      48   -237    143    243    281 168.4  33.4  34114  288.80 0855.30
2009/04/23 10:07:30.5      31   -184    133    187    229 170.4  39.3  34116  288.84 0855.30
2009/04/23 10:07:30.6      33   -168    141    172    222 168.9  43.7  34118  288.87 0855.30
2009/04/23 10:07:30.7      40     -8     67     41     78 101.5  65.7  34130  289.08 0855.30
2009/04/23 10:07:30.8      59     -8    116     60    130  97.9  70.8  34126  289.01 0855.30
2009/04/23 10:07:30.9      49     65    158     82    178  37.4  70.4  34132  289.09 0855.30
2009/04/23 10:07:31.0     212     16    148    213    259  85.6  38.4  34118  288.87 0855.30
2009/04/23 10:07:31.1     222      3    152    223    269  89.2  37.6  34120  288.88 0855.30
2009/04/23 10:07:31.2     191     29    143    194    241  81.2  40.1  34118  288.86 0855.30
2009/04/23 10:07:31.3      49      8    133     50    142  80.3  79.1  34118  288.86 0855.31
2009/04/23 10:07:31.4     -51      3    102     52    114 274.4  70.8  34130  289.08 0855.31
2009/04/23 10:07:31.5      24     24    124     34    128  45.0  84.8  34124  288.97 0855.31
2009/04/23 10:07:31.6      46      0    135     47    142  90.0  80.7  34132  289.11 0855.31
2009/04/23 10:07:31.7      52     87    116    102    154  30.7  54.3  34124  288.96 0855.31
2009/04/23 10:07:31.8      58     48     91     76    118  50.5  55.8  34132  289.09 0855.31
2009/04/23 10:07:31.9      39     34     73     53     90  48.7  60.5  34130  289.08 0855.31
2009/04/23 10:07:32.0       8     -8     78     12     78 136.8  90.0  34134  289.14 0855.31
2009/04/23 10:07:32.1     -75    -20     88     78    117 254.9  53.7  34128  289.02 0855.31
2009/04/23 10:07:32.2      31     19     68     37     77  57.5  68.9  34130  289.08 0855.31
2009/04/23 10:07:32.3     -31    -94    117    100    153 198.3  55.4  34124  288.97 0855.31
2009/04/23 10:07:32.4     -57   -106    132    121    179 208.1  52.5  34118  288.87 0855.31
2009/04/23 10:07:32.5     -17   -118     90    120    150 188.5  40.7  34130  289.06 0855.31
2009/04/23 10:07:32.6       1   -103    119    104    158 179.0  54.3  34144  289.30 0855.31
2009/04/23 10:07:32.7     -64    -41    113     77    136 237.5  62.7  34144  289.30 0855.31
2009/04/23 10:07:32.8     -86   -141    117    166    203 211.4  38.6  34132  289.09 0855.31
2009/04/23 10:07:32.9     -71    -91     41    116    124 217.9  19.4  34126  288.99 0855.31
2009/04/23 10:07:33.0       5    -81     93     82    123 176.0  54.2  34140  289.23 0855.31
2009/04/23 10:07:33.1     -74   -142    203    161    259 207.6  57.5  34132  289.11 0855.31
2009/04/23 10:07:33.2       0   -130    170    131    214 180.0  58.5  34124  288.97 0855.31
2009/04/23 10:07:33.3    -117   -130    154    176    233 221.9  45.8  34130  289.08 0855.31
2009/04/23 10:07:33.4    -170    -74     29    186    189 246.5   9.0  34130  289.08 0855.31
2009/04/23 10:07:33.5    -162    -50     -1    170    171 252.7  -0.5  34146  289.35 0855.31
2009/04/23 10:07:33.6    -157    -81    -12    177    178 242.5  -4.1  34144  289.31 0855.31
2009/04/23 10:07:33.7    -164    -83    -20    184    186 243.1  -6.2  34142  289.26 0855.31
2009/04/23 10:07:33.8    -120    -21     10    122    123 259.9   4.9  34138  289.21 0855.31
2009/04/23 10:07:33.9      47     89    -39    101    108  28.1 -26.9  34140  289.23 0855.31
2009/04/23 10:07:34.0       3     50    -42     51     66   4.5 -48.1  34156  289.50 0855.31
2009/04/23 10:07:34.1      67      0     10     68     69  90.0   9.0  34158  289.55 0855.31
2009/04/23 10:07:34.2      45     -7      2     46     47  98.8   2.9  34156  289.50 0855.31
2009/04/23 10:07:34.3     -15     45    -21     48     52 341.3 -29.5  34152  289.45 0855.31
2009/04/23 10:07:34.4     -11     76     42     77     87 351.1  30.8  34152  289.43 0855.31
2009/04/23 10:07:34.5     -66    198     -4    209    210 341.5  -1.3  34140  289.24 0855.31
2009/04/23 10:07:34.6    -148    244    -11    286    287 328.8  -2.2  34142  289.27 0855.31
2009/04/23 10:07:34.7    -137    308     -5    338    339 336.1  -0.9  34152  289.42 0855.31
2009/04/23 10:07:34.8    -126    277     16    305    306 335.5   3.1  34142  289.27 0855.31
2009/04/23 10:07:34.9    -171    239      2    295    296 324.4   0.5  34116  288.83 0855.31
2009/04/23 10:07:35.0    -303    132     12    331    332 293.5   2.2  34126  288.98 0855.31
2009/04/23 10:07:35.1    -254    149    -20    295    296 300.4  -3.9  34156  289.49 0855.31
2009/04/23 10:07:35.2    -265     71     80    275    287 285.0  16.3  34160  289.56 0855.31
2009/04/23 10:07:35.3    -182     88     56    203    211 295.8  15.6  34146  289.35 0855.32
2009/04/23 10:07:35.4    -245    168    -29    298    300 304.4  -5.6  34154  289.46 0855.32
2009/04/23 10:07:35.5    -259    164     -9    307    308 302.4  -1.8  34158  289.53 0855.32
2009/04/23 10:07:35.6    -307     96    -25    322    324 287.5  -4.6  34144  289.29 0855.32
2009/04/23 10:07:35.7    -205    156     50    258    263 307.3  11.1  34174  289.80 0855.32
2009/04/23 10:07:35.8    -191    113     27    223    225 300.7   7.1  34178  289.89 0855.32
2009/04/23 10:07:35.9    -133     43     82    140    162 288.2  33.5  34182  289.94 0855.32
2009/04/23 10:07:36.0    -127    161    189    206    279 321.7  47.5  34198  290.22 0855.32
2009/04/23 10:07:36.1    -106    166    170    198    260 327.5  45.1  34202  290.27 0855.32
2009/04/23 10:07:36.2    -112    157    148    194    244 324.4  41.4  34192  290.13 0855.32
2009/04/23 10:07:36.3    -234     22     24    236    238 275.5   6.0  34192  290.12 0855.32
2009/04/23 10:07:36.4    -249    -21     20    250    251 265.0   4.6  34188  290.05 0855.32
2009/04/23 10:07:36.5    -220      3    -31    221    224 270.8  -8.0  34206  290.35 0855.32
2009/04/23 10:07:36.6    -210    -98    -22    232    234 244.9  -5.6  34198  290.22 0855.32
2009/04/23 10:07:36.7    -220    -76     13    233    234 250.9   3.3  34212  290.44 0855.32
2009/04/23 10:07:36.8    -212   -117    -35    243    246 241.1  -8.2  34204  290.32 0855.32
2009/04/23 10:07:36.9     -50   -199     36    206    210 194.3   9.9  34176  289.84 0855.32
2009/04/23 10:07:37.0     -46   -126    -46    135    143 200.1 -19.1  34180  289.91 0855.32
2009/04/23 10:07:37.1      66   -124     12    141    142 151.9   4.9  34194  290.16 0855.32
2009/04/23 10:07:37.2     126   -147   -151    194    245 139.5 -46.4  34186  290.01 0855.32
2009/04/23 10:07:37.3      51   -238   -143    244    282 167.7 -37.8  34174  289.80 0855.31
2009/04/23 10:07:37.4      10   -222    -63    223    231 177.3 -20.4  34160  289.58 0855.31
2009/04/23 10:07:37.5    -104   -219    -48    243    248 205.5 -11.3  34170  289.73 0855.31
2009/04/23 10:07:37.6    -204   -153    -10    256    257 233.1  -2.3  34166  289.68 0855.31
2009/04/23 10:07:37.7    -233   -320    -46    397    400 216.1  -6.7  34152  289.43 0855.31
2009/04/23 10:07:37.8    -202   -241    -15    315    316 220.1  -2.8  34174  289.80 0855.31
2009/04/23 10:07:37.9    -206   -184    -70    277    286 228.2 -14.3  34190  290.09 0855.31
2009/04/23 10:07:38.0    -247   -205   -163    322    360 230.4 -33.5  34178  289.89 0855.31
2009/04/23 10:07:38.1    -267   -230    -23    353    354 229.3  -3.8  34178  289.89 0855.31
2009/04/23 10:07:38.2    -155   -239    -87    285    299 213.0 -17.0  34180  289.90 0855.31
2009/04/23 10:07:38.3     -56    -95    122    111    164 210.7  53.0  34158  289.55 0855.31
2009/04/23 10:07:38.4     -40    -92    117    101    154 203.6  54.8  34162  289.62 0855.31
2009/04/23 10:07:38.5       0    -63    101     64    119 179.1  64.7  34162  289.62 0855.31
2009/04/23 10:07:38.6      12     59     56     61     82  11.6  47.9  34168  289.72 0855.31
2009/04/23 10:07:38.7      -9    126    105    127    164 355.5  44.1  34174  289.80 0855.31
2009/04/23 10:07:38.8      19    175     -3    177    178   6.2  -1.1  34178  289.89 0855.31
2009/04/23 10:07:38.9     -27     90    -30     95     99 343.1 -22.8  34178  289.87 0855.31
2009/04/23 10:07:39.0     -92     25     -6     96     97 285.5  -4.1  34188  290.06 0855.31
2009/04/23 10:07:39.1    -142    -42     64    149    162 253.6  24.6  34186  290.01 0855.31
2009/04/23 10:07:39.2    -152    -51    -46    161    168 251.2 -16.0  34168  289.72 0855.31
2009/04/23 10:07:39.3    -129   -108     93    169    192 230.2  31.4  34166  289.69 0855.28
2009/04/23 10:07:39.4     -71   -215    115    227    254 198.3  29.1  34166  289.68 0855.28
2009/04/23 10:07:39.5     -50   -233     98    239    258 192.3  23.4  34160  289.58 0855.28
2009/04/23 10:07:39.6    -207   -304    163    369    403 214.3  25.6  34166  289.67 0855.28
2009/04/23 10:07:39.7    -247   -236    206    342    399 226.3  34.0  34172  289.77 0855.28
2009/04/23 10:07:39.8    -166   -170    156    238    284 224.3  36.5  34164  289.64 0855.28
2009/04/23 10:07:39.9    -171   -150    187    228    294 228.7  43.7  34168  289.71 0855.28
2009/04/23 10:07:40.0    -236   -160    180    286    337 235.9  35.3  34172  289.76 0855.28
2009/04/23 10:07:40.1    -103   -127    180    164    243 219.2  53.0  34168  289.70 0855.28
2009/04/23 10:07:40.2     -67   -153    160    168    232 203.8  48.5  34156  289.50 0855.28
2009/04/23 10:07:40.3     -48   -155    191    163    251 197.2  55.4  34154  289.46 0855.28
2009/04/23 10:07:40.4     -30     -3    170     31    172 263.9  90.0  34170  289.74 0855.28
2009/04/23 10:07:40.5      -8     36    147     38    151 346.6  85.4  34172  289.79 0855.28
2009/04/23 10:07:40.6     -24   -140    218    143    260 189.7  63.9  34178  289.87 0855.28
2009/04/23 10:07:40.7    -165   -145    234    220    321 228.7  52.0  34180  289.92 0855.28
2009/04/23 10:07:40.8    -104   -170    314    200    372 211.4  64.6  34190  290.07 0855.28
2009/04/23 10:07:40.9     -69   -172    219    186    287 201.9  55.4  34186  290.02 0855.28
2009/04/23 10:07:41.0     -22   -314    150    315    348 184.0  27.3  34178  289.87 0855.28
2009/04/23 10:07:41.1    -208   -208     67    295    303 224.9  12.9  34190  290.09 0855.28
2009/04/23 10:07:41.2    -249   -196    -21    318    319 231.8  -3.8  34186  290.02 0855.28
2009/04/23 10:07:41.3    -360   -304     32    472    474 229.8   3.9  34164  289.64 0855.23
2009/04/23 10:07:41.4    -335   -323    117    466    481 226.1  14.2  34156  289.50 0855.23
2009/04/23 10:07:41.5    -349   -231     -9    419    420 236.5  -1.3  34160  289.58 0855.23
2009/04/23 10:07:41.6    -211   -211     53    299    304 225.0  10.1  34162  289.61 0855.23
2009/04/23 10:07:41.7     -91   -126     12    156    157 216.0   4.6  34160  289.57 0855.23
2009/04/23 10:07:41.8     -49    -53     65     73     97 222.3  46.9  34168  289.72 0855.23
2009/04/23 10:07:41.9     -56   -112     74    126    146 206.7  33.5  34174  289.80 0855.23
2009/04/23 10:07:42.0    -157   -164    166    228    282 223.7  39.7  34156  289.49 0855.23
2009/04/23 10:07:42.1    -168   -157    254    231    343 226.9  53.2  34154  289.46 0855.23
2009/04/23 10:07:42.2    -114    -24     93    117    149 258.1  43.3  34176  289.85 0855.23
2009/04/23 10:07:42.3    -102    -86     73    134    152 229.6  31.3  34190  290.08 0855.23
2009/04/23 10:07:42.4     -91   -247     94    264    280 200.3  20.4  34164  289.64 0855.23
2009/04/23 10:07:42.5    -171   -206     57    268    275 219.7  12.1  34154  289.46 0855.23
2009/04/23 10:07:42.6    -125   -244    143    275    309 207.2  29.3  34144  289.31 0855.23
2009/04/23 10:07:42.7    -139   -231    105    270    289 211.0  22.1  34140  289.24 0855.23
2009/04/23 10:07:42.8    -196   -237     87    308    321 219.7  15.8  34142  289.25 0855.23
2009/04/23 10:07:42.9    -182   -205    111    275    296 221.7  23.1  34142  289.27 0855.23
2009/04/23 10:07:43.0    -144   -143     25    203    205 225.2   7.1  34148  289.36 0855.23
2009/04/23 10:07:43.1    -103   -188     26    215    217 208.7   7.1  34150  289.40 0855.23
2009/04/23 10:07:43.2     -66   -210    131    221    256 197.6  33.5  34148  289.37 0855.23
2009/04/23 10:07:43.3    -141   -193    115    240    266 216.1  27.3  34156  289.49 0855.23
2009/04/23 10:07:43.4    -151   -161     94    222    241 223.2  24.2  34152  289.42 0855.23
2009/04/23 10:07:43.5    -144   -132     86    196    214 227.3  25.2  34150  289.41 0855.23
2009/04/23 10:07:43.6    -171   -123     88    211    228 234.3  23.6  34150  289.40 0855.23
2009/04/23 10:07:43.7    -235    -93     92    253    269 248.3  20.7  34168  289.70 0855.23
2009/04/23 10:07:43.8    -198    -69     84    210    226 250.7  23.0  34170  289.75 0855.23
2009/04/23 10:07:43.9    -282    -85     57    295    301 253.2  11.0  34186  290.00 0855.23
2009/04/23 10:07:44.0    -199    -86     39    217    221 246.5  10.3  34162  289.60 0855.23
2009/04/23 10:07:44.1    -155   -104     65    187    197 236.0  20.0  34156  289.50 0855.23
2009/04/23 10:07:44.2    -134    -91     61    163    174 235.8  21.3  34160  289.57 0855.23
2009/04/23 10:07:44.3    -151    -30     23    155    157 258.5   8.5  34192  290.11 0855.16
2009/04/23 10:07:44.4     -70   -104    -74    126    146 213.8 -37.9  34192  290.11 0855.16
2009/04/23 10:07:44.5     -70   -150    -37    166    171 204.9 -12.6  34164  289.65 0855.16
2009/04/23 10:07:44.6     -93   -204      4    225    226 204.5   1.2  34146  289.33 0855.16
2009/04/23 10:07:44.7    -147   -172    -71    227    239 220.5 -17.5  34146  289.32 0855.16
2009/04/23 10:07:44.8     -99   -156    -55    186    193 212.5 -21.5  34142  289.28 0855.16
2009/04/23 10:07:44.9     -70   -170    -57    185    193 202.5 -22.5  34142  289.26 0855.16
2009/04/23 10:07:45.0     -49   -113    -96    124    156 203.7 -46.4  34154  289.48 0855.16
2009/04/23 10:07:45.1     -25   -145   -106    148    182 189.8 -43.7  34146  289.35 0855.16
2009/04/23 10:07:45.2     -93    -34    -89    100    133 250.0 -50.8  34174  289.82 0855.16
2009/04/23 10:07:45.3      14    -83    -84     85    119 170.2 -54.4  34156  289.52 0855.16
2009/04/23 10:07:45.4      11    -76    -77     77    108 171.1 -54.5  34146  289.33 0855.16
2009/04/23 10:07:45.5      49    -64    -82     81    115 142.6 -53.5  34144  289.31 0855.16
2009/04/23 10:07:45.6      35     -7    -70     36     78 101.5 -75.2  34158  289.55 0855.16
2009/04/23 10:07:45.7      15    -31    -42     35     54 154.6 -60.7  34156  289.52 0855.16
2009/04/23 10:07:45.8     -51    -17    -77     55     94 250.9 -65.5  34158  289.53 0855.16
2009/04/23 10:07:45.9     -99     31   -120    104    158 287.7 -59.2  34148  289.38 0855.16
2009/04/23 10:07:46.0     -42     45   -105     62    121 316.7 -71.2  34152  289.43 0855.16
2009/04/23 10:07:46.1     -68      5   -107     69    127 274.4 -69.0  34160  289.58 0855.16
2009/04/23 10:07:46.2     -30   -101    -87    106    137 196.5 -48.1  34162  289.62 0855.16
2009/04/23 10:07:46.3    -137   -182   -113    229    255 217.0 -32.6  34148  289.36 0855.17
2009/04/23 10:07:46.4    -142   -134    -82    196    212 226.7 -28.5  34136  289.16 0855.17
2009/04/23 10:07:46.5     -95   -257    -37    275    278 200.3  -7.7  34130  289.07 0855.17
2009/04/23 10:07:46.6     -67   -268     64    277    285 194.2  13.1  34132  289.10 0855.17
2009/04/23 10:07:46.7     -63   -209    116    219    247 196.9  30.2  34138  289.19 0855.17
2009/04/23 10:07:46.8      -2   -226     88    227    243 180.7  22.0  34136  289.17 0855.17
2009/04/23 10:07:46.9      93   -259     36    276    279 160.2   7.5  34132  289.10 0855.17
2009/04/23 10:07:47.0      85   -252     28    267    269 161.3   6.1  34132  289.09 0855.17
2009/04/23 10:07:47.1       8   -277      4    278    279 178.2   1.0  34134  289.12 0855.17
2009/04/23 10:07:47.2      12   -278    -42    279    283 177.4  -8.6  34134  289.12 0855.17
2009/04/23 10:07:47.3      -8   -276     -6    277    278 181.8  -1.3  34134  289.14 0855.17
2009/04/23 10:07:47.4      29   -307     -1    309    310 174.6  -0.3  34132  289.09 0855.17
2009/04/23 10:07:47.5     -50   -238    -50    244    250 192.0 -11.6  34132  289.10 0855.17
2009/04/23 10:07:47.6     -42   -243    -22    247    249 190.0  -5.2  34130  289.05 0855.17
2009/04/23 10:07:47.7     -23   -218    -51    220    226 186.2 -13.2  34130  289.08 0855.17
2009/04/23 10:07:47.8     -16   -119    -51    121    131 188.0 -29.0  34134  289.13 0855.17
2009/04/23 10:07:47.9     -69   -172    -68    186    198 202.1 -25.4  34132  289.09 0855.17
2009/04/23 10:07:48.0     -44   -232    -68    237    247 190.9 -16.0  34132  289.10 0855.17
2009/04/23 10:07:48.1      39   -195    -40    199    203 168.7 -11.5  34134  289.13 0855.17
2009/04/23 10:07:48.2      60   -160     -6    172    173 159.3  -2.2  34134  289.13 0855.17
2009/04/23 10:07:48.3      19   -158     53    160    169 172.9  18.4  34132  289.11 0855.21
2009/04/23 10:07:48.4      23   -198     54    200    208 173.3  15.3  34134  289.13 0855.21
2009/04/23 10:07:48.6      -9   -222     78    223    236 182.5  20.0  34136  289.16 0855.21
2009/04/23 10:07:48.7     -20   -236     53    237    243 185.1  12.6  34136  289.15 0855.21
2009/04/23 10:07:48.8      41   -185     67    190    201 167.3  20.0  34132  289.11 0855.21
2009/04/23 10:07:48.8      15   -175     78    176    192 174.9  25.7  34136  289.16 0855.21
2009/04/23 10:07:49.0      73   -223     41    235    239 161.7  10.1  34134  289.14 0855.21
2009/04/23 10:07:49.1      87   -213     14    231    232 157.7   3.6  34132  289.09 0855.21
2009/04/23 10:07:49.2     104   -173      8    202    203 149.0   2.5  34134  289.13 0855.21
2009/04/23 10:07:49.3     171   -169    -26    241    243 134.7  -6.2  34136  289.17 0855.21
2009/04/23 10:07:49.4     116   -214     -9    244    245 151.5  -2.2  34130  289.05 0855.21
2009/04/23 10:07:49.5      42   -238     21    242    243 169.8   5.0  34136  289.17 0855.21
2009/04/23 10:07:49.6      36   -207     51    211    218 170.0  13.7  34136  289.18 0855.21
2009/04/23 10:07:49.7      15   -260     46    261    266 176.6  10.0  34136  289.17 0855.21
2009/04/23 10:07:49.8      55   -234     34    241    244 166.7   8.2  34134  289.14 0855.21
2009/04/23 10:07:49.9      33   -243     87    246    260 172.2  20.0  34134  289.12 0855.21
2009/04/23 10:07:50.0       0   -232     54    233    240 180.0  13.2  34134  289.12 0855.21
2009/04/23 10:07:50.1      -4   -256     45    257    262 181.1  10.1  34132  289.10 0855.21
2009/04/23 10:07:50.2      47   -204    107    210    235 166.9  29.1  34138  289.19 0855.21
2009/04/23 10:07:50.3      57   -189     83    198    214 163.1  23.8  34142  289.26 0855.21
2009/04/23 10:07:50.4      52   -160     28    169    172 162.0   9.5  34134  289.14 0855.23
2009/04/23 10:07:50.5      32   -124    -30    129    133 165.3 -13.3  34138  289.19 0855.23
2009/04/23 10:07:50.6      31   -129    -17    133    135 166.2  -7.3  34134  289.14 0855.23
2009/04/23 10:07:50.7      43   -111     37    120    126 158.6  17.4  34138  289.19 0855.23
2009/04/23 10:07:50.8      76   -126     12    148    149 148.8   4.9  34138  289.21 0855.23
2009/04/23 10:07:50.9     120   -149     21    192    194 141.0   6.5  34134  289.14 0855.23
2009/04/23 10:07:51.0     139   -108     66    177    188 128.0  21.3  34134  289.14 0855.23
2009/04/23 10:07:51.1      81   -111     58    138    149 143.9  24.1  34136  289.16 0855.23
2009/04/23 10:07:51.2     104   -110     80    152    171 136.8  29.8  34138  289.19 0855.23
2009/04/23 10:07:51.3     132    -97     18    165    167 126.4   6.5  34144  289.30 0855.23
2009/04/23 10:07:51.4      94    -94     -2    133    134 135.0  -1.3  34144  289.30 0855.23
2009/04/23 10:07:51.5      96    -53     10    110    111 118.9   5.4  34140  289.24 0855.23
2009/04/23 10:07:51.6      70    -57     41     91     99 129.5  26.2  34140  289.23 0855.23
2009/04/23 10:07:51.7     105    -47      2    116    117 114.4   1.2  34138  289.21 0855.23
2009/04/23 10:07:51.8      93    -70     27    117    121 127.3  13.2  34138  289.21 0855.23
2009/04/23 10:07:51.9      78   -124     28    147    150 147.9  11.1  34132  289.09 0855.23
2009/04/23 10:07:52.0      35   -108     46    114    122 161.7  23.0  34132  289.11 0855.23
2009/04/23 10:07:52.1      25   -125      6    128    129 168.5   2.9  34130  289.06 0855.23
2009/04/23 10:07:52.2      29    -93      5     98     99 162.2   2.9  34136  289.18 0855.23
2009/04/23 10:07:52.3      62    -95    -36    114    120 146.6 -17.6  34138  289.21 0855.23
2009/04/23 10:07:52.4      33    -52    -69     62     92 147.4 -57.7  34142  289.28 0855.23
2009/04/23 10:07:52.5      70    -59    -52     92    105 130.4 -36.3  34146  289.33 0855.23
2009/04/23 10:07:52.6      58   -122    -66    136    151 154.6 -31.7  34142  289.26 0855.23
2009/04/23 10:07:52.7      68   -135    -54    152    161 153.3 -24.8  34140  289.23 0855.23
2009/04/23 10:07:52.8      66   -157    -29    171    174 157.1  -9.8  34136  289.16 0855.23
2009/04/23 10:07:52.9      68   -161    -34    175    179 157.1 -11.1  34132  289.09 0855.23
2009/04/23 10:07:53.0      83   -149    -47    171    178 150.8 -15.5  34132  289.11 0855.23
2009/04/23 10:07:53.1      55   -150    -46    161    168 159.7 -16.0  34132  289.09 0855.23
2009/04/23 10:07:53.2      57   -187    -67    196    208 163.1 -19.1  34130  289.06 0855.23
2009/04/23 10:07:53.3       0   -203   -107    204    230 179.8 -34.2  34130  289.08 0855.23
2009/04/23 10:07:53.4      -1   -204    -70    205    217 180.5 -18.9  34130  289.08 0855.23
2009/04/23 10:07:53.5      27   -179    -43    182    188 171.3 -13.4  34128  289.02 0855.23
2009/04/23 10:07:53.6     -39   -176    -38    181    185 192.5 -11.9  34130  289.08 0855.23
2009/04/23 10:07:53.7     -32   -163     -1    167    168 191.3  -0.5  34128  289.04 0855.23
2009/04/23 10:07:53.8     -18   -167     26    169    171 186.2   8.8  34130  289.08 0855.23
2009/04/23 10:07:53.9     -27   -222     28    224    226 187.1   7.2  34132  289.09 0855.23
2009/04/23 10:07:54.0     -11   -217    -11    218    219 183.1  -3.1  34126  289.01 0855.23
2009/04/23 10:07:54.1     -56   -285    -15    291    292 191.1  -3.1  34126  289.00 0855.23
2009/04/23 10:07:54.2     -17   -312    -26    313    315 183.1  -4.9  34124  288.97 0855.23
2009/04/23 10:07:54.3      23   -300    -60    301    308 175.5 -11.3  34124  288.97 0855.23
2009/04/23 10:07:54.4     -29   -318    -10    320    321 185.4  -1.9  34116  288.83 0855.25
2009/04/23 10:07:54.5     -16   -371    -34    372    374 182.5  -5.3  34112  288.77 0855.25
2009/04/23 10:07:54.6     -99   -386    -28    399    400 194.4  -4.1  34114  288.79 0855.25
2009/04/23 10:07:54.7      56   -341    -70    346    354 170.6 -11.6  34116  288.81 0855.25
2009/04/23 10:07:54.8      47   -341    -69    345    352 172.1 -11.3  34114  288.79 0855.25
2009/04/23 10:07:54.9      32   -361    -85    363    373 174.9 -13.3  34126  288.98 0855.25
2009/04/23 10:07:55.0       1   -336    -10    337    338 179.8  -1.8  34124  288.96 0855.25
2009/04/23 10:07:55.1      18   -356    -73    357    365 177.1 -11.6  34126  288.98 0855.25
2009/04/23 10:07:55.2      18   -391    -66    392    398 177.3  -9.6  34126  288.98 0855.25
2009/04/23 10:07:55.3      17   -367    -25    368    369 177.2  -3.9  34124  288.96 0855.25
2009/04/23 10:07:55.4     -77   -326    -35    336    338 193.4  -6.1  34126  288.98 0855.25
2009/04/23 10:07:55.5     -53   -335    -28    340    342 189.0  -4.8  34126  289.01 0855.25
2009/04/23 10:07:55.6     -15   -344    -50    345    349 182.5  -8.4  34128  289.04 0855.25
2009/04/23 10:07:55.7      46   -294    -62    298    305 171.1 -11.9  34126  288.98 0855.25
2009/04/23 10:07:55.8      58   -289    -88    295    308 168.5 -16.6  34130  289.05 0855.25
2009/04/23 10:07:55.9      33   -334    -80    336    346 174.2 -13.4  34128  289.04 0855.25
2009/04/23 10:07:56.0      21   -307   -115    308    328 176.0 -25.8  34132  289.09 0855.25
2009/04/23 10:07:56.1      43   -301    -89    305    317 171.8 -21.1  34120  288.88 0855.25
2009/04/23 10:07:56.2      59   -231    -85    239    254 165.5 -19.6  34118  288.87 0855.25
2009/04/23 10:07:56.3      52   -221    -63    228    237 166.6 -15.5  34120  288.88 0855.25
2009/04/23 10:07:56.4      74   -212    -45    225    230 160.6 -11.5  34122  288.92 0855.27
2009/04/23 10:07:56.5      67   -256    -34    265    268 165.3  -7.3  34126  289.00 0855.27
2009/04/23 10:07:56.6      50   -295    -21    300    301 170.4  -4.1  34118  288.85 0855.27
2009/04/23 10:07:56.7      72   -319    -12    328    329 167.2  -2.2  34118  288.85 0855.27
2009/04/23 10:07:56.8      79   -344    -19    354    355 167.0  -3.1  34122  288.94 0855.27
2009/04/23 10:07:56.9      86   -348    -26    359    360 166.1  -4.2  34124  288.96 0855.27
2009/04/23 10:07:57.0      64   -332     -7    339    340 169.0  -1.3  34116  288.84 0855.27
2009/04/23 10:07:57.1      24   -316     74    317    326 175.6  13.1  34122  288.92 0855.27
2009/04/23 10:07:57.2      49   -315     58    319    325 171.1  10.4  34122  288.93 0855.27
2009/04/23 10:07:57.3      14   -317     24    318    320 177.4   4.5  34126  289.00 0855.27
2009/04/23 10:07:57.4      44   -316     13    320    321 172.0   2.3  34122  288.93 0855.27
2009/04/23 10:07:57.5      63   -320     32    327    329 168.9   5.7  34124  288.97 0855.27
2009/04/23 10:07:57.6      83   -306      2    318    319 164.8   0.5  34124  288.97 0855.27
2009/04/23 10:07:57.7      90   -278     25    293    295 162.0   4.9  34124  288.97 0855.27
2009/04/23 10:07:57.8      83   -251     72    265    275 161.7  15.2  34124  288.95 0855.27
2009/04/23 10:07:57.9      55   -261     83    267    280 168.0  17.3  34122  288.93 0855.27
2009/04/23 10:07:58.0      51   -253     93    259    276 168.5  19.9  34122  288.93 0855.27
2009/04/23 10:07:58.1      62   -246    114    254    278 165.7  25.9  34124  288.97 0855.27
2009/04/23 10:07:58.2      32   -300     59    302    308 173.8  11.1  34136  289.17 0855.27
2009/04/23 10:07:58.3      48   -338     29    342    344 171.8   4.9  34132  289.10 0855.27
2009/04/23 10:07:58.4      44   -307     29    311    313 171.8   5.4  34128  289.02 0855.26
2009/04/23 10:07:58.5      43   -251     79    255    268 170.2  17.3  34128  289.03 0855.26
2009/04/23 10:07:58.6      77   -238     48    251    256 162.0  10.8  34130  289.05 0855.26
2009/04/23 10:07:58.7      38   -237     17    241    242 170.9   4.2  34134  289.12 0855.26
2009/04/23 10:07:58.8      41   -277     44    281    285 171.5   8.9  34128  289.03 0855.26
2009/04/23 10:07:58.9      51   -327     20    332    333 171.1   3.5  34128  289.04 0855.26
2009/04/23 10:07:59.0      43   -325     23    328    329 172.4   4.0  34130  289.08 0855.26
2009/04/23 10:07:59.1      28   -281    -11    283    284 174.2  -2.2  34132  289.09 0855.26
2009/04/23 10:07:59.2      28   -199     32    202    205 171.9   9.0  34126  288.99 0855.26
2009/04/23 10:07:59.3      72   -217    109    229    253 161.5  27.3  34132  289.10 0855.26
2009/04/23 10:07:59.4      63   -197    128    207    243 162.2  34.8  34132  289.09 0855.26
2009/04/23 10:07:59.5      76   -231     99    244    263 161.7  23.1  34130  289.05 0855.26
2009/04/23 10:07:59.6      89   -223    122    241    270 158.2  28.7  34128  289.03 0855.26
2009/04/23 10:07:59.7     105   -255     96    276    293 157.5  19.2  34130  289.07 0855.26
2009/04/23 10:07:59.8      53   -271     54    277    283 168.9  11.1  34130  289.07 0855.26
2009/04/23 10:07:59.9      58   -257     95    264    281 167.1  19.9  34128  289.03 0855.26
2009/04/23 10:08:00.0      17   -219     76    220    234 175.5  19.2  34130  289.08 0855.26
2009/04/23 10:08:00.1       6   -148     48    149    157 177.4  17.9  34132  289.11 0855.26
2009/04/23 10:08:00.2      61   -213     58    222    230 164.0  14.7  34134  289.13 0855.26
2009/04/23 10:08:00.3     159   -203     32    259    262 141.9   7.2  34132  289.10 0855.26
2009/04/23 10:08:00.4     170   -181     50    249    255 136.8  11.4  34132  289.09 0855.21
2009/04/23 10:08:00.5     184   -137     79    230    244 126.6  18.9  34130  289.07 0855.21
2009/04/23 10:08:00.6     141   -111     65    180    191 128.4  20.2  34132  289.11 0855.21
2009/04/23 10:08:00.7     129   -137    -14    189    190 136.6  -4.4  34130  289.08 0855.21
2009/04/23 10:08:00.8     145   -132    -65    197    208 132.4 -18.3  34132  289.09 0855.21
2009/04/23 10:08:00.9     121   -116     -9    168    169 133.8  -3.1  34128  289.04 0855.21
2009/04/23 10:08:01.0     139   -124     85    187    205 131.6  26.4  34128  289.04 0855.21
2009/04/23 10:08:01.1     175   -132     95    220    239 127.1  24.9  34130  289.05 0855.21
2009/04/23 10:08:01.2     177    -73    118    192    225 112.4  35.0  34130  289.06 0855.21
2009/04/23 10:08:01.3     174    -13     90    175    196  94.3  29.3  34130  289.06 0855.21
2009/04/23 10:08:01.4     144     12    -19    145    147  85.2  -7.7  34130  289.06 0855.21
2009/04/23 10:08:01.5     169     -7    -51    170    178  92.6 -17.0  34126  289.01 0855.21
2009/04/23 10:08:01.6     137    -25     27    140    143 100.6  11.1  34124  288.97 0855.21
2009/04/23 10:08:01.7     131    -37     84    137    160 105.9  34.4  34128  289.02 0855.21
2009/04/23 10:08:01.8     105     -9     29    106    110  95.2  15.3  34126  289.01 0855.21
2009/04/23 10:08:01.9      77    -15     49     79     92 101.5  35.5  34128  289.02 0855.21
2009/04/23 10:08:02.0     109      0     49    110    120  90.0  25.2  34126  289.01 0855.21
2009/04/23 10:08:02.1     116    -13     12    117    118  96.6   5.9  34124  288.97 0855.21
2009/04/23 10:08:02.2      80    -17     22     82     86 102.4  15.3  34122  288.94 0855.21
2009/04/23 10:08:02.3      50      0     29     51     58  90.0  33.5  34124  288.97 0855.21
2009/04/23 10:08:02.4       3    -16      9     17     19 168.4  31.4  34126  288.99 0855.18
2009/04/23 10:08:02.5     -61    -44     25     76     81 234.0  18.4  34128  289.04 0855.18
2009/04/23 10:08:02.6     -84    -58     52    103    115 235.4  28.2  34132  289.11 0855.18
2009/04/23 10:08:02.7     -89    -59     68    107    126 236.3  35.5  34126  289.01 0855.18
2009/04/23 10:08:02.8    -109    -67     90    129    157 238.5  38.6  34130  289.06 0855.18
2009/04/23 10:08:02.9     -41    -38     77     57     95 226.9  60.0  34128  289.04 0855.18
2009/04/23 10:08:03.0     -50    -37     98     63    116 233.1  64.6  34134  289.13 0855.18
2009/04/23 10:08:03.1      -2    -10     65     11     65 195.1  90.0  34138  289.19 0855.18
2009/04/23 10:08:03.2      24     16     80     30     85  55.8  78.6  34140  289.23 0855.18
2009/04/23 10:08:03.3      22     56     82     61    102  21.8  60.0  34144  289.30 0855.18
2009/04/23 10:08:03.4      33     46     59     57     82  36.1  50.7  34142  289.28 0855.20
2009/04/23 10:08:03.5     -17    -13     37     22     43 232.2  66.8  34150  289.40 0855.20
2009/04/23 10:08:03.6     -49      6      2     50     51 277.9   2.8  34154  289.46 0855.20
2009/04/23 10:08:03.7     -22      0      3     23     24 270.0   9.0  34152  289.45 0855.20
2009/04/23 10:08:03.8     -45     21    -13     50     52 295.4 -15.5  34142  289.26 0855.20
2009/04/23 10:08:03.9     -73     23     17     77     79 287.7  12.6  34142  289.28 0855.20
2009/04/23 10:08:04.0     -71     42     14     83     85 300.7  10.1  34140  289.24 0855.20
2009/04/23 10:08:04.1      -7     45     79     46     91 350.2  67.2  34144  289.31 0855.20
2009/04/23 10:08:04.2     -15      0    123     16    124 270.0  90.0  34156  289.50 0855.20
2009/04/23 10:08:04.3     -71    -86    122    112    165 219.6  52.5  34138  289.19 0855.20
2009/04/23 10:08:04.4     -47    -50    113     69    132 223.3  65.7  34142  289.26 0855.20
2009/04/23 10:08:04.5     -54    -42     85     69    109 232.2  56.4  34144  289.31 0855.20
2009/04/23 10:08:04.6      -6    -50     94     51    106 187.1  68.9  34142  289.28 0855.20
2009/04/23 10:08:04.7      48    -12     66     50     82 104.2  59.0  34144  289.30 0855.20
2009/04/23 10:08:04.8     -18    -67     65     70     95 195.2  47.9  34140  289.23 0855.20
2009/04/23 10:08:04.9     -46   -101     45    111    119 204.5  23.1  34132  289.09 0855.20
2009/04/23 10:08:05.0     -62   -145     90    158    181 203.2  32.4  34130  289.06 0855.20
2009/04/23 10:08:05.1     -49   -208     74    214    227 193.4  19.2  34130  289.06 0855.20
2009/04/23 10:08:05.2     -74   -185     89    200    218 201.8  25.3  34130  289.08 0855.20
2009/04/23 10:08:05.3     -46   -193    132    199    238 193.4  36.5  34130  289.06 0855.20
2009/04/23 10:08:05.4       2   -126    180    127    220 179.0  61.3  34138  289.19 0855.21
2009/04/23 10:08:05.5     -59   -186    167    196    257 197.8  44.8  34134  289.12 0855.21
2009/04/23 10:08:05.6     -59   -221    175    229    288 195.1  41.6  34132  289.09 0855.21
2009/04/23 10:08:05.7     -92   -227    183    246    306 202.1  40.1  34132  289.09 0855.21
2009/04/23 10:08:05.8    -102   -248    168    269    317 202.5  35.0  34132  289.09 0855.21
2009/04/23 10:08:05.9    -122   -223    155    255    298 208.7  34.2  34130  289.07 0855.21
2009/04/23 10:08:06.0    -116   -225    181    254    311 207.4  39.0  34130  289.05 0855.21
2009/04/23 10:08:06.1     -67   -230    197    240    310 196.3  43.7  34132  289.10 0855.21
2009/04/23 10:08:06.2     -21   -215    185    217    285 185.8  44.8  34132  289.09 0855.21
2009/04/23 10:08:06.3     -10   -246    166    247    297 182.5  37.3  34132  289.10 0855.21
2009/04/23 10:08:06.4       8   -219    146    220    264 177.8  36.5  34134  289.12 0855.21
2009/04/23 10:08:06.5       0   -208    130    209    246 179.8  35.0  34132  289.09 0855.21
2009/04/23 10:08:06.6     -17   -216    110    217    243 184.7  29.1  34136  289.17 0855.21
2009/04/23 10:08:06.7      34   -223     70    226    237 171.1  17.3  34134  289.14 0855.21
2009/04/23 10:08:06.8      47   -233     23    238    240 168.4   5.7  34136  289.17 0855.21
2009/04/23 10:08:06.9      96   -229     76    249    261 157.3  17.1  34136  289.17 0855.21
2009/04/23 10:08:07.0      93   -182     83    205    221 153.0  23.1  34136  289.18 0855.21
2009/04/23 10:08:07.1     105   -110     98    153    181 136.3  35.6  34136  289.18 0855.21
2009/04/23 10:08:07.2     117    -44    152    126    197 110.8  56.1  34140  289.24 0855.21
2009/04/23 10:08:07.3     114    -77    143    138    198 124.1  50.9  34138  289.19 0855.21
2009/04/23 10:08:07.4      55    -11    116     57    129 101.4  72.4  34140  289.23 0855.22
2009/04/23 10:08:07.5     -19     12    112     23    114 302.4  89.1  34148  289.36 0855.22
2009/04/23 10:08:07.6      18     31     82     37     89  30.7  74.0  34150  289.40 0855.22
2009/04/23 10:08:07.7      -8    -36    120     38    125 193.4  81.2  34150  289.40 0855.22
2009/04/23 10:08:07.9      15    -11     82     19     84 126.0  86.9  34158  289.53 0855.22
2009/04/23 10:08:07.9     -10   -132     64    133    147 184.4  27.3  34134  289.14 0855.22
2009/04/23 10:08:08.0     -39   -211     37    215    219 190.5   9.9  34132  289.11 0855.22
2009/04/23 10:08:08.1     -28   -199     19    202    203 188.0   5.4  34136  289.16 0855.22
2009/04/23 10:08:08.2     -41   -184     33    189    192 192.7  10.1  34132  289.11 0855.22
2009/04/23 10:08:08.3     -71   -217    -12    229    230 198.3  -3.2  34130  289.08 0855.22
2009/04/23 10:08:08.4     -82   -254    -24    267    269 197.9  -5.2  34134  289.12 0855.22
2009/04/23 10:08:08.5     -16   -216    -27    217    219 184.4  -7.2  34132  289.11 0855.22
2009/04/23 10:08:08.6      16   -214      4    215    216 175.6   1.2  34132  289.11 0855.22
2009/04/23 10:08:08.7      -9   -192     68    193    205 182.9  19.4  34132  289.11 0855.22
2009/04/23 10:08:08.8      16   -152     90    153    177 173.8  33.1  34140  289.23 0855.22
2009/04/23 10:08:08.9     -15   -146     92    147    173 186.2  35.5  34138  289.19 0855.22
2009/04/23 10:08:09.0     -40   -138     81    144    165 196.5  31.9  34138  289.21 0855.22
2009/04/23 10:08:09.1     -57   -207     48    215    221 195.6  12.6  34138  289.19 0855.22
2009/04/23 10:08:09.2    -134   -194    -56    237    244 214.7 -13.3  34136  289.15 0855.22
2009/04/23 10:08:09.3    -184   -153    -66    240    249 230.4 -15.4  34144  289.29 0855.22
2009/04/23 10:08:09.4     -74   -176     49    192    199 202.9  14.5  34138  289.19 0855.24
2009/04/23 10:08:09.5     -92   -144     34    172    176 212.6  11.4  34140  289.23 0855.24
2009/04/23 10:08:09.6     -61   -130     50    144    153 205.3  19.2  34142  289.26 0855.24
2009/04/23 10:08:09.7       4   -129     19    130    132 178.2   8.5  34142  289.28 0855.24
2009/04/23 10:08:09.8      69   -113    -17    133    135 148.4  -7.3  34142  289.26 0855.24
2009/04/23 10:08:09.9      64    -75    -14     99    101 139.5  -8.2  34144  289.31 0855.24
2009/04/23 10:08:10.0       0    -90     56     91    106 180.4  35.0  34144  289.30 0855.24
2009/04/23 10:08:10.1     -13   -122     30    123    127 186.2  13.7  34140  289.23 0855.24
2009/04/23 10:08:10.2       8   -110    129    111    170 175.6  55.0  34142  289.26 0855.24
2009/04/23 10:08:10.3     -47   -211    144    217    260 192.7  36.5  34138  289.19 0855.24
2009/04/23 10:08:10.4     -40   -216     68    220    231 190.7  17.3  34136  289.18 0855.24
2009/04/23 10:08:10.5     -40   -199     36    203    207 191.5  10.1  34132  289.09 0855.24
2009/04/23 10:08:10.6     -73   -155     56    172    181 205.3  18.1  34130  289.08 0855.24
2009/04/23 10:08:10.7     -51   -151     87    160    182 198.7  31.0  34130  289.08 0855.24
2009/04/23 10:08:10.8     -58   -177    108    187    215 198.3  32.4  34132  289.11 0855.24
2009/04/23 10:08:10.9    -122   -230    122    261    288 207.9  27.1  34130  289.05 0855.24
2009/04/23 10:08:11.0     -94   -223     81    243    257 202.9  18.4  34134  289.12 0855.24
2009/04/23 10:08:11.1     -72   -222    156    234    281 198.0  36.7  34138  289.19 0855.24
2009/04/23 10:08:11.2    -132   -271    135    302    330 206.1  25.7  34132  289.10 0855.24
2009/04/23 10:08:11.3     -55   -260    198    266    331 192.0  40.4  34136  289.15 0855.24
2009/04/23 10:08:11.4    -103   -298    116    316    336 199.1  21.1  34130  289.06 0855.23
2009/04/23 10:08:11.5    -170   -283     73    331    340 211.0  12.5  34134  289.13 0855.23
2009/04/23 10:08:11.6    -203   -258     34    329    331 218.1   5.9  34132  289.10 0855.23
2009/04/23 10:08:11.7    -236   -171      4    292    293 234.1   0.8  34138  289.19 0855.23
2009/04/23 10:08:11.8    -147   -147     11    208    209 225.0   3.3  34134  289.13 0855.23
2009/04/23 10:08:11.9    -204   -244    -22    319    320 219.9  -4.1  34130  289.07 0855.23
2009/04/23 10:08:12.0     -71   -272    -61    282    289 194.7 -12.4  34138  289.19 0855.23
2009/04/23 10:08:12.1     -55   -239     20    246    247 193.1   4.9  34138  289.19 0855.23
2009/04/23 10:08:12.2     -82      0     94     83    125 270.4  54.2  34130  289.06 0855.23
2009/04/23 10:08:12.3    -127    102    122    164    204 308.9  40.4  34152  289.45 0855.23
2009/04/23 10:08:12.4    -154     26    107    157    189 279.7  37.6  34152  289.45 0855.23
2009/04/23 10:08:12.5    -157      0     75    158    174 270.0  27.2  34156  289.50 0855.23
2009/04/23 10:08:12.6    -106    -73     60    129    142 235.4  27.1  34156  289.50 0855.23
2009/04/23 10:08:12.7     -58    -59     45     83     94 224.5  31.4  34152  289.45 0855.23
2009/04/23 10:08:12.8     -46    -56     14     73     75 219.6  11.1  34152  289.43 0855.23
2009/04/23 10:08:12.9     -15   -187    -17    188    189 184.7  -5.4  34146  289.33 0855.23
2009/04/23 10:08:13.0      11   -181      8    182    183 176.4   2.8  34148  289.36 0855.23
2009/04/23 10:08:13.1      45   -116     47    125    133 158.6  21.0  34146  289.33 0855.23
2009/04/23 10:08:13.2      42   -126     44    134    142 161.3  18.4  34144  289.31 0855.23
2009/04/23 10:08:13.3     -12   -127     98    128    161 185.8  41.4  34148  289.38 0855.23
2009/04/23 10:08:13.4     -11   -106     89    107    139 186.2  43.8  34154  289.46 0855.25
2009/04/23 10:08:13.5     -47   -125    154    134    204 200.9  54.3  34152  289.43 0855.25
2009/04/23 10:08:13.6     -52    -94    167    108    198 209.0  64.4  34150  289.40 0855.25
2009/04/23 10:08:13.7     -15    -52    149     55    158 196.0  78.9  34158  289.53 0855.25
2009/04/23 10:08:13.8     -47    -57    118     75    139 219.7  64.7  34150  289.41 0855.25
2009/04/23 10:08:13.9     -35   -142    132    147    197 193.8  46.6  34140  289.24 0855.25
2009/04/23 10:08:14.0     -27   -142    147    145    206 191.1  50.2  34138  289.21 0855.25
2009/04/23 10:08:14.1     -25   -147    166    150    223 189.8  53.0  34136  289.18 0855.25
2009/04/23 10:08:14.2     -20   -168    163    170    235 186.9  49.0  34138  289.21 0855.25
2009/04/23 10:08:14.3     -57   -172    192    182    264 198.3  51.6  34140  289.22 0855.25
2009/04/23 10:08:14.4      -3   -218    156    219    268 180.9  39.1  34138  289.20 0855.25
2009/04/23 10:08:14.5     -68   -238    131    248    280 196.1  30.1  34138  289.19 0855.25
2009/04/23 10:08:14.6     -47   -234    165    239    290 191.6  37.6  34136  289.15 0855.25
2009/04/23 10:08:14.7     -85   -181     91    201    220 205.3  26.2  34136  289.18 0855.25
2009/04/23 10:08:14.8       0   -216    100    217    238 180.2  26.4  34134  289.13 0855.25
2009/04/23 10:08:14.9      50   -290     36    295    298 170.2   7.1  34132  289.10 0855.25
2009/04/23 10:08:15.0      16   -275     67    276    285 176.5  13.7  34130  289.07 0855.25
2009/04/23 10:08:15.1     -26   -239    123    241    270 186.2  29.2  34130  289.07 0855.25
2009/04/23 10:08:15.2     -44   -259     92    263    279 189.7  19.4  34134  289.12 0855.25
2009/04/23 10:08:15.3       0   -283     53    284    289 180.0  10.6  34132  289.09 0855.25
2009/04/23 10:08:15.4      19   -332     94    333    347 176.6  15.8  34138  289.21 0855.24
2009/04/23 10:08:15.5      24   -312    140    314    343 175.5  25.8  34136  289.15 0855.24
2009/04/23 10:08:15.6     103   -288    181    307    356 160.2  33.4  34138  289.20 0855.24
2009/04/23 10:08:15.7      -7   -242    129    243    275 181.8  30.2  34132  289.10 0855.24
2009/04/23 10:08:15.8      -3   -250     80    251    264 180.9  17.7  34132  289.09 0855.24
2009/04/23 10:08:15.9     -37   -192     42    196    201 191.1  12.2  34132  289.09 0855.24
2009/04/23 10:08:16.0     -82   -252    134    265    296 198.0  29.1  34134  289.12 0855.24
2009/04/23 10:08:16.1     -84   -209    203    226    303 202.1  46.6  34134  289.14 0855.24
2009/04/23 10:08:16.3    -134   -184    206    228    307 216.1  46.9  34132  289.10 0855.24
2009/04/23 10:08:16.4    -161   -131    153    208    258 230.9  39.7  34134  289.12 0855.24
2009/04/23 10:08:16.5    -138    -76    132    158    205 241.1  44.1  34134  289.14 0855.24
2009/04/23 10:08:16.6     -54     24    109     60    124 294.4  68.8  34150  289.40 0855.24
2009/04/23 10:08:16.7     -80     65     77    104    129 309.1  40.1  34150  289.41 0855.24
2009/04/23 10:08:16.8     -54     74     59     92    109 323.9  35.6  34148  289.38 0855.24
2009/04/23 10:08:16.9       5     72     94     73    119   4.4  58.5  34152  289.45 0855.24
2009/04/23 10:08:17.0     -24    107     41    110    117 347.1  21.0  34146  289.33 0855.24
2009/04/23 10:08:17.1     -42     67     91     80    121 327.5  54.3  34146  289.33 0855.24
2009/04/23 10:08:17.2    -255     -7     64    256    264 268.3  14.2  34168  289.70 0855.24
2009/04/23 10:08:17.3    -299    -33    -65    301    309 263.6 -12.3  34158  289.54 0855.24
2009/04/23 10:08:17.4    -257    -39     40    261    265 261.2   8.9  34136  289.15 0855.24
2009/04/23 10:08:17.5    -259    -46     70    264    274 259.9  15.0  34134  289.12 0855.24
2009/04/23 10:08:17.6    -223     73     85    235    251 288.2  19.9  34130  289.05 0855.24
2009/04/23 10:08:17.7    -241     78    175    254    308 287.9  37.6  34138  289.20 0855.24
2009/04/23 10:08:17.8    -190    -62    134    201    241 251.8  36.5  34132  289.11 0855.24
2009/04/23 10:08:17.9    -174   -164     87    240    255 226.8  20.9  34130  289.07 0855.24
2009/04/23 10:08:18.0    -249    -57    115    256    280 257.0  25.7  34130  289.05 0855.24
2009/04/23 10:08:18.1    -254    -76    104    266    285 253.2  22.8  34132  289.10 0855.24
2009/04/23 10:08:18.2    -186   -196    109    271    292 223.4  23.0  34134  289.12 0855.24
2009/04/23 10:08:18.3    -136   -245    178    281    332 209.0  35.5  34134  289.14 0855.24
2009/04/23 10:08:18.4    -177   -268    211    322    384 213.4  36.2  34150  289.40 0855.24
2009/04/23 10:08:18.5    -196   -236     47    307    311 219.7   8.7  34158  289.54 0855.24
2009/04/23 10:08:18.6    -227   -274     36    357    359 219.6   5.9  34162  289.62 0855.24
2009/04/23 10:08:18.7    -205   -275     -6    344    345 216.7  -1.2  34152  289.43 0855.24
2009/04/23 10:08:18.8    -196   -312    103    369    384 212.1  15.7  34152  289.42 0855.24
2009/04/23 10:08:18.9    -172   -349     54    390    394 206.2   8.0  34156  289.50 0855.24
2009/04/23 10:08:19.0    -241   -248    -86    346    357 224.2 -14.1  34154  289.47 0855.24
2009/04/23 10:08:19.1     -12   -360    126    361    383 182.0  19.3  34136  289.16 0855.24
2009/04/23 10:08:19.2    -147   -343    104    374    389 203.2  15.6  34138  289.20 0855.24
2009/04/23 10:08:19.3     -32   -255    -33    258    261 187.3  -7.3  34146  289.32 0855.24
2009/04/23 10:08:19.4     -47   -336    -18    340    341 188.1  -3.1  34142  289.25 0855.24
2009/04/23 10:08:19.5      -5   -380      1    381    382 180.8   0.2  34132  289.10 0855.24
2009/04/23 10:08:19.6     271   -391   -144    476    498 145.3 -16.9  34134  289.13 0855.24
2009/04/23 10:08:19.7     357   -273    147    450    474 127.4  18.1  34134  289.13 0855.24
2009/04/23 10:08:19.8     332   -150    169    365    402 114.3  26.6  34136  289.18 0855.24
2009/04/23 10:08:19.9     385   -213    223    441    494 119.0  28.9  34142  289.27 0855.24
2009/04/23 10:08:20.0     409   -330    183    526    557 128.9  19.2  34144  289.29 0855.24
2009/04/23 10:08:20.1     292   -100    216    309    377 109.0  38.5  34146  289.33 0855.24
2009/04/23 10:08:20.2     280   -193    148    341    371 124.6  25.0  34142  289.26 0855.24
2009/04/23 10:08:20.3     403    -63    238    409    473  99.0  32.9  34148  289.38 0855.24
2009/04/23 10:08:20.4     411    -97    222    423    477 103.3  29.9  34122  288.94 0855.24
2009/04/23 10:08:20.5     452     45    265    455    526  84.3  32.9  34126  289.00 0855.24
2009/04/23 10:08:20.6     313     83    202    324    381  75.0  35.2  34130  289.08 0855.24
2009/04/23 10:08:20.7     152    -17    181    154    237  96.6  55.4  34140  289.23 0855.24
2009/04/23 10:08:20.8     -84   -142    180    166    244 210.7  52.7  34148  289.36 0855.24
2009/04/23 10:08:20.9     -77   -230    149    243    285 198.7  34.5  34144  289.31 0855.24
2009/04/23 10:08:21.0    -103   -201    135    226    263 207.2  33.7  34140  289.24 0855.24
2009/04/23 10:08:21.1     -87   -149    127    173    214 210.5  39.9  34146  289.33 0855.24
2009/04/23 10:08:21.2     -19    -96     89     98    132 191.5  47.5  34144  289.31 0855.24
2009/04/23 10:08:21.3     -28   -111    138    115    179 194.3  56.3  34148  289.36 0855.24
2009/04/23 10:08:21.4    -319    -44    102    322    338 262.1  17.7  34142  289.26 0855.24
2009/04/23 10:08:21.5    -318    157     -3    355    356 296.4  -0.5  34148  289.38 0855.24
2009/04/23 10:08:21.6    -309    145    -32    342    344 295.2  -5.5  34136  289.18 0855.24
2009/04/23 10:08:21.7    -334    -29   -110    336    354 265.0 -18.2  34158  289.54 0855.24
2009/04/23 10:08:21.8    -130   -103   -151    167    225 231.6 -51.3  34154  289.48 0855.24
2009/04/23 10:08:21.9    -187    -89    -86    208    225 244.5 -28.2  34140  289.23 0855.24
2009/04/23 10:08:22.0     -51   -195    110    202    230 194.9  31.3  34140  289.24 0855.24
2009/04/23 10:08:22.1     -56   -301    129    307    333 190.6  24.1  34144  289.31 0855.24
2009/04/23 10:08:22.2    -149   -286     75    323    332 207.6  13.2  34144  289.30 0855.24
2009/04/23 10:08:22.3    -110   -276    101    298    315 201.9  18.8  34150  289.41 0855.24
2009/04/23 10:08:22.4    -113   -296     61    317    323 200.9  11.0  34140  289.24 0855.24
2009/04/23 10:08:22.5    -132   -295     33    324    326 204.1   6.0  34136  289.15 0855.24
2009/04/23 10:08:22.6    -222   -265     50    346    350 220.0   8.3  34130  289.08 0855.24
2009/04/23 10:08:22.7    -169   -180    -69    247    257 223.2 -15.8  34134  289.12 0855.24
2009/04/23 10:08:22.8    -157    -57    -37    168    173 249.8 -12.4  34136  289.18 0855.24
2009/04/23 10:08:22.9    -223   -162     56    276    282 234.0  11.6  34142  289.27 0855.24
2009/04/23 10:08:23.0     -91   -130     44    159    166 215.0  15.6  34138  289.21 0855.24
2009/04/23 10:08:23.1     -65   -296    156    304    341 192.5  29.3  34134  289.13 0855.24
2009/04/23 10:08:23.2     -92   -319    229    333    404 196.1  37.8  34142  289.26 0855.24
2009/04/23 10:08:23.3    -133   -403    151    425    451 198.3  20.4  34136  289.17 0855.24
2009/04/23 10:08:23.4    -126   -415    123    435    453 197.0  15.8  34132  289.11 0855.24
2009/04/23 10:08:23.5    -137   -319     90    348    360 203.3  14.5  34138  289.20 0855.19
2009/04/23 10:08:23.6    -102   -429     22    441    442 193.4   2.9  34148  289.38 0855.19
2009/04/23 10:08:23.7     -80   -394     -2    402    403 191.5  -0.4  34148  289.38 0855.19
2009/04/23 10:08:23.8     -79   -441     -7    449    450 190.2  -0.9  34158  289.53 0855.19
2009/04/23 10:08:23.9    -101   -438     29    450    451 193.0   3.8  34152  289.44 0855.19
2009/04/23 10:08:24.0     -79   -505     52    512    515 188.9   5.9  34136  289.18 0855.19
2009/04/23 10:08:24.1     -32   -439     85    441    450 184.2  11.0  34160  289.56 0855.19
2009/04/23 10:08:24.2     -57   -571     32    574    575 185.8   3.2  34150  289.41 0855.19
2009/04/23 10:08:24.3     -17   -562    -67    563    567 181.8  -6.8  34148  289.36 0855.19
2009/04/23 10:08:24.4     -19   -584    -38    585    587 181.9  -3.8  34138  289.20 0855.19
2009/04/23 10:08:24.5       0   -525    -46    526    529 180.0  -5.1  34140  289.23 0855.19
2009/04/23 10:08:24.6      74   -631    -33    636    637 173.3  -3.0  34136  289.18 0855.19
2009/04/23 10:08:24.7     245   -634    124    680    692 158.8  10.3  34126  288.99 0855.19
2009/04/23 10:08:24.8     282   -593     40    657    659 154.5   3.5  34128  289.02 0855.19
2009/04/23 10:08:24.9     178   -530    110    560    571 161.4  11.1  34118  288.85 0855.19
2009/04/23 10:08:25.0     288   -493    119    572    585 149.7  11.8  34116  288.83 0855.19
2009/04/23 10:08:25.1     357   -388     14    528    529 137.3   1.6  34124  288.96 0855.19
2009/04/23 10:08:25.2     236   -371    130    441    460 147.5  16.5  34104  288.63 0855.19
2009/04/23 10:08:25.3     118   -388    177    406    442 163.0  25.1  34112  288.75 0855.19
2009/04/23 10:08:25.4      69   -413    162    419    449 170.4  22.2  34114  288.80 0855.19
2009/04/23 10:08:25.5      49   -380    160    384    416 172.6  23.9  34114  288.80 0855.19
2009/04/23 10:08:25.6       6   -359     49    360    364 178.9   7.8  34118  288.86 0855.19
2009/04/23 10:08:25.7      32   -300    -11    302    303 173.8  -2.2  34120  288.90 0855.19
2009/04/23 10:08:25.8     101   -338    -13    353    354 163.3  -2.2  34120  288.89 0855.19
2009/04/23 10:08:25.9      -8   -504      4    505    506 181.0   0.5  34130  289.06 0855.19
2009/04/23 10:08:26.0       9   -560     -8    561    562 179.0  -0.9  34132  289.11 0855.19
2009/04/23 10:08:26.1     -26   -430    -46    431    434 183.5  -6.2  34134  289.12 0855.19
2009/04/23 10:08:26.2    -187   -501    -74    535    541 200.5  -7.9  34128  289.04 0855.19
2009/04/23 10:08:26.3    -258   -488   -175    553    581 207.9 -17.6  34128  289.02 0855.19
2009/04/23 10:08:26.4    -236   -477   -150    533    554 206.3 -15.8  34122  288.92 0855.19
2009/04/23 10:08:26.5    -114   -437   -131    452    470 194.7 -20.9  34116  288.81 0855.19
2009/04/23 10:08:26.6     -79   -392   -144    400    425 191.5 -25.0  34116  288.82 0855.19
2009/04/23 10:08:26.7    -104   -427   -125    440    458 193.7 -15.9  34118  288.87 0855.19
2009/04/23 10:08:26.8    -150   -330   -162    363    397 204.4 -30.1  34128  289.03 0855.19
2009/04/23 10:08:26.9    -275   -287   -119    398    416 223.8 -16.7  34142  289.27 0855.19
2009/04/23 10:08:27.0    -156   -280    -98    321    336 209.2 -17.0  34136  289.15 0855.19
2009/04/23 10:08:27.1    -153   -322   -101    357    371 205.5 -20.4  34126  288.98 0855.19
2009/04/23 10:08:27.2     -19   -354   -128    355    377 183.2 -25.0  34120  288.88 0855.19
2009/04/23 10:08:27.3      49   -284    -97    289    306 170.2 -18.6  34130  289.07 0855.19
2009/04/23 10:08:27.4      71   -201    -53    214    221 160.6 -13.9  34126  289.01 0855.19
2009/04/23 10:08:27.5      68   -115    -12    134    135 149.2  -5.2  34134  289.14 0855.19
2009/04/23 10:08:27.6     158   -143    -72    214    225 132.0 -23.3  34134  289.13 0855.19
2009/04/23 10:08:27.7     166   -103    -10    196    197 122.0  -3.2  34134  289.13 0855.19
2009/04/23 10:08:27.8      70    -75     76    103    128 136.8  40.1  34132  289.11 0855.19
2009/04/23 10:08:27.9      86   -134    -46    160    166 147.4 -21.0  34134  289.13 0855.19
2009/04/23 10:08:28.0      97   -212     28    234    236 155.5   6.9  34132  289.09 0855.19
2009/04/23 10:08:28.1     109   -205     12    233    234 152.1   3.1  34132  289.10 0855.19
2009/04/23 10:08:28.2      79   -190     79    207    221 157.3  22.0  34134  289.13 0855.19
2009/04/23 10:08:28.3     137   -150    131    204    242 137.7  35.6  34132  289.11 0855.19
2009/04/23 10:08:28.4      28   -262    156    264    306 173.8  33.5  34122  288.93 0855.19
2009/04/23 10:08:28.5    -115   -585    109    597    607 191.1  10.4  34122  288.93 0855.18
2009/04/23 10:08:28.6     -25   -390      2    391    392 183.7   0.4  34126  288.99 0855.18
2009/04/23 10:08:28.7     -45   -370    -93    373    385 187.0 -14.1  34122  288.93 0855.18
2009/04/23 10:08:28.8     202   -323     20    382    383 148.0   3.1  34126  288.99 0855.18
2009/04/23 10:08:28.9     204   -461     99    505    515 156.2  11.1  34120  288.91 0855.18
2009/04/23 10:08:29.0     135   -497     44    516    519 164.8   5.0  34116  288.83 0855.18
2009/04/23 10:08:29.1     207   -544    113    583    594 159.2  11.0  34124  288.95 0855.18
2009/04/23 10:08:29.2     211   -595    181    632    658 160.5  16.0  34120  288.89 0855.18
2009/04/23 10:08:29.3     235   -497    195    550    584 154.7  19.5  34124  288.95 0855.18
2009/04/23 10:08:29.4     241   -443     98    505    515 151.4  11.0  34120  288.91 0855.18
2009/04/23 10:08:29.5     176   -382     89    421    431 155.2  12.0  34122  288.94 0855.18
2009/04/23 10:08:29.6     113   -370     71    388    395 163.0  10.4  34120  288.91 0855.18
2009/04/23 10:08:29.7      97   -355    243    369    441 164.7  36.5  34120  288.90 0855.18
2009/04/23 10:08:29.8     -12   -289     45    290    294 182.5   8.9  34122  288.93 0855.18
2009/04/23 10:08:29.9    -136   -222    -43    261    265 211.6  -9.4  34124  288.95 0855.18
2009/04/23 10:08:30.0      69   -149    -60    165    175 155.1 -24.6  34126  289.01 0855.18
2009/04/23 10:08:30.1      92   -166    -54    190    197 151.0 -20.7  34128  289.02 0855.18
2009/04/23 10:08:30.2     203   -185     33    275    278 132.4   6.9  34126  289.00 0855.18
2009/04/23 10:08:30.3     173   -217    -51    278    283 141.5 -10.5  34130  289.05 0855.18
2009/04/23 10:08:30.4     233   -219     -7    321    322 133.2  -1.4  34130  289.05 0855.18
2009/04/23 10:08:30.5     275   -257     -9    377    378 133.1  -1.4  34130  289.08 0855.18
2009/04/23 10:08:30.6     268   -251    -55    368    373 133.1  -8.6  34128  289.04 0855.18
2009/04/23 10:08:30.7     164   -211    -77    268    278 142.1 -20.8  34130  289.07 0855.18
2009/04/23 10:08:30.8      71   -211    -66    223    233 161.3 -16.6  34130  289.06 0855.18
2009/04/23 10:08:30.9      32   -257    -58    260    267 172.9 -12.6  34130  289.07 0855.18
2009/04/23 10:08:31.0      78   -215    -80    230    243 159.9 -24.3  34130  289.05 0855.18
2009/04/23 10:08:31.1      92   -260     14    277    278 160.4   2.9  34130  289.07 0855.18
2009/04/23 10:08:31.2     149   -225     84    271    284 146.4  17.3  34132  289.10 0855.18
2009/04/23 10:08:31.3     163   -158     19    228    229 134.0   4.9  34132  289.09 0855.18
2009/04/23 10:08:31.4     118   -130    -74    176    190 137.7 -28.5  34132  289.11 0855.18
2009/04/23 10:08:31.5      94   -166    -55    191    198 150.4 -21.0  34130  289.08 0855.18
2009/04/23 10:08:31.6     115   -115    -58    164    173 135.0 -24.4  34134  289.13 0855.18
2009/04/23 10:08:31.7     126   -167    -58    210    217 143.0 -20.0  34128  289.02 0855.18
2009/04/23 10:08:31.8      90   -162    -76    186    200 150.8 -27.8  34132  289.11 0855.18
2009/04/23 10:08:31.9      95   -162    -65    189    200 149.5 -19.1  34130  289.06 0855.18
2009/04/23 10:08:32.0      35    -94    -66    101    120 159.5 -40.4  34130  289.06 0855.18
2009/04/23 10:08:32.1     -23    -77    -34     81     87 196.9 -28.0  34130  289.06 0855.18
2009/04/23 10:08:32.2      72   -157     55    173    182 155.3  17.7  34130  289.08 0855.18
2009/04/23 10:08:32.3     213   -148    140    260    295 124.9  30.8  34130  289.07 0855.18
2009/04/23 10:08:32.4     336   -291    112    445    459 130.9  14.2  34136  289.17 0855.18
2009/04/23 10:08:32.5     213   -352     33    412    414 148.8   4.6  34116  288.83 0855.19
2009/04/23 10:08:32.6     292   -331     -8    442    443 138.6  -1.2  34134  289.14 0855.19
2009/04/23 10:08:32.7     281   -282    -42    399    402 135.1  -6.1  34136  289.16 0855.19
2009/04/23 10:08:32.8     243   -243   -122    345    367 135.0 -19.6  34134  289.13 0855.19
2009/04/23 10:08:32.9     273   -357    -90    450    459 142.6 -11.3  34132  289.09 0855.19
2009/04/23 10:08:33.0     216   -442     11    493    494 153.9   1.4  34120  288.91 0855.19
2009/04/23 10:08:33.1     122   -367    163    388    420 161.5  24.2  34124  288.97 0855.19
2009/04/23 10:08:33.2     122   -399    114    418    434 163.0  15.3  34124  288.97 0855.19
2009/04/23 10:08:33.3     166   -330      7    370    371 153.3   1.1  34132  289.10 0855.19
2009/04/23 10:08:33.4     156   -385     37    416    418 157.9   5.1  34126  289.00 0855.19
2009/04/23 10:08:33.5     120   -395     73    413    420 163.1  10.1  34126  288.99 0855.19
2009/04/23 10:08:33.6     237   -374     51    444    447 147.6   6.6  34126  289.00 0855.19
2009/04/23 10:08:33.7      17   -270    165    271    317 176.4  34.2  34114  288.80 0855.19
2009/04/23 10:08:33.8    -141   -354    133    382    405 201.8  19.3  34130  289.06 0855.19
2009/04/23 10:08:33.9      58   -389    -78    394    402 171.4 -11.3  34132  289.11 0855.19
2009/04/23 10:08:34.0     -21   -330    -96    331    344 183.8 -21.0  34124  288.96 0855.19
2009/04/23 10:08:34.1     -57   -277    -73    283    293 191.8 -14.5  34126  289.00 0855.19
2009/04/23 10:08:34.2      61   -404    -37    409    411 171.4  -5.2  34126  289.00 0855.19
2009/04/23 10:08:34.3    -128   -546    -72    561    566 193.3  -7.3  34120  288.91 0855.19
2009/04/23 10:08:34.4    -133   -542    -49    559    562 193.8  -5.1  34128  289.02 0855.19
2009/04/23 10:08:34.5     -37   -521    -80    523    530 184.1  -8.7  34124  288.96 0855.21
2009/04/23 10:08:34.6     -21   -486   -131    487    505 182.5 -15.1  34126  289.01 0855.21
2009/04/23 10:08:34.7     -58   -420   -101    424    436 187.9 -13.4  34128  289.04 0855.21
2009/04/23 10:08:34.8     -48   -441    -65    444    449 186.2  -8.4  34124  288.95 0855.21
2009/04/23 10:08:34.9     -32   -394   -106    396    410 184.7 -15.1  34128  289.02 0855.21
2009/04/23 10:08:35.0     -10   -366   -116    367    385 181.6 -17.6  34122  288.94 0855.21
2009/04/23 10:08:35.1     -28   -359    -78    361    370 184.6 -12.3  34122  288.93 0855.21
2009/04/23 10:08:35.2       0   -337    -86    338    349 180.0 -14.3  34126  288.99 0855.21
2009/04/23 10:08:35.3     -36   -301    -82    304    316 186.9 -15.2  34126  288.98 0855.21
2009/04/23 10:08:35.4     -50   -293    -59    298    304 189.7 -11.3  34126  289.00 0855.21
2009/04/23 10:08:35.5       8   -284    -15    285    286 178.2  -3.1  34130  289.05 0855.21
2009/04/23 10:08:35.6      70   -295    -47    304    308 166.6  -8.8  34124  288.95 0855.21
2009/04/23 10:08:35.7     122   -299    -91    324    336 157.7 -20.2  34126  289.01 0855.21
2009/04/23 10:08:35.8     120   -284    -88    309    321 157.1 -20.5  34126  289.00 0855.21
2009/04/23 10:08:35.9     144   -285    -69    320    328 153.2 -12.3  34128  289.02 0855.21
2009/04/23 10:08:36.0     127   -295    -14    322    323 156.6  -2.5  34128  289.03 0855.21
2009/04/23 10:08:36.1     110   -284     11    305    306 158.8   2.1  34128  289.03 0855.21
2009/04/23 10:08:36.2     191   -251     20    316    317 142.6   3.6  34128  289.02 0855.21
2009/04/23 10:08:36.3     133   -217     93    255    271 148.4  20.9  34122  288.93 0855.21
2009/04/23 10:08:36.4     281   -172    161    330    367 121.5  27.9  34126  288.98 0855.21
2009/04/23 10:08:36.5     190   -202    127    278    305 136.7  26.2  34128  289.02 0855.21
2009/04/23 10:08:36.6     207   -118    170    239    293 119.8  39.1  34128  289.02 0855.21
2009/04/23 10:08:36.7     238   -168    192    292    349 125.3  36.3  34130  289.06 0855.21
2009/04/23 10:08:36.8     114   -284    131    307    333 158.1  24.6  34128  289.02 0855.21
2009/04/23 10:08:36.9      94   -258    148    275    312 160.0  30.7  34128  289.03 0855.21
2009/04/23 10:08:37.0      38   -198    131    202    240 169.1  36.0  34128  289.04 0855.21
2009/04/23 10:08:37.1      16   -198    138    199    242 175.3  38.0  34130  289.08 0855.21
2009/04/23 10:08:37.2      29   -202    135    205    245 171.8  36.5  34132  289.10 0855.21
2009/04/23 10:08:37.3      11   -130    138    131    190 175.1  51.6  34132  289.09 0855.21
2009/04/23 10:08:37.4      20   -209    184    211    279 174.4  45.8  34132  289.10 0855.21
2009/04/23 10:08:37.5      22   -269    163    271    316 175.1  33.8  34134  289.12 0855.21
2009/04/23 10:08:37.6      22   -109    123    112    166 168.4  53.0  34132  289.11 0855.21
2009/04/23 10:08:37.7     -31   -109    146    114    185 196.0  58.2  34132  289.11 0855.21
2009/04/23 10:08:37.8       0    -58     89     59    106 180.0  63.6  34142  289.28 0855.21
2009/04/23 10:08:37.9      13    -35     59     38     70 160.0  64.6  34140  289.23 0855.21
2009/04/23 10:08:38.0       7    -64     71     65     96 173.8  52.2  34142  289.28 0855.21
2009/04/23 10:08:38.1     -47      8     42     48     63 279.7  46.9  34150  289.41 0855.21
2009/04/23 10:08:38.2     -61     26     13     67     69 293.5  11.0  34144  289.30 0855.21
2009/04/23 10:08:38.3     -25     22     61     34     69 311.3  68.8  34142  289.26 0855.21
2009/04/23 10:08:38.4     -58    -15     57     61     83 255.0  48.5  34148  289.38 0855.21
2009/04/23 10:08:38.5     -30    -79     82     85    118 200.9  49.0  34134  289.14 0855.22
2009/04/23 10:08:38.6    -104   -190     27    217    219 208.9   7.1  34128  289.04 0855.22
2009/04/23 10:08:38.7     -50   -201     10    208    209 194.0   2.9  34126  289.01 0855.22
2009/04/23 10:08:38.8     -18    -77     68     80    104 193.4  44.8  34130  289.08 0855.22
2009/04/23 10:08:38.9       3    -47    130     48    138 175.5  79.1  34154  289.46 0855.22
2009/04/23 10:08:39.0      11      3     84     12     84  71.6  90.0  34158  289.55 0855.22
2009/04/23 10:08:39.1      22    -33    101     40    108 146.6  77.1  34146  289.35 0855.22
2009/04/23 10:08:39.2      -3    -31     97     32    102 186.2  80.7  34146  289.35 0855.22
2009/04/23 10:08:39.3      -8    -80    113     81    139 186.2  60.6  34142  289.28 0855.22
2009/04/23 10:08:39.4      -9   -128    157    129    203 184.4  56.4  34138  289.19 0855.22
2009/04/23 10:08:39.5      -6   -145    136    146    199 182.6  48.0  34136  289.18 0855.22
2009/04/23 10:08:39.6     -24   -172    110    174    205 188.0  35.5  34132  289.09 0855.22
2009/04/23 10:08:39.7     -32   -166     90    170    192 191.1  30.3  34134  289.13 0855.22
2009/04/23 10:08:39.8      11    -33    106     35    111 161.5  80.7  34142  289.28 0855.22
2009/04/23 10:08:39.9     119      9    149    120    191  85.7  56.6  34142  289.26 0855.22
2009/04/23 10:08:40.0     138     49    148    147    208  70.5  50.1  34146  289.35 0855.22
2009/04/23 10:08:40.1     138     65    157    153    219  64.8  50.7  34148  289.36 0855.22
2009/04/23 10:08:40.2     153     56    132    164    210  69.8  43.3  34144  289.30 0855.22
2009/04/23 10:08:40.3      66     59    132     89    159  48.2  62.8  34146  289.35 0855.22
2009/04/23 10:08:40.4     -60    125    114    139    179 334.1  43.7  34146  289.33 0855.22
2009/04/23 10:08:40.5     -36     53     56     65     85 325.7  45.4  34146  289.35 0855.22
2009/04/23 10:08:40.6      16     75     57     77     95  12.5  40.1  34144  289.31 0855.22
2009/04/23 10:08:40.7     -56    104     61    119    133 331.5  29.3  34138  289.21 0855.22
2009/04/23 10:08:40.8     -72     61     75     95    121 310.0  42.2  34140  289.24 0855.22
2009/04/23 10:08:40.9    -102    -33     67    108    127 251.8  35.5  34136  289.16 0855.22
2009/04/23 10:08:41.0    -120   -112    112    165    199 226.9  37.6  34138  289.21 0855.22
2009/04/23 10:08:41.1     -94   -113     94    148    175 219.7  35.5  34134  289.13 0855.22
2009/04/23 10:08:41.2    -129   -109     82    170    188 229.8  27.3  34136  289.16 0855.22
2009/04/23 10:08:41.3     -14    -99     13    101    102 188.1   7.5  34140  289.23 0855.22
2009/04/23 10:08:41.4      -3   -117     75    118    139 181.8  35.5  34138  289.19 0855.22
2009/04/23 10:08:41.5      -2    -94    129     95    160 181.8  60.0  34142  289.26 0855.22
2009/04/23 10:08:41.6      75    -35     96     83    126 115.3  54.3  34138  289.21 0855.22
2009/04/23 10:08:41.7      39    -67    126     78    148 149.3  64.7  34142  289.26 0855.22
2009/04/23 10:08:41.8      54    -55     58     78     97 135.8  40.7  34140  289.24 0855.22
2009/04/23 10:08:41.9     -30    -84    149     90    174 199.6  66.0  34140  289.23 0855.22
2009/04/23 10:08:42.0     -64   -130    151    146    210 206.3  50.7  34134  289.14 0855.22
2009/04/23 10:08:42.1     -62   -146    116    159    196 203.2  39.7  34134  289.13 0855.22
2009/04/23 10:08:42.2     -55   -156    137    166    215 199.4  43.7  34132  289.11 0855.22
2009/04/23 10:08:42.3       7   -159    137    160    210 177.3  44.8  34138  289.21 0855.22
2009/04/23 10:08:42.4     -61   -182    152    193    245 198.7  42.4  34136  289.16 0855.22
2009/04/23 10:08:42.5     -83   -207    190    224    293 201.9  44.8  34134  289.12 0855.23
2009/04/23 10:08:42.6     -72   -224    221    236    323 197.8  47.9  34136  289.15 0855.23
2009/04/23 10:08:42.7     -97   -205    168    228    283 205.4  40.1  34132  289.10 0855.23
2009/04/23 10:08:42.8    -103   -196    175    222    282 207.9  42.0  34134  289.14 0855.23
2009/04/23 10:08:42.9     -59   -177    134    187    230 198.5  39.5  34136  289.16 0855.23
2009/04/23 10:08:43.0      -3   -180    198    181    268 181.0  52.7  34140  289.24 0855.23
2009/04/23 10:08:43.1     -14   -119    141    120    185 187.1  55.4  34136  289.18 0855.23
2009/04/23 10:08:43.2       0   -124    156    125    199 180.4  57.5  34138  289.21 0855.23
2009/04/23 10:08:43.3     -78   -141    191    162    250 208.9  55.4  34140  289.23 0855.23
2009/04/23 10:08:43.4      -3    -90    108     91    141 182.2  55.8  34146  289.35 0855.23
2009/04/23 10:08:43.5       8   -175    148    176    229 177.3  44.1  34138  289.19 0855.23
2009/04/23 10:08:43.6     -12   -203    171    204    266 183.4  44.1  34140  289.22 0855.23
2009/04/23 10:08:43.7     -38   -243    164    247    296 188.9  36.5  34134  289.12 0855.23
2009/04/23 10:08:43.8     -23   -215    179    217    281 186.3  43.8  34136  289.15 0855.23
2009/04/23 10:08:43.9     -85   -253    206    268    338 198.7  41.4  34134  289.14 0855.23
2009/04/23 10:08:44.1     -66   -281    195    289    348 193.3  37.2  34136  289.15 0855.23
2009/04/23 10:08:44.2    -145   -138     98    201    223 226.4  27.8  34152  289.43 0855.23
2009/04/23 10:08:44.3     -85    -98    199    131    238 221.0  63.6  34192  290.11 0855.23
2009/04/23 10:08:44.4    -131   -115    157    175    235 228.7  46.6  34168  289.70 0855.23
2009/04/23 10:08:44.5    -110   -161    128    196    234 214.3  35.7  34132  289.11 0855.23
2009/04/23 10:08:44.6    -118   -126    139    173    221 223.2  43.3  34138  289.19 0855.22
2009/04/23 10:08:44.7     -36   -157    177    162    239 192.9  53.0  34136  289.16 0855.22
2009/04/23 10:08:44.8     -97   -147    131    177    220 213.6  40.1  34132  289.11 0855.22
2009/04/23 10:08:44.9    -150   -180    117    235    262 219.7  28.5  34136  289.17 0855.22
2009/04/23 10:08:45.0    -128   -219    204    254    325 210.3  43.1  34136  289.15 0855.22
2009/04/23 10:08:45.1    -169   -235    116    290    312 215.8  22.9  34136  289.17 0855.22
2009/04/23 10:08:45.2    -158   -208    129    262    292 217.2  28.2  34132  289.10 0855.22
2009/04/23 10:08:45.3    -144   -154    179    212    277 223.0  44.8  34142  289.27 0855.22
2009/04/23 10:08:45.4     -99   -134    170    167    238 216.5  50.4  34142  289.26 0855.22
2009/04/23 10:08:45.5    -118    -43     99    126    160 250.0  42.2  34146  289.33 0855.22
2009/04/23 10:08:45.6      28     19    117     34    121  55.8  83.3  34156  289.50 0855.22
2009/04/23 10:08:45.7     -40    -64    147     76    165 212.6  70.6  34166  289.67 0855.22
2009/04/23 10:08:45.8     -16    -49    146     52    154 198.3  80.7  34166  289.69 0855.22
2009/04/23 10:08:45.9       0    -26    106     27    109 180.9  85.4  34186  290.01 0855.22
2009/04/23 10:08:46.0      98     26     61    102    118  75.0  33.5  34226  290.69 0855.22
2009/04/23 10:08:46.1       0    -35     49     36     60 180.9  60.5  34216  290.53 0855.22
2009/04/23 10:08:46.2      43     44    -19     62     64  44.1 -22.8  34206  290.35 0855.22
2009/04/23 10:08:46.3      93     72    -51    118    128  52.2 -29.5  34222  290.62 0855.22
2009/04/23 10:08:46.4      76     97    -43    124    131  38.3 -23.3  34218  290.57 0855.22
2009/04/23 10:08:46.5      72     59    -21     94     97  50.5 -12.9  34232  290.81 0855.22
2009/04/23 10:08:46.6       9     12     17     16     23  36.1  50.1  34228  290.74 0855.22
2009/04/23 10:08:46.7     -13     13     35     19     39 315.0  68.8  34224  290.65 0855.22
2009/04/23 10:08:46.8     -57     -3     25     58     63 266.5  24.1  34198  290.21 0855.22
2009/04/23 10:08:46.9    -146    -20     40    148    154 262.1  15.3  34174  289.80 0855.22
2009/04/23 10:08:47.0    -154    -70     11    170    171 245.4   3.8  34174  289.80 0855.22
2009/04/23 10:08:47.1    -161     -2     55    162    172 269.2  18.9  34176  289.85 0855.22
2009/04/23 10:08:47.2    -183    -54     76    192    206 253.4  23.0  34178  289.87 0855.22
2009/04/23 10:08:47.3    -169    -46     29    176    179 254.7   9.5  34176  289.84 0855.22
2009/04/23 10:08:47.4    -134     10     15    135    136 274.3   6.5  34192  290.13 0855.22
2009/04/23 10:08:47.5    -173     -3     57    174    184 269.0  18.1  34184  289.97 0855.22
2009/04/23 10:08:47.6    -184      0     39    185    190 270.1  12.0  34246  291.03 0855.22
2009/04/23 10:08:47.7    -163     55     60    173    184 288.8  19.2  34248  291.06 0855.22
2009/04/23 10:08:47.8    -141     51     35    150    155 290.0  13.2  34246  291.03 0855.22
2009/04/23 10:08:47.9    -167     55     59    177    187 288.4  18.4  34228  290.74 0855.22
2009/04/23 10:08:48.0    -150     58     28    161    164 291.3   9.9  34216  290.53 0855.22
2009/04/23 10:08:48.1    -144     66     39    159    164 294.8  13.9  34214  290.48 0855.22
2009/04/23 10:08:48.2    -134     24     37    137    143 280.1  15.3  34214  290.48 0855.22
2009/04/23 10:08:48.3    -108      0     13    109    110 270.4   7.1  34220  290.60 0855.22
2009/04/23 10:08:48.4     -38     36     22     53     57 313.1  23.0  34226  290.70 0855.22
2009/04/23 10:08:48.5     -32     55     43     64     77 329.3  35.6  34234  290.82 0855.22
2009/04/23 10:08:48.6      41     13     69     44     81  72.3  64.7  34238  290.91 0855.22
2009/04/23 10:08:48.7     142     43     52    149    158  73.2  19.4  34244  291.01 0855.22
2009/04/23 10:08:48.8      83     45     28     95    100  61.1  16.8  34230  290.75 0855.22
2009/04/23 10:08:48.9      97     44     12    107    108  65.2   6.5  34236  290.87 0855.22
2009/04/23 10:08:49.0      73     30     58     80     98  67.4  39.7  34270  291.45 0855.22
2009/04/23 10:08:49.1      52      2     17     53     56  87.4  18.4  34262  291.32 0855.22
2009/04/23 10:08:49.2      13     -1     28     14     31  97.9  72.8  34268  291.40 0855.22
2009/04/23 10:08:49.3       0    -34     12     35     38 180.9  18.9  34262  291.30 0855.22
2009/04/23 10:08:49.4      -1    -10     -2     11     12 188.0 -11.3  34264  291.35 0855.22
2009/04/23 10:08:49.5     -11     16      7     20     22 325.7  19.2  34268  291.40 0855.22
2009/04/23 10:08:49.6     -25     44     13     51     53 330.1  15.3  34256  291.21 0855.23
2009/04/23 10:08:49.7     -18     45    -23     49     54 337.3 -31.5  34240  290.92 0855.23
2009/04/23 10:08:49.8     -90     37    -18     98    100 292.6 -10.9  34226  290.70 0855.23
2009/04/23 10:08:49.9     -16     38     -4     42     43 336.4  -6.2  34224  290.67 0855.23
2009/04/23 10:08:50.0      60     20    -17     64     67  71.4 -15.5  34212  290.47 0855.23
2009/04/23 10:08:50.1     225      4     -4    226    227  88.7  -1.3  34214  290.50 0855.23
2009/04/23 10:08:50.2     163     14     90    164    187  84.8  31.4  34228  290.74 0855.23
2009/04/23 10:08:50.3     251     47     21    256    258  79.4   4.9  34216  290.53 0855.23
2009/04/23 10:08:50.4     239     86     47    255    260  70.1  10.6  34242  290.97 0855.23
2009/04/23 10:08:50.5     196     94     27    218    220  64.2   7.1  34248  291.08 0855.23
2009/04/23 10:08:50.6     242    138     28    279    281  60.3   5.9  34226  290.70 0855.23
2009/04/23 10:08:50.7     271    127     19    300    301  64.8   3.8  34238  290.88 0855.23
2009/04/23 10:08:50.8     146    104     74    180    194  54.5  23.6  34246  291.03 0855.23
2009/04/23 10:08:50.9     106    130     14    169    170  39.2   4.9  34242  290.98 0855.23
2009/04/23 10:08:51.0     291    154     30    330    332  62.1   5.3  34240  290.94 0855.23
2009/04/23 10:08:51.1     231    137    -10    269    270  59.4  -2.2  34248  291.07 0855.23
2009/04/23 10:08:51.2     194    123     27    230    232  57.6   6.7  34272  291.49 0855.23
2009/04/23 10:08:51.3     308    132    -51    336    340  66.8  -8.7  34218  290.54 0855.23
2009/04/23 10:08:51.4     272    155      8    314    315  60.2   1.5  34220  290.58 0855.23
2009/04/23 10:08:51.5     303    127      6    329    330  67.2   1.1  34214  290.50 0855.23
2009/04/23 10:08:51.6     377    136     12    402    403  70.1   1.8  34194  290.16 0855.23
2009/04/23 10:08:51.7     399    100     35    412    414  75.9   4.9  34206  290.34 0855.23
2009/04/23 10:08:51.8     376    151     78    406    414  68.1  11.0  34212  290.46 0855.23
2009/04/23 10:08:51.9     391    157     90    422    432  68.0  12.2  34174  289.80 0855.23
2009/04/23 10:08:52.0     363    123     78    384    393  71.3  11.6  34186  290.01 0855.23
2009/04/23 10:08:52.1     209    172     95    271    287  50.5  20.0  34224  290.65 0855.23
2009/04/23 10:08:52.2     216     94     60    236    244  66.4  14.3  34206  290.34 0855.23
2009/04/23 10:08:52.3     192    -27     45    194    200  98.0  13.2  34176  289.85 0855.23
2009/04/23 10:08:52.4     223   -115     63    252    260 117.3  14.2  34166  289.66 0855.23
2009/04/23 10:08:52.5     133   -132     66    188    199 134.8  20.2  34174  289.82 0855.23
2009/04/23 10:08:52.6     126   -122     48    176    183 134.2  15.3  34174  289.80 0855.23
2009/04/23 10:08:52.7     134   -112     21    175    177 130.0   6.9  34172  289.79 0855.23
2009/04/23 10:08:52.8     120   -116      8    167    168 134.0   2.9  34174  289.82 0855.23
2009/04/23 10:08:52.9     126   -169     -5    212    213 143.3  -1.6  34178  289.87 0855.23
2009/04/23 10:08:53.0     138   -163     -2    214    215 139.7  -0.7  34182  289.94 0855.23
2009/04/23 10:08:53.1     135   -151    -13    203    204 138.1  -3.7  34188  290.06 0855.23
2009/04/23 10:08:53.2     113   -143     -2    183    184 141.5  -0.7  34182  289.96 0855.23
2009/04/23 10:08:53.3      44   -182      8    188    189 166.2   2.5  34188  290.06 0855.23
2009/04/23 10:08:53.4      62   -203     10    213    214 163.1   2.9  34188  290.06 0855.23
2009/04/23 10:08:53.5     121   -183      6    220    221 146.4   1.8  34200  290.25 0855.23
2009/04/23 10:08:53.6     181   -205     -6    274    275 138.6  -1.3  34180  289.92 0855.22
2009/04/23 10:08:53.7     171   -243     70    298    307 144.8  13.2  34192  290.10 0855.22
2009/04/23 10:08:53.8     130   -216    114    253    277 149.0  25.7  34196  290.19 0855.22
2009/04/23 10:08:53.9     147   -220    175    265    317 146.2  36.6  34172  289.76 0855.22
2009/04/23 10:08:54.0     135   -212    224    252    337 147.5  46.4  34164  289.64 0855.22
2009/04/23 10:08:54.1     135   -190    167    234    287 144.6  39.1  34162  289.61 0855.22
2009/04/23 10:08:54.2     124   -167    157    209    261 143.3  40.6  34168  289.70 0855.22
2009/04/23 10:08:54.3      68   -254    198    264    330 164.9  40.7  34172  289.76 0855.22
2009/04/23 10:08:54.4       6   -246    205    247    320 178.4  44.1  34172  289.78 0855.22
2009/04/23 10:08:54.5      17   -220    183    221    286 175.5  43.8  34172  289.76 0855.22
2009/04/23 10:08:54.6      35   -281    157    284    324 172.9  31.3  34164  289.64 0855.22
2009/04/23 10:08:54.7      10   -305    149    306    340 178.0  27.8  34162  289.60 0855.22
2009/04/23 10:08:54.8      13   -341    146    342    371 177.7  24.6  34174  289.82 0855.22
2009/04/23 10:08:54.9      11   -361    153    362    393 178.1  24.2  34188  290.06 0855.22
2009/04/23 10:08:55.0      70   -390    178    397    435 169.8  25.7  34168  289.72 0855.22
2009/04/23 10:08:55.1     105   -331    201    348    401 162.4  32.6  34152  289.45 0855.22
2009/04/23 10:08:55.2      50   -359    143    363    390 172.0  22.7  34184  289.99 0855.22
2009/04/23 10:08:55.3      19   -300    171    301    346 176.4  32.1  34172  289.77 0855.22
2009/04/23 10:08:55.4      -9   -335    156    336    370 181.6  26.9  34148  289.38 0855.22
2009/04/23 10:08:55.5     -35   -347    148    349    379 185.8  24.3  34158  289.55 0855.22
2009/04/23 10:08:55.6     -35   -283     89    286    300 187.1  17.3  34216  290.51 0855.23
2009/04/23 10:08:55.7     -26   -305     26    307    309 184.9   4.9  34204  290.32 0855.23
2009/04/23 10:08:55.8     172   -342     99    383    396 153.3  14.6  34174  289.82 0855.23
2009/04/23 10:08:55.9      97   -317     17    332    333 163.0   3.0  34178  289.89 0855.23
2009/04/23 10:08:56.0      64   -347     55    353    358 169.5   8.9  34172  289.79 0855.23
2009/04/23 10:08:56.1      95   -311    100    326    342 163.0  17.1  34170  289.74 0855.23
2009/04/23 10:08:56.2      57   -282    119    288    311 168.4  23.6  34174  289.81 0855.23
2009/04/23 10:08:56.3      61   -280    156    287    326 167.6  30.8  34172  289.76 0855.23
2009/04/23 10:08:56.4     -19   -291    106    292    310 183.8  20.9  34186  290.00 0855.23
2009/04/23 10:08:56.5      26   -280    123    282    307 174.6  25.1  34172  289.78 0855.23
2009/04/23 10:08:56.6       3   -303    125    304    328 179.3  23.6  34160  289.58 0855.23
2009/04/23 10:08:56.7     106   -370     89    385    396 164.0  13.1  34142  289.25 0855.23
2009/04/23 10:08:56.8       5   -300    109    301    321 179.0  19.9  34154  289.46 0855.23
2009/04/23 10:08:56.9     -23   -250    150    252    293 185.3  33.5  34152  289.42 0855.23
2009/04/23 10:08:57.0      16   -209    180    210    276 175.5  45.1  34154  289.46 0855.23
2009/04/23 10:08:57.1      44   -255    164    259    306 170.0  35.5  34140  289.22 0855.23
2009/04/23 10:08:57.2     151   -254    222    296    370 149.2  40.7  34138  289.20 0855.23
2009/04/23 10:08:57.3     149   -212    174    260    312 144.8  37.0  34138  289.19 0855.23
2009/04/23 10:08:57.4     259   -178    195    315    370 124.6  35.0  34130  289.08 0855.23
2009/04/23 10:08:57.5     231   -197    178    304    352 130.4  33.1  34136  289.16 0855.23
2009/04/23 10:08:57.6     155   -155    128    220    254 135.0  32.7  34134  289.14 0855.24
2009/04/23 10:08:57.7     158   -133    169    207    267 130.0  43.7  34130  289.07 0855.24
2009/04/23 10:08:57.8      86   -117    163    146    218 143.9  53.5  34128  289.04 0855.24
2009/04/23 10:08:57.9      74      1    110     75    133  89.1  62.7  34130  289.06 0855.24
2009/04/23 10:08:58.0      46    -83    128     96    160 151.0  59.4  34132  289.09 0855.24
2009/04/23 10:08:58.1      35    -34    103     49    114 134.1  72.8  34134  289.13 0855.24
2009/04/23 10:08:58.2      41      1    109     42    116  87.4  78.6  34138  289.21 0855.24
2009/04/23 10:08:58.3      28     50    115     58    128  29.9  71.4  34144  289.31 0855.24
2009/04/23 10:08:58.4     -11     37     84     39     92 343.1  73.5  34150  289.40 0855.24
2009/04/23 10:08:58.5     -15     48     94     51    106 342.2  68.9  34154  289.46 0855.24
2009/04/23 10:08:58.6      83      5     85     84    119  86.1  50.1  34138  289.19 0855.24
2009/04/23 10:08:58.7      24      9    107     26    110  68.3  86.9  34142  289.28 0855.24
2009/04/23 10:08:58.8      39    -54    109     67    127 143.9  65.1  34144  289.31 0855.24
2009/04/23 10:08:58.9     129    -18    108    131    169  97.9  43.7  34140  289.23 0855.24
2009/04/23 10:08:59.0     125    -33     98    130    162 105.1  40.7  34132  289.11 0855.24
2009/04/23 10:08:59.1      97    -70    114    120    165 125.9  48.7  34134  289.14 0855.24
2009/04/23 10:08:59.2      57    -72     60     92    109 141.7  35.6  34132  289.09 0855.24
2009/04/23 10:08:59.3      22   -133     89    135    161 170.3  36.7  34130  289.08 0855.24
2009/04/23 10:08:59.4     127   -127     87    180    199 135.0  27.4  34130  289.06 0855.24
2009/04/23 10:08:59.5     254   -101     53    274    280 111.7  11.1  34128  289.03 0855.24
2009/04/23 10:08:59.6     231    -57     37    238    241 103.9   9.0  34128  289.02 0855.25
2009/04/23 10:08:59.7     170   -116      1    207    208 124.4   0.5  34132  289.09 0855.25
2009/04/23 10:08:59.8     169   -182     68    249    259 137.2  15.3  34130  289.07 0855.25
2009/04/23 10:08:59.9      70   -199     81    212    226 160.6  22.0  34128  289.04 0855.25
2009/04/23 10:09:00.0      64   -149    106    163    194 156.8  35.6  34130  289.08 0855.25
2009/04/23 10:09:00.1     133   -184     80    228    242 144.0  19.4  34128  289.02 0855.25
2009/04/23 10:09:00.2     114   -344    129    363    386 161.6  19.6  34124  288.96 0855.25
2009/04/23 10:09:00.3      44   -245     95    249    266 169.8  22.0  34130  289.07 0855.25
2009/04/23 10:09:00.4      51   -283     41    288    292 169.8   8.2  34132  289.09 0855.25
2009/04/23 10:09:00.5      38   -222    -21    226    228 170.2  -5.4  34132  289.09 0855.25
2009/04/23 10:09:00.6      35   -178    -36    182    186 168.7 -11.3  34136  289.18 0855.25
2009/04/23 10:09:00.7      74   -133    -47    153    160 151.0 -22.3  34132  289.09 0855.25
2009/04/23 10:09:00.8     135   -131     -7    189    190 134.2  -2.2  34134  289.14 0855.25
2009/04/23 10:09:00.9     156   -141      9    211    212 132.0   2.5  34136  289.16 0855.25
2009/04/23 10:09:01.0     182   -161     76    244    256 131.4  17.3  34134  289.14 0855.25
2009/04/23 10:09:01.1     196   -125     82    233    248 122.5  19.4  34136  289.17 0855.25
2009/04/23 10:09:01.2     161    -13     38    162    167  94.8  13.2  34134  289.13 0855.25
2009/04/23 10:09:01.3     119    -28    -47    123    131 103.3 -25.9  34138  289.21 0855.25
2009/04/23 10:09:01.4     153    -21    -44    155    162  98.0 -16.0  34138  289.21 0855.25
2009/04/23 10:09:01.5     198    -71    -63    211    221 110.0 -16.6  34142  289.26 0855.25
2009/04/23 10:09:01.6     150    -94    -39    178    183 122.0 -12.6  34144  289.31 0855.24
2009/04/23 10:09:01.7     115   -111    -20    161    163 134.0  -7.2  34146  289.35 0855.24
2009/04/23 10:09:01.8      36   -136    -23    141    143 164.8  -9.4  34142  289.28 0855.24
2009/04/23 10:09:01.9      48   -178    -10    185    186 164.9  -3.3  34138  289.19 0855.24
2009/04/23 10:09:02.0     -40   -238     -5    242    243 189.7  -1.3  34140  289.22 0855.24
2009/04/23 10:09:02.1      68   -191    130    203    241 160.4  35.6  34122  288.94 0855.24
2009/04/23 10:09:02.2      43   -230     78    235    248 169.3  18.5  34126  289.00 0855.24
2009/04/23 10:09:02.3     -20   -183    -34    185    189 186.5 -10.5  34124  288.97 0855.24
2009/04/23 10:09:02.4      19   -178    -44    180    186 173.8 -13.9  34124  288.97 0855.24
2009/04/23 10:09:02.5     -45   -229    -54    234    241 191.3 -13.2  34130  289.05 0855.24
2009/04/23 10:09:02.6      67   -140    -96    156    183 154.5 -39.4  34128  289.04 0855.24
2009/04/23 10:09:02.7       0   -149    -85    150    172 180.0 -36.8  34134  289.14 0855.24
2009/04/23 10:09:02.8      63   -172   -107    184    212 159.7 -37.5  34138  289.19 0855.24
2009/04/23 10:09:02.9     149   -180   -116    234    261 140.4 -32.6  34140  289.22 0855.24
2009/04/23 10:09:03.0     115   -211    -92    241    257 151.5 -26.4  34140  289.22 0855.24
2009/04/23 10:09:03.1     113   -190    -90    222    239 149.3 -27.8  34136  289.17 0855.24
2009/04/23 10:09:03.2     -28   -224     51    226    232 187.3  12.9  34126  289.01 0855.24
2009/04/23 10:09:03.3      17    -55     78     58     97 162.2  59.4  34136  289.16 0855.24
2009/04/23 10:09:03.4      88     66    150    110    186  53.1  60.3  34144  289.30 0855.24
2009/04/23 10:09:03.5      26     43     78     51     93  30.7  64.1  34144  289.31 0855.24
2009/04/23 10:09:03.6      74    -24    160     78    178 108.4  72.1  34144  289.31 0855.23
2009/04/23 10:09:03.7      84    -85    169    120    207 135.5  61.3  34150  289.40 0855.23
2009/04/23 10:09:03.8      61   -224    156    233    280 164.6  37.0  34138  289.20 0855.23
2009/04/23 10:09:03.9     -31   -222     72    225    237 188.0  17.9  34128  289.04 0855.23
2009/04/23 10:09:04.0      42   -108    142    117    183 158.6  56.4  34142  289.26 0855.23
2009/04/23 10:09:04.1      61   -141    121    154    195 156.4  42.2  34138  289.19 0855.23
2009/04/23 10:09:04.2     125    -90    116    155    193 125.9  40.4  34140  289.23 0855.23
2009/04/23 10:09:04.3      86    -88     57    124    136 135.5  26.6  34138  289.19 0855.23
2009/04/23 10:09:04.4      -1   -159     -3    160    161 180.5  -1.3  34136  289.18 0855.23
2009/04/23 10:09:04.5      14   -194    -44    195    201 175.6 -12.9  34138  289.19 0855.23
2009/04/23 10:09:04.6      36   -148   -114    153    190 166.2 -44.8  34136  289.16 0855.23
2009/04/23 10:09:04.7      29   -207   -100    210    232 172.0 -31.7  34136  289.16 0855.23
2009/04/23 10:09:04.8      37   -201    -65    205    215 169.5 -23.0  34136  289.18 0855.23
2009/04/23 10:09:04.9     111   -150    -70    187    199 143.5 -25.7  34136  289.16 0855.23
2009/04/23 10:09:05.0     164    -89    -57    187    195 118.6 -22.1  34138  289.19 0855.23
2009/04/23 10:09:05.1     143    -31    -25    147    150 102.4  -9.8  34138  289.19 0855.23
2009/04/23 10:09:05.2     116    -61    -25    132    135 118.0 -10.9  34138  289.19 0855.23
2009/04/23 10:09:05.3      45    -60     82     76    111 143.0  52.2  34138  289.21 0855.23
2009/04/23 10:09:05.4      63   -192    195    203    281 161.7  49.0  34138  289.20 0855.23
2009/04/23 10:09:05.5      24   -235    178    237    296 174.0  40.6  34136  289.17 0855.23
2009/04/23 10:09:05.6      29   -268     95    270    286 173.7  20.0  34134  289.14 0855.20
2009/04/23 10:09:05.7       4   -261     98    262    279 179.1  21.3  34134  289.12 0855.20
2009/04/23 10:09:05.8       3   -253     92    254    271 179.3  19.9  34134  289.14 0855.20
2009/04/23 10:09:05.9      64   -204    102    215    237 162.4  27.2  34134  289.14 0855.20
2009/04/23 10:09:06.0      72   -199     58    212    220 159.9  15.3  34134  289.14 0855.20
2009/04/23 10:09:06.1     113   -270    103    293    311 157.3  19.4  34130  289.07 0855.20
2009/04/23 10:09:06.2      97   -288    130    305    331 161.3  24.3  34132  289.09 0855.20
2009/04/23 10:09:06.3     140   -343    156    371    402 157.8  24.2  34128  289.04 0855.20
2009/04/23 10:09:06.4     182   -409    146    448    472 155.9  18.1  34130  289.05 0855.20
2009/04/23 10:09:06.5     175   -447    173    481    511 158.6  20.7  34130  289.06 0855.20
2009/04/23 10:09:06.6     127   -409    169    429    461 162.7  22.9  34126  288.99 0855.19
2009/04/23 10:09:06.7     178   -365    111    407    422 154.0  15.3  34132  289.09 0855.19
2009/04/23 10:09:06.8     149   -348     92    379    391 156.7  13.7  34130  289.06 0855.19
2009/04/23 10:09:06.9     172   -319     70    363    370 151.6  11.0  34128  289.04 0855.19
2009/04/23 10:09:07.0     207   -337    107    396    411 148.5  15.1  34132  289.11 0855.19
2009/04/23 10:09:07.1     205   -386     40    438    441 152.0   5.3  34130  289.05 0855.19
2009/04/23 10:09:07.2     203   -377    109    429    443 151.7  14.3  34130  289.07 0855.19
2009/04/23 10:09:07.3     209   -381    144    435    459 151.2  18.4  34128  289.02 0855.19
2009/04/23 10:09:07.4     262   -266     67    374    381 135.5  10.2  34132  289.10 0855.19
2009/04/23 10:09:07.5     173   -286    121    335    356 148.9  20.8  34132  289.10 0855.19
2009/04/23 10:09:07.6      78   -344    123    353    375 167.1  19.3  34132  289.10 0855.19
2009/04/23 10:09:07.7     109   -380     90    396    407 164.0  12.9  34134  289.14 0855.19
2009/04/23 10:09:07.8      11   -370     36    371    373 178.2   5.7  34132  289.11 0855.19
2009/04/23 10:09:07.9     -34   -334     42    336    339 185.9   7.2  34136  289.15 0855.19
2009/04/23 10:09:08.0      -9   -301     47    302    306 181.8   8.9  34134  289.14 0855.19
2009/04/23 10:09:08.1      48   -259    -71    264    274 169.4 -15.2  34136  289.17 0855.19
2009/04/23 10:09:08.2     -45   -262    -76    266    277 189.8 -16.0  34132  289.10 0855.19
2009/04/23 10:09:08.3     -15   -296    -77    297    307 182.9 -14.7  34134  289.14 0855.19
2009/04/23 10:09:08.4       8   -268    -34    269    272 178.2  -7.3  34136  289.17 0855.19
2009/04/23 10:09:08.5      32   -267    -29    269    271 173.1  -6.2  34132  289.10 0855.19
2009/04/23 10:09:08.6      32   -285     24    287    289 173.5   4.9  34136  289.15 0855.19
2009/04/23 10:09:08.7       0   -311     17    312    313 180.0   3.2  34140  289.22 0855.19
2009/04/23 10:09:08.8     -21   -305      3    306    307 184.0   0.7  34138  289.20 0855.19
2009/04/23 10:09:08.9     -83   -311    -95    323    337 195.1 -16.4  34132  289.10 0855.19
2009/04/23 10:09:09.0     -64   -205    -74    215    227 197.4 -23.6  34132  289.09 0855.19
2009/04/23 10:09:09.1    -157   -166    -79    229    243 223.4 -19.1  34134  289.14 0855.19
2009/04/23 10:09:09.2    -170   -249    -63    302    309 214.3 -11.9  34136  289.15 0855.19
2009/04/23 10:09:09.3    -175   -215     -2    278    279 219.2  -0.5  34138  289.19 0855.19
2009/04/23 10:09:09.4    -157   -178    -41    238    242 221.5  -9.8  34136  289.15 0855.19
2009/04/23 10:09:09.5    -236   -316    -86    395    405 216.8 -12.4  34142  289.25 0855.19
2009/04/23 10:09:09.6    -215   -290   -103    362    377 216.6 -15.9  34146  289.32 0855.19
2009/04/23 10:09:09.8    -216   -216    -11    306    307 225.0  -2.2  34150  289.39 0855.19
2009/04/23 10:09:09.9    -313   -228    -62    388    394 233.9  -9.1  34136  289.16 0855.19
2009/04/23 10:09:10.0    -254   -209   -132    330    355 230.5 -27.4  34146  289.35 0855.19
2009/04/23 10:09:10.0    -154   -184   -108    241    264 219.9 -30.6  34144  289.29 0855.19
2009/04/23 10:09:10.1      21   -156     51    158    167 172.0  17.9  34148  289.36 0855.19
2009/04/23 10:09:10.2      -9    -76     50     77     91 187.1  35.6  34152  289.43 0855.19
2009/04/23 10:09:10.3    -122   -111     31    166    169 227.8  10.6  34144  289.31 0855.19
2009/04/23 10:09:10.4    -286    -49    -36    291    294 260.1  -7.2  34152  289.42 0855.19
2009/04/23 10:09:10.5    -459    -21   -151    460    485 267.3 -18.2  34136  289.15 0855.19
2009/04/23 10:09:10.6    -512   -142   -147    532    553 254.5 -15.5  34128  289.02 0855.20
2009/04/23 10:09:10.7    -402   -184   -147    443    466 245.4 -23.8  34144  289.29 0855.20
2009/04/23 10:09:10.8    -360   -202   -190    413    454 240.7 -30.8  34142  289.27 0855.20
2009/04/23 10:09:10.9    -342   -131   -121    367    387 248.9 -18.3  34136  289.16 0855.20
2009/04/23 10:09:11.0    -347    -78    -59    356    361 257.3  -9.5  34156  289.50 0855.20
2009/04/23 10:09:11.1    -359    -80    -17    368    369 257.3  -2.7  34156  289.52 0855.20
2009/04/23 10:09:11.2    -386     12   -104    387    401 271.8 -15.1  34144  289.30 0855.20
2009/04/23 10:09:11.3    -435    -83    -17    443    444 259.2  -2.3  34142  289.26 0855.20
2009/04/23 10:09:11.4    -379     52    -99    383    396 277.9 -14.5  34132  289.11 0855.20
2009/04/23 10:09:11.5    -347     41   -157    350    383 276.9 -30.3  34132  289.10 0855.20
2009/04/23 10:09:11.6    -301   -119    -62    324    330 248.3 -10.9  34148  289.37 0855.20
2009/04/23 10:09:11.7    -219    -89   -122    237    266 247.8 -33.7  34132  289.10 0855.20
2009/04/23 10:09:11.9    -289   -159   -186    331    379 241.1 -36.1  34136  289.15 0855.20
2009/04/23 10:09:12.0    -314   -128   -179    340    384 247.8 -34.4  34126  289.01 0855.20
2009/04/23 10:09:12.1    -203    -80   -178    219    282 248.5 -47.7  34130  289.07 0855.20
2009/04/23 10:09:12.2    -113   -122   -175    167    241 222.8 -55.6  34136  289.18 0855.20
2009/04/23 10:09:12.3     -21   -201   -209    203    291 186.2 -55.1  34134  289.14 0855.20
2009/04/23 10:09:12.4     143   -300   -141    333    361 154.4 -28.9  34124  288.96 0855.20
2009/04/23 10:09:12.5     189   -228   -105    297    315 140.4 -24.7  34124  288.95 0855.20
2009/04/23 10:09:12.6     198   -194    -99    278    296 134.4 -19.6  34130  289.05 0855.20
2009/04/23 10:09:12.7     225   -169    -40    282    285 126.9  -8.3  34132  289.10 0855.21
2009/04/23 10:09:12.8     127   -201    -87    238    253 147.7 -25.1  34136  289.15 0855.21
2009/04/23 10:09:12.9      87   -286   -118    300    322 163.1 -26.9  34134  289.12 0855.21
2009/04/23 10:09:13.0     129   -209   -130    246    278 148.4 -34.6  34140  289.22 0855.21
2009/04/23 10:09:13.1      95   -157   -156    184    241 148.8 -49.2  34140  289.23 0855.21
2009/04/23 10:09:13.2      66   -157   -123    171    210 157.1 -43.9  34140  289.24 0855.21
2009/04/23 10:09:13.3      51   -140    -88    150    173 160.0 -37.9  34140  289.24 0855.21
2009/04/23 10:09:13.4      77    -94    -57    122    134 140.8 -31.5  34136  289.16 0855.21
2009/04/23 10:09:13.5      46    -51    -50     69     85 137.7 -43.5  34138  289.19 0855.21
2009/04/23 10:09:13.6      23      0    -58     24     62  90.0 -81.4  34144  289.30 0855.21
2009/04/23 10:09:13.7      22     17    -59     28     65  52.2 -77.3  34148  289.36 0855.21
2009/04/23 10:09:13.8     -19     44    -60     49     77 336.4 -60.8  34142  289.26 0855.21
2009/04/23 10:09:13.9      27     63    -27     69     74  23.6 -26.4  34144  289.30 0855.21
2009/04/23 10:09:14.0      13     14     14     20     24  43.4  39.7  34144  289.30 0855.21
2009/04/23 10:09:14.1      -1    -22    -20     23     30 182.7 -48.2  34146  289.35 0855.21
2009/04/23 10:09:14.2     -10    -81    -98     82    127 187.1 -60.7  34144  289.31 0855.21
2009/04/23 10:09:14.3     -45     -4   -109     46    118 263.9 -80.5  34132  289.11 0855.21
2009/04/23 10:09:14.4    -112     -8   -135    113    176 265.6 -60.2  34140  289.23 0855.21
2009/04/23 10:09:14.5     -82      5   -202     83    218 273.9 -81.4  34126  289.01 0855.21
2009/04/23 10:09:14.6     128    178   -120    220    250  35.6 -35.4  34134  289.12 0855.21
2009/04/23 10:09:14.7     148    192   -109    243    266  37.8 -30.6  34122  288.93 0855.21
2009/04/23 10:09:14.8     119    113     90    165    187  46.4  31.0  34122  288.94 0855.21
2009/04/23 10:09:14.9     -10    -22    152     25    154 205.4  90.0  34132  289.11 0855.21
2009/04/23 10:09:15.0    -154   -108    157    189    245 234.9  43.8  34136  289.16 0855.21
2009/04/23 10:09:15.1     -85   -187    176    206    270 204.5  44.8  34130  289.07 0855.21
2009/04/23 10:09:15.2    -232   -147    149    275    312 237.6  30.8  34134  289.12 0855.21
2009/04/23 10:09:15.3     -97   -152    167    181    246 212.6  47.7  34130  289.08 0855.21
2009/04/23 10:09:15.4    -198    -20    127    200    236 264.1  35.5  34138  289.19 0855.21
2009/04/23 10:09:15.5    -103    -23    110    106    152 257.2  50.7  34138  289.19 0855.21
2009/04/23 10:09:15.6    -135   -199    147    241    282 214.3  34.4  34130  289.05 0855.21
2009/04/23 10:09:15.7     -87   -197     46    216    221 203.8  12.2  34130  289.06 0855.21
2009/04/23 10:09:15.8     -14   -257     75    258    269 183.1  16.4  34128  289.03 0855.21
2009/04/23 10:09:15.9    -116   -217     53    247    253 208.1  12.2  34128  289.02 0855.21
2009/04/23 10:09:16.0    -100   -123     34    159    163 219.2  12.2  34122  288.92 0855.21
2009/04/23 10:09:16.1    -227    -64     37    237    240 254.1   8.9  34128  289.02 0855.21
2009/04/23 10:09:16.2    -195      7    -59    196    205 272.1 -17.0  34132  289.11 0855.21
2009/04/23 10:09:16.3    -265    -24    -52    267    273 264.7 -11.1  34136  289.17 0855.21
2009/04/23 10:09:16.4    -336     34    -72    338    346 275.9 -12.2  34136  289.16 0855.21
2009/04/23 10:09:16.5    -389   -140   -134    414    436 250.2 -18.0  34148  289.36 0855.21
2009/04/23 10:09:16.6    -485   -308   -151    575    595 237.6 -14.8  34134  289.12 0855.21
2009/04/23 10:09:16.7    -384   -312   -116    495    509 230.9 -13.3  34142  289.27 0855.20
2009/04/23 10:09:16.8    -372   -381    -63    533    537 224.3  -6.8  34132  289.09 0855.20
2009/04/23 10:09:16.9    -370   -340   -174    503    532 227.4 -24.3  34140  289.23 0855.20
2009/04/23 10:09:17.0    -293   -225   -143    370    396 232.5 -26.6  34136  289.18 0855.20
2009/04/23 10:09:17.1    -484   -271   -173    555    581 240.7 -22.3  34136  289.17 0855.20
2009/04/23 10:09:17.2    -490   -121   -236    505    557 256.1 -31.4  34134  289.14 0855.20
2009/04/23 10:09:17.3    -475   -253   -177    539    567 242.0 -23.3  34124  288.97 0855.20
2009/04/23 10:09:17.4    -432   -295   -228    524    571 235.7 -29.5  34120  288.89 0855.20
2009/04/23 10:09:17.5    -377   -179   -194    418    460 244.6 -31.4  34124  288.97 0855.20
2009/04/23 10:09:17.6    -434    -17   -220    435    487 267.7 -33.3  34136  289.15 0855.20
2009/04/23 10:09:17.7    -402    -27   -201    403    450 266.1 -32.9  34130  289.07 0855.20
2009/04/23 10:09:17.8    -409   -194   -146    453    475 244.6 -22.9  34136  289.18 0855.20
2009/04/23 10:09:17.9    -388    -16   -231    389    452 267.5 -37.9  34142  289.26 0855.20
2009/04/23 10:09:18.0    -303    -20   -216    304    372 266.1 -43.5  34136  289.18 0855.20
2009/04/23 10:09:18.1    -293     -4   -217    294    365 269.2 -44.4  34142  289.25 0855.20
2009/04/23 10:09:18.2    -275    -73   -172    285    332 255.0 -38.4  34138  289.20 0855.20
2009/04/23 10:09:18.3    -227   -100    -75    249    260 246.3 -21.7  34156  289.51 0855.20
2009/04/23 10:09:18.4    -303     51   -147    308    341 279.6 -31.7  34134  289.13 0855.20
2009/04/23 10:09:18.5    -274    172   -163    324    362 302.1 -33.1  34132  289.10 0855.20
2009/04/23 10:09:18.6    -125    -20   -121    127    175 260.8 -53.1  34142  289.28 0855.20
2009/04/23 10:09:18.7     -29    -51    -83     59    101 209.9 -65.0  34150  289.40 0855.20
2009/04/23 10:09:18.8      70    -65   -107     96    143 132.7 -57.7  34144  289.30 0855.20
2009/04/23 10:09:18.9      75    -90   -139    118    182 139.9 -59.8  34150  289.40 0855.20
2009/04/23 10:09:19.0      -2    -29   -115     30    118 184.5 -89.8  34148  289.38 0855.20
2009/04/23 10:09:19.1       0    -88   -132     89    159 180.4 -67.2  34138  289.21 0855.20
2009/04/23 10:09:19.2      50   -148   -117    157    195 161.3 -45.1  34132  289.09 0855.20
2009/04/23 10:09:19.3      93   -144    -66    172    184 147.0 -26.4  34136  289.16 0855.20
2009/04/23 10:09:19.4     111   -175    -84    208    224 147.5 -27.4  34132  289.09 0855.20
2009/04/23 10:09:19.5      62   -202   -131    212    249 162.8 -39.2  34134  289.14 0855.20
2009/04/23 10:09:19.6      77   -231   -134    244    278 161.5 -35.7  34132  289.09 0855.20
2009/04/23 10:09:19.7      83   -263   -177    276    327 162.4 -40.0  34128  289.02 0855.20
2009/04/23 10:09:19.8     147   -315   -125    348    369 155.0 -24.8  34130  289.06 0855.20
2009/04/23 10:09:19.9     164   -377   -122    412    429 156.5 -21.5  34130  289.05 0855.20
2009/04/23 10:09:20.0     141   -353    -76    381    389 158.2 -11.3  34128  289.03 0855.20
2009/04/23 10:09:20.1     148   -387   -126    415    435 159.0 -17.0  34128  289.04 0855.20
2009/04/23 10:09:20.2     143   -357    -98    385    398 158.2 -14.4  34128  289.04 0855.20
2009/04/23 10:09:20.3     147   -423    -89    448    457 160.8 -11.3  34130  289.05 0855.20
2009/04/23 10:09:20.4     150   -391    -12    419    420 159.0  -1.7  34110  288.73 0855.20
2009/04/23 10:09:20.5     139   -389     27    414    415 160.3   3.8  34122  288.94 0855.20
2009/04/23 10:09:20.6      96   -315     84    330    341 163.1  14.3  34128  289.04 0855.20
2009/04/23 10:09:20.7     160   -324     70    362    369 153.6  11.0  34126  288.98 0855.20
2009/04/23 10:09:20.8     147   -282    138    319    347 152.4  24.9  34130  289.08 0855.20
2009/04/23 10:09:20.9     102   -318     91    335    348 162.2  15.3  34128  289.04 0855.20
2009/04/23 10:09:21.0     126   -198    171    235    290 147.5  39.7  34132  289.09 0855.20
2009/04/23 10:09:21.1     305    -57    136    311    339 100.6  25.1  34132  289.10 0855.20
2009/04/23 10:09:21.2     289    -88    118    303    325 106.9  22.3  34132  289.10 0855.20
2009/04/23 10:09:21.3     213   -117    102    243    263 118.8  24.1  34138  289.19 0855.20
2009/04/23 10:09:21.4     232   -163     42    284    288 125.1   8.5  34130  289.05 0855.20
2009/04/23 10:09:21.5     250   -223     73    336    345 131.7  12.4  34130  289.08 0855.20
2009/04/23 10:09:21.6     194   -269    108    332    350 144.2  18.0  34132  289.11 0855.20
2009/04/23 10:09:21.7     217   -324     87    391    401 146.2  12.6  34128  289.04 0855.20
2009/04/23 10:09:21.8     145   -216     74    261    272 146.2  15.8  34120  288.90 0855.20
2009/04/23 10:09:21.9     147   -278    113    315    334 152.0  20.6  34128  289.03 0855.20
2009/04/23 10:09:22.0      36   -310    164    313    353 173.3  29.8  34132  289.10 0855.20
2009/04/23 10:09:22.1     103   -369    100    384    397 164.4  14.6  34132  289.11 0855.20
2009/04/23 10:09:22.2     116   -349    123    368    389 161.6  18.5  34130  289.08 0855.20
2009/04/23 10:09:22.3      98   -400    128    412    432 166.2  17.3  34136  289.17 0855.20
2009/04/23 10:09:22.4     111   -388    195    404    448 164.0  27.4  34126  289.00 0855.20
2009/04/23 10:09:22.5     148   -342    209    373    427 156.5  31.6  34130  289.07 0855.20
2009/04/23 10:09:22.6     174   -306    156    353    385 150.4  25.3  34132  289.10 0855.20
2009/04/23 10:09:22.7     114   -307    137    328    355 159.5  23.9  34136  289.15 0855.19
2009/04/23 10:09:22.8      99   -406    161    419    448 166.2  22.1  34134  289.14 0855.19
2009/04/23 10:09:22.9      70   -316    193    324    377 167.5  33.5  34142  289.25 0855.19
2009/04/23 10:09:23.0     112   -243    140    268    302 155.3  29.5  34132  289.10 0855.19
2009/04/23 10:09:23.1      16   -330    179    331    376 177.2  30.9  34136  289.18 0855.19
2009/04/23 10:09:23.2      14   -337    164    338    375 177.5  27.8  34136  289.18 0855.19
2009/04/23 10:09:23.3      40   -289    141    292    324 172.0  27.4  34140  289.24 0855.19
2009/04/23 10:09:23.4     223   -250    140    336    364 138.3  24.1  34130  289.06 0855.19
2009/04/23 10:09:23.5     277   -282    132    396    418 135.6  18.5  34130  289.05 0855.19
2009/04/23 10:09:23.6     147   -171    141    226    266 139.2  35.2  34132  289.10 0855.19
2009/04/23 10:09:23.7     -10   -140    155    141    209 184.5  53.0  34138  289.19 0855.19
2009/04/23 10:09:23.8     -17   -269    189    270    329 183.6  38.4  34140  289.24 0855.19
2009/04/23 10:09:23.9     -76   -376    160    384    416 191.6  23.9  34134  289.14 0855.19
2009/04/23 10:09:24.0     -46   -305    159    309    347 188.7  29.4  34138  289.21 0855.19
2009/04/23 10:09:24.1     -76   -262    185    273    329 196.3  37.3  34134  289.14 0855.19
2009/04/23 10:09:24.2     134   -190    181    233    295 144.8  41.7  34144  289.29 0855.19
2009/04/23 10:09:24.3      79   -174    178    192    261 155.7  47.9  34140  289.24 0855.19
2009/04/23 10:09:24.4      42   -138    133    145    196 163.0  47.5  34142  289.26 0855.19
2009/04/23 10:09:24.5      18    -33    100     38    106 151.0  78.6  34146  289.33 0855.19
2009/04/23 10:09:24.6     -41   -168    235    174    292 193.8  60.0  34138  289.19 0855.19
2009/04/23 10:09:24.7     -45   -115    153    124    196 201.4  56.6  34142  289.28 0855.19
2009/04/23 10:09:24.8     -39   -170    159    175    236 193.1  47.0  34140  289.24 0855.19
2009/04/23 10:09:24.9    -158    -32     41    162    168 258.5  14.3  34146  289.33 0855.19
2009/04/23 10:09:25.0    -184    -64     68    195    207 250.7  19.2  34150  289.40 0855.19
2009/04/23 10:09:25.1    -175    -71     83    190    207 247.8  25.1  34148  289.38 0855.19
2009/04/23 10:09:25.2    -265     94     34    282    285 289.7   6.9  34150  289.39 0855.19
2009/04/23 10:09:25.3    -159     80    -35    179    183 296.9 -11.1  34158  289.53 0855.19
2009/04/23 10:09:25.4     -61    -30     32     68     75 243.8  27.2  34152  289.45 0855.19
2009/04/23 10:09:25.5      40     -3    140     41    145  95.2  83.3  34160  289.57 0855.19
2009/04/23 10:09:25.6     -76    -11    156     77    173 261.2  72.1  34168  289.72 0855.19
2009/04/23 10:09:25.7       9      5    191     11    191  57.6  90.0  34166  289.69 0855.19
2009/04/23 10:09:25.8     -10     -3    181     11    181 251.6  90.0  34166  289.69 0855.19
2009/04/23 10:09:25.9      21    -17    161     28    163 129.5  90.0  34160  289.58 0855.19
2009/04/23 10:09:26.0     -33    -24    110     42    117 234.0  78.2  34158  289.53 0855.19
2009/04/23 10:09:26.1       0    -42     69     43     81 180.0  65.1  34160  289.58 0855.19
2009/04/23 10:09:26.2     -26    -17     65     32     72 235.8  72.8  34162  289.62 0855.19
2009/04/23 10:09:26.3       5     65     12     66     68   4.5  11.0  34152  289.45 0855.19
2009/04/23 10:09:26.4     -73    100     14    125    126 323.9   6.5  34166  289.67 0855.19
2009/04/23 10:09:26.5    -120     39      6    127    128 288.2   2.9  34160  289.57 0855.19
2009/04/23 10:09:26.6    -186    -96    -23    210    212 242.5  -6.5  34152  289.45 0855.19
2009/04/23 10:09:26.7    -182    -61    -28    193    196 251.4  -8.2  34146  289.35 0855.20
2009/04/23 10:09:26.8    -180    -15    -15    181    182 265.0  -4.9  34148  289.38 0855.20
2009/04/23 10:09:26.9    -114     20      0    116    117 280.1  -0.3  34152  289.43 0855.20
2009/04/23 10:09:27.0    -116     84     39    144    150 305.9  15.3  34150  289.41 0855.20
2009/04/23 10:09:27.1    -144     99     90    175    196 304.6  29.3  34156  289.52 0855.20
2009/04/23 10:09:27.2    -166    107     31    198    201 302.9   8.9  34154  289.48 0855.20
2009/04/23 10:09:27.3    -104    104     12    148    149 314.9   4.9  34166  289.69 0855.20
2009/04/23 10:09:27.4    -125     90     -7    155    156 305.9  -2.6  34178  289.87 0855.20
2009/04/23 10:09:27.5    -178    110    -64    210    220 301.8 -17.0  34150  289.40 0855.20
2009/04/23 10:09:27.6    -129    225      7    260    261 330.1   1.7  34136  289.17 0855.20
2009/04/23 10:09:27.7    -185     81     62    203    213 293.6  17.1  34140  289.23 0855.19
2009/04/23 10:09:27.8    -240    220    -77    326    336 312.6 -13.4  34130  289.08 0855.19
2009/04/23 10:09:27.9    -239    322    -52    402    406 323.4  -7.5  34124  288.95 0855.19
2009/04/23 10:09:28.0    -217    231   -140    317    346 316.8 -29.7  34112  288.77 0855.19
2009/04/23 10:09:28.1    -298    130   -183    326    373 293.6 -35.9  34106  288.66 0855.19
2009/04/23 10:09:28.2    -208    137    -45    250    255 303.5 -10.3  34108  288.68 0855.19
2009/04/23 10:09:28.3    -185     87      0    205    206 295.3   0.2  34112  288.75 0855.19
2009/04/23 10:09:28.4    -223     24     14    225    226 276.4   3.6  34124  288.96 0855.19
2009/04/23 10:09:28.5    -239   -156    -76    286    297 236.9 -15.0  34102  288.58 0855.19
2009/04/23 10:09:28.6    -125     90    -13    155    156 305.9  -4.9  34110  288.74 0855.19
2009/04/23 10:09:28.7    -144    225    -51    268    273 327.4 -10.9  34106  288.66 0855.19
2009/04/23 10:09:28.8    -106    342    -99    359    373 342.8 -15.4  34124  288.96 0855.19
2009/04/23 10:09:28.9    -351    218   -164    414    445 301.8 -27.4  34118  288.85 0855.19
2009/04/23 10:09:29.0    -256    192    -90    320    333 306.9 -15.7  34138  289.21 0855.19
2009/04/23 10:09:29.1    -216    213   -108    304    323 314.7 -19.7  34134  289.12 0855.19
2009/04/23 10:09:29.2      79    311    -45    321    325  14.3  -8.0  34122  288.93 0855.19
2009/04/23 10:09:29.3     -40    369   -120    372    390 353.7 -22.9  34136  289.15 0855.19
2009/04/23 10:09:29.4     -58    146   -254    158    299 338.2 -69.5  34138  289.20 0855.19
2009/04/23 10:09:29.5      23     72   -264     76    274  18.3 -88.2  34146  289.33 0855.19
2009/04/23 10:09:29.6    -268     29   -315    270    414 276.2 -59.7  34132  289.11 0855.19
2009/04/23 10:09:29.7    -275     83   -183    288    341 286.9 -39.9  34126  288.98 0855.19
2009/04/23 10:09:29.8    -142    251    -98    289    305 330.4 -23.3  34126  289.00 0855.19
2009/04/23 10:09:29.9    -184    332    -37    380    382 331.0  -5.6  34136  289.18 0855.19
2009/04/23 10:09:30.0    -274    431   -163    512    537 327.5 -22.8  34114  288.79 0855.19
2009/04/23 10:09:30.1     -15    577     87    578    585 358.5   8.6  34154  289.46 0855.19
2009/04/23 10:09:30.2     -15    562     32    563    564 358.4   3.3  34162  289.60 0855.19
2009/04/23 10:09:30.3      34    435     71    437    443   4.6   9.3  34148  289.36 0855.19
2009/04/23 10:09:30.4       0    323      0    324    325   0.0   0.1  34150  289.41 0855.19
2009/04/23 10:09:30.5     -49    237    -48    243    248 348.2 -11.3  34150  289.41 0855.19
2009/04/23 10:09:30.6     -97    310    -10    325    326 342.6  -1.9  34146  289.34 0855.19
2009/04/23 10:09:30.7      28    524     34    525    527   3.1   3.8  34162  289.62 0855.19
2009/04/23 10:09:30.8     -13    492    128    493    510 358.4  14.6  34160  289.56 0855.19
2009/04/23 10:09:30.9     -22    404    144    405    430 356.9  19.6  34154  289.48 0855.19
2009/04/23 10:09:31.0    -100    416     87    428    438 346.4  11.6  34166  289.66 0855.19
2009/04/23 10:09:31.1     -52    473     44    476    479 353.7   5.3  34162  289.61 0855.19
2009/04/23 10:09:31.2      50    471    136    474    494   6.1  16.0  34154  289.47 0855.19
2009/04/23 10:09:31.3     -19    429    106    430    443 357.4  13.9  34164  289.65 0855.19
2009/04/23 10:09:31.4      13    373    203    374    425   2.0  30.9  34136  289.17 0855.19
2009/04/23 10:09:31.5     149    360    151    390    418  22.5  22.2  34138  289.19 0855.19
2009/04/23 10:09:31.6     368    444    355    577    677  39.6  34.6  34118  288.87 0855.19
2009/04/23 10:09:31.7     160    559    382    582    696  16.0  36.4  34122  288.94 0855.20
2009/04/23 10:09:31.8      -9    374    376    375    531 358.6  50.1  34152  289.42 0855.20
2009/04/23 10:09:31.9      16    304    195    305    362   3.1  35.6  34168  289.71 0855.20
2009/04/23 10:09:32.0     -23    160    143    162    216 351.5  45.9  34168  289.72 0855.20
2009/04/23 10:09:32.1     -56    -15    122     59    135 254.9  72.8  34180  289.92 0855.20
2009/04/23 10:09:32.2    -154   -163    404    225    462 223.4  68.8  34148  289.38 0855.20
2009/04/23 10:09:32.3     -74   -221    271    234    358 198.5  54.8  34142  289.27 0855.20
2009/04/23 10:09:32.4    -182    402    197    442    483 335.6  25.7  34126  289.01 0855.20
2009/04/23 10:09:32.5    -122    417    158    435    462 343.7  20.9  34132  289.11 0855.20
2009/04/23 10:09:32.6     -56    405     27    409    410 352.1   3.8  34132  289.11 0855.20
2009/04/23 10:09:32.7     -51    327     90    332    345 351.1  15.1  34138  289.20 0855.20
2009/04/23 10:09:32.8    -153    277    121    317    339 331.0  21.8  34138  289.20 0855.20
2009/04/23 10:09:32.9    -256    267    155    370    401 316.2  24.1  34136  289.16 0855.20
2009/04/23 10:09:33.0    -361    312    214    478    523 310.9  25.7  34134  289.13 0855.20
2009/04/23 10:09:33.1    -278    211    259    350    435 307.2  40.1  34132  289.09 0855.20
2009/04/23 10:09:33.2    -319    150    150    353    383 295.3  24.5  34128  289.04 0855.20
2009/04/23 10:09:33.3    -330    120    169    352    390 290.0  27.3  34130  289.06 0855.20
2009/04/23 10:09:33.4    -300    138    242    331    410 294.8  39.7  34126  288.98 0855.20
2009/04/23 10:09:33.5    -242    268    167    362    398 317.9  26.4  34132  289.11 0855.20
2009/04/23 10:09:33.6    -177    -99    182    204    273 240.7  46.4  34144  289.31 0855.20
2009/04/23 10:09:33.7    -182   -166    164    247    296 227.7  36.5  34150  289.41 0855.21
2009/04/23 10:09:33.8    -316     49     90    320    333 278.8  15.8  34152  289.42 0855.21
2009/04/23 10:09:33.9    -216    229     43    315    318 316.7   7.9  34136  289.17 0855.21
2009/04/23 10:09:34.0    -306    356    -22    470    471 319.4  -2.8  34134  289.12 0855.21
2009/04/23 10:09:34.1    -324    353     -9    480    481 317.5  -1.2  34136  289.17 0855.21
2009/04/23 10:09:34.2    -288    398    -62    492    496 324.0  -7.2  34150  289.39 0855.21
2009/04/23 10:09:34.3    -270    447    -14    523    524 328.8  -1.6  34134  289.14 0855.21
2009/04/23 10:09:34.4    -294    495    -31    576    577 329.3  -3.1  34152  289.44 0855.21
2009/04/23 10:09:34.5    -209    428    -43    477    479 334.0  -5.2  34154  289.47 0855.21
2009/04/23 10:09:34.6    -199    403    -59    450    454 333.7  -7.6  34158  289.53 0855.21
2009/04/23 10:09:34.7    -143    315    -75    347    356 335.6 -12.3  34144  289.30 0855.21
2009/04/23 10:09:34.8    -146    346    -68    376    383 337.1 -10.4  34146  289.35 0855.21
2009/04/23 10:09:34.9     -97    375     11    388    389 345.5   1.7  34150  289.40 0855.21
2009/04/23 10:09:35.0     -92    341     -5    354    355 344.8  -0.9  34150  289.40 0855.21
2009/04/23 10:09:35.1     -77    270    144    281    315 344.0  29.2  34142  289.27 0855.21
2009/04/23 10:09:35.2    -107    302    104    321    338 340.4  17.9  34168  289.71 0855.21
2009/04/23 10:09:35.3    -169    277      6    325    326 328.6   1.1  34174  289.81 0855.21
2009/04/23 10:09:35.4    -152    216     42    265    269 324.9   9.0  34180  289.90 0855.21
2009/04/23 10:09:35.5    -145    181     72    233    245 321.3  17.3  34170  289.75 0855.21
2009/04/23 10:09:35.6    -189    189     27    268    270 314.9   5.9  34178  289.86 0855.21
2009/04/23 10:09:35.7    -115    103    -10    155    156 311.8  -3.9  34174  289.80 0855.22
2009/04/23 10:09:35.8     -62     -6     58     63     85 263.9  47.9  34176  289.85 0855.22
2009/04/23 10:09:35.9     -56     49    -79     75    108 311.3 -56.0  34174  289.80 0855.22
2009/04/23 10:09:36.0     -83     19    -83     86    119 283.3 -53.8  34176  289.85 0855.22
2009/04/23 10:09:36.1     -37    -20     10     43     45 242.0  13.2  34178  289.89 0855.22
2009/04/23 10:09:36.2     -65   -105     25    124    127 212.1  11.6  34156  289.52 0855.22
2009/04/23 10:09:36.3       0   -243    -47    244    249 180.0 -11.1  34154  289.47 0855.22
2009/04/23 10:09:36.4      20   -267    -74    268    279 175.5 -15.5  34156  289.49 0855.22
2009/04/23 10:09:36.5     107   -280   -110    301    320 159.0 -25.2  34156  289.51 0855.22
2009/04/23 10:09:36.6      31   -249   -175    251    305 172.9 -42.8  34134  289.14 0855.22
2009/04/23 10:09:36.7     -55   -355    -23    360    361 188.8  -3.7  34152  289.42 0855.22
2009/04/23 10:09:36.8    -222   -323    -15    393    394 214.5  -2.2  34136  289.16 0855.22
2009/04/23 10:09:36.9    -162   -369     40    404    406 203.7   5.7  34142  289.26 0855.22
2009/04/23 10:09:37.0      41   -410    -52    413    417 174.2  -7.2  34144  289.31 0855.22
2009/04/23 10:09:37.1      24   -386    -45    387    390 176.4  -6.7  34146  289.32 0855.22
2009/04/23 10:09:37.2      39   -395    -58    397    402 174.3  -8.4  34132  289.10 0855.22
2009/04/23 10:09:37.3      -4   -431      6    432    433 180.6   0.9  34136  289.16 0855.22
2009/04/23 10:09:37.4      55   -363    -20    368    369 171.3  -3.2  34136  289.16 0855.22
2009/04/23 10:09:37.5     181   -327     59    374    379 151.0   9.0  34134  289.13 0855.22
2009/04/23 10:09:37.6     143   -298     85    331    342 154.4  14.5  34136  289.16 0855.22
2009/04/23 10:09:37.7     202   -369     35    421    423 151.3   4.9  34134  289.14 0855.22
2009/04/23 10:09:37.8      72   -192     64    206    216 159.5  17.3  34132  289.09 0855.22
2009/04/23 10:09:37.9     -59   -104     55    120    132 209.9  26.6  34134  289.14 0855.22
2009/04/23 10:09:38.0     -77   -195    206    210    294 201.6  49.8  34136  289.17 0855.22
2009/04/23 10:09:38.1       5   -291    219    292    365 179.0  40.7  34138  289.20 0855.22
2009/04/23 10:09:38.3      21   -243    202    245    317 174.9  43.6  34134  289.14 0855.22
2009/04/23 10:09:38.4     -77   -380    167    389    423 191.6  24.9  34134  289.14 0855.22
2009/04/23 10:09:38.5    -145   -554     -3    573    574 194.7  -0.4  34130  289.07 0855.22
2009/04/23 10:09:38.6     -40   -605     34    607    608 183.8   3.3  34120  288.88 0855.22
2009/04/23 10:09:38.7     204   -485     37    527    529 157.2   4.0  34130  289.06 0855.22
2009/04/23 10:09:38.8     132   -471     61    490    494 164.3   7.2  34134  289.12 0855.22
2009/04/23 10:09:38.9     101   -543    203    553    589 169.4  21.0  34138  289.19 0855.22
2009/04/23 10:09:39.0     150   -611     26    630    631 166.2   2.4  34140  289.23 0855.22
2009/04/23 10:09:39.1     154   -717    -24    734    735 167.8  -1.9  34112  288.75 0855.22
2009/04/23 10:09:39.2     151   -789   -145    804    818 169.1 -10.3  34122  288.92 0855.22
2009/04/23 10:09:39.3     121   -749   -137    759    772 170.8 -10.3  34112  288.77 0855.22
2009/04/23 10:09:39.4     324   -659   -112    735    744 153.8  -8.7  34120  288.90 0855.22
2009/04/23 10:09:39.5     329   -617   -222    700    735 151.9 -17.6  34118  288.86 0855.22
2009/04/23 10:09:39.6     259   -535   -178    595    622 154.1 -16.7  34124  288.95 0855.22
2009/04/23 10:09:39.7     233   -582   -115    628    639 158.2 -10.4  34118  288.87 0855.22
2009/04/23 10:09:39.8     163   -617   -136    639    654 165.2 -12.0  34114  288.79 0855.18
2009/04/23 10:09:39.9     126   -578     92    592    600 167.6   8.9  34112  288.76 0855.18
2009/04/23 10:09:40.0    -169   -623    -54    646    649 195.2  -4.8  34120  288.89 0855.18
2009/04/23 10:09:40.1    -118   -528      6    542    543 192.6   0.7  34120  288.91 0855.18
2009/04/23 10:09:40.2      33   -564    -25    566    567 176.6  -2.6  34120  288.89 0855.18
2009/04/23 10:09:40.3      38   -536    -15    538    539 175.9  -1.6  34116  288.84 0855.18
2009/04/23 10:09:40.4      10   -538    -10    539    540 178.9  -1.2  34118  288.85 0855.18
2009/04/23 10:09:40.5     112   -469     -9    483    484 166.6  -1.2  34120  288.88 0855.18
2009/04/23 10:09:40.6      99   -458     65    469    474 167.7   8.0  34124  288.95 0855.18
2009/04/23 10:09:40.7      32   -439     80    441    449 175.8  10.3  34118  288.85 0855.18
2009/04/23 10:09:40.8      19   -523     25    524    525 177.9   2.8  34114  288.79 0855.18
2009/04/23 10:09:40.9      70   -634     19    638    639 173.7   1.7  34122  288.93 0855.18
2009/04/23 10:09:41.0     216   -592    165    631    653 160.0  14.7  34110  288.71 0855.18
2009/04/23 10:09:41.1     167   -486    211    515    556 161.0  23.6  34118  288.87 0855.18
2009/04/23 10:09:41.2      67   -573      3    577    578 173.3   0.4  34118  288.85 0855.18
2009/04/23 10:09:41.3     154   -464   -144    489    509 161.6 -21.2  34128  289.03 0855.18
2009/04/23 10:09:41.4     165   -475   -164    504    530 160.8 -23.2  34124  288.96 0855.18
2009/04/23 10:09:41.5     236   -478   -132    534    551 153.7 -13.9  34126  289.01 0855.18
2009/04/23 10:09:41.6     152   -460    -81    485    492 161.7  -9.5  34124  288.95 0855.18
2009/04/23 10:09:41.7     143   -482     13    503    504 163.4   1.5  34126  289.00 0855.18
2009/04/23 10:09:41.8      97   -425     58    437    441 167.1   7.6  34128  289.02 0855.17
2009/04/23 10:09:41.9     128   -420     -4    440    441 163.1  -0.6  34130  289.05 0855.17
2009/04/23 10:09:42.0     150   -392     35    420    422 159.0   4.9  34128  289.04 0855.17
2009/04/23 10:09:42.1      32   -415    124    417    436 175.5  16.6  34122  288.92 0855.17
2009/04/23 10:09:42.2      -1   -371    -33    372    374 180.3  -5.1  34126  288.99 0855.17
2009/04/23 10:09:42.3     -72   -342     42    350    353 192.0   6.9  34126  288.98 0855.17
2009/04/23 10:09:42.4     -24   -360     82    361    371 183.9  12.9  34126  288.98 0855.17
2009/04/23 10:09:42.5     -14   -336     61    337    343 182.5  10.3  34128  289.04 0855.17
2009/04/23 10:09:42.6      11   -380     12    381    382 178.3   1.9  34132  289.11 0855.17
2009/04/23 10:09:42.7     103   -358     28    373    374 163.9   4.4  34126  289.01 0855.17
2009/04/23 10:09:42.8      90   -337     17    349    350 165.0   2.8  34128  289.03 0855.17
2009/04/23 10:09:42.9      81   -323     80    333    343 165.9  13.5  34130  289.06 0855.17
2009/04/23 10:09:43.0      68   -286     -6    294    295 166.6  -1.3  34128  289.03 0855.17
2009/04/23 10:09:43.1      17   -312      5    313    314 176.9   1.0  34126  289.00 0855.17
2009/04/23 10:09:43.2       3   -361    -11    362    363 179.5  -1.8  34130  289.08 0855.17
2009/04/23 10:09:43.3       5   -285    -93    286    301 178.9 -18.1  34130  289.07 0855.17
2009/04/23 10:09:43.4      15   -306   -107    307    325 177.1 -24.4  34134  289.12 0855.17
2009/04/23 10:09:43.5       9   -350   -122    351    371 178.4 -24.3  34128  289.04 0855.17
2009/04/23 10:09:43.6     -49   -359   -103    363    377 187.9 -20.5  34130  289.06 0855.17
2009/04/23 10:09:43.7     -22   -319    -88    320    331 184.0 -20.1  34128  289.02 0855.17
2009/04/23 10:09:43.8     -41   -291    -76    294    304 188.1 -14.5  34130  289.05 0855.16
2009/04/23 10:09:43.9       5   -292    -82    293    304 179.0 -20.2  34130  289.07 0855.16
2009/04/23 10:09:44.0      24   -297   -112    299    319 175.3 -25.8  34132  289.09 0855.16
2009/04/23 10:09:44.1      -3   -255    -90    256    271 180.7 -24.3  34132  289.09 0855.16
2009/04/23 10:09:44.2     -10   -236    -77    237    249 182.5 -23.3  34132  289.09 0855.16
2009/04/23 10:09:44.3      60   -258    -76    265    275 166.9 -20.7  34134  289.14 0855.16
2009/04/23 10:09:44.4      88   -265    -66    280    288 161.5 -13.4  34134  289.12 0855.16
2009/04/23 10:09:44.5     192   -211     -6    286    287 137.7  -1.3  34134  289.12 0855.16
2009/04/23 10:09:44.6      61   -250    -57    258    265 166.2 -12.6  34142  289.27 0855.16
2009/04/23 10:09:44.7       4   -268     -5    269    270 179.1  -1.3  34140  289.22 0855.16
2009/04/23 10:09:44.8     -24   -284      2    286    287 184.9   0.5  34136  289.17 0855.16
2009/04/23 10:09:44.9     -12   -267     23    268    270 182.7   5.0  34130  289.07 0855.16
2009/04/23 10:09:45.0     -59   -250     42    258    262 193.4   9.3  34134  289.14 0855.16
2009/04/23 10:09:45.1     -51   -273      3    278    279 190.7   0.7  34134  289.12 0855.16
2009/04/23 10:09:45.2      29   -217     10    219    220 172.2   2.8  34140  289.24 0855.16
2009/04/23 10:09:45.3     120   -224    131    255    286 151.7  29.3  34130  289.07 0855.16
2009/04/23 10:09:45.4     126   -190     53    229    236 146.4  13.2  34132  289.09 0855.16
2009/04/23 10:09:45.5     145   -144     18    205    206 134.7   5.2  34128  289.02 0855.16
2009/04/23 10:09:45.6     117   -126    -61    173    184 137.2 -19.6  34132  289.11 0855.16
2009/04/23 10:09:45.7     -17   -175    -76    176    191 185.8 -29.3  34134  289.14 0855.16
2009/04/23 10:09:45.8     -42   -197     14    202    203 192.0   4.2  34134  289.14 0855.17
2009/04/23 10:09:45.9     -40   -325     18    328    329 187.1   3.2  34144  289.29 0855.17
2009/04/23 10:09:46.0     -28   -308     15    310    311 185.3   2.8  34142  289.27 0855.17
2009/04/23 10:09:46.1       3   -218     36    219    223 179.1   9.5  34136  289.16 0855.17
2009/04/23 10:09:46.2      15   -139    116    140    181 173.8  43.8  34148  289.38 0855.17
2009/04/23 10:09:46.3      35   -148     79    153    172 166.6  29.3  34146  289.33 0855.17
2009/04/23 10:09:46.4     -43   -212    115    217    245 191.5  30.2  34138  289.19 0855.17
2009/04/23 10:09:46.5     -26   -208    123    210    243 187.3  33.1  34142  289.27 0855.17
2009/04/23 10:09:46.6     -96   -186    116    210    239 207.4  31.4  34138  289.21 0855.17
2009/04/23 10:09:46.7     -70   -137    148    155    214 207.2  49.0  34140  289.24 0855.17
2009/04/23 10:09:46.8     -43   -124     58    132    144 199.2  25.2  34136  289.18 0855.17
2009/04/23 10:09:46.9      20   -176     63    178    190 173.3  19.6  34140  289.24 0855.17
2009/04/23 10:09:47.0     -31   -206     71    209    221 188.7  18.9  34136  289.16 0855.17
2009/04/23 10:09:47.1     -32   -201     77    204    218 189.1  21.5  34138  289.19 0855.17
2009/04/23 10:09:47.2      18   -245     96    246    264 175.6  22.5  34136  289.17 0855.17
2009/04/23 10:09:47.3     -62   -230     48    239    244 195.1  11.4  34140  289.24 0855.17
2009/04/23 10:09:47.4     -14   -244     67    245    254 183.5  15.3  34142  289.25 0855.17
2009/04/23 10:09:47.5     -71   -264    -15    274    275 195.1  -3.1  34142  289.27 0855.17
2009/04/23 10:09:47.6     -59   -321    -10    327    328 190.5  -1.8  34138  289.19 0855.17
2009/04/23 10:09:47.7     -47   -301    -16    305    306 188.9  -3.1  34142  289.27 0855.17
2009/04/23 10:09:47.8     -41   -243    -35    247    250 189.7  -8.2  34142  289.27 0855.18
2009/04/23 10:09:47.9      39   -186     23    191    193 168.0   7.1  34140  289.23 0855.18
2009/04/23 10:09:48.0      49   -143      8    152    153 160.8   3.3  34138  289.19 0855.18
2009/04/23 10:09:48.1     -32   -134     29    138    142 193.4  12.2  34142  289.28 0855.18
2009/04/23 10:09:48.2     -32    -86     61     92    110 200.5  36.0  34142  289.26 0855.18
2009/04/23 10:09:48.3     -14   -104     89    106    138 188.1  44.3  34144  289.30 0855.18
2009/04/23 10:09:48.4     -26   -110     82    114    140 193.4  39.5  34140  289.24 0855.18
2009/04/23 10:09:48.5     -41    -83     65     93    113 206.3  38.0  34136  289.18 0855.18
2009/04/23 10:09:48.6     -18    -47     69     51     85 200.9  60.0  34148  289.36 0855.18
2009/04/23 10:09:48.7      -7    -35     67     36     76 191.6  68.9  34150  289.40 0855.18
2009/04/23 10:09:48.8     -13    -65     51     67     84 191.5  41.2  34146  289.33 0855.19
2009/04/23 10:09:48.9      16    -60     61     63     87 164.8  50.0  34150  289.41 0855.19
2009/04/23 10:09:49.0       7    -82     62     83    103 175.1  40.7  34140  289.24 0855.19
2009/04/23 10:09:49.1     -10    -85    104     86    134 187.1  56.3  34144  289.31 0855.19
2009/04/23 10:09:49.2       5   -108     67    109    127 177.3  35.0  34140  289.23 0855.19
2009/04/23 10:09:49.3      22   -132     80    134    156 170.2  34.0  34138  289.21 0855.19
2009/04/23 10:09:49.4      23   -196    139    198    241 173.1  38.5  34138  289.19 0855.19
2009/04/23 10:09:49.5       0   -208    137    209    249 179.8  36.5  34136  289.17 0855.19
2009/04/23 10:09:49.6      19   -172    135    174    220 173.5  41.7  34140  289.23 0855.19
2009/04/23 10:09:49.7      17   -273    136    274    305 176.4  28.2  34142  289.25 0855.19
2009/04/23 10:09:49.8     -23   -251    129    253    283 185.3  29.2  34140  289.22 0855.19
2009/04/23 10:09:49.9     -59   -218    152    226    272 195.2  37.0  34138  289.20 0855.19
2009/04/23 10:09:50.0     -45   -157    125    164    206 196.0  41.4  34142  289.26 0855.19
2009/04/23 10:09:50.1     -27   -210    105    212    236 187.6  28.2  34138  289.21 0855.19
2009/04/23 10:09:50.2     -75   -244     85    256    271 197.2  18.5  34138  289.19 0855.19
2009/04/23 10:09:50.3     -26   -222    115    224    251 186.9  29.3  34140  289.22 0855.19
2009/04/23 10:09:50.4     -23   -183    187    185    263 187.3  50.1  34138  289.20 0855.19
2009/04/23 10:09:50.5     -48   -236    140    241    278 191.6  32.9  34140  289.22 0855.19
2009/04/23 10:09:50.6     -19   -283     92    284    299 184.0  17.9  34136  289.17 0855.19
2009/04/23 10:09:50.7     -32   -223     44    226    231 188.2  11.1  34136  289.16 0855.19
2009/04/23 10:09:50.8     -24   -191    149    193    243 187.3  41.6  34138  289.21 0855.21
2009/04/23 10:09:50.9      28   -214    182    216    282 172.4  44.5  34144  289.31 0855.21
2009/04/23 10:09:51.0       7   -225    100    226    247 178.0  25.3  34142  289.25 0855.21
2009/04/23 10:09:51.1      38   -275    174    278    327 172.0  35.1  34138  289.20 0855.21
2009/04/23 10:09:51.2       9   -206    201    207    288 177.3  49.4  34140  289.24 0855.21
2009/04/23 10:09:51.3      59   -251    240    258    352 166.7  47.9  34144  289.31 0855.21
2009/04/23 10:09:51.4       8   -150    210    151    258 176.9  60.6  34144  289.31 0855.21
2009/04/23 10:09:51.5      -9    -78    206     79    220 187.1  78.4  34144  289.31 0855.21
2009/04/23 10:09:51.6      19    -48    166     52    173 158.2  81.8  34146  289.35 0855.21
2009/04/23 10:09:51.7     -94   -156    156    183    240 211.0  44.8  34138  289.21 0855.21
2009/04/23 10:09:51.8    -135   -157    114    208    237 220.8  31.3  34146  289.35 0855.21
2009/04/23 10:09:51.9    -133   -179     85    224    239 216.7  21.7  34146  289.32 0855.21
2009/04/23 10:09:52.0     -39   -145     22    151    153 195.2   8.5  34132  289.09 0855.21
2009/04/23 10:09:52.1     -57   -131    -28    143    146 203.6 -11.3  34140  289.24 0855.21
2009/04/23 10:09:52.2       8   -128     77    129    150 176.4  33.5  34140  289.23 0855.21
2009/04/23 10:09:52.3     -81   -128     74    152    169 212.6  27.8  34142  289.26 0855.21
2009/04/23 10:09:52.4     -68   -119    100    138    170 209.9  39.7  34144  289.31 0855.21
2009/04/23 10:09:52.5     -35    -72     77     81    111 206.3  48.5  34144  289.31 0855.21
2009/04/23 10:09:52.6     -10    -91     76     92    119 186.7  43.7  34144  289.30 0855.21
2009/04/23 10:09:52.7     -38    -53     50     66     82 216.1  41.2  34148  289.36 0855.21
2009/04/23 10:09:52.8     -19    -19     47     27     54 225.1  66.8  34148  289.36 0855.23
2009/04/23 10:09:52.9      -9    -27     63     29     69 200.0  73.1  34152  289.45 0855.23
2009/04/23 10:09:53.0     -13    -44     54     47     71 196.9  55.4  34154  289.46 0855.23
2009/04/23 10:09:53.1       9    -75     98     76    124 172.9  58.5  34148  289.36 0855.23
2009/04/23 10:09:53.2      40    -54     73     68     99 143.9  52.1  34146  289.35 0855.23
2009/04/23 10:09:53.3       8     26     17     28     32  18.3  35.5  34152  289.45 0855.23
2009/04/23 10:09:53.4      41    -11     15     43     46 105.1  19.2  34150  289.40 0855.23
2009/04/23 10:09:53.5      53     25     16     59     62  64.6  15.3  34152  289.45 0855.23
2009/04/23 10:09:53.6      38    -24     29     46     54 122.4  35.5  34158  289.53 0855.23
2009/04/23 10:09:53.7      50     37     34     63     71  53.1  31.3  34156  289.50 0855.23
2009/04/23 10:09:53.8      44    -43     95     62    113 134.0  64.6  34168  289.72 0855.23
2009/04/23 10:09:53.9      10     -3    115     11    115 108.4  90.0  34168  289.72 0855.23
2009/04/23 10:09:54.0      39    -89    127     98    160 156.4  58.5  34154  289.46 0855.23
2009/04/23 10:09:54.1      43   -128     66    136    151 161.3  27.3  34144  289.30 0855.23
2009/04/23 10:09:54.2      -7   -168     63    169    180 182.7  21.3  34142  289.28 0855.23
2009/04/23 10:09:54.3     -25   -136     35    139    144 190.7  14.3  34144  289.31 0855.23
2009/04/23 10:09:54.4      -8   -115     40    116    123 184.4  19.4  34146  289.35 0855.23
2009/04/23 10:09:54.5     -36    -74     43     83     93 206.3  29.3  34146  289.35 0855.23
2009/04/23 10:09:54.6      -6    -46     56     47     73 188.0  56.3  34154  289.46 0855.23
2009/04/23 10:09:54.7      13    -39     60     42     73 161.5  60.6  34158  289.53 0855.23
2009/04/23 10:09:54.8      14     -9     46     17     49 122.4  81.2  34160  289.58 0855.24
2009/04/23 10:09:54.9      57      0     58     58     82  90.0  50.1  34156  289.50 0855.24
2009/04/23 10:09:55.0      72     -5     70     73    101  94.3  48.5  34154  289.46 0855.24
2009/04/23 10:09:55.1      90     31     84     96    127  70.9  45.8  34160  289.57 0855.24
2009/04/23 10:09:55.2     126     82     21    151    153  56.7   8.0  34156  289.52 0855.24
2009/04/23 10:09:55.3     136     54     28    147    150  68.3  11.1  34172  289.77 0855.24
2009/04/23 10:09:55.4     113     11     31    114    119  84.3  15.3  34174  289.80 0855.24
2009/04/23 10:09:55.5      80    -18     78     83    113 102.8  48.5  34162  289.62 0855.24
2009/04/23 10:09:55.6      68    -32     81     76    111 115.4  52.1  34156  289.52 0855.24
2009/04/23 10:09:55.7      15   -139     95    140    169 173.8  37.3  34148  289.36 0855.24
2009/04/23 10:09:55.8       9   -104    105    105    148 174.7  50.1  34150  289.41 0855.24
2009/04/23 10:09:55.9       5   -130    128    131    183 177.8  49.4  34146  289.33 0855.24
2009/04/23 10:09:56.0     105    -81     98    133    165 127.8  39.9  34146  289.35 0855.24
2009/04/23 10:09:56.1       0    -81     79     82    113 180.0  49.4  34150  289.40 0855.24
2009/04/23 10:09:56.2     -26   -131     90    134    161 191.5  37.3  34144  289.30 0855.24
2009/04/23 10:09:56.3       0   -158    115    159    196 180.0  39.7  34148  289.38 0855.24
2009/04/23 10:09:56.4       2   -167     65    168    180 179.3  22.0  34148  289.36 0855.24
2009/04/23 10:09:56.5     -46   -172     38    179    184 195.1  12.2  34146  289.33 0855.24
2009/04/23 10:09:56.6     -54   -159     58    169    179 198.9  19.2  34146  289.35 0855.24
2009/04/23 10:09:56.7     -99   -180     89    206    224 208.7  24.9  34144  289.31 0855.24
2009/04/23 10:09:56.8    -129   -181     67    223    233 215.4  16.8  34142  289.28 0855.25
2009/04/23 10:09:56.9     -96   -166     64    193    204 210.1  18.6  34144  289.30 0855.25
2009/04/23 10:09:57.0     -39   -143    105    149    182 195.2  38.6  34148  289.36 0855.25
2009/04/23 10:09:57.1     -54   -184     74    192    205 196.5  22.3  34144  289.30 0855.25
2009/04/23 10:09:57.2     -26   -145    103    148    180 190.2  38.4  34144  289.31 0855.25
2009/04/23 10:09:57.3     -44   -132    112    140    179 198.7  43.0  34146  289.35 0855.25
2009/04/23 10:09:57.4     -83   -122     82    148    169 214.2  31.6  34148  289.38 0855.25
2009/04/23 10:09:57.5     -42   -108     81    117    142 201.4  38.0  34152  289.43 0855.25
2009/04/23 10:09:57.6     -90   -116     66    147    161 217.9  25.7  34148  289.36 0855.25
2009/04/23 10:09:57.7    -125    -99      5    160    161 231.4   2.1  34150  289.40 0855.25
2009/04/23 10:09:57.8    -122   -109      8    164    165 228.2   2.9  34150  289.40 0855.25
2009/04/23 10:09:57.9    -122   -120     39    172    177 225.6  12.9  34150  289.40 0855.25
2009/04/23 10:09:58.0    -137   -123     -3    185    186 228.0  -1.2  34146  289.35 0855.25
2009/04/23 10:09:58.1    -166   -117      2    204    205 234.7   0.8  34146  289.35 0855.25
2009/04/23 10:09:58.2    -166   -129    -10    211    212 232.2  -2.8  34144  289.31 0855.25
2009/04/23 10:09:58.3    -157   -123     -9    200    201 232.0  -2.6  34146  289.35 0855.25
2009/04/23 10:09:58.4    -165    -87     -7    187    188 242.2  -2.2  34142  289.28 0855.25
2009/04/23 10:09:58.5    -134    -53     28    145    148 248.3  11.1  34146  289.35 0855.25
2009/04/23 10:09:58.6    -117    -39      6    124    125 251.4   2.8  34146  289.35 0855.25
2009/04/23 10:09:58.7     -83     -7    -15     84     86 264.8 -10.3  34150  289.40 0855.25
2009/04/23 10:09:58.8      -5     31     29     32     43 350.2  47.9  34158  289.53 0855.27
2009/04/23 10:09:58.9      71     28     63     77     99  68.3  43.7  34168  289.72 0855.27
2009/04/23 10:09:59.0      80    -15     54     82     98 100.6  36.5  34160  289.58 0855.27
2009/04/23 10:09:59.1     103    -59     72    119    139 119.8  34.0  34154  289.46 0855.27
2009/04/23 10:09:59.2      34    -74    135     82    157 155.1  66.0  34152  289.45 0855.27
2009/04/23 10:09:59.3      -1     36     95     37    101 357.4  77.6  34160  289.57 0855.27
2009/04/23 10:09:59.4      -4   -173     89    174    195 181.6  29.1  34136  289.18 0855.27
2009/04/23 10:09:59.5     -51   -190     90    197    216 195.2  26.2  34140  289.24 0855.27
2009/04/23 10:09:59.6     -32   -135     62    139    152 193.4  25.7  34142  289.28 0855.27
2009/04/23 10:09:59.7      25    -58     52     64     82 156.4  43.7  34146  289.33 0855.27
2009/04/23 10:09:59.8     -16    -64     63     67     91 194.3  48.5  34148  289.38 0855.27
2009/04/23 10:09:59.9     -29    -59     76     66    100 206.3  54.3  34140  289.23 0855.27
2009/04/23 10:10:00.0      -5    -90    156     91    180 183.6  67.2  34152  289.43 0855.27
2009/04/23 10:10:00.1     -26   -116    139    120    183 192.9  54.8  34148  289.38 0855.27
2009/04/23 10:10:00.2      56      0    108     57    122  90.0  70.4  34154  289.46 0855.27
2009/04/23 10:10:00.3      81     22     72     85    111  74.5  44.3  34154  289.46 0855.27
2009/04/23 10:10:00.4      91     58    117    108    159  57.5  52.5  34164  289.63 0855.27
2009/04/23 10:10:00.5      80    -35    102     88    134 114.0  54.8  34170  289.74 0855.27
2009/04/23 10:10:00.6     -82      3    115     83    141 272.6  60.5  34158  289.55 0855.27
2009/04/23 10:10:00.7       1    -31     74     32     80 177.3  75.0  34154  289.48 0855.27
2009/04/23 10:10:00.8     -21   -109     28    112    116 191.1  14.3  34152  289.43 0855.27
2009/04/23 10:10:00.9       4    -36     19     37     41 173.8  29.3  34158  289.53 0855.27
2009/04/23 10:10:01.0      24    -24     76     34     83 134.9  74.5  34164  289.63 0855.27
2009/04/23 10:10:01.1     -19    -89    109     92    142 192.5  55.8  34160  289.58 0855.27
2009/04/23 10:10:01.2     -75   -215    230    228    323 199.4  50.1  34154  289.47 0855.27
2009/04/23 10:10:01.3     -98   -171    131    198    237 209.9  36.5  34152  289.43 0855.27
2009/04/23 10:10:01.4     -26   -146     68    149    163 190.2  25.9  34148  289.36 0855.27
2009/04/23 10:10:01.5      71    -53     70     89    113 126.9  42.7  34152  289.45 0855.27
2009/04/23 10:10:01.6      58     18    115     61    130  72.3  69.8  34158  289.55 0855.27
2009/04/23 10:10:01.7      13     54    139     56    149  14.3  77.1  34164  289.65 0855.27
2009/04/23 10:10:01.8     206    170    190    268    328  50.4  38.8  34158  289.53 0855.27
2009/04/23 10:10:01.9     158    170    133    233    268  43.0  32.3  34176  289.85 0855.27
2009/04/23 10:10:02.0     118     90    169    149    225  52.7  54.3  34174  289.80 0855.27
2009/04/23 10:10:02.1      81     93    132    124    181  41.0  52.1  34194  290.16 0855.27
2009/04/23 10:10:02.2      57     47    142     75    160  50.5  70.0  34190  290.08 0855.27
2009/04/23 10:10:02.3      15    -45    123     48    132 161.3  78.2  34190  290.09 0855.27
2009/04/23 10:10:02.4      60    -28     69     67     96 115.2  50.1  34180  289.92 0855.27
2009/04/23 10:10:02.5      20     60     94     64    113  18.7  63.2  34166  289.69 0855.27
2009/04/23 10:10:02.6     -83     94    120    126    174 318.6  49.0  34164  289.63 0855.27
2009/04/23 10:10:02.7    -141    -90    107    168    199 237.6  35.5  34168  289.72 0855.27
2009/04/23 10:10:02.8     -34   -104    146    110    182 198.3  59.4  34162  289.60 0855.24
2009/04/23 10:10:02.9      10   -183    122    184    220 176.6  36.7  34148  289.36 0855.24
2009/04/23 10:10:03.0      16   -189    119    190    224 175.1  35.5  34146  289.35 0855.24
2009/04/23 10:10:03.1      32   -158    104    162    192 168.5  35.6  34144  289.31 0855.24
2009/04/23 10:10:03.2      36   -101    120    108    161 160.4  53.3  34152  289.45 0855.24
2009/04/23 10:10:03.3      31    -40    119     51    129 142.2  75.0  34156  289.52 0855.24
2009/04/23 10:10:03.4      69   -143     88    160    182 154.1  31.4  34146  289.35 0855.24
2009/04/23 10:10:03.5     129   -212    135    249    283 148.6  30.8  34146  289.32 0855.24
2009/04/23 10:10:03.6      55   -222    143    229    269 166.0  35.5  34146  289.34 0855.24
2009/04/23 10:10:03.7      28   -252    110    254    276 173.5  25.1  34144  289.31 0855.24
2009/04/23 10:10:03.8      47   -233     74    238    250 168.5  17.4  34142  289.25 0855.24
2009/04/23 10:10:03.9      34   -193    124    197    232 169.8  35.5  34144  289.31 0855.24
2009/04/23 10:10:04.0      -9   -208     44    209    214 182.5  12.0  34144  289.31 0855.24
2009/04/23 10:10:04.1     -17   -232    113    233    258 184.4  27.8  34146  289.34 0855.24
2009/04/23 10:10:04.2      20   -283     98    284    301 175.8  19.2  34148  289.36 0855.24
2009/04/23 10:10:04.4     -41   -251    104    255    275 189.3  23.4  34148  289.36 0855.24
2009/04/23 10:10:04.4     -32   -225     51    228    234 188.1  12.6  34144  289.30 0855.24
2009/04/23 10:10:04.6      -3   -249     57    250    257 180.7  12.9  34144  289.31 0855.24
2009/04/23 10:10:04.6     -18   -288    114    289    310 183.6  23.0  34144  289.31 0855.24
2009/04/23 10:10:04.7     -16   -264    114    265    288 183.6  24.9  34150  289.39 0855.24
2009/04/23 10:10:04.8      26   -279    159    281    322 174.7  32.0  34146  289.32 0855.22
2009/04/23 10:10:05.0      58   -276    113    283    304 168.0  23.0  34148  289.36 0855.22
2009/04/23 10:10:05.1      27   -235     78    237    250 173.3  18.4  34148  289.36 0855.22
2009/04/23 10:10:05.2      37   -232     15    236    237 170.9   3.8  34150  289.39 0855.22
2009/04/23 10:10:05.3      20   -268     47    269    274 175.5   9.9  34154  289.46 0855.22
2009/04/23 10:10:05.4      23   -227     11    229    230 174.0   2.8  34156  289.52 0855.22
2009/04/23 10:10:05.5       9   -206     40    207    211 177.3  11.0  34158  289.55 0855.22
2009/04/23 10:10:05.6     -51   -196     39    203    207 194.7  11.0  34156  289.50 0855.22
2009/04/23 10:10:05.7      30   -192     76    195    209 171.1  22.3  34164  289.63 0855.22
2009/04/23 10:10:05.8      29   -182     40    185    190 170.9  12.4  34156  289.52 0855.22
2009/04/23 10:10:05.9      35   -186     51    190    197 169.3  15.3  34152  289.45 0855.22
2009/04/23 10:10:06.0      39   -193     59    197    206 168.5  16.8  34156  289.50 0855.22
2009/04/23 10:10:06.1      46   -165     52    172    180 164.2  17.1  34154  289.48 0855.22
2009/04/23 10:10:06.2      19   -161     69    163    177 173.3  24.3  34156  289.52 0855.22
2009/04/23 10:10:06.3     -38   -251     88    254    270 188.7  19.2  34158  289.53 0855.22
2009/04/23 10:10:06.4     -90   -220     39    238    242 202.3   9.3  34156  289.49 0855.22
2009/04/23 10:10:06.5     -13   -178     76    179    194 184.2  24.3  34154  289.46 0855.22
2009/04/23 10:10:06.6     100   -168     45    196    202 149.3  13.1  34158  289.55 0855.22
2009/04/23 10:10:06.7      65   -118     66    135    150 151.0  27.3  34160  289.57 0855.22
2009/04/23 10:10:06.8     117   -176    -29    212    215 146.2  -8.0  34150  289.40 0855.22
2009/04/23 10:10:06.9     117   -248     21    275    276 154.8   4.4  34144  289.31 0855.22
2009/04/23 10:10:07.0      95   -243     22    262    264 158.6   4.9  34148  289.36 0855.22
2009/04/23 10:10:07.1      63   -196     62    206    216 162.2  16.8  34142  289.26 0855.22
2009/04/23 10:10:07.2      59   -142     92    155    180 157.3  33.5  34148  289.36 0855.22
2009/04/23 10:10:07.3      29   -148     64    151    164 168.9  24.1  34146  289.35 0855.22
2009/04/23 10:10:07.4       7   -192    112    193    223 177.8  32.9  34144  289.31 0855.22
2009/04/23 10:10:07.5      15   -168    101    169    196 174.7  33.5  34146  289.35 0855.22
2009/04/23 10:10:07.6      -2   -144     81    145    166 181.0  31.9  34146  289.33 0855.22
2009/04/23 10:10:07.7      32   -132     94    136    165 166.2  38.0  34146  289.33 0855.22
2009/04/23 10:10:07.8      61   -150    108    163    195 157.7  36.7  34150  289.41 0855.22
2009/04/23 10:10:07.9      56   -146     32    157    161 159.1  11.6  34146  289.33 0855.22
2009/04/23 10:10:08.0      63   -113     30    130    134 151.0  13.1  34150  289.40 0855.22
2009/04/23 10:10:08.1      84    -90     14    124    125 136.8   6.9  34148  289.36 0855.22
2009/04/23 10:10:08.2      28    -89     33     94    100 162.6  19.4  34148  289.36 0855.22
2009/04/23 10:10:08.3     -47    -68     12     83     84 214.7   8.5  34148  289.36 0855.22
2009/04/23 10:10:08.4     -43    -85     50     96    108 207.2  29.3  34144  289.31 0855.22
2009/04/23 10:10:08.5    -116   -115     60    164    174 225.3  20.4  34148  289.36 0855.22
2009/04/23 10:10:08.6    -100   -143     -6    175    176 215.0  -2.1  34152  289.43 0855.22
2009/04/23 10:10:08.7     -35   -159    -15    164    165 192.7  -5.4  34148  289.38 0855.22
2009/04/23 10:10:08.8     -78   -167    -23    185    187 205.2  -7.2  34146  289.33 0855.22
2009/04/23 10:10:08.9    -100   -212    -67    235    244 205.2 -20.8  34150  289.41 0855.24
2009/04/23 10:10:09.0     -15   -214    -43    215    220 184.0 -11.5  34146  289.35 0855.24
2009/04/23 10:10:09.1    -108    -69   -147    129    195 237.5 -58.7  34148  289.38 0855.24
2009/04/23 10:10:09.2     -84    -33   -118     91    149 248.7 -62.9  34154  289.46 0855.24
2009/04/23 10:10:09.3       3    -74    -13     75     77 177.3 -10.3  34144  289.31 0855.24
2009/04/23 10:10:09.4     -42    -89     58     99    114 205.5  33.5  34154  289.48 0855.24
2009/04/23 10:10:09.5     -34    -72     70     80    106 205.3  46.4  34158  289.53 0855.24
2009/04/23 10:10:09.6     -33    -93     55     99    113 199.6  31.4  34152  289.45 0855.24
2009/04/23 10:10:09.7     103    -49     31    115    120 115.8  15.3  34150  289.41 0855.24
2009/04/23 10:10:09.8     131    -47      6    140    141 109.9   2.8  34144  289.31 0855.24
2009/04/23 10:10:09.9     145    -11     27    146    149  94.4  10.6  34142  289.28 0855.24
2009/04/23 10:10:10.0      50    -23    115     56    127 115.2  72.8  34160  289.57 0855.24
2009/04/23 10:10:10.1      32    -67    141     75    159 154.7  69.8  34156  289.52 0855.24
2009/04/23 10:10:10.2       2    -38    119     39    125 175.6  80.7  34154  289.46 0855.24
2009/04/23 10:10:10.3     -24     17    116     30    119 306.0  85.4  34166  289.67 0855.24
2009/04/23 10:10:10.4      20     20    108     29    111  45.0  84.9  34168  289.72 0855.24
2009/04/23 10:10:10.5      19     63    103     66    122  16.9  64.6  34168  289.70 0855.24
2009/04/23 10:10:10.6     -19     43     93     48    104 336.4  70.4  34166  289.67 0855.24
2009/04/23 10:10:10.7      71      5     97     72    120  85.7  60.0  34162  289.60 0855.24
2009/04/23 10:10:10.8      41     43     51     60     78  44.2  45.4  34154  289.46 0855.24
2009/04/23 10:10:10.9     -64     13     22     66     70 281.4  18.4  34158  289.53 0855.24
2009/04/23 10:10:11.0      -1     73     29     74     79 359.1  22.0  34160  289.57 0855.24
2009/04/23 10:10:11.1     111     81    121    138    183  53.6  46.2  34178  289.87 0855.24
2009/04/23 10:10:11.2      33     53     95     63    113  32.6  64.1  34190  290.09 0855.24
2009/04/23 10:10:11.3      78    -44    109     90    141 119.3  56.4  34182  289.94 0855.24
2009/04/23 10:10:11.4      -1    -11    109     12    109 188.0  90.0  34198  290.21 0855.24
2009/04/23 10:10:11.5      -6    -16     59     18     61 201.8  82.8  34224  290.67 0855.24
2009/04/23 10:10:11.6      35     16     89     39     97  64.6  75.0  34260  291.28 0855.24
2009/04/23 10:10:11.7      37     40     63     55     83  43.2  53.7  34274  291.52 0855.24
2009/04/23 10:10:11.8      26     15     41     31     51  59.3  58.5  34284  291.69 0855.24
2009/04/23 10:10:11.9       6    -14     16     16     22 154.6  50.1  34288  291.76 0855.26
2009/04/23 10:10:12.0      35    -28      4     45     46 128.6   5.9  34294  291.86 0855.26
2009/04/23 10:10:12.1       4    -64      6     65     66 175.6   5.9  34262  291.32 0855.26
2009/04/23 10:10:12.2       6    -62     -4     63     64 173.8  -4.1  34254  291.16 0855.26
2009/04/23 10:10:12.3     123    -72      9    143    144 120.7   3.8  34284  291.69 0855.26
2009/04/23 10:10:12.4      73     70     95    102    139  46.0  47.9  34288  291.76 0855.26
2009/04/23 10:10:12.5     201     40    119    206    237  78.6  32.4  34290  291.77 0855.26
2009/04/23 10:10:12.6     221     25     91    223    240  83.4  23.4  34282  291.65 0855.26
2009/04/23 10:10:12.7     164     -7      2    165    166  92.6   1.0  34282  291.64 0855.26
2009/04/23 10:10:12.8     236    -15     69    237    247  93.7  16.3  34236  290.87 0855.26
2009/04/23 10:10:12.9     248     44    115    252    277  79.9  26.2  34254  291.16 0855.26
2009/04/23 10:10:13.0     362     67     86    369    380  79.5  13.2  34256  291.20 0855.26
2009/04/23 10:10:13.1     274     80    100    286    304  73.6  19.3  34250  291.10 0855.26
2009/04/23 10:10:13.2     327    148    128    360    382  65.6  20.3  34264  291.34 0855.26
2009/04/23 10:10:13.3     375    156     49    407    410  67.4   6.9  34242  290.97 0855.26
2009/04/23 10:10:13.4     451     72     25    457    458  80.9   3.2  34212  290.44 0855.26
2009/04/23 10:10:13.5     396    170     60    432    437  66.7   8.0  34218  290.55 0855.26
2009/04/23 10:10:13.6     402    172     97    438    449  66.8  12.5  34244  290.99 0855.26
2009/04/23 10:10:13.7     446    140    100    468    479  72.6  12.2  34222  290.61 0855.26
2009/04/23 10:10:13.8     442     16    116    443    458  87.9  14.7  34200  290.24 0855.26
2009/04/23 10:10:13.9     391     37    138    393    416  84.5  20.0  34194  290.14 0855.26
2009/04/23 10:10:14.0     335    -33    119    337    358  95.7  19.6  34192  290.11 0855.26
2009/04/23 10:10:14.1     281    -66     56    289    295 103.3  11.1  34192  290.10 0855.26
2009/04/23 10:10:14.2     334    -11     76    335    344  91.9  12.9  34198  290.23 0855.26
2009/04/23 10:10:14.3     383    125     71    403    410  71.9  10.1  34186  290.02 0855.26
2009/04/23 10:10:14.4     393    137     68    417    423  70.7   9.3  34218  290.56 0855.26
2009/04/23 10:10:14.5     302    193    132    359    382  57.4  21.0  34212  290.47 0855.26
2009/04/23 10:10:14.6     340     60    121    346    366  80.0  20.0  34208  290.37 0855.26
2009/04/23 10:10:14.7     237    -75    151    249    291 107.7  34.4  34188  290.03 0855.26
2009/04/23 10:10:14.8     200    -75    131    214    250 110.8  34.5  34208  290.37 0855.26
2009/04/23 10:10:14.9     231    -83    117    246    272 109.9  27.3  34218  290.54 0855.26
2009/04/23 10:10:15.0     314    -43    162    317    355  97.9  29.2  34224  290.67 0855.26
2009/04/23 10:10:15.1     251    -86    143    266    302 109.0  30.8  34214  290.49 0855.26
2009/04/23 10:10:15.2     232    -88    126    249    279 110.9  29.1  34218  290.54 0855.26
2009/04/23 10:10:15.3     219    -96    106    240    262 113.7  25.2  34214  290.49 0855.26
2009/04/23 10:10:15.4      79   -143     38    164    169 151.0  13.2  34212  290.47 0855.26
2009/04/23 10:10:15.5     197    -81    130    214    250 112.4  34.4  34222  290.61 0855.26
2009/04/23 10:10:15.6     207   -138     87    249    264 123.7  19.4  34208  290.39 0855.26
2009/04/23 10:10:15.7     227    -83    143    242    281 110.2  33.5  34174  289.80 0855.26
2009/04/23 10:10:15.8     293   -101    130    311    337 109.1  23.9  34164  289.63 0855.26
2009/04/23 10:10:15.9     216    -45    174    221    281 101.9  42.2  34176  289.83 0855.18
2009/04/23 10:10:16.0     157    -38    193    162    251 103.9  55.8  34172  289.77 0855.18
2009/04/23 10:10:16.1     225    -30    118    228    256  97.7  29.5  34164  289.64 0855.18
2009/04/23 10:10:16.2     161    -27    172    164    237  99.5  51.4  34180  289.92 0855.18
2009/04/23 10:10:16.3     133    -26    159    136    209 101.4  55.4  34178  289.89 0855.18
2009/04/23 10:10:16.4      78    -23    153     82    173 106.8  69.6  34188  290.06 0855.18
2009/04/23 10:10:16.5      17     29    131     34    135  30.7  85.4  34188  290.06 0855.18
2009/04/23 10:10:16.6       0      0     61      1     61 189.7  90.0  34172  289.77 0855.18
2009/04/23 10:10:16.7     -59    -59     38     84     92 225.0  26.2  34164  289.65 0855.18
2009/04/23 10:10:16.8     -17    -83    113     85    141 192.0  59.4  34166  289.67 0855.18
2009/04/23 10:10:16.9      52   -109     91    121    151 154.5  41.2  34154  289.48 0855.18
2009/04/23 10:10:17.0      60   -127    107    141    177 154.5  41.2  34150  289.40 0855.18
2009/04/23 10:10:17.1      58   -114    108    129    168 152.8  44.3  34154  289.46 0855.18
2009/04/23 10:10:17.2      31   -114     97    119    153 164.9  43.7  34154  289.46 0855.18
2009/04/23 10:10:17.3       7   -114    113    115    161 176.4  49.8  34154  289.46 0855.18
2009/04/23 10:10:17.4     -10   -163    111    164    198 183.8  37.4  34150  289.41 0855.18
2009/04/23 10:10:17.5       2   -183     77    184    199 179.3  23.8  34148  289.36 0855.18
2009/04/23 10:10:17.6    -107   -186     41    215    220 209.9  11.0  34148  289.38 0855.18
2009/04/23 10:10:17.7    -105   -216     -2    241    242 205.9  -0.5  34158  289.54 0855.18
2009/04/23 10:10:17.8      -3   -238      2    239    240 180.9   0.5  34152  289.42 0855.14
2009/04/23 10:10:17.9      -6   -201    -64    202    212 181.8 -17.6  34152  289.43 0855.14
2009/04/23 10:10:18.0     -54   -230    -36    237    240 193.4  -8.8  34158  289.54 0855.14
2009/04/23 10:10:18.1       0   -234    -55    235    242 180.0 -13.3  34154  289.47 0855.14
2009/04/23 10:10:18.2      48   -241    -76    246    257 168.7 -22.1  34156  289.49 0855.14
2009/04/23 10:10:18.3       0   -304     13    305    306 179.9   2.5  34152  289.42 0855.14
2009/04/23 10:10:18.4     -42   -299     36    303    306 188.1   6.9  34152  289.44 0855.14
2009/04/23 10:10:18.5      -5   -355    103    356    371 180.9  16.1  34150  289.40 0855.14
2009/04/23 10:10:18.6     -41   -385    160    388    419 186.1  23.7  34162  289.61 0855.14
2009/04/23 10:10:18.7     -87   -354    261    365    448 193.8  39.2  34166  289.66 0855.14
2009/04/23 10:10:18.8     -77   -232     67    245    254 198.5  15.3  34162  289.61 0855.14
2009/04/23 10:10:18.9     -45   -371   -111    374    391 187.0 -16.5  34164  289.65 0855.14
2009/04/23 10:10:19.0      -8   -462     65    463    468 181.0   8.0  34152  289.44 0855.14
2009/04/23 10:10:19.1     -26   -439     33    440    442 183.5   4.3  34142  289.26 0855.14
2009/04/23 10:10:19.2      10   -397     40    398    401 178.5   5.8  34142  289.26 0855.14
2009/04/23 10:10:19.3      68   -346    122    353    374 168.9  19.2  34146  289.33 0855.14
2009/04/23 10:10:19.4      21   -280    101    281    298 175.5  20.7  34154  289.46 0855.14
2009/04/23 10:10:19.5      -5   -300     87    301    314 181.0  16.1  34154  289.47 0855.14
2009/04/23 10:10:19.6      45   -292    103    296    314 171.1  19.2  34152  289.42 0855.14
2009/04/23 10:10:19.7      58   -265    127    272    300 167.5  27.1  34150  289.39 0855.14
2009/04/23 10:10:19.8      40   -287    186    290    344 172.0  35.6  34148  289.37 0855.14
2009/04/23 10:10:19.9      50   -297    163    302    343 170.4  30.7  34152  289.42 0855.14
2009/04/23 10:10:20.0       4   -250    155    251    295 178.9  34.8  34150  289.39 0855.14
2009/04/23 10:10:20.1      21   -296    170    297    342 175.8  32.4  34154  289.46 0855.14
2009/04/23 10:10:20.2      -5   -317    198    318    374 181.0  35.0  34162  289.59 0855.14
2009/04/23 10:10:20.3      39   -391    165    394    427 174.2  24.1  34156  289.49 0855.14
2009/04/23 10:10:20.4      53   -301    216    306    374 170.0  38.8  34162  289.62 0855.14
2009/04/23 10:10:20.5     -21   -242    162    244    292 185.1  36.7  34158  289.53 0855.14
2009/04/23 10:10:20.6     -13   -291    113    292    313 182.6  22.2  34152  289.44 0855.14
2009/04/23 10:10:20.7     -98   -248    138    267    300 201.6  29.3  34162  289.59 0855.14
2009/04/23 10:10:20.8     -21   -206    172    208    269 186.0  43.8  34160  289.58 0855.14
2009/04/23 10:10:20.9     -48   -170    146    177    229 196.0  43.7  34158  289.53 0855.14
2009/04/23 10:10:21.0      -9   -112    107    113    155 184.9  48.7  34162  289.60 0855.14
2009/04/23 10:10:21.1     -11   -116    129    117    174 185.8  53.0  34164  289.63 0855.14
2009/04/23 10:10:21.2      28    -43    110     52    121 146.6  72.9  34170  289.75 0855.14
2009/04/23 10:10:21.3      35    -63     81     73    109 151.0  52.7  34168  289.70 0855.14
2009/04/23 10:10:21.4      18   -200     90    201    220 174.7  25.7  34154  289.48 0855.14
2009/04/23 10:10:21.5       2   -237     86    238    253 179.5  20.4  34148  289.36 0855.14
2009/04/23 10:10:21.6     -67   -208    133    219    256 198.0  34.4  34150  289.39 0855.14
2009/04/23 10:10:21.7     -24   -164    123    166    206 188.5  40.4  34146  289.33 0855.14
2009/04/23 10:10:21.8      18   -154    113    156    192 173.3  39.5  34150  289.40 0855.14
2009/04/23 10:10:21.9     -72   -141     11    159    160 207.1   4.2  34144  289.31 0855.16
2009/04/23 10:10:22.0     -17    -98      9    100    101 190.2   5.4  34148  289.36 0855.16
2009/04/23 10:10:22.1      20    -73     20     76     79 164.0  15.3  34150  289.41 0855.16
2009/04/23 10:10:22.2      -6    -84     23     85     89 184.4  15.3  34150  289.40 0855.16
2009/04/23 10:10:22.3     -10    -72     -2     73     74 188.0  -2.2  34146  289.33 0855.16
2009/04/23 10:10:22.4      67   -138     -3    154    155 154.1  -1.2  34144  289.31 0855.16
2009/04/23 10:10:22.5     112   -226     45    253    258 153.7  10.1  34144  289.29 0855.16
2009/04/23 10:10:22.6      98   -303     15    319    320 162.1   2.8  34144  289.29 0855.16
2009/04/23 10:10:22.7     117   -266     25    291    293 156.2   5.0  34148  289.36 0855.16
2009/04/23 10:10:22.8     170   -167      4    239    240 134.4   1.0  34148  289.36 0855.16
2009/04/23 10:10:22.9     151   -195      6    247    248 142.2   1.6  34148  289.37 0855.16
2009/04/23 10:10:23.0      76   -175     23    192    194 156.4   6.9  34146  289.33 0855.16
2009/04/23 10:10:23.1       0   -202    -26    203    205 179.8  -7.3  34146  289.33 0855.16
2009/04/23 10:10:23.2      24   -194     -3    196    197 172.9  -1.2  34146  289.35 0855.16
2009/04/23 10:10:23.3      24   -174    -48    176    183 172.0 -15.4  34146  289.35 0855.16
2009/04/23 10:10:23.4      34   -180     42    184    189 169.3  12.9  34146  289.33 0855.16
2009/04/23 10:10:23.5     -26   -176     16    178    179 188.5   5.4  34146  289.35 0855.16
2009/04/23 10:10:23.6     -29   -208    -17    211    212 188.0  -4.9  34146  289.35 0855.16
2009/04/23 10:10:23.7     -21   -276    -22    277    278 184.4  -4.6  34146  289.34 0855.16
2009/04/23 10:10:23.8       0   -283     -5    284    285 180.0  -1.2  34146  289.32 0855.16
2009/04/23 10:10:23.9      61   -280    -95    287    302 167.6 -23.8  34148  289.36 0855.17
2009/04/23 10:10:24.0      24   -178    -53    180    187 172.2 -21.2  34152  289.45 0855.17
2009/04/23 10:10:24.1      52   -119    -64    131    145 156.3 -31.7  34150  289.41 0855.17
2009/04/23 10:10:24.2      33    -52    -32     62     69 147.4 -33.7  34150  289.41 0855.17
2009/04/23 10:10:24.3     -26    -11    -11     29     31 246.5 -25.4  34150  289.41 0855.17
2009/04/23 10:10:24.4     -62     16     22     65     69 285.1  19.4  34156  289.50 0855.17
2009/04/23 10:10:24.5     -89     65     32    111    116 305.9  16.3  34154  289.48 0855.17
2009/04/23 10:10:24.6    -109     58     34    124    129 298.4  15.3  34154  289.48 0855.17
2009/04/23 10:10:24.7    -117    128    -42    174    180 317.7 -13.7  34146  289.35 0855.17
2009/04/23 10:10:24.8    -109    183    -27    214    216 329.3  -7.2  34148  289.38 0855.17
2009/04/23 10:10:24.9     -76    229    -75    242    253 341.5 -22.5  34146  289.34 0855.17
2009/04/23 10:10:25.0    -121    278   -126    304    329 336.4 -28.3  34144  289.31 0855.17
2009/04/23 10:10:25.1    -224      3   -131    225    260 270.8 -37.5  34150  289.41 0855.17
2009/04/23 10:10:25.2    -185    118    -75    220    233 302.6 -18.9  34148  289.38 0855.17
2009/04/23 10:10:25.3     -69    163    -49    178    184 337.1 -20.0  34148  289.36 0855.17
2009/04/23 10:10:25.4    -104    202     -5    228    229 332.6  -1.3  34150  289.40 0855.17
2009/04/23 10:10:25.5    -172    180    -13    249    250 316.3  -3.1  34152  289.44 0855.17
2009/04/23 10:10:25.6    -284     85     23    297    298 286.8   4.6  34160  289.58 0855.17
2009/04/23 10:10:25.7    -322    170   -104    365    379 297.9 -20.5  34168  289.71 0855.17
2009/04/23 10:10:25.8    -332    103   -188    348    395 287.3 -35.1  34156  289.50 0855.17
2009/04/23 10:10:25.9    -342   -116   -116    362    380 251.2 -23.0  34158  289.54 0855.19
2009/04/23 10:10:26.0    -307   -226    -59    382    387 233.6  -8.9  34162  289.59 0855.19
2009/04/23 10:10:26.1    -286    -91    -27    301    303 252.3  -5.2  34158  289.54 0855.19
2009/04/23 10:10:26.2    -107   -261     13    283    284 202.3   2.8  34156  289.49 0855.19
2009/04/23 10:10:26.3    -370   -123     51    390    394 251.6   7.5  34156  289.50 0855.19
2009/04/23 10:10:26.4    -333   -157   -101    369    383 244.7 -15.4  34146  289.35 0855.19
2009/04/23 10:10:26.5    -386   -128    -64    407    413 251.6  -9.0  34126  289.00 0855.19
2009/04/23 10:10:26.6    -467    -48   -126    470    487 264.1 -15.1  34126  289.01 0855.19
2009/04/23 10:10:26.7    -437   -204   -146    483    504 245.0 -21.7  34136  289.15 0855.19
2009/04/23 10:10:26.8    -420   -218   -172    474    504 242.6 -25.2  34134  289.13 0855.19
2009/04/23 10:10:26.9    -279   -231    -85    363    373 230.3 -13.3  34142  289.25 0855.19
2009/04/23 10:10:27.0    -165   -262    -68    310    318 212.3 -12.4  34136  289.17 0855.19
2009/04/23 10:10:27.1    -166   -188    -23    252    254 221.4  -5.4  34142  289.25 0855.19
2009/04/23 10:10:27.2    -206     -1    -88    207    224 269.6 -29.0  34146  289.33 0855.19
2009/04/23 10:10:27.3    -193    -17    -58    194    203 264.8 -16.6  34144  289.31 0855.19
2009/04/23 10:10:27.4     -97    -84      6    129    130 229.1   2.9  34148  289.36 0855.19
2009/04/23 10:10:27.5     -74   -186    -25    201    203 201.9  -7.3  34146  289.33 0855.19
2009/04/23 10:10:27.6      -1   -192     23    193    195 180.5   6.9  34148  289.38 0855.19
2009/04/23 10:10:27.7     -19   -313     36    314    317 183.6   6.7  34146  289.34 0855.19
2009/04/23 10:10:27.8      46   -333     28    337    339 172.1   4.9  34148  289.37 0855.19
2009/04/23 10:10:27.9      70   -259     27    269    271 164.8   5.9  34150  289.39 0855.18
2009/04/23 10:10:28.0     140   -218     26    260    262 147.4   5.9  34148  289.37 0855.18
2009/04/23 10:10:28.1      79   -280      0    291    292 164.2   0.0  34148  289.36 0855.18
2009/04/23 10:10:28.2      21   -446     29    447    448 177.2   3.7  34142  289.26 0855.18
2009/04/23 10:10:28.3      38   -492     27    494    495 175.5   3.1  34140  289.23 0855.18
2009/04/23 10:10:28.4     -47   -471      5    474    475 185.8   0.7  34144  289.30 0855.18
2009/04/23 10:10:28.5     -31   -412    -15    414    415 184.4  -2.1  34138  289.19 0855.18
2009/04/23 10:10:28.6     -34   -459     47    461    464 184.2   5.9  34134  289.12 0855.18
2009/04/23 10:10:28.7     -46   -431     12    434    435 186.2   1.6  34132  289.11 0855.18
2009/04/23 10:10:28.8       2   -478     31    479    480 179.7   3.7  34126  289.01 0855.18
2009/04/23 10:10:28.9     132   -546     92    562    570 166.3   9.3  34132  289.09 0855.18
2009/04/23 10:10:29.0     219   -397    164    454    482 151.1  20.7  34130  289.08 0855.18
2009/04/23 10:10:29.2     293   -402    153    498    522 143.9  17.1  34136  289.15 0855.18
2009/04/23 10:10:29.2     335   -397     82    520    527 139.8   9.0  34124  288.97 0855.18
2009/04/23 10:10:29.3     386   -442      8    587    588 138.9   0.8  34120  288.88 0855.18
2009/04/23 10:10:29.4     240   -326    238    405    469 143.6  33.1  34134  289.14 0855.18
2009/04/23 10:10:29.5     313   -324    272    451    526 136.0  34.0  34132  289.10 0855.18
2009/04/23 10:10:29.6     306   -391    284    497    572 141.9  32.3  34120  288.91 0855.18
2009/04/23 10:10:29.7     184   -423    208    462    506 156.5  25.8  34124  288.95 0855.18
2009/04/23 10:10:29.8     227   -370     26    435    436 148.5   3.5  34128  289.02 0855.18
2009/04/23 10:10:29.9     197   -450     18    492    493 156.3   2.1  34126  289.01 0855.17
2009/04/23 10:10:30.0     117   -392     71    410    417 163.4   9.9  34130  289.05 0855.17
2009/04/23 10:10:30.1     177   -597     30    623    624 163.5   2.8  34142  289.25 0855.17
2009/04/23 10:10:30.2      58   -646     73    649    654 174.8   6.5  34136  289.16 0855.17
2009/04/23 10:10:30.3      39   -669    -26    671    672 176.6  -2.3  34134  289.14 0855.17
2009/04/23 10:10:30.4     -75   -583    -48    588    591 187.4  -4.7  34134  289.14 0855.17
2009/04/23 10:10:30.5    -114   -583   -171    595    620 191.1 -16.0  34104  288.64 0855.17
2009/04/23 10:10:30.7    -148   -552   -114    572    584 195.0 -11.3  34112  288.76 0855.17
2009/04/23 10:10:30.7    -133   -544    -67    561    566 193.8  -6.9  34120  288.91 0855.17
2009/04/23 10:10:30.9    -214   -591    -83    629    635 200.0  -7.6  34088  288.35 0855.17
2009/04/23 10:10:31.0    -158   -494    -85    519    527 197.8  -9.3  34088  288.35 0855.18
2009/04/23 10:10:31.1    -124   -476    -74    493    499 194.7  -8.6  34112  288.76 0855.18
2009/04/23 10:10:31.2     -85   -516      6    524    525 189.4   0.7  34118  288.87 0855.18
2009/04/23 10:10:31.3     -54   -582    -18    585    586 185.3  -1.8  34090  288.39 0855.18
2009/04/23 10:10:31.4     -26   -557    -12    558    559 182.7  -1.3  34072  288.08 0855.18
2009/04/23 10:10:31.5     -44   -567     -8    569    570 184.5  -0.9  34072  288.09 0855.18
2009/04/23 10:10:31.6     -35   -558    -27    560    561 183.6  -2.8  34074  288.13 0855.18
2009/04/23 10:10:31.7     -18   -554    -25    555    556 181.9  -2.6  34072  288.09 0855.18
2009/04/23 10:10:31.8      -8   -548     -8    549    550 180.9  -0.9  34076  288.14 0855.18
2009/04/23 10:10:31.9     -36   -550    -15    552    553 183.8  -1.6  34090  288.38 0855.18
2009/04/23 10:10:32.0     -12   -564    -22    565    566 181.3  -2.3  34086  288.31 0855.18
2009/04/23 10:10:32.1       0   -570    -31    571    572 180.0  -3.1  34084  288.29 0855.18
2009/04/23 10:10:32.2     -30   -555    -18    556    557 183.1  -1.9  34094  288.47 0855.18
2009/04/23 10:10:32.3     -24   -530    -29    531    532 182.7  -3.1  34096  288.48 0855.18
2009/04/23 10:10:32.4     -34   -524    -29    526    527 183.7  -3.2  34094  288.45 0855.18
2009/04/23 10:10:32.5     -36   -505     25    507    508 184.1   2.9  34110  288.73 0855.18
2009/04/23 10:10:32.6     -15   -481      5    482    483 181.9   0.7  34104  288.64 0855.18
2009/04/23 10:10:32.7     -46   -441     -9    444    445 186.0  -1.3  34108  288.68 0855.18
2009/04/23 10:10:32.8     -11   -453    -10    454    455 181.5  -1.3  34120  288.89 0855.18
2009/04/23 10:10:32.9     -23   -481     -1    482    483 182.8  -0.2  34114  288.79 0855.18
2009/04/23 10:10:33.0     -47   -503    -10    506    507 185.4  -1.2  34104  288.64 0855.18
2009/04/23 10:10:33.1     -94   -469    -50    479    482 191.4  -6.0  34094  288.47 0855.18
2009/04/23 10:10:33.2     -81   -405    -75    414    421 191.4 -10.3  34094  288.45 0855.18
2009/04/23 10:10:33.3     -68   -397    -86    403    413 189.8 -12.2  34094  288.45 0855.18
2009/04/23 10:10:33.4    -150   -395    -31    423    425 200.9  -4.2  34092  288.43 0855.18
2009/04/23 10:10:33.5    -136   -391     25    415    416 199.2   3.5  34090  288.38 0855.18
2009/04/23 10:10:33.6    -155   -353    -23    386    387 203.7  -3.5  34092  288.42 0855.18
2009/04/23 10:10:33.7     -86   -361     -5    372    373 193.5  -0.9  34094  288.47 0855.18
2009/04/23 10:10:33.8     -82   -367     18    377    378 192.6   2.8  34094  288.47 0855.18
2009/04/23 10:10:33.9     -74   -360     -1    368    369 191.7  -0.3  34094  288.44 0855.18
2009/04/23 10:10:34.0    -131   -365     -4    389    390 199.8  -0.7  34092  288.42 0855.18
2009/04/23 10:10:34.1     -94   -364      5    376    377 194.5   0.8  34094  288.45 0855.18
2009/04/23 10:10:34.2    -115   -340     44    359    362 198.7   7.1  34094  288.47 0855.18
2009/04/23 10:10:34.3    -101   -377     58    391    396 195.0   8.5  34096  288.50 0855.18
2009/04/23 10:10:34.4     -71   -395     50    402    406 190.3   7.1  34094  288.45 0855.18
2009/04/23 10:10:34.5    -126   -362     40    384    387 199.2   6.1  34100  288.54 0855.18
2009/04/23 10:10:34.6     -52   -386     93    390    402 187.8  13.5  34092  288.42 0855.18
2009/04/23 10:10:34.7     -42   -351    113    354    372 187.0  17.8  34090  288.37 0855.18
2009/04/23 10:10:34.8     -61   -356    131    362    386 189.8  19.9  34094  288.47 0855.18
2009/04/23 10:10:34.9     -86   -296     99    309    325 196.3  17.8  34098  288.53 0855.18
2009/04/23 10:10:35.0     -67   -345     88    352    363 191.0  14.2  34096  288.49 0855.19
2009/04/23 10:10:35.1     -97   -380     69    393    400 194.4  10.0  34100  288.55 0855.19
2009/04/23 10:10:35.2     -17   -312    112    313    332 183.1  20.3  34090  288.39 0855.19
2009/04/23 10:10:35.3     -84   -252     88    266    281 198.5  18.4  34100  288.56 0855.19
2009/04/23 10:10:35.4     -13   -283    116    284    306 182.7  23.1  34100  288.56 0855.19
2009/04/23 10:10:35.5     -95   -298     71    313    321 197.8  12.8  34098  288.51 0855.19
2009/04/23 10:10:35.6     -64   -232     85    241    256 195.4  19.4  34100  288.54 0855.19
2009/04/23 10:10:35.7     -99   -241     75    261    272 202.3  16.0  34102  288.59 0855.19
2009/04/23 10:10:35.8    -143   -233     65    274    282 211.6  13.5  34096  288.48 0855.19
2009/04/23 10:10:35.9    -163   -139    -39    215    219 229.6 -10.3  34104  288.64 0855.19
2009/04/23 10:10:36.0    -124   -119    -39    172    177 226.2 -12.9  34110  288.72 0855.19
2009/04/23 10:10:36.1    -164   -144    -82    219    233 228.7 -25.4  34108  288.69 0855.19
2009/04/23 10:10:36.2    -171   -131    -79    216    229 232.5 -25.3  34108  288.70 0855.19
2009/04/23 10:10:36.3     -74   -221    -85    234    248 198.5 -25.1  34110  288.73 0855.19
2009/04/23 10:10:36.4     -36   -226   -101    229    250 189.1 -29.7  34110  288.73 0855.19
2009/04/23 10:10:36.5      77   -211    -94    225    243 160.0 -28.2  34108  288.70 0855.19
2009/04/23 10:10:36.6     113   -209    -79    238    250 151.5 -23.8  34112  288.75 0855.19
2009/04/23 10:10:36.7     183    -82    -31    201    204 114.2  -8.8  34110  288.72 0855.19
2009/04/23 10:10:36.8     125    -45    -98    134    166 109.9 -44.5  34114  288.80 0855.19
2009/04/23 10:10:36.9     124   -128    -83    179    197 135.9 -31.0  34110  288.74 0855.19
2009/04/23 10:10:37.0     182   -150     -1    236    237 129.5  -0.3  34112  288.76 0855.20
2009/04/23 10:10:37.1     199   -103     27    225    227 117.3   6.9  34110  288.72 0855.20
2009/04/23 10:10:37.2     154    -98    -60    183    193 122.4 -18.3  34112  288.75 0855.20
2009/04/23 10:10:37.3     129   -140    -45    191    197 137.2 -13.4  34110  288.74 0855.20
2009/04/23 10:10:37.4     220   -219    -12    311    312 134.8  -2.2  34104  288.61 0855.20
2009/04/23 10:10:37.5     236   -216     58    321    327 132.4  10.2  34110  288.73 0855.20
2009/04/23 10:10:37.6     183   -311     64    362    368 149.5  10.1  34108  288.69 0855.20
2009/04/23 10:10:37.7     191   -275    204    335    392 145.2  34.2  34110  288.74 0855.20
2009/04/23 10:10:37.8     247   -201    149    319    352 129.1  27.0  34114  288.79 0855.20
2009/04/23 10:10:37.9     147   -216    158    262    305 145.8  34.0  34108  288.68 0855.20
2009/04/23 10:10:38.0     120   -112    158    165    228 133.1  48.7  34120  288.89 0855.20
2009/04/23 10:10:38.1     101    -89    219    135    257 131.4  65.6  34122  288.92 0855.20
2009/04/23 10:10:38.2       3     83    163     84    183   2.7  70.6  34132  289.11 0855.20
2009/04/23 10:10:38.3    -106    -47    202    116    232 246.0  67.5  34140  289.24 0855.20
2009/04/23 10:10:38.4    -122    -47    140    131    191 248.7  52.1  34130  289.06 0855.20
2009/04/23 10:10:38.5    -176     10    123    177    215 273.3  38.6  34120  288.89 0855.20
2009/04/23 10:10:38.6    -293   -128    139    320    348 246.4  25.0  34112  288.77 0855.20
2009/04/23 10:10:38.7    -340     77    123    349    371 282.9  19.5  34122  288.93 0855.20
2009/04/23 10:10:38.8    -192    230    243    300    386 320.1  43.4  34120  288.89 0855.20
2009/04/23 10:10:38.9    -263    226    177    348    390 310.7  29.2  34126  289.01 0855.20
2009/04/23 10:10:39.0    -321    161    234    360    429 296.6  36.2  34136  289.16 0855.20
2009/04/23 10:10:39.1    -314   -227     86    388    398 234.0  12.5  34126  288.98 0855.20
2009/04/23 10:10:39.2    -201   -207    222    289    364 224.1  41.5  34122  288.94 0855.20
2009/04/23 10:10:39.3     -78   -180    208    197    286 203.6  52.0  34132  289.09 0855.20
2009/04/23 10:10:39.4    -181   -206    206    275    343 221.2  40.7  34128  289.03 0855.20
2009/04/23 10:10:39.5    -229   -229    207    325    385 225.0  35.6  34126  289.01 0855.20
2009/04/23 10:10:39.6    -301   -214    171    370    407 234.5  26.5  34120  288.91 0855.20
2009/04/23 10:10:39.7    -302   -203    162    365    399 236.1  25.3  34142  289.25 0855.20
2009/04/23 10:10:39.8    -341   -193      4    392    393 240.5   0.7  34146  289.35 0855.20
2009/04/23 10:10:39.9    -331   -205    117    390    408 238.3  16.7  34158  289.54 0855.20
2009/04/23 10:10:40.0    -314   -287    -14    426    427 227.6  -1.9  34144  289.31 0855.20
2009/04/23 10:10:40.1    -404   -189     11    447    448 244.9   1.5  34150  289.39 0855.20
2009/04/23 10:10:40.2    -384   -222    -23    444    445 239.9  -3.0  34154  289.46 0855.20
2009/04/23 10:10:40.3    -237   -327     67    404    410 216.0   9.5  34148  289.36 0855.20
2009/04/23 10:10:40.4    -361   -300     14    470    471 230.3   1.8  34120  288.88 0855.20
2009/04/23 10:10:40.5    -296   -335   -170    448    479 221.4 -26.1  34130  289.05 0855.20
2009/04/23 10:10:40.6    -156   -280    115    321    340 209.2  20.4  34146  289.33 0855.20
2009/04/23 10:10:40.7    -219   -408    290    464    547 208.2  35.0  34140  289.24 0855.20
2009/04/23 10:10:40.8    -234   -248    197    342    394 223.3  32.6  34154  289.47 0855.20
2009/04/23 10:10:40.9    -265   -249    142    364    390 226.8  22.4  34138  289.20 0855.20
2009/04/23 10:10:41.0    -119   -183     82    219    233 213.0  21.0  34140  289.24 0855.21
2009/04/23 10:10:41.1    -149   -150    118    212    242 224.9  31.6  34140  289.24 0855.21
2009/04/23 10:10:41.2    -126   -120      5    175    176 226.4   1.8  34136  289.16 0855.21
2009/04/23 10:10:41.3    -160   -101      9    190    191 237.6   2.9  34134  289.14 0855.21
2009/04/23 10:10:41.4      16   -267     74    268    279 176.4  15.6  34136  289.17 0855.21
2009/04/23 10:10:41.5    -143   -308    125    340    362 205.0  21.0  34130  289.06 0855.21
2009/04/23 10:10:41.6       0   -363    154    364    395 180.0  24.3  34126  289.01 0855.21
2009/04/23 10:10:41.7     -13   -413    106    414    428 181.9  14.4  34128  289.02 0855.21
2009/04/23 10:10:41.8      46   -358      3    361    362 172.6   0.5  34132  289.10 0855.21
2009/04/23 10:10:41.9      71   -326     35    334    336 167.7   6.1  34130  289.08 0855.21
2009/04/23 10:10:42.0      21   -432     45    433    436 177.1   6.0  34128  289.04 0855.21
2009/04/23 10:10:42.1      82   -370     68    380    387 167.4  10.2  34126  288.99 0855.21
2009/04/23 10:10:42.2      12   -386     59    387    392 178.2   8.7  34130  289.08 0855.21
2009/04/23 10:10:42.3     -13   -464    -26    465    466 181.7  -3.3  34130  289.05 0855.21
2009/04/23 10:10:42.4      94   -432    -17    443    444 167.6  -2.2  34128  289.02 0855.21
2009/04/23 10:10:42.5       0   -259     50    260    265 180.0  11.0  34130  289.07 0855.21
2009/04/23 10:10:42.6      50   -325     43    329    332 171.2   7.6  34126  289.01 0855.21
2009/04/23 10:10:42.7     -55   -253    157    259    302 192.3  34.4  34126  288.98 0855.21
2009/04/23 10:10:42.8     -83   -285     81    297    308 196.3  15.3  34130  289.05 0855.21
2009/04/23 10:10:42.9     -94   -263     -6    280    281 199.8  -1.3  34130  289.05 0855.21
2009/04/23 10:10:43.0     -16   -273    -45    274    278 183.4  -9.4  34130  289.05 0855.22
2009/04/23 10:10:43.1     -32   -233     -5    236    237 188.0  -1.3  34130  289.07 0855.22
2009/04/23 10:10:43.2     -74   -182     38    197    201 202.1  11.1  34130  289.06 0855.22
2009/04/23 10:10:43.3    -243   -241    -35    343    345 225.2  -5.9  34126  288.99 0855.22
2009/04/23 10:10:43.4    -376   -329   -124    500    516 228.8 -14.0  34134  289.13 0855.22
2009/04/23 10:10:43.5    -330   -293   -152    442    467 228.4 -24.0  34136  289.16 0855.22
2009/04/23 10:10:43.6    -297   -207   -269    362    451 235.1 -44.6  34136  289.16 0855.22
2009/04/23 10:10:43.7    -311   -412   -124    517    532 217.0 -13.6  34126  289.01 0855.22
2009/04/23 10:10:43.8    -196   -444   -130    486    504 203.9 -15.1  34112  288.76 0855.22
2009/04/23 10:10:43.9    -336   -386     75    512    518 221.0   8.3  34130  289.05 0855.22
2009/04/23 10:10:44.0    -362   -397    100    538    548 222.4  10.6  34126  289.01 0855.22
2009/04/23 10:10:44.1    -258   -569     65    625    629 204.4   6.0  34128  289.04 0855.22
2009/04/23 10:10:44.2    -221   -468    173    518    547 205.3  18.5  34126  288.99 0855.22
2009/04/23 10:10:44.3    -172   -429    118    463    478 201.9  14.3  34130  289.06 0855.22
2009/04/23 10:10:44.4    -452   -470     58    653    656 223.9   5.1  34112  288.77 0855.22
2009/04/23 10:10:44.5    -595   -417     81    727    732 235.0   6.4  34130  289.08 0855.22
2009/04/23 10:10:44.6    -372   -531    145    649    666 215.0  12.6  34130  289.05 0855.22
2009/04/23 10:10:44.7    -203   -552    206    589    623 200.2  20.1  34134  289.12 0855.22
2009/04/23 10:10:44.8    -202   -529    206    567    603 200.9  20.9  34132  289.10 0855.22
2009/04/23 10:10:44.9    -165   -412    189    444    482 201.9  24.5  34138  289.20 0855.22
2009/04/23 10:10:45.0    -183   -438    172    475    506 202.7  19.9  34134  289.13 0855.23
2009/04/23 10:10:45.1    -215   -421    205    473    515 207.1  25.0  34132  289.10 0855.23
2009/04/23 10:10:45.2    -248   -468    262    530    591 208.0  28.2  34134  289.14 0855.23
2009/04/23 10:10:45.3    -334   -508    178    609    635 213.3  16.3  34136  289.16 0855.23
2009/04/23 10:10:45.4    -298   -390    118    491    506 217.4  13.6  34130  289.06 0855.23
2009/04/23 10:10:45.5    -405   -139    -96    429    440 251.0 -12.7  34132  289.11 0855.23
2009/04/23 10:10:45.6    -219   -263    -41    343    346 219.7  -6.9  34132  289.11 0855.23
2009/04/23 10:10:45.7    -141   -308    194    339    390 204.6  32.4  34126  288.98 0855.23
2009/04/23 10:10:45.8    -123   -295    148    320    352 202.7  26.6  34136  289.16 0855.23
2009/04/23 10:10:45.9     -69   -213    187    224    291 198.0  43.8  34136  289.17 0855.23
2009/04/23 10:10:46.0    -141   -214     55    257    263 213.4  12.1  34132  289.10 0855.23
2009/04/23 10:10:46.1     -90   -184     34    205    208 206.1   9.5  34132  289.09 0855.23
2009/04/23 10:10:46.2     -50   -107     17    119    121 205.3   8.5  34138  289.19 0855.23
2009/04/23 10:10:46.3      78    -17    100     81    128 102.8  56.4  34138  289.19 0855.23
2009/04/23 10:10:46.4      31   -165    147    169    223 169.1  45.8  34138  289.21 0855.23
2009/04/23 10:10:46.5      58   -174    156    184    241 161.3  44.8  34138  289.19 0855.23
2009/04/23 10:10:46.6      -9   -205    164    206    263 182.6  42.7  34140  289.24 0855.23
2009/04/23 10:10:46.7       1   -122    161    123    202 179.5  58.7  34136  289.18 0855.23
2009/04/23 10:10:46.8     143   -213    109    257    279 146.2  24.3  34140  289.22 0855.23
2009/04/23 10:10:46.9     285   -259     64    386    392 132.2   9.5  34134  289.13 0855.23
2009/04/23 10:10:47.0      66   -399    -15    405    406 170.6  -2.2  34136  289.16 0855.24
2009/04/23 10:10:47.1     196   -267     10    332    333 143.7   1.8  34132  289.11 0855.24
2009/04/23 10:10:47.2     174   -100     42    201    206 120.0  12.0  34132  289.11 0855.24
2009/04/23 10:10:47.3     108    -68     65    128    143 122.4  29.2  34134  289.14 0855.24
2009/04/23 10:10:47.4      -6    -86     92     87    126 184.5  51.6  34142  289.26 0855.24
2009/04/23 10:10:47.5     -16    -16    116     24    118 225.1  89.0  34146  289.35 0855.24
2009/04/23 10:10:47.6     -86      7    135     87    160 274.8  64.1  34146  289.35 0855.24
2009/04/23 10:10:47.7     -66     21     82     70    107 288.2  55.4  34138  289.21 0855.24
2009/04/23 10:10:47.8      69    -72    135    100    168 136.3  60.0  34138  289.21 0855.24
2009/04/23 10:10:47.9    -120      5    126    121    174 272.6  50.9  34152  289.43 0855.24
2009/04/23 10:10:48.0     -92     58    100    109    147 302.4  47.9  34146  289.35 0855.24
2009/04/23 10:10:48.1     258    -93    136    275    306 109.9  28.2  34134  289.12 0855.24
2009/04/23 10:10:48.2     331   -157    126    367    389 115.4  18.9  34130  289.08 0855.24
2009/04/23 10:10:48.3     301    -73    174    310    355 103.7  31.7  34134  289.13 0855.24
2009/04/23 10:10:48.4     323     59    303    329    447  79.6  47.6  34122  288.92 0855.24
2009/04/23 10:10:48.5     250   -102    225    271    352 112.2  44.0  34136  289.15 0855.24
2009/04/23 10:10:48.6     503   -112    159    516    541 102.6  17.2  34136  289.18 0855.24
2009/04/23 10:10:48.7     566    -76    192    572    604  97.7  18.6  34128  289.03 0855.24
2009/04/23 10:10:48.8     547    -20      7    548    549  92.1   0.8  34134  289.13 0855.24
2009/04/23 10:10:48.9     575     44     49    577    580  85.6   4.9  34130  289.07 0855.24
2009/04/23 10:10:49.0     468    -12    -14    469    470  91.5  -1.7  34136  289.18 0855.24
2009/04/23 10:10:49.1     476     94    122    486    502  78.8  14.2  34142  289.27 0855.24
2009/04/23 10:10:49.2     414    132    164    435    464  72.3  21.6  34142  289.27 0855.24
2009/04/23 10:10:49.3     337    106    207    354    410  72.4  33.0  34150  289.40 0855.24
2009/04/23 10:10:49.4     223     -3    124    224    256  90.8  31.4  34150  289.39 0855.24
2009/04/23 10:10:49.5     197   -107    222    225    316 118.6  49.8  34156  289.49 0855.24
2009/04/23 10:10:49.6     373    -30    224    375    436  94.7  33.5  34148  289.38 0855.24
2009/04/23 10:10:49.7     361    100    152    375    404  74.4  23.4  34154  289.48 0855.24
2009/04/23 10:10:49.8     392     46    154    395    423  83.2  22.4  34148  289.36 0855.24
2009/04/23 10:10:49.9     239     18    229    240    331  85.7  48.6  34152  289.44 0855.24
2009/04/23 10:10:50.0     153   -102    180    184    257 123.7  49.4  34162  289.61 0855.24
2009/04/23 10:10:50.1     223     -9    214    224    309  92.5  49.0  34166  289.66 0855.24
2009/04/23 10:10:50.2     200     15    219    201    297  85.7  52.5  34190  290.07 0855.24
2009/04/23 10:10:50.3     288     12    293    289    411  87.6  50.4  34212  290.47 0855.24
2009/04/23 10:10:50.4     253     51    305    259    400  78.5  55.4  34198  290.20 0855.24
2009/04/23 10:10:50.5     239     65    242    248    346  74.7  49.3  34184  289.98 0855.24
2009/04/23 10:10:50.6     107      8    229    108    253  85.7  73.1  34190  290.08 0855.24
2009/04/23 10:10:50.7      53    -43    150     69    165 129.5  73.8  34188  290.04 0855.24
2009/04/23 10:10:50.8     -39     54     91     67    113 323.9  60.0  34182  289.96 0855.24
2009/04/23 10:10:50.9     -47    -84     45     97    106 209.4  26.6  34162  289.60 0855.24
2009/04/23 10:10:51.0    -162   -152     65    223    233 226.7  16.4  34144  289.30 0855.24
2009/04/23 10:10:51.1    -181   -168    149    248    289 227.1  33.7  34154  289.46 0855.24
2009/04/23 10:10:51.2    -254    -51     62    260    268 258.6  13.5  34146  289.34 0855.24
2009/04/23 10:10:51.3    -175    -66    108    188    216 249.4  32.4  34158  289.55 0855.24
2009/04/23 10:10:51.4    -249     43     60    253    261 279.9  13.5  34172  289.76 0855.24
2009/04/23 10:10:51.5     -92     28     49     97    108 286.8  28.7  34168  289.72 0855.24
2009/04/23 10:10:51.6     -63     62     30     89     95 314.9  18.9  34158  289.55 0855.24
2009/04/23 10:10:51.7     -70    110     57    131    142 327.4  25.1  34158  289.53 0855.24
2009/04/23 10:10:51.8       5    106     37    107    114   3.1  19.4  34158  289.53 0855.24
2009/04/23 10:10:51.9      64     75     75     99    124  40.5  41.2  34164  289.65 0855.24
2009/04/23 10:10:52.0      62     84     67    105    124  36.5  35.6  34162  289.60 0855.24
2009/04/23 10:10:52.1      23    115     47    118    127  11.6  22.5  34152  289.43 0855.24
2009/04/23 10:10:52.2      20    150     -5    152    153   7.6  -2.2  34138  289.21 0855.24
2009/04/23 10:10:52.3      58    117     41    131    138  26.3  17.3  34148  289.36 0855.24
2009/04/23 10:10:52.4      37    122     26    128    131  17.0  11.6  34122  288.94 0855.24
2009/04/23 10:10:52.5      52    108     24    121    124  25.9  11.6  34136  289.16 0855.24
2009/04/23 10:10:52.6      97     29     74    102    126  73.2  39.7  34188  290.06 0855.24
2009/04/23 10:10:52.7     136    -10     55    137    147  94.4  23.0  34188  290.06 0855.24
2009/04/23 10:10:52.8     142    -10    116    143    184  94.4  43.3  34176  289.84 0855.24
2009/04/23 10:10:52.9      10    -91    117     92    148 173.3  57.9  34172  289.77 0855.24
2009/04/23 10:10:53.0     -26    -64    172     70    185 201.8  77.0  34158  289.53 0855.24
2009/04/23 10:10:53.1     -25   -205    158    207    260 187.1  41.2  34148  289.36 0855.24
2009/04/23 10:10:53.2     -38   -220    112    224    250 189.8  28.2  34160  289.58 0855.24
2009/04/23 10:10:53.3     -66   -185     90    197    216 199.8  26.2  34184  289.97 0855.24
2009/04/23 10:10:53.4    -116   -179    105    214    238 213.0  28.2  34186  290.02 0855.24
2009/04/23 10:10:53.5      -9   -228     37    229    233 182.5   9.3  34154  289.48 0855.24
2009/04/23 10:10:53.6     -15   -226     17    227    228 183.8   4.4  34158  289.55 0855.24
2009/04/23 10:10:53.7      15   -208     92    209    228 175.6  25.2  34144  289.30 0855.24
2009/04/23 10:10:53.8      25   -234    106    236    258 173.8  26.2  34144  289.31 0855.24
2009/04/23 10:10:53.9      57   -239    110    246    269 166.6  25.9  34144  289.29 0855.24
2009/04/23 10:10:54.0      59   -292     81    299    310 168.4  15.3  34140  289.22 0855.24
2009/04/23 10:10:54.1      41   -285    123    289    314 171.8  24.6  34138  289.19 0855.24
2009/04/23 10:10:54.2      89   -254    171    270    319 160.6  35.5  34138  289.20 0855.24
2009/04/23 10:10:54.3     113   -142    122    182    219 141.5  37.3  34142  289.28 0855.24
2009/04/23 10:10:54.4     142   -142     54    201    209 135.0  15.2  34138  289.21 0855.24
2009/04/23 10:10:54.5     100   -275    113    293    314 160.0  22.2  34142  289.27 0855.24
2009/04/23 10:10:54.6      85   -246    134    261    293 160.8  29.3  34144  289.29 0855.24
2009/04/23 10:10:54.7       1   -329    102    330    346 179.8  17.3  34142  289.25 0855.24
2009/04/23 10:10:54.8      83   -308      8    320    321 164.8   1.5  34140  289.22 0855.24
2009/04/23 10:10:54.9      22   -326     51    327    332 176.0   8.9  34138  289.20 0855.24
2009/04/23 10:10:55.0       6   -398     72    399    406 179.0  10.2  34148  289.38 0855.24
2009/04/23 10:10:55.1     -36   -388     33    390    392 185.4   5.0  34144  289.30 0855.24
2009/04/23 10:10:55.2     -51   -410      0    414    415 187.2   0.1  34146  289.33 0855.24
2009/04/23 10:10:55.3      40   -469    -18    471    472 175.0  -2.2  34116  288.84 0855.24
2009/04/23 10:10:55.4      36   -466      7    468    469 175.5   0.9  34114  288.78 0855.24
2009/04/23 10:10:55.5      15   -483      6    484    485 178.1   0.8  34108  288.69 0855.24
2009/04/23 10:10:55.6      44   -415      0    418    419 173.9   0.1  34112  288.77 0855.24
2009/04/23 10:10:55.7       4   -350     31    351    353 179.2   5.1  34110  288.72 0855.24
2009/04/23 10:10:55.8      -8   -359     69    360    367 181.4  11.0  34126  288.99 0855.24
2009/04/23 10:10:55.9      11   -352     27    353    354 178.1   4.4  34118  288.86 0855.24
2009/04/23 10:10:56.0     -24   -381     25    382    383 183.7   3.8  34120  288.91 0855.24
2009/04/23 10:10:56.1      16   -357     30    358    360 177.4   4.9  34120  288.91 0855.24
2009/04/23 10:10:56.2     -42   -318    104    321    338 187.6  18.0  34120  288.91 0855.24
2009/04/23 10:10:56.3     -30   -280    145    282    317 186.3  29.4  34130  289.05 0855.24
2009/04/23 10:10:56.4      76   -237    140    250    286 162.1  31.6  34134  289.14 0855.24
2009/04/23 10:10:56.5      80   -232    190    246    310 160.9  41.6  34138  289.19 0855.24
2009/04/23 10:10:56.6     176   -226    176    287    336 142.1  34.4  34124  288.95 0855.24
2009/04/23 10:10:56.7     151   -259    162    301    341 149.7  30.6  34118  288.85 0855.24
2009/04/23 10:10:56.8      71   -241    125    252    281 163.5  28.2  34118  288.87 0855.24
2009/04/23 10:10:56.9     151   -161    134    222    259 136.8  34.0  34116  288.83 0855.24
2009/04/23 10:10:57.0     115   -281    164    304    345 157.7  30.8  34116  288.84 0855.24
2009/04/23 10:10:57.1      66   -326    107    333    350 168.4  17.9  34114  288.79 0855.24
2009/04/23 10:10:57.3      28   -332     72    334    342 175.1  12.3  34120  288.88 0855.24
2009/04/23 10:10:57.3     -15   -298     66    299    307 182.9  12.6  34118  288.85 0855.24
2009/04/23 10:10:57.5     -24   -314     70    316    324 184.5  12.5  34108  288.68 0855.24
2009/04/23 10:10:57.6     -14   -300    107    301    319 182.7  20.3  34114  288.78 0855.24
2009/04/23 10:10:57.7     -64   -309    115    316    336 191.8  20.8  34112  288.76 0855.24
2009/04/23 10:10:57.8     -18   -294    157    295    334 183.6  30.3  34118  288.87 0855.24
2009/04/23 10:10:57.9     -11   -338    120    339    359 181.9  20.2  34116  288.82 0855.24
2009/04/23 10:10:58.0     -76   -290     81    300    311 194.7  15.1  34116  288.83 0855.24
2009/04/23 10:10:58.1     -34   -240    130    243    275 188.1  30.3  34112  288.76 0855.23
2009/04/23 10:10:58.2      56   -185    171    194    258 163.1  45.9  34114  288.80 0855.23
2009/04/23 10:10:58.3      88   -106     96    138    168 140.3  38.4  34120  288.89 0855.23
2009/04/23 10:10:58.4      74   -104    131    128    183 144.4  50.7  34120  288.89 0855.23
2009/04/23 10:10:58.5      47   -143    122    151    194 161.7  43.5  34118  288.87 0855.23
2009/04/23 10:10:58.6       0   -154     96    155    182 180.4  35.0  34122  288.92 0855.23
2009/04/23 10:10:58.7     -39   -194    -11    198    199 191.5  -3.2  34118  288.86 0855.23
2009/04/23 10:10:58.8     -64   -238    -40    247    251 195.1  -9.3  34118  288.87 0855.23
2009/04/23 10:10:58.9     -34   -239    -57    242    249 188.2 -13.3  34116  288.83 0855.23
2009/04/23 10:10:59.0      12   -190    -25    191    193 176.2  -7.5  34114  288.79 0855.23
2009/04/23 10:10:59.1      13   -230     45    231    236 176.6  11.1  34114  288.80 0855.23
2009/04/23 10:10:59.2       6   -104    129    105    166 176.4  56.4  34124  288.96 0855.23
2009/04/23 10:10:59.3     -22    -92    117     95    150 193.4  56.4  34130  289.08 0855.23
2009/04/23 10:10:59.4       9   -118    108    119    160 175.6  46.9  34118  288.87 0855.23
2009/04/23 10:10:59.5      17   -145    132    146    196 173.3  46.9  34120  288.89 0855.23
2009/04/23 10:10:59.6      52    -85     87    100    132 148.4  45.8  34124  288.97 0855.23
2009/04/23 10:10:59.7       3    -48     66     49     82 176.4  59.4  34126  289.01 0855.23
2009/04/23 10:10:59.8      -8    -46     65     47     80 190.7  60.5  34126  289.01 0855.23
2009/04/23 10:10:59.9       0    -46     59     47     75 179.1  56.4  34122  288.94 0855.23
2009/04/23 10:11:00.0     -54    -37     23     66     71 235.8  19.4  34118  288.87 0855.23
2009/04/23 10:11:00.1     -91    -30     26     96    100 251.6  15.2  34120  288.89 0855.22
2009/04/23 10:11:00.2     -97      7     21     98    101 274.4  12.2  34118  288.87 0855.22
2009/04/23 10:11:00.3    -114     46     -8    124    125 292.2  -3.7  34120  288.89 0855.22
2009/04/23 10:11:00.4     -96     45    -29    107    112 295.3 -15.4  34120  288.89 0855.22
2009/04/23 10:11:00.5     -82     24    -19     86     89 286.8 -12.4  34122  288.92 0855.22
2009/04/23 10:11:00.6     -57     31    -31     66     72 298.8 -31.5  34128  289.02 0855.22
2009/04/23 10:11:00.7     -86     14    -15     88     90 279.7  -9.8  34130  289.06 0855.22
2009/04/23 10:11:00.8    -111     22    -32    114    118 281.5 -20.2  34128  289.04 0855.22
2009/04/23 10:11:00.9    -118    118      5    167    168 315.0   1.8  34126  289.01 0855.22
2009/04/23 10:11:01.0    -151     49      8    159    160 288.2   2.9  34128  289.04 0855.22
2009/04/23 10:11:01.1    -210      7    -58    211    219 272.1 -15.5  34154  289.46 0855.22
2009/04/23 10:11:01.2    -284     -4    -98    285    302 269.2 -19.0  34150  289.39 0855.22
2009/04/23 10:11:01.3    -244     53    -82    250    263 282.4 -23.8  34140  289.22 0855.22
2009/04/23 10:11:01.4    -100    -63   -110    119    162 237.5 -52.1  34144  289.30 0855.22
2009/04/23 10:11:01.5     -65    -81    -86    105    135 218.7 -48.1  34144  289.30 0855.22
2009/04/23 10:11:01.6    -113    -87    -43    143    149 232.3 -21.8  34134  289.13 0855.22
2009/04/23 10:11:01.7    -159    -64    -49    172    180 247.8 -16.0  34128  289.04 0855.22
2009/04/23 10:11:01.8    -270    -51    -12    275    276 259.2  -2.6  34138  289.20 0855.22
2009/04/23 10:11:01.9    -262    -19    -68    263    272 265.7 -14.7  34132  289.10 0855.22
2009/04/23 10:11:02.0    -238    -92    -40    256    260 248.9  -9.0  34140  289.22 0855.22
2009/04/23 10:11:02.1    -237    -42    -40    241    245 259.9  -9.6  34142  289.25 0855.23
2009/04/23 10:11:02.2    -169    -24      3    171    172 261.9   1.2  34140  289.24 0855.23
2009/04/23 10:11:02.3    -243    -49    -68    248    258 258.6 -15.5  34138  289.20 0855.23
2009/04/23 10:11:02.4    -291    -84    -97    304    319 253.8 -22.8  34132  289.10 0855.23
2009/04/23 10:11:02.5    -209   -107    -69    235    244 242.9 -21.2  34148  289.36 0855.23
2009/04/23 10:11:02.6     -54   -123    -82    135    157 203.6 -38.6  34144  289.30 0855.23
2009/04/23 10:11:02.7     -26   -118   -110    121    163 192.5 -51.5  34136  289.18 0855.23
2009/04/23 10:11:02.8     -63   -138   -104    152    184 204.5 -42.0  34140  289.23 0855.23
2009/04/23 10:11:02.9     -18   -165    -60    167    177 186.5 -24.8  34140  289.24 0855.23
2009/04/23 10:11:03.0      33   -106    -49    112    122 162.6 -29.5  34138  289.19 0855.23
2009/04/23 10:11:03.1      -2    -56    -11     57     59 182.7 -11.3  34134  289.13 0855.23
2009/04/23 10:11:03.2      13   -101    -17    102    104 172.4  -9.8  34140  289.24 0855.23
2009/04/23 10:11:03.3      25    -95    -27     99    103 164.9 -15.5  34140  289.24 0855.23
2009/04/23 10:11:03.4      48    -99    -47    111    120 154.1 -29.0  34138  289.21 0855.23
2009/04/23 10:11:03.5      64   -114    -24    132    135 150.6 -10.3  34134  289.13 0855.23
2009/04/23 10:11:03.6      89   -164    -53    187    195 151.3 -16.0  34134  289.13 0855.23
2009/04/23 10:11:03.7      48   -138    -52    147    157 160.8 -19.7  34140  289.24 0855.23
2009/04/23 10:11:03.8      14   -146    -52    147    155 174.2 -23.3  34150  289.41 0855.23
2009/04/23 10:11:03.9      32    -96    -75    102    126 161.7 -44.1  34148  289.36 0855.23
2009/04/23 10:11:04.0      42    -80    -67     91    113 151.9 -44.5  34146  289.35 0855.23
2009/04/23 10:11:04.1      58    -27    -37     65     74 115.4 -36.8  34138  289.21 0855.22
2009/04/23 10:11:04.2      84    -61     54    104    117 126.0  29.3  34132  289.09 0855.22
2009/04/23 10:11:04.3     220   -162    -15    274    275 126.4  -3.1  34126  288.98 0855.22
2009/04/23 10:11:04.4     200   -127     25    237    239 122.4   6.1  34126  288.98 0855.22
2009/04/23 10:11:04.5     163   -108     61    196    206 123.7  17.4  34126  289.01 0855.22
2009/04/23 10:11:04.6     167   -109     26    200    202 123.3   7.5  34126  289.01 0855.22
2009/04/23 10:11:04.7     157   -121     43    199    204 127.5  12.4  34126  289.01 0855.22
2009/04/23 10:11:04.8     187   -105     48    215    221 119.5  12.6  34128  289.02 0855.22
2009/04/23 10:11:04.9      96   -116     57    151    161 140.4  21.7  34128  289.02 0855.22
2009/04/23 10:11:05.0      69    -83     55    109    122 140.3  29.2  34128  289.04 0855.22
2009/04/23 10:11:05.1      85    -80     45    118    126 133.2  21.5  34126  289.01 0855.22
2009/04/23 10:11:05.2      96    -52     19    110    112 118.8  10.1  34126  288.99 0855.22
2009/04/23 10:11:05.3      82    -12    -21     83     86  98.4 -14.5  34126  289.01 0855.22
2009/04/23 10:11:05.4     107      7    -15    108    110  86.1  -8.2  34128  289.04 0855.22
2009/04/23 10:11:05.5     131     18     15    133    134  82.1   6.5  34128  289.04 0855.22
2009/04/23 10:11:05.6     113     27      0    117    118  76.3   0.2  34130  289.08 0855.22
2009/04/23 10:11:05.7      95     25    -44     99    108  74.9 -30.1  34144  289.31 0855.22
2009/04/23 10:11:05.8      15     16    -46     23     51  43.2 -77.2  34140  289.23 0855.22
2009/04/23 10:11:05.9      51    -63    -82     82    115 140.8 -54.5  34136  289.18 0855.22
2009/04/23 10:11:06.0      40   -102   -128    110    168 158.6 -59.4  34132  289.09 0855.22
2009/04/23 10:11:06.1      31   -127    -64    131    145 166.2 -31.7  34132  289.09 0855.22
2009/04/23 10:11:06.2      21   -169    -11    171    172 172.7  -3.9  34132  289.11 0855.22
2009/04/23 10:11:06.3      -5   -122    -59    123    136 182.7 -31.7  34132  289.09 0855.22
2009/04/23 10:11:06.4     -14   -175    -55    176    185 184.7 -17.3  34132  289.11 0855.22
2009/04/23 10:11:06.5       1   -188    -68    189    200 179.5 -24.8  34130  289.06 0855.22
2009/04/23 10:11:06.6     -11   -154    -82    155    175 184.4 -34.5  34130  289.06 0855.22
2009/04/23 10:11:06.7     -24   -150    -62    153    165 189.3 -27.4  34130  289.08 0855.22
2009/04/23 10:11:06.8      11   -152    -47    153    160 175.5 -22.3  34128  289.04 0855.22
2009/04/23 10:11:06.9       0   -186    -57    187    195 180.0 -22.1  34128  289.04 0855.22
2009/04/23 10:11:07.0     -25   -184    -56    186    195 188.0 -16.8  34132  289.11 0855.22
2009/04/23 10:11:07.1      62   -188     -4    199    200 161.7  -1.3  34130  289.08 0855.22
2009/04/23 10:11:07.2    -103   -124      0    162    163 219.6   0.0  34138  289.19 0855.22
2009/04/23 10:11:07.3    -103   -129      2    166    167 218.7   0.8  34140  289.23 0855.22
2009/04/23 10:11:07.4    -102   -129    -33    165    169 218.5 -11.6  34140  289.23 0855.22
2009/04/23 10:11:07.5    -150   -162    -46    221    226 222.8 -11.9  34138  289.19 0855.22
2009/04/23 10:11:07.6     -87   -192    -41    212    217 204.5 -11.1  34138  289.21 0855.22
2009/04/23 10:11:07.7     -34   -228    -12    231    232 188.7  -3.2  34136  289.18 0855.22
2009/04/23 10:11:07.8     -60   -118    -99    133    165 207.2 -44.8  34134  289.13 0855.22
2009/04/23 10:11:07.9    -250    -82   -170    264    314 251.8 -40.3  34138  289.19 0855.22
2009/04/23 10:11:08.0    -273   -179     69    327    335 236.7  12.0  34132  289.10 0855.22
2009/04/23 10:11:08.1    -220    -89     39    238    242 248.0   9.3  34134  289.14 0855.23
2009/04/23 10:11:08.2    -321    -65    -84    328    339 258.4 -14.5  34138  289.20 0855.23
2009/04/23 10:11:08.3    -313    -12    -81    314    325 267.7 -14.5  34132  289.09 0855.23
2009/04/23 10:11:08.4    -181    -35     21    185    187 259.0   6.7  34136  289.18 0855.23
2009/04/23 10:11:08.5    -182     -1    -26    183    185 269.6  -8.2  34136  289.16 0855.23
2009/04/23 10:11:08.6    -191    -12      1    192    193 266.3   0.5  34134  289.13 0855.23
2009/04/23 10:11:08.7    -108    108    112    154    190 315.0  39.7  34142  289.26 0855.23
2009/04/23 10:11:08.8    -104     97    143    143    202 313.1  50.1  34140  289.24 0855.23
2009/04/23 10:11:08.9     -71    -59    115     93    147 230.4  56.4  34142  289.26 0855.23
2009/04/23 10:11:09.0    -124      3     82    125    149 271.7  35.6  34144  289.31 0855.23
2009/04/23 10:11:09.1     -18    -69     94     72    118 195.1  58.5  34140  289.23 0855.23
2009/04/23 10:11:09.2     -27   -267     69    269    278 186.0  14.5  34132  289.10 0855.23
2009/04/23 10:11:09.3    -109   -286      2    307    308 201.0   0.5  34136  289.17 0855.23
2009/04/23 10:11:09.4       0   -198    124    199    234 180.0  35.5  34134  289.13 0855.23
2009/04/23 10:11:09.5      37   -183    114    187    219 168.4  34.2  34136  289.18 0855.23
2009/04/23 10:11:09.6      24   -212    161    214    267 173.5  40.7  34142  289.27 0855.23
2009/04/23 10:11:09.7       3   -254    105    255    275 179.3  23.8  34142  289.25 0855.23
2009/04/23 10:11:09.8       0   -231     18    232    233 180.2   4.6  34138  289.21 0855.23
2009/04/23 10:11:09.9      40   -239     27    243    245 170.3   6.5  34138  289.20 0855.23
2009/04/23 10:11:10.0      16   -172    -51    173    180 174.4 -21.5  34138  289.19 0855.23
2009/04/23 10:11:10.1      52   -175    -52    183    190 163.3 -20.7  34138  289.21 0855.23
2009/04/23 10:11:10.2      83   -176     -7    195    196 154.7  -2.2  34140  289.24 0855.23
2009/04/23 10:11:10.3      84   -179     19    198    199 154.8   5.7  34140  289.23 0855.23
2009/04/23 10:11:10.4      86   -148     41    172    177 149.7  13.5  34140  289.24 0855.23
2009/04/23 10:11:10.5      -3   -133     48    134    142 181.4  20.4  34138  289.21 0855.23
2009/04/23 10:11:10.6     -20   -205     90    207    225 185.8  25.1  34140  289.23 0855.23
2009/04/23 10:11:10.7       9   -207    110    208    235 177.5  30.2  34138  289.21 0855.23
2009/04/23 10:11:10.8    -114   -121    -52    167    174 223.2 -22.8  34138  289.21 0855.23
2009/04/23 10:11:10.9     -65   -149    -43    163    169 203.6 -15.0  34136  289.18 0855.23
2009/04/23 10:11:11.0     -20    -88    -15     91     93 192.9  -9.3  34136  289.16 0855.23
2009/04/23 10:11:11.1    -111    -19   -117    113    162 259.9 -55.3  34140  289.24 0855.23
2009/04/23 10:11:11.2     -44     44   -106     63    123 315.0 -71.1  34142  289.26 0855.23
2009/04/23 10:11:11.3     -37     58    -63     69     93 327.4 -52.3  34142  289.28 0855.23
2009/04/23 10:11:11.4     -94     94    -46    133    141 315.0 -19.1  34140  289.24 0855.23
2009/04/23 10:11:11.5    -157    138    -61    210    218 311.3 -21.0  34140  289.24 0855.23
2009/04/23 10:11:11.6    -227     95     26    247    249 292.8   6.1  34144  289.29 0855.23
2009/04/23 10:11:11.7    -178     83     65    197    208 295.1  18.4  34142  289.28 0855.23
2009/04/23 10:11:11.8     -89     23     70     92    115 284.6  41.2  34150  289.40 0855.23
2009/04/23 10:11:11.9    -119     -9      1    120    121 265.7   0.8  34146  289.33 0855.23
2009/04/23 10:11:12.0    -111     -1    -45    112    120 269.2 -27.4  34144  289.31 0855.23
2009/04/23 10:11:12.1     -59      7    -44     60     74 277.0 -44.1  34140  289.23 0855.21
2009/04/23 10:11:12.2     -53      0     -1     54     55 270.8  -1.3  34142  289.26 0855.21
2009/04/23 10:11:12.3       3     16     -2     17     18  11.6  -7.3  34140  289.24 0855.21
2009/04/23 10:11:12.4     -24     -4      8     25     27 258.5  18.9  34142  289.26 0855.21
2009/04/23 10:11:12.5     -32    -43    -55     54     77 217.0 -53.5  34138  289.19 0855.21
2009/04/23 10:11:12.6     -57   -154    -21    165    167 200.3  -7.3  34138  289.21 0855.21
2009/04/23 10:11:12.7     -33   -180    -23    184    186 190.5  -7.3  34136  289.18 0855.21
2009/04/23 10:11:12.8     -48   -175      1    182    183 195.4   0.5  34138  289.21 0855.21
2009/04/23 10:11:12.9     -65   -152     19    166    168 203.4   6.7  34138  289.21 0855.21
2009/04/23 10:11:13.0     -60   -159     39    171    176 200.7  12.9  34142  289.28 0855.21
2009/04/23 10:11:13.1     -30   -159     25    162    164 190.9   8.8  34142  289.26 0855.20
2009/04/23 10:11:13.2     -28   -184      7    187    188 188.7   2.3  34144  289.31 0855.20
2009/04/23 10:11:13.3      -2   -186     14    187    188 180.9   4.4  34140  289.24 0855.20
2009/04/23 10:11:13.4      65   -163    -21    176    178 158.2  -6.9  34138  289.21 0855.20
2009/04/23 10:11:13.5      28   -162     -6    165    166 170.2  -2.2  34142  289.28 0855.20
2009/04/23 10:11:13.6      84   -209      3    226    227 158.1   1.0  34140  289.24 0855.20
2009/04/23 10:11:13.7      42   -240     -9    244    245 170.0  -2.2  34142  289.25 0855.20
2009/04/23 10:11:13.8      19   -265    -41    266    270 175.8  -8.8  34148  289.37 0855.20
2009/04/23 10:11:13.9      28   -255    -28    257    259 173.5  -6.2  34146  289.34 0855.20
2009/04/23 10:11:14.0      89   -217      2    235    236 157.5   0.7  34146  289.32 0855.20
2009/04/23 10:11:14.1      65   -238     62    247    255 164.6  14.3  34144  289.31 0855.20
2009/04/23 10:11:14.2     120   -224     57    255    262 151.9  12.6  34142  289.25 0855.20
2009/04/23 10:11:14.3     100   -236     65    257    266 157.1  14.2  34140  289.24 0855.20
2009/04/23 10:11:14.4      97   -212     58    234    242 155.3  13.9  34144  289.31 0855.20
2009/04/23 10:11:14.5      54   -221     59    228    236 166.2  14.5  34144  289.31 0855.20
2009/04/23 10:11:14.6      80   -225     46    239    244 160.4  11.0  34142  289.25 0855.20
2009/04/23 10:11:14.7     103   -213     74    237    249 154.1  17.3  34142  289.27 0855.20
2009/04/23 10:11:14.8      75   -207     87    221    237 159.9  22.8  34142  289.26 0855.20
2009/04/23 10:11:14.9      80   -200     67    216    227 158.1  17.3  34142  289.26 0855.20
2009/04/23 10:11:15.0      63   -172     72    184    197 159.7  22.5  34138  289.19 0855.20
2009/04/23 10:11:15.1     125   -158    119    202    234 141.7  33.4  34144  289.31 0855.21
2009/04/23 10:11:15.2      13   -103    133    104    168 172.4  57.9  34150  289.40 0855.21
2009/04/23 10:11:15.3      37    -44    100     58    115 140.4  66.8  34154  289.48 0855.21
2009/04/23 10:11:15.4      64   -100    103    119    157 147.4  45.6  34146  289.33 0855.21
2009/04/23 10:11:15.5     101   -120     98    158    185 139.9  35.2  34144  289.30 0855.21
2009/04/23 10:11:15.6      89   -140     47    167    174 147.5  15.8  34140  289.23 0855.21
2009/04/23 10:11:15.7      25   -165     22    168    170 171.1   7.5  34140  289.23 0855.21
2009/04/23 10:11:15.8      -6   -176     63    177    187 182.2  20.2  34142  289.28 0855.21
2009/04/23 10:11:15.9     -50   -150     82    159    178 198.7  29.5  34146  289.35 0855.21
2009/04/23 10:11:16.0     -18   -154    162    156    224 186.7  51.2  34146  289.33 0855.21
2009/04/23 10:11:16.1     -33   -142    149    146    208 193.4  50.4  34146  289.35 0855.21
2009/04/23 10:11:16.2      40    -13     86     43     96 107.7  71.9  34158  289.55 0855.21
2009/04/23 10:11:16.3     -30    -84    109     90    141 199.6  56.4  34150  289.41 0855.21
2009/04/23 10:11:16.4       0    -89    142     90    168 180.4  64.7  34156  289.50 0855.21
2009/04/23 10:11:16.5      15    -29    123     33    127 152.8  84.9  34164  289.63 0855.21
2009/04/23 10:11:16.6     -10   -139     90    140    166 184.5  35.7  34150  289.40 0855.21
2009/04/23 10:11:16.7     -41   -134     45    141    149 197.0  17.9  34146  289.35 0855.21
2009/04/23 10:11:16.8     -36   -133     12    138    139 195.2   5.0  34148  289.38 0855.21
2009/04/23 10:11:16.9     -15   -110      5    112    113 188.0   2.8  34146  289.35 0855.21
2009/04/23 10:11:17.0       2   -137     -7    138    139 179.1  -3.2  34146  289.35 0855.21
2009/04/23 10:11:17.2      11   -149     18    150    152 175.5   6.9  34146  289.35 0855.22
2009/04/23 10:11:17.2       9   -131     39    132    138 176.0  16.8  34144  289.31 0855.22
2009/04/23 10:11:17.3     -55   -165     85    175    194 198.5  27.4  34146  289.35 0855.22
2009/04/23 10:11:17.4     -98   -199     57    223    231 206.3  14.5  34140  289.23 0855.22
2009/04/23 10:11:17.5    -100   -180     52    207    214 209.2  14.3  34142  289.28 0855.22
2009/04/23 10:11:17.6     -79   -194     85    210    226 202.3  23.1  34140  289.24 0855.22
2009/04/23 10:11:17.7     -57   -163     93    173    196 199.4  30.6  34144  289.30 0855.22
2009/04/23 10:11:17.8     -52   -157     96    166    191 198.3  32.9  34142  289.28 0855.22
2009/04/23 10:11:17.9     -18   -173    118    174    210 186.0  37.4  34144  289.30 0855.22
2009/04/23 10:11:18.0      21   -252    159    253    298 175.1  35.5  34146  289.32 0855.22
2009/04/23 10:11:18.1      16   -228    145    229    271 175.8  35.5  34148  289.36 0855.22
2009/04/23 10:11:18.2      49   -202    117    209    239 166.2  31.6  34140  289.24 0855.22
2009/04/23 10:11:18.3      27   -216     99    218    239 172.7  26.2  34142  289.25 0855.22
2009/04/23 10:11:18.4      36   -216    141    220    261 170.4  35.6  34146  289.34 0855.22
2009/04/23 10:11:18.5      37   -240    157    243    289 171.1  35.7  34146  289.34 0855.22
2009/04/23 10:11:18.6      40   -234    103    238    259 170.3  24.9  34150  289.39 0855.22
2009/04/23 10:11:18.7      62   -237     71    245    256 165.3  16.3  34146  289.32 0855.22
2009/04/23 10:11:18.8      96   -292    128    308    333 161.7  23.8  34142  289.27 0855.22
2009/04/23 10:11:18.9      67   -264    194    273    334 165.7  39.0  34150  289.39 0855.22
2009/04/23 10:11:19.0     119   -253    224    280    358 154.7  42.7  34152  289.45 0855.22
2009/04/23 10:11:19.2      46   -271    200    276    340 170.2  39.5  34148  289.36 0855.24
2009/04/23 10:11:19.2      41   -245    184    249    309 170.3  39.9  34148  289.37 0855.24
2009/04/23 10:11:19.3     124   -195    111    232    257 147.5  27.3  34148  289.36 0855.24
2009/04/23 10:11:19.4      79   -212     83    227    241 159.5  21.0  34148  289.36 0855.24
2009/04/23 10:11:19.5      26   -244     72    246    257 173.8  16.3  34148  289.37 0855.24
2009/04/23 10:11:19.6      46   -271     49    276    281 170.2  10.1  34146  289.34 0855.24
2009/04/23 10:11:19.7      16   -276    103    277    295 176.6  21.3  34148  289.37 0855.24
2009/04/23 10:11:19.8     -33   -322     97    324    339 186.0  16.6  34148  289.38 0855.24
2009/04/23 10:11:19.9     -41   -302    110    305    324 187.8  20.6  34148  289.37 0855.24
2009/04/23 10:11:20.0     -34   -280    118    283    306 187.1  24.1  34146  289.34 0855.24
2009/04/23 10:11:20.1      -9   -319    145    320    351 181.8  25.9  34148  289.38 0855.24
2009/04/23 10:11:20.2      -7   -377    242    378    448 181.2  35.6  34150  289.39 0855.24
2009/04/23 10:11:20.3      -9   -296    194    297    354 181.8  36.3  34152  289.45 0855.24
2009/04/23 10:11:20.4      14   -260    139    261    295 176.9  30.3  34152  289.42 0855.24
2009/04/23 10:11:20.5     -22   -292    110    293    312 184.5  21.5  34148  289.37 0855.24
2009/04/23 10:11:20.6     -50   -193     62    200    210 194.7  17.4  34148  289.38 0855.24
2009/04/23 10:11:20.7     -21     16    113     27    116 307.8  86.9  34166  289.67 0855.24
2009/04/23 10:11:20.8     -33     60    113     69    132 331.0  65.7  34168  289.70 0855.24
2009/04/23 10:11:20.9     -69   -262     53    272    278 194.9  11.1  34148  289.36 0855.24
2009/04/23 10:11:21.0    -145   -385     17    412    413 200.7   2.4  34148  289.38 0855.24
2009/04/23 10:11:21.1    -148   -402     -9    429    430 200.3  -1.3  34144  289.29 0855.24
2009/04/23 10:11:21.2    -243   -366     54    440    444 213.6   7.1  34148  289.36 0855.24
2009/04/23 10:11:21.3    -286   -354    165    456    486 219.0  19.9  34146  289.35 0855.24
2009/04/23 10:11:21.4     -76   -543     42    549    551 188.0   4.5  34140  289.23 0855.24
2009/04/23 10:11:21.5     -85   -477   -107    485    497 190.1 -12.5  34146  289.34 0855.24
2009/04/23 10:11:21.6    -174   -390    -33    428    430 204.1  -4.5  34144  289.29 0855.24
2009/04/23 10:11:21.7    -189   -313   -112    366    382 211.1 -21.9  34146  289.32 0855.24
2009/04/23 10:11:21.8    -233   -250     -4    342    343 223.0  -0.7  34148  289.37 0855.24
2009/04/23 10:11:21.9    -104   -203     48    229    235 207.1  12.0  34148  289.38 0855.24
2009/04/23 10:11:22.0    -107   -168     39    200    204 212.6  11.1  34146  289.35 0855.24
2009/04/23 10:11:22.1    -123   -251    -33    280    283 206.1  -6.9  34150  289.41 0855.24
2009/04/23 10:11:22.2    -174   -245    -64    301    308 215.4 -12.2  34150  289.41 0855.24
2009/04/23 10:11:22.3    -216   -215    -86    305    318 225.1 -15.8  34158  289.54 0855.24
2009/04/23 10:11:22.4    -123   -196    -57    232    239 212.3 -13.9  34162  289.61 0855.24
2009/04/23 10:11:22.5    -262   -270     44    377    380 224.2   6.8  34148  289.38 0855.24
2009/04/23 10:11:22.6    -232   -197      9    305    306 229.6   1.8  34140  289.22 0855.24
2009/04/23 10:11:22.7    -245   -197    105    315    333 231.1  18.5  34160  289.56 0855.24
2009/04/23 10:11:22.8    -238   -161    -16    288    289 235.9  -3.2  34156  289.51 0855.24
2009/04/23 10:11:22.9    -248   -157    -54    294    299 237.6 -10.5  34138  289.20 0855.24
2009/04/23 10:11:23.0    -279   -153    -91    319    332 241.2 -16.0  34110  288.73 0855.24
2009/04/23 10:11:23.1    -246   -142    -86    285    297 240.0 -21.7  34110  288.73 0855.22
2009/04/23 10:11:23.2    -231   -147    -95    274    290 237.5 -24.0  34118  288.85 0855.22
2009/04/23 10:11:23.3    -231   -191    -71    300    309 230.4 -13.4  34142  289.25 0855.22
2009/04/23 10:11:23.5    -201   -197    -85    282    295 225.6 -16.8  34146  289.32 0855.22
2009/04/23 10:11:23.6    -175   -211    -97    275    291 219.7 -24.4  34142  289.25 0855.22
2009/04/23 10:11:23.6    -108   -219   -152    245    288 206.3 -39.4  34138  289.20 0855.22
2009/04/23 10:11:23.7     -45   -279     34    283    286 189.3   6.9  34128  289.02 0855.22
2009/04/23 10:11:23.8     -44   -260     17    264    265 189.7   3.8  34138  289.20 0855.22
2009/04/23 10:11:23.9     -86   -216    -38    233    237 201.8  -9.4  34152  289.44 0855.22
2009/04/23 10:11:24.1      36   -221      8    225    226 170.7   2.1  34154  289.46 0855.22
2009/04/23 10:11:24.2       1   -200     64    201    211 179.5  17.7  34156  289.52 0855.22
2009/04/23 10:11:24.3       4   -178     63    179    190 178.6  19.4  34154  289.48 0855.22
2009/04/23 10:11:24.4      -9   -201     55    202    210 182.6  15.3  34158  289.53 0855.22
2009/04/23 10:11:24.5     -26   -222     11    224    225 186.7   2.9  34160  289.57 0855.22
2009/04/23 10:11:24.6     -37   -215     18    219    220 189.8   4.9  34154  289.48 0855.22
2009/04/23 10:11:24.7     -67   -215    -12    226    227 197.4  -3.1  34154  289.48 0855.22
2009/04/23 10:11:24.8     -93   -165      0    190    191 209.4   0.0  34158  289.53 0855.22
2009/04/23 10:11:24.9     -96   -109    -52    146    156 221.5 -19.7  34156  289.52 0855.22
2009/04/23 10:11:25.0    -107    -63    -76    125    146 239.3 -38.8  34158  289.55 0855.22
2009/04/23 10:11:25.1    -165   -111    -73    200    212 236.0 -25.1  34160  289.57 0855.22
2009/04/23 10:11:25.2    -157   -160     11    225    226 224.3   2.8  34156  289.50 0855.20
2009/04/23 10:11:25.3    -231   -203     15    308    309 228.7   2.9  34154  289.47 0855.20
2009/04/23 10:11:25.4    -273   -108     79    294    305 248.3  15.2  34158  289.53 0855.20
2009/04/23 10:11:25.5    -254    -65     64    263    271 255.6  13.7  34158  289.53 0855.20
2009/04/23 10:11:25.6    -341    -67    -21    348    349 258.8  -3.5  34146  289.35 0855.20
2009/04/23 10:11:25.7    -421      0    -81    422    430 270.0 -10.9  34142  289.26 0855.20
2009/04/23 10:11:25.8    -401    -65    -96    407    419 260.8 -13.3  34138  289.21 0855.20
2009/04/23 10:11:25.9    -363    -38   -111    366    383 263.9 -16.9  34122  288.93 0855.20
2009/04/23 10:11:26.0    -349    -48    -97    353    366 262.1 -20.0  34118  288.86 0855.20
2009/04/23 10:11:26.1    -314    -48    -75    318    327 261.2 -13.4  34122  288.93 0855.20
2009/04/23 10:11:26.2    -312      4    -44    313    317 270.8  -8.1  34116  288.83 0855.20
2009/04/23 10:11:26.3    -294    -31      5    296    297 263.9   1.0  34140  289.24 0855.20
2009/04/23 10:11:26.4    -336    -55     36    341    343 260.6   6.1  34158  289.55 0855.20
2009/04/23 10:11:26.5    -299   -103      3    317    318 251.0   0.7  34146  289.34 0855.20
2009/04/23 10:11:26.6    -266    -92    -29    282    284 250.9  -6.0  34134  289.14 0855.20
2009/04/23 10:11:26.7    -260    -85    -41    274    278 251.8  -8.6  34122  288.93 0855.20
2009/04/23 10:11:26.8    -277    -50    -11    282    283 259.6  -2.2  34124  288.95 0855.20
2009/04/23 10:11:26.9    -275    -74    -84    285    298 254.9 -16.4  34120  288.90 0855.20
2009/04/23 10:11:27.0    -254    -47    -98    259    276 259.4 -26.1  34120  288.90 0855.20
2009/04/23 10:11:27.1    -268     11    -89    269    283 272.4 -23.8  34118  288.85 0855.20
2009/04/23 10:11:27.2    -224     24    -71    226    238 276.2 -17.6  34112  288.76 0855.22
2009/04/23 10:11:27.3    -202      8    -57    203    210 272.4 -20.4  34118  288.87 0855.22
2009/04/23 10:11:27.4    -115     59    -20    130    132 297.1  -8.8  34122  288.94 0855.22
2009/04/23 10:11:27.5    -127     10     48    128    136 274.8  21.0  34124  288.97 0855.22
2009/04/23 10:11:27.6    -123     40     64    130    144 288.2  28.2  34128  289.04 0855.22
2009/04/23 10:11:27.7     -93     -4     40     94    102 267.0  24.1  34130  289.08 0855.22
2009/04/23 10:11:27.8     -70    -85     -4    111    112 219.6  -2.2  34136  289.18 0855.22
2009/04/23 10:11:27.9     -52    -87      5    102    103 211.2   2.9  34142  289.26 0855.22
2009/04/23 10:11:28.0     -40   -102    -32    110    115 201.4 -16.6  34142  289.26 0855.22
2009/04/23 10:11:28.1     -38   -107      5    114    115 200.0   2.9  34142  289.28 0855.22
2009/04/23 10:11:28.2       5   -123    -29    124    128 177.4 -13.3  34150  289.40 0855.22
2009/04/23 10:11:28.3     -36   -141    -58    146    157 194.3 -27.2  34146  289.35 0855.22
2009/04/23 10:11:28.4     -60   -165    -13    176    177 200.0  -4.4  34148  289.36 0855.22
2009/04/23 10:11:28.5     -58   -154     20    165    167 200.7   7.2  34148  289.38 0855.22
2009/04/23 10:11:28.6     -30   -167     50    170    178 190.5  16.6  34148  289.38 0855.22
2009/04/23 10:11:28.7      16   -215     78    216    229 175.5  20.7  34154  289.46 0855.22
2009/04/23 10:11:28.8      36   -213     59    217    226 170.2  15.3  34152  289.45 0855.22
2009/04/23 10:11:28.9      48   -219    109    225    250 167.5  27.4  34150  289.39 0855.22
2009/04/23 10:11:29.0      84   -245    109    260    281 160.9  24.1  34144  289.29 0855.22
2009/04/23 10:11:29.1     111   -316    134    336    361 160.6  23.0  34138  289.21 0855.22
2009/04/23 10:11:29.2     157   -317    148    354    383 153.6  24.1  34132  289.10 0855.21
2009/04/23 10:11:29.3     147   -346    169    376    412 157.0  25.9  34138  289.20 0855.21
2009/04/23 10:11:29.4     168   -330    175    371    410 153.0  27.1  34140  289.23 0855.21
2009/04/23 10:11:29.5     193   -408    147    452    476 154.7  18.0  34150  289.39 0855.21
2009/04/23 10:11:29.6     203   -351     31    406    408 150.0   4.4  34140  289.24 0855.21
2009/04/23 10:11:29.7     179   -322    115    369    387 150.8  17.3  34152  289.42 0855.21
2009/04/23 10:11:29.8     206   -311    127    374    396 146.5  18.8  34148  289.37 0855.21
2009/04/23 10:11:29.9     209   -344     50    403    407 148.7   7.1  34148  289.38 0855.21
2009/04/23 10:11:30.0     153   -337    120    371    390 155.5  17.9  34144  289.30 0855.21
2009/04/23 10:11:30.1     127   -369    136    391    415 161.0  19.2  34146  289.33 0855.21
2009/04/23 10:11:30.2     105   -355     31    371    373 163.5   4.9  34150  289.40 0855.21
2009/04/23 10:11:30.3      86   -388     11    398    399 167.5   1.7  34144  289.30 0855.21
2009/04/23 10:11:30.4      74   -388    -33    395    397 169.2  -4.8  34148  289.37 0855.21
2009/04/23 10:11:30.5     -20   -434    -88    435    444 182.7 -11.5  34148  289.36 0855.21
2009/04/23 10:11:30.6      11   -386    -98    387    400 178.3 -14.3  34144  289.30 0855.21
2009/04/23 10:11:30.7      10   -407   -106    408    422 178.5 -14.6  34146  289.34 0855.21
2009/04/23 10:11:30.8      -1   -402    -87    403    413 180.3 -12.3  34144  289.31 0855.21
2009/04/23 10:11:30.9      44   -504    -92    507    516 174.9 -10.4  34126  289.00 0855.21
2009/04/23 10:11:31.0     -48   -519   -186    522    555 185.3 -19.7  34126  288.99 0855.21
2009/04/23 10:11:31.1     133   -647     32    661    662 168.3   2.8  34106  288.65 0855.21
2009/04/23 10:11:31.2     101   -776    -25    783    784 172.6  -1.9  34126  289.00 0855.17
2009/04/23 10:11:31.3      37   -704    -65    705    709 177.0  -5.3  34112  288.76 0855.17
2009/04/23 10:11:31.4      10   -709    -89    710    716 179.2  -7.2  34104  288.61 0855.17
2009/04/23 10:11:31.5       2   -692      4    693    694 179.8   0.4  34106  288.65 0855.17
2009/04/23 10:11:31.6      18   -677     20    678    679 178.4   1.7  34110  288.73 0855.17
2009/04/23 10:11:31.7       5   -593    -52    594    597 179.5  -5.1  34128  289.03 0855.17
2009/04/23 10:11:31.8     -21   -659    -11    660    661 181.9  -1.0  34140  289.22 0855.17
2009/04/23 10:11:31.9    -150   -636     49    654    656 193.3   4.3  34144  289.30 0855.17
2009/04/23 10:11:32.0    -114   -537     31    550    551 192.1   3.2  34116  288.84 0855.17
2009/04/23 10:11:32.1    -146   -509    -23    530    531 196.0  -2.5  34132  289.09 0855.17
2009/04/23 10:11:32.2     -24   -489    -10    490    491 182.9  -1.3  34120  288.90 0855.17
2009/04/23 10:11:32.3      -8   -512    -43    513    515 180.9  -4.8  34120  288.90 0855.17
2009/04/23 10:11:32.4      68   -524   -114    529    542 172.6 -12.2  34118  288.87 0855.17
2009/04/23 10:11:32.5     127   -357    -97    380    393 160.3 -14.3  34106  288.67 0855.17
2009/04/23 10:11:32.6      42   -336    -18    339    340 172.8  -3.2  34104  288.64 0855.17
2009/04/23 10:11:32.7      30   -316     37    318    321 174.6   6.7  34124  288.95 0855.17
2009/04/23 10:11:32.8     -20   -261    -67    262    271 184.4 -14.4  34132  289.10 0855.17
2009/04/23 10:11:32.9     -42   -222     -8    226    227 190.7  -2.2  34130  289.08 0855.17
2009/04/23 10:11:33.0     -51   -134     29    144    148 200.9  11.6  34130  289.06 0855.17
2009/04/23 10:11:33.1     -50    -73     86     89    123 214.7  49.4  34132  289.09 0855.17
2009/04/23 10:11:33.2     -57    -47     33     75     81 230.4  25.1  34130  289.06 0855.19
2009/04/23 10:11:33.3      22    -22     35     32     47 135.0  52.2  34138  289.19 0855.19
2009/04/23 10:11:33.4      24    -51     71     57     91 154.7  56.4  34142  289.28 0855.19
2009/04/23 10:11:33.5     104    -57     33    119    124 118.9  15.8  34142  289.26 0855.19
2009/04/23 10:11:33.6     109    -36    -16    116    118 108.6  -8.2  34138  289.19 0855.19
2009/04/23 10:11:33.7     116    -23     -6    119    120 101.4  -3.1  34136  289.16 0855.19
2009/04/23 10:11:33.8     131    -63     37    146    151 115.8  14.3  34136  289.16 0855.19
2009/04/23 10:11:33.9     -19   -157     99    159    187 187.1  35.2  34128  289.02 0855.19
2009/04/23 10:11:34.0      -1   -205     76    206    219 180.5  21.0  34130  289.06 0855.19
2009/04/23 10:11:34.1     -12   -175     42    176    181 184.0  13.5  34124  288.97 0855.19
2009/04/23 10:11:34.2     -49   -184    -56    191    199 194.9 -21.2  34122  288.94 0855.20
2009/04/23 10:11:34.3     102   -112   -123    152    195 137.7 -47.7  34130  289.08 0855.20
2009/04/23 10:11:34.4      73   -107    -81    130    153 145.7 -39.9  34128  289.04 0855.20
2009/04/23 10:11:34.5     101    -33    -34    107    112 108.2 -23.3  34128  289.04 0855.20
2009/04/23 10:11:34.6      23    -80    -24     84     87 163.5 -21.2  34126  288.99 0855.20
2009/04/23 10:11:34.7       5    -67    -52     68     85 175.6 -45.6  34132  289.09 0855.20
2009/04/23 10:11:34.8       7     -6    -29     10     30 129.5 -85.4  34132  289.11 0855.20
2009/04/23 10:11:34.9     -17    -11    -28     21     35 237.5 -64.9  34134  289.13 0855.20
2009/04/23 10:11:35.0     -16    -16    -22     24     32 225.0 -54.4  34136  289.18 0855.20
2009/04/23 10:11:35.1      12    -20    -21     24     31 149.3 -50.2  34138  289.19 0855.20
2009/04/23 10:11:35.2      12    -39    -11     42     44 162.2 -15.5  34136  289.18 0855.20
2009/04/23 10:11:35.3      60    -53     22     81     85 131.8  15.3  34134  289.14 0855.20
2009/04/23 10:11:35.4     106    -77      7    132    133 126.0   3.3  34134  289.13 0855.20
2009/04/23 10:11:35.5      93    -73      4    119    120 128.2   2.3  34136  289.18 0855.20
2009/04/23 10:11:35.6      98    -54      7    113    114 118.9   3.8  34134  289.14 0855.20
2009/04/23 10:11:35.7      83   -107     91    136    163 142.2  36.7  34130  289.06 0855.20
2009/04/23 10:11:35.8      59   -155    126    167    209 159.1  40.9  34128  289.02 0855.20
2009/04/23 10:11:35.9      82   -115    117    142    183 144.4  43.7  34128  289.04 0855.20
2009/04/23 10:11:36.0     124    -72     71    144    160 120.2  28.2  34138  289.19 0855.20
2009/04/23 10:11:36.1     129    -56    112    141    180 113.5  42.7  34130  289.06 0855.20
2009/04/23 10:11:36.2     104    -35    106    110    152 108.6  49.4  34128  289.04 0855.22
2009/04/23 10:11:36.3      59    -55    102     81    130 133.1  57.5  34126  288.99 0855.22
2009/04/23 10:11:36.4      19    -10     66     22     69 118.9  81.0  34134  289.13 0855.22
2009/04/23 10:11:36.5      21     13     42     26     49  57.6  64.7  34132  289.11 0855.22
2009/04/23 10:11:36.6      24     -7     85     26     88 106.8  82.3  34128  289.04 0855.22
2009/04/23 10:11:36.7      -5      4     99      7     99 309.5  90.0  34118  288.87 0855.22
2009/04/23 10:11:36.8      29    -18    110     35    115 122.4  80.7  34120  288.89 0855.22
2009/04/23 10:11:36.9      -2     -6    102      7    102 198.3  90.0  34118  288.87 0855.22
2009/04/23 10:11:37.0      11    -73    130     74    149 171.1  68.3  34126  289.01 0855.22
2009/04/23 10:11:37.1      10    -72    111     73    132 171.9  64.1  34118  288.86 0855.22
2009/04/23 10:11:37.2      -4    -72    133     73    151 183.6  68.9  34120  288.91 0855.22
2009/04/23 10:11:37.3       8    -47    119     48    128 170.2  77.1  34126  288.99 0855.22
2009/04/23 10:11:37.4     104    -27    135    108    172 104.6  57.1  34134  289.13 0855.22
2009/04/23 10:11:37.5     -18   -127    205    129    242 188.1  64.7  34126  288.99 0855.22
2009/04/23 10:11:37.6      16   -107    202    109    229 171.5  69.3  34122  288.92 0855.22
2009/04/23 10:11:37.7      13   -148    183    149    235 174.7  56.6  34126  288.99 0855.22
2009/04/23 10:11:37.8      -9   -166    187    167    250 183.4  53.7  34122  288.94 0855.22
2009/04/23 10:11:37.9      43    -36    110     57    123 129.6  70.8  34142  289.26 0855.22
2009/04/23 10:11:38.0     133    -63    116    148    188 115.3  42.2  34130  289.06 0855.22
2009/04/23 10:11:38.1     137     24    159    140    211  79.9  54.3  34126  288.99 0855.22
2009/04/23 10:11:38.2      98     11    148     99    178  83.4  63.2  34134  289.13 0855.24
2009/04/23 10:11:38.3      81     26    137     86    161  71.8  65.1  34136  289.18 0855.24
2009/04/23 10:11:38.4      92     58     46    110    119  57.6  23.6  34128  289.04 0855.24
2009/04/23 10:11:38.5     154     51     44    163    170  71.6  15.3  34158  289.53 0855.24
2009/04/23 10:11:38.6     207     32    163    210    265  81.0  41.7  34134  289.12 0855.24
2009/04/23 10:11:38.7     213     28    181    215    281  82.3  44.5  34126  288.98 0855.24
2009/04/23 10:11:38.8     178     55    183    187    261  72.7  49.4  34164  289.64 0855.24
2009/04/23 10:11:38.9      84     12    157     85    178  81.6  69.1  34170  289.75 0855.24
2009/04/23 10:11:39.0     292     22    153    293    330  85.7  29.8  34132  289.10 0855.24
2009/04/23 10:11:39.1     305    100    206    321    381  71.8  35.6  34164  289.64 0855.24
2009/04/23 10:11:39.2     263     79    212    275    347  73.2  41.5  34144  289.31 0855.24
2009/04/23 10:11:39.3     306    111    200    326    382  70.0  34.4  34138  289.20 0855.24
2009/04/23 10:11:39.4     258    138    183    293    345  61.8  35.2  34126  289.01 0855.24
2009/04/23 10:11:39.5     149    178    176    233    292  39.9  40.7  34124  288.97 0855.24
2009/04/23 10:11:39.6       4     62    154     63    166   4.4  76.6  34140  289.24 0855.24
2009/04/23 10:11:39.7      -1     15    168     16    168 355.6  90.0  34142  289.28 0855.24
2009/04/23 10:11:39.8      81    -36    150     89    174 114.0  66.4  34146  289.33 0855.24
2009/04/23 10:11:39.9    -121   -165    192    205    280 216.3  48.0  34140  289.22 0855.24
2009/04/23 10:11:40.0    -159   -112    213    195    288 234.9  52.7  34142  289.27 0855.24
2009/04/23 10:11:40.1     -51    -48    139     71    156 226.9  71.1  34134  289.14 0855.24
2009/04/23 10:11:40.2     -62    121    159    137    209 332.8  54.8  34136  289.18 0855.25
2009/04/23 10:11:40.3     -74     69    106    102    147 312.7  51.2  34134  289.14 0855.25
2009/04/23 10:11:40.4      45     95    133    106    170  25.5  57.5  34136  289.16 0855.25
2009/04/23 10:11:40.5     135    -27    148    138    202 101.5  52.1  34144  289.31 0855.25
2009/04/23 10:11:40.6      67      7     45     68     81  83.9  36.5  34128  289.02 0855.25
2009/04/23 10:11:40.7       7      3    174      8    174  64.7  90.0  34154  289.48 0855.25
2009/04/23 10:11:40.8      36     57    136     68    152  32.5  71.9  34136  289.18 0855.25
2009/04/23 10:11:40.9     -12      9    163     16    163 306.0  90.0  34146  289.35 0855.25
2009/04/23 10:11:41.0     154      4    231    155    278  88.3  62.8  34140  289.22 0855.25
2009/04/23 10:11:41.1     286    131    273    315    416  65.4  45.4  34130  289.08 0855.25
2009/04/23 10:11:41.2      65     21    234     69    243  71.4  83.1  34140  289.24 0855.25
2009/04/23 10:11:41.3      81     40    222     91    239  63.8  76.6  34138  289.19 0855.25
2009/04/23 10:11:41.4     113    -32    253    118    279 105.9  73.2  34134  289.14 0855.25
2009/04/23 10:11:41.5     320    -13    235    321    397  92.5  39.9  34122  288.93 0855.25
2009/04/23 10:11:41.6     336     93    155    349    381  74.5  25.6  34122  288.93 0855.25
2009/04/23 10:11:41.7     273     46    252    277    374  80.3  47.0  34126  288.98 0855.25
2009/04/23 10:11:41.8     255     82    251    269    367  72.1  47.9  34142  289.26 0855.25
2009/04/23 10:11:41.9     224     97    195    245    313  66.5  42.6  34186  290.02 0855.25
2009/04/23 10:11:42.0     154    174    173    233    290  41.7  40.4  34202  290.29 0855.25
2009/04/23 10:11:42.1     178    172    146    248    287  46.0  33.4  34210  290.41 0855.25
2009/04/23 10:11:42.2     233    217    162    319    357  47.1  29.2  34198  290.23 0855.26
2009/04/23 10:11:42.3     146    177    138    230    268  39.6  34.0  34228  290.71 0855.26
2009/04/23 10:11:42.4     173     86    135    194    236  63.6  38.4  34214  290.50 0855.26
2009/04/23 10:11:42.5     227    149    158    272    314  56.7  32.9  34232  290.80 0855.26
2009/04/23 10:11:42.6     133    108    183    172    251  50.9  52.1  34202  290.28 0855.26
2009/04/23 10:11:42.7     -24    235    182    237    298 354.0  41.6  34214  290.49 0855.26
2009/04/23 10:11:42.8      55    195    144    203    248  15.8  38.6  34256  291.21 0855.26
2009/04/23 10:11:42.9       7    174    109    175    206   2.5  35.2  34252  291.13 0855.26
2009/04/23 10:11:43.0     102     64     70    121    139  57.6  32.4  34234  290.82 0855.26
2009/04/23 10:11:43.1     143    115     80    184    200  51.1  25.1  34186  290.02 0855.26
2009/04/23 10:11:43.2     154    144    101    211    233  46.9  27.3  34166  289.69 0855.26
2009/04/23 10:11:43.3     144    121    193    189    270  49.8  50.4  34178  289.88 0855.26
2009/04/23 10:11:43.4     236     95    198    255    322  68.0  41.9  34204  290.31 0855.26
2009/04/23 10:11:43.5     256    155    202    300    361  58.9  37.3  34182  289.93 0855.26
2009/04/23 10:11:43.6     -14     86    152     88    175 350.2  67.5  34202  290.28 0855.26
2009/04/23 10:11:43.7      56     60    153     83    174  42.8  69.1  34202  290.30 0855.26
2009/04/23 10:11:43.8      21    128    154    130    201   9.7  55.6  34202  290.30 0855.26
2009/04/23 10:11:43.9       2     37    105     38    111   4.5  80.2  34212  290.47 0855.26
2009/04/23 10:11:44.0      12     31     54     34     63  21.8  64.7  34210  290.43 0855.26
2009/04/23 10:11:44.1       1     78     70     79    105   0.9  46.4  34210  290.41 0855.26
2009/04/23 10:11:44.2     -51      7     66     52     84 278.8  57.9  34218  290.55 0855.24
2009/04/23 10:11:44.3     -35      9     60     37     70 285.1  64.7  34218  290.55 0855.24
2009/04/23 10:11:44.4      -4     -3     76      6     76 230.5  90.0  34228  290.74 0855.24
2009/04/23 10:11:44.5     -26    -11     56     29     63 246.5  70.8  34234  290.84 0855.24
2009/04/23 10:11:44.6     -20     21     65     30     71 316.8  73.1  34236  290.87 0855.24
2009/04/23 10:11:44.7     -91    -23     32     94    100 255.8  18.9  34218  290.57 0855.24
2009/04/23 10:11:44.8     -91    -58     75    108    131 237.5  38.0  34192  290.11 0855.24
2009/04/23 10:11:44.9    -121   -158    174    200    265 217.4  45.6  34176  289.83 0855.24
2009/04/23 10:11:45.0    -108   -137    156    175    234 218.3  46.2  34134  289.14 0855.24
2009/04/23 10:11:45.1       0   -241    -26    242    244 180.0  -6.2  34164  289.64 0855.24
2009/04/23 10:11:45.2      64   -271    -77    279    290 166.7 -15.5  34146  289.34 0855.24
2009/04/23 10:11:45.3     256   -313     21    405    406 140.8   3.0  34140  289.22 0855.24
2009/04/23 10:11:45.4     196   -252     29    320    322 142.1   5.2  34134  289.14 0855.24
2009/04/23 10:11:45.5     133   -224    -20    261    262 149.2  -4.6  34136  289.15 0855.24
2009/04/23 10:11:45.6     200   -294     -6    356    357 145.7  -1.1  34134  289.13 0855.24
2009/04/23 10:11:45.7     237   -463    -11    521    522 152.9  -1.3  34134  289.13 0855.24
2009/04/23 10:11:45.8      28   -438    130    439    458 176.3  16.5  34134  289.14 0855.24
2009/04/23 10:11:45.9     102   -440     62    452    457 166.9   7.8  34140  289.22 0855.24
2009/04/23 10:11:46.0     107   -429     86    443    452 166.0  11.0  34136  289.16 0855.24
2009/04/23 10:11:46.1      26   -497    132    498    516 177.0  14.9  34140  289.22 0855.24
2009/04/23 10:11:46.2     122   -509     68    524    529 166.5   7.5  34132  289.11 0855.23
2009/04/23 10:11:46.3     -21   -395    108    396    411 183.2  15.3  34138  289.21 0855.23
2009/04/23 10:11:46.4       9   -335     72    336    344 178.4  12.2  34136  289.18 0855.23
2009/04/23 10:11:46.5      25   -302    145    304    336 175.1  27.3  34132  289.09 0855.23
2009/04/23 10:11:46.6      34   -325    135    327    353 174.0  23.7  34132  289.11 0855.23
2009/04/23 10:11:46.7      22   -290    136    291    321 175.6  26.6  34140  289.24 0855.23
2009/04/23 10:11:46.8      68   -251    238    261    353 164.9  47.1  34140  289.24 0855.23
2009/04/23 10:11:46.9     246   -164    111    296    316 123.7  21.5  34138  289.20 0855.23
2009/04/23 10:11:47.0     272   -243     83    366    376 131.8  12.8  34136  289.18 0855.23
2009/04/23 10:11:47.1     261   -223    -65    344    351 130.6 -10.8  34132  289.11 0855.23
2009/04/23 10:11:47.2     166   -200     34    260    263 140.3   7.5  34136  289.17 0855.23
2009/04/23 10:11:47.3     134   -112     65    175    186 130.0  21.5  34136  289.18 0855.23
2009/04/23 10:11:47.4      57   -193    116    202    232 163.5  32.7  34138  289.19 0855.23
2009/04/23 10:11:47.5      78   -141    163    162    229 151.0  50.1  34142  289.28 0855.23
2009/04/23 10:11:47.6      10   -236    173    237    293 177.4  39.7  34142  289.27 0855.23
2009/04/23 10:11:47.7     -35   -376    193    378    424 185.4  29.2  34146  289.33 0855.23
2009/04/23 10:11:47.8     -31   -414    120    416    434 184.4  16.1  34152  289.43 0855.23
2009/04/23 10:11:47.9     -60   -354    117    360    379 189.7  18.0  34148  289.37 0855.23
2009/04/23 10:11:48.0     -59   -429     54    434    438 187.9   7.1  34142  289.27 0855.23
2009/04/23 10:11:48.1    -186   -499    139    533    551 200.5  14.6  34150  289.41 0855.23
2009/04/23 10:11:48.2    -186   -454    199    491    529 202.3  23.2  34146  289.34 0855.22
2009/04/23 10:11:48.3    -185   -423     18    462    463 203.6   2.2  34154  289.46 0855.22
2009/04/23 10:11:48.4    -185   -428     31    467    469 203.4   3.8  34142  289.28 0855.22
2009/04/23 10:11:48.5    -187   -357     34    404    406 207.7   4.9  34152  289.44 0855.22
2009/04/23 10:11:48.6    -216   -330    -25    395    396 213.2  -3.7  34142  289.25 0855.22
2009/04/23 10:11:48.7    -167   -380     -3    416    417 203.7  -0.5  34134  289.14 0855.22
2009/04/23 10:11:48.8    -245   -350    -41    428    431 215.0  -5.5  34188  290.05 0855.22
2009/04/23 10:11:48.9    -257   -211    -11    333    334 230.6  -1.9  34192  290.10 0855.22
2009/04/23 10:11:49.0    -141   -255      5    292    293 209.0   1.0  34144  289.31 0855.22
2009/04/23 10:11:49.1    -239   -168    -79    293    304 234.9 -15.2  34176  289.85 0855.22
2009/04/23 10:11:49.2    -169   -204    -79    265    277 219.6 -16.6  34160  289.58 0855.22
2009/04/23 10:11:49.3    -140   -171    -70    222    233 219.4 -17.6  34142  289.26 0855.22
2009/04/23 10:11:49.4     -98   -202    -62    225    234 205.9 -15.4  34146  289.35 0855.22
2009/04/23 10:11:49.5    -119   -119    -36    169    173 225.0 -12.2  34172  289.79 0855.22
2009/04/23 10:11:49.6      10   -159    -39    160    165 176.2 -13.7  34142  289.26 0855.22
2009/04/23 10:11:49.7     -61    -68    -55     92    107 221.9 -38.4  34144  289.30 0855.22
2009/04/23 10:11:49.8     -67    -13    -80     69    105 258.5 -59.2  34144  289.31 0855.22
2009/04/23 10:11:49.9    -134      8    -61    135    148 273.5 -30.6  34174  289.82 0855.22
2009/04/23 10:11:50.0    -144     37     23    149    151 284.6   9.0  34186  290.02 0855.22
2009/04/23 10:11:50.1    -129      1     -1    130    131 270.8  -0.7  34188  290.04 0855.22
2009/04/23 10:11:50.2    -118     15     18    119    121 277.5   8.9  34188  290.06 0855.22
2009/04/23 10:11:50.3    -109     35     65    115    132 288.2  31.9  34182  289.96 0855.22
2009/04/23 10:11:50.4     -99     98     48    140    149 314.9  18.9  34186  290.02 0855.22
2009/04/23 10:11:50.5    -121     57    -59    134    146 295.4 -29.5  34184  289.99 0855.22
2009/04/23 10:11:50.6     -69    106    -55    127    138 327.0 -29.5  34168  289.72 0855.22
2009/04/23 10:11:50.7     -49    118     10    128    129 337.3   4.9  34176  289.84 0855.22
2009/04/23 10:11:50.8     -14    125     33    126    131 353.3  14.7  34182  289.96 0855.22
2009/04/23 10:11:50.9     -34    165     30    169    172 348.2  10.1  34174  289.82 0855.22
2009/04/23 10:11:51.0     -43    144     -4    151    152 343.1  -1.8  34166  289.69 0855.22
2009/04/23 10:11:51.1     -59    106     16    122    124 330.6   7.5  34166  289.67 0855.22
2009/04/23 10:11:51.2    -118     39    -50    125    134 288.2 -26.9  34174  289.80 0855.22
2009/04/23 10:11:51.3    -123      8    -90    124    153 273.9 -44.1  34168  289.70 0855.22
2009/04/23 10:11:51.4    -118    -11    -93    119    151 264.3 -46.6  34164  289.65 0855.22
2009/04/23 10:11:51.5     -90     -4   -108     91    141 267.4 -60.2  34172  289.79 0855.22
2009/04/23 10:11:51.6     -35    -49    -62     61     86 216.1 -54.1  34180  289.91 0855.22
2009/04/23 10:11:51.7     -48    -68    -33     84     90 215.6 -26.4  34170  289.75 0855.22
2009/04/23 10:11:51.9     -34    -71    -20     79     82 205.5 -14.5  34172  289.79 0855.22
2009/04/23 10:11:52.0     -18    -49    -35     53     63 200.0 -40.9  34172  289.79 0855.22
2009/04/23 10:11:52.1     -31    -26    -30     41     50 230.4 -44.1  34174  289.82 0855.22
2009/04/23 10:11:52.2      51   -101    -20    114    116 153.3 -10.3  34170  289.75 0855.22
2009/04/23 10:11:52.3      60   -121     16    136    137 153.7   6.9  34164  289.65 0855.22
2009/04/23 10:11:52.4      81    -81      5    115    116 135.0   2.9  34166  289.67 0855.22
2009/04/23 10:11:52.5      19   -110     22    112    115 169.8  11.1  34164  289.63 0855.22
2009/04/23 10:11:52.6     -44   -112     45    121    129 201.8  21.0  34162  289.62 0855.22
2009/04/23 10:11:52.7     -63    -95    -23    115    118 213.8 -11.3  34160  289.58 0855.22
2009/04/23 10:11:52.8     -70    -86    -10    112    113 219.2  -5.6  34158  289.55 0855.22
2009/04/23 10:11:52.9     -67    -72    -25     99    103 223.2 -14.5  34158  289.53 0855.22
2009/04/23 10:11:53.0     -36    -34    -57     50     75 226.9 -58.7  34174  289.82 0855.22
2009/04/23 10:11:53.1     -90    -14     -5     92     93 261.2  -3.1  34164  289.63 0855.22
2009/04/23 10:11:53.2    -105    -18      5    107    108 260.3   2.8  34164  289.63 0855.22
2009/04/23 10:11:53.3    -108    -36     29    115    119 251.4  14.3  34158  289.55 0855.22
2009/04/23 10:11:53.4    -120    -40     43    127    135 251.6  18.9  34166  289.67 0855.22
2009/04/23 10:11:53.5    -131    -44      2    139    140 251.4   1.2  34166  289.69 0855.22
2009/04/23 10:11:53.6    -116      3     15    117    118 271.7   7.5  34178  289.87 0855.22
2009/04/23 10:11:53.7     -76     48     59     91    108 302.4  35.6  34178  289.87 0855.22
2009/04/23 10:11:53.8     -31     48     62     58     84 327.5  51.6  34180  289.92 0855.22
2009/04/23 10:11:53.9       7     34    103     35    108  11.6  81.2  34182  289.94 0855.22
2009/04/23 10:11:54.0      21     26    127     34    131  39.6  84.9  34196  290.18 0855.22
2009/04/23 10:11:54.1      39     61    112     73    133  32.6  64.6  34190  290.09 0855.22
2009/04/23 10:11:54.2      64    198     61    209    218  18.0  16.3  34180  289.92 0855.22
2009/04/23 10:11:54.3     139    201     26    245    247  34.7   6.1  34196  290.19 0855.22
2009/04/23 10:11:54.4     234    181    144    296    329  52.3  27.8  34206  290.36 0855.22
2009/04/23 10:11:54.5     183    190    105    264    284  43.9  23.0  34224  290.65 0855.22
2009/04/23 10:11:54.6     153    162     14    224    225  43.3   3.8  34194  290.16 0855.22
2009/04/23 10:11:54.7     184    133    -21    228    230  54.1  -5.4  34180  289.92 0855.22
2009/04/23 10:11:54.8     221    155     13    271    272  54.9   2.9  34242  290.95 0855.22
2009/04/23 10:11:54.9     144    195     88    243    259  36.5  19.9  34274  291.50 0855.22
2009/04/23 10:11:55.0     150    124    135    195    237  50.5  38.0  34258  291.25 0855.22
2009/04/23 10:11:55.1     174    134    141    220    261  52.3  35.6  34256  291.19 0855.22
2009/04/23 10:11:55.2     146    123    156    192    247  49.8  43.5  34264  291.33 0855.22
2009/04/23 10:11:55.3     100    196     69    221    232  27.2  17.4  34272  291.47 0855.23
2009/04/23 10:11:55.4      -7    201     72    202    215 358.0  19.6  34278  291.59 0855.23
2009/04/23 10:11:55.5     -91    142    100    169    196 327.3  33.4  34266  291.38 0855.23
2009/04/23 10:11:55.6      -3    153     91    154    178 358.6  33.1  34266  291.38 0855.23
2009/04/23 10:11:55.7     147    215     11    261    262  34.5   2.5  34262  291.31 0855.23
2009/04/23 10:11:55.8      10    185    -89    186    206   3.1 -31.7  34244  290.99 0855.23
2009/04/23 10:11:55.9      68    144    -77    160    177  25.5 -31.7  34258  291.25 0855.23
2009/04/23 10:11:56.0      37    106    -58    113    127  19.6 -33.7  34242  290.98 0855.23
2009/04/23 10:11:56.1      -3     96    -20     97    100 358.2 -11.9  34234  290.84 0855.23
2009/04/23 10:11:56.2     -55     60    -22     82     86 317.7 -15.5  34230  290.75 0855.23
2009/04/23 10:11:56.3    -202     40    -35    207    211 281.4  -9.8  34232  290.81 0855.23
2009/04/23 10:11:56.4    -130     69    116    148    188 298.0  42.2  34242  290.98 0855.23
2009/04/23 10:11:56.5    -153    142     11    209    210 312.9   3.1  34200  290.25 0855.23
2009/04/23 10:11:56.6    -129    118      4    175    176 312.4   1.6  34238  290.89 0855.23
2009/04/23 10:11:56.7    -194     77    -42    209    214 291.7 -11.5  34212  290.47 0855.23
2009/04/23 10:11:56.8    -193    112    -28    224    226 300.2  -7.3  34278  291.57 0855.23
2009/04/23 10:11:56.9     -97    150    -35    180    184 327.0 -11.1  34276  291.54 0855.23
2009/04/23 10:11:57.0      43    191    -35    196    200  12.9 -10.1  34272  291.47 0855.23
2009/04/23 10:11:57.1     105    165    -70    196    209  32.5 -19.6  34254  291.16 0855.23
2009/04/23 10:11:57.2     129    145    -51    195    202  41.7 -14.7  34264  291.33 0855.23
2009/04/23 10:11:57.3     106    167     70    199    211  32.5  19.4  34270  291.45 0855.22
2009/04/23 10:11:57.4     147    185     26    237    239  38.5   6.5  34228  290.71 0855.22
2009/04/23 10:11:57.5     172    230     12    288    289  36.7   2.5  34180  289.90 0855.22
2009/04/23 10:11:57.6     127    187     11    227    228  34.3   2.9  34180  289.92 0855.22
2009/04/23 10:11:57.7     155    244    -20    290    291  32.5  -4.1  34182  289.93 0855.22
2009/04/23 10:11:57.8     256    210    113    332    351  50.6  18.9  34202  290.30 0855.22
2009/04/23 10:11:57.9     182    111     25    214    216  58.5   6.9  34230  290.75 0855.22
2009/04/23 10:11:58.0      81    172     90    191    211  25.4  27.1  34186  290.01 0855.22
2009/04/23 10:11:58.1     127    127    135    180    225  45.0  40.7  34238  290.89 0855.22
2009/04/23 10:11:58.2      79    218     81    232    246  20.0  19.4  34202  290.27 0855.22
2009/04/23 10:11:58.3      17    195     26    196    198   5.1   7.8  34194  290.14 0855.22
2009/04/23 10:11:58.4      54    161    -55    171    180  18.7 -17.9  34200  290.26 0855.22
2009/04/23 10:11:58.5      94    111    -39    146    152  40.1 -15.0  34198  290.23 0855.22
2009/04/23 10:11:58.6      79    175    -32    193    196  24.3  -9.6  34174  289.80 0855.22
2009/04/23 10:11:58.7      89    188      2    209    210  25.3   0.8  34166  289.67 0855.22
2009/04/23 10:11:58.8      62    166      1    178    179  20.7   0.5  34168  289.72 0855.22
2009/04/23 10:11:58.9     140    161     41    214    219  41.0  11.0  34244  291.01 0855.22
2009/04/23 10:11:59.0     234    124     96    266    282  62.0  20.9  34226  290.70 0855.22
2009/04/23 10:11:59.1     227    115    124    255    283  63.0  27.4  34228  290.73 0855.22
2009/04/23 10:11:59.2     241    181     65    302    309  53.1  12.2  34228  290.71 0855.22
2009/04/23 10:11:59.3      93    146     89    174    195  32.5  29.1  34210  290.43 0855.23
2009/04/23 10:11:59.4     -38     97    114    105    154 338.6  52.2  34198  290.23 0855.23
2009/04/23 10:11:59.5    -171     80     52    190    198 295.2  15.3  34188  290.04 0855.23
2009/04/23 10:11:59.6     -97    124    118    158    197 322.1  40.4  34194  290.14 0855.23
2009/04/23 10:11:59.7      -4    142     94    143    171 358.2  36.3  34192  290.13 0855.23
2009/04/23 10:11:59.8     -31    117     42    122    130 344.9  18.9  34192  290.13 0855.23
2009/04/23 10:11:59.9     -18    118     19    120    122 351.1   9.0  34198  290.21 0855.23
2009/04/23 10:12:00.0      -6    130     41    131    138 357.3  17.3  34200  290.25 0855.23
2009/04/23 10:12:00.1      21    126     62    128    142   9.8  27.3  34198  290.23 0855.23
2009/04/23 10:12:00.2       8    103      5    104    105   4.5   2.9  34200  290.25 0855.23
2009/04/23 10:12:00.3      33     86    -33     93     99  21.4 -19.6  34194  290.16 0855.23
2009/04/23 10:12:00.4     -38    114   -112    121    164 341.3 -52.3  34190  290.08 0855.23
2009/04/23 10:12:00.5     -34    133   -108    138    175 345.3 -46.6  34178  289.89 0855.23
2009/04/23 10:12:00.6     -71     68    -88     99    132 313.6 -50.3  34164  289.63 0855.23
2009/04/23 10:12:00.7     -37    216    108    220    245 350.2  28.0  34172  289.76 0855.23
2009/04/23 10:12:00.8    -114    178     72    212    225 327.3  18.9  34178  289.89 0855.23
2009/04/23 10:12:00.9     -74    170     77    186    201 336.4  23.6  34182  289.94 0855.23
2009/04/23 10:12:01.0    -246     28     34    248    251 276.6   7.8  34176  289.85 0855.23
2009/04/23 10:12:01.1    -268      0   -102    269    287 270.0 -26.1  34170  289.73 0855.23
2009/04/23 10:12:01.2    -270     49    -61    275    282 280.4 -12.6  34180  289.92 0855.23
2009/04/23 10:12:01.3    -185     65     32    197    200 289.3   9.5  34178  289.87 0855.24
2009/04/23 10:12:01.4    -206     95     81    228    241 294.8  20.0  34184  289.97 0855.24
2009/04/23 10:12:01.5    -175    108    128    206    242 301.8  35.0  34190  290.08 0855.24
2009/04/23 10:12:01.6    -170    113    140    205    248 303.7  37.6  34196  290.17 0855.24
2009/04/23 10:12:01.7    -135    100    144    169    222 306.6  44.8  34196  290.18 0855.24
2009/04/23 10:12:01.8    -102     48     90    113    144 295.4  42.7  34190  290.09 0855.24
2009/04/23 10:12:01.9    -105    -12    116    106    157 263.4  52.7  34202  290.30 0855.24
2009/04/23 10:12:02.0    -116     -9     78    117    140 265.2  37.0  34196  290.18 0855.24
2009/04/23 10:12:02.1    -133    -29     48    137    146 257.6  19.4  34202  290.28 0855.24
2009/04/23 10:12:02.2    -126    -60     45    140    148 244.2  17.9  34198  290.21 0855.24
2009/04/23 10:12:02.3    -187    -74     72    202    214 248.3  20.2  34204  290.33 0855.24
2009/04/23 10:12:02.4    -114   -116     42    163    169 224.5  14.5  34214  290.48 0855.24
2009/04/23 10:12:02.5    -129   -115     77    174    190 228.2  25.7  34222  290.64 0855.24
2009/04/23 10:12:02.6    -108   -141    129    178    219 217.6  39.7  34216  290.52 0855.24
2009/04/23 10:12:02.7     -71   -162    142    178    227 203.8  43.0  34222  290.64 0855.24
2009/04/23 10:12:02.8     -86    -62     97    107    144 234.1  47.5  34216  290.52 0855.24
2009/04/23 10:12:02.9     -71    -22     90     75    117 252.3  56.3  34218  290.55 0855.24
2009/04/23 10:12:03.0     -24    -50     84     56    100 206.3  63.2  34214  290.50 0855.24
2009/04/23 10:12:03.1      33    -23     63     41     75 124.2  64.6  34210  290.43 0855.24
2009/04/23 10:12:03.2      56     68     49     89    101  39.6  31.4  34206  290.36 0855.24
2009/04/23 10:12:03.3     119      9     88    120    148  85.6  39.7  34190  290.08 0855.24
2009/04/23 10:12:03.4      72     40    119     83    145  60.7  62.1  34186  290.02 0855.24
2009/04/23 10:12:03.5     192     14    143    193    240  85.6  40.4  34178  289.87 0855.24
2009/04/23 10:12:03.6      98     71    219    122    250  54.0  68.8  34188  290.04 0855.24
2009/04/23 10:12:03.7      30     37    131     48    139  38.7  79.2  34194  290.14 0855.24
2009/04/23 10:12:03.8     -40     54    132     68    148 323.9  70.8  34200  290.25 0855.24
2009/04/23 10:12:03.9     112    -37    181    119    216 108.6  63.6  34192  290.11 0855.24
2009/04/23 10:12:04.0      16     16    132     24    134  45.0  90.0  34198  290.23 0855.24
2009/04/23 10:12:04.1       3      4    127      6    127  39.6  90.0  34202  290.30 0855.24
2009/04/23 10:12:04.2      -6     28    119     29    122 346.6  86.4  34204  290.33 0855.24
2009/04/23 10:12:04.3     -32   -122    138    127    187 195.1  52.5  34198  290.23 0855.24
2009/04/23 10:12:04.4     -52   -212     78    219    232 193.8  20.2  34204  290.31 0855.24
2009/04/23 10:12:04.5     -79   -239     96    252    269 198.3  22.0  34212  290.44 0855.24
2009/04/23 10:12:04.6     -32   -226    135    229    265 188.1  33.5  34210  290.42 0855.24
2009/04/23 10:12:04.7     -23   -227    143    229    269 186.0  35.5  34192  290.12 0855.24
2009/04/23 10:12:04.8       0   -178    156    179    237 180.0  45.8  34188  290.04 0855.24
2009/04/23 10:12:04.9      53   -167    114    176    209 162.2  35.7  34186  290.02 0855.24
2009/04/23 10:12:05.0      10   -136    164    137    213 175.5  56.3  34188  290.06 0855.24
2009/04/23 10:12:05.1       2    -86    107     87    137 178.6  56.4  34190  290.09 0855.24
2009/04/23 10:12:05.2      -5   -182    199    183    270 181.8  52.5  34182  289.93 0855.24
2009/04/23 10:12:05.3      -5   -181    216    182    282 181.6  55.6  34186  290.00 0855.25
2009/04/23 10:12:05.4     -44   -221    219    226    314 191.5  49.1  34190  290.09 0855.25
2009/04/23 10:12:05.5     -54   -226    207    233    311 193.4  46.4  34196  290.17 0855.25
2009/04/23 10:12:05.6     -48   -235    176    240    297 191.6  39.7  34200  290.26 0855.25
2009/04/23 10:12:05.7     -65   -270    155    278    318 193.6  31.6  34200  290.26 0855.25
2009/04/23 10:12:05.8     -55   -251    143    258    294 192.4  31.4  34196  290.19 0855.25
2009/04/23 10:12:05.9     -50   -233    154    239    284 192.3  35.6  34202  290.29 0855.25
2009/04/23 10:12:06.0     -54   -227    165    234    286 193.4  38.6  34198  290.22 0855.25
2009/04/23 10:12:06.1     -44   -232    148    237    279 190.7  35.0  34192  290.12 0855.25
2009/04/23 10:12:06.2     -28   -219    157    221    271 187.3  38.8  34188  290.05 0855.25
2009/04/23 10:12:06.3     -29   -209    154    212    262 188.1  39.7  34188  290.03 0855.25
2009/04/23 10:12:06.4     -24   -187    143    189    237 187.6  40.9  34184  289.99 0855.25
2009/04/23 10:12:06.5     -17   -189    166    190    252 185.3  45.8  34192  290.12 0855.25
2009/04/23 10:12:06.6     -52   -195    164    202    260 195.1  43.5  34196  290.17 0855.25
2009/04/23 10:12:06.7     -43   -192    148    197    246 192.7  40.7  34198  290.21 0855.25
2009/04/23 10:12:06.8       0   -175    145    176    228 180.0  43.7  34192  290.13 0855.25
2009/04/23 10:12:06.9       2   -190    132    191    232 179.3  37.6  34192  290.11 0855.25
2009/04/23 10:12:07.0      -4   -171    139    172    221 181.4  43.5  34196  290.19 0855.25
2009/04/23 10:12:07.1     -20   -162    148    164    220 187.1  46.9  34202  290.30 0855.25
2009/04/23 10:12:07.2     -33   -168    138    172    220 191.1  43.3  34196  290.19 0855.25
2009/04/23 10:12:07.3     -37   -174    140    178    226 192.0  42.4  34200  290.25 0855.25
2009/04/23 10:12:07.4      -9   -131    170    132    215 184.0  58.4  34198  290.23 0855.25
2009/04/23 10:12:07.5       1   -109    132    110    171 179.1  56.1  34196  290.19 0855.25
2009/04/23 10:12:07.6      -9   -118    146    119    188 184.5  56.4  34186  290.01 0855.25
2009/04/23 10:12:07.7     -37   -182    164    186    247 191.6  45.9  34174  289.82 0855.25
2009/04/23 10:12:07.8    -103   -238    193    260    323 203.4  40.4  34160  289.58 0855.25
2009/04/23 10:12:07.9    -103   -306    190    324    375 198.7  33.1  34162  289.59 0855.25
2009/04/23 10:12:08.0     -48   -236    218    241    324 191.6  46.8  34158  289.54 0855.25
2009/04/23 10:12:08.1     -32   -237    206    240    316 187.8  45.2  34162  289.61 0855.25
2009/04/23 10:12:08.2     -35   -204    201    208    289 189.8  49.0  34166  289.68 0855.25
2009/04/23 10:12:08.3     -31   -293    111    295    315 186.2  21.6  34166  289.68 0855.25
2009/04/23 10:12:08.4     -59   -220     90    228    245 195.1  23.0  34168  289.70 0855.25
2009/04/23 10:12:08.5     -52   -163     60    172    183 197.8  19.2  34168  289.70 0855.25
2009/04/23 10:12:08.6      41    -75      5     86     87 151.5   3.8  34166  289.69 0855.25
2009/04/23 10:12:08.7       0    -49      8     50     51 180.9  10.1  34168  289.72 0855.25
2009/04/23 10:12:08.8     -17    -18     34     25     42 223.4  59.4  34168  289.72 0855.25
2009/04/23 10:12:08.9     -42     12     77     44     88 285.9  67.7  34182  289.96 0855.25
2009/04/23 10:12:09.0     -68      8    116     69    134 277.0  66.7  34196  290.18 0855.25
2009/04/23 10:12:09.1     -13      4     97     14     98 288.6  90.0  34196  290.18 0855.25
2009/04/23 10:12:09.2     -61     39    103     73    126 302.5  61.1  34186  290.02 0855.25
2009/04/23 10:12:09.3       3     63     90     64    110   2.7  60.6  34186  290.01 0855.25
2009/04/23 10:12:09.4     -24     24    116     34    120 314.9  83.3  34186  290.01 0855.25
2009/04/23 10:12:09.5     -20     63     90     67    112 342.2  60.0  34172  289.79 0855.25
2009/04/23 10:12:09.6      32     47    137     57    148  34.3  76.6  34178  289.87 0855.25
2009/04/23 10:12:09.7     124     83    100    150    180  56.3  37.0  34164  289.65 0855.25
2009/04/23 10:12:09.8      77     63    168    100    195  50.9  66.7  34172  289.79 0855.25
2009/04/23 10:12:09.9     173     57     83    183    200  71.8  25.9  34170  289.75 0855.25
2009/04/23 10:12:10.0     200    119     13    233    234  59.3   3.3  34172  289.76 0855.25
2009/04/23 10:12:10.1     165    138     56    216    224  50.2  14.7  34178  289.87 0855.25
2009/04/23 10:12:10.2     122    115    -13    168    169  46.7  -4.6  34176  289.84 0855.25
2009/04/23 10:12:10.3      97     97   -129    138    188  45.1 -52.4  34178  289.89 0855.25
2009/04/23 10:12:10.4      44     90   -106    101    146  26.3 -56.0  34176  289.84 0855.25
2009/04/23 10:12:10.5     -57     66     -2     88     89 319.0  -1.8  34176  289.84 0855.25
2009/04/23 10:12:10.6    -220     80     50    235    241 290.0  12.2  34220  290.58 0855.25
2009/04/23 10:12:10.7    -114     94     55    149    158 309.5  21.3  34224  290.65 0855.25
2009/04/23 10:12:10.8     -78    -32     50     85     98 247.4  32.9  34218  290.55 0855.25
2009/04/23 10:12:10.9      64     50     77     82    112  51.8  48.0  34214  290.48 0855.25
2009/04/23 10:12:11.0     181    154     88    238    253  49.6  21.0  34202  290.27 0855.25
2009/04/23 10:12:11.1     217    217     95    308    323  45.0  17.2  34198  290.22 0855.25
2009/04/23 10:12:11.2     187    281     71    338    346  33.7  12.0  34186  290.01 0855.25
2009/04/23 10:12:11.3     163    241     14    292    293  34.1   2.8  34184  289.97 0855.26
2009/04/23 10:12:11.4     163    217    -10    272    273  37.0  -2.2  34180  289.90 0855.26
2009/04/23 10:12:11.5     193    200     34    279    282  43.9   7.1  34176  289.83 0855.26
2009/04/23 10:12:11.6     244    160     79    292    303  56.7  15.3  34178  289.86 0855.26
2009/04/23 10:12:11.7     168    240    125    293    318  35.0  24.6  34208  290.37 0855.26
2009/04/23 10:12:11.8     134    245     29    280    282  28.7   6.1  34188  290.03 0855.26
2009/04/23 10:12:11.9      88    223    123    240    269  21.6  29.2  34216  290.53 0855.26
2009/04/23 10:12:12.0     195    151    167    247    298  52.2  37.4  34186  290.02 0855.26
2009/04/23 10:12:12.1     228    207    210    309    373  47.8  37.4  34202  290.27 0855.26
2009/04/23 10:12:12.2     243    201    116    316    336  50.5  21.1  34174  289.81 0855.26
2009/04/23 10:12:12.3     234    194     71    305    314  50.4  13.2  34178  289.88 0855.26
2009/04/23 10:12:12.4     277    130     89    307    320  64.8  16.3  34172  289.76 0855.26
2009/04/23 10:12:12.5     276    145    126    312    336  62.2  23.2  34170  289.74 0855.26
2009/04/23 10:12:12.6     297    177    -23    346    347  59.2  -3.9  34178  289.87 0855.26
2009/04/23 10:12:12.7     241    108    -98    265    282  65.8 -25.4  34174  289.81 0855.26
2009/04/23 10:12:12.8     244    189     21    309    310  52.2   3.9  34174  289.81 0855.26
2009/04/23 10:12:12.9     289    218     12    363    364  53.0   1.9  34130  289.06 0855.26
2009/04/23 10:12:13.0     198    314    -44    372    375  32.3  -6.8  34140  289.23 0855.26
2009/04/23 10:12:13.1     123     97      8    157    158  51.8   2.9  34142  289.26 0855.26
2009/04/23 10:12:13.2      12    -37    139     39    144 161.7  83.9  34164  289.65 0855.26
2009/04/23 10:12:13.3     -65   -138    149    153    213 205.3  49.8  34156  289.52 0855.26
2009/04/23 10:12:13.4      44   -122     41    130    137 159.9  17.4  34154  289.48 0855.26
2009/04/23 10:12:13.5       0   -143    -13    144    145 180.4  -5.2  34156  289.52 0855.26
2009/04/23 10:12:13.6     -19    -89     29     92     97 192.5  17.9  34162  289.62 0855.26
2009/04/23 10:12:13.7     -71    -75      6    104    105 223.7   3.8  34162  289.62 0855.26
2009/04/23 10:12:13.8     -68    -43     53     81     96 237.5  35.6  34162  289.62 0855.26
2009/04/23 10:12:13.9     -62    -59     34     86     92 226.4  22.5  34170  289.75 0855.26
2009/04/23 10:12:14.0     -73    -76      5    106    107 223.7   2.9  34170  289.74 0855.26
2009/04/23 10:12:14.1       1      5     24      6     24  18.5  84.9  34172  289.77 0855.26
2009/04/23 10:12:14.2      68      0     24     69     74  90.8  19.4  34178  289.89 0855.26
2009/04/23 10:12:14.3      74     -5    -20     75     78  94.3 -15.5  34180  289.91 0855.26
2009/04/23 10:12:14.4      86     -7    -65     87    108  94.8 -45.1  34182  289.96 0855.26
2009/04/23 10:12:14.5     156     -2   -102    157    187  90.9 -40.1  34180  289.92 0855.26
2009/04/23 10:12:14.6      96     19    -63     98    116  78.5 -40.0  34170  289.75 0855.26
2009/04/23 10:12:14.7      15    -54    -38     57     68 164.0 -40.0  34168  289.72 0855.26
2009/04/23 10:12:14.8      32   -310    -63    312    319 174.0 -11.6  34156  289.49 0855.26
2009/04/23 10:12:14.9      24   -318     32    319    321 175.6   5.8  34172  289.78 0855.26
2009/04/23 10:12:15.0     -84   -337     40    348    351 194.0   6.6  34182  289.96 0855.26
2009/04/23 10:12:15.1    -116   -464    -69    479    485 194.1  -8.2  34156  289.52 0855.26
2009/04/23 10:12:15.2    -123   -532     37    547    549 193.0   3.9  34158  289.53 0855.26
2009/04/23 10:12:15.3     -74   -389      7    397    398 190.9   1.1  34178  289.89 0855.26
2009/04/23 10:12:15.4     -88   -365     85    376    386 193.6  12.8  34184  289.99 0855.26
2009/04/23 10:12:15.5    -299   -493     50    577    580 211.3   5.0  34140  289.24 0855.26
2009/04/23 10:12:15.6    -238   -346     39    421    423 214.5   5.3  34134  289.14 0855.26
2009/04/23 10:12:15.7    -346   -114   -107    365    381 251.7 -16.4  34178  289.87 0855.26
2009/04/23 10:12:15.8    -319   -106    -84    337    348 251.6 -14.1  34168  289.72 0855.26
2009/04/23 10:12:15.9    -398   -219   -229    455    509 241.1 -33.2  34142  289.27 0855.26
2009/04/23 10:12:16.0    -400   -293   -126    496    512 233.8 -14.3  34172  289.78 0855.26
2009/04/23 10:12:16.1    -279   -313   -149    420    446 221.7 -19.6  34194  290.14 0855.26
2009/04/23 10:12:16.2    -153   -251    -93    295    310 211.4 -17.6  34172  289.76 0855.26
2009/04/23 10:12:16.3       8   -271     28    272    274 178.2   5.9  34168  289.70 0855.27
2009/04/23 10:12:16.4     -10   -327     53    328    333 181.9   9.2  34168  289.72 0855.27
2009/04/23 10:12:16.5     -17   -316     84    317    328 183.1  14.9  34156  289.49 0855.27
2009/04/23 10:12:16.6    -112   -232     60    258    266 205.9  13.2  34154  289.47 0855.27
2009/04/23 10:12:16.7    -141   -342     30    370    372 202.4   4.7  34152  289.42 0855.27
2009/04/23 10:12:16.8    -140   -325      5    354    355 203.3   0.8  34148  289.38 0855.27
2009/04/23 10:12:16.9    -164   -163    -29    232    234 225.1  -7.2  34156  289.51 0855.27
2009/04/23 10:12:17.0     -13   -117     72    118    138 186.7  34.4  34154  289.46 0855.27
2009/04/23 10:12:17.1       2   -149    152    150    213 179.1  50.1  34162  289.62 0855.27
2009/04/23 10:12:17.2      51      0    -13     52     54  90.0 -14.5  34168  289.70 0855.27
2009/04/23 10:12:17.3      -1    -73     -4     74     75 180.9  -3.2  34166  289.67 0855.27
2009/04/23 10:12:17.4     -18   -178     42    179    184 185.8  13.2  34154  289.48 0855.27
2009/04/23 10:12:17.5     -30   -183    117    186    219 189.3  35.5  34142  289.26 0855.27
2009/04/23 10:12:17.6      19    -70    168     73    183 164.9  75.5  34146  289.33 0855.27
2009/04/23 10:12:17.7      75   -118    163    140    214 147.5  55.0  34134  289.14 0855.27
2009/04/23 10:12:17.8      -2     27    134     28    136 355.5  89.0  34150  289.41 0855.27
2009/04/23 10:12:17.9     -59   -138    171    151    228 203.2  54.2  34130  289.06 0855.27
2009/04/23 10:12:18.0     -30   -112    198    116    229 195.1  66.8  34134  289.14 0855.27
2009/04/23 10:12:18.1     -42    -66    157     79    175 212.6  71.4  34138  289.19 0855.27
2009/04/23 10:12:18.2      26     42    125     50    134  32.5  77.6  34144  289.30 0855.27
2009/04/23 10:12:18.3     -14    -40     93     43    102 200.0  73.5  34140  289.23 0855.27
2009/04/23 10:12:18.4     -50     24    140     56    150 295.4  77.1  34150  289.40 0855.27
2009/04/23 10:12:18.5     -35     22    127     42    133 302.4  80.7  34150  289.41 0855.27
2009/04/23 10:12:18.6     -14     12    114     19    115 309.5  90.0  34158  289.55 0855.27
2009/04/23 10:12:18.7      19      7     90     21     92  68.3  87.5  34160  289.58 0855.27
2009/04/23 10:12:18.8      -9     66     53     67     85 351.9  42.7  34150  289.40 0855.27
2009/04/23 10:12:18.9     -42    125     58    133    145 341.3  25.1  34142  289.28 0855.27
2009/04/23 10:12:19.0    -161     76     82    179    196 295.2  26.2  34142  289.26 0855.27
2009/04/23 10:12:19.1    -127      0     61    128    141 270.0  27.2  34142  289.26 0855.27
2009/04/23 10:12:19.2      -6     72     25     73     78 354.7  19.4  34146  289.35 0855.27
2009/04/23 10:12:19.3     -90     32     35     96    102 289.5  20.4  34150  289.40 0855.27
2009/04/23 10:12:19.4     -76     97     32    124    129 322.2  14.7  34138  289.21 0855.27
2009/04/23 10:12:19.5     -65     99     33    119    124 326.6  15.8  34136  289.16 0855.27
2009/04/23 10:12:19.7     -42    128     47    135    144 341.5  19.4  34138  289.21 0855.27
2009/04/23 10:12:19.8     -35    129     81    134    156 344.8  34.4  34140  289.24 0855.27
2009/04/23 10:12:19.9     -60    116     90    131    158 332.4  37.8  34154  289.46 0855.27
2009/04/23 10:12:20.0      12    163    112    164    198   4.5  37.6  34208  290.38 0855.27
2009/04/23 10:12:20.1      26    237     84    239    254   6.3  19.4  34240  290.92 0855.27
2009/04/23 10:12:20.2      53    190    121    198    232  15.8  34.8  34246  291.04 0855.27
2009/04/23 10:12:20.3       5    206    138    207    248   1.6  36.7  34254  291.16 0855.27
2009/04/23 10:12:20.4      99    227    102    248    268  23.7  23.6  34224  290.65 0855.28
2009/04/23 10:12:20.5     100    170     95    198    219  30.5  27.3  34216  290.52 0855.28
2009/04/23 10:12:20.6     105    112     86    154    176  43.2  31.4  34224  290.67 0855.28
2009/04/23 10:12:20.7     160     58     87    171    191  70.0  28.7  34240  290.92 0855.28
2009/04/23 10:12:20.8     108    101    118    149    190  46.9  42.7  34246  291.03 0855.28
2009/04/23 10:12:20.9     117    125    112    172    205  43.2  36.0  34252  291.15 0855.28
2009/04/23 10:12:21.0      98    191    122    215    247  27.2  32.3  34232  290.78 0855.28
2009/04/23 10:12:21.1     106    167    128    199    236  32.5  35.7  34234  290.82 0855.28
2009/04/23 10:12:21.2      24    103     50    106    117  13.4  27.1  34238  290.89 0855.28
2009/04/23 10:12:21.3      65     36     98     75    123  61.1  58.5  34242  290.98 0855.28
2009/04/23 10:12:21.4      21     83     72     86    112  14.7  43.8  34240  290.94 0855.28
2009/04/23 10:12:21.5     -19    105     28    107    111 349.3  14.7  34250  291.09 0855.28
2009/04/23 10:12:21.6       0     98     42     99    107   0.5  23.6  34248  291.08 0855.28
2009/04/23 10:12:21.7     -22    169     42    171    177 352.4  13.9  34246  291.03 0855.28
2009/04/23 10:12:21.8     -32    184     74    187    201 350.0  22.8  34240  290.94 0855.28
2009/04/23 10:12:21.9      17    173     48    174    181   5.8  15.6  34246  291.04 0855.28
2009/04/23 10:12:22.0      16    210     24    211    213   4.4   6.7  34196  290.18 0855.28
2009/04/23 10:12:22.1      38    149    -32    154    158  14.3 -11.9  34194  290.14 0855.28
2009/04/23 10:12:22.2      35    106    -38    112    118  18.7 -23.8  34200  290.25 0855.28
2009/04/23 10:12:22.3      23    116    -46    119    127  11.5 -26.4  34224  290.67 0855.28
2009/04/23 10:12:22.4      46    137    -18    145    147  18.7  -7.3  34230  290.75 0855.29
2009/04/23 10:12:22.5      42    172     11    178    179  13.8   3.8  34222  290.62 0855.29
2009/04/23 10:12:22.6      93    164     34    189    193  29.6  10.3  34202  290.28 0855.29
2009/04/23 10:12:22.7     133    123     23    182    184  47.3   7.2  34204  290.31 0855.29
2009/04/23 10:12:22.8     211    126    -17    247    248  59.1  -4.1  34220  290.58 0855.29
2009/04/23 10:12:22.9     410    141     85    434    443  71.0  11.1  34172  289.78 0855.29
2009/04/23 10:12:23.0     459    226     80    512    519  63.8   8.9  34156  289.50 0855.29
2009/04/23 10:12:23.1     437    182    107    474    487  67.4  12.8  34166  289.66 0855.29
2009/04/23 10:12:23.2     523    209    208    564    601  68.2  21.0  34150  289.41 0855.29
2009/04/23 10:12:23.3     636    181    128    662    675  74.1  11.0  34178  289.88 0855.29
2009/04/23 10:12:23.4     600    251    107    651    660  67.3   9.3  34166  289.68 0855.29
2009/04/23 10:12:23.5     651    217     17    687    688  71.6   1.5  34166  289.66 0855.29
2009/04/23 10:12:23.6     683    228     84    721    726  71.5   6.7  34168  289.72 0855.29
2009/04/23 10:12:23.7     570    212    186    609    637  69.5  17.0  34178  289.87 0855.29
2009/04/23 10:12:23.8     552    225    127    597    611  67.8  12.0  34152  289.42 0855.29
2009/04/23 10:12:23.9     511    211    155    554    576  67.5  15.7  34190  290.07 0855.29
2009/04/23 10:12:24.0     534     14    167    535    561  88.4  17.4  34192  290.13 0855.29
2009/04/23 10:12:24.1     547    153    267    569    628  74.3  27.0  34170  289.73 0855.29
2009/04/23 10:12:24.2     480    231     99    533    543  64.2  10.6  34166  289.67 0855.29
2009/04/23 10:12:24.3     422    257     59    495    499  58.6   6.9  34156  289.49 0855.29
2009/04/23 10:12:24.4     404    290     56    498    502  54.3   6.5  34170  289.73 0855.29
2009/04/23 10:12:24.5     525    240     53    578    581  65.4   5.3  34204  290.32 0855.29
2009/04/23 10:12:24.6     495    168    101    523    533  71.2  11.0  34200  290.26 0855.29
2009/04/23 10:12:24.7     450    233     44    507    509  62.6   5.0  34226  290.69 0855.29
2009/04/23 10:12:24.8     491    186     10    526    527  69.2   1.1  34162  289.62 0855.29
2009/04/23 10:12:24.9     415    224     56    472    476  61.6   6.9  34212  290.44 0855.29
2009/04/23 10:12:25.0     324    106    -30    341    343  71.9  -5.1  34168  289.72 0855.29
2009/04/23 10:12:25.1     374    129     41    396    399  71.0   5.9  34198  290.23 0855.29
2009/04/23 10:12:25.2     364     61    -11    370    371  80.4  -1.7  34194  290.16 0855.29
2009/04/23 10:12:25.3     414    166     39    447    449  68.2   5.1  34200  290.24 0855.29
2009/04/23 10:12:25.4     313     39     28    316    318  82.8   5.1  34198  290.22 0855.29
2009/04/23 10:12:25.5     288    -35     70    291    300  97.0  13.7  34198  290.22 0855.29
2009/04/23 10:12:25.6     336     38     92    339    352  83.4  15.3  34202  290.30 0855.29
2009/04/23 10:12:25.7     316     23    180    317    364  85.7  32.1  34194  290.16 0855.29
2009/04/23 10:12:25.8     278     40    140    281    313  81.6  28.5  34196  290.19 0855.29
2009/04/23 10:12:25.9     239     33    249    242    347  82.1  50.9  34190  290.07 0855.29
2009/04/23 10:12:26.0     347     -7    101    348    363  91.2  16.3  34196  290.18 0855.29
2009/04/23 10:12:26.1     398     80    175    406    442  78.5  24.9  34176  289.85 0855.29
2009/04/23 10:12:26.2     429     20    216    430    481  87.3  28.7  34208  290.37 0855.29
2009/04/23 10:12:26.3     396     -4    266    397    477  90.7  37.0  34158  289.55 0855.29
2009/04/23 10:12:26.4     364    -30    206    366    419  94.8  31.9  34158  289.53 0855.28
2009/04/23 10:12:26.5     352    -43     83    355    365  97.1  13.2  34180  289.91 0855.28
2009/04/23 10:12:26.6     348    -68     54    355    360 101.1   8.7  34188  290.03 0855.28
2009/04/23 10:12:26.7     286    -66     68    294    302 103.2  13.1  34190  290.07 0855.28
2009/04/23 10:12:26.8     324    -83    -43    335    338 104.5  -7.4  34196  290.18 0855.28
2009/04/23 10:12:26.9     292     -8    -11    293    294  91.7  -2.2  34180  289.92 0855.28
2009/04/23 10:12:27.0     298     13    -71    299    308  87.4 -13.4  34190  290.09 0855.28
2009/04/23 10:12:27.1     314      0      8    315    316  89.9   1.5  34188  290.05 0855.28
2009/04/23 10:12:27.2     305      9    -17    306    307  88.3  -3.2  34198  290.20 0855.28
2009/04/23 10:12:27.3     307     54      2    312    313  79.9   0.4  34190  290.09 0855.28
2009/04/23 10:12:27.4     307     35     20    310    311  83.4   3.7  34202  290.29 0855.28
2009/04/23 10:12:27.5     337    -91     93    350    363 105.2  15.0  34202  290.27 0855.28
2009/04/23 10:12:27.6     371     80    101    380    394  77.7  14.9  34158  289.55 0855.28
2009/04/23 10:12:27.7     338     61    150    344    375  79.7  25.1  34178  289.86 0855.28
2009/04/23 10:12:27.8     234    -46    147    239    280 101.2  34.5  34200  290.24 0855.28
2009/04/23 10:12:27.9     262     74     23    273    275  74.1   4.9  34184  289.97 0855.28
2009/04/23 10:12:28.0     268     49     -2    273    274  79.5  -0.5  34174  289.81 0855.28
2009/04/23 10:12:28.1     204     15     56    205    213  85.7  15.3  34180  289.91 0855.28
2009/04/23 10:12:28.2     254    103     33    275    277  67.8   6.9  34172  289.78 0855.28
2009/04/23 10:12:28.3     267    143      6    303    304  61.8   1.2  34176  289.83 0855.28
2009/04/23 10:12:28.4     256    122     -7    284    285  64.5  -1.6  34160  289.58 0855.28
2009/04/23 10:12:28.5     239    138      3    276    277  60.0   0.8  34156  289.49 0855.28
2009/04/23 10:12:28.6     193     98     36    217    220  63.1   9.5  34160  289.58 0855.28
2009/04/23 10:12:28.7     139     42     87    146    169  73.2  33.7  34166  289.67 0855.28
2009/04/23 10:12:28.8     189    -68     81    202    217 110.0  23.0  34180  289.91 0855.28
2009/04/23 10:12:28.9     315    -53     31    320    322  99.7   5.7  34186  290.00 0855.28
2009/04/23 10:12:29.0     224    -53    118    231    259 103.3  29.2  34182  289.93 0855.28
2009/04/23 10:12:29.1     198     -9    107    199    225  92.8  30.6  34186  290.02 0855.28
2009/04/23 10:12:29.2     242     18    156    243    288  85.6  35.6  34194  290.14 0855.28
2009/04/23 10:12:29.3     224    -17    164    225    278  94.4  39.7  34198  290.20 0855.28
2009/04/23 10:12:29.4     278    -43    127    282    309  98.8  26.2  34188  290.05 0855.28
2009/04/23 10:12:29.5     196     31     50    199    206  80.8  14.3  34190  290.08 0855.28
2009/04/23 10:12:29.7     208     38     43    212    217  79.6  11.6  34182  289.96 0855.28
2009/04/23 10:12:29.7     302     -4     99    303    319  90.8  18.1  34174  289.80 0855.28
2009/04/23 10:12:29.8     285    -48    124    290    315  99.7  24.6  34178  289.86 0855.28
2009/04/23 10:12:29.9     212    -29     84    214    229  97.9  22.8  34178  289.89 0855.28
2009/04/23 10:12:30.0     203    -36     79    207    221 100.1  22.0  34176  289.85 0855.28
2009/04/23 10:12:30.1     204    -43     38    209    213 101.9  10.3  34180  289.92 0855.28
2009/04/23 10:12:30.2     256     -1     60    257    264  90.4  13.2  34182  289.95 0855.28
2009/04/23 10:12:30.3     298      0     77    299    309  90.0  14.6  34178  289.88 0855.28
2009/04/23 10:12:30.4     266      3     36    267    270  89.2   7.8  34174  289.81 0855.28
2009/04/23 10:12:30.5     276     20    105    277    296  85.7  22.0  34150  289.39 0855.28
2009/04/23 10:12:30.6     303     19     44    304    308  86.3   8.3  34156  289.51 0855.28
2009/04/23 10:12:30.7     247     22     48    249    254  84.8  11.1  34160  289.58 0855.28
2009/04/23 10:12:30.8     188      0     66    189    201  90.0  19.2  34160  289.57 0855.28
2009/04/23 10:12:30.9     266    -35    134    269    300  97.7  28.2  34172  289.76 0855.28
2009/04/23 10:12:31.0     221     12     68    222    233  86.7  17.1  34172  289.77 0855.28
2009/04/23 10:12:31.1     169     11     40    170    175  86.3  13.5  34172  289.77 0855.28
2009/04/23 10:12:31.2     112     26     11    116    117  76.7   5.4  34170  289.75 0855.28
2009/04/23 10:12:31.3     231      3     -4    232    233  89.1  -1.1  34172  289.79 0855.28
2009/04/23 10:12:31.4     231    -56    -25    238    240 103.7  -6.2  34172  289.76 0855.28
2009/04/23 10:12:31.5     155   -121     31    197    200 128.0   9.0  34180  289.92 0855.28
2009/04/23 10:12:31.6     169    -79     36    187    191 115.2  11.1  34178  289.89 0855.28
2009/04/23 10:12:31.7     149    -48     32    157    161 108.2  11.6  34180  289.91 0855.28
2009/04/23 10:12:31.8     128   -127     35    181    185 134.9  11.0  34174  289.82 0855.28
2009/04/23 10:12:31.9     183     69      0    196    197  69.2   0.0  34166  289.69 0855.28
2009/04/23 10:12:32.0     319    110    -53    338    343  71.0  -8.9  34162  289.60 0855.28
2009/04/23 10:12:32.1     312    121     68    335    343  68.7  11.6  34162  289.62 0855.28
2009/04/23 10:12:32.2     295     97    108    311    330  71.8  19.2  34168  289.71 0855.28
2009/04/23 10:12:32.3     302     56     90    308    321  79.5  16.3  34168  289.71 0855.28
2009/04/23 10:12:32.4     283     35    143    286    319  82.8  28.5  34168  289.70 0855.28
2009/04/23 10:12:32.5     154      2    203    155    255  89.2  58.7  34176  289.85 0855.28
2009/04/23 10:12:32.6     216    -24    126    218    251  96.4  32.9  34172  289.76 0855.28
2009/04/23 10:12:32.7     339     87     57    350    355  75.6   9.3  34188  290.06 0855.28
2009/04/23 10:12:32.8     353    182     19    398    399  62.7   2.8  34202  290.28 0855.28
2009/04/23 10:12:32.9     371    175     64    411    417  64.8   8.9  34192  290.11 0855.28
2009/04/23 10:12:33.0     265    163     49    312    316  58.5   9.0  34200  290.26 0855.28
2009/04/23 10:12:33.1     158    157     84    223    238  45.2  21.5  34210  290.41 0855.28
2009/04/23 10:12:33.2      76    170    124    187    224  24.1  36.5  34190  290.09 0855.28
2009/04/23 10:12:33.3     122    199     89    234    250  31.6  21.7  34212  290.44 0855.28
2009/04/23 10:12:33.4     116    169     81    206    221  34.5  22.8  34212  290.47 0855.28
2009/04/23 10:12:33.5      61    153     16    165    166  21.8   5.7  34220  290.60 0855.28
2009/04/23 10:12:33.6     129    125    -38    180    185  45.8 -12.2  34220  290.60 0855.28
2009/04/23 10:12:33.7      97     90    142    133    194  47.3  52.0  34238  290.89 0855.28
2009/04/23 10:12:33.8      97    116     96    152    179  39.7  35.5  34230  290.75 0855.28
2009/04/23 10:12:33.9     162    133     86    210    226  50.5  23.4  34242  290.98 0855.28
2009/04/23 10:12:34.0     249    112     69    274    283  65.8  14.3  34216  290.53 0855.28
2009/04/23 10:12:34.1     241    128     69    273    282  62.0  14.3  34204  290.31 0855.28
2009/04/23 10:12:34.2     211    161     33    266    269  52.5   7.1  34204  290.32 0855.28
2009/04/23 10:12:34.3     150    248     -6    290    291  31.2  -1.3  34232  290.78 0855.28
2009/04/23 10:12:34.4     156    222     -8    272    273  35.2  -1.8  34234  290.82 0855.27
2009/04/23 10:12:34.5     209    119    -52    241    247  60.3 -12.4  34228  290.73 0855.27
2009/04/23 10:12:34.6     196     57     71    205    218  73.6  19.2  34232  290.81 0855.27
2009/04/23 10:12:34.7     235     78     41    248    252  71.6   9.5  34240  290.93 0855.27
2009/04/23 10:12:34.8     156     91    -54    181    189  59.8 -16.6  34232  290.81 0855.27
2009/04/23 10:12:34.9     225    123     -3    257    258  61.4  -0.7  34240  290.92 0855.27
2009/04/23 10:12:35.0     249    106     -5    271    272  66.9  -1.3  34234  290.82 0855.27
2009/04/23 10:12:35.1     195     84    -23    213    215  66.7  -6.2  34226  290.70 0855.27
2009/04/23 10:12:35.2     165     48    -23    173    175  73.6  -7.7  34216  290.52 0855.27
2009/04/23 10:12:35.3     243    136     98    279    295  60.7  20.0  34226  290.70 0855.27
2009/04/23 10:12:35.4     213    146    138    259    293  55.6  30.3  34226  290.68 0855.27
2009/04/23 10:12:35.5     160    153     74    222    235  46.4  18.6  34200  290.26 0855.27
2009/04/23 10:12:35.6      79    222     42    236    240  19.6  10.1  34216  290.53 0855.27
2009/04/23 10:12:35.7    -146    186     96    237    255 321.9  23.1  34232  290.80 0855.27
2009/04/23 10:12:35.8    -168    120      5    207    208 305.5   1.6  34224  290.67 0855.27
2009/04/23 10:12:35.9     -25    126     25    129    132 348.4  11.1  34226  290.69 0855.27
2009/04/23 10:12:36.0      77    234    -69    247    257  18.3 -15.8  34214  290.49 0855.27
2009/04/23 10:12:36.1     -17    232    -94    233    251 355.6 -27.4  34198  290.20 0855.27
2009/04/23 10:12:36.2     -17    121    -65    123    139 351.9 -34.7  34188  290.04 0855.27
2009/04/23 10:12:36.3     165     62      5    177    178  69.4   1.8  34244  291.01 0855.27
2009/04/23 10:12:36.4     173     48     -8    180    181  74.5  -2.8  34250  291.11 0855.27
2009/04/23 10:12:36.5      95     32    -42    101    109  71.4 -27.5  34238  290.89 0855.27
2009/04/23 10:12:36.6     -27      0    -27     28     38 270.0 -56.4  34204  290.33 0855.27
2009/04/23 10:12:36.7     -83     53      5     99    100 302.5   2.9  34216  290.52 0855.27
2009/04/23 10:12:36.8    -141    141     10    200    201 315.1   3.1  34212  290.47 0855.27
2009/04/23 10:12:36.9    -184    161     43    245    249 311.1  10.1  34230  290.75 0855.27
2009/04/23 10:12:37.0    -185     86    -11    205    206 295.1  -3.1  34220  290.58 0855.27
2009/04/23 10:12:37.1    -154     26    -30    157    160 279.7 -10.9  34226  290.69 0855.27
2009/04/23 10:12:37.2    -197     59    -17    206    207 286.8  -4.9  34252  291.13 0855.27
2009/04/23 10:12:37.3    -167     29     -7    170    171 280.1  -2.6  34258  291.23 0855.27
2009/04/23 10:12:37.4    -170      8      8    171    172 272.8   2.8  34270  291.43 0855.28
2009/04/23 10:12:37.5    -166     39      8    171    172 283.3   2.9  34266  291.38 0855.28
2009/04/23 10:12:37.6    -157     56     32    167    171 289.7  11.1  34280  291.60 0855.28
2009/04/23 10:12:37.7    -166     55     54    175    184 288.4  17.1  34280  291.60 0855.28
2009/04/23 10:12:37.8    -159     10     43    160    166 273.9  15.3  34268  291.40 0855.28
2009/04/23 10:12:37.9    -169    -11     -6    170    171 266.3  -2.1  34268  291.40 0855.28
2009/04/23 10:12:38.0    -154    -25      2    157    158 260.8   1.0  34246  291.03 0855.28
2009/04/23 10:12:38.1    -117    -42      6    125    126 250.1   2.9  34260  291.26 0855.28
2009/04/23 10:12:38.2    -112    -32     48    117    126 254.1  23.1  34230  290.75 0855.28
2009/04/23 10:12:38.3    -154     41     69    160    174 285.0  24.6  34244  290.99 0855.28
2009/04/23 10:12:38.4    -169     26     77    172    188 279.0  25.7  34258  291.25 0855.28
2009/04/23 10:12:38.5    -149     38     74    154    170 284.6  27.3  34266  291.37 0855.28
2009/04/23 10:12:38.6    -151     44     19    158    160 286.4   6.9  34262  291.32 0855.28
2009/04/23 10:12:38.7    -192     83      2    210    211 293.3   0.8  34216  290.53 0855.28
2009/04/23 10:12:38.8    -175    111     45    208    214 302.5  12.4  34230  290.75 0855.28
2009/04/23 10:12:38.9    -172     32     45    175    181 280.6  14.7  34244  291.01 0855.28
2009/04/23 10:12:39.0    -163    109     73    197    210 303.7  21.0  34232  290.79 0855.28
2009/04/23 10:12:39.1    -195     83     57    212    220 293.1  15.2  34222  290.62 0855.28
2009/04/23 10:12:39.2    -160    -27    119    163    201 260.3  39.7  34246  291.04 0855.28
2009/04/23 10:12:39.3    -131      0    116    132    175 270.0  45.8  34238  290.89 0855.28
2009/04/23 10:12:39.4    -108     -1    134    109    172 269.1  56.4  34236  290.86 0855.26
2009/04/23 10:12:39.5    -129    -72    169    149    225 240.7  54.3  34230  290.77 0855.26
2009/04/23 10:12:39.6     -97    -53    150    111    186 241.2  60.0  34234  290.84 0855.26
2009/04/23 10:12:39.7     -38     -7    120     39    126 258.6  80.7  34250  291.09 0855.26
2009/04/23 10:12:39.8    -138     60     71    151    166 293.5  27.1  34240  290.92 0855.26
2009/04/23 10:12:39.9     -89     38     83     97    127 293.1  45.4  34240  290.94 0855.26
2009/04/23 10:12:40.0     -86    -63    110    107    153 233.6  50.2  34250  291.11 0855.26
2009/04/23 10:12:40.1     -42    -64    139     77    158 213.4  68.5  34258  291.25 0855.26
2009/04/23 10:12:40.2     -42    -28    110     51    121 235.8  73.5  34288  291.76 0855.26
2009/04/23 10:12:40.3     -28     -3     92     29     96 262.1  81.2  34278  291.59 0855.26
2009/04/23 10:12:40.4     -63    -38     97     74    122 238.5  58.5  34270  291.45 0855.26
2009/04/23 10:12:40.5     -82     86    114    120    165 316.3  48.7  34242  290.96 0855.26
2009/04/23 10:12:40.6     -58    105     68    121    138 331.0  31.4  34250  291.11 0855.26
2009/04/23 10:12:40.7       3    123     92    124    154   1.4  39.7  34210  290.43 0855.26
2009/04/23 10:12:40.8      66    160    115    174    208  22.5  36.5  34198  290.23 0855.26
2009/04/23 10:12:40.9      95    136    132    167    212  35.0  42.2  34188  290.06 0855.26
2009/04/23 10:12:41.0     104    102    141    146    202  45.6  49.2  34196  290.19 0855.26
2009/04/23 10:12:41.1     154    144    135    211    250  46.9  35.6  34204  290.32 0855.26
2009/04/23 10:12:41.2     130    110    123    171    210  49.8  39.5  34204  290.33 0855.26
2009/04/23 10:12:41.3     105    148    131    182    224  35.4  39.5  34196  290.18 0855.26
2009/04/23 10:12:41.4     -13    189    151    190    242 356.0  42.4  34222  290.64 0855.25
2009/04/23 10:12:41.5     -12    237    121    238    266 357.1  29.1  34248  291.07 0855.25
2009/04/23 10:12:41.6       0    223     27    224    226 359.8   7.1  34244  290.99 0855.25
2009/04/23 10:12:41.7      56    213     12    221    222  14.9   3.1  34244  290.99 0855.25
2009/04/23 10:12:41.8      37    189     39    193    198  11.1  11.6  34236  290.87 0855.25
2009/04/23 10:12:41.9      26    130     31    133    137  11.5  13.2  34228  290.74 0855.25
2009/04/23 10:12:42.0     126    144     12    192    193  41.0   3.6  34226  290.69 0855.25
2009/04/23 10:12:42.1     118    118     32    168    172  45.0  11.0  34236  290.86 0855.25
2009/04/23 10:12:42.2      92     92     66    131    146  45.0  28.2  34232  290.79 0855.25
2009/04/23 10:12:42.3     116     76     76    139    158  56.7  31.0  34232  290.79 0855.25
2009/04/23 10:12:42.4      58    173     81    183    200  18.7  25.3  34234  290.82 0855.25
2009/04/23 10:12:42.5      19    226    -66    227    237   4.9 -16.4  34228  290.73 0855.25
2009/04/23 10:12:42.6      32    233    -25    236    238   8.0  -6.2  34226  290.68 0855.25
2009/04/23 10:12:42.7     115    170    -42    206    211  34.3 -11.5  34228  290.72 0855.25
2009/04/23 10:12:42.8      83    166    -37    186    190  26.5 -11.5  34228  290.74 0855.25
2009/04/23 10:12:42.9     113    113     16    161    162  45.0   5.9  34224  290.67 0855.25
2009/04/23 10:12:43.0      63     92     21    112    115  34.3  11.0  34224  290.67 0855.25
2009/04/23 10:12:43.1      34    104     32    110    115  18.3  16.3  34228  290.74 0855.25
2009/04/23 10:12:43.2       1    115     28    116    120   0.9  13.7  34232  290.79 0855.25
2009/04/23 10:12:43.3      -6     94      6     95     96 356.0   3.8  34238  290.89 0855.25
2009/04/23 10:12:43.4     -49     76     31     91     97 327.4  19.2  34256  291.21 0855.24
2009/04/23 10:12:43.5     -68     59     32     91     97 310.9  19.4  34272  291.47 0855.24
2009/04/23 10:12:43.6     -56    103     -4    118    119 331.5  -2.2  34248  291.08 0855.24
2009/04/23 10:12:43.7     -59     67    -12     90     91 318.6  -7.7  34236  290.87 0855.24
2009/04/23 10:12:43.8      30     31     12     44     46  44.1  16.3  34240  290.94 0855.24
2009/04/23 10:12:43.9      68     18     66     71     96  75.0  48.5  34216  290.52 0855.24
2009/04/23 10:12:44.0     130      1     60    131    144  89.2  26.6  34208  290.38 0855.24
2009/04/23 10:12:44.1     240     57     43    247    251  76.5   9.9  34242  290.97 0855.24
2009/04/23 10:12:44.2     285     53     91    290    305  79.4  17.5  34276  291.55 0855.24
2009/04/23 10:12:44.3     297     60    119    303    325  78.6  22.7  34272  291.48 0855.24
2009/04/23 10:12:44.4     309     88    164    322    361  74.1  29.2  34272  291.47 0855.24
2009/04/23 10:12:44.5     305     52    173    310    355  80.3  31.6  34254  291.18 0855.24
2009/04/23 10:12:44.6     144    125    158    191    247  49.1  43.7  34238  290.91 0855.24
2009/04/23 10:12:44.7     223    103    164    246    295  65.2  37.0  34226  290.68 0855.24
2009/04/23 10:12:44.8     252     90    172    268    318  70.3  35.7  34208  290.37 0855.24
2009/04/23 10:12:44.9     275     47    178    279    330  80.3  35.6  34204  290.31 0855.24
2009/04/23 10:12:45.0     298      0    169    299    343  89.9  31.9  34246  291.03 0855.24
2009/04/23 10:12:45.1     250      7    205    251    324  88.3  43.6  34260  291.26 0855.24
2009/04/23 10:12:45.2     159    -35    171    163    236 102.6  51.4  34244  290.99 0855.24
2009/04/23 10:12:45.3      64    -70    100     96    138 137.7  51.2  34234  290.84 0855.24
2009/04/23 10:12:45.4     153    -94     65    180    191 121.5  20.2  34214  290.50 0855.25
2009/04/23 10:12:45.5     169   -111     92    203    222 123.3  25.9  34208  290.40 0855.25
2009/04/23 10:12:45.6     150    -42    126    156    200 105.9  43.3  34210  290.41 0855.25
2009/04/23 10:12:45.7     206    -10    160    207    261  92.8  41.6  34238  290.90 0855.25
2009/04/23 10:12:45.8     192    -41    131    197    236 102.2  36.7  34218  290.55 0855.25
2009/04/23 10:12:45.9     180     30    166    183    247  80.3  46.9  34226  290.69 0855.25
2009/04/23 10:12:46.0     240     53    204    246    319  77.4  44.1  34228  290.73 0855.25
2009/04/23 10:12:46.1     211      3    212    212    299  89.0  50.1  34228  290.71 0855.25
2009/04/23 10:12:46.2     131    -41    176    138    223 107.7  58.2  34216  290.52 0855.25
2009/04/23 10:12:46.3     194     39    183    198    269  78.5  47.9  34224  290.66 0855.25
2009/04/23 10:12:46.4     190     70    191    203    278  69.6  48.0  34226  290.70 0855.25
2009/04/23 10:12:46.5     197    108    192    225    295  61.1  44.8  34202  290.27 0855.25
2009/04/23 10:12:46.6     216     56    185    224    290  75.4  43.7  34208  290.37 0855.25
2009/04/23 10:12:46.7     232     63    193    241    308  74.7  43.0  34208  290.39 0855.25
2009/04/23 10:12:46.8     225     53    146    232    274  76.7  35.5  34204  290.32 0855.25
2009/04/23 10:12:46.9     206     64    103    216    239  72.7  27.3  34204  290.33 0855.25
2009/04/23 10:12:47.1     208     92     59    228    236  66.0  14.7  34206  290.36 0855.25
2009/04/23 10:12:47.2     229     99     25    250    252  66.5   5.9  34204  290.31 0855.25
2009/04/23 10:12:47.3     177     32     75    180    195  79.6  23.8  34200  290.26 0855.25
2009/04/23 10:12:47.4     127     46     37    136    141  70.1  15.3  34192  290.11 0855.25
2009/04/23 10:12:47.5      62     54    -18     83     85  49.1 -12.4  34194  290.16 0855.25
2009/04/23 10:12:47.6      22     67    -14     71     73  18.5 -11.3  34196  290.18 0855.25
2009/04/23 10:12:47.7     -37    118    -19    124    126 342.6  -8.8  34190  290.09 0855.25
2009/04/23 10:12:47.8     -59    120    -51    134    143 333.7 -25.9  34196  290.18 0855.25
2009/04/23 10:12:47.9     -48    145    -46    153    160 341.7 -17.0  34198  290.21 0855.25
2009/04/23 10:12:48.0    -108     35   -124    114    168 288.2 -56.9  34166  289.69 0855.25
2009/04/23 10:12:48.1    -189      6   -120    190    224 271.9 -39.9  34162  289.60 0855.25
2009/04/23 10:12:48.2    -202    -29   -143    205    249 261.6 -42.9  34160  289.56 0855.25
2009/04/23 10:12:48.3    -250    -50   -166    256    305 258.6 -40.1  34170  289.73 0855.25
2009/04/23 10:12:48.4    -232     13   -159    233    282 273.3 -42.0  34174  289.80 0855.25
2009/04/23 10:12:48.5    -172     19   -122    174    212 276.4 -42.8  34174  289.80 0855.25
2009/04/23 10:12:48.6    -197    -32    -87    200    218 260.8 -29.5  34206  290.35 0855.25
2009/04/23 10:12:48.7    -153    -24    -95    156    182 260.8 -38.8  34206  290.35 0855.25
2009/04/23 10:12:48.8     -91    -72    -82    117    142 231.8 -42.4  34208  290.38 0855.25
2009/04/23 10:12:48.9     -10    -77    -52     78     93 188.0 -40.9  34210  290.43 0855.25
2009/04/23 10:12:49.0      40   -109    -27    117    121 160.0 -13.3  34208  290.40 0855.25
2009/04/23 10:12:49.1      73   -100    -39    124    131 143.9 -17.6  34208  290.40 0855.25
2009/04/23 10:12:49.2     102   -121    -43    159    165 139.7 -15.2  34196  290.18 0855.25
2009/04/23 10:12:49.3      70    -72    -59    101    116 135.9 -37.9  34188  290.06 0855.25
2009/04/23 10:12:49.4      61    -78    -80    100    128 141.7 -48.1  34166  289.69 0855.25
2009/04/23 10:12:49.5     114    -30     -4    119    120 105.1  -2.2  34174  289.80 0855.25
2009/04/23 10:12:49.6     119    -47     23    129    132 111.8  10.1  34166  289.69 0855.25
2009/04/23 10:12:49.7     126    -53    -13    137    138 113.1  -5.6  34170  289.74 0855.25
2009/04/23 10:12:49.8      82     -4     52     83     97  93.0  35.5  34172  289.77 0855.25
2009/04/23 10:12:49.9      -1    -24     74     25     78 184.5  81.0  34182  289.96 0855.25
2009/04/23 10:12:50.0      -1     10     45     11     46 352.0  85.9  34198  290.21 0855.25
2009/04/23 10:12:50.1     -16     40     61     44     75 338.2  60.6  34192  290.13 0855.25
2009/04/23 10:12:50.2      50     33     74     61     95  56.7  56.4  34184  289.99 0855.25
2009/04/23 10:12:50.3      38     21     86     44     96  60.2  70.8  34190  290.09 0855.25
2009/04/23 10:12:50.4      59     42    102     73    125  54.1  61.1  34192  290.11 0855.25
2009/04/23 10:12:50.5      43     32    102     54    115  53.1  69.8  34194  290.14 0855.25
2009/04/23 10:12:50.6      14      3     56     15     57  74.9  84.9  34192  290.13 0855.25
2009/04/23 10:12:50.7       8     26     64     28     69  18.5  74.0  34192  290.11 0855.25
2009/04/23 10:12:50.8     -30     19     45     36     57 302.4  56.4  34194  290.14 0855.25
2009/04/23 10:12:50.9      36     -8     36     38     52 103.3  50.0  34190  290.08 0855.25
2009/04/23 10:12:51.0      71      0     45     72     84  90.0  35.5  34190  290.09 0855.25
2009/04/23 10:12:51.1      33     24     53     41     67  54.0  58.5  34196  290.19 0855.25
2009/04/23 10:12:51.2       0     43     56     44     71   0.9  56.4  34200  290.25 0855.25
2009/04/23 10:12:51.3      46     56     72     73    102  39.7  50.0  34216  290.53 0855.25
2009/04/23 10:12:51.4      42     26     42     50     65  57.6  43.8  34216  290.52 0855.25
2009/04/23 10:12:51.5      24     33     36     42     55  36.1  44.8  34208  290.38 0855.24
2009/04/23 10:12:51.6      65     19     23     68     72  73.2  18.9  34196  290.18 0855.24
2009/04/23 10:12:51.7      58     23     38     63     73  68.3  34.4  34196  290.18 0855.24
2009/04/23 10:12:51.8      66     51      0     84     85  52.2   0.2  34188  290.04 0855.24
2009/04/23 10:12:51.9      84     27     49     89    101  72.3  31.4  34194  290.16 0855.24
2009/04/23 10:12:52.0      78     75     26    109    113  46.4  13.7  34194  290.14 0855.24
2009/04/23 10:12:52.1      67     91    -36    114    120  36.5 -17.5  34196  290.19 0855.24
2009/04/23 10:12:52.2      79     88    -61    119    133  41.9 -33.7  34192  290.11 0855.24
2009/04/23 10:12:52.3      94     92    -36    132    138  45.6 -15.5  34192  290.13 0855.24
2009/04/23 10:12:52.4     119     80      1    144    145  55.8   0.7  34234  290.82 0855.24
2009/04/23 10:12:52.5     145     73      0    163    164  63.4   0.2  34246  291.04 0855.24
2009/04/23 10:12:52.6     130     45     36    138    143  70.9  14.7  34246  291.03 0855.24
2009/04/23 10:12:52.7     143     90     13    170    171  57.8   4.4  34244  290.99 0855.24
2009/04/23 10:12:52.8     157    100     22    187    189  57.6   6.9  34240  290.94 0855.24
2009/04/23 10:12:52.9     170     88     84    192    209  62.7  25.2  34226  290.69 0855.24
2009/04/23 10:12:53.0     165    130     64    211    221  51.8  17.1  34216  290.53 0855.24
2009/04/23 10:12:53.1     146    121     36    190    194  50.4  11.0  34224  290.67 0855.24
2009/04/23 10:12:53.2     118     54    132    130    185  65.2  49.9  34226  290.69 0855.24
2009/04/23 10:12:53.3     133      6    153    134    203  87.4  54.3  34210  290.43 0855.24
2009/04/23 10:12:53.4     106     -5    124    107    163  93.0  54.6  34216  290.53 0855.24
2009/04/23 10:12:53.5     149     30     77    153    171  78.5  28.5  34210  290.41 0855.24
2009/04/23 10:12:53.6     199     27     85    201    218  82.1  24.1  34200  290.26 0855.24
2009/04/23 10:12:53.7     119     -8    140    120    184  94.3  55.0  34208  290.40 0855.24
2009/04/23 10:12:53.8     180     36    154    184    239  78.5  44.3  34192  290.11 0855.24
2009/04/23 10:12:53.9      79     74    139    109    176  46.9  57.7  34208  290.40 0855.24
2009/04/23 10:12:54.0      65     65    122     93    153  45.0  59.0  34204  290.33 0855.24
2009/04/23 10:12:54.1     -13     14    101     20    102 316.8  89.1  34208  290.40 0855.24
2009/04/23 10:12:54.2     -23     57     79     62    100 338.2  57.9  34198  290.23 0855.24
2009/04/23 10:12:54.3      31     70     67     77    102  24.5  45.8  34196  290.18 0855.24
2009/04/23 10:12:54.4     103    -12     63    104    121  97.0  34.0  34186  290.01 0855.24
2009/04/23 10:12:54.5     119     -3     60    120    134  91.7  28.7  34190  290.08 0855.24
2009/04/23 10:12:54.6     104     -3     53    105    117  91.7  28.7  34192  290.11 0855.24
2009/04/23 10:12:54.7      34     11     82     36     89  71.4  74.5  34204  290.31 0855.24
2009/04/23 10:12:54.8      16     -7     74     18     76 115.3  85.9  34210  290.41 0855.24
2009/04/23 10:12:54.9      67    -13     66     69     95 101.4  49.0  34200  290.25 0855.24
2009/04/23 10:12:55.0      91    -62     36    111    117 124.2  17.9  34194  290.14 0855.24
2009/04/23 10:12:55.1     152    -72     58    169    179 115.4  19.2  34188  290.04 0855.24
2009/04/23 10:12:55.2     163    -99     96    191    213 121.3  28.7  34188  290.04 0855.24
2009/04/23 10:12:55.3     174   -110    121    207    239 122.4  33.1  34190  290.08 0855.24
2009/04/23 10:12:55.4      47    -74    108     88    139 147.4  56.4  34202  290.30 0855.24
2009/04/23 10:12:55.5      25    -39    107     47    116 147.4  75.0  34204  290.31 0855.25
2009/04/23 10:12:55.6       3    -44    137     45    144 175.5  80.7  34200  290.25 0855.25
2009/04/23 10:12:55.7       8    -86    139     87    163 174.7  64.9  34198  290.23 0855.25
2009/04/23 10:12:55.8     -61      0    149     62    161 270.8  76.3  34198  290.23 0855.25
2009/04/23 10:12:55.9     -43     13    123     46    131 287.7  79.1  34206  290.36 0855.25
2009/04/23 10:12:56.0      10    -41    145     43    151 165.7  82.8  34208  290.40 0855.25
2009/04/23 10:12:56.1     -62   -176    133    187    229 199.6  39.3  34188  290.04 0855.25
2009/04/23 10:12:56.2     -37   -211    195    215    290 190.0  46.9  34192  290.10 0855.25
2009/04/23 10:12:56.3    -112   -241    237    266    356 204.9  46.3  34192  290.10 0855.25
2009/04/23 10:12:56.4    -110   -233    228    258    344 205.3  46.1  34190  290.09 0855.25
2009/04/23 10:12:56.5     -90   -225    260    243    355 201.8  52.2  34190  290.09 0855.25
2009/04/23 10:12:56.6     -39   -166    252    171    304 193.4  62.6  34198  290.22 0855.25
2009/04/23 10:12:56.7     -17   -156    254    157    298 186.3  65.4  34188  290.05 0855.25
2009/04/23 10:12:56.8      -9   -179    207    180    274 183.1  54.6  34186  290.02 0855.25
2009/04/23 10:12:56.9      -3   -253    191    254    317 180.9  40.7  34190  290.07 0855.25
2009/04/23 10:12:57.0    -137   -301    264    331    423 204.5  42.7  34184  289.98 0855.25
2009/04/23 10:12:57.1    -156   -252    212    297    364 211.7  39.1  34192  290.10 0855.25
2009/04/23 10:12:57.2    -222   -225    170    317    359 224.5  30.6  34202  290.27 0855.25
2009/04/23 10:12:57.3     -39   -194    194    198    277 191.5  49.8  34200  290.26 0855.25
2009/04/23 10:12:57.4    -167   -204    160    264    308 219.4  34.2  34184  289.97 0855.25
2009/04/23 10:12:57.5     -17   -134    143    136    197 187.6  51.6  34194  290.14 0855.27
2009/04/23 10:12:57.6     -30   -174    137    177    223 190.0  41.7  34182  289.96 0855.27
2009/04/23 10:12:57.7     -88    -58    121    106    160 236.3  54.3  34206  290.35 0855.27
2009/04/23 10:12:57.8    -134   -217    161    256    302 211.6  35.5  34184  289.98 0855.27
2009/04/23 10:12:57.9    -158    -86    139    180    227 241.4  41.7  34202  290.28 0855.27
2009/04/23 10:12:58.0    -113   -208    133    237    271 208.5  31.9  34204  290.31 0855.27
2009/04/23 10:12:58.1    -112   -258    175    282    331 203.6  35.0  34196  290.19 0855.27
2009/04/23 10:12:58.2    -145   -164    173    220    279 221.4  42.0  34200  290.24 0855.27
2009/04/23 10:12:58.3    -229   -145    239    272    362 237.6  45.8  34198  290.23 0855.27
2009/04/23 10:12:58.4     -77   -193    136    209    249 201.8  36.0  34200  290.24 0855.27
2009/04/23 10:12:58.5     -49   -198    135    205    245 194.0  36.5  34194  290.15 0855.29
2009/04/23 10:12:58.6     -83   -167    189    187    265 206.5  50.1  34198  290.20 0855.29
2009/04/23 10:12:58.7    -156   -156    112    222    248 225.0  28.7  34212  290.44 0855.29
2009/04/23 10:12:58.8     -90   -174    159    196    252 207.4  43.3  34200  290.26 0855.29
2009/04/23 10:12:58.9    -213   -231    108    315    334 222.6  18.9  34210  290.41 0855.29
2009/04/23 10:12:59.0    -174   -220     35    281    284 218.3   7.2  34214  290.48 0855.29
2009/04/23 10:12:59.1     -90   -212     93    231    249 202.9  23.0  34210  290.41 0855.29
2009/04/23 10:12:59.2    -158   -208    115    262    286 217.2  25.2  34194  290.14 0855.29
2009/04/23 10:12:59.3     -88    -96     70    131    148 222.3  30.8  34192  290.11 0855.29
2009/04/23 10:12:59.4    -130    -28      6    134    135 257.6   2.8  34204  290.31 0855.29
2009/04/23 10:12:59.5    -117    -73     48    139    148 238.0  19.2  34202  290.30 0855.29
2009/04/23 10:12:59.6    -206   -249   -100    324    339 219.7 -22.3  34202  290.30 0855.29
2009/04/23 10:12:59.7    -134   -304    100    333    348 203.9  16.8  34210  290.43 0855.29
2009/04/23 10:12:59.8     -96   -219     17    240    241 203.8   4.2  34218  290.56 0855.29
2009/04/23 10:12:59.9    -127    -58   -159    140    211 245.2 -58.7  34202  290.28 0855.29
2009/04/23 10:13:00.0    -214     -7   -150    215    262 267.9 -42.8  34188  290.05 0855.29
2009/04/23 10:13:00.1    -206    -78   -135    221    258 249.2 -38.8  34194  290.15 0855.29
2009/04/23 10:13:00.2    -204   -136    -96    246    264 236.3 -26.9  34180  289.90 0855.29
2009/04/23 10:13:00.3    -250    -36   -106    253    274 261.6 -28.5  34186  290.02 0855.29
2009/04/23 10:13:00.4    -219    -33    -94    222    241 261.4 -28.6  34182  289.95 0855.29
2009/04/23 10:13:00.5    -176    -92   -133    199    239 242.2 -41.4  34178  289.89 0855.27
2009/04/23 10:13:00.6    -230    -30    -91    232    249 262.5 -26.7  34180  289.90 0855.27
2009/04/23 10:13:00.7    -245    -69    -56    255    262 254.1 -12.4  34182  289.95 0855.27
2009/04/23 10:13:00.8    -294   -144    -80    328    338 243.8 -13.8  34182  289.94 0855.27
2009/04/23 10:13:00.9    -256    -60    -73    264    274 256.7 -15.5  34190  290.07 0855.27
2009/04/23 10:13:01.0    -309    -83   -117    321    341 254.9 -25.1  34188  290.06 0855.27
2009/04/23 10:13:01.1    -200    -63    -58    210    218 252.3 -15.5  34190  290.08 0855.27
2009/04/23 10:13:01.2    -196    -20    -67    198    210 263.9 -18.7  34194  290.16 0855.27
2009/04/23 10:13:01.3    -147   -109    -39    184    189 233.4 -12.2  34210  290.41 0855.27
2009/04/23 10:13:01.4    -153   -103    -83    185    202 235.8 -30.1  34204  290.31 0855.27
2009/04/23 10:13:01.5     -76      0    -26     77     82 270.0 -18.7  34206  290.36 0855.27
2009/04/23 10:13:01.6      19    -40    -31     45     54 154.6 -42.0  34204  290.33 0855.27
2009/04/23 10:13:01.7      88    -92    -38    128    133 136.3 -21.7  34192  290.13 0855.27
2009/04/23 10:13:01.8      26    -77    -54     82     98 161.3 -40.9  34196  290.19 0855.27
2009/04/23 10:13:01.9     -25   -119    -54    122    133 192.0 -29.6  34216  290.53 0855.27
2009/04/23 10:13:02.0     -74    -86    -93    114    147 220.5 -48.1  34218  290.55 0855.27
2009/04/23 10:13:02.1     -77    -76   -102    109    149 225.4 -52.4  34218  290.55 0855.27
2009/04/23 10:13:02.2     -86   -107   -103    138    172 218.7 -45.1  34214  290.50 0855.27
2009/04/23 10:13:02.3     -91    -60    -86    110    139 236.7 -46.1  34208  290.40 0855.27
2009/04/23 10:13:02.4     -81    -59   -138    101    171 234.0 -64.7  34206  290.35 0855.27
2009/04/23 10:13:02.5     -58    -55   -114     81    139 226.7 -65.0  34204  290.33 0855.21
2009/04/23 10:13:02.6     -52   -125   -106    136    172 202.7 -46.6  34206  290.35 0855.21
2009/04/23 10:13:02.7      -5   -178    -74    179    193 181.6 -27.8  34202  290.30 0855.21
2009/04/23 10:13:02.8     -35   -165    -75    169    184 192.0 -30.1  34210  290.41 0855.21
2009/04/23 10:13:02.9     -46    -68    -66     83    106 214.3 -47.1  34212  290.47 0855.21
2009/04/23 10:13:03.0     -67    -10    -72     68     99 261.2 -56.0  34210  290.41 0855.21
2009/04/23 10:13:03.1     -30    -14    -63     34     71 244.8 -73.3  34210  290.41 0855.21
2009/04/23 10:13:03.2      -3    -46    -18     47     50 184.5 -25.4  34212  290.45 0855.21
2009/04/23 10:13:03.3       0    -52    -25     53     58 180.9 -31.5  34212  290.45 0855.21
2009/04/23 10:13:03.4     -11    -38      4     40     41 196.9   6.9  34212  290.45 0855.21
2009/04/23 10:13:03.5      -9    -31     31     33     45 196.9  49.0  34216  290.53 0855.21
2009/04/23 10:13:03.6     -25    -23     33     35     48 226.9  50.0  34222  290.62 0855.21
2009/04/23 10:13:03.7      -9    -16     50     19     53 209.0  80.2  34226  290.70 0855.21
2009/04/23 10:13:03.8       8    -14     42     17     45 151.0  77.1  34234  290.82 0855.21
2009/04/23 10:13:03.9      13    -13     35     19     39 136.6  68.8  34226  290.69 0855.21
2009/04/23 10:13:04.0      -1    -26     17     27     31 182.7  35.5  34206  290.36 0855.21
2009/04/23 10:13:04.1      30     -9    -17     32     36 108.2 -33.7  34204  290.33 0855.21
2009/04/23 10:13:04.2      30    -29    -17     43     46 134.0 -26.4  34200  290.25 0855.21
2009/04/23 10:13:04.3       4    -60     25     61     65 175.5  23.0  34200  290.25 0855.21
2009/04/23 10:13:04.4     -18    -58     53     61     80 197.8  45.8  34200  290.25 0855.21
2009/04/23 10:13:04.5       0    -53     39     54     66 180.9  39.5  34202  290.30 0855.22
2009/04/23 10:13:04.6     -44    -45     55     64     84 224.1  45.8  34202  290.30 0855.22
2009/04/23 10:13:04.7       7    -20     -8     22     24 161.3 -19.7  34200  290.26 0855.22
2009/04/23 10:13:04.8      20    -62     -6     66     67 162.2  -5.2  34202  290.28 0855.22
2009/04/23 10:13:04.9     -11   -148    -19    149    151 184.5  -7.3  34196  290.19 0855.22
2009/04/23 10:13:05.0      -2   -150    -19    151    153 181.0  -7.2  34192  290.11 0855.22
2009/04/23 10:13:05.1      57   -143    -21    155    157 158.1  -7.7  34198  290.21 0855.22
2009/04/23 10:13:05.2      69   -145    -53    161    169 154.6 -23.8  34196  290.19 0855.22
2009/04/23 10:13:05.3      84   -112    -41    141    146 143.0 -21.2  34198  290.21 0855.22
2009/04/23 10:13:05.4      75   -118    -33    141    145 147.5 -13.4  34204  290.31 0855.22
2009/04/23 10:13:05.5      69   -122    -13    141    142 150.6  -5.6  34192  290.13 0855.22
2009/04/23 10:13:05.6      73   -123     50    144    153 149.2  19.4  34194  290.16 0855.22
2009/04/23 10:13:05.7      88   -105     58    138    149 139.9  24.1  34192  290.11 0855.22
2009/04/23 10:13:05.8      53    -88     95    104    140 148.8  47.9  34190  290.09 0855.22
2009/04/23 10:13:05.9      61    -96     74    115    136 147.5  35.6  34188  290.06 0855.22
2009/04/23 10:13:06.0      99    -70     92    122    152 125.5  40.7  34190  290.09 0855.22
2009/04/23 10:13:06.1     125    -47     95    134    164 110.8  38.6  34194  290.16 0855.22
2009/04/23 10:13:06.2     111    -36     70    117    136 108.2  34.0  34196  290.18 0855.22
2009/04/23 10:13:06.3      58   -113     52    128    138 152.9  23.1  34188  290.04 0855.22
2009/04/23 10:13:06.4      63   -133     80    148    168 154.7  30.8  34186  290.02 0855.22
2009/04/23 10:13:06.5      29   -129     90    133    160 167.1  37.3  34188  290.06 0855.23
2009/04/23 10:13:06.6      14   -120     90    121    150 172.9  40.1  34188  290.04 0855.23
2009/04/23 10:13:06.7     -27   -135    128    138    188 191.6  47.9  34190  290.09 0855.23
2009/04/23 10:13:06.8     -12   -123    117    124    170 185.8  48.2  34188  290.06 0855.23
2009/04/23 10:13:06.9      57   -171    161    181    242 161.5  46.4  34188  290.06 0855.23
2009/04/23 10:13:07.0      58   -196    118    205    236 163.3  32.4  34186  290.01 0855.23
2009/04/23 10:13:07.1      33   -187     99    191    215 169.8  29.3  34186  290.02 0855.23
2009/04/23 10:13:07.2       9   -213     75    214    227 177.4  19.4  34186  290.02 0855.23
2009/04/23 10:13:07.3      19   -251     39    252    256 175.5   8.9  34184  289.97 0855.23
2009/04/23 10:13:07.4      16   -173     81    174    191 174.7  27.0  34184  289.97 0855.23
2009/04/23 10:13:07.5      86   -217     90    234    250 158.2  22.0  34186  290.00 0855.23
2009/04/23 10:13:07.6      48   -174     87    181    200 164.4  27.4  34186  290.01 0855.23
2009/04/23 10:13:07.7      83   -191    125    209    243 156.4  33.7  34186  290.02 0855.23
2009/04/23 10:13:07.8      80   -178    103    196    221 155.9  29.8  34182  289.94 0855.23
2009/04/23 10:13:07.9      81   -215     66    230    240 159.3  16.0  34182  289.95 0855.23
2009/04/23 10:13:08.0     108   -180     73    211    224 149.0  19.2  34176  289.85 0855.23
2009/04/23 10:13:08.1     134   -194     75    237    249 145.3  17.7  34182  289.95 0855.23
2009/04/23 10:13:08.2     147   -149     63    210    220 135.5  16.8  34184  289.97 0855.23
2009/04/23 10:13:08.3     116   -151     48    191    198 142.4  14.3  34186  290.01 0855.23
2009/04/23 10:13:08.4     116   -187    121    221    251 148.1  31.3  34182  289.93 0855.23
2009/04/23 10:13:08.5      95   -190    126    213    247 153.5  33.5  34184  289.98 0855.24
2009/04/23 10:13:08.6      66   -172    107    185    213 158.8  33.1  34188  290.04 0855.24
2009/04/23 10:13:08.7     123   -156     42    199    204 141.7  12.0  34186  290.02 0855.24
2009/04/23 10:13:08.8      94   -115    -38    149    154 140.8 -14.3  34188  290.04 0855.24
2009/04/23 10:13:08.9      96    -60    -24    114    117 122.0 -11.9  34188  290.04 0855.24
2009/04/23 10:13:09.0     105    -81     37    133    139 127.8  15.8  34188  290.04 0855.24
2009/04/23 10:13:09.1      93    -76     24    121    124 129.5  11.6  34184  289.99 0855.24
2009/04/23 10:13:09.2      65   -118     25    135    138 151.0  10.6  34188  290.04 0855.24
2009/04/23 10:13:09.3      28   -119      5    123    124 166.6   2.3  34186  290.02 0855.24
2009/04/23 10:13:09.4      30   -149      7    153    154 168.5   2.9  34190  290.09 0855.24
2009/04/23 10:13:09.5      15   -145     20    146    148 173.8   8.0  34190  290.09 0855.24
2009/04/23 10:13:09.6      17   -127     25    129    132 172.0  11.0  34186  290.02 0855.24
2009/04/23 10:13:09.7       0    -90     54     91    105 179.5  34.0  34190  290.09 0855.24
2009/04/23 10:13:09.8       4   -116    123    117    169 177.8  51.2  34186  290.02 0855.24
2009/04/23 10:13:09.9      44   -146    120    153    194 163.1  42.2  34188  290.04 0855.24
2009/04/23 10:13:10.0      11   -119    101    120    156 174.7  44.5  34186  290.01 0855.24
2009/04/23 10:13:10.1       9   -104     88    105    137 174.7  43.8  34188  290.06 0855.24
2009/04/23 10:13:10.2      25    -91     79     95    123 164.4  44.3  34192  290.11 0855.24
2009/04/23 10:13:10.3      -4    -96     84     97    128 182.7  45.8  34188  290.04 0855.24
2009/04/23 10:13:10.4      11    -41     81     43     91 164.9  69.8  34194  290.14 0855.24
2009/04/23 10:13:10.5      32    -10     74     34     81 108.4  74.0  34202  290.30 0855.24
2009/04/23 10:13:10.6      24      9     80     26     84  68.3  80.7  34204  290.33 0855.24
2009/04/23 10:13:10.7      16     22     67     28     72  36.1  77.0  34210  290.43 0855.24
2009/04/23 10:13:10.8      39     13     70     42     81  71.6  66.2  34202  290.30 0855.24
2009/04/23 10:13:10.9      29    -12     69     32     76 113.5  73.1  34208  290.40 0855.24
2009/04/23 10:13:11.0      10    -37     73     39     82 164.9  69.8  34208  290.40 0855.24
2009/04/23 10:13:11.1      -9     21     64     24     68 336.4  80.2  34202  290.28 0855.24
2009/04/23 10:13:11.2      -4     26     69     27     74 350.2  78.2  34216  290.53 0855.24
2009/04/23 10:13:11.3       5     30     83     31     88   9.8  79.2  34202  290.30 0855.24
2009/04/23 10:13:11.4      91      4     61     92    110  87.0  36.0  34188  290.06 0855.24
2009/04/23 10:13:11.5      90     19     60     93    110  77.6  35.6  34186  290.02 0855.24
2009/04/23 10:13:11.6      59      0     52     60     79  90.0  45.4  34194  290.14 0855.24
2009/04/23 10:13:11.7      24      0     56     25     61  90.0  75.0  34202  290.28 0855.24
2009/04/23 10:13:11.8      -6      0     57      7     57 270.0  90.0  34206  290.36 0855.24
2009/04/23 10:13:11.9     -15     -8     48     18     51 241.1  79.2  34212  290.45 0855.24
2009/04/23 10:13:12.0       0     23     41     24     47 359.1  66.8  34204  290.31 0855.24
2009/04/23 10:13:12.1      32     16     70     37     79  62.9  69.8  34198  290.21 0855.24
2009/04/23 10:13:12.2     -10     -3     63     11     63 251.6  90.0  34206  290.35 0855.24
2009/04/23 10:13:12.3      35      8     54     36     64  76.7  63.6  34204  290.33 0855.24
2009/04/23 10:13:12.4       0     17     46     18     49 357.3  78.2  34214  290.50 0855.24
2009/04/23 10:13:12.5      33     28     53     44     68  49.6  56.3  34200  290.26 0855.23
2009/04/23 10:13:12.6      29     21     55     36     65  54.0  64.6  34202  290.28 0855.23
2009/04/23 10:13:12.7      50      0     54     51     74  89.2  51.2  34192  290.13 0855.23
2009/04/23 10:13:12.8      78     26     67     83    106  71.4  43.7  34190  290.09 0855.23
2009/04/23 10:13:12.9      67     31     80     75    109  64.8  52.1  34194  290.16 0855.23
2009/04/23 10:13:13.0      37     -7     71     38     80 101.4  69.8  34202  290.28 0855.23
2009/04/23 10:13:13.1      69    -22     67     73     99 108.2  47.9  34200  290.25 0855.23
2009/04/23 10:13:13.2      76    -33     83     83    117 113.5  50.1  34198  290.23 0855.23
2009/04/23 10:13:13.3     -13     -9     64     17     66 234.0  84.9  34202  290.30 0855.23
2009/04/23 10:13:13.4     -10    -11     42     16     44 223.4  79.2  34198  290.21 0855.23
2009/04/23 10:13:13.5      27     -4     78     28     82  99.7  79.7  34202  290.28 0855.23
2009/04/23 10:13:13.7     -15      0     55     16     57 270.0  82.8  34202  290.28 0855.23
2009/04/23 10:13:13.7     -19     38     48     43     64 332.8  52.2  34210  290.41 0855.23
2009/04/23 10:13:13.9      12     61     60     63     87  11.5  49.0  34208  290.38 0855.23
2009/04/23 10:13:14.0      46      7     65     47     80  81.2  60.5  34196  290.18 0855.23
2009/04/23 10:13:14.1      39      0     56     40     68  89.2  60.6  34192  290.13 0855.23
2009/04/23 10:13:14.2      26     -8     79     28     83 108.6  80.7  34198  290.23 0855.23
2009/04/23 10:13:14.3      50    -10     83     52     97 101.4  64.7  34194  290.16 0855.23
2009/04/23 10:13:14.4     -28    -18     32     34     46 237.5  50.0  34204  290.31 0855.23
2009/04/23 10:13:14.5     -64    -17      3     67     68 254.9   2.9  34200  290.26 0855.23
2009/04/23 10:13:14.6     -95      5      4     96     97 273.0   2.9  34194  290.14 0855.23
2009/04/23 10:13:14.7    -131     75     37    152    157 299.8  13.7  34192  290.11 0855.23
2009/04/23 10:13:14.8    -115     21     26    117    120 280.6  12.6  34196  290.18 0855.23
2009/04/23 10:13:14.9     -80    -27     35     85     91 250.9  23.6  34196  290.19 0855.23
2009/04/23 10:13:15.0    -124    -49     56    134    145 248.2  23.6  34194  290.16 0855.23
2009/04/23 10:13:15.1    -147    -40     56    153    162 254.5  20.7  34188  290.04 0855.23
2009/04/23 10:13:15.2    -192    -32     60    195    205 260.5  17.3  34186  290.02 0855.23
2009/04/23 10:13:15.3    -178    -29     63    181    192 260.5  19.4  34180  289.92 0855.23
2009/04/23 10:13:15.4    -172    -33     42    176    181 259.2  13.5  34188  290.04 0855.23
2009/04/23 10:13:15.5    -121    -62     55    137    147 242.9  23.0  34188  290.04 0855.23
2009/04/23 10:13:15.6     -40    -89     16     98    100 204.5   9.5  34194  290.16 0855.23
2009/04/23 10:13:15.7     -44    -80     48     92    103 209.0  30.3  34194  290.14 0855.23
2009/04/23 10:13:15.8     -76    -19     30     79     84 255.8  21.0  34186  290.01 0855.23
2009/04/23 10:13:15.9     -94     -4      4     95     96 267.4   2.9  34188  290.06 0855.23
2009/04/23 10:13:16.0     -14    -72    -24     74     77 191.6 -23.8  34192  290.11 0855.23
2009/04/23 10:13:16.1      26    -28     73     39     82 136.6  69.8  34202  290.30 0855.23
2009/04/23 10:13:16.2      -5     15     63     16     65 341.7  85.9  34198  290.21 0855.23
2009/04/23 10:13:16.3      -9    -14     31     17     35 212.5  66.8  34204  290.33 0855.23
2009/04/23 10:13:16.4      29     -2     36     30     46  94.4  55.4  34204  290.31 0855.23
2009/04/23 10:13:16.5       5     53     47     54     71   6.2  44.8  34200  290.25 0855.23
2009/04/23 10:13:16.6      -1    -12     59     13     60 186.2  89.0  34200  290.26 0855.23
2009/04/23 10:13:16.7     -25    -30     52     40     65 219.6  58.5  34196  290.18 0855.23
2009/04/23 10:13:16.8      53    -17     52     56     76 108.6  48.0  34202  290.28 0855.23
2009/04/23 10:13:16.9      41    -15     54     44     69 110.0  56.4  34204  290.31 0855.23
2009/04/23 10:13:17.0     -23    -58     88     63    108 201.9  60.5  34206  290.36 0855.23
2009/04/23 10:13:17.1    -115    -62     47    131    139 241.6  20.4  34194  290.16 0855.23
2009/04/23 10:13:17.2       0    -85    118     86    146 180.0  60.5  34194  290.16 0855.23
2009/04/23 10:13:17.3     -26    -73    129     78    150 200.0  66.2  34196  290.18 0855.23
2009/04/23 10:13:17.4    -120   -159    126    200    236 217.0  35.5  34218  290.55 0855.23
2009/04/23 10:13:17.5    -148    -81     52    169    178 241.1  17.3  34230  290.75 0855.23
2009/04/23 10:13:17.6    -136    -53     17    146    148 248.7   6.9  34230  290.77 0855.23
2009/04/23 10:13:17.7    -122    -56      6    135    136 245.2   2.9  34236  290.87 0855.23
2009/04/23 10:13:17.8     -83    -72     30    110    115 229.1  15.2  34236  290.87 0855.23
2009/04/23 10:13:17.9    -147   -105     35    181    185 234.5  11.1  34228  290.74 0855.23
2009/04/23 10:13:18.0    -109   -102     32    150    154 226.9  12.2  34232  290.79 0855.23
2009/04/23 10:13:18.1    -146   -109     47    183    190 233.1  14.5  34242  290.98 0855.23
2009/04/23 10:13:18.2     -70   -127    110    146    182 208.9  40.7  34214  290.50 0855.23
2009/04/23 10:13:18.3    -158   -125      8    202    203 231.6   2.3  34248  291.08 0855.23
2009/04/23 10:13:18.4    -190   -100     -4    215    216 242.2  -1.3  34256  291.21 0855.23
2009/04/23 10:13:18.5    -212   -108      5    238    239 243.0   1.2  34258  291.24 0855.23
2009/04/23 10:13:18.6    -179   -111     55    211    219 238.2  14.7  34246  291.04 0855.23
2009/04/23 10:13:18.7     -84   -156     82    178    195 208.5  26.4  34190  290.09 0855.23
2009/04/23 10:13:18.8     -68   -145     78    161    178 205.3  27.4  34186  290.02 0855.23
2009/04/23 10:13:18.9     -64   -126     74    142    160 207.2  29.8  34194  290.14 0855.23
2009/04/23 10:13:19.0     -96    -97     51    137    146 224.5  21.0  34204  290.31 0855.23
2009/04/23 10:13:19.1     -84   -128     94    154    180 213.4  34.4  34202  290.30 0855.23
2009/04/23 10:13:19.2     -69    -43     32     82     88 237.6  22.0  34206  290.36 0855.23
2009/04/23 10:13:19.3     -55    -53     44     77     88 226.0  32.4  34214  290.48 0855.23
2009/04/23 10:13:19.4    -101    -30     20    106    108 253.2  11.0  34226  290.69 0855.23
2009/04/23 10:13:19.5     -55    -79     34     97    103 214.7  19.4  34204  290.31 0855.23
2009/04/23 10:13:19.6     -17   -138     28    140    143 187.1  11.6  34188  290.04 0855.23
2009/04/23 10:13:19.7     -15   -146     28    147    150 186.2  11.1  34182  289.94 0855.23
2009/04/23 10:13:19.8     -45   -135     27    143    146 198.5  11.0  34182  289.96 0855.23
2009/04/23 10:13:19.9     -39   -138      5    144    145 196.0   2.3  34180  289.92 0855.23
2009/04/23 10:13:20.0     -49   -146     -6    155    156 198.7  -2.2  34184  289.99 0855.23
2009/04/23 10:13:20.1    -111   -111    -48    157    164 225.0 -22.1  34196  290.19 0855.23
2009/04/23 10:13:20.2    -104   -138      1    174    175 217.0   0.5  34186  290.01 0855.23
2009/04/23 10:13:20.3    -124   -128     49    179    186 223.9  15.6  34186  290.01 0855.23
2009/04/23 10:13:20.4     -94   -113     66    148    162 219.6  25.7  34186  290.01 0855.23
2009/04/23 10:13:20.5     -96    -96     46    137    145 225.0  18.9  34184  289.99 0855.23
2009/04/23 10:13:20.6     -93   -112     43    146    153 219.6  16.6  34184  289.97 0855.23
2009/04/23 10:13:20.7     -72   -115     37    136    141 212.1  15.3  34182  289.94 0855.23
2009/04/23 10:13:20.8     -60   -111     37    127    133 208.5  16.3  34182  289.94 0855.23
2009/04/23 10:13:20.9     -70    -96      1    120    121 216.1   0.8  34182  289.96 0855.23
2009/04/23 10:13:21.0     -78   -119     46    143    151 213.4  17.9  34192  290.13 0855.23
2009/04/23 10:13:21.1     -59   -125     49    139    148 205.5  19.4  34186  290.01 0855.23
2009/04/23 10:13:21.2     -48   -111     24    122    125 203.6  11.1  34184  289.99 0855.23
2009/04/23 10:13:21.3     -74   -137     33    157    161 208.5  12.0  34184  289.97 0855.23
2009/04/23 10:13:21.4     -65   -142     67    157    170 204.5  24.6  34184  289.97 0855.23
2009/04/23 10:13:21.5     -10   -138     66    139    153 184.5  27.2  34184  289.99 0855.23
2009/04/23 10:13:21.6     -60   -132     -5    146    147 204.5  -2.2  34178  289.89 0855.24
2009/04/23 10:13:21.7    -120   -157     13    198    199 217.4   3.8  34190  290.08 0855.24
2009/04/23 10:13:21.8     -97   -116     66    152    165 219.7  24.9  34194  290.16 0855.24
2009/04/23 10:13:21.9     -93   -112     64    146    159 219.6  25.3  34216  290.53 0855.24
2009/04/23 10:13:22.0     -96   -150     13    179    180 212.5   4.4  34190  290.09 0855.24
2009/04/23 10:13:22.1    -117   -135      2    179    180 221.0   0.8  34184  289.99 0855.24
2009/04/23 10:13:22.2    -102   -173     -3    201    202 210.5  -1.1  34184  289.97 0855.24
2009/04/23 10:13:22.3    -105   -150     -4    184    185 215.0  -1.3  34184  289.99 0855.24
2009/04/23 10:13:22.4    -115   -161    -30    199    202 215.6  -8.6  34186  290.02 0855.24
2009/04/23 10:13:22.5    -102   -174     -4    202    203 210.5  -1.3  34184  289.99 0855.24
2009/04/23 10:13:22.6    -159   -192      0    250    251 219.7   0.2  34184  289.97 0855.24
2009/04/23 10:13:22.7    -113   -164     -7    200    201 214.5  -2.3  34182  289.96 0855.24
2009/04/23 10:13:22.8    -111   -153    -44    190    196 216.1 -13.2  34184  289.97 0855.24
2009/04/23 10:13:22.9    -120   -264     -2    291    292 204.5  -0.5  34186  290.00 0855.24
2009/04/23 10:13:23.0     -95   -227     -9    247    248 202.7  -2.2  34184  289.97 0855.24
2009/04/23 10:13:23.1    -120   -244    -19    273    274 206.3  -4.1  34182  289.95 0855.24
2009/04/23 10:13:23.2     -71   -227     24    238    240 197.4   5.9  34182  289.95 0855.24
2009/04/23 10:13:23.3     -74   -205    -27    219    221 200.0  -7.2  34178  289.89 0855.24
2009/04/23 10:13:23.4     -75   -191    -18    206    207 201.4  -5.2  34174  289.82 0855.24
2009/04/23 10:13:23.5     -86   -248    -68    263    272 199.2 -14.7  34176  289.85 0855.24
2009/04/23 10:13:23.6     -96   -162    -54    189    196 210.7 -20.4  34178  289.87 0855.23
2009/04/23 10:13:23.7     -62   -198    -15    208    209 197.6  -4.1  34174  289.80 0855.23
2009/04/23 10:13:23.8     -65   -221     19    231    232 196.5   4.9  34174  289.82 0855.23
2009/04/23 10:13:23.9     -58   -266     -2    273    274 192.3  -0.5  34172  289.78 0855.23
2009/04/23 10:13:24.0     -58   -267     -1    274    275 192.3  -0.3  34174  289.80 0855.23
2009/04/23 10:13:24.1     -77   -277    -30    288    290 195.6  -6.1  34172  289.78 0855.23
2009/04/23 10:13:24.2     -86   -275    -20    289    290 197.4  -4.1  34174  289.81 0855.23
2009/04/23 10:13:24.3    -101   -252    -23    272    274 201.9  -4.9  34174  289.81 0855.23
2009/04/23 10:13:24.4    -119   -202     20    235    236 210.5   4.9  34174  289.80 0855.23
2009/04/23 10:13:24.5     -87   -171      8    192    193 207.0   2.5  34184  289.97 0855.23
2009/04/23 10:13:24.6     -67   -122     -2    140    141 208.9  -1.2  34178  289.87 0855.23
2009/04/23 10:13:24.7     -40   -121     22    128    131 198.3  10.1  34184  289.97 0855.23
2009/04/23 10:13:24.8     -14   -135      6    136    137 186.2   2.9  34178  289.87 0855.23
2009/04/23 10:13:24.9      20   -144     50    146    155 172.0  18.9  34182  289.96 0855.23
2009/04/23 10:13:25.0      24   -130     71    133    150 169.3  30.8  34190  290.09 0855.23
2009/04/23 10:13:25.1     -21   -147    108    149    184 188.1  39.5  34208  290.40 0855.23
2009/04/23 10:13:25.2     -96   -143    125    173    213 213.8  39.5  34206  290.36 0855.23
2009/04/23 10:13:25.3     -55   -100     90    115    146 208.9  41.7  34192  290.11 0855.23
2009/04/23 10:13:25.4      -5    -74     81     75    110 184.5  52.2  34186  290.01 0855.23
2009/04/23 10:13:25.5      17   -106     49    108    118 170.7  25.7  34186  290.02 0855.23
2009/04/23 10:13:25.6      16    -85     64     87    108 169.3  40.1  34188  290.04 0855.24
2009/04/23 10:13:25.7       1    -78     76     79    109 179.1  49.0  34182  289.96 0855.24
2009/04/23 10:13:25.8     107   -110    122    154    196 135.9  42.4  34182  289.94 0855.24
2009/04/23 10:13:25.9     163   -164      7    232    233 135.2   1.8  34172  289.79 0855.24
2009/04/23 10:13:26.0      86   -192    -17    211    212 155.7  -4.9  34172  289.77 0855.24
2009/04/23 10:13:26.1      63   -191      2    202    203 161.5   0.8  34168  289.72 0855.24
2009/04/23 10:13:26.2      90   -174     14    197    198 152.6   4.2  34170  289.75 0855.24
2009/04/23 10:13:26.3     110   -170      0    203    204 147.0  -0.3  34170  289.75 0855.24
2009/04/23 10:13:26.4     102   -184     16    211    212 151.0   4.6  34170  289.74 0855.24
2009/04/23 10:13:26.5      99   -168     36    196    200 149.5  10.6  34170  289.74 0855.24
2009/04/23 10:13:26.6      97   -136     22    168    170 144.4   7.5  34168  289.72 0855.24
2009/04/23 10:13:26.7      70   -120     38    140    146 149.7  15.3  34170  289.75 0855.24
2009/04/23 10:13:26.8      74   -145     42    164    170 152.8  14.5  34170  289.75 0855.24
2009/04/23 10:13:26.9      52   -114     53    126    136 155.5  24.1  34172  289.79 0855.24
2009/04/23 10:13:27.0      31   -153     81    157    176 168.5  29.3  34172  289.77 0855.24
2009/04/23 10:13:27.1      61   -176    127    187    226 160.8  37.4  34174  289.80 0855.24
2009/04/23 10:13:27.2      72   -170     -7    185    186 157.1  -2.2  34172  289.79 0855.24
2009/04/23 10:13:27.3      59   -179     -3    189    190 161.7  -1.1  34170  289.74 0855.24
2009/04/23 10:13:27.4      79   -144     38    165    170 151.1  13.2  34168  289.72 0855.24
2009/04/23 10:13:27.5      33   -142     51    146    155 166.6  19.4  34168  289.72 0855.24
2009/04/23 10:13:27.6      20   -131     54    133    143 171.1  23.0  34172  289.77 0855.24
2009/04/23 10:13:27.7      51    -82    105     97    142 147.9  52.2  34180  289.91 0855.24
2009/04/23 10:13:27.8      16   -105     73    107    129 171.1  37.6  34174  289.80 0855.24
2009/04/23 10:13:27.9      44    -89     84    100    130 153.3  43.8  34174  289.82 0855.24
2009/04/23 10:13:28.0      94    -85     40    128    135 132.2  17.3  34170  289.74 0855.24
2009/04/23 10:13:28.1      89    -81     19    121    123 132.2   9.0  34166  289.67 0855.24
2009/04/23 10:13:28.2      50    -51     10     72     73 135.8   8.0  34166  289.69 0855.24
2009/04/23 10:13:28.3      16    -21     57     27     63 142.2  72.9  34174  289.80 0855.24
2009/04/23 10:13:28.4     123    -17    107    125    164  97.9  45.1  34164  289.65 0855.24
2009/04/23 10:13:28.5      81     13    120     83    145  80.8  62.6  34174  289.82 0855.24
2009/04/23 10:13:28.6      51    -61     94     80    123 140.3  54.8  34182  289.94 0855.24
2009/04/23 10:13:28.7      86    -41     63     96    114 115.3  35.6  34172  289.77 0855.24
2009/04/23 10:13:28.8      63      0     69     64     94  90.0  51.6  34170  289.75 0855.24
2009/04/23 10:13:28.9      58     27    102     65    120  64.6  64.7  34176  289.84 0855.24
2009/04/23 10:13:29.0      27     32     65     43     77  40.5  64.6  34178  289.89 0855.24
2009/04/23 10:13:29.1      25     45     62     52     80  29.9  55.4  34178  289.89 0855.24
2009/04/23 10:13:29.2       0     54     64     55     84 359.1  54.3  34182  289.96 0855.24
2009/04/23 10:13:29.3      -1     58     54     59     79 358.2  47.9  34184  289.99 0855.24
2009/04/23 10:13:29.4     -24     51     43     57     71 334.5  41.7  34178  289.89 0855.24
2009/04/23 10:13:29.5     -59     31     29     67     73 298.0  25.1  34172  289.79 0855.24
2009/04/23 10:13:29.6     -35     43     19     56     60 320.3  19.2  34170  289.75 0855.25
2009/04/23 10:13:29.7     -45     45     -1     64     65 314.9  -1.3  34170  289.74 0855.25
2009/04/23 10:13:29.8     -50     24    -20     56     60 296.2 -19.7  34172  289.77 0855.25
2009/04/23 10:13:29.9     -44     24    -23     51     55 298.9 -30.6  34170  289.74 0855.25
2009/04/23 10:13:30.0     -47      3    -26     48     54 274.4 -35.8  34176  289.84 0855.25
2009/04/23 10:13:30.1     -22    -11    -18     25     30 242.9 -44.1  34178  289.89 0855.25
2009/04/23 10:13:30.2     -15      4     17     16     23 285.1  50.1  34184  289.99 0855.25
2009/04/23 10:13:30.3      10     -7     15     13     19 126.0  54.3  34192  290.13 0855.25
2009/04/23 10:13:30.4      51      7    -14     52     54  81.2 -15.5  34180  289.91 0855.25
2009/04/23 10:13:30.5      83     15    -30     85     90  79.4 -23.8  34174  289.80 0855.25
2009/04/23 10:13:30.6     108      3     21    109    112  88.3  11.0  34174  289.80 0855.25
2009/04/23 10:13:30.7      97      7     40     98    105  85.6  23.1  34176  289.84 0855.25
2009/04/23 10:13:30.8      76      0     13     77     79  90.0  10.1  34174  289.80 0855.25
2009/04/23 10:13:30.9     114    -10     -4    115    116  95.2  -2.2  34170  289.75 0855.25
2009/04/23 10:13:31.0     116    -16     19    118    120  97.9   9.5  34168  289.70 0855.25
2009/04/23 10:13:31.1     103     14    -13    105    106  82.0  -7.3  34170  289.75 0855.25
2009/04/23 10:13:31.2      77    -15      6     79     80 101.4   4.4  34170  289.74 0855.25
2009/04/23 10:13:31.3      45      0      2     46     47  90.0   2.9  34166  289.67 0855.25
2009/04/23 10:13:31.4      85    -28     49     90    102 108.6  31.3  34166  289.67 0855.25
2009/04/23 10:13:31.5     113    -32     63    118    133 105.9  30.3  34166  289.67 0855.25
2009/04/23 10:13:31.6     167    -18     82    169    187  96.4  27.3  34166  289.67 0855.25
2009/04/23 10:13:31.7     157     -1     76    158    175  90.4  27.4  34164  289.63 0855.25
2009/04/23 10:13:31.8     153    -35    120    158    198 103.2  41.2  34164  289.65 0855.25
2009/04/23 10:13:31.9     223     -7    108    224    248  91.9  27.4  34176  289.83 0855.25
2009/04/23 10:13:32.0     213     42    136    218    256  78.8  35.2  34190  290.07 0855.25
2009/04/23 10:13:32.1     288    140    120    321    342  64.0  21.4  34176  289.84 0855.25
2009/04/23 10:13:32.2     251    101    238    271    360  68.0  45.8  34194  290.15 0855.25
2009/04/23 10:13:32.3     234   -111    172    260    311 115.4  36.6  34198  290.22 0855.25
2009/04/23 10:13:32.4     166    -93     99    191    215 119.3  29.3  34200  290.26 0855.25
2009/04/23 10:13:32.5     154    -16    115    155    193  96.2  40.1  34198  290.21 0855.25
2009/04/23 10:13:32.6     102     -1     97    103    141  90.8  48.0  34192  290.13 0855.25
2009/04/23 10:13:32.7     171    -17    142    172    223  95.9  43.7  34180  289.91 0855.25
2009/04/23 10:13:32.8     230    -48     92    236    253 101.9  22.3  34184  289.97 0855.25
2009/04/23 10:13:32.9     229   -104    123    252    280 114.4  28.0  34194  290.15 0855.25
2009/04/23 10:13:33.0     148    -98     66    178    189 123.5  21.0  34180  289.92 0855.25
2009/04/23 10:13:33.1     169    -71    117    184    218 112.8  35.5  34202  290.30 0855.25
2009/04/23 10:13:33.2     200    -58     75    209    222 106.2  20.7  34184  289.97 0855.25
2009/04/23 10:13:33.3     199    -40    103    203    227 101.5  29.1  34186  290.02 0855.25
2009/04/23 10:13:33.4     262     19     83    263    276  85.7  17.7  34178  289.86 0855.25
2009/04/23 10:13:33.5     261     74     58    272    279  74.1  12.2  34192  290.12 0855.25
2009/04/23 10:13:33.6     250    111     42    274    278  66.0   8.9  34194  290.15 0855.26
2009/04/23 10:13:33.7     248    117     23    275    277  64.7   5.0  34164  289.64 0855.26
2009/04/23 10:13:33.8     235    115     57    262    269  63.8  12.4  34196  290.17 0855.26
2009/04/23 10:13:33.9     226    114     88    254    269  63.1  19.2  34180  289.92 0855.26
2009/04/23 10:13:34.0     275    127     76    304    314  65.2  14.2  34172  289.78 0855.26
2009/04/23 10:13:34.1     235     -7    -22    236    238  91.9  -5.4  34180  289.90 0855.26
2009/04/23 10:13:34.2     186      6    -34    187    191  87.9 -10.5  34184  289.99 0855.26
2009/04/23 10:13:34.3     295    -58     16    301    302 101.2   3.1  34186  290.02 0855.26
2009/04/23 10:13:34.4     276   -112    -23    299    300 112.2  -4.6  34178  289.86 0855.26
2009/04/23 10:13:34.5     245   -127     23    277    279 117.5   4.9  34172  289.78 0855.26
2009/04/23 10:13:34.6     333      8     25    334    335  88.6   4.3  34180  289.91 0855.26
2009/04/23 10:13:34.7     363     40     48    366    370  83.7   7.5  34184  289.99 0855.26
2009/04/23 10:13:34.8     417     78     13    425    426  79.4   1.8  34184  289.99 0855.26
2009/04/23 10:13:34.9     436      0    -28    437    438  90.0  -3.8  34180  289.92 0855.26
2009/04/23 10:13:35.0     305    -26    -95    307    322  95.0 -17.3  34170  289.75 0855.26
2009/04/23 10:13:35.1     323    -17     63    324    331  93.2  11.1  34182  289.93 0855.26
2009/04/23 10:13:35.2     395     50    -15    399    400  82.8  -2.3  34172  289.76 0855.26
2009/04/23 10:13:35.3     434     67    -21    440    441  81.2  -2.8  34172  289.78 0855.26
2009/04/23 10:13:35.4     476     66    -88    481    489  82.0 -10.4  34170  289.74 0855.26
2009/04/23 10:13:35.5     421    -35    -23    423    424  94.8  -3.1  34176  289.85 0855.26
2009/04/23 10:13:35.6     534     53     85    537    544  84.3   9.0  34184  289.99 0855.26
2009/04/23 10:13:35.7     438    -83    122    446    463 100.8  15.4  34188  290.05 0855.26
2009/04/23 10:13:35.8     356    -72     43    364    367 101.5   6.9  34182  289.93 0855.26
2009/04/23 10:13:35.9     368    -26    148    369    397  94.1  23.0  34178  289.86 0855.26
2009/04/23 10:13:36.0     156   -217    159    268    311 144.2  33.5  34184  289.98 0855.26
2009/04/23 10:13:36.1     225   -229     -2    322    323 135.5  -0.4  34168  289.71 0855.26
2009/04/23 10:13:36.2     209   -132    -54    248    254 122.4 -12.4  34170  289.73 0855.26
2009/04/23 10:13:36.3     159   -104    -42    191    196 123.3 -12.4  34168  289.70 0855.26
2009/04/23 10:13:36.4     147   -129    -43    196    201 131.3 -12.6  34170  289.74 0855.26
2009/04/23 10:13:36.6     166   -141    -56    219    227 130.4 -14.3  34172  289.79 0855.26
2009/04/23 10:13:36.6     218   -103    -43    242    246 115.4 -10.3  34168  289.70 0855.26
2009/04/23 10:13:36.7     178   -138    -45    226    231 127.7 -11.5  34168  289.72 0855.26
2009/04/23 10:13:36.8     205   -137    -82    247    260 123.7 -23.8  34168  289.71 0855.26
2009/04/23 10:13:36.9     170   -147    -62    226    235 130.9 -15.5  34170  289.75 0855.26
2009/04/23 10:13:37.0     162   -106    -38    194    198 123.3 -11.3  34168  289.72 0855.26
2009/04/23 10:13:37.1     189    -89     33    209    212 115.2   9.0  34168  289.72 0855.26
2009/04/23 10:13:37.2     179   -144     -4    230    231 128.9  -1.1  34168  289.70 0855.26
2009/04/23 10:13:37.3     110    -36     57    116    129 108.2  27.8  34166  289.69 0855.26
2009/04/23 10:13:37.4     171     46      7    178    179  74.7   2.5  34168  289.70 0855.26
2009/04/23 10:13:37.5     225     34     71    228    240  81.4  17.4  34172  289.76 0855.26
2009/04/23 10:13:37.6      60    -24    156     65    169 111.8  76.3  34182  289.96 0855.26
2009/04/23 10:13:37.8      26    -16    115     31    119 122.4  84.8  34186  290.02 0855.26
2009/04/23 10:13:37.8      41    -42     44     59     73 135.8  40.7  34184  289.99 0855.26
2009/04/23 10:13:37.9      55    -14     60     57     82 105.1  51.2  34192  290.11 0855.26
2009/04/23 10:13:38.0     130      2     70    131    148  88.7  30.8  34182  289.96 0855.26
2009/04/23 10:13:38.1     173    -64     28    185    188 110.4   8.8  34178  289.89 0855.26
2009/04/23 10:13:38.2     189   -125     -8    227    228 123.5  -2.1  34176  289.85 0855.26
2009/04/23 10:13:38.3     188   -138     27    234    236 126.4   6.7  34176  289.83 0855.26
2009/04/23 10:13:38.4     175   -145     -5    228    229 129.5  -1.3  34172  289.77 0855.26
2009/04/23 10:13:38.5     199    -87     -4    218    219 113.5  -1.3  34174  289.80 0855.26
2009/04/23 10:13:38.6     197   -163     46    256    261 129.6  10.3  34172  289.76 0855.26
2009/04/23 10:13:38.7     241   -265     43    359    362 137.7   6.9  34172  289.77 0855.26
2009/04/23 10:13:38.8     266   -275     22    383    384 135.9   3.3  34172  289.76 0855.26
2009/04/23 10:13:39.0     286   -293     90    410    420 135.7  12.4  34170  289.75 0855.26
2009/04/23 10:13:39.0     265   -259    141    371    396 134.4  22.0  34174  289.81 0855.26
2009/04/23 10:13:39.1     304   -252    132    396    418 129.6  18.5  34172  289.77 0855.26
2009/04/23 10:13:39.2     312   -196    120    369    389 122.2  18.0  34172  289.77 0855.26
2009/04/23 10:13:39.3     262    -96     97    280    297 110.2  19.2  34172  289.78 0855.26
2009/04/23 10:13:39.4     287    -30     78    289    300  96.1  15.2  34170  289.75 0855.26
2009/04/23 10:13:39.6     251    -48    164    256    304 101.0  35.6  34174  289.81 0855.26
2009/04/23 10:13:39.6     227    -35    214    230    314  99.0  47.8  34176  289.85 0855.26
2009/04/23 10:13:39.7     221     78    136    235    271  70.5  32.7  34184  289.97 0855.26
2009/04/23 10:13:39.8     120     24    143    123    188  78.6  55.4  34186  290.02 0855.26
2009/04/23 10:13:39.9     109    -14    175    110    206  97.5  64.7  34186  290.01 0855.26
2009/04/23 10:13:40.1     180      1    187    181    260  89.4  50.9  34174  289.81 0855.26
2009/04/23 10:13:40.2     197     12    164    198    257  86.3  43.8  34176  289.83 0855.26
2009/04/23 10:13:40.3     277     -3    123    278    303  90.8  25.3  34174  289.81 0855.26
2009/04/23 10:13:40.4     223    -17    128    224    257  94.4  32.3  34174  289.80 0855.26
2009/04/23 10:13:40.5     177     32    136    180    225  79.6  41.2  34180  289.91 0855.26
2009/04/23 10:13:40.6     227     47     84    232    247  78.1  19.9  34186  290.02 0855.26
2009/04/23 10:13:40.7     300     61    127    307    332  78.5  23.7  34188  290.03 0855.27
2009/04/23 10:13:40.8     260     76    107    271    291  73.6  22.8  34194  290.15 0855.27
2009/04/23 10:13:40.9     299     86     89    312    325  74.0  15.9  34192  290.10 0855.27
2009/04/23 10:13:41.0     186     62     36    197    201  71.4  10.3  34198  290.21 0855.27
2009/04/23 10:13:41.1      75    168     88    185    204  24.1  27.2  34210  290.43 0855.27
2009/04/23 10:13:41.2     140    210     91    253    270  33.8  19.9  34246  291.04 0855.27
2009/04/23 10:13:41.3     136    265      9    298    299  27.2   1.8  34212  290.46 0855.27
2009/04/23 10:13:41.4     254    166    -60    304    310  56.7 -11.2  34182  289.95 0855.27
2009/04/23 10:13:41.5     262     70     13    272    273  75.0   2.9  34180  289.92 0855.27
2009/04/23 10:13:41.6     241     80    -44    255    259  71.6  -9.8  34182  289.95 0855.27
2009/04/23 10:13:41.7     286     49    -36    291    294  80.3  -7.2  34180  289.90 0855.27
2009/04/23 10:13:41.8     296     17    -89    297    311  86.6 -16.8  34180  289.92 0855.27
2009/04/23 10:13:41.9     265     49   -134    270    301  79.4 -32.6  34186  290.00 0855.27
2009/04/23 10:13:42.0     258     50   -131    263    293  79.0 -32.6  34194  290.15 0855.27
2009/04/23 10:13:42.1     264     78   -136    276    307  73.4 -32.6  34184  289.98 0855.27
2009/04/23 10:13:42.2     340     58     16    346    347  80.2   2.8  34182  289.94 0855.27
2009/04/23 10:13:42.3     293     -4    172    294    340  90.8  33.1  34198  290.20 0855.27
2009/04/23 10:13:42.4     255    -18    182    256    314  94.1  39.1  34200  290.26 0855.27
2009/04/23 10:13:42.5       2      5    215      6    215  25.4  90.0  34208  290.40 0855.27
2009/04/23 10:13:42.6     -20   -163    215    165    271 187.1  58.7  34180  289.90 0855.27
2009/04/23 10:13:42.7      66   -180    174    192    259 159.7  47.0  34176  289.85 0855.24
2009/04/23 10:13:42.8      12   -251    145    252    290 177.1  32.7  34174  289.80 0855.24
2009/04/23 10:13:42.9     -95   -236    207    255    328 202.1  43.4  34176  289.83 0855.24
2009/04/23 10:13:43.0    -137   -243    160    280    322 209.4  32.3  34176  289.85 0855.24
2009/04/23 10:13:43.1    -115   -268     89    292    306 203.2  17.0  34172  289.78 0855.24
2009/04/23 10:13:43.2     -43   -227    158    232    280 190.9  37.6  34180  289.90 0855.24
2009/04/23 10:13:43.3     -41   -254    163    258    305 189.3  35.5  34182  289.93 0855.24
2009/04/23 10:13:43.4     -39   -242    129    246    277 189.3  29.8  34178  289.86 0855.24
2009/04/23 10:13:43.5     -55   -269    114    275    297 191.6  23.6  34176  289.85 0855.24
2009/04/23 10:13:43.6    -157   -348     59    382    387 204.3   8.8  34172  289.76 0855.24
2009/04/23 10:13:43.7    -126   -331     48    355    359 200.8   7.8  34168  289.71 0855.24
2009/04/23 10:13:43.8    -143   -274     76    310    320 207.6  13.8  34164  289.64 0855.24
2009/04/23 10:13:43.9    -100   -278     52    296    301 200.0  10.1  34166  289.66 0855.24
2009/04/23 10:13:44.0    -119   -273    -42    299    303 203.6  -8.0  34174  289.80 0855.24
2009/04/23 10:13:44.1    -103   -236    105    258    278 203.6  23.1  34172  289.78 0855.24
2009/04/23 10:13:44.2     -17   -157     78    158    176 186.2  28.0  34172  289.79 0855.24
2009/04/23 10:13:44.3      26   -190    133    192    233 172.2  37.8  34176  289.85 0855.24
2009/04/23 10:13:44.4       8   -190    134    191    233 177.5  38.4  34178  289.89 0855.24
2009/04/23 10:13:44.5       0   -159    108    160    193 180.0  37.0  34180  289.92 0855.24
2009/04/23 10:13:44.6       3    -86    133     87    158 177.8  63.6  34186  290.01 0855.24
2009/04/23 10:13:44.7     -17   -124    174    126    214 188.0  60.6  34184  289.97 0855.24
2009/04/23 10:13:44.8     -12   -108    143    109    179 186.7  59.0  34184  289.99 0855.24
2009/04/23 10:13:44.9     -58   -140    154    152    216 202.7  50.2  34194  290.14 0855.24
2009/04/23 10:13:45.0     -46   -173    153    179    235 194.9  44.9  34180  289.91 0855.24
2009/04/23 10:13:45.1    -125   -266     78    295    306 205.2  14.9  34176  289.83 0855.24
2009/04/23 10:13:45.2    -119   -171     71    209    221 215.0  18.9  34164  289.63 0855.24
2009/04/23 10:13:45.3    -133    -96     72    165    180 234.0  25.1  34168  289.72 0855.24
2009/04/23 10:13:45.4    -145    -22     57    147    157 261.2  22.3  34170  289.75 0855.24
2009/04/23 10:13:45.5    -137    117    136    181    226 310.4  40.9  34194  290.16 0855.24
2009/04/23 10:13:45.6    -130     43     72    137    154 288.4  29.8  34184  289.97 0855.24
2009/04/23 10:13:45.7     -41     -4    -11     42     44 263.9 -15.5  34188  290.04 0855.24
2009/04/23 10:13:45.8     102   -169     51    198    205 148.8  14.5  34188  290.04 0855.24
2009/04/23 10:13:45.9     -35   -217    100    220    241 189.3  26.2  34166  289.66 0855.24
2009/04/23 10:13:46.0     -44   -145     29    152    155 197.0  11.1  34166  289.67 0855.24
2009/04/23 10:13:46.1     -68   -175      0    188    189 201.4   0.2  34164  289.63 0855.24
2009/04/23 10:13:46.2     -62   -103     -2    121    122 211.2  -1.2  34168  289.72 0855.24
2009/04/23 10:13:46.3     -54    -38    -31     67     73 234.9 -31.5  34172  289.79 0855.24
2009/04/23 10:13:46.4     -57     38    -51     69     85 304.2 -44.5  34176  289.85 0855.24
2009/04/23 10:13:46.5    -106    105     73    150    166 314.9  27.4  34194  290.14 0855.24
2009/04/23 10:13:46.6     -88     10    -30     89     94 276.6 -18.7  34198  290.21 0855.24
2009/04/23 10:13:46.7    -118     -9     -2    119    120 265.6  -1.3  34198  290.23 0855.24
2009/04/23 10:13:46.8     -79     32    -80     86    117 292.2 -52.3  34196  290.19 0855.24
2009/04/23 10:13:46.9    -126     22    -53    128    138 280.1 -27.5  34204  290.31 0855.24
2009/04/23 10:13:47.0    -118   -120     -8    169    170 224.5  -2.8  34196  290.18 0855.24
2009/04/23 10:13:47.1    -188   -118   -139    223    262 237.8 -39.6  34140  289.22 0855.24
2009/04/23 10:13:47.2    -261   -136    -32    295    297 242.5  -6.2  34150  289.41 0855.24
2009/04/23 10:13:47.3    -392   -314    -22    503    504 231.3  -2.6  34160  289.56 0855.24
2009/04/23 10:13:47.4    -231   -231    -66    327    334 225.0 -11.6  34158  289.54 0855.24
2009/04/23 10:13:47.5    -217   -152    -34    266    269 235.0  -7.3  34164  289.63 0855.24
2009/04/23 10:13:47.6    -150    -50     65    159    171 251.4  23.6  34168  289.72 0855.24
2009/04/23 10:13:47.7    -243    -57    114    250    274 256.7  26.2  34172  289.78 0855.24
2009/04/23 10:13:47.8    -320     26     96    322    337 274.8  16.6  34194  290.16 0855.24
2009/04/23 10:13:47.9    -268      9     52    269    275 272.1  11.0  34206  290.34 0855.24
2009/04/23 10:13:48.0    -228      0     17    229    230 270.0   4.4  34208  290.38 0855.24
2009/04/23 10:13:48.1    -165      4     34    166    170 271.7  11.6  34220  290.58 0855.24
2009/04/23 10:13:48.2    -183    -63     37    194    198 250.9  10.8  34196  290.18 0855.24
2009/04/23 10:13:48.3    -244     14    -53    245    251 273.5 -12.4  34182  289.93 0855.24
2009/04/23 10:13:48.4    -196     57     53    205    212 286.4  14.7  34186  290.02 0855.24
2009/04/23 10:13:48.5    -234     83     35    249    252 289.7   8.0  34220  290.58 0855.24
2009/04/23 10:13:48.6    -345     30    -44    347    350 275.0  -7.4  34184  289.98 0855.24
2009/04/23 10:13:48.7    -342    -16      2    343    344 267.2   0.5  34172  289.77 0855.23
2009/04/23 10:13:48.8    -312    -49     -8    316    317 261.0  -1.6  34182  289.93 0855.23
2009/04/23 10:13:48.9    -198    -66     11    209    210 251.6   3.1  34182  289.96 0855.23
2009/04/23 10:13:49.0    -274      8     25    275    277 271.7   5.2  34182  289.93 0855.23
2009/04/23 10:13:49.1    -276     84     18    289    290 286.9   3.6  34166  289.68 0855.23
2009/04/23 10:13:49.2    -381     94    -62    393    398 283.9  -9.0  34164  289.65 0855.23
2009/04/23 10:13:49.3    -333    167     49    373    377 296.6   7.6  34166  289.67 0855.23
2009/04/23 10:13:49.4    -296    -13    101    297    314 267.4  18.9  34166  289.66 0855.23
2009/04/23 10:13:49.5    -202   -110     -5    231    232 241.4  -1.3  34162  289.62 0855.23
2009/04/23 10:13:49.6    -324    -36    -77    327    336 263.6 -13.3  34164  289.64 0855.23
2009/04/23 10:13:49.7    -223   -151     32    270    272 235.8   6.9  34160  289.58 0855.23
2009/04/23 10:13:49.8    -177   -161     25    240    242 227.8   6.1  34158  289.54 0855.23
2009/04/23 10:13:49.9    -166   -217    100    274    291 217.4  20.9  34158  289.53 0855.23
2009/04/23 10:13:50.0    -149   -242    168    285    330 211.6  33.5  34156  289.51 0855.23
2009/04/23 10:13:50.1    -141   -202    129    247    278 215.0  29.8  34156  289.49 0855.23
2009/04/23 10:13:50.2    -142   -192    100    240    260 216.5  24.1  34156  289.49 0855.23
2009/04/23 10:13:50.3    -162   -164    100    231    251 224.5  24.9  34170  289.73 0855.23
2009/04/23 10:13:50.4    -183    -73     -4    198    199 248.3  -1.3  34170  289.75 0855.23
2009/04/23 10:13:50.5    -196    -62    -42    206    211 252.3 -11.6  34178  289.87 0855.23
2009/04/23 10:13:50.6    -198      5    -39    199    203 271.7 -11.3  34174  289.82 0855.23
2009/04/23 10:13:50.7    -294     32     23    296    297 276.2   4.6  34176  289.85 0855.23
2009/04/23 10:13:50.8    -403     60   -124    408    427 278.5 -16.9  34130  289.07 0855.23
2009/04/23 10:13:50.9    -419     45   -154    422    449 276.2 -25.4  34146  289.34 0855.23
2009/04/23 10:13:51.0    -403    -23   -141    404    429 266.7 -19.3  34162  289.60 0855.23
2009/04/23 10:13:51.1    -359    -98   -125    373    393 254.7 -23.6  34154  289.48 0855.23
2009/04/23 10:13:51.2    -278   -121   -102    304    321 246.4 -18.7  34166  289.68 0855.23
2009/04/23 10:13:51.3    -271   -107    -81    292    303 248.3 -20.0  34174  289.80 0855.23
2009/04/23 10:13:51.4    -288    -93    -43    303    307 252.1  -8.2  34188  290.05 0855.23
2009/04/23 10:13:51.5    -318   -153    -44    354    357 244.3  -7.2  34198  290.20 0855.23
2009/04/23 10:13:51.6    -238   -209    -21    318    319 228.7  -3.9  34166  289.66 0855.23
2009/04/23 10:13:51.7    -146   -254      5    294    295 209.9   1.0  34156  289.49 0855.23
2009/04/23 10:13:51.8    -105   -222     12    246    247 205.3   2.9  34156  289.49 0855.23
2009/04/23 10:13:51.9    -112   -176     49    209    215 212.6  13.2  34160  289.58 0855.23
2009/04/23 10:13:52.0    -135   -133     29    190    193 225.4   8.8  34164  289.65 0855.23
2009/04/23 10:13:52.1     -94   -160     53    186    194 210.7  16.0  34158  289.55 0855.23
2009/04/23 10:13:52.2     -62   -167     75    179    194 200.3  23.8  34158  289.55 0855.23
2009/04/23 10:13:52.3    -137   -165     64    215    225 219.6  16.6  34158  289.53 0855.23
2009/04/23 10:13:52.4     -63   -189     62    200    210 198.5  17.3  34156  289.50 0855.23
2009/04/23 10:13:52.5     -30   -176    112    179    211 189.8  35.2  34164  289.65 0855.23
2009/04/23 10:13:52.6       9    -93    161     94    186 174.2  67.5  34192  290.11 0855.23
2009/04/23 10:13:52.7     -66    -64     83     93    124 226.0  46.4  34180  289.92 0855.24
2009/04/23 10:13:52.8    -206   -115     47    237    242 240.7  11.4  34160  289.56 0855.24
2009/04/23 10:13:52.9    -218     -8     92    219    237 267.9  24.1  34154  289.46 0855.24
2009/04/23 10:13:53.0    -304   -165     77    347    356 241.5  12.5  34152  289.43 0855.24
2009/04/23 10:13:53.1    -374   -147    -31    402    404 248.5  -4.5  34164  289.63 0855.24
2009/04/23 10:13:53.2    -405   -152    -16    433    434 249.4  -2.2  34174  289.82 0855.24
2009/04/23 10:13:53.3    -383    -96     72    395    402 255.8  10.4  34198  290.20 0855.24
2009/04/23 10:13:53.4    -283   -192    129    343    366 235.8  21.6  34168  289.71 0855.24
2009/04/23 10:13:53.5    -248   -246    168    350    388 225.2  27.3  34150  289.40 0855.24
2009/04/23 10:13:53.6    -299   -246    195    388    434 230.6  28.7  34140  289.24 0855.24
2009/04/23 10:13:53.7    -398   -176    112    436    451 246.1  14.4  34194  290.16 0855.24
2009/04/23 10:13:53.8    -410   -209    167    461    491 243.0  19.9  34182  289.93 0855.24
2009/04/23 10:13:53.9    -297   -146    230    331    403 243.8  38.4  34178  289.86 0855.24
2009/04/23 10:13:54.0    -195   -216    221    292    366 222.1  40.9  34146  289.33 0855.24
2009/04/23 10:13:54.1    -205   -181    233    274    359 228.6  44.8  34148  289.37 0855.24
2009/04/23 10:13:54.2    -190   -192    198    271    335 224.8  39.7  34174  289.80 0855.24
2009/04/23 10:13:54.3    -314   -113    172    334    375 250.2  29.4  34162  289.59 0855.24
2009/04/23 10:13:54.4    -317    -36    173    320    363 263.4  30.7  34152  289.45 0855.24
2009/04/23 10:13:54.5    -293   -106    108    312    331 250.0  19.2  34142  289.27 0855.24
2009/04/23 10:13:54.6    -209   -145    190    255    318 235.1  40.4  34156  289.51 0855.24
2009/04/23 10:13:54.7    -190    -87    177    210    274 245.4  44.5  34158  289.54 0855.24
2009/04/23 10:13:54.8     -15    -32    121     36    126 205.5  82.8  34162  289.62 0855.24
2009/04/23 10:13:54.9     -87   -124    168    152    226 215.2  53.3  34190  290.08 0855.24
2009/04/23 10:13:55.0    -211    -67    149    222    267 252.3  37.0  34178  289.86 0855.24
2009/04/23 10:13:55.1     -82    -69    180    108    209 229.6  66.4  34184  289.97 0855.24
2009/04/23 10:13:55.2      13     21    153     25    155  32.5  90.0  34186  290.01 0855.24
2009/04/23 10:13:55.3      37      2    146     38    150  85.6  84.9  34180  289.91 0855.24
2009/04/23 10:13:55.4     -88     46    130    100    164 297.5  58.7  34172  289.79 0855.24
2009/04/23 10:13:55.5    -123     75     61    145    157 301.5  24.1  34170  289.74 0855.24
2009/04/23 10:13:55.6    -147     93     21    175    177 302.5   6.9  34158  289.55 0855.24
2009/04/23 10:13:55.7    -138     45     57    146    156 288.2  22.5  34158  289.55 0855.24
2009/04/23 10:13:55.8     -12    109     62    110    126 353.3  31.9  34154  289.46 0855.24
2009/04/23 10:13:55.9       2    183     82    184    201   0.7  25.3  34172  289.77 0855.24
2009/04/23 10:13:56.0      72    151     58    168    178  25.5  19.2  34178  289.87 0855.24
2009/04/23 10:13:56.1      39    211     -4    215    216  10.5  -1.1  34160  289.57 0855.24
2009/04/23 10:13:56.2     -15    201     17    202    203 355.5   4.9  34162  289.62 0855.24
2009/04/23 10:13:56.3       0    231     59    232    240 359.8  14.3  34166  289.66 0855.24
2009/04/23 10:13:56.4     -42    207     45    212    217 348.4  12.2  34164  289.65 0855.24
2009/04/23 10:13:56.5     -64    173     28    185    188 339.7   8.8  34162  289.60 0855.24
2009/04/23 10:13:56.6     -26    198     -6    200    201 352.4  -1.8  34162  289.62 0855.24
2009/04/23 10:13:56.7     -53    130    -18    141    143 337.7  -7.3  34160  289.58 0855.25
2009/04/23 10:13:56.8     -33    101    -28    107    111 341.7 -15.0  34160  289.58 0855.25
2009/04/23 10:13:56.9     -32    105    -32    110    114 343.1 -21.7  34158  289.53 0855.25
2009/04/23 10:13:57.0     -31     94    -29    100    104 341.7 -21.2  34160  289.57 0855.25
2009/04/23 10:13:57.1      46    115    -54    124    135  21.8 -29.5  34162  289.62 0855.25
2009/04/23 10:13:57.2      -6     81    -37     82     89 355.5 -30.6  34162  289.60 0855.25
2009/04/23 10:13:57.3     -11    179    -18    180    182 356.4  -6.0  34168  289.72 0855.25
2009/04/23 10:13:57.4     -12    184    -26    185    187 356.2  -8.0  34180  289.92 0855.25
2009/04/23 10:13:57.5     -62    187    -54    198    206 341.5 -15.4  34182  289.96 0855.25
2009/04/23 10:13:57.6    -163    191    -24    252    254 319.5  -5.6  34166  289.66 0855.25
2009/04/23 10:13:57.7    -122    233    -30    264    266 332.4  -6.5  34180  289.92 0855.25
2009/04/23 10:13:57.8    -115    189    -29    222    224 328.6  -7.5  34184  289.99 0855.25
2009/04/23 10:13:57.9    -119    204    -74    237    249 329.7 -17.3  34176  289.83 0855.25
2009/04/23 10:13:58.0     -89    157    -71    181    194 330.4 -26.9  34176  289.84 0855.25
2009/04/23 10:13:58.1    -143     47    -35    151    156 288.4 -13.2  34172  289.79 0855.25
2009/04/23 10:13:58.2    -182     32      9    185    186 280.1   2.9  34168  289.70 0855.25
2009/04/23 10:13:58.3    -186     16    -26    187    189 275.0  -8.0  34168  289.70 0855.25
2009/04/23 10:13:58.4    -145    -11    -39    146    152 265.7 -15.2  34168  289.72 0855.25
2009/04/23 10:13:58.5    -170      8    -67    171    183 272.8 -26.9  34158  289.55 0855.25
2009/04/23 10:13:58.6    -180     12    -91    181    202 273.9 -33.5  34160  289.58 0855.25
2009/04/23 10:13:58.7    -127     38    -95    133    163 286.8 -43.5  34174  289.82 0855.25
2009/04/23 10:13:58.8    -147     37    -72    152    168 284.2 -31.6  34166  289.69 0855.25
2009/04/23 10:13:58.9    -126      3     -7    127    128 271.7  -3.2  34166  289.69 0855.25
2009/04/23 10:13:59.0    -123    -18     -2    125    126 261.6  -1.3  34174  289.80 0855.25
2009/04/23 10:13:59.1    -124     15     34    125    130 277.0  15.3  34180  289.92 0855.25
2009/04/23 10:13:59.2    -108     23     38    111    118 282.4  18.9  34184  289.99 0855.25
2009/04/23 10:13:59.3     -63     -8     60     64     87 262.1  49.0  34178  289.87 0855.25
2009/04/23 10:13:59.4     -39    -93    104    101    144 202.7  50.2  34164  289.65 0855.25
2009/04/23 10:13:59.5     -65   -105     72    124    143 211.6  33.4  34160  289.57 0855.25
2009/04/23 10:13:59.6     -69   -138     65    155    168 206.7  24.1  34154  289.48 0855.25
2009/04/23 10:13:59.7     -60   -181     79    191    206 198.5  23.8  34152  289.43 0855.25
2009/04/23 10:13:59.8     -58   -180     71    190    202 197.8  21.0  34156  289.52 0855.25
2009/04/23 10:13:59.9     -64   -188    103    199    224 198.9  29.5  34158  289.55 0855.25
2009/04/23 10:14:00.0    -105   -186    117    214    243 209.6  31.3  34166  289.66 0855.25
2009/04/23 10:14:00.1    -120   -189     79    225    238 212.5  20.0  34196  290.19 0855.25
2009/04/23 10:14:00.2    -154   -187     38    243    247 219.4   8.9  34220  290.58 0855.25
2009/04/23 10:14:00.3    -196   -162     42    255    259 230.4   9.5  34208  290.39 0855.25
2009/04/23 10:14:00.4    -125   -151     89    197    216 219.7  25.9  34182  289.96 0855.25
2009/04/23 10:14:00.5    -136   -100     91    169    191 233.6  31.0  34204  290.31 0855.25
2009/04/23 10:14:00.6    -259   -135    -21    293    294 242.5  -4.1  34250  291.10 0855.25
2009/04/23 10:14:00.7    -284   -110    -84    305    317 248.7 -15.5  34208  290.37 0855.25
2009/04/23 10:14:00.8    -293   -223    -20    369    370 232.7  -3.2  34214  290.49 0855.25
2009/04/23 10:14:00.9    -257   -252    -65    361    367 225.6 -10.2  34188  290.06 0855.25
2009/04/23 10:14:01.0     -99   -282    -49    300    305 199.4  -9.4  34200  290.26 0855.25
2009/04/23 10:14:01.1      19   -333    -17    334    335 176.6  -3.0  34166  289.67 0855.25
2009/04/23 10:14:01.2     -17   -301    -56    302    308 183.4 -10.5  34180  289.90 0855.25
2009/04/23 10:14:01.3     -23   -301     16    302    303 184.5   3.1  34210  290.41 0855.25
2009/04/23 10:14:01.4      -8   -338     -3    339    340 181.4  -0.6  34184  289.99 0855.25
2009/04/23 10:14:01.5    -106   -275     87    296    309 201.2  16.5  34192  290.10 0855.25
2009/04/23 10:14:01.6     -51   -272    104    277    295 190.7  21.5  34182  289.93 0855.25
2009/04/23 10:14:01.7      12   -232     52    233    239 176.9  12.6  34166  289.66 0855.25
2009/04/23 10:14:01.8       9   -317     74    318    327 178.2  13.2  34160  289.56 0855.25
2009/04/23 10:14:01.9      16   -330     90    331    344 177.2  15.3  34164  289.65 0855.25
2009/04/23 10:14:02.0      30   -312    103    314    331 174.4  18.1  34164  289.64 0855.25
2009/04/23 10:14:02.1     -31   -248    158    251    296 187.3  35.5  34160  289.58 0855.25
2009/04/23 10:14:02.2     -36   -154    137    159    209 193.4  45.4  34164  289.63 0855.25
2009/04/23 10:14:02.3     -53   -162     98    171    197 198.3  32.4  34162  289.62 0855.25
2009/04/23 10:14:02.4     -48   -213     81    219    233 192.9  21.0  34162  289.62 0855.25
2009/04/23 10:14:02.5     -71   -266    107    276    296 195.1  22.5  34160  289.56 0855.25
2009/04/23 10:14:02.6     -31   -287     45    289    293 186.3   8.9  34164  289.63 0855.25
2009/04/23 10:14:02.7     -64   -287     51    295    300 192.7   9.9  34154  289.47 0855.25
2009/04/23 10:14:02.8     -58   -330     79    336    346 190.1  13.2  34158  289.55 0855.25
2009/04/23 10:14:02.9    -100   -349     66    364    370 196.1  10.3  34158  289.55 0855.25
2009/04/23 10:14:03.0     -98   -284     98    301    317 199.1  18.1  34156  289.51 0855.25
2009/04/23 10:14:03.1    -122   -236     62    266    274 207.4  13.2  34156  289.51 0855.25
2009/04/23 10:14:03.2    -145   -271     36    308    311 208.1   6.7  34156  289.51 0855.25
2009/04/23 10:14:03.3     -88   -267     99    282    300 198.3  19.4  34156  289.49 0855.25
2009/04/23 10:14:03.4     -86   -266     87    280    294 198.0  17.3  34162  289.59 0855.25
2009/04/23 10:14:03.5    -143   -325     86    356    367 203.7  13.7  34162  289.60 0855.25
2009/04/23 10:14:03.6    -175   -349     39    391    394 206.7   5.8  34162  289.62 0855.25
2009/04/23 10:14:03.7    -148   -331     75    363    371 204.2  11.8  34158  289.54 0855.24
2009/04/23 10:14:03.8    -129   -309     73    336    344 202.7  12.3  34154  289.48 0855.24
2009/04/23 10:14:03.9    -134   -336     29    362    364 201.8   4.7  34156  289.50 0855.24
2009/04/23 10:14:04.0    -114   -250     18    275    276 204.5   3.8  34154  289.47 0855.24
2009/04/23 10:14:04.1    -116   -210     51    241    247 209.0  12.0  34152  289.44 0855.24
2009/04/23 10:14:04.2    -142   -216    -25    259    261 213.4  -5.6  34152  289.42 0855.24
2009/04/23 10:14:04.3    -181   -240     -6    301    302 217.0  -1.2  34152  289.42 0855.24
2009/04/23 10:14:04.4    -175   -268     42    321    324 213.1   7.6  34152  289.42 0855.24
2009/04/23 10:14:04.5    -182   -248     60    308    314 216.3  11.1  34152  289.44 0855.24
2009/04/23 10:14:04.6    -199   -240     70    312    320 219.7  12.8  34150  289.39 0855.24
2009/04/23 10:14:04.7    -204   -238     67    314    322 220.5  12.1  34148  289.37 0855.24
2009/04/23 10:14:04.8    -225   -195     53    298    303 229.1  10.1  34150  289.41 0855.24
2009/04/23 10:14:04.9    -128   -202     95    240    258 212.5  23.0  34152  289.42 0855.24
2009/04/23 10:14:05.0    -193   -200     80    279    291 223.9  16.0  34150  289.41 0855.24
2009/04/23 10:14:05.1    -209   -261     48    335    339 218.7   8.2  34148  289.38 0855.24
2009/04/23 10:14:05.2    -258   -273    -20    376    377 223.4  -3.2  34152  289.45 0855.24
2009/04/23 10:14:05.3    -246   -256     -7    356    357 223.8  -1.2  34152  289.42 0855.24
2009/04/23 10:14:05.4    -284   -141     95    318    333 243.6  16.7  34146  289.32 0855.24
2009/04/23 10:14:05.5    -159   -132     67    207    218 230.2  17.9  34148  289.36 0855.24
2009/04/23 10:14:05.6    -326   -256     42    415    418 231.8   5.9  34148  289.36 0855.24
2009/04/23 10:14:05.7    -262   -153    -68    304    312 239.6 -12.6  34134  289.14 0855.24
2009/04/23 10:14:05.9    -253   -178    -22    310    311 234.9  -4.1  34138  289.19 0855.24
2009/04/23 10:14:05.9    -253   -151     -2    295    296 239.1  -0.5  34146  289.34 0855.24
2009/04/23 10:14:06.1    -226    -53     20    233    234 256.7   5.0  34154  289.46 0855.24
2009/04/23 10:14:06.2    -101   -120     62    157    168 220.1  22.5  34156  289.50 0855.24
2009/04/23 10:14:06.2    -166    -75    -65    183    195 245.6 -19.7  34150  289.41 0855.24
2009/04/23 10:14:06.4    -121   -121    102    172    199 224.9  33.5  34156  289.52 0855.24
2009/04/23 10:14:06.5    -175   -158    184    236    299 228.0  41.7  34154  289.46 0855.24
2009/04/23 10:14:06.6    -110   -173    200    206    287 212.5  49.2  34156  289.51 0855.24
2009/04/23 10:14:06.7     -90    -59    155    108    188 236.7  61.8  34164  289.63 0855.24
2009/04/23 10:14:06.8     -43   -131    137    139    195 198.3  50.0  34156  289.50 0855.24
2009/04/23 10:14:06.9     -54   -185    132    193    233 196.3  37.6  34150  289.41 0855.24
2009/04/23 10:14:07.0     -49   -136    135    145    198 200.0  47.9  34154  289.46 0855.24
2009/04/23 10:14:07.1     -97   -117    133    153    202 219.6  45.8  34154  289.48 0855.24
2009/04/23 10:14:07.2    -144    -91    154    171    230 237.6  46.6  34156  289.50 0855.24
2009/04/23 10:14:07.3    -107    -83     76    136    155 232.3  31.4  34154  289.48 0855.24
2009/04/23 10:14:07.4      -3    -58     37     59     69 183.6  35.5  34160  289.57 0855.24
2009/04/23 10:14:07.5      54    -72     20     91     94 143.0  12.6  34158  289.53 0855.24
2009/04/23 10:14:07.6     114    -83     31    142    146 126.0  12.6  34154  289.48 0855.24
2009/04/23 10:14:07.7     114    -28     46    118    126 104.2  22.0  34152  289.45 0855.24
2009/04/23 10:14:07.8      41    -34     65     54     84 129.5  56.4  34154  289.48 0855.24
2009/04/23 10:14:07.9     -37    -83     91     92    129 204.1  50.0  34160  289.57 0855.24
2009/04/23 10:14:08.0    -108    -68     62    128    142 237.6  27.3  34156  289.50 0855.24
2009/04/23 10:14:08.1     -74   -129     95    149    176 209.9  35.6  34150  289.40 0855.24
2009/04/23 10:14:08.2     -38   -188     72    192    205 191.5  21.0  34150  289.41 0855.24
2009/04/23 10:14:08.3     -54   -268     74    274    284 191.6  15.2  34146  289.32 0855.24
2009/04/23 10:14:08.4    -213   -212     59    301    307 225.1  11.1  34150  289.41 0855.24
2009/04/23 10:14:08.5    -262   -155     -8    305    306 239.4  -1.6  34142  289.27 0855.24
2009/04/23 10:14:08.6    -208    -90    -20    227    228 246.5  -5.1  34140  289.24 0855.24
2009/04/23 10:14:08.7    -205   -110    -78    233    246 241.8 -18.6  34146  289.32 0855.24
2009/04/23 10:14:08.8     -16   -113    -12    115    116 188.5  -6.2  34146  289.35 0855.24
2009/04/23 10:14:08.9      80    -76     98    111    148 133.6  45.9  34160  289.57 0855.24
2009/04/23 10:14:09.0     105    -84     65    135    149 128.6  27.3  34152  289.43 0855.24
2009/04/23 10:14:09.1      -3   -187     88    188    207 181.0  27.1  34152  289.43 0855.24
2009/04/23 10:14:09.2      64   -171     80    183    199 159.3  25.1  34148  289.36 0855.24
2009/04/23 10:14:09.3     -11   -174     85    175    194 183.8  27.4  34150  289.40 0855.24
2009/04/23 10:14:09.4     -62   -188     37    198    202 198.3  10.6  34150  289.40 0855.24
2009/04/23 10:14:09.5     -28   -168     58    171    181 189.6  18.9  34150  289.41 0855.24
2009/04/23 10:14:09.6     -77   -181     15    197    198 203.2   4.4  34152  289.43 0855.24
2009/04/23 10:14:09.7     -31   -162     18    166    168 190.9   6.5  34152  289.45 0855.24
2009/04/23 10:14:09.8     -23   -116     32    119    124 191.5  15.2  34150  289.40 0855.24
2009/04/23 10:14:09.9     -41   -106    -28    114    118 201.4 -13.9  34146  289.33 0855.24
2009/04/23 10:14:10.0     -25   -105     13    109    110 193.8   6.9  34152  289.43 0855.24
2009/04/23 10:14:10.1     -27   -104      4    108    109 194.7   2.3  34156  289.50 0855.24
2009/04/23 10:14:10.2     -53    -92    -30    107    112 209.9 -16.0  34152  289.43 0855.24
2009/04/23 10:14:10.3      -7    -94    -49     95    106 184.5 -34.2  34154  289.46 0855.24
2009/04/23 10:14:10.4      16   -161    -17    162    163 174.2  -6.2  34152  289.43 0855.24
2009/04/23 10:14:10.5      29   -190    -23    193    195 171.3  -6.9  34152  289.45 0855.24
2009/04/23 10:14:10.6      25   -164    -45    167    174 171.1 -15.2  34152  289.45 0855.24
2009/04/23 10:14:10.7      53    -92      0    107    108 149.7   0.2  34152  289.43 0855.24
2009/04/23 10:14:10.8      60    -61    -24     86     89 135.5 -20.7  34150  289.41 0855.24
2009/04/23 10:14:10.9      32   -101    -13    107    108 162.2  -7.3  34152  289.43 0855.24
2009/04/23 10:14:11.0     -12   -102     28    103    107 186.7  15.2  34154  289.46 0855.24
2009/04/23 10:14:11.1       0   -125     17    126    128 180.0   8.0  34154  289.48 0855.24
2009/04/23 10:14:11.2       7   -108     79    109    134 176.0  39.7  34154  289.48 0855.24
2009/04/23 10:14:11.3     -21   -141     53    143    152 188.5  21.0  34152  289.43 0855.24
2009/04/23 10:14:11.4     -61   -129     36    143    148 205.4  14.3  34152  289.43 0855.24
2009/04/23 10:14:11.5     -53   -157     -6    166    167 198.9  -2.2  34150  289.41 0855.24
2009/04/23 10:14:11.6       2   -175     66    176    187 179.3  21.5  34150  289.40 0855.24
2009/04/23 10:14:11.7       7   -182     83    183    200 177.5  25.9  34148  289.38 0855.24
2009/04/23 10:14:11.8      -1    -94    141     95    170 180.9  62.8  34160  289.57 0855.24
2009/04/23 10:14:11.9     -44    -91    113    102    152 205.9  53.3  34156  289.50 0855.24
2009/04/23 10:14:12.0     -45    -45     95     64    114 225.0  63.6  34156  289.52 0855.24
2009/04/23 10:14:12.1      16    -12     75     21     77 126.0  83.9  34172  289.77 0855.24
2009/04/23 10:14:12.2      -2    -54    122     55    133 182.7  74.5  34164  289.63 0855.24
2009/04/23 10:14:12.3     -91    -43     73    101    124 244.7  39.5  34152  289.45 0855.24
2009/04/23 10:14:12.4    -100     39     69    108    128 291.7  35.5  34154  289.46 0855.24
2009/04/23 10:14:12.5     -56     18      7     59     60 288.2   6.9  34154  289.46 0855.24
2009/04/23 10:14:12.6      37     37     77     53     93  45.0  62.6  34154  289.48 0855.24
2009/04/23 10:14:12.7      42    -16     75     46     87 111.7  65.1  34166  289.67 0855.24
2009/04/23 10:14:12.8    -105    -93    131    141    192 228.7  47.9  34156  289.52 0855.24
2009/04/23 10:14:12.9    -111   -110    139    157    209 225.1  45.9  34150  289.40 0855.24
2009/04/23 10:14:13.0    -189    -79    130    206    243 247.2  35.5  34168  289.70 0855.24
2009/04/23 10:14:13.1    -253   -114    118    278    302 245.6  24.2  34176  289.83 0855.24
2009/04/23 10:14:13.2    -285   -182    111    339    357 237.5  18.2  34174  289.81 0855.24
2009/04/23 10:14:13.3    -174   -175     50    247    253 224.8  11.6  34140  289.24 0855.24
2009/04/23 10:14:13.4    -119   -183     47    219    225 213.0  12.2  34136  289.16 0855.24
2009/04/23 10:14:13.5     -88   -209    123    227    258 202.9  31.0  34144  289.31 0855.24
2009/04/23 10:14:13.6     -15   -138    131    139    191 186.2  48.2  34144  289.31 0855.24
2009/04/23 10:14:13.7      16    -97    108     99    146 170.2  52.2  34146  289.35 0855.24
2009/04/23 10:14:13.8      62     12     97     64    116  78.6  64.6  34164  289.65 0855.25
2009/04/23 10:14:13.9     -25     26     98     37    104 316.6  79.2  34162  289.62 0855.25
2009/04/23 10:14:14.0       7    -38    123     39    129 168.4  81.2  34166  289.69 0855.25
2009/04/23 10:14:14.1     -13   -121    133    122    180 186.2  52.7  34162  289.60 0855.25
2009/04/23 10:14:14.2     -39   -148    174    154    232 194.7  54.0  34156  289.50 0855.25
2009/04/23 10:14:14.3     -56   -231    136    238    274 193.8  32.3  34154  289.46 0855.25
2009/04/23 10:14:14.4     -26   -208    140    210    252 187.3  36.5  34160  289.56 0855.25
2009/04/23 10:14:14.5     -75   -142     35    161    165 207.9  12.4  34160  289.57 0855.25
2009/04/23 10:14:14.6    -153   -153      8    217    218 225.1   2.1  34156  289.50 0855.25
2009/04/23 10:14:14.7    -145   -123     28    191    194 229.8   8.5  34160  289.58 0855.25
2009/04/23 10:14:14.8    -168   -231    134    286    315 216.1  26.9  34160  289.58 0855.25
2009/04/23 10:14:14.9    -206   -219     76    301    311 223.3  14.3  34182  289.93 0855.25
2009/04/23 10:14:15.0    -212   -159     37    265    268 233.1   8.0  34204  290.31 0855.25
2009/04/23 10:14:15.1    -211   -164     88    268    283 232.2  18.1  34202  290.29 0855.25
2009/04/23 10:14:15.2    -172   -144     82    225    239 230.2  20.9  34178  289.86 0855.25
2009/04/23 10:14:15.3    -167   -232    139    287    318 215.8  27.8  34182  289.93 0855.25
2009/04/23 10:14:15.4    -260   -162     58    307    313 238.0  10.7  34186  290.02 0855.25
2009/04/23 10:14:15.5    -176   -192    151    261    301 222.4  32.9  34170  289.73 0855.25
2009/04/23 10:14:15.6    -139   -204    123    248    276 214.3  28.2  34152  289.42 0855.25
2009/04/23 10:14:15.7    -169   -180     67    247    257 223.2  15.3  34154  289.46 0855.25
2009/04/23 10:14:15.8    -119   -130    -12    177    178 222.5  -4.1  34166  289.69 0855.27
2009/04/23 10:14:15.9    -228    -88     29    245    247 248.9   6.9  34172  289.78 0855.27
2009/04/23 10:14:16.0    -333    -88     16    345    346 255.1   2.8  34196  290.18 0855.27
2009/04/23 10:14:16.1    -367   -117    -54    386    390 252.3  -8.0  34164  289.65 0855.27
2009/04/23 10:14:16.2    -357   -153     -6    389    390 246.7  -0.9  34172  289.79 0855.27
2009/04/23 10:14:16.3    -431   -193     19    473    474 245.8   2.3  34156  289.50 0855.27
2009/04/23 10:14:16.4    -330    -89    -15    342    343 254.8  -2.6  34152  289.43 0855.27
2009/04/23 10:14:16.5    -363    -10    -43    364    367 268.3  -6.9  34158  289.55 0855.27
2009/04/23 10:14:16.6    -401    -17     65    402    408 267.5   9.2  34184  289.97 0855.27
2009/04/23 10:14:16.7    -279     35     66    282    290 277.2  13.2  34158  289.53 0855.27
2009/04/23 10:14:16.8    -253   -141    110    290    310 240.9  21.7  34186  290.00 0855.27
2009/04/23 10:14:16.9    -306   -177    124    354    376 239.9  19.3  34218  290.54 0855.27
2009/04/23 10:14:17.0    -317   -141    115    347    366 246.0  18.5  34194  290.16 0855.27
2009/04/23 10:14:17.1    -298   -141    144    330    360 244.6  25.1  34146  289.32 0855.27
2009/04/23 10:14:17.2    -254   -117    147    280    316 245.2  30.0  34154  289.47 0855.27
2009/04/23 10:14:17.3    -257    -85    103    271    289 251.6  21.7  34168  289.71 0855.27
2009/04/23 10:14:17.4    -309   -171    105    354    370 241.0  16.6  34168  289.71 0855.27
2009/04/23 10:14:17.5    -163   -197     86    257    272 219.6  18.6  34156  289.51 0855.27
2009/04/23 10:14:17.6     -68   -217    107    228    251 197.4  27.1  34154  289.47 0855.27
2009/04/23 10:14:17.7     -55   -216     68    223    234 194.3  17.1  34154  289.48 0855.27
2009/04/23 10:14:17.8    -144    -66     -1    159    160 245.2  -0.5  34172  289.79 0855.27
2009/04/23 10:14:17.9    -262     52    -28    268    270 281.4  -6.0  34170  289.73 0855.27
2009/04/23 10:14:18.0    -307     22    -60    308    314 274.3 -11.1  34162  289.59 0855.27
2009/04/23 10:14:18.1    -322    -74   -104    331    346 257.0 -22.6  34168  289.71 0855.27
2009/04/23 10:14:18.2    -340    -56   -113    345    363 260.6 -23.6  34192  290.11 0855.27
2009/04/23 10:14:18.3    -333    -33   -128    335    358 264.3 -26.2  34190  290.08 0855.27
2009/04/23 10:14:18.4    -280   -142    -17    315    316 243.0  -3.1  34170  289.75 0855.27
2009/04/23 10:14:18.5    -330    -93      1    344    345 254.2   0.2  34158  289.54 0855.27
2009/04/23 10:14:18.6    -283   -103     12    302    303 250.0   2.3  34152  289.44 0855.27
2009/04/23 10:14:18.7    -218   -102     33    241    244 244.8   8.0  34150  289.41 0855.27
2009/04/23 10:14:18.8    -204   -123     35    239    242 238.9   8.5  34166  289.68 0855.27
2009/04/23 10:14:18.9    -206   -157     56    259    266 232.7  12.2  34178  289.88 0855.27
2009/04/23 10:14:19.0    -208    -23    -12    210    211 263.6  -3.3  34174  289.80 0855.27
2009/04/23 10:14:19.1    -163     28    -36    166    171 279.9 -12.4  34174  289.80 0855.27
2009/04/23 10:14:19.2    -218    -45    -90    223    240 258.1 -27.5  34180  289.92 0855.27
2009/04/23 10:14:19.3    -125    -29    -59    129    141 256.7 -31.0  34182  289.94 0855.27
2009/04/23 10:14:19.4    -151    -45    -30    158    161 253.1 -10.9  34194  290.16 0855.27
2009/04/23 10:14:19.5    -160    -20    -25    162    165 262.8  -9.0  34196  290.19 0855.27
2009/04/23 10:14:19.6    -198     -5    -71    199    212 268.3 -19.6  34164  289.63 0855.27
2009/04/23 10:14:19.7    -158    -34    -19    162    164 257.6  -6.9  34164  289.65 0855.27
2009/04/23 10:14:19.8     -95    -31    -24    100    104 251.8 -13.9  34174  289.80 0855.28
2009/04/23 10:14:19.9    -138      4    -51    139    148 271.7 -25.4  34166  289.67 0855.28
2009/04/23 10:14:20.0    -231    -46    -72    236    246 258.6 -21.8  34154  289.46 0855.28
2009/04/23 10:14:20.1    -118    -48   -122    128    176 247.8 -52.9  34164  289.63 0855.28
2009/04/23 10:14:20.2     -76    -47    -69     90    113 238.0 -46.1  34172  289.77 0855.28
2009/04/23 10:14:20.3     -79   -109    -57    135    146 216.1 -28.5  34178  289.87 0855.28
2009/04/23 10:14:20.4    -114   -156    -44    194    200 216.1 -12.9  34172  289.79 0855.28
2009/04/23 10:14:20.5     -85   -172    -38    192    196 206.3 -11.3  34168  289.72 0855.28
2009/04/23 10:14:20.6     -94   -151     -9    178    179 211.9  -3.1  34166  289.67 0855.28
2009/04/23 10:14:20.7     -99   -160    -22    189    191 211.9  -6.9  34162  289.62 0855.28
2009/04/23 10:14:20.8     -88   -147    -27    172    175 211.0  -9.0  34162  289.62 0855.28
2009/04/23 10:14:20.9    -119   -190    -62    225    234 212.1 -15.5  34158  289.53 0855.28
2009/04/23 10:14:21.0    -103   -218    -23    242    244 205.4  -5.6  34164  289.63 0855.28
2009/04/23 10:14:21.1    -174   -170     -4    244    245 225.8  -1.2  34170  289.75 0855.28
2009/04/23 10:14:21.2    -162   -152    -58    223    231 226.9 -14.7  34154  289.48 0855.28
2009/04/23 10:14:21.3    -155    -16     21    156    158 263.9   7.8  34174  289.80 0855.28
2009/04/23 10:14:21.4    -228    -93    -77    247    258 247.8 -22.5  34172  289.78 0855.28
2009/04/23 10:14:21.5    -227   -112    -70    254    263 243.8 -20.2  34170  289.75 0855.28
2009/04/23 10:14:21.6    -295    -71   -103    304    320 256.5 -23.7  34154  289.47 0855.28
2009/04/23 10:14:21.7    -242    -44   -145    246    285 259.6 -37.8  34142  289.25 0855.28
2009/04/23 10:14:21.8    -215      3   -181    216    281 270.9 -48.7  34142  289.27 0855.27
2009/04/23 10:14:21.9    -268    -18   -209    269    340 266.1 -46.1  34180  289.90 0855.27
2009/04/23 10:14:22.0    -248      3   -186    249    310 270.8 -44.8  34182  289.93 0855.27
2009/04/23 10:14:22.1    -219    -90    -44    237    242 247.6 -10.5  34178  289.86 0855.27
2009/04/23 10:14:22.2    -108   -178   -128    209    245 211.2 -38.8  34178  289.88 0855.27
2009/04/23 10:14:22.3     -59   -229     18    237    238 194.5   4.6  34188  290.05 0855.27
2009/04/23 10:14:22.4     -86   -160    103    182    209 208.3  31.9  34174  289.82 0855.27
2009/04/23 10:14:22.5     -42   -156    130    162    207 195.1  43.0  34156  289.52 0855.27
2009/04/23 10:14:22.6     -18   -187    134    188    230 185.6  39.3  34168  289.70 0855.27
2009/04/23 10:14:22.7    -110   -156     16    191    192 215.2   4.9  34160  289.57 0855.27
2009/04/23 10:14:22.8     -69   -170     67    184    195 202.3  20.7  34162  289.60 0855.25
2009/04/23 10:14:22.9     -64   -191     -7    202    203 198.7  -2.2  34158  289.55 0855.25
2009/04/23 10:14:23.0     -24   -237    -25    239    241 185.8  -6.1  34158  289.54 0855.25
2009/04/23 10:14:23.1      -5   -278      8    279    280 181.1   1.8  34156  289.51 0855.25
2009/04/23 10:14:23.2      33   -380    -49    382    386 174.9  -7.3  34154  289.47 0855.25
2009/04/23 10:14:23.3      84   -423    -23    432    433 168.7  -3.1  34152  289.43 0855.25
2009/04/23 10:14:23.4      63   -407    -62    413    418 171.1  -8.6  34144  289.31 0855.25
2009/04/23 10:14:23.5     104   -322     70    339    347 162.1  11.8  34158  289.55 0855.25
2009/04/23 10:14:23.6      90   -296    -24    310    312 163.1  -4.6  34152  289.44 0855.25
2009/04/23 10:14:23.7     286   -340     22    445    446 140.0   2.9  34148  289.38 0855.25
2009/04/23 10:14:23.8     262   -286    -17    389    390 137.5  -2.6  34144  289.30 0855.25
2009/04/23 10:14:23.9     358   -253     77    439    446 125.3  10.0  34144  289.29 0855.25
2009/04/23 10:14:24.0     176   -288   -111    338    356 148.5 -18.2  34146  289.33 0855.25
2009/04/23 10:14:24.1     133   -270    -53    302    307 153.7 -10.1  34148  289.36 0855.25
2009/04/23 10:14:24.2      90   -297    -99    311    327 163.1 -17.7  34146  289.32 0855.25
2009/04/23 10:14:24.3     200   -249    -36    320    323 141.2  -6.5  34140  289.24 0855.25
2009/04/23 10:14:24.4     190   -269     60    330    336 144.8  10.4  34146  289.32 0855.25
2009/04/23 10:14:24.5     171   -297     40    343    346 150.0   6.8  34146  289.33 0855.25
2009/04/23 10:14:24.6     141   -312     11    343    344 155.7   1.9  34146  289.32 0855.25
2009/04/23 10:14:24.7      98   -207    164    230    282 154.6  39.1  34144  289.29 0855.25
2009/04/23 10:14:24.8      63   -235    205    244    318 164.8  44.3  34152  289.44 0855.22
2009/04/23 10:14:24.9     130   -191    149    232    275 145.7  35.6  34154  289.46 0855.22
2009/04/23 10:14:25.0      35   -148    102    153    183 166.7  36.5  34150  289.41 0855.22
2009/04/23 10:14:25.1      20   -205    146    207    253 174.2  38.6  34154  289.46 0855.22
2009/04/23 10:14:25.2      14   -264    134    265    296 176.9  29.1  34146  289.34 0855.22
2009/04/23 10:14:25.3      33   -178    130    182    223 169.3  39.3  34156  289.50 0855.22
2009/04/23 10:14:25.4      74   -221    -16    234    235 161.5  -4.1  34150  289.41 0855.22
2009/04/23 10:14:25.5      40   -183      6    188    189 167.5   2.1  34150  289.40 0855.22
2009/04/23 10:14:25.6      49   -178     18    185    186 164.6   5.7  34152  289.43 0855.22
2009/04/23 10:14:25.7      43   -127     45    135    143 161.3  18.4  34152  289.45 0855.22
2009/04/23 10:14:25.8      35   -134     42    139    146 165.3  16.8  34156  289.52 0855.22
2009/04/23 10:14:25.9      63    -67     32     93     99 136.8  18.9  34150  289.41 0855.22
2009/04/23 10:14:26.0      -9    -58     65     59     87 188.9  52.7  34156  289.52 0855.22
2009/04/23 10:14:26.1      24    -37     80     45     91 147.5  68.3  34164  289.65 0855.22
2009/04/23 10:14:26.2      11    -35     68     37     77 161.7  68.9  34170  289.75 0855.22
2009/04/23 10:14:26.3       3    -47     44     48     65 175.6  47.9  34166  289.67 0855.22
2009/04/23 10:14:26.4       1   -123     42    124    132 179.1  18.9  34152  289.45 0855.22
2009/04/23 10:14:26.5       0   -144     39    145    151 180.0  15.3  34154  289.46 0855.22
2009/04/23 10:14:26.6     -42   -120     81    128    151 199.2  35.5  34152  289.45 0855.22
2009/04/23 10:14:26.7     -63    -82     95    104    140 217.4  47.9  34156  289.52 0855.22
2009/04/23 10:14:26.8     -66   -104     65    124    140 212.5  29.8  34158  289.53 0855.24
2009/04/23 10:14:26.9     -11   -114     62    115    130 185.8  30.8  34158  289.53 0855.24
2009/04/23 10:14:27.0     -34   -166    103    170    198 191.6  34.0  34154  289.48 0855.24
2009/04/23 10:14:27.1     -14   -166    141    167    218 184.9  44.3  34160  289.58 0855.24
2009/04/23 10:14:27.2    -131   -148     92    198    218 221.4  27.1  34158  289.53 0855.24
2009/04/23 10:14:27.3     -76   -246     50    258    263 197.2  11.0  34154  289.47 0855.24
2009/04/23 10:14:27.4    -103   -278     56    297    303 200.5  10.8  34150  289.41 0855.24
2009/04/23 10:14:27.5    -116   -218     63    248    256 208.1  14.3  34150  289.39 0855.24
2009/04/23 10:14:27.6     -92   -195    144    216    259 205.3  36.7  34152  289.42 0855.24
2009/04/23 10:14:27.7     -85   -180    146    200    247 205.2  39.7  34154  289.46 0855.24
2009/04/23 10:14:27.8    -113   -121    201    166    260 223.0  56.4  34156  289.49 0855.24
2009/04/23 10:14:27.9     -56    -46    170     73    185 230.5  75.5  34172  289.79 0855.24
2009/04/23 10:14:28.0     -52    -33     89     62    108 237.6  62.1  34178  289.87 0855.24
2009/04/23 10:14:28.1      29     -5     84     30     89  99.7  80.2  34174  289.82 0855.24
2009/04/23 10:14:28.2     109     -4     72    110    131  92.1  36.0  34158  289.55 0855.24
2009/04/23 10:14:28.3     115    -49     66    126    142 113.1  29.8  34158  289.55 0855.24
2009/04/23 10:14:28.4      98    -62     15    117    118 122.5   7.5  34156  289.52 0855.24
2009/04/23 10:14:28.5      92    -58     -7    110    111 122.4  -3.7  34154  289.48 0855.24
2009/04/23 10:14:28.6     105    -18     15    107    109  99.7   8.0  34156  289.50 0855.24
2009/04/23 10:14:28.7      70    -35    -21     79     82 117.1 -15.0  34156  289.52 0855.24
2009/04/23 10:14:28.8      42    -80     -9     91     92 152.4  -6.2  34158  289.53 0855.25
2009/04/23 10:14:28.9      49    -87     11    101    102 150.6   6.5  34154  289.46 0855.25
2009/04/23 10:14:29.0      38    -96      5    104    105 158.1   2.8  34158  289.53 0855.25
2009/04/23 10:14:29.1      53    -53      3     75     76 135.0   2.9  34158  289.53 0855.25
2009/04/23 10:14:29.2      73    -37    -16     83     85 117.1 -10.9  34158  289.55 0855.25
2009/04/23 10:14:29.3      66     -4    -20     67     70  94.3 -16.6  34156  289.50 0855.25
2009/04/23 10:14:29.4      83      0    -23     84     88  90.0 -15.5  34156  289.50 0855.25
2009/04/23 10:14:29.5      93     15    -58     95    111  80.8 -39.4  34156  289.50 0855.25
2009/04/23 10:14:29.6     117     26    -73    121    141  77.2 -38.4  34154  289.48 0855.25
2009/04/23 10:14:29.7     149     -5    -53    150    160  92.1 -19.7  34152  289.45 0855.25
2009/04/23 10:14:29.8     232    -42    -50    236    242 100.4 -12.2  34152  289.44 0855.25
2009/04/23 10:14:29.9     200      0    -92    201    221  90.0 -30.8  34150  289.41 0855.25
2009/04/23 10:14:30.0     223    -17    -92    224    242  94.4 -28.0  34152  289.44 0855.25
2009/04/23 10:14:30.1     195     28   -111    198    226  81.6 -35.8  34154  289.48 0855.25
2009/04/23 10:14:30.2     165     54   -152    174    231  71.8 -50.2  34168  289.72 0855.25
2009/04/23 10:14:30.3     140     38   -146    146    206  74.9 -54.5  34158  289.53 0855.25
2009/04/23 10:14:30.4      68     18   -155     71    170  75.0 -78.2  34160  289.57 0855.25
2009/04/23 10:14:30.5      90     -8   -162     91    185  95.2 -72.9  34164  289.65 0855.25
2009/04/23 10:14:30.6     143    -44   -106    150    183 107.3 -43.2  34162  289.60 0855.25
2009/04/23 10:14:30.7      58   -158   -179    169    246 159.7 -56.4  34166  289.67 0855.25
2009/04/23 10:14:30.8      44   -157   -165    164    232 164.2 -54.5  34158  289.55 0855.25
2009/04/23 10:14:30.9     -38   -224    -82    228    242 189.8 -25.1  34158  289.54 0855.25
2009/04/23 10:14:31.0     -71   -254    -33    264    267 195.8  -7.2  34156  289.51 0855.25
2009/04/23 10:14:31.1       0   -249     65    250    259 179.9  14.7  34156  289.49 0855.25
2009/04/23 10:14:31.2      50   -239    -35    245    248 168.0  -8.2  34158  289.54 0855.25
2009/04/23 10:14:31.3      78   -232     53    245    251 161.3  12.4  34152  289.42 0855.25
2009/04/23 10:14:31.4      32   -230     77    233    246 171.9  18.4  34152  289.44 0855.25
2009/04/23 10:14:31.5      77   -155     11    174    175 153.5   3.6  34152  289.43 0855.25
2009/04/23 10:14:31.6       8   -163     52    164    173 176.9  17.7  34150  289.41 0855.25
2009/04/23 10:14:31.8       0    -90      7     91     92 180.4   4.4  34150  289.40 0855.25
2009/04/23 10:14:31.8      -9    -72    -26     73     78 187.1 -19.6  34152  289.43 0855.25
2009/04/23 10:14:31.9      -7    -22    -36     24     43 198.3 -67.0  34156  289.52 0855.25
2009/04/23 10:14:32.0      28      0    -74     29     79  90.0 -82.6  34156  289.52 0855.25
2009/04/23 10:14:32.1     117     33    -48    122    131  74.1 -27.4  34168  289.70 0855.25
2009/04/23 10:14:32.2     167     50    -54    175    184  73.2 -17.3  34174  289.82 0855.25
2009/04/23 10:14:32.3     202     60    -16    211    212  73.2  -4.4  34160  289.57 0855.25
2009/04/23 10:14:32.5      65   -106    -30    125    129 148.4 -13.9  34168  289.70 0855.25
2009/04/23 10:14:32.6      20   -157     38    159    164 172.4  13.5  34170  289.75 0855.25
2009/04/23 10:14:32.7      68   -186     65    199    210 160.0  18.1  34166  289.67 0855.25
2009/04/23 10:14:32.8      53   -195     17    203    204 164.6   4.9  34152  289.43 0855.25
2009/04/23 10:14:32.9      84   -139    -24    163    165 148.6  -8.6  34154  289.48 0855.26
2009/04/23 10:14:33.0      76    -76    -32    108    112 135.0 -21.7  34154  289.48 0855.26
2009/04/23 10:14:33.1      -8     -1    -80      9     80 258.5 -90.0  34158  289.53 0855.26
2009/04/23 10:14:33.2     -10     16   -100     19    101 327.4 -90.0  34170  289.75 0855.26
2009/04/23 10:14:33.3     109     -8    -39    110    117  94.3 -19.6  34162  289.60 0855.26
2009/04/23 10:14:33.4    -254     72    -94    265    282 285.9 -19.6  34174  289.81 0855.26
2009/04/23 10:14:33.5    -173     19     13    175    176 276.4   4.4  34176  289.84 0855.26
2009/04/23 10:14:33.6    -112   -150     69    188    200 216.7  20.9  34172  289.79 0855.26
2009/04/23 10:14:33.7     -44   -138     73    145    162 197.8  28.7  34166  289.67 0855.26
2009/04/23 10:14:33.8     -84   -102    -19    133    135 219.7  -8.2  34176  289.85 0855.26
2009/04/23 10:14:33.9     -55   -162    -69    172    185 198.9 -27.4  34166  289.69 0855.26
2009/04/23 10:14:34.0     -34   -190     22    194    196 190.2   6.5  34164  289.65 0855.26
2009/04/23 10:14:34.1      -6   -203     24    204    206 181.8   6.7  34160  289.58 0855.26
2009/04/23 10:14:34.2    -129   -133     15    186    187 224.1   4.9  34156  289.52 0855.26
2009/04/23 10:14:34.3    -135    -98     76    167    183 234.0  25.9  34162  289.60 0855.26
2009/04/23 10:14:34.4    -134   -128     65    186    198 226.2  19.2  34156  289.50 0855.26
2009/04/23 10:14:34.5     -80   -178     90    196    215 204.1  26.6  34154  289.46 0855.26
2009/04/23 10:14:34.6     -71   -156     49    172    180 204.7  16.0  34158  289.55 0855.26
2009/04/23 10:14:34.7    -105   -240     93    263    280 203.6  19.6  34154  289.46 0855.26
2009/04/23 10:14:34.8    -127   -229    102    263    282 209.0  22.1  34156  289.51 0855.26
2009/04/23 10:14:34.9    -114   -169     97    205    226 214.1  27.1  34156  289.50 0855.27
2009/04/23 10:14:35.0    -131   -193     36    234    237 214.3   8.9  34156  289.49 0855.27
2009/04/23 10:14:35.1    -170   -187     -5    253    254 222.3  -1.3  34154  289.47 0855.27
2009/04/23 10:14:35.2    -109   -130     -3    170    171 219.9  -1.3  34156  289.52 0855.27
2009/04/23 10:14:35.3      22   -113     69    116    134 168.9  33.5  34158  289.53 0855.27
2009/04/23 10:14:35.4      50   -212     88    218    235 166.7  23.4  34152  289.45 0855.27
2009/04/23 10:14:35.5      33   -249    145    252    290 172.4  32.7  34156  289.49 0855.27
2009/04/23 10:14:35.6       3   -212    120    213    244 179.0  32.1  34158  289.54 0855.27
2009/04/23 10:14:35.7      25   -251     18    253    254 174.2   4.2  34154  289.46 0855.27
2009/04/23 10:14:35.8       0   -186     76    187    201 179.8  23.1  34154  289.48 0855.27
2009/04/23 10:14:35.9       3   -195    141    196    241 179.0  39.1  34154  289.48 0855.27
2009/04/23 10:14:36.0      23   -199     95    201    222 173.3  27.1  34156  289.52 0855.27
2009/04/23 10:14:36.1      -3   -202    179    203    270 181.0  45.9  34156  289.51 0855.27
2009/04/23 10:14:36.2     -77   -172    156    189    245 204.1  43.7  34154  289.46 0855.27
2009/04/23 10:14:36.3     -67   -142    161    158    225 205.3  50.4  34158  289.55 0855.27
2009/04/23 10:14:36.4      28    -65    152     71    167 156.4  73.2  34166  289.69 0855.27
2009/04/23 10:14:36.5      42   -129    181    136    226 161.7  59.2  34166  289.67 0855.27
2009/04/23 10:14:36.6       4   -193    278    194    338 178.6  61.8  34160  289.56 0855.27
2009/04/23 10:14:36.7      26    -55    219     61    227 154.7  84.6  34160  289.57 0855.27
2009/04/23 10:14:36.8      28     10    140     30    143  70.0  88.5  34164  289.65 0855.27
2009/04/23 10:14:36.9     -12    -72    109     74    131 189.8  62.7  34162  289.62 0855.26
2009/04/23 10:14:37.0      -2   -154    173    155    232 181.0  53.5  34156  289.52 0855.26
2009/04/23 10:14:37.1     100   -157    123    187    223 147.5  36.3  34156  289.52 0855.26
2009/04/23 10:14:37.2      61   -175     81    186    202 160.6  25.1  34158  289.55 0855.26
2009/04/23 10:14:37.3      12   -157    -34    158    162 175.6 -12.4  34156  289.50 0855.26
2009/04/23 10:14:37.4     -42   -139    -72    146    162 197.0 -32.6  34160  289.57 0855.26
2009/04/23 10:14:37.5      73   -152    -93    169    192 154.4 -35.8  34158  289.55 0855.26
2009/04/23 10:14:37.6     -39   -154      4    159    160 194.3   1.8  34164  289.63 0855.26
2009/04/23 10:14:37.7    -181    -25    -26    183    185 262.0  -8.2  34192  290.11 0855.26
2009/04/23 10:14:37.8    -125     38    -51    131    140 287.3 -27.4  34184  289.97 0855.26
2009/04/23 10:14:37.9     -98     99    -60    140    152 315.1 -29.0  34174  289.80 0855.26
2009/04/23 10:14:38.0    -117     68    -86    136    160 300.2 -39.9  34180  289.91 0855.26
2009/04/23 10:14:38.1    -127     69    -34    145    150 298.8 -13.4  34192  290.11 0855.26
2009/04/23 10:14:38.2    -112     11    -22    113    116 276.1 -11.3  34180  289.91 0855.26
2009/04/23 10:14:38.3     -61    -74     11     97     98 219.6   6.9  34178  289.89 0855.26
2009/04/23 10:14:38.4     -38    -74     49     84     97 207.6  33.5  34174  289.80 0855.26
2009/04/23 10:14:38.5      16    -25     91     30     95 147.5  80.7  34188  290.04 0855.26
2009/04/23 10:14:38.6       0   -110    121    111    164 180.4  52.5  34166  289.69 0855.26
2009/04/23 10:14:38.7      29   -115    123    119    171 165.7  50.9  34164  289.63 0855.26
2009/04/23 10:14:38.8      62   -134     87    148    171 155.1  33.1  34160  289.58 0855.26
2009/04/23 10:14:38.9       6   -144     69    145    160 177.3  27.2  34162  289.62 0855.25
2009/04/23 10:14:39.0      41   -132     48    139    148 162.6  19.2  34166  289.69 0855.25
2009/04/23 10:14:39.1     110    -87     22    141    143 128.6   9.0  34170  289.74 0855.25
2009/04/23 10:14:39.2      66    -69     21     96     99 136.3  12.6  34170  289.75 0855.25
2009/04/23 10:14:39.3     114    -87     28    144    147 127.3  11.0  34164  289.63 0855.25
2009/04/23 10:14:39.4     133    -90     10    161    162 124.2   3.8  34162  289.62 0855.25
2009/04/23 10:14:39.5     108    -83     37    137    142 127.8  15.2  34162  289.60 0855.25
2009/04/23 10:14:39.6      42    -58     76     72    104 143.9  51.2  34164  289.65 0855.25
2009/04/23 10:14:39.7      51    -54     63     75     97 136.8  44.3  34168  289.70 0855.25
2009/04/23 10:14:39.8      14    -43     63     46     78 161.7  60.5  34172  289.77 0855.25
2009/04/23 10:14:39.9       8    -62     56     63     84 171.9  46.9  34164  289.63 0855.25
2009/04/23 10:14:40.0      63    -39     66     75     99 121.5  45.8  34164  289.65 0855.25
2009/04/23 10:14:40.1      11    -95    101     96    139 173.3  51.6  34168  289.70 0855.25
2009/04/23 10:14:40.2      58    -55    111     81    137 133.3  60.5  34166  289.67 0855.25
2009/04/23 10:14:40.3       3   -113    140    114    180 178.2  56.4  34160  289.57 0855.25
2009/04/23 10:14:40.4       0   -170    178    171    246 180.0  51.2  34162  289.60 0855.25
2009/04/23 10:14:40.5      15   -132    142    133    194 173.3  52.0  34164  289.63 0855.25
2009/04/23 10:14:40.6      -8   -163    130    164    209 182.9  42.7  34162  289.60 0855.25
2009/04/23 10:14:40.7     -20   -178    148    180    233 186.7  43.7  34160  289.57 0855.25
2009/04/23 10:14:40.8     -28   -160    107    163    194 190.0  36.0  34162  289.60 0855.25
2009/04/23 10:14:40.9      -9   -149     58    150    160 183.6  22.3  34158  289.55 0855.23
2009/04/23 10:14:41.0     -10   -135     24    136    139 184.5  10.1  34158  289.53 0855.23
2009/04/23 10:14:41.1      28    -83     43     88     97 161.3  27.3  34158  289.55 0855.23
2009/04/23 10:14:41.2      29    -76     36     82     89 158.6  25.7  34164  289.65 0855.23
2009/04/23 10:14:41.3      39    -54     23     67     71 144.0  18.9  34162  289.62 0855.23
2009/04/23 10:14:41.4      32    -39     24     51     56 140.4  27.1  34164  289.63 0855.23
2009/04/23 10:14:41.5       0    -51     35     52     62 180.9  37.6  34164  289.63 0855.23
2009/04/23 10:14:41.6       7    -54     36     55     65 172.0  35.6  34162  289.62 0855.23
2009/04/23 10:14:41.7       8    -24     47     26     53 161.7  68.8  34164  289.63 0855.23
2009/04/23 10:14:41.8      -9    -27     48     29     56 198.7  64.7  34164  289.63 0855.23
2009/04/23 10:14:41.9     -18   -126    103    128    164 188.5  43.0  34158  289.55 0855.23
2009/04/23 10:14:42.0     -37   -162    151    167    225 193.1  46.9  34158  289.53 0855.23
2009/04/23 10:14:42.1     -23   -181    147    183    234 187.3  42.8  34164  289.65 0855.23
2009/04/23 10:14:42.2     -14   -259    136    260    293 183.1  29.8  34162  289.59 0855.23
2009/04/23 10:14:42.3       2   -225    176    226    286 179.3  41.7  34162  289.61 0855.23
2009/04/23 10:14:42.4      22   -181    153    183    238 172.9  44.3  34164  289.65 0855.23
2009/04/23 10:14:42.5      80   -186    138    203    245 156.8  37.6  34164  289.63 0855.23
2009/04/23 10:14:42.6      10   -168    133    169    215 176.4  42.2  34162  289.62 0855.23
2009/04/23 10:14:42.7      42   -190    117    195    227 167.3  34.0  34162  289.62 0855.23
2009/04/23 10:14:42.8      55   -236    100    243    262 166.7  23.4  34164  289.63 0855.23
2009/04/23 10:14:42.9      60   -218     77    227    240 164.4  18.9  34164  289.63 0855.23
2009/04/23 10:14:43.0       3   -226      2    227    228 179.1   0.7  34162  289.60 0855.23
2009/04/23 10:14:43.1     -63   -187     38    198    202 198.7  11.0  34164  289.63 0855.23
2009/04/23 10:14:43.2     -67   -141     32    157    161 205.5  11.6  34164  289.65 0855.23
2009/04/23 10:14:43.3     -19   -135     49    137    145 188.0  20.0  34170  289.74 0855.23
2009/04/23 10:14:43.4     -10   -163     91    164    187 183.8  31.4  34164  289.63 0855.23
2009/04/23 10:14:43.5     -28   -183     67    186    197 188.9  20.7  34160  289.57 0855.23
2009/04/23 10:14:43.6     -32   -157     91    161    184 191.5  32.1  34160  289.58 0855.23
2009/04/23 10:14:43.7     -30   -129    106    133    170 193.3  42.7  34164  289.65 0855.23
2009/04/23 10:14:43.8     -42   -127    129    134    186 198.5  49.0  34164  289.63 0855.23
2009/04/23 10:14:43.9      -8    -63    133     64    147 188.0  72.8  34182  289.96 0855.23
2009/04/23 10:14:44.0       0     -9    105     10    105 182.7  90.0  34186  290.01 0855.23
2009/04/23 10:14:44.1     -38    -46    119     61    133 219.6  70.8  34186  290.02 0855.23
2009/04/23 10:14:44.2     -67   -102    122    123    173 213.4  50.2  34170  289.74 0855.23
2009/04/23 10:14:44.3    -111    -52    120    123    171 244.8  49.4  34192  290.11 0855.23
2009/04/23 10:14:44.4    -113    -32    102    118    155 254.1  45.4  34196  290.18 0855.23
2009/04/23 10:14:44.5     -45    -69     90     83    122 213.4  52.2  34174  289.80 0855.23
2009/04/23 10:14:44.6     -64   -132     97    147    176 205.9  36.5  34162  289.62 0855.23
2009/04/23 10:14:44.7     -81   -147     85    169    189 209.0  28.5  34170  289.75 0855.23
2009/04/23 10:14:44.8    -105   -109     55    152    161 223.7  20.7  34176  289.84 0855.23
2009/04/23 10:14:44.9    -112    -86     48    142    151 232.3  18.9  34174  289.82 0855.23
2009/04/23 10:14:45.0    -100      7     66    101    120 274.4  36.0  34178  289.89 0855.23
2009/04/23 10:14:45.1    -120     32    -15    125    126 285.1  -7.2  34188  290.04 0855.23
2009/04/23 10:14:45.2     -71     75    -21    104    107 316.3 -11.3  34200  290.25 0855.23
2009/04/23 10:14:45.3     -83     14    -60     85    104 280.1 -43.0  34192  290.13 0855.23
2009/04/23 10:14:45.4     -88    -80    -41    120    126 227.8 -23.3  34198  290.21 0855.23
2009/04/23 10:14:45.5     -71    -68      0     99    100 226.0   0.2  34204  290.31 0855.23
2009/04/23 10:14:45.6     -70    -54      1     89     90 232.2   0.8  34210  290.43 0855.23
2009/04/23 10:14:45.7     -63    -46     30     79     84 234.0  21.0  34216  290.53 0855.23
2009/04/23 10:14:45.9     -45    -68     30     82     87 213.8  20.4  34228  290.74 0855.21
2009/04/23 10:14:45.9     -70    -69     11     99    100 225.4   6.5  34194  290.16 0855.21
2009/04/23 10:14:46.0     -92    -43    -10    102    103 244.6  -5.6  34180  289.92 0855.21
2009/04/23 10:14:46.1     -71    -27     -4     77     78 249.2  -3.1  34176  289.85 0855.21
2009/04/23 10:14:46.2     -33    -52     29     62     68 212.5  27.1  34192  290.11 0855.21
2009/04/23 10:14:46.3     -51    -48     58     71     91 226.9  43.7  34224  290.65 0855.21
2009/04/23 10:14:46.4    -132    -40     81    139    160 253.1  32.9  34230  290.75 0855.21
2009/04/23 10:14:46.5    -147    -49     97    156    183 251.4  35.2  34228  290.74 0855.21
2009/04/23 10:14:46.6    -177    -98     33    203    206 241.1   9.3  34202  290.28 0855.21
2009/04/23 10:14:46.7    -209   -153     10    260    261 233.8   2.3  34172  289.76 0855.21
2009/04/23 10:14:46.8    -180    -86    -29    200    203 244.5  -8.2  34176  289.85 0855.21
2009/04/23 10:14:46.9    -199   -136    -66    242    252 235.6 -15.4  34176  289.83 0855.21
2009/04/23 10:14:47.0    -110   -254    -93    277    293 203.4 -18.6  34168  289.71 0855.21
2009/04/23 10:14:47.1     -40   -215    -95    219    238 190.7 -29.5  34160  289.56 0855.21
2009/04/23 10:14:47.2       2   -186    -58    187    196 179.1 -17.3  34158  289.55 0855.21
2009/04/23 10:14:47.3      53   -131    -18    142    144 157.7  -7.2  34158  289.55 0855.21
2009/04/23 10:14:47.4    -103    -95     56    141    151 227.3  23.0  34164  289.63 0855.21
2009/04/23 10:14:47.5      28    -77     93     82    123 160.0  54.2  34166  289.67 0855.21
2009/04/23 10:14:47.6      27    -74     11     79     80 160.0   8.0  34170  289.75 0855.21
2009/04/23 10:14:47.7     -23     35     92     43    101 326.6  73.1  34186  290.02 0855.21
2009/04/23 10:14:47.8     -21      7    108     23    110 288.4  89.0  34212  290.47 0855.21
2009/04/23 10:14:47.9     -74    -46    134     88    160 238.0  63.6  34232  290.79 0855.20
2009/04/23 10:14:48.0     -60    -60    133     85    157 225.0  64.4  34232  290.79 0855.20
2009/04/23 10:14:48.1     -63    -82    102    104    145 217.4  50.0  34224  290.67 0855.20
2009/04/23 10:14:48.2     -94    -46     32    105    110 243.8  17.3  34246  291.04 0855.20
2009/04/23 10:14:48.3     -59    -48     58     77     96 230.5  40.7  34234  290.84 0855.20
2009/04/23 10:14:48.4       0    -31     39     32     50 180.9  56.4  34224  290.67 0855.20
2009/04/23 10:14:48.5      23    -18     13     30     32 127.8  25.1  34224  290.67 0855.20
2009/04/23 10:14:48.6      37     12     80     39     89  71.8  72.8  34216  290.52 0855.20
2009/04/23 10:14:48.7       7      7     90     11     90  45.0  90.0  34216  290.52 0855.20
2009/04/23 10:14:48.8     -12     44    117     46    125 344.0  77.6  34222  290.62 0855.20
2009/04/23 10:14:48.9      -8    116    102    117    155 355.6  45.8  34214  290.48 0855.20
2009/04/23 10:14:49.0     132    170    183    216    283  37.8  44.8  34188  290.03 0855.20
2009/04/23 10:14:49.1     134    242    229    277    359  29.0  43.8  34196  290.18 0855.20
2009/04/23 10:14:49.2      45    142    193    150    244  17.8  58.4  34192  290.13 0855.20
2009/04/23 10:14:49.3      17    204    208    205    292   4.9  50.2  34196  290.17 0855.20
2009/04/23 10:14:49.4      98    207    185    230    295  25.3  43.0  34184  289.97 0855.20
2009/04/23 10:14:49.5      72    224    183    236    298  17.8  41.7  34190  290.07 0855.20
2009/04/23 10:14:49.6       5    187    189    188    266   1.6  50.1  34196  290.19 0855.20
2009/04/23 10:14:49.7      -7    152    163    153    223 357.3  52.1  34196  290.18 0855.20
2009/04/23 10:14:49.8       3    250    132    251    283   0.9  29.8  34190  290.09 0855.20
2009/04/23 10:14:49.9     -67    206     59    217    226 342.0  15.3  34190  290.09 0855.21
2009/04/23 10:14:50.0      94    236     59    255    262  21.8  13.2  34192  290.10 0855.21
2009/04/23 10:14:50.1      61    344    -63    350    356  10.1 -10.2  34196  290.18 0855.21
2009/04/23 10:14:50.2      15    263    208    264    336   3.4  42.2  34208  290.39 0855.21
2009/04/23 10:14:50.3      54    229    175    236    293  13.4  40.1  34210  290.42 0855.21
2009/04/23 10:14:50.4      13    172    142    173    223   4.5  43.7  34226  290.70 0855.21
2009/04/23 10:14:50.5      91     88    136    127    186  46.0  52.2  34202  290.30 0855.21
2009/04/23 10:14:50.6     123    215    117    248    274  29.8  27.1  34192  290.12 0855.21
2009/04/23 10:14:50.7      72    131    124    150    194  29.0  43.8  34194  290.14 0855.21
2009/04/23 10:14:50.8     167     40    148    172    226  76.3  45.1  34192  290.11 0855.21
2009/04/23 10:14:50.9     249     30    191    251    315  83.0  41.1  34194  290.15 0855.21
2009/04/23 10:14:51.0      97    150    155    180    237  33.0  45.4  34186  290.01 0855.21
2009/04/23 10:14:51.1     -59    145    115    157    194 337.7  39.7  34194  290.14 0855.21
2009/04/23 10:14:51.2    -120     61     58    135    146 297.1  24.6  34196  290.19 0855.21
2009/04/23 10:14:51.3    -270    -12    164    271    316 267.4  34.0  34196  290.17 0855.21
2009/04/23 10:14:51.4    -192     47    159    198    253 283.9  42.8  34194  290.15 0855.21
2009/04/23 10:14:51.5    -288    -83    115    300    321 253.8  22.0  34190  290.07 0855.21
2009/04/23 10:14:51.6    -216   -181    116    283    305 230.0  23.4  34196  290.19 0855.21
2009/04/23 10:14:51.7    -246   -184    138    308    337 233.2  25.9  34188  290.05 0855.21
2009/04/23 10:14:51.8    -144   -174    140    227    266 219.6  34.8  34180  289.92 0855.21
2009/04/23 10:14:51.9    -112   -163     96    198    220 214.5  27.4  34200  290.26 0855.23
2009/04/23 10:14:52.0    -118   -181    235    217    319 213.2  52.6  34204  290.32 0855.23
2009/04/23 10:14:52.1     -44   -164    243    170    296 195.1  61.7  34200  290.26 0855.23
2009/04/23 10:14:52.2    -171   -227    116    285    307 217.0  23.1  34220  290.58 0855.23
2009/04/23 10:14:52.3    -237   -243    182    340    385 224.2  30.6  34196  290.18 0855.23
2009/04/23 10:14:52.4    -140   -253     56    290    296 209.0  11.0  34212  290.44 0855.23
2009/04/23 10:14:52.5    -107   -270     -5    291    292 201.6  -1.1  34226  290.70 0855.23
2009/04/23 10:14:52.6    -244   -241     77    344    353 225.4  12.6  34224  290.67 0855.23
2009/04/23 10:14:52.7    -295   -233     34    376    378 231.7   5.2  34210  290.42 0855.23
2009/04/23 10:14:52.8    -149   -210     52    258    264 215.4  11.6  34226  290.68 0855.23
2009/04/23 10:14:52.9     -93   -197    105    219    242 205.3  27.4  34192  290.10 0855.23
2009/04/23 10:14:53.0     -83   -142    158    165    228 210.3  48.7  34186  290.02 0855.23
2009/04/23 10:14:53.1    -119   -136    198    182    268 221.2  52.5  34194  290.15 0855.23
2009/04/23 10:14:53.2     -82   -168    192    188    268 206.1  50.4  34200  290.24 0855.23
2009/04/23 10:14:53.3     -25   -188    183    190    263 187.8  49.0  34210  290.42 0855.23
2009/04/23 10:14:53.4     -45   -226    190    231    299 191.5  43.7  34192  290.12 0855.23
2009/04/23 10:14:53.5    -116   -237    205    265    335 206.1  41.7  34200  290.26 0855.23
2009/04/23 10:14:53.6     -39   -163    155    168    228 193.6  47.9  34202  290.30 0855.23
2009/04/23 10:14:53.7    -198   -100    123    223    254 243.1  31.3  34184  289.97 0855.23
2009/04/23 10:14:53.8    -235    -80     91    249    265 251.2  21.0  34194  290.15 0855.23
2009/04/23 10:14:53.9    -213   -156     94    265    281 233.8  20.0  34192  290.12 0855.24
2009/04/23 10:14:54.0    -220   -281    136    358    382 218.1  21.8  34186  290.01 0855.24
2009/04/23 10:14:54.1    -178   -263    104    318    335 214.2  18.2  34184  289.99 0855.24
2009/04/23 10:14:54.2    -195   -261     56    326    331 216.8   9.9  34188  290.03 0855.24
2009/04/23 10:14:54.3    -326   -139     50    355    359 246.9   8.1  34204  290.33 0855.24
2009/04/23 10:14:54.4    -341   -109    -59    359    364 252.2  -9.4  34172  289.79 0855.24
2009/04/23 10:14:54.5    -345   -233    -37    417    419 235.9  -5.2  34182  289.95 0855.24
2009/04/23 10:14:54.6    -314   -144     78    346    355 245.3  12.8  34182  289.94 0855.24
2009/04/23 10:14:54.7    -352   -321     89    477    486 227.7  10.6  34208  290.39 0855.24
2009/04/23 10:14:54.8    -223   -269     50    350    354 219.6   8.2  34208  290.37 0855.24
2009/04/23 10:14:54.9    -209   -297     15    364    365 215.1   2.5  34202  290.30 0855.24
2009/04/23 10:14:55.0    -277   -386     -3    476    477 215.7  -0.4  34188  290.03 0855.24
2009/04/23 10:14:55.1    -268   -366     54    454    458 216.2   6.9  34186  290.00 0855.24
2009/04/23 10:14:55.2    -297   -352    -41    461    463 220.2  -5.2  34136  289.17 0855.24
2009/04/23 10:14:55.3    -183   -373     -8    416    417 206.2  -1.1  34146  289.33 0855.24
2009/04/23 10:14:55.4    -204   -285    161    351    386 215.6  26.5  34160  289.57 0855.24
2009/04/23 10:14:55.5    -156   -335    206    370    423 204.9  31.5  34192  290.11 0855.24
2009/04/23 10:14:55.6     -59   -375    108    380    396 189.0  15.9  34168  289.72 0855.24
2009/04/23 10:14:55.7    -277   -378     79    469    476 216.2   9.6  34136  289.15 0855.24
2009/04/23 10:14:55.8    -416   -298    -12    512    513 234.4  -1.4  34116  288.84 0855.24
2009/04/23 10:14:55.9    -373   -302   -114    481    495 231.0 -13.4  34130  289.05 0855.26
2009/04/23 10:14:56.0    -354   -291   -143    459    481 230.5 -17.3  34130  289.05 0855.26
2009/04/23 10:14:56.1    -263   -320    -65    415    421 219.5  -8.9  34126  288.99 0855.26
2009/04/23 10:14:56.2    -280   -317    -33    424    426 221.4  -4.5  34130  289.05 0855.26
2009/04/23 10:14:56.3    -265   -273    -23    381    382 224.2  -3.5  34130  289.06 0855.26
2009/04/23 10:14:56.4    -255   -243    -27    353    355 226.4  -4.5  34132  289.10 0855.26
2009/04/23 10:14:56.5    -294   -242    -76    382    390 230.5 -11.3  34132  289.10 0855.26
2009/04/23 10:14:56.6    -371   -266   -107    457    470 234.3 -13.2  34136  289.15 0855.26
2009/04/23 10:14:56.7    -364   -247    -72    441    447 235.8  -9.4  34138  289.21 0855.26
2009/04/23 10:14:56.8    -410   -134    -29    432    433 251.8  -3.9  34154  289.48 0855.26
2009/04/23 10:14:56.9    -421    -46   -151    424    451 263.7 -19.6  34128  289.04 0855.26
2009/04/23 10:14:57.0    -413    -52   -124    417    435 262.8 -21.5  34128  289.04 0855.26
2009/04/23 10:14:57.1    -378    -64   -120    384    402 260.3 -22.5  34134  289.13 0855.26
2009/04/23 10:14:57.2    -341   -124   -118    364    383 250.0 -18.0  34146  289.32 0855.26
2009/04/23 10:14:57.3    -414   -138   -158    437    464 251.6 -25.2  34130  289.05 0855.26
2009/04/23 10:14:57.4    -398   -126   -158    418    446 252.4 -26.1  34124  288.97 0855.26
2009/04/23 10:14:57.5    -352   -106   -200    368    418 253.2 -35.4  34122  288.92 0855.26
2009/04/23 10:14:57.6    -396    -67   -201    402    449 260.4 -33.0  34120  288.89 0855.26
2009/04/23 10:14:57.7    -432    -42   -216    435    485 264.4 -32.6  34124  288.95 0855.26
2009/04/23 10:14:57.8    -390   -109   -122    406    423 254.3 -21.7  34144  289.29 0855.26
2009/04/23 10:14:57.9    -269   -160   -103    313    329 239.3 -23.6  34168  289.70 0855.26
2009/04/23 10:14:58.0    -304   -117    -41    326    329 248.9  -7.3  34164  289.63 0855.26
2009/04/23 10:14:58.1    -378    -97   -120    391    409 255.5 -21.9  34116  288.83 0855.26
2009/04/23 10:14:58.2    -396    -77   -141    404    427 258.9 -24.3  34118  288.85 0855.26
2009/04/23 10:14:58.3    -262   -169   -122    312    335 237.1 -26.9  34126  288.98 0855.26
2009/04/23 10:14:58.4    -377   -151   -136    407    429 248.2 -23.6  34126  288.99 0855.26
2009/04/23 10:14:58.5    -317   -132   -140    344    371 247.4 -27.8  34126  288.98 0855.26
2009/04/23 10:14:58.6    -335   -115   -181    355    398 251.0 -33.6  34128  289.03 0855.26
2009/04/23 10:14:58.7    -351   -155   -141    384    409 246.1 -25.4  34122  288.94 0855.26
2009/04/23 10:14:58.8    -368   -174   -164    408    439 244.6 -27.5  34128  289.04 0855.26
2009/04/23 10:14:58.9    -290   -259    -40    390    393 228.2  -6.0  34160  289.57 0855.26
2009/04/23 10:14:59.1    -230   -249    -39    340    343 222.8  -6.7  34150  289.40 0855.26
2009/04/23 10:14:59.1    -175   -241   -110    298    317 216.0 -25.7  34118  288.85 0855.26
2009/04/23 10:14:59.2    -169      0   -148    170    225 270.0 -50.0  34106  288.67 0855.26
2009/04/23 10:14:59.3    -280     57   -156    286    325 281.7 -35.4  34120  288.90 0855.26
2009/04/23 10:14:59.4    -232     70   -218    243    326 286.9 -50.9  34136  289.17 0855.26
2009/04/23 10:14:59.6    -160     26   -180    163    242 279.2 -57.6  34140  289.24 0855.26
2009/04/23 10:14:59.7    -162     -2   -179    163    242 269.2 -57.4  34142  289.28 0855.26
2009/04/23 10:14:59.8    -150    -42   -164    156    226 254.1 -56.4  34130  289.08 0855.26
2009/04/23 10:14:59.9    -154    -92   -140    180    228 239.3 -46.1  34128  289.04 0855.26
2009/04/23 10:15:00.0    -138    -37   -149    144    207 254.9 -55.3  34130  289.08 0855.27
2009/04/23 10:15:00.1    -155    -49   -119    163    201 252.3 -44.1  34140  289.24 0855.27
2009/04/23 10:15:00.2    -167    -61    -99    179    204 249.8 -35.8  34140  289.24 0855.27
2009/04/23 10:15:00.3    -162    -36   -109    167    199 257.4 -40.7  34134  289.14 0855.27
2009/04/23 10:15:00.4    -146    -15   -103    147    179 263.9 -43.0  34136  289.18 0855.27
2009/04/23 10:15:00.5    -162    -19   -119    164    202 263.2 -43.9  34140  289.23 0855.27
2009/04/23 10:15:00.6    -104      0   -105    105    148 269.6 -54.5  34140  289.23 0855.27
2009/04/23 10:15:00.7    -119    -54    -83    131    155 245.6 -39.9  34148  289.38 0855.27
2009/04/23 10:15:00.8     -95    -62   -100    114    151 236.7 -50.2  34148  289.38 0855.27
2009/04/23 10:15:00.9     -76    -26   -107     81    134 250.9 -63.4  34154  289.46 0855.27
2009/04/23 10:15:01.0     -88    -24   -119     92    150 254.9 -62.9  34154  289.46 0855.27
2009/04/23 10:15:01.1    -112    -45   -119    121    169 247.8 -54.4  34148  289.36 0855.27
2009/04/23 10:15:01.2     -99    -22   -125    102    161 257.2 -61.0  34150  289.40 0855.27
2009/04/23 10:15:01.3     -19   -120   -128    122    176 189.3 -56.0  34148  289.36 0855.27
2009/04/23 10:15:01.4     -91   -176   -135    199    240 207.4 -42.0  34140  289.24 0855.27
2009/04/23 10:15:01.5     -28   -197    -98    200    222 188.1 -32.4  34142  289.28 0855.27
2009/04/23 10:15:01.6     -48   -190    -85    197    214 194.3 -29.5  34142  289.26 0855.27
2009/04/23 10:15:01.7     -15   -193    -54    194    201 184.5 -20.2  34150  289.41 0855.27
2009/04/23 10:15:01.8      14   -204    -72    205    217 176.0 -24.6  34152  289.43 0855.27
2009/04/23 10:15:01.9      88   -263    -84    278    291 161.5 -16.8  34140  289.22 0855.27
2009/04/23 10:15:02.0     113   -284    -11    306    307 158.2  -2.2  34126  289.00 0855.27
2009/04/23 10:15:02.1     134   -260    -11    293    294 152.6  -2.2  34130  289.05 0855.27
2009/04/23 10:15:02.2     227   -216     80    314    325 133.6  14.4  34134  289.12 0855.27
2009/04/23 10:15:02.3     217   -197     49    294    299 132.3   9.5  34130  289.05 0855.27
2009/04/23 10:15:02.4     170   -218    146    277    313 142.1  30.0  34130  289.07 0855.27
2009/04/23 10:15:02.5     242   -251     91    349    361 136.0  14.6  34128  289.04 0855.27
2009/04/23 10:15:02.6     249   -251     60    354    360 135.2   9.7  34130  289.08 0855.27
2009/04/23 10:15:02.7     314   -198     91    372    384 122.2  13.8  34132  289.10 0855.27
2009/04/23 10:15:02.8     330   -239    143    408    433 126.0  19.4  34132  289.11 0855.27
2009/04/23 10:15:02.9     253   -319    207    408    457 141.6  29.2  34134  289.12 0855.27
2009/04/23 10:15:03.0     398   -396     83    562    569 134.8   8.5  34136  289.16 0855.27
2009/04/23 10:15:03.1     317   -350    115    473    487 137.8  13.7  34136  289.15 0855.27
2009/04/23 10:15:03.2     179   -407    155    445    472 156.2  19.3  34134  289.12 0855.27
2009/04/23 10:15:03.3     157   -412    163    442    471 159.1  21.1  34132  289.11 0855.27
2009/04/23 10:15:03.4     198   -417     23    462    463 154.5   2.9  34130  289.07 0855.27
2009/04/23 10:15:03.5     112   -370     -8    387    388 163.1  -1.3  34132  289.10 0855.27
2009/04/23 10:15:03.6     135   -417     34    439    441 162.1   4.5  34132  289.09 0855.27
2009/04/23 10:15:03.7     118   -413    151    430    455 164.0  20.0  34136  289.17 0855.27
2009/04/23 10:15:03.8      86   -448    124    457    474 169.1  15.2  34134  289.12 0855.27
2009/04/23 10:15:03.9      65   -424     97    429    440 171.2  12.8  34134  289.14 0855.27
2009/04/23 10:15:04.0      61   -411    156    416    444 171.5  21.5  34136  289.17 0855.26
2009/04/23 10:15:04.1      62   -367    161    373    406 170.4  24.9  34148  289.37 0855.26
2009/04/23 10:15:04.2      11   -318    141    319    348 178.0  25.6  34154  289.47 0855.26
2009/04/23 10:15:04.3    -156   -408     92    437    447 201.0  12.0  34148  289.38 0855.26
2009/04/23 10:15:04.4    -139   -457     75    478    485 196.9   9.0  34142  289.28 0855.26
2009/04/23 10:15:04.5    -149   -367    -94    397    409 202.2 -13.4  34138  289.19 0855.26
2009/04/23 10:15:04.6    -174   -401    -10    438    439 203.4  -1.4  34146  289.34 0855.26
2009/04/23 10:15:04.7     -16   -420     43    421    424 182.2   5.9  34146  289.34 0855.26
2009/04/23 10:15:04.8      22   -482    126    483    500 177.3  14.6  34126  289.01 0855.26
2009/04/23 10:15:04.9      29   -415    160    416    445 175.9  22.1  34128  289.02 0855.26
2009/04/23 10:15:05.0     -31   -343    143    345    373 185.3  23.7  34128  289.04 0855.24
2009/04/23 10:15:05.1      -7   -355     14    356    357 181.2   2.4  34132  289.10 0855.24
2009/04/23 10:15:05.2     -30   -365    -68    367    374 184.8 -10.5  34136  289.15 0855.24
2009/04/23 10:15:05.3      41   -374    -74    377    385 173.7 -11.1  34136  289.16 0855.24
2009/04/23 10:15:05.4      78   -437    -53    445    449 169.8  -6.8  34142  289.26 0855.24
2009/04/23 10:15:05.5     -13   -449     19    450    451 181.7   2.5  34142  289.26 0855.24
2009/04/23 10:15:05.6    -117   -370     55    389    394 197.6   8.1  34142  289.28 0855.24
2009/04/23 10:15:05.7      47   -402    -15    405    406 173.2  -2.2  34134  289.12 0855.24
2009/04/23 10:15:05.8     152   -417     -6    445    446 160.0  -0.9  34122  288.92 0855.24
2009/04/23 10:15:05.9      99   -508    179    518    549 168.9  19.1  34134  289.14 0855.24
2009/04/23 10:15:06.0      33   -567     89    569    577 176.6   8.9  34140  289.24 0855.24
2009/04/23 10:15:06.1     -41   -497    143    499    520 184.8  16.0  34140  289.22 0855.24
2009/04/23 10:15:06.2     -42   -478    131    480    498 185.1  15.3  34140  289.23 0855.24
2009/04/23 10:15:06.3     -18   -415    192    416    458 182.6  26.6  34134  289.14 0855.24
2009/04/23 10:15:06.4       0   -482    119    483    498 180.1  13.9  34142  289.28 0855.24
2009/04/23 10:15:06.5      -8   -552    -21    553    554 180.9  -2.2  34148  289.38 0855.24
2009/04/23 10:15:06.6     -36   -570      3    572    573 183.6   0.4  34150  289.39 0855.24
2009/04/23 10:15:06.7       0   -546     -4    547    548 180.0  -0.5  34144  289.29 0855.24
2009/04/23 10:15:06.8     -42   -558    -61    560    564 184.4  -6.2  34132  289.11 0855.24
2009/04/23 10:15:06.9       4   -577    -73    578    583 179.5  -7.2  34134  289.14 0855.24
2009/04/23 10:15:07.0      -8   -550    -12    551    552 180.9  -1.3  34142  289.28 0855.22
2009/04/23 10:15:07.1     -44   -526    -49    528    531 184.8  -5.3  34148  289.38 0855.22
2009/04/23 10:15:07.2     -55   -523    -86    527    535 186.1  -9.3  34140  289.24 0855.22
2009/04/23 10:15:07.3     -71   -534    -72    539    544 187.6  -7.7  34140  289.24 0855.22
2009/04/23 10:15:07.4     -24   -444    -48    445    448 183.2  -6.3  34134  289.12 0855.22
2009/04/23 10:15:07.5     -32   -470   -126    472    489 183.9 -15.0  34142  289.27 0855.22
2009/04/23 10:15:07.6      91   -428    -94    438    449 167.9 -12.2  34128  289.04 0855.22
2009/04/23 10:15:07.7     191   -467    -97    505    515 157.7 -10.9  34128  289.03 0855.22
2009/04/23 10:15:07.8     220   -401   -155    458    483 151.2 -23.7  34134  289.13 0855.22
2009/04/23 10:15:07.9      85   -358   -142    369    395 166.6 -26.4  34136  289.18 0855.22
2009/04/23 10:15:08.0     116   -288   -113    311    330 158.1 -25.1  34138  289.20 0855.22
2009/04/23 10:15:08.1      61   -265    -93    273    289 166.9 -18.9  34144  289.29 0855.22
2009/04/23 10:15:08.2      27   -243    -83    245    258 173.5 -23.6  34142  289.27 0855.22
2009/04/23 10:15:08.3      37   -267   -114    270    293 172.0 -28.6  34142  289.25 0855.22
2009/04/23 10:15:08.4      61   -277    -86    284    296 167.5 -21.7  34144  289.29 0855.22
2009/04/23 10:15:08.5     102   -244    -99    265    282 157.3 -25.7  34138  289.20 0855.22
2009/04/23 10:15:08.6      87   -158    -37    181    185 151.0 -11.6  34134  289.13 0855.22
2009/04/23 10:15:08.7      51   -152     57    161    171 161.3  19.6  34138  289.21 0855.22
2009/04/23 10:15:08.8     106   -176     50    206    213 148.8  13.7  34138  289.19 0855.22
2009/04/23 10:15:08.9     182   -232     23    296    297 141.9   4.6  34140  289.22 0855.22
2009/04/23 10:15:09.0     202   -318     19    377    378 147.6   3.0  34136  289.18 0855.21
2009/04/23 10:15:09.1     242   -307     77    392    400 141.8  11.1  34126  289.01 0855.21
2009/04/23 10:15:09.2     263   -333    -53    425    429 141.7  -7.2  34128  289.04 0855.21
2009/04/23 10:15:09.3     205   -298    -60    362    368 145.5  -9.5  34128  289.03 0855.21
2009/04/23 10:15:09.4      25   -436     43    437    440 176.6   5.7  34134  289.14 0855.21
2009/04/23 10:15:09.5       6   -398    -78    399    407 179.1 -11.1  34134  289.12 0855.21
2009/04/23 10:15:09.6    -138   -396   -137    420    441 199.3 -23.2  34138  289.21 0855.21
2009/04/23 10:15:09.7     -50   -379   -118    383    401 187.6 -17.2  34138  289.21 0855.21
2009/04/23 10:15:09.8     -80   -371   -103    380    394 192.3 -15.2  34142  289.26 0855.21
2009/04/23 10:15:09.9     -37   -366    -84    368    378 185.8 -12.9  34142  289.25 0855.21
2009/04/23 10:15:10.0     -36   -415    -60    417    422 185.1  -8.3  34144  289.29 0855.21
2009/04/23 10:15:10.1     -43   -400    -42    403    406 186.3  -6.1  34140  289.22 0855.21
2009/04/23 10:15:10.2     -94   -322    -64    336    343 196.3 -10.9  34138  289.21 0855.21
2009/04/23 10:15:10.3     -87   -264    -81    279    290 198.3 -21.2  34134  289.14 0855.21
2009/04/23 10:15:10.4    -392   -373    -68    542    547 226.4  -7.2  34136  289.18 0855.21
2009/04/23 10:15:10.5    -456   -400   -263    607    661 228.7 -29.4  34126  289.01 0855.21
2009/04/23 10:15:10.6    -414   -364   -317    552    636 228.7 -36.8  34128  289.02 0855.21
2009/04/23 10:15:10.7    -321   -308   -288    445    530 226.2 -40.3  34130  289.05 0855.21
2009/04/23 10:15:10.8    -272   -162   -135    317    344 239.3 -29.0  34126  289.01 0855.21
2009/04/23 10:15:10.9     -81   -282   -111    294    314 196.0 -26.0  34130  289.05 0855.21
2009/04/23 10:15:11.0    -120   -233    -82    263    275 207.2 -22.1  34130  289.07 0855.21
2009/04/23 10:15:11.1     -52   -302    -90    307    319 189.8 -21.2  34132  289.10 0855.21
2009/04/23 10:15:11.2    -150   -305   -100    340    355 206.2 -16.4  34130  289.08 0855.21
2009/04/23 10:15:11.3    -174   -365    -88    405    415 205.5 -12.4  34132  289.09 0855.21
2009/04/23 10:15:11.4     -84   -374   -114    384    401 192.7 -16.5  34122  288.94 0855.21
2009/04/23 10:15:11.5    -124   -363   -128    384    404 199.0 -23.6  34122  288.94 0855.21
2009/04/23 10:15:11.6    -131   -328   -140    354    380 201.8 -27.3  34126  288.98 0855.21
2009/04/23 10:15:11.7     -43   -401   -147    404    429 186.2 -25.3  34132  289.09 0855.21
2009/04/23 10:15:11.8      28   -389   -147    391    417 175.8 -26.0  34128  289.04 0855.21
2009/04/23 10:15:11.9     109   -336   -162    354    389 162.0 -30.8  34128  289.04 0855.21
2009/04/23 10:15:12.0      23   -341   -161    342    378 176.1 -31.5  34126  289.01 0855.21
2009/04/23 10:15:12.1      43   -308   -164    312    352 172.0 -34.4  34130  289.08 0855.21
2009/04/23 10:15:12.2      -4   -284   -180    285    337 181.0 -39.7  34132  289.10 0855.21
2009/04/23 10:15:12.3      30   -259   -140    261    296 173.3 -35.0  34128  289.03 0855.21
2009/04/23 10:15:12.4      53   -281    -57    287    293 169.3 -11.3  34130  289.07 0855.21
2009/04/23 10:15:12.5      16   -211    -59    212    221 175.6 -15.5  34130  289.08 0855.21
2009/04/23 10:15:12.6     102   -260    -82    280    291 158.6 -21.5  34130  289.05 0855.21
2009/04/23 10:15:12.7      48   -279    -32    284    286 170.2  -6.5  34132  289.09 0855.21
2009/04/23 10:15:12.8      32   -214    -77    217    231 171.5 -19.6  34130  289.06 0855.21
2009/04/23 10:15:12.9      71   -324   -148    332    363 167.6 -30.1  34132  289.11 0855.21
2009/04/23 10:15:13.0      73   -313   -157    322    358 166.7 -32.3  34132  289.10 0855.22
2009/04/23 10:15:13.1     110   -214   -149    241    283 152.6 -39.2  34132  289.10 0855.22
2009/04/23 10:15:13.2      83   -146    -51    169    177 150.4 -17.0  34130  289.06 0855.22
2009/04/23 10:15:13.3      46   -131     38    140    146 160.4  15.3  34130  289.06 0855.22
2009/04/23 10:15:13.4      98   -136      6    168    169 144.2   2.3  34130  289.08 0855.22
2009/04/23 10:15:13.5     106   -161     17    194    195 146.6   5.2  34132  289.11 0855.22
2009/04/23 10:15:13.6      44   -256     23    260    262 170.2   5.2  34132  289.09 0855.22
2009/04/23 10:15:13.7     100   -250     42    270    274 158.2   9.0  34130  289.07 0855.22
2009/04/23 10:15:13.8      20   -270     13    271    272 175.6   2.9  34132  289.09 0855.22
2009/04/23 10:15:13.9      56   -286      3    292    293 168.9   0.7  34132  289.10 0855.22
2009/04/23 10:15:14.0      26   -324     59    326    332 175.4  10.3  34136  289.15 0855.22
2009/04/23 10:15:14.1       1   -309     51    310    315 179.8   9.3  34132  289.09 0855.22
2009/04/23 10:15:14.2      61   -279    127    286    312 167.5  25.3  34132  289.09 0855.22
2009/04/23 10:15:14.3      13   -382     40    383    386 178.0   6.0  34128  289.04 0855.22
2009/04/23 10:15:14.4      14   -343     42    344    347 177.5   7.1  34132  289.10 0855.22
2009/04/23 10:15:14.5     156   -295     16    334    335 152.1   2.9  34128  289.04 0855.22
2009/04/23 10:15:14.6     170   -234    -14    290    291 144.0  -2.8  34128  289.03 0855.22
2009/04/23 10:15:14.7      85   -256     55    270    276 161.5  11.6  34126  289.00 0855.22
2009/04/23 10:15:14.8      23   -254      2    256    257 174.7   0.5  34132  289.10 0855.22
2009/04/23 10:15:14.9      44   -264     52    268    274 170.4  11.1  34134  289.12 0855.22
2009/04/23 10:15:15.0     -28   -308     51    310    315 185.3   9.5  34130  289.05 0855.22
2009/04/23 10:15:15.1     -46   -365     25    368    369 187.2   4.0  34128  289.03 0855.22
2009/04/23 10:15:15.2      -7   -452     88    453    462 181.0  11.0  34128  289.02 0855.22
2009/04/23 10:15:15.3     -23   -426     38    427    429 183.2   5.2  34130  289.05 0855.22
2009/04/23 10:15:15.4     -18   -398    108    399    414 182.6  15.2  34124  288.95 0855.22
2009/04/23 10:15:15.5       7   -345     54    346    351 178.8   8.9  34128  289.04 0855.22
2009/04/23 10:15:15.6      -8   -343     66    344    351 181.4  11.0  34128  289.04 0855.22
2009/04/23 10:15:15.7      18   -330     47    331    335 176.8   8.1  34132  289.11 0855.22
2009/04/23 10:15:15.8      -3   -338     10    339    340 180.6   1.8  34130  289.06 0855.22
2009/04/23 10:15:15.9     -74   -355    -73    363    371 191.8 -11.5  34130  289.08 0855.22
2009/04/23 10:15:16.0     -87   -343   -114    354    373 194.3 -17.9  34134  289.13 0855.22
2009/04/23 10:15:16.1    -209   -430     36    479    481 206.0   4.4  34136  289.15 0855.22
2009/04/23 10:15:16.2    -193   -567    -65    600    604 198.8  -6.2  34134  289.14 0855.22
2009/04/23 10:15:16.3    -119   -416     21    433    434 196.0   2.8  34144  289.29 0855.22
2009/04/23 10:15:16.4     -73   -464     46    470    473 189.0   5.7  34148  289.37 0855.22
2009/04/23 10:15:16.5    -125   -396     15    416    417 197.5   2.1  34150  289.41 0855.22
2009/04/23 10:15:16.6    -126   -352     53    375    379 199.8   8.1  34148  289.37 0855.22
2009/04/23 10:15:16.7     -42   -411     -1    414    415 185.9  -0.3  34144  289.31 0855.22
2009/04/23 10:15:16.8     -86   -409    183    419    457 191.9  25.1  34146  289.34 0855.22
2009/04/23 10:15:16.9    -211   -335     -8    397    398 212.2  -1.2  34144  289.30 0855.22
2009/04/23 10:15:17.0    -145   -317     12    349    350 204.6   2.1  34150  289.40 0855.21
2009/04/23 10:15:17.1     -54   -266     15    272    273 191.6   3.3  34144  289.31 0855.21
2009/04/23 10:15:17.2      82   -247    123    261    288 161.5  27.1  34142  289.27 0855.21
2009/04/23 10:15:17.3      53   -301    114    306    326 170.0  21.4  34148  289.37 0855.21
2009/04/23 10:15:17.4      68   -254    164    264    310 164.9  35.5  34148  289.36 0855.21
2009/04/23 10:15:17.5     -49   -232    138    238    275 192.0  32.9  34146  289.32 0855.21
2009/04/23 10:15:17.6     -89   -233     -9    250    251 200.9  -2.2  34146  289.32 0855.21
2009/04/23 10:15:17.7    -126   -295    -36    321    324 203.2  -6.5  34144  289.31 0855.21
2009/04/23 10:15:17.8     -88   -388    108    398    413 192.8  15.3  34144  289.31 0855.21
2009/04/23 10:15:17.9     -17   -379    150    380    408 182.6  22.7  34146  289.32 0855.21
2009/04/23 10:15:18.0     -37   -380     87    382    392 185.7  12.9  34142  289.26 0855.21
2009/04/23 10:15:18.1      47   -323    225    327    396 171.7  37.9  34142  289.26 0855.21
2009/04/23 10:15:18.2      77   -376    218    385    442 168.3  32.0  34146  289.33 0855.21
2009/04/23 10:15:18.3     -24   -407    158    408    437 183.5  22.3  34142  289.26 0855.21
2009/04/23 10:15:18.4      44   -367    138    370    394 173.1  21.4  34136  289.15 0855.21
2009/04/23 10:15:18.5     102   -297    122    315    337 161.1  22.3  34142  289.28 0855.21
2009/04/23 10:15:18.6     115   -395    127    412    432 163.7  17.2  34142  289.27 0855.21
2009/04/23 10:15:18.7     148   -406     90    433    443 160.0  11.8  34144  289.29 0855.21
2009/04/23 10:15:18.8     158   -324    116    361    380 154.0  17.9  34144  289.30 0855.21
2009/04/23 10:15:18.9      73   -325     90    334    347 167.2  15.1  34146  289.32 0855.21
2009/04/23 10:15:19.0      36   -260     47    263    268 172.0  10.1  34142  289.27 0855.21
2009/04/23 10:15:19.1      63   -199     12    209    210 162.4   3.3  34142  289.28 0855.21
2009/04/23 10:15:19.2      34   -180     26    184    186 169.1   8.2  34144  289.30 0855.21
2009/04/23 10:15:19.3      18   -130      8    132    133 172.0   3.8  34142  289.28 0855.21
2009/04/23 10:15:19.4      36   -176      9    180    181 168.4   2.9  34144  289.30 0855.21
2009/04/23 10:15:19.5      32   -170     35    174    178 169.3  11.6  34144  289.31 0855.21
2009/04/23 10:15:19.6       0   -158     59    159    169 180.0  21.0  34144  289.31 0855.21
2009/04/23 10:15:19.7      61   -180     74    191    204 161.3  22.0  34146  289.33 0855.21
2009/04/23 10:15:19.8     126   -251     68    281    290 153.3  13.7  34146  289.32 0855.21
2009/04/23 10:15:19.9     132   -189    -34    231    234 145.0  -8.6  34146  289.34 0855.21
2009/04/23 10:15:20.0     103   -176    -19    205    206 149.7  -5.4  34146  289.33 0855.21
2009/04/23 10:15:20.1      99   -135    -34    168    172 143.7 -11.5  34148  289.36 0855.21
2009/04/23 10:15:20.2      84   -116    -35    144    149 144.0 -13.9  34148  289.38 0855.21
2009/04/23 10:15:20.3     188   -130    -45    229    234 124.6 -11.3  34148  289.36 0855.21
2009/04/23 10:15:20.4     230   -161    -78    281    292 125.0 -15.5  34146  289.34 0855.21
2009/04/23 10:15:20.5     206   -213     25    297    299 135.9   5.0  34138  289.19 0855.21
2009/04/23 10:15:20.6     193   -166     54    255    261 130.7  12.0  34142  289.25 0855.21
2009/04/23 10:15:20.7     215   -157     32    267    269 126.2   6.9  34144  289.31 0855.21
2009/04/23 10:15:20.8     180   -149    107    234    257 129.6  26.2  34148  289.36 0855.21
2009/04/23 10:15:20.9     177   -117    127    213    247 123.5  33.7  34146  289.34 0855.21
2009/04/23 10:15:21.0     124   -120    115    173    207 134.2  36.7  34148  289.36 0855.22
2009/04/23 10:15:21.1      42   -163    119    169    206 165.3  38.6  34148  289.36 0855.22
2009/04/23 10:15:21.2      13   -168    102    169    197 175.3  33.7  34144  289.31 0855.22
2009/04/23 10:15:21.3     -15   -174    106    175    204 185.1  34.2  34148  289.36 0855.22
2009/04/23 10:15:21.4      48   -235    147    240    281 168.4  34.4  34146  289.32 0855.22
2009/04/23 10:15:21.5     -24   -317    133    319    345 184.5  23.9  34144  289.30 0855.22
2009/04/23 10:15:21.6      14   -318    111    319    338 177.4  19.2  34146  289.35 0855.22
2009/04/23 10:15:21.7      53   -196     39    204    208 164.9  11.0  34138  289.19 0855.22
2009/04/23 10:15:21.8     -45   -236    136    241    276 190.9  31.9  34148  289.36 0855.22
2009/04/23 10:15:21.9     -19   -310    150    311    345 183.6  27.3  34146  289.35 0855.22
2009/04/23 10:15:22.0      54   -341    125    346    367 170.9  20.7  34148  289.38 0855.22
2009/04/23 10:15:22.1      97   -246    124    265    292 158.4  27.1  34148  289.36 0855.22
2009/04/23 10:15:22.2     -10   -365    173    366    404 181.6  27.1  34146  289.35 0855.22
2009/04/23 10:15:22.3      57   -419    118    423    440 172.2  15.6  34150  289.41 0855.22
2009/04/23 10:15:22.4    -107   -423    -17    437    438 194.3  -2.2  34144  289.31 0855.22
2009/04/23 10:15:22.5    -144   -281     44    316    320 207.2   8.0  34150  289.39 0855.22
2009/04/23 10:15:22.6     -70   -410     65    416    422 189.7   8.9  34148  289.38 0855.22
2009/04/23 10:15:22.7     -77   -427    153    434    460 190.3  20.1  34146  289.33 0855.22
2009/04/23 10:15:22.8     -69   -329    191    337    387 191.9  32.0  34148  289.37 0855.22
2009/04/23 10:15:22.9       0   -412     10    413    414 180.0   1.5  34146  289.34 0855.22
2009/04/23 10:15:23.0      52   -669     87    672    678 175.5   7.4  34146  289.32 0855.23
2009/04/23 10:15:23.1      44   -560    150    562    582 175.4  15.0  34148  289.37 0855.23
2009/04/23 10:15:23.2    -108   -491     38    503    505 192.5   4.4  34142  289.27 0855.23
2009/04/23 10:15:23.3    -194   -579     69    612    616 198.6   6.5  34150  289.39 0855.23
2009/04/23 10:15:23.4    -122   -772    209    782    810 189.0  15.0  34148  289.37 0855.23
2009/04/23 10:15:23.5      20   -697    320    698    767 178.3  26.4  34146  289.34 0855.23
2009/04/23 10:15:23.6      85   -593    136    600    616 171.8  12.8  34144  289.30 0855.23
2009/04/23 10:15:23.7     273   -383    151    471    495 144.5  17.8  34144  289.30 0855.23
2009/04/23 10:15:23.8     305   -405    171    508    537 143.0  18.6  34138  289.21 0855.23
2009/04/23 10:15:23.9     243   -364     61    438    443 146.3   8.0  34138  289.21 0855.23
2009/04/23 10:15:24.0     219   -342     50    407    411 147.4   7.1  34142  289.26 0855.23
2009/04/23 10:15:24.1      84   -210    173    227    285 158.1  41.6  34144  289.31 0855.23
2009/04/23 10:15:24.2      -5   -288      4    289    290 181.1   0.8  34140  289.22 0855.23
2009/04/23 10:15:24.3     -48   -438    120    441    458 186.3  15.3  34148  289.36 0855.23
2009/04/23 10:15:24.4    -170   -446    129    478    496 201.0  15.2  34142  289.25 0855.23
2009/04/23 10:15:24.5     -58   -627     48    630    632 185.3   4.4  34146  289.33 0855.23
2009/04/23 10:15:24.6    -108   -639     18    649    650 189.6   1.6  34160  289.57 0855.23
2009/04/23 10:15:24.7     -82   -587     36    593    595 188.0   3.5  34154  289.47 0855.23
2009/04/23 10:15:24.8      28   -477   -141    478    498 176.6 -21.2  34156  289.52 0855.23
2009/04/23 10:15:24.9     -40   -412    -16    415    416 185.6  -2.2  34150  289.41 0855.23
2009/04/23 10:15:25.0       0   -296     64    297    304 180.0  12.2  34150  289.39 0855.24
2009/04/23 10:15:25.1     218   -314     73    383    390 145.2  10.8  34154  289.48 0855.24
2009/04/23 10:15:25.2     228   -266    129    351    373 139.4  21.1  34154  289.47 0855.24
2009/04/23 10:15:25.3     271   -271     55    384    389 135.0   8.2  34154  289.47 0855.24
2009/04/23 10:15:25.4     266   -431     10    507    508 148.3   1.2  34152  289.44 0855.24
2009/04/23 10:15:25.5     295   -374    172    477    508 141.7  19.9  34142  289.28 0855.24
2009/04/23 10:15:25.6     348   -573    104    671    679 148.7   8.8  34126  288.99 0855.24
2009/04/23 10:15:25.7     141   -386    377    412    558 159.9  47.1  34152  289.42 0855.24
2009/04/23 10:15:25.8      24   -385    341    386    515 176.4  45.9  34156  289.50 0855.24
2009/04/23 10:15:25.9     139   -442    270    464    536 162.5  32.9  34150  289.40 0855.24
2009/04/23 10:15:26.0     119   -330    349    351    494 160.1  50.0  34152  289.44 0855.25
2009/04/23 10:15:26.1     133   -446    447    466    645 163.3  48.7  34152  289.44 0855.25
2009/04/23 10:15:26.2     114   -429    394    444    593 165.1  46.2  34158  289.53 0855.25
2009/04/23 10:15:26.3     166   -413    344    446    563 158.1  41.6  34144  289.31 0855.25
2009/04/23 10:15:26.4     207   -438    396    485    626 154.6  43.4  34152  289.42 0855.25
2009/04/23 10:15:26.5     221   -297    409    371    552 143.3  53.2  34150  289.39 0855.25
2009/04/23 10:15:26.6     116   -302    332    324    463 159.0  50.8  34150  289.39 0855.25
2009/04/23 10:15:26.7      42   -504    221    506    552 175.2  25.1  34140  289.24 0855.25
2009/04/23 10:15:26.9      49   -458    325    461    564 173.8  38.6  34146  289.35 0855.25
2009/04/23 10:15:26.9     157   -476    197    502    539 161.7  22.7  34148  289.36 0855.25
2009/04/23 10:15:27.0      58   -407     52    412    416 171.9   7.2  34156  289.51 0855.25
2009/04/23 10:15:27.1      36   -472    134    474    493 175.5  15.8  34148  289.37 0855.25
2009/04/23 10:15:27.2     166   -392    181    426    462 157.1  24.3  34148  289.36 0855.25
2009/04/23 10:15:27.3     306   -160    118    346    366 117.7  18.9  34152  289.42 0855.25
2009/04/23 10:15:27.5     334   -104    155    350    382 107.3  25.6  34154  289.48 0855.25
2009/04/23 10:15:27.6     124   -343     74    365    373 160.1  11.5  34152  289.42 0855.25
2009/04/23 10:15:27.7     120   -392    143    410    435 163.0  19.3  34154  289.46 0855.25
2009/04/23 10:15:27.8      27   -114     67    118    135 166.6  32.4  34144  289.31 0855.25
2009/04/23 10:15:27.9     -42     26    206     50    211 302.4  86.7  34162  289.62 0855.25
2009/04/23 10:15:28.0      46    -43    155     64    167 133.1  76.6  34170  289.74 0855.25
2009/04/23 10:15:28.1      57   -362    178    367    407 171.0  27.8  34150  289.40 0855.27
2009/04/23 10:15:28.2     -24   -363     90    364    375 183.9  13.9  34148  289.38 0855.27
2009/04/23 10:15:28.3      70   -315     62    323    330 167.3  11.0  34146  289.34 0855.27
2009/04/23 10:15:28.4      18   -206    178    207    273 174.9  45.1  34144  289.31 0855.27
2009/04/23 10:15:28.5       3   -356    252    357    436 179.4  38.6  34150  289.41 0855.27
2009/04/23 10:15:28.6       0   -456    263    457    527 180.0  32.6  34142  289.28 0855.27
2009/04/23 10:15:28.7     -24   -367    336    368    498 183.8  47.0  34150  289.39 0855.27
2009/04/23 10:15:28.8      21   -217    259    219    339 174.4  55.6  34156  289.51 0855.27
2009/04/23 10:15:28.9     -25     -5    229     26    230 256.7  90.0  34166  289.67 0855.27
2009/04/23 10:15:29.0     -34   -216    294    219    366 189.1  59.8  34150  289.41 0855.27
2009/04/23 10:15:29.1     -38   -256    257    259    364 188.5  50.0  34152  289.43 0855.27
2009/04/23 10:15:29.2      36   -288    273    291    399 172.8  48.0  34154  289.48 0855.27
2009/04/23 10:15:29.3     -15   -206    175    207    271 184.4  44.5  34148  289.36 0855.27
2009/04/23 10:15:29.4      25   -287    274    289    398 174.9  48.5  34146  289.33 0855.27
2009/04/23 10:15:29.5     -31   -283    254    285    381 186.3  46.3  34142  289.28 0855.27
2009/04/23 10:15:29.6      95      5    143     96    172  87.0  63.4  34164  289.63 0855.27
2009/04/23 10:15:29.7     137     75     66    157    170  61.1  24.1  34160  289.58 0855.27
2009/04/23 10:15:29.8     146     72     64    163    175  63.6  22.0  34156  289.52 0855.27
2009/04/23 10:15:29.9     152    -45    125    159    202 106.8  42.0  34152  289.43 0855.27
2009/04/23 10:15:30.0     122     17    186    124    223  82.1  63.4  34156  289.52 0855.27
2009/04/23 10:15:30.1     118     98    196    154    249  50.4  57.7  34158  289.55 0855.28
2009/04/23 10:15:30.2     -34    -58    127     68    144 210.7  69.3  34168  289.70 0855.28
2009/04/23 10:15:30.3    -189    -48    -86    196    214 255.6 -29.6  34154  289.46 0855.28
2009/04/23 10:15:30.4    -250    -43   -298    254    391 260.1 -59.8  34122  288.94 0855.28
2009/04/23 10:15:30.5    -330   -210   -297    392    491 237.5 -45.3  34118  288.85 0855.28
2009/04/23 10:15:30.6    -233   -487   -188    541    572 205.6 -24.3  34126  289.01 0855.28
2009/04/23 10:15:30.7     -49   -425   -212    428    477 186.7 -32.6  34114  288.78 0855.28
2009/04/23 10:15:30.8      10   -516    141    517    536 178.8  15.3  34118  288.87 0855.28
2009/04/23 10:15:30.9    -291   -687     -7    747    748 202.9  -0.6  34112  288.77 0855.28
2009/04/23 10:15:31.0    -105   -470     63    482    487 192.6   7.5  34116  288.83 0855.28
2009/04/23 10:15:31.1     -82   -329    342    340    482 194.1  50.1  34146  289.34 0855.28
2009/04/23 10:15:31.2     -82   -342    267    352    441 193.6  41.1  34154  289.46 0855.28
2009/04/23 10:15:31.3     -14   -228    211    229    311 183.6  47.9  34142  289.27 0855.28
2009/04/23 10:15:31.4      62   -189    263    200    330 161.7  59.1  34146  289.34 0855.28
2009/04/23 10:15:31.5     -99    -90    225    134    261 227.8  66.7  34150  289.40 0855.28
2009/04/23 10:15:31.6    -222   -316    205    387    437 215.1  30.2  34144  289.29 0855.28
2009/04/23 10:15:31.7    -313   -354    165    473    502 221.5  19.3  34138  289.20 0855.28
2009/04/23 10:15:31.8    -425   -311     96    527    536 233.8  10.3  34134  289.13 0855.28
2009/04/23 10:15:31.9    -411   -348    109    539    550 229.7  11.4  34138  289.19 0855.28
2009/04/23 10:15:32.0    -420   -341     99    542    551 230.9  10.4  34144  289.29 0855.28
2009/04/23 10:15:32.1    -407   -235    151    471    495 240.0  17.8  34136  289.17 0855.30
2009/04/23 10:15:32.2    -345   -416    146    541    561 219.6  15.1  34160  289.57 0855.30
2009/04/23 10:15:32.3    -307   -606   -170    680    701 206.9 -14.1  34152  289.43 0855.30
2009/04/23 10:15:32.4    -164   -349    -49    386    390 205.2  -7.3  34156  289.50 0855.30
2009/04/23 10:15:32.5    -148   -130   -180    198    267 228.7 -51.5  34158  289.53 0855.30
2009/04/23 10:15:32.6    -149   -477     98    500    510 197.4  11.1  34168  289.71 0855.30
2009/04/23 10:15:32.7    -518   -557    -51    761    763 222.9  -3.9  34164  289.63 0855.30
2009/04/23 10:15:32.8    -330   -440    187    551    583 216.9  18.8  34148  289.36 0855.30
2009/04/23 10:15:32.9    -253   -498    249    559    611 207.0  25.7  34146  289.34 0855.30
2009/04/23 10:15:33.0    -171   -450    417    482    637 200.8  45.2  34160  289.58 0855.30
2009/04/23 10:15:33.1    -167   -467     87    497    505 199.7  10.0  34156  289.52 0855.30
2009/04/23 10:15:33.2    -111   -412    105    427    440 195.2  13.9  34164  289.65 0855.30
2009/04/23 10:15:33.3    -135   -279    159    311    349 205.9  29.2  34172  289.77 0855.30
2009/04/23 10:15:33.4    -109   -124    225    166    279 221.2  60.3  34178  289.86 0855.30
2009/04/23 10:15:33.5     -39   -140     87    146    169 195.6  33.7  34184  289.99 0855.30
2009/04/23 10:15:33.6      25    -61    142     67    157 157.3  73.2  34174  289.80 0855.30
2009/04/23 10:15:33.7      17   -178    209    179    275 174.4  55.0  34160  289.58 0855.30
2009/04/23 10:15:33.8      23     37    112     44    120  32.5  77.1  34178  289.89 0855.30
2009/04/23 10:15:33.9     -53     84    184    100    209 327.5  69.1  34172  289.79 0855.30
2009/04/23 10:15:34.0     -28     31    121     42    128 317.7  80.7  34166  289.69 0855.30
2009/04/23 10:15:34.1     -97    -92    148    134    199 226.4  53.3  34166  289.67 0855.31
2009/04/23 10:15:34.2     -81    -17    112     83    139 258.1  60.5  34170  289.74 0855.31
2009/04/23 10:15:34.3     -46      9    115     47    124 281.5  77.1  34170  289.75 0855.31
2009/04/23 10:15:34.4      17    -62    123     65    139 164.8  69.8  34162  289.60 0855.31
2009/04/23 10:15:34.5      29     59    132     66    147  26.3  71.9  34174  289.82 0855.31
2009/04/23 10:15:34.6     -16      5     91     17     92 288.6  89.6  34172  289.79 0855.31
2009/04/23 10:15:34.7      22     22     90     32     95  45.0  80.7  34174  289.80 0855.31
2009/04/23 10:15:34.8     -45     45     55     65     85 315.0  44.8  34170  289.75 0855.31
2009/04/23 10:15:34.9     -71    105     59    128    140 325.8  26.6  34160  289.58 0855.31
2009/04/23 10:15:35.0     -93    197    141    219    260 334.6  35.6  34158  289.54 0855.31
2009/04/23 10:15:35.1      87    197    171    216    275  23.8  42.4  34148  289.36 0855.31
2009/04/23 10:15:35.2      96    196    140    219    259  26.1  35.6  34152  289.44 0855.31
2009/04/23 10:15:35.3      44     53    135     70    152  39.7  70.8  34160  289.57 0855.31
2009/04/23 10:15:35.4     106    -26     82    110    137 104.2  40.7  34156  289.52 0855.31
2009/04/23 10:15:35.5     112    -67      5    131    132 121.1   2.3  34158  289.53 0855.31
2009/04/23 10:15:35.6      88    -32     25     94     98 110.0  15.2  34166  289.69 0855.31
2009/04/23 10:15:35.7     112     57     51    126    135  62.9  23.0  34174  289.82 0855.31
2009/04/23 10:15:35.8      89     87     82    125    149  45.6  35.6  34180  289.91 0855.31
2009/04/23 10:15:35.9      67     89     48    112    121  37.0  24.6  34170  289.75 0855.31
2009/04/23 10:15:36.0      48     53     63     72     95  42.3  45.8  34178  289.89 0855.31
2009/04/23 10:15:36.1      75    146    199    165    258  27.4  56.3  34186  290.02 0855.30
2009/04/23 10:15:36.2     272    104    222    292    366  69.1  41.2  34180  289.91 0855.30
2009/04/23 10:15:36.3     341    132    240    366    437  68.8  36.4  34188  290.04 0855.30
2009/04/23 10:15:36.4     263    252    233    365    433  46.3  35.6  34220  290.60 0855.30
2009/04/23 10:15:36.5     290    182    189    343    391  57.9  31.3  34218  290.55 0855.30
2009/04/23 10:15:36.6     431    278    376    514    636  57.1  39.9  34184  289.97 0855.30
2009/04/23 10:15:36.7     542    174    298    570    643  72.2  29.9  34186  290.01 0855.30
2009/04/23 10:15:36.8     470    250    265    533    595  62.0  28.2  34180  289.90 0855.30
2009/04/23 10:15:36.9     584    194    232    616    658  71.6  21.7  34188  290.03 0855.30
2009/04/23 10:15:37.0     429    125    349    447    567  73.7  41.9  34184  289.97 0855.30
2009/04/23 10:15:37.1     395    280    216    485    530  54.6  25.6  34202  290.29 0855.30
2009/04/23 10:15:37.2     439    158    278    467    543  70.1  33.5  34218  290.55 0855.30
2009/04/23 10:15:37.3     546    240    405    597    721  66.3  37.4  34218  290.55 0855.30
2009/04/23 10:15:37.4     714    243    109    755    763  71.2   8.2  34188  290.04 0855.30
2009/04/23 10:15:37.5     617    274    305    676    741  66.0  25.9  34214  290.50 0855.30
2009/04/23 10:15:37.6     526    218    260    570    626  67.4  26.3  34170  289.75 0855.30
2009/04/23 10:15:37.7     605    204    293    639    702  71.3  26.3  34252  291.14 0855.30
2009/04/23 10:15:37.8     681    320    295    753    808  64.8  22.5  34242  290.97 0855.30
2009/04/23 10:15:37.9     753    295    274    809    855  68.6  18.7  34240  290.94 0855.30
2009/04/23 10:15:38.0     829    216    191    857    879  75.4  12.6  34200  290.25 0855.30
2009/04/23 10:15:38.1     757    122    208    767    795  80.8  15.2  34188  290.03 0855.29
2009/04/23 10:15:38.2     770    145    163    784    802  79.3  11.8  34202  290.27 0855.29
2009/04/23 10:15:38.3     831    168    204    848    873  78.6  13.6  34186  290.00 0855.29
2009/04/23 10:15:38.4     776    115     39    785    787  81.5   2.9  34196  290.19 0855.29
2009/04/23 10:15:38.5     667     52     95    670    677  85.5   8.1  34194  290.14 0855.29
2009/04/23 10:15:38.6     682     39    234    684    724  86.7  18.9  34162  289.59 0855.29
2009/04/23 10:15:38.7     661     32    230    662    702  87.2  19.2  34176  289.83 0855.29
2009/04/23 10:15:38.8     695     64    219    699    733  84.7  17.4  34178  289.86 0855.29
2009/04/23 10:15:38.9     634      0    299    635    701  90.0  27.1  34158  289.54 0855.29
2009/04/23 10:15:39.0     573      3    246    574    624  89.6  24.6  34164  289.64 0855.29
2009/04/23 10:15:39.1     592     50    241    595    641  85.1  23.4  34154  289.47 0855.29
2009/04/23 10:15:39.2     543     70    170    548    574  82.6  17.3  34160  289.58 0855.29
2009/04/23 10:15:39.3     457     77    209    464    508  80.4  25.8  34162  289.62 0855.29
2009/04/23 10:15:39.4     291   -116    153    314    349 111.8  27.8  34188  290.04 0855.29
2009/04/23 10:15:39.5     351   -149    171    382    418 113.1  25.8  34186  290.02 0855.29
2009/04/23 10:15:39.6     358   -178     75    400    408 116.5  10.7  34196  290.19 0855.29
2009/04/23 10:15:39.7     286   -273    164    396    428 133.7  23.8  34192  290.12 0855.29
2009/04/23 10:15:39.8     233   -225    155    325    360 134.0  27.3  34178  289.86 0855.29
2009/04/23 10:15:39.9     333   -168    179    374    414 116.8  27.3  34162  289.60 0855.29
2009/04/23 10:15:40.0     357   -188    219    404    459 117.8  30.9  34168  289.70 0855.29
2009/04/23 10:15:40.1     273   -213    185    347    393 127.9  30.3  34194  290.15 0855.30
2009/04/23 10:15:40.2     271   -255    111    373    390 133.2  16.6  34162  289.59 0855.30
2009/04/23 10:15:40.3     277   -286    109    399    414 136.0  15.4  34166  289.68 0855.30
2009/04/23 10:15:40.4     213   -262    230    338    408 140.9  37.4  34192  290.11 0855.30
2009/04/23 10:15:40.5      44    -36    159     58    169 129.5  79.5  34188  290.06 0855.30
2009/04/23 10:15:40.6      48   -199    100    205    228 166.2  27.4  34178  289.87 0855.30
2009/04/23 10:15:40.7     239   -321    120    401    419 143.3  16.7  34164  289.63 0855.30
2009/04/23 10:15:40.8     290   -207    218    357    418 125.6  34.4  34166  289.67 0855.30
2009/04/23 10:15:40.9     176   -172    248    247    350 134.4  49.9  34192  290.10 0855.30
2009/04/23 10:15:41.0     148   -115    206    188    278 128.0  52.7  34184  289.97 0855.30
2009/04/23 10:15:41.1      66    -24    138     71    155 110.0  70.8  34214  290.48 0855.30
2009/04/23 10:15:41.2     201    -15    138    202    244  94.4  37.6  34174  289.82 0855.30
2009/04/23 10:15:41.3      82     81    159    116    196  45.1  60.5  34192  290.11 0855.30
2009/04/23 10:15:41.4     101     73    140    125    187  54.0  53.7  34186  290.02 0855.30
2009/04/23 10:15:41.5      68     11    151     69    166  80.3  73.8  34178  289.89 0855.30
2009/04/23 10:15:41.6     -10     63    152     64    164 350.2  76.1  34174  289.82 0855.30
2009/04/23 10:15:41.7      35     54    213     65    222  33.4  82.5  34168  289.70 0855.30
2009/04/23 10:15:41.8     252    120    209    280    349  64.6  40.4  34154  289.46 0855.30
2009/04/23 10:15:41.9     187     62    186    198    271  71.6  48.0  34138  289.19 0855.30
2009/04/23 10:15:42.0     204    152    149    255    295  53.4  33.1  34128  289.02 0855.30
2009/04/23 10:15:42.1     175    214    135    277    308  39.4  27.8  34138  289.20 0855.32
2009/04/23 10:15:42.2     166    200    123    261    288  39.6  27.1  34160  289.56 0855.32
2009/04/23 10:15:42.3     110    206     63    234    243  28.1  15.2  34158  289.54 0855.32
2009/04/23 10:15:42.4      25    113    134    116    177  12.5  54.6  34158  289.53 0855.32
2009/04/23 10:15:42.5     100     49     84    112    140  63.8  40.7  34166  289.67 0855.32
2009/04/23 10:15:42.6      47     15     76     50     90  71.8  63.6  34174  289.80 0855.32
2009/04/23 10:15:42.7      96     38     87    104    135  68.3  43.8  34176  289.84 0855.32
2009/04/23 10:15:42.8      16     59     90     62    109  15.2  62.1  34182  289.94 0855.32
2009/04/23 10:15:42.9      87    105     56    137    148  39.6  23.1  34172  289.79 0855.32
2009/04/23 10:15:43.0     129    178     53    221    228  36.0  13.5  34164  289.63 0855.32
2009/04/23 10:15:43.1     149    234     28    278    280  32.5   5.9  34154  289.47 0855.32
2009/04/23 10:15:43.2     -21    210    -83    212    227 354.2 -27.2  34146  289.35 0855.32
2009/04/23 10:15:43.3      35    106   -102    112    151  18.5 -52.3  34144  289.31 0855.32
2009/04/23 10:15:43.4      18    102   -119    104    158  10.2 -58.7  34146  289.35 0855.32
2009/04/23 10:15:43.5     -42    147   -123    153    196 344.0 -47.7  34148  289.36 0855.32
2009/04/23 10:15:43.6     -27    114    -74    118    139 346.6 -39.9  34154  289.48 0855.32
2009/04/23 10:15:43.7      -6    138   -122    139    184 357.3 -50.2  34148  289.36 0855.32
2009/04/23 10:15:43.8      18     81   -115     84    142  12.9 -64.9  34152  289.43 0855.32
2009/04/23 10:15:43.9     135    111   -107    175    205  50.5 -38.8  34154  289.48 0855.32
2009/04/23 10:15:44.0     156    129    -75    203    216  50.4 -25.7  34154  289.48 0855.32
2009/04/23 10:15:44.1     214    122    -94    247    264  60.2 -26.1  34150  289.39 0855.32
2009/04/23 10:15:44.2     242    103    -64    264    272  66.9 -13.7  34152  289.44 0855.32
2009/04/23 10:15:44.3     261    102    -39    281    284  68.7  -8.0  34194  290.14 0855.32
2009/04/23 10:15:44.4     301    205    -32    365    367  55.8  -5.1  34194  290.15 0855.32
2009/04/23 10:15:44.5     255    161    179    302    351  57.6  33.5  34198  290.20 0855.32
2009/04/23 10:15:44.6     212    149    103    260    279  54.9  22.8  34188  290.05 0855.32
2009/04/23 10:15:44.7     213    -11    116    214    243  93.0  31.0  34186  290.00 0855.32
2009/04/23 10:15:44.8      81     -5     -6     82     83  93.9  -4.6  34182  289.96 0855.32
2009/04/23 10:15:44.9     207    -26    -82    209    224  97.2 -26.9  34184  289.99 0855.32
2009/04/23 10:15:45.0     293    -72     61    302    309 103.9  11.6  34178  289.86 0855.32
2009/04/23 10:15:45.1     575    -69    135    580    596  96.9  13.1  34156  289.51 0855.32
2009/04/23 10:15:45.2     548    -71     77    553    559  97.5   8.0  34154  289.48 0855.32
2009/04/23 10:15:45.3     447     33    101    449    461  85.7  12.8  34142  289.26 0855.32
2009/04/23 10:15:45.4     442    104    222    455    506  76.7  27.8  34140  289.22 0855.32
2009/04/23 10:15:45.5     471     20    202    472    513  87.5  24.6  34152  289.42 0855.32
2009/04/23 10:15:45.6     386   -275    130    475    493 125.5  15.4  34156  289.49 0855.32
2009/04/23 10:15:45.7     270   -313     86    414    423 139.2  11.8  34154  289.46 0855.32
2009/04/23 10:15:45.8     314   -334     43    459    462 136.8   5.4  34156  289.49 0855.32
2009/04/23 10:15:45.9     324   -320    153    456    482 134.6  18.6  34160  289.56 0855.32
2009/04/23 10:15:46.0     367   -214    187    426    465 120.3  25.2  34152  289.44 0855.32
2009/04/23 10:15:46.1     345   -296    179    455    488 130.7  22.7  34160  289.57 0855.30
2009/04/23 10:15:46.2     478   -133    322    497    592 105.6  36.0  34148  289.38 0855.30
2009/04/23 10:15:46.3     516   -102    247    527    582 101.2  27.1  34156  289.51 0855.30
2009/04/23 10:15:46.4     401    296     -2    499    500  53.6  -0.3  34162  289.62 0855.30
2009/04/23 10:15:46.5     140    111    -64    179    191  51.6 -19.7  34158  289.53 0855.30
2009/04/23 10:15:46.6     162    116    -25    200    202  54.5  -7.3  34158  289.53 0855.30
2009/04/23 10:15:46.7     265    131     41    296    299  63.6   8.0  34158  289.54 0855.30
2009/04/23 10:15:46.8     231    159     72    281    291  55.4  14.5  34160  289.58 0855.30
2009/04/23 10:15:46.9     294     77     50    305    310  75.2   9.4  34160  289.58 0855.30
2009/04/23 10:15:47.0     281     66     34    289    292  76.8   6.9  34156  289.51 0855.30
2009/04/23 10:15:47.1     368     79    134    377    400  77.9  20.2  34160  289.57 0855.29
2009/04/23 10:15:47.2     226     10    182    227    290  87.4  43.0  34160  289.58 0855.29
2009/04/23 10:15:47.3     403     95    189    415    456  76.7  26.2  34156  289.51 0855.29
2009/04/23 10:15:47.4     500    153    115    524    537  72.9  12.4  34160  289.58 0855.29
2009/04/23 10:15:47.5     491    182    179    524    554  69.6  18.9  34166  289.68 0855.29
2009/04/23 10:15:47.6     534    139    259    552    609  75.4  27.1  34172  289.76 0855.29
2009/04/23 10:15:47.7     465    123    153    482    506  75.1  17.7  34166  289.66 0855.29
2009/04/23 10:15:47.8     390    208     42    443    446  61.9   5.5  34176  289.85 0855.29
2009/04/23 10:15:47.9     360    253     41    441    444  54.9   5.4  34166  289.66 0855.29
2009/04/23 10:15:48.0     326    267     59    422    427  50.6   8.0  34168  289.70 0855.29
2009/04/23 10:15:48.1     380    253     50    457    460  56.3   6.4  34168  289.72 0855.29
2009/04/23 10:15:48.2     370    211    147    427    452  60.3  19.1  34176  289.85 0855.29
2009/04/23 10:15:48.3     270    261     88    376    387  45.9  13.2  34180  289.91 0855.29
2009/04/23 10:15:48.4     372    385    104    536    546  44.0  11.0  34194  290.14 0855.29
2009/04/23 10:15:48.5     429    431    142    609    626  44.9  13.1  34208  290.40 0855.29
2009/04/23 10:15:48.6     283    427    170    513    541  33.5  18.4  34226  290.70 0855.29
2009/04/23 10:15:48.7     339    161    222    376    436  64.6  33.4  34200  290.26 0855.29
2009/04/23 10:15:48.8     295    123    183    320    368  67.3  32.4  34212  290.47 0855.29
2009/04/23 10:15:48.9     413    184    -42    453    456  66.0  -5.3  34192  290.11 0855.29
2009/04/23 10:15:49.0     322    211   -135    386    410  56.7 -19.3  34180  289.91 0855.29
2009/04/23 10:15:49.1     566    283    235    634    676  63.4  21.3  34226  290.68 0855.30
2009/04/23 10:15:49.2     593    252    262    645    696  67.0  23.4  34248  291.06 0855.30
2009/04/23 10:15:49.3     595    260    186    650    677  66.4  16.0  34228  290.73 0855.30
2009/04/23 10:15:49.4     558    186    178    589    616  71.5  16.8  34256  291.21 0855.30
2009/04/23 10:15:49.5     622    342     37    710    711  61.2   3.0  34222  290.61 0855.30
2009/04/23 10:15:49.6     650    153    121    668    679  76.7  10.3  34232  290.78 0855.30
2009/04/23 10:15:49.7     784    246     41    822    824  72.6   2.9  34204  290.33 0855.30
2009/04/23 10:15:49.8     505    250    143    564    583  63.6  14.3  34234  290.83 0855.30
2009/04/23 10:15:49.9     726     76    122    731    742  84.0   9.5  34210  290.43 0855.30
2009/04/23 10:15:50.0     662     90    353    669    756  82.2  30.1  34234  290.83 0855.30
2009/04/23 10:15:50.1     648    254    159    697    716  68.6  12.9  34178  289.88 0855.30
2009/04/23 10:15:50.2     670    368     66    765    768  61.2   5.0  34138  289.21 0855.30
2009/04/23 10:15:50.3     691    230    187    729    753  71.5  14.4  34214  290.48 0855.30
2009/04/23 10:15:50.4     727    289    157    783    799  68.3  11.3  34202  290.30 0855.30
2009/04/23 10:15:50.5     522    308     70    607    612  59.5   6.6  34186  290.02 0855.30
2009/04/23 10:15:50.6     394    308     14    501    502  52.0   1.6  34130  289.06 0855.30
2009/04/23 10:15:50.7     380    371     29    532    533  45.7   3.1  34110  288.72 0855.30
2009/04/23 10:15:50.8     364    242    -83    438    446  56.4 -10.8  34198  290.22 0855.30
2009/04/23 10:15:50.9     359    -63    143    365    392 100.0  22.7  34182  289.94 0855.30
2009/04/23 10:15:51.0     333     21    121    334    355  86.4  20.8  34194  290.16 0855.30
2009/04/23 10:15:51.1     395    121     69    414    420  72.9   9.5  34222  290.61 0855.29
2009/04/23 10:15:51.2     249    124     19    279    280  63.6   3.9  34186  290.02 0855.29
2009/04/23 10:15:51.3     228    284    -26    365    366  38.7  -4.1  34112  288.76 0855.29
2009/04/23 10:15:51.4     209    299     93    366    378  35.0  14.3  34278  291.57 0855.29
2009/04/23 10:15:51.5     188    258     75    320    329  36.1  13.2  34264  291.33 0855.29
2009/04/23 10:15:51.6     259    142    107    296    315  61.1  19.9  34270  291.43 0855.29
2009/04/23 10:15:51.7     161    134    -52    210    217  50.2 -13.9  34282  291.66 0855.29
2009/04/23 10:15:51.8     220     74     61    233    241  71.4  14.7  34290  291.78 0855.29
2009/04/23 10:15:51.9     448    151    -64    474    479  71.3  -7.7  34252  291.13 0855.29
2009/04/23 10:15:52.0     352    229    -90    421    431  56.9 -12.2  34248  291.07 0855.29
2009/04/23 10:15:52.1     610    173     73    635    640  74.1   6.6  34218  290.57 0855.29
2009/04/23 10:15:52.2     584    128     17    599    600  77.6   1.7  34210  290.41 0855.29
2009/04/23 10:15:52.3     633     34    -18    635    636  86.9  -1.7  34202  290.28 0855.29
2009/04/23 10:15:52.4     619    -30     98    620    628  92.8   9.0  34188  290.06 0855.29
2009/04/23 10:15:52.5     376   -119   -115    395    411 107.6 -20.9  34160  289.58 0855.29
2009/04/23 10:15:52.6     466    -94   -160    476    503 101.5 -18.6  34140  289.23 0855.29
2009/04/23 10:15:52.7     518    100     94    528    537  79.0  10.1  34180  289.90 0855.29
2009/04/23 10:15:52.9     264    -62    305    272    408 103.3  53.9  34160  289.57 0855.29
2009/04/23 10:15:52.9      98   -236   -253    256    359 157.3 -54.3  34154  289.48 0855.29
2009/04/23 10:15:53.0     463   -188   -140    500    519 112.1 -20.3  34120  288.90 0855.29
2009/04/23 10:15:53.1     446    -98    -72    457    463 102.5  -9.0  34124  288.97 0855.30
2009/04/23 10:15:53.2     321    -48     54    325    330  98.6   9.4  34118  288.87 0855.30
2009/04/23 10:15:53.3     235    -33     79    238    251  98.0  18.4  34154  289.47 0855.30
2009/04/23 10:15:53.4     253    -21    140    254    290  95.0  31.4  34162  289.61 0855.30
2009/04/23 10:15:53.5     169    -55    135    178    223 108.2  40.9  34146  289.33 0855.30
2009/04/23 10:15:53.6      75    -40    131     86    156 118.4  64.6  34144  289.30 0855.30
2009/04/23 10:15:53.7     -63     94     92    114    146 326.2  43.7  34154  289.46 0855.30
2009/04/23 10:15:53.8      15     73     92     75    118  11.6  56.4  34154  289.46 0855.30
2009/04/23 10:15:53.9     -98    272    125    290    315 340.2  24.8  34148  289.36 0855.30
2009/04/23 10:15:54.0      33    361    227    363    428   5.3  35.3  34154  289.48 0855.30
2009/04/23 10:15:54.1     -33    411    196    413    457 355.3  27.2  34156  289.49 0855.30
2009/04/23 10:15:54.2    -135    612    205    627    660 347.5  18.1  34158  289.55 0855.30
2009/04/23 10:15:54.3    -124    610    190    623    652 348.4  17.0  34158  289.55 0855.30
2009/04/23 10:15:54.4    -105    462    134    474    493 347.1  15.8  34172  289.78 0855.30
2009/04/23 10:15:54.5    -237    410    124    474    490 330.0  14.7  34166  289.66 0855.30
2009/04/23 10:15:54.6    -282    428     26    513    514 326.6   3.0  34166  289.66 0855.30
2009/04/23 10:15:54.7     -99    266    -70    285    294 339.5 -13.9  34168  289.70 0855.30
2009/04/23 10:15:54.8     207    322    242    384    453  32.8  35.5  34184  289.97 0855.30
2009/04/23 10:15:54.9      62    529    132    533    550   6.7  13.9  34198  290.23 0855.30
2009/04/23 10:15:55.0      94    461    287    471    551  11.6  34.3  34218  290.55 0855.30
2009/04/23 10:15:55.2    -103    461    164    473    501 347.3  19.2  34224  290.66 0855.31
2009/04/23 10:15:55.3     240    535    153    587    607  24.2  14.6  34194  290.14 0855.31
2009/04/23 10:15:55.4     327    480    164    581    604  34.3  15.8  34178  289.86 0855.31
2009/04/23 10:15:55.5     279    471    100    548    558  30.7  10.4  34198  290.23 0855.31
2009/04/23 10:15:55.6     526    446    249    690    734  49.7  19.9  34218  290.54 0855.31
2009/04/23 10:15:55.7     411    450    384    610    720  42.4  35.3  34222  290.61 0855.31
2009/04/23 10:15:55.8     526    292    141    602    619  61.0  13.2  34158  289.54 0855.31
2009/04/23 10:15:55.9     447    339    251    562    615  52.8  25.7  34190  290.07 0855.31
2009/04/23 10:15:56.0     411    308     67    514    519  53.1   7.4  34182  289.95 0855.31
2009/04/23 10:15:56.1     381    366    144    529    549  46.2  15.3  34186  290.02 0855.31
2009/04/23 10:15:56.2     295    379    235    481    535  37.9  28.0  34226  290.69 0855.31
2009/04/23 10:15:56.3     478    324    139    578    595  55.8  13.6  34160  289.58 0855.31
2009/04/23 10:15:56.4     805    360    125    882    892  65.9   8.1  34142  289.27 0855.31
2009/04/23 10:15:56.5     551    415     77    690    695  53.0   6.4  34142  289.26 0855.31
2009/04/23 10:15:56.6     444    163   -134    474    493  69.8 -15.8  34152  289.45 0855.31
2009/04/23 10:15:56.7     282     10   -135    283    313  87.9 -31.7  34158  289.54 0855.31
2009/04/23 10:15:56.8     258      6    -59    259    266  88.5 -12.9  34164  289.64 0855.31
2009/04/23 10:15:56.9     228    -76    -30    241    243 108.4  -7.3  34166  289.68 0855.31
2009/04/23 10:15:57.0     288     48     45    293    297  80.4   8.9  34166  289.66 0855.31
2009/04/23 10:15:57.1     320    -33     24    322    323  95.9   4.4  34164  289.63 0855.31
2009/04/23 10:15:57.2     371     28    168    372    408  85.6  26.2  34162  289.59 0855.30
2009/04/23 10:15:57.3     278     70    239    287    373  75.8  44.0  34158  289.55 0855.30
2009/04/23 10:15:57.4     304     97    219    320    387  72.3  37.6  34158  289.54 0855.30
2009/04/23 10:15:57.5      86      4    294     87    306  87.0  83.1  34162  289.59 0855.30
2009/04/23 10:15:57.6     303   -270    277    407    492 131.7  37.6  34162  289.59 0855.30
2009/04/23 10:15:57.7     267   -326    254    422    492 140.6  34.0  34152  289.44 0855.30
2009/04/23 10:15:57.8     373   -203    244    425    490 118.6  32.4  34164  289.64 0855.30
2009/04/23 10:15:57.9     322   -286    277    431    512 131.6  35.7  34166  289.69 0855.30
2009/04/23 10:15:58.0     268   -444    311    519    605 148.8  33.7  34166  289.68 0855.30
2009/04/23 10:15:58.1     241   -371    305    443    537 147.0  37.9  34166  289.67 0855.30
2009/04/23 10:15:58.2     263   -417    298    494    576 147.8  34.0  34150  289.40 0855.30
2009/04/23 10:15:58.3     143   -340    306    369    479 157.2  43.8  34154  289.46 0855.30
2009/04/23 10:15:58.4     142   -339    259    368    450 157.3  38.6  34160  289.56 0855.30
2009/04/23 10:15:58.5     138   -317    269    346    438 156.5  41.7  34160  289.56 0855.30
2009/04/23 10:15:58.6     146   -383    284    411    499 159.1  38.0  34156  289.50 0855.30
2009/04/23 10:15:58.7     179   -237    242    298    383 143.0  43.5  34162  289.62 0855.30
2009/04/23 10:15:58.8      43   -205    233    210    313 168.0  53.4  34164  289.63 0855.30
2009/04/23 10:15:58.9      -7     86    156     87    178 355.1  68.8  34182  289.94 0855.30
2009/04/23 10:15:59.0     210     17    148    211    257  85.2  38.6  34174  289.81 0855.30
2009/04/23 10:15:59.1     206      7     56    207    215  87.9  15.3  34168  289.72 0855.30
2009/04/23 10:15:59.2     190     73     -9    204    205  68.9  -2.8  34164  289.65 0855.30
2009/04/23 10:15:59.3       1    -28     -9     29     30 177.3 -23.8  34162  289.62 0855.30
2009/04/23 10:15:59.4    -124   -179     53    218    225 214.7  13.7  34182  289.94 0855.30
2009/04/23 10:15:59.5    -175   -287    163    337    374 211.3  27.7  34184  289.99 0855.30
2009/04/23 10:15:59.6     101   -101    111    144    181 135.1  41.7  34172  289.77 0855.30
2009/04/23 10:15:59.7      46    -86     79     98    125 151.9  43.3  34174  289.80 0855.30
2009/04/23 10:15:59.8     -87   -219    168    236    289 201.8  39.1  34172  289.76 0855.30
2009/04/23 10:15:59.9       0   -212    156    213    264 179.8  39.7  34152  289.44 0855.30
2009/04/23 10:16:00.0    -353    -12   -134    354    378 268.0 -26.1  34094  288.47 0855.30
2009/04/23 10:16:00.1    -383    -17   -149    384    411 267.4 -26.8  34082  288.26 0855.30
2009/04/23 10:16:00.2    -314    -18   -119    315    336 266.6 -26.1  34084  288.30 0855.30
2009/04/23 10:16:00.3    -254    -58    -89    261    275 257.0 -23.8  34086  288.32 0855.30
2009/04/23 10:16:00.4    -217    -37    -40    221    225 260.3 -10.3  34092  288.42 0855.30
2009/04/23 10:16:00.5    -201    -15     16    202    203 265.6   4.6  34098  288.52 0855.30
2009/04/23 10:16:00.6    -209    -47     35    215    218 257.2   9.5  34112  288.77 0855.30
2009/04/23 10:16:00.7    -194    -80     34    210    213 247.6   9.3  34130  289.08 0855.30
2009/04/23 10:16:00.8     -89    -72    -24    115    118 230.9 -11.9  34140  289.23 0855.30
2009/04/23 10:16:00.9      13   -188     37    189    193 176.0  11.1  34150  289.40 0855.30
2009/04/23 10:16:01.0     -10   -156     49    157    165 184.0  17.3  34156  289.50 0855.30
2009/04/23 10:16:01.1     -26   -131      6    134    135 191.6   2.8  34160  289.58 0855.30
2009/04/23 10:16:01.2     -26   -246     -3    248    249 186.2  -0.7  34156  289.51 0855.29
2009/04/23 10:16:01.3     -27   -230     11    232    233 186.9   2.9  34158  289.53 0855.29
2009/04/23 10:16:01.4     -29   -261     41    263    267 186.5   9.0  34156  289.49 0855.29
2009/04/23 10:16:01.5      -6   -280     25    281    283 181.4   5.2  34162  289.59 0855.29
2009/04/23 10:16:01.6     -22   -287     14    288    289 184.5   2.9  34162  289.61 0855.29
2009/04/23 10:16:01.7       7   -300     -6    301    302 178.6  -1.3  34156  289.51 0855.29
2009/04/23 10:16:01.8     -18   -237    -13    238    239 184.5  -3.1  34156  289.51 0855.29
2009/04/23 10:16:01.9      33   -163     34    167    171 168.4  11.6  34154  289.46 0855.29
2009/04/23 10:16:02.0      -2   -133    109    134    172 181.0  43.7  34162  289.62 0855.29
2009/04/23 10:16:02.1      15    -65    138     67    153 166.6  72.8  34176  289.85 0855.29
2009/04/23 10:16:02.2      10     38     98     40    105  15.1  77.0  34184  289.97 0855.29
2009/04/23 10:16:02.3       7     22     96     24     98  18.7  85.4  34180  289.91 0855.29
2009/04/23 10:16:02.4      32    -47     84     58    102 145.7  61.5  34174  289.82 0855.29
2009/04/23 10:16:02.5      -8    -60     73     61     95 188.0  56.3  34170  289.74 0855.29
2009/04/23 10:16:02.6       7    -33     44     34     55 166.6  57.5  34168  289.72 0855.29
2009/04/23 10:16:02.7      77      0     29     78     83  90.0  21.0  34162  289.62 0855.29
2009/04/23 10:16:02.8      82    -12     36     83     90  98.4  25.1  34166  289.69 0855.29
2009/04/23 10:16:02.9      54     -7     73     55     91  97.9  59.0  34182  289.94 0855.29
2009/04/23 10:16:03.0     119    -23     83    122    147 101.0  37.4  34168  289.72 0855.29
2009/04/23 10:16:03.1     133     41     15    140    141  72.7   6.5  34152  289.45 0855.29
2009/04/23 10:16:03.2     220    122     93    252    268  60.9  21.0  34160  289.58 0855.28
2009/04/23 10:16:03.3     204    -14     99    205    227  94.1  27.3  34166  289.69 0855.28
2009/04/23 10:16:03.4     157      7    214    158    266  87.4  60.3  34178  289.86 0855.28
2009/04/23 10:16:03.5      51     74    137     91    164  34.7  63.4  34192  290.13 0855.28
2009/04/23 10:16:03.6      23     42     92     49    104  29.0  69.3  34194  290.16 0855.28
2009/04/23 10:16:03.7      45      7    106     46    115  80.3  75.0  34188  290.06 0855.28
2009/04/23 10:16:03.8      41    -19    100     46    110 115.3  73.1  34194  290.14 0855.28
2009/04/23 10:16:03.9       0    -99    120    100    156 180.4  55.8  34180  289.91 0855.28
2009/04/23 10:16:04.0     -37    -15     99     41    107 247.4  77.0  34188  290.06 0855.28
2009/04/23 10:16:04.1     -71     51     79     88    118 305.5  46.9  34184  289.97 0855.28
2009/04/23 10:16:04.2    -112     63    101    129    163 299.3  42.0  34192  290.11 0855.28
2009/04/23 10:16:04.3    -186    101    116    212    241 298.6  31.3  34190  290.09 0855.28
2009/04/23 10:16:04.4    -156    102     89    187    207 303.3  27.2  34192  290.13 0855.28
2009/04/23 10:16:04.5     -71     90     37    115    121 321.7  17.9  34190  290.09 0855.28
2009/04/23 10:16:04.6      47    171     -6    178    179  15.6  -2.2  34198  290.21 0855.28
2009/04/23 10:16:04.7       3    246     43    247    251   0.9  10.0  34200  290.26 0855.28
2009/04/23 10:16:04.8     -36    225    129    228    261 350.9  32.1  34224  290.65 0855.28
2009/04/23 10:16:04.9     119    114    151    166    224  46.2  47.5  34236  290.86 0855.28
2009/04/23 10:16:05.0      -2    -18    129     19    130 188.0  90.0  34214  290.50 0855.28
2009/04/23 10:16:05.1      13    -76     91     78    119 170.2  54.8  34208  290.40 0855.28
2009/04/23 10:16:05.2      94    -56     96    110    146 120.7  45.8  34218  290.57 0855.27
2009/04/23 10:16:05.3     183     53     14    191    192  73.8   4.4  34186  290.02 0855.27
2009/04/23 10:16:05.4     184    331     32    379    381  29.1   4.9  34178  289.89 0855.27
2009/04/23 10:16:05.5      -9     29    153     31    156 341.5  89.0  34168  289.72 0855.27
2009/04/23 10:16:05.6       0   -116    197    117    229 180.0  66.7  34154  289.48 0855.27
2009/04/23 10:16:05.7      97    -22     87    100    132 103.3  45.8  34130  289.06 0855.27
2009/04/23 10:16:05.8      34    -38      9     52     53 138.6  10.1  34152  289.45 0855.27
2009/04/23 10:16:05.9     133     -3    123    134    181  91.7  47.7  34128  289.04 0855.27
2009/04/23 10:16:06.0     212      0    145    213    257  90.0  37.6  34130  289.05 0855.27
2009/04/23 10:16:06.1     203     49    182    209    277  76.3  45.8  34126  288.98 0855.27
2009/04/23 10:16:06.2     342     61    222    348    412  79.9  35.6  34168  289.71 0855.27
2009/04/23 10:16:06.3     216    -26    136    218    256  97.0  35.2  34152  289.44 0855.27
2009/04/23 10:16:06.4     175     37    226    180    288  77.8  57.5  34172  289.78 0855.27
2009/04/23 10:16:06.5     263    125    181    292    343  64.5  34.9  34228  290.73 0855.27
2009/04/23 10:16:06.6     311    145    247    344    423  64.9  39.3  34212  290.47 0855.27
2009/04/23 10:16:06.7     142    193    255    240    350  36.3  52.1  34212  290.46 0855.27
2009/04/23 10:16:06.8       8     98    200     99    223   4.9  71.9  34218  290.55 0855.27
2009/04/23 10:16:06.9     252    281    228    378    441  41.9  33.8  34216  290.53 0855.27
2009/04/23 10:16:07.0     278    365    332    460    567  37.3  39.5  34154  289.46 0855.27
2009/04/23 10:16:07.1     310    677    405    745    847  24.6  30.9  34138  289.20 0855.27
2009/04/23 10:16:07.2     552    873     79   1033   1036  32.3   4.4  34212  290.47 0855.25
2009/04/23 10:16:07.3     488    777     19    918    919  32.1   1.2  34154  289.46 0855.25
2009/04/23 10:16:07.4     383    540     82    663    669  35.4   7.1  34128  289.04 0855.25
2009/04/23 10:16:07.5     282    496    144    571    589  29.6  14.2  34132  289.10 0855.25
2009/04/23 10:16:07.6     270    527    113    593    604  27.2  10.8  34136  289.17 0855.25
2009/04/23 10:16:07.7     334    717    196    792    816  25.0  13.9  34124  288.96 0855.25
2009/04/23 10:16:07.8     248    637     34    684    685  21.3   2.9  34132  289.10 0855.25
2009/04/23 10:16:07.9     -35    327     16    329    330 353.8   2.8  34126  288.99 0855.25
2009/04/23 10:16:08.0    -230    451     61    507    511 332.9   6.9  34116  288.83 0855.25
2009/04/23 10:16:08.1    -255    421    -63    493    498 328.8  -7.3  34130  289.08 0855.25
2009/04/23 10:16:08.2    -207    396    -96    447    458 332.4 -12.2  34136  289.17 0855.23
2009/04/23 10:16:08.3    -148    330   -114    362    380 335.8 -17.5  34144  289.30 0855.23
2009/04/23 10:16:08.4    -221    384    -30    444    445 330.1  -3.9  34148  289.36 0855.23
2009/04/23 10:16:08.5    -172    360     42    400    403 334.4   6.1  34140  289.23 0855.23
2009/04/23 10:16:08.6      59    318   -155    324    359  10.6 -31.7  34142  289.26 0855.23
2009/04/23 10:16:08.7     -83    366     -3    376    377 347.1  -0.5  34126  289.01 0855.23
2009/04/23 10:16:08.8     -30    417    -60    419    424 355.9  -8.3  34130  289.07 0855.23
2009/04/23 10:16:08.9      -2    347    -37    348    350 359.5  -6.1  34138  289.21 0855.23
2009/04/23 10:16:09.0     -66    321      0    328    329 348.3   0.0  34138  289.19 0855.23
2009/04/23 10:16:09.1    -132    109   -135    172    218 309.5 -46.4  34142  289.26 0855.23
2009/04/23 10:16:09.2    -240    261    -37    355    358 317.4  -6.1  34156  289.50 0855.23
2009/04/23 10:16:09.3      47     76     68     90    112  31.6  41.2  34148  289.36 0855.23
2009/04/23 10:16:09.4       0     92    171     93    194   0.5  68.9  34154  289.46 0855.23
2009/04/23 10:16:09.5       6    -56    139     57    150 173.8  77.0  34164  289.63 0855.23
2009/04/23 10:16:09.6      23     59    229     64    237  21.9  84.4  34148  289.36 0855.23
2009/04/23 10:16:09.7      -2    -30    133     31    136 184.5  87.0  34156  289.52 0855.23
2009/04/23 10:16:09.8     -49     10    111     51    122 281.5  74.0  34148  289.38 0855.23
2009/04/23 10:16:09.9     114   -134     80    177    194 139.7  26.2  34138  289.19 0855.23
2009/04/23 10:16:10.0     144    -85     69    168    181 120.7  23.4  34138  289.21 0855.23
2009/04/23 10:16:10.1     174    -26    140    176    224  98.6  43.0  34134  289.14 0855.23
2009/04/23 10:16:10.2     114    -31    196    119    229 105.5  66.0  34148  289.38 0855.24
2009/04/23 10:16:10.3     112    -46     96    122    155 112.2  42.7  34148  289.38 0855.24
2009/04/23 10:16:10.4     167    -25     54    169    178  98.6  17.9  34144  289.31 0855.24
2009/04/23 10:16:10.5     128     10     49    129    137  85.2  22.0  34146  289.35 0855.24
2009/04/23 10:16:10.6      85     13     96     86    128  81.2  53.3  34158  289.53 0855.24
2009/04/23 10:16:10.7     -21     -5     39     22     44 256.7  67.7  34164  289.65 0855.24
2009/04/23 10:16:10.8       3     -8     51      9     51 154.6  90.0  34166  289.67 0855.24
2009/04/23 10:16:10.9      72      1     70     73    101  89.2  48.5  34146  289.33 0855.24
2009/04/23 10:16:11.0      30     87     32     93     99  19.2  19.4  34150  289.40 0855.24
2009/04/23 10:16:11.1      33     82    -11     89     90  21.8  -7.3  34154  289.46 0855.24
2009/04/23 10:16:11.2      11      8    -48     14     50  54.0 -87.2  34154  289.46 0855.24
2009/04/23 10:16:11.3      76    -60     18     98    100 128.2  10.6  34154  289.46 0855.24
2009/04/23 10:16:11.4     126    -64     39    142    148 117.1  15.3  34148  289.38 0855.24
2009/04/23 10:16:11.5     191    -90      5    212    213 115.4   1.6  34152  289.43 0855.24
2009/04/23 10:16:11.6     161   -136     37    212    216 130.2  10.1  34142  289.28 0855.24
2009/04/23 10:16:11.7     105   -167     55    198    206 147.9  15.6  34140  289.24 0855.24
2009/04/23 10:16:11.8      88     35     61     95    112  68.3  35.6  34150  289.40 0855.24
2009/04/23 10:16:11.9      36    -27    103     46    112 126.9  74.5  34160  289.58 0855.24
2009/04/23 10:16:12.0     -24   -145    127    148    195 189.7  44.8  34150  289.41 0855.24
2009/04/23 10:16:12.1     -21   -185    162    187    247 186.7  45.4  34142  289.26 0855.24
2009/04/23 10:16:12.2     -22   -210    209    212    297 186.2  49.9  34136  289.15 0855.24
2009/04/23 10:16:12.3     -46   -202    153    208    258 192.9  39.7  34140  289.24 0855.24
2009/04/23 10:16:12.4      27   -101     85    105    135 164.9  43.7  34142  289.28 0855.24
2009/04/23 10:16:12.5     -84    108     30    138    142 322.2  12.6  34144  289.30 0855.24
2009/04/23 10:16:12.6    -201    149     73    251    262 306.6  16.4  34140  289.24 0855.24
2009/04/23 10:16:12.7    -110     37     90    117    147 288.6  41.7  34138  289.21 0855.24
2009/04/23 10:16:12.8      -2     37    180     38    183 355.5  88.8  34140  289.24 0855.24
2009/04/23 10:16:12.9      49    -22    156     54    165 114.4  80.7  34168  289.72 0855.24
2009/04/23 10:16:13.0      16    -34    183     38    186 154.6  89.0  34158  289.55 0855.24
2009/04/23 10:16:13.1      74   -102      9    127    128 143.9   4.4  34150  289.41 0855.24
2009/04/23 10:16:13.2      37   -164     32    169    173 167.1  10.8  34138  289.19 0855.24
2009/04/23 10:16:13.3     -40   -172     10    177    178 193.1   3.3  34136  289.16 0855.24
2009/04/23 10:16:13.4       1   -131     22    132    134 179.5   9.5  34136  289.16 0855.24
2009/04/23 10:16:13.5      50    -86      5    100    101 149.7   3.3  34140  289.23 0855.24
2009/04/23 10:16:13.6      -2    -66    -22     67     70 181.8 -23.8  34138  289.19 0855.24
2009/04/23 10:16:13.7     -57    -39    -39     70     80 235.8 -35.8  34150  289.40 0855.24
2009/04/23 10:16:13.8     -12      8    -47     15     49 302.4 -85.1  34144  289.31 0855.24
2009/04/23 10:16:13.9      48     45     35     67     75  46.8  30.3  34154  289.48 0855.24
2009/04/23 10:16:14.0       7     37     65     38     75  11.5  66.8  34160  289.57 0855.24
2009/04/23 10:16:14.1     -17     12     77     22     80 306.0  83.9  34168  289.70 0855.24
2009/04/23 10:16:14.2       6     14     77     16     78  25.4  89.0  34162  289.60 0855.25
2009/04/23 10:16:14.3      14     -3     69     15     70 105.1  89.0  34160  289.58 0855.25
2009/04/23 10:16:14.4     -10    -20     54     23     58 207.2  77.1  34170  289.74 0855.25
2009/04/23 10:16:14.5      29    -46     63     55     83 147.4  53.7  34158  289.55 0855.25
2009/04/23 10:16:14.6      32    -58     86     67    109 151.0  57.9  34154  289.48 0855.25
2009/04/23 10:16:14.7     -98   -154     83    183    200 212.5  25.9  34170  289.74 0855.25
2009/04/23 10:16:14.8     -80   -159     28    179    182 206.7   9.0  34172  289.77 0855.25
2009/04/23 10:16:14.9     -53   -157     70    166    180 198.7  24.1  34162  289.60 0855.25
2009/04/23 10:16:15.0     -59   -125     99    139    170 205.3  39.1  34160  289.57 0855.25
2009/04/23 10:16:15.1      47    -76    100     90    134 148.4  53.3  34156  289.52 0855.25
2009/04/23 10:16:15.2       1    -67    101     68    121 179.0  62.7  34160  289.57 0855.25
2009/04/23 10:16:15.3     -12    -38     93     40    101 197.8  75.5  34170  289.74 0855.25
2009/04/23 10:16:15.4      -6    -83    135     84    159 184.5  65.4  34164  289.63 0855.25
2009/04/23 10:16:15.5      -3   -131    159    132    206 181.4  56.3  34162  289.62 0855.25
2009/04/23 10:16:15.6      -3   -192    164    193    253 180.9  44.8  34166  289.66 0855.25
2009/04/23 10:16:15.7     -55   -272    162    278    321 191.6  33.0  34184  289.97 0855.25
2009/04/23 10:16:15.8      -5   -245    150    246    288 181.4  34.4  34168  289.70 0855.25
2009/04/23 10:16:15.9     -45   -225    105    230    252 191.5  26.2  34170  289.75 0855.25
2009/04/23 10:16:16.0     -57   -254    131    261    292 192.7  28.7  34168  289.71 0855.25
2009/04/23 10:16:16.1     -73   -205    153    218    266 199.8  38.6  34166  289.68 0855.25
2009/04/23 10:16:16.2     -81   -238    115    252    277 198.9  26.2  34158  289.53 0855.30
2009/04/23 10:16:16.3     -85   -180    152    200    251 205.2  40.9  34160  289.56 0855.30
2009/04/23 10:16:16.4    -127   -211    163    247    295 211.0  36.5  34150  289.41 0855.30
2009/04/23 10:16:16.5    -159   -208    150    263    302 217.4  32.3  34148  289.36 0855.30
2009/04/23 10:16:16.6    -148   -191    123    242    271 217.8  28.7  34148  289.36 0855.30
2009/04/23 10:16:16.7    -136   -175     82    222    236 217.9  21.3  34142  289.28 0855.30
2009/04/23 10:16:16.8    -175   -220     76    282    293 218.5  15.2  34138  289.20 0855.30
2009/04/23 10:16:16.9    -261   -254     22    365    366 225.8   3.5  34136  289.18 0855.30
2009/04/23 10:16:17.0    -171   -315     17    359    360 208.6   2.8  34128  289.04 0855.30
2009/04/23 10:16:17.1    -207   -270    -52    341    345 217.5  -8.7  34140  289.23 0855.30
2009/04/23 10:16:17.2    -124   -346     -7    368    369 199.8  -1.2  34130  289.08 0855.30
2009/04/23 10:16:17.3    -127   -348      3    371    372 200.1   0.5  34144  289.30 0855.30
2009/04/23 10:16:17.4    -185   -239     15    303    304 217.8   2.9  34172  289.76 0855.30
2009/04/23 10:16:17.5    -122   -251    -76    280    291 205.9 -15.2  34168  289.70 0855.30
2009/04/23 10:16:17.6    -106   -255    -56    277    283 202.7 -11.6  34180  289.90 0855.30
2009/04/23 10:16:17.7    -103   -217    -28    241    243 205.3  -6.7  34176  289.85 0855.30
2009/04/23 10:16:17.8    -103   -360     80    375    384 196.0  12.1  34170  289.74 0855.30
2009/04/23 10:16:17.9     -96   -322    -70    337    345 196.6 -11.8  34186  290.01 0855.30
2009/04/23 10:16:18.0    -127   -303    -17    329    330 202.7  -3.0  34162  289.62 0855.30
2009/04/23 10:16:18.1    -122   -307     -9    331    332 201.7  -1.6  34174  289.81 0855.30
2009/04/23 10:16:18.2    -141   -351     19    379    380 201.9   2.9  34182  289.96 0855.27
2009/04/23 10:16:18.3     -86   -475    -23    483    484 190.3  -2.8  34140  289.23 0855.27
2009/04/23 10:16:18.4       7   -446    -21    447    448 179.0  -2.7  34138  289.19 0855.27
2009/04/23 10:16:18.6     -10   -303    -33    304    306 182.0  -6.2  34144  289.29 0855.27
2009/04/23 10:16:18.6     -96   -235   -121    254    281 202.3 -31.6  34160  289.58 0855.27
2009/04/23 10:16:18.7    -126   -220     51    254    260 209.9  11.4  34162  289.59 0855.27
2009/04/23 10:16:18.8     -26   -244    116    246    271 186.2  27.1  34172  289.78 0855.27
2009/04/23 10:16:18.9      44   -251     26    255    257 170.0   6.0  34152  289.44 0855.27
2009/04/23 10:16:19.0      42   -212      6    217    218 168.7   1.6  34154  289.46 0855.27
2009/04/23 10:16:19.1       0   -250     96    251    268 179.9  22.0  34148  289.37 0855.27
2009/04/23 10:16:19.2     -88   -307    136    320    347 196.0  24.3  34152  289.45 0855.27
2009/04/23 10:16:19.3    -112   -392    184    408    447 196.0  26.0  34162  289.61 0855.27
2009/04/23 10:16:19.4    -102   -334    139    350    376 197.0  23.0  34158  289.55 0855.27
2009/04/23 10:16:19.5    -221   -282    125    359    381 218.0  19.2  34182  289.94 0855.27
2009/04/23 10:16:19.6    -209   -290    173    358    397 215.8  27.8  34172  289.79 0855.27
2009/04/23 10:16:19.7    -253   -229    112    342    360 227.9  18.2  34182  289.93 0855.27
2009/04/23 10:16:19.8    -365   -301     36    474    476 230.5   4.4  34176  289.84 0855.27
2009/04/23 10:16:19.9    -323   -337     13    468    469 223.8   1.6  34174  289.81 0855.27
2009/04/23 10:16:20.0    -263   -334      3    426    427 218.2   0.5  34182  289.95 0855.27
2009/04/23 10:16:20.1    -271   -196    -13    335    336 234.0  -2.2  34176  289.84 0855.27
2009/04/23 10:16:20.2    -282   -225    -26    361    362 231.4  -4.2  34170  289.74 0855.27
2009/04/23 10:16:20.3    -287   -200    -32    350    352 235.1  -5.3  34174  289.82 0855.27
2009/04/23 10:16:20.4    -290   -220    -94    365    378 232.8 -14.5  34160  289.57 0855.27
2009/04/23 10:16:20.5    -266   -243     11    361    362 227.7   1.9  34158  289.55 0855.27
2009/04/23 10:16:20.6    -259   -267    -48    373    377 224.1  -7.4  34154  289.47 0855.27
2009/04/23 10:16:20.7    -273   -256     14    375    376 226.8   2.2  34156  289.52 0855.27
2009/04/23 10:16:20.8    -238   -196     21    309    310 230.5   3.9  34158  289.53 0855.27
2009/04/23 10:16:20.9    -283   -134    -17    314    315 244.6  -3.1  34158  289.54 0855.27
2009/04/23 10:16:21.0    -174   -143      2    226    227 230.7   0.7  34164  289.65 0855.27
2009/04/23 10:16:21.1     -50    -16     79     53     95 252.3  63.6  34162  289.60 0855.27
2009/04/23 10:16:21.2      31    -71    112     78    136 156.4  61.5  34154  289.46 0855.27
2009/04/23 10:16:21.3     -27    -71     81     77    111 200.9  51.6  34150  289.41 0855.27
2009/04/23 10:16:21.4      31      3     72     32     78  83.9  75.0  34164  289.65 0855.27
2009/04/23 10:16:21.5     -41    -16    109     45    117 248.3  76.6  34168  289.72 0855.27
2009/04/23 10:16:21.6     -14      0     81     15     82 270.0  90.0  34168  289.72 0855.27
2009/04/23 10:16:21.7      13     14     48     20     52  43.4  76.1  34172  289.77 0855.27
2009/04/23 10:16:21.8      24    -40     44     47     64 148.4  48.0  34162  289.62 0855.27
2009/04/23 10:16:21.9       6    -49     68     50     84 172.9  60.0  34158  289.55 0855.27
2009/04/23 10:16:22.0     -40    -99     68    108    127 202.3  35.5  34152  289.45 0855.27
2009/04/23 10:16:22.1     -17   -119     49    121    130 188.5  23.1  34148  289.38 0855.27
2009/04/23 10:16:22.3      -6   -138      1    139    140 182.7   0.8  34152  289.43 0855.29
2009/04/23 10:16:22.4     -55   -107    -43    121    129 207.2 -19.7  34182  289.96 0855.29
2009/04/23 10:16:22.5      21    -64     37     68     77 161.3  31.3  34162  289.62 0855.29
2009/04/23 10:16:22.6      60    -60    102     86    133 135.0  55.8  34162  289.62 0855.29
2009/04/23 10:16:22.7      36    -12     59     38     70 108.4  64.6  34164  289.65 0855.29
2009/04/23 10:16:22.8     -13      4    -14     14     19 288.4 -54.5  34168  289.72 0855.29
2009/04/23 10:16:22.9      90     34     40     97    104  69.2  23.0  34160  289.57 0855.29
2009/04/23 10:16:23.0      -9     27     56     29     63 340.0  70.8  34170  289.75 0855.29
2009/04/23 10:16:23.1     -35    -32     66     48     81 227.8  60.0  34180  289.91 0855.29
2009/04/23 10:16:23.2     -54    -42     81     69    106 232.2  55.4  34176  289.84 0855.29
2009/04/23 10:16:23.3      34    -62    116     71    136 151.1  65.1  34168  289.70 0855.29
2009/04/23 10:16:23.4     -64   -207     50    217    223 197.4  13.1  34170  289.75 0855.29
2009/04/23 10:16:23.5     -86   -257     31    272    274 198.5   6.7  34178  289.88 0855.29
2009/04/23 10:16:23.6     -55   -288    -16    294    295 190.9  -3.1  34188  290.03 0855.29
2009/04/23 10:16:23.7     -75   -250     67    262    271 196.7  14.5  34198  290.22 0855.29
2009/04/23 10:16:23.8     -44   -264     -5    268    269 189.6  -1.3  34176  289.83 0855.29
2009/04/23 10:16:23.9     -56   -296     85    302    314 190.7  15.8  34174  289.80 0855.29
2009/04/23 10:16:24.0    -130   -297     17    325    326 203.7   3.1  34192  290.10 0855.29
2009/04/23 10:16:24.1     -83   -274     55    287    293 196.9  11.0  34188  290.03 0855.29
2009/04/23 10:16:24.2    -170   -266    113    316    335 212.6  20.4  34198  290.20 0855.29
2009/04/23 10:16:24.3     -50   -335     88    339    351 188.5  14.6  34178  289.87 0855.31
2009/04/23 10:16:24.4      15   -252    104    253    273 176.4  23.4  34180  289.90 0855.31
2009/04/23 10:16:24.5       3   -249     49    250    255 179.1  11.1  34162  289.61 0855.31
2009/04/23 10:16:24.6      39   -190     25    195    197 168.2   7.5  34166  289.67 0855.31
2009/04/23 10:16:24.7      53   -112     24    124    127 154.7  11.1  34160  289.58 0855.31
2009/04/23 10:16:24.8      48   -103     21    114    116 154.7  10.6  34160  289.57 0855.31
2009/04/23 10:16:24.9      11    -84     49     85     98 172.4  32.9  34160  289.57 0855.31
2009/04/23 10:16:25.0       1    -90     56     91    106 179.1  35.0  34154  289.48 0855.31
2009/04/23 10:16:25.1       0    -93     59     94    110 180.0  35.5  34156  289.52 0855.31
2009/04/23 10:16:25.2      14    -54    103     56    117 164.9  68.9  34166  289.69 0855.31
2009/04/23 10:16:25.3      12    -58    104     60    120 168.4  67.2  34170  289.75 0855.31
2009/04/23 10:16:25.4      -5    -47     75     48     89 186.2  64.7  34164  289.63 0855.31
2009/04/23 10:16:25.5      58    -91     83    109    137 147.5  41.6  34162  289.60 0855.31
2009/04/23 10:16:25.6      42   -169    126    175    215 166.0  39.5  34152  289.43 0855.31
2009/04/23 10:16:25.7      41   -215    162    219    272 169.1  39.9  34152  289.44 0855.31
2009/04/23 10:16:25.8      24   -142    187    145    236 170.2  58.5  34154  289.48 0855.31
2009/04/23 10:16:25.9       7    -93    172     94    196 175.5  69.1  34160  289.58 0855.31
2009/04/23 10:16:26.0       0    -95    139     96    168 179.5  62.4  34156  289.50 0855.31
2009/04/23 10:16:26.1      17    -64    166     67    179 164.9  77.1  34162  289.60 0855.31
2009/04/23 10:16:26.2     -19    -73    151     76    169 195.2  71.7  34162  289.62 0855.31
2009/04/23 10:16:26.3      -3      3    142      5    142 315.0  90.0  34182  289.94 0855.30
2009/04/23 10:16:26.4       0    -30     95     31     99 179.1  80.7  34166  289.69 0855.30
2009/04/23 10:16:26.5      16    -92    110     94    144 169.8  55.4  34162  289.62 0855.30
2009/04/23 10:16:26.6      25    -80    106     84    135 162.6  57.5  34156  289.50 0855.30
2009/04/23 10:16:26.7      80    -23    119     84    145 105.9  61.5  34170  289.74 0855.30
2009/04/23 10:16:26.8      44      2    101     45    110  86.5  74.0  34176  289.84 0855.30
2009/04/23 10:16:26.9       2    -46     92     47    103 176.4  71.4  34166  289.69 0855.30
2009/04/23 10:16:27.0      22    -55     83     60    102 158.2  60.5  34164  289.63 0855.30
2009/04/23 10:16:27.1       0   -116    115    117    164 180.0  50.0  34180  289.91 0855.30
2009/04/23 10:16:27.2     -10    -99    137    100    169 186.2  60.3  34184  289.97 0855.30
2009/04/23 10:16:27.3      -7    -44    117     45    125 189.8  78.2  34192  290.11 0855.30
2009/04/23 10:16:27.4     -50     -3    121     51    131 265.7  75.5  34190  290.08 0855.30
2009/04/23 10:16:27.5     -58    -48    122     76    143 230.4  64.7  34188  290.06 0855.30
2009/04/23 10:16:27.6     -62    -59    129     86    155 226.4  64.1  34212  290.47 0855.30
2009/04/23 10:16:27.7     -35    -32    119     48    128 226.9  77.1  34216  290.53 0855.30
2009/04/23 10:16:27.8     -32    -50    173     60    183 212.5  80.7  34196  290.18 0855.30
2009/04/23 10:16:27.9      22     10     92     25     95  64.7  84.9  34194  290.14 0855.30
2009/04/23 10:16:28.0      33     46     98     57    113  36.1  66.8  34204  290.31 0855.30
2009/04/23 10:16:28.1      14     71    157     73    173  11.5  73.5  34206  290.36 0855.30
2009/04/23 10:16:28.2     -12    139     98    140    170 354.7  38.6  34200  290.26 0855.30
2009/04/23 10:16:28.3     -13     72    128     74    147 349.3  67.2  34200  290.26 0855.32
2009/04/23 10:16:28.4     -12     80    115     81    140 351.1  61.1  34194  290.16 0855.32
2009/04/23 10:16:28.5     -19     28     61     35     70 325.7  67.7  34196  290.19 0855.32
2009/04/23 10:16:28.6      -1    -12     41     13     43 186.2  80.7  34198  290.23 0855.32
2009/04/23 10:16:28.7      50    -22     85     55    101 114.4  64.1  34184  289.97 0855.32
2009/04/23 10:16:28.8      91     -7    102     92    137  94.8  52.7  34172  289.77 0855.32
2009/04/23 10:16:28.9      94     89     37    130    136  46.4  15.8  34170  289.74 0855.32
2009/04/23 10:16:29.0     141      9     80    142    162  86.1  32.1  34166  289.69 0855.32
2009/04/23 10:16:29.1     109     29     92    113    145  74.9  43.7  34176  289.85 0855.32
2009/04/23 10:16:29.2     111     39     47    118    127  70.5  22.5  34176  289.84 0855.32
2009/04/23 10:16:29.3       5     17     75     18     77  18.5  86.9  34186  290.01 0855.34
2009/04/23 10:16:29.4     -41    -33     61     53     80 231.4  54.3  34192  290.11 0855.34
2009/04/23 10:16:29.5     -51    -63     38     82     90 218.7  27.1  34190  290.08 0855.34
2009/04/23 10:16:29.6     -45    -48     47     67     81 223.2  38.6  34184  289.97 0855.34
2009/04/23 10:16:29.7     -45   -101     45    111    119 204.1  23.1  34178  289.89 0855.34
2009/04/23 10:16:29.8     -61    -80     18    101    103 217.4  10.6  34176  289.84 0855.34
2009/04/23 10:16:29.9     -61   -113     33    129    134 208.5  14.7  34178  289.87 0855.34
2009/04/23 10:16:30.0     -94   -148      3    176    177 212.6   1.0  34188  290.06 0855.34
2009/04/23 10:16:30.1    -110   -168     18    201    202 213.2   5.2  34178  289.87 0855.34
2009/04/23 10:16:30.2    -125   -230      8    262    263 208.5   1.8  34172  289.76 0855.34
2009/04/23 10:16:30.3     -90   -233     19    250    251 201.2   4.4  34156  289.51 0855.34
2009/04/23 10:16:30.4     -53   -252     -5    258    259 192.0  -1.2  34150  289.41 0855.34
2009/04/23 10:16:30.5     -33   -264     13    267    268 187.1   2.8  34152  289.42 0855.34
2009/04/23 10:16:30.6      57   -264     55    271    277 167.7  11.6  34154  289.47 0855.34
2009/04/23 10:16:30.7      47   -315     44    319    322 171.5   7.9  34148  289.37 0855.34
2009/04/23 10:16:30.8      16   -268     37    269    272 176.5   8.0  34150  289.39 0855.34
2009/04/23 10:16:30.9      -4   -191     82    192    208 181.4  24.6  34144  289.31 0855.34
2009/04/23 10:16:31.0       6   -223    144    224    266 178.4  35.6  34154  289.47 0855.34
2009/04/23 10:16:31.1      -6   -195    115    196    227 182.0  33.4  34164  289.63 0855.34
2009/04/23 10:16:31.2     -29   -157    152    160    220 190.7  48.2  34194  290.14 0855.34
2009/04/23 10:16:31.3    -147   -139    175    203    268 226.4  44.9  34208  290.39 0855.34
2009/04/23 10:16:31.4    -166   -105    174    197    262 237.6  46.2  34210  290.41 0855.34
2009/04/23 10:16:31.5    -243    -86    133    258    290 250.5  29.3  34204  290.32 0855.34
2009/04/23 10:16:31.6    -263   -112    160    286    327 246.9  31.7  34206  290.34 0855.34
2009/04/23 10:16:31.7    -104   -191    221    218    310 208.7  50.2  34154  289.47 0855.34
2009/04/23 10:16:31.8    -164   -305    206    347    403 208.3  33.5  34168  289.71 0855.34
2009/04/23 10:16:31.9    -212   -228    163    312    352 223.0  29.6  34210  290.43 0855.34
2009/04/23 10:16:32.0    -253   -136    109    288    307 241.6  21.7  34258  291.24 0855.34
2009/04/23 10:16:32.1    -282    -41    107    286    305 261.6  21.3  34256  291.21 0855.34
2009/04/23 10:16:32.2     -37   -206    137    210    250 190.2  36.0  34166  289.68 0855.34
2009/04/23 10:16:32.3     -98   -273    103    291    308 199.8  20.0  34160  289.56 0855.34
2009/04/23 10:16:32.4    -113   -282     82    304    315 201.9  15.1  34158  289.53 0855.34
2009/04/23 10:16:32.5    -119   -301    135    324    351 201.6  23.8  34146  289.35 0855.34
2009/04/23 10:16:32.6    -215   -307    100    375    389 215.0  15.0  34150  289.40 0855.34
2009/04/23 10:16:32.7    -265   -310     64    409    415 220.5   8.9  34150  289.39 0855.34
2009/04/23 10:16:32.8    -248   -281     68    375    382 221.4  10.4  34148  289.37 0855.34
2009/04/23 10:16:32.9    -233   -270     41    357    360 220.8   6.7  34148  289.37 0855.34
2009/04/23 10:16:33.0    -174   -237     85    295    308 216.3  16.1  34150  289.41 0855.34
2009/04/23 10:16:33.1    -212   -269     57    343    348 218.2   9.5  34162  289.59 0855.34
2009/04/23 10:16:33.2    -189   -271     77    331    340 215.0  13.2  34146  289.35 0855.34
2009/04/23 10:16:33.3    -180   -326     52    373    377 209.0   8.0  34148  289.37 0855.33
2009/04/23 10:16:33.4     -79   -360    119    369    388 192.5  17.9  34136  289.18 0855.33
2009/04/23 10:16:33.5     -61   -393     46    398    401 188.9   6.7  34138  289.20 0855.33
2009/04/23 10:16:33.6     -75   -417     77    424    431 190.2  10.4  34130  289.07 0855.33
2009/04/23 10:16:33.7     -68   -333     95    341    355 191.6  15.6  34138  289.20 0855.33
2009/04/23 10:16:33.8     -27   -449    116    450    465 183.5  14.5  34136  289.17 0855.33
2009/04/23 10:16:33.9      30   -520    125    521    536 176.6  13.6  34140  289.24 0855.33
2009/04/23 10:16:34.0      16   -405    138    406    430 177.7  18.8  34132  289.11 0855.33
2009/04/23 10:16:34.1      73   -409    170    416    449 169.8  23.5  34140  289.22 0855.33
2009/04/23 10:16:34.2     166   -455     76    485    492 160.0   9.0  34138  289.20 0855.33
2009/04/23 10:16:34.3     209   -438    114    486    500 154.5  13.3  34136  289.15 0855.33
2009/04/23 10:16:34.4     177   -374    130    414    435 154.7  17.5  34136  289.16 0855.33
2009/04/23 10:16:34.5       0   -402     97    403    415 180.0  13.6  34144  289.29 0855.33
2009/04/23 10:16:34.6     -48   -310    136    314    342 188.9  25.0  34146  289.32 0855.33
2009/04/23 10:16:34.7      65   -291     42    299    303 167.3   8.0  34140  289.24 0855.33
2009/04/23 10:16:34.8      32   -297     37    299    302 173.7   7.1  34140  289.22 0855.33
2009/04/23 10:16:34.9      59   -373     76    378    386 171.0  11.5  34140  289.23 0855.33
2009/04/23 10:16:35.0      51   -469     76    472    479 173.7   9.2  34140  289.22 0855.33
2009/04/23 10:16:35.1      86   -564     -2    571    572 171.3  -0.3  34142  289.27 0855.33
2009/04/23 10:16:35.2      54   -597    -36    600    602 174.8  -3.5  34140  289.22 0855.33
2009/04/23 10:16:35.3      50   -601    -33    604    605 175.2  -3.2  34134  289.12 0855.33
2009/04/23 10:16:35.4     -18   -412   -188    413    453 182.6 -30.6  34136  289.17 0855.33
2009/04/23 10:16:35.5    -167   -340   -261    379    460 206.2 -42.3  34146  289.34 0855.33
2009/04/23 10:16:35.6    -133   -399   -146    421    445 198.5 -24.3  34134  289.12 0855.33
2009/04/23 10:16:35.7    -370   -398   -167    544    569 222.9 -21.8  34140  289.24 0855.33
2009/04/23 10:16:35.8    -369   -434   -224    570    612 220.4 -27.2  34130  289.07 0855.33
2009/04/23 10:16:35.9    -361   -457   -175    583    608 218.3 -21.7  34134  289.14 0855.33
2009/04/23 10:16:36.0    -293   -432   -165    523    549 214.2 -17.5  34136  289.16 0855.33
2009/04/23 10:16:36.1    -322   -278   -152    426    453 229.2 -19.7  34136  289.17 0855.33
2009/04/23 10:16:36.2    -297   -361   -148    468    491 219.5 -17.6  34136  289.15 0855.33
2009/04/23 10:16:36.3    -232   -367   -154    435    462 212.3 -19.6  34130  289.05 0855.33
2009/04/23 10:16:36.4    -316   -413   -156    521    543 217.4 -21.6  34114  288.80 0855.33
2009/04/23 10:16:36.5    -277   -512   -184    583    612 208.4 -17.6  34094  288.44 0855.33
2009/04/23 10:16:36.6    -167   -470   -158    499    524 199.6 -17.6  34092  288.42 0855.33
2009/04/23 10:16:36.7    -112   -427   -151    442    468 194.8 -18.9  34090  288.38 0855.33
2009/04/23 10:16:36.8    -196   -389    -85    436    445 206.8 -11.1  34098  288.53 0855.33
2009/04/23 10:16:36.9    -219   -347    -82    411    420 212.2 -11.3  34096  288.50 0855.33
2009/04/23 10:16:37.0    -165   -226    -82    281    292 216.1 -21.0  34110  288.71 0855.33
2009/04/23 10:16:37.1    -126   -306   -143    332    361 202.5 -29.3  34110  288.71 0855.33
2009/04/23 10:16:37.2     -43   -375   -133    378    401 186.6 -19.4  34108  288.69 0855.33
2009/04/23 10:16:37.3      12   -241   -150    242    284 177.1 -39.4  34110  288.73 0855.32
2009/04/23 10:16:37.4      38   -163   -143    168    220 166.6 -49.2  34114  288.79 0855.32
2009/04/23 10:16:37.5     -91   -258    -21    274    275 199.4  -4.4  34116  288.83 0855.32
2009/04/23 10:16:37.6     -72   -343     50    351    355 191.9   8.2  34120  288.91 0855.32
2009/04/23 10:16:37.7    -114   -403     27    419    420 195.8   3.8  34114  288.80 0855.32
2009/04/23 10:16:37.8    -109   -285     -1    306    307 200.9  -0.3  34116  288.83 0855.32
2009/04/23 10:16:37.9    -142   -235    -32    275    277 211.2  -6.7  34118  288.85 0855.32
2009/04/23 10:16:38.0      -5   -219     11    220    221 181.4   2.9  34118  288.86 0855.32
2009/04/23 10:16:38.1     -23   -196    -21    198    200 186.7  -6.2  34118  288.86 0855.32
2009/04/23 10:16:38.2    -121   -310     54    333    338 201.4   9.3  34120  288.91 0855.32
2009/04/23 10:16:38.3    -186   -309    -11    361    362 211.0  -1.8  34126  288.98 0855.32
2009/04/23 10:16:38.4     -91   -225    -85    243    258 202.1 -19.4  34122  288.92 0855.32
2009/04/23 10:16:38.5      -8   -136    -27    137    140 183.6 -11.3  34122  288.94 0855.32
2009/04/23 10:16:38.6      70    -55    -34     90     96 128.2 -25.4  34130  289.08 0855.32
2009/04/23 10:16:38.7      60     -7    -70     61     92  97.0 -58.7  34142  289.26 0855.32
2009/04/23 10:16:38.8      22    -78    -77     82    112 164.4 -52.4  34136  289.16 0855.32
2009/04/23 10:16:38.9     -33   -198   -238    201    311 189.6 -60.2  34140  289.24 0855.32
2009/04/23 10:16:39.0     103   -164   -181    194    265 147.7 -52.3  34152  289.44 0855.32
2009/04/23 10:16:39.1     197   -330   -225    385    445 149.2 -37.5  34140  289.22 0855.32
2009/04/23 10:16:39.2     335   -369   -130    499    516 137.7 -14.6  34134  289.13 0855.32
2009/04/23 10:16:39.3     136   -241      1    277    278 150.6   0.2  34138  289.19 0855.32
2009/04/23 10:16:39.4      87   -292    253    305    396 163.3  43.8  34122  288.93 0855.32
2009/04/23 10:16:39.5     -16   -305    270    306    408 183.1  45.9  34124  288.96 0855.32
2009/04/23 10:16:39.6     -18   -374    222    375    435 182.8  33.4  34118  288.85 0855.32
2009/04/23 10:16:39.7      17   -377    217    378    435 177.4  32.4  34124  288.95 0855.32
2009/04/23 10:16:39.8      58   -264    121    271    296 167.6  25.7  34132  289.10 0855.32
2009/04/23 10:16:39.9    -440   -376     90    580    588 229.5   8.9  34118  288.86 0855.32
2009/04/23 10:16:40.0    -166   -469    137    498    517 199.5  15.4  34110  288.71 0855.32
2009/04/23 10:16:40.1    -457   -467    239    654    696 224.4  21.0  34130  289.05 0855.32
2009/04/23 10:16:40.2    -352   -603    254    699    743 210.3  20.9  34128  289.03 0855.32
2009/04/23 10:16:40.3    -518   -547    127    754    765 223.4   9.6  34136  289.16 0855.32
2009/04/23 10:16:40.4    -532   -338   -155    631    650 237.6 -13.8  34136  289.18 0855.32
2009/04/23 10:16:40.5    -444   -280   -163    525    549 237.8 -22.2  34136  289.16 0855.32
2009/04/23 10:16:40.6    -611   -394   -101    728    735 237.2  -7.9  34136  289.17 0855.32
2009/04/23 10:16:40.7    -480   -403    -55    628    631 230.0  -5.1  34164  289.64 0855.32
2009/04/23 10:16:40.8    -347   -492   -142    603    620 215.2 -13.3  34146  289.34 0855.32
2009/04/23 10:16:40.9    -202   -356    -62    410    415 209.6  -8.6  34134  289.14 0855.32
2009/04/23 10:16:41.0    -333   -362    -23    493    494 222.6  -2.7  34142  289.28 0855.32
2009/04/23 10:16:41.1    -186   -407    -91    448    458 204.6 -11.5  34134  289.12 0855.32
2009/04/23 10:16:41.2    -477    -96   -252    487    548 258.6 -33.8  34144  289.29 0855.32
2009/04/23 10:16:41.3    -448   -135   -303    468    557 253.2 -40.3  34128  289.04 0855.28
2009/04/23 10:16:41.4    -396   -185   -318    438    541 245.0 -43.9  34130  289.05 0855.28
2009/04/23 10:16:41.5    -374   -307   -136    485    503 230.6 -20.2  34142  289.27 0855.28
2009/04/23 10:16:41.6    -162   -184    -96    246    264 221.4 -26.9  34140  289.22 0855.28
2009/04/23 10:16:41.7    -156   -417   -150    446    471 200.6 -18.6  34138  289.19 0855.28
2009/04/23 10:16:41.8    -227   -389     28    451    452 210.2   3.6  34134  289.14 0855.28
2009/04/23 10:16:41.9    -323   -452    -60    556    560 215.6  -6.2  34118  288.85 0855.28
2009/04/23 10:16:42.0    -167   -367    -32    404    406 204.5  -4.6  34136  289.16 0855.28
2009/04/23 10:16:42.1     -76   -374    -49    382    386 191.5  -7.4  34120  288.89 0855.28
2009/04/23 10:16:42.2     -59   -231     47    239    244 194.3  11.1  34140  289.22 0855.28
2009/04/23 10:16:42.3      32   -204    121    207    239 171.1  33.1  34138  289.21 0855.28
2009/04/23 10:16:42.4      73   -147    152    165    224 153.7  47.9  34146  289.33 0855.28
2009/04/23 10:16:42.5     142    -26     28    145    148 100.6  11.1  34148  289.38 0855.28
2009/04/23 10:16:42.6     308     87     70    321    329  74.2  12.4  34140  289.24 0855.28
2009/04/23 10:16:42.7     258     44    108    262    283  80.1  23.8  34134  289.14 0855.28
2009/04/23 10:16:42.8     236     39     90    240    256  80.5  21.7  34134  289.12 0855.28
2009/04/23 10:16:42.9     276     -8     75    277    288  91.7  15.3  34126  289.00 0855.28
2009/04/23 10:16:43.0     257     -4     60    258    265  91.0  13.1  34122  288.92 0855.28
2009/04/23 10:16:43.1     202    338     69    394    401  30.9  10.0  34130  289.08 0855.28
2009/04/23 10:16:43.2     462    389    227    605    646  49.9  21.6  34178  289.89 0855.28
2009/04/23 10:16:43.3     490    232     81    543    550  64.6   8.5  34146  289.33 0855.27
2009/04/23 10:16:43.4     409    174    126    445    463  66.9  15.8  34132  289.09 0855.27
2009/04/23 10:16:43.5     323    122     52    346    350  69.3   8.7  34136  289.15 0855.27
2009/04/23 10:16:43.6     633    236     88    676    682  69.5   7.4  34138  289.19 0855.27
2009/04/23 10:16:43.7     621    279     95    681    688  65.8   8.0  34134  289.14 0855.27
2009/04/23 10:16:43.8     423    457    163    623    644  42.8  14.7  34184  289.99 0855.27
2009/04/23 10:16:43.9     434    492     94    657    664  41.4   8.2  34182  289.93 0855.27
2009/04/23 10:16:44.0     391    229     92    454    464  59.6  11.5  34190  290.07 0855.27
2009/04/23 10:16:44.1     370     31    120    372    391  85.2  17.9  34132  289.10 0855.27
2009/04/23 10:16:44.2     107    -68    186    127    225 122.4  62.6  34152  289.43 0855.27
2009/04/23 10:16:44.3       8     32    155     34    158  15.1  88.0  34164  289.65 0855.27
2009/04/23 10:16:44.4     302    149     56    337    342  63.7   9.5  34146  289.35 0855.27
2009/04/23 10:16:44.5      90    320    218    333    398  15.7  36.3  34188  290.04 0855.27
2009/04/23 10:16:44.6     454    125     19    471    472  74.6   2.3  34152  289.42 0855.27
2009/04/23 10:16:44.7     304    350    267    464    535  41.0  32.4  34180  289.91 0855.27
2009/04/23 10:16:44.8     313    322    275    450    527  44.2  34.3  34126  289.00 0855.27
2009/04/23 10:16:44.9     496     57    223    500    547  83.4  25.7  34166  289.67 0855.27
2009/04/23 10:16:45.0     455    149    115    479    493  71.8  13.6  34156  289.50 0855.27
2009/04/23 10:16:45.1     403     79    328    411    525  78.9  42.7  34182  289.96 0855.27
2009/04/23 10:16:45.2     319    216    286    386    480  55.9  40.2  34192  290.11 0855.27
2009/04/23 10:16:45.3     490    120    210    505    546  76.2  24.1  34172  289.79 0855.27
2009/04/23 10:16:45.4     548    111    314    560    642  78.5  31.9  34164  289.65 0855.27
2009/04/23 10:16:45.5     403    -68    272    409    491  99.6  36.9  34132  289.10 0855.27
2009/04/23 10:16:45.6     238   -115    305    265    404 115.8  54.7  34142  289.28 0855.27
2009/04/23 10:16:45.7     231   -177    277    292    402 127.5  48.4  34136  289.15 0855.27
2009/04/23 10:16:45.8     150    -82    282    172    330 118.8  65.7  34150  289.41 0855.27
2009/04/23 10:16:45.9      84    -96    248    128    279 139.0  70.8  34156  289.49 0855.27
2009/04/23 10:16:46.0     211   -214    273    301    406 135.5  46.9  34138  289.20 0855.27
2009/04/23 10:16:46.1     294   -282    233    408    469 133.8  32.3  34146  289.33 0855.27
2009/04/23 10:16:46.2     272   -308    192    412    454 138.6  27.0  34162  289.60 0855.27
2009/04/23 10:16:46.3     316   -202    237    376    444 122.6  35.5  34140  289.24 0855.27
2009/04/23 10:16:46.4     161    -46    209    168    268 105.9  57.1  34146  289.32 0855.27
2009/04/23 10:16:46.5       0    103    163    104    193   0.5  64.7  34164  289.65 0855.27
2009/04/23 10:16:46.6     -21     46    189     51    195 334.5  84.9  34152  289.45 0855.27
2009/04/23 10:16:46.7    -218     76    -36    232    235 289.3  -8.8  34150  289.41 0855.27
2009/04/23 10:16:46.8     -59    178      5    188    189 341.7   1.8  34140  289.24 0855.27
2009/04/23 10:16:46.9    -222    268     50    349    353 320.4   8.2  34152  289.45 0855.27
2009/04/23 10:16:47.0    -389    165   -132    423    443 293.1 -22.4  34146  289.33 0855.27
2009/04/23 10:16:47.1    -373    162   -128    407    427 293.5 -17.6  34152  289.44 0855.27
2009/04/23 10:16:47.2    -567   -181   -214    596    633 252.3 -25.0  34142  289.28 0855.27
2009/04/23 10:16:47.3    -682     29   -115    683    693 272.5  -9.6  34138  289.19 0855.27
2009/04/23 10:16:47.4    -528    -12    107    529    540 268.6  11.5  34132  289.11 0855.27
2009/04/23 10:16:47.5    -437     67    -29    443    444 278.7  -3.8  34146  289.33 0855.27
2009/04/23 10:16:47.6    -491   -146     32    513    515 253.4   3.6  34148  289.37 0855.27
2009/04/23 10:16:47.7    -227   -213    218    312    380 226.8  38.4  34160  289.57 0855.27
2009/04/23 10:16:47.8    -240    -23     93    242    259 264.3  22.0  34170  289.75 0855.27
2009/04/23 10:16:48.0    -231   -118     82    260    273 243.0  17.7  34158  289.53 0855.27
2009/04/23 10:16:48.1    -207   -123    170    242    295 239.3  38.6  34178  289.88 0855.27
2009/04/23 10:16:48.1    -177    -48    221    184    287 254.7  56.3  34180  289.90 0855.27
2009/04/23 10:16:48.2     -50   -122    172    132    216 202.3  58.7  34162  289.60 0855.27
2009/04/23 10:16:48.3     -57   -239    207    246    321 193.4  44.4  34150  289.39 0855.27
2009/04/23 10:16:48.4     -53   -198    226    206    305 195.2  53.0  34152  289.44 0855.27
2009/04/23 10:16:48.6      17   -258    169    259    309 176.2  35.7  34150  289.39 0855.27
2009/04/23 10:16:48.7      49   -240     86    246    261 168.4  19.4  34154  289.46 0855.27
2009/04/23 10:16:48.8     -24   -212    205    214    296 186.5  48.7  34142  289.27 0855.27
2009/04/23 10:16:48.9      80    -99    219    128    253 141.3  67.2  34144  289.30 0855.27
2009/04/23 10:16:49.0     220   -227    219    317    385 135.9  37.9  34130  289.08 0855.27
2009/04/23 10:16:49.1      89   -440    119    449    465 168.6  14.9  34134  289.12 0855.27
2009/04/23 10:16:49.2     121   -395    117    414    431 163.0  15.8  34140  289.24 0855.27
2009/04/23 10:16:49.3     151   -454    140    479    500 161.5  16.3  34144  289.30 0855.27
2009/04/23 10:16:49.4     135   -446    108    467    480 163.1  13.1  34142  289.28 0855.26
2009/04/23 10:16:49.5     138   -387    116    412    429 160.3  15.8  34148  289.36 0855.26
2009/04/23 10:16:49.6     136   -421     80    443    451 162.1  10.2  34142  289.27 0855.26
2009/04/23 10:16:49.7     228   -444    102    500    511 152.8  11.6  34130  289.06 0855.26
2009/04/23 10:16:49.8     249   -434     94    501    510 150.1  10.7  34130  289.06 0855.26
2009/04/23 10:16:49.9     152   -329    280    363    458 155.2  41.6  34126  289.00 0855.26
2009/04/23 10:16:50.0     258   -246    168    357    394 133.6  27.1  34136  289.15 0855.26
2009/04/23 10:16:50.1     142   -332    207    362    417 156.8  32.3  34130  289.06 0855.26
2009/04/23 10:16:50.2      88   -359     71    370    377 166.2  11.0  34128  289.04 0855.26
2009/04/23 10:16:50.3      91   -280    -21    295    296 162.0  -4.1  34128  289.02 0855.26
2009/04/23 10:16:50.4      61   -350    -26    356    357 170.0  -4.2  34132  289.10 0855.27
2009/04/23 10:16:50.5    -141   -403     27    428    429 199.3   3.7  34132  289.11 0855.27
2009/04/23 10:16:50.6    -115   -471     32    485    487 193.8   3.8  34120  288.91 0855.27
2009/04/23 10:16:50.7    -113   -392     67    408    414 196.1   9.3  34114  288.80 0855.27
2009/04/23 10:16:50.8    -103   -500    146    511    532 191.7  16.0  34128  289.02 0855.27
2009/04/23 10:16:50.9     -80   -349    282    359    456 193.0  42.1  34124  288.97 0855.27
2009/04/23 10:16:51.0    -112   -268    219    291    364 202.7  40.9  34122  288.94 0855.27
2009/04/23 10:16:51.1    -157   -397    150    427    452 201.6  20.1  34124  288.95 0855.27
2009/04/23 10:16:51.2    -205   -543     24    581    582 200.7   2.4  34130  289.05 0855.27
2009/04/23 10:16:51.3    -146   -492     21    514    515 196.5   2.4  34126  289.01 0855.27
2009/04/23 10:16:51.4     -25   -264   -123    266    293 185.6 -31.0  34120  288.90 0855.27
2009/04/23 10:16:51.5     -43   -252   -142    256    292 189.8 -35.8  34120  288.88 0855.27
2009/04/23 10:16:51.6     -33   -206   -167    209    267 189.1 -47.2  34124  288.95 0855.27
2009/04/23 10:16:51.7     -11   -203    -56    204    212 183.1 -15.5  34122  288.94 0855.27
2009/04/23 10:16:51.8     -34   -318    -55    320    325 186.2  -9.8  34118  288.85 0855.27
2009/04/23 10:16:51.9      16   -255    -51    256    262 176.4 -11.3  34114  288.78 0855.27
2009/04/23 10:16:52.0     -79   -302    -90    313    325 194.7 -20.9  34116  288.81 0855.27
2009/04/23 10:16:52.1     -20   -339   -149    340    371 183.5 -29.5  34112  288.76 0855.27
2009/04/23 10:16:52.2    -110   -385   -123    401    419 196.0 -22.1  34106  288.67 0855.27
2009/04/23 10:16:52.3    -173   -308    -78    354    363 209.4 -12.5  34120  288.89 0855.27
2009/04/23 10:16:52.4    -150   -208    -26    257    259 215.8  -6.0  34116  288.83 0855.29
2009/04/23 10:16:52.5    -154     61    -46    166    172 291.7 -20.4  34116  288.82 0855.29
2009/04/23 10:16:52.6     -69      5    -31     70     76 274.4 -29.5  34118  288.87 0855.29
2009/04/23 10:16:52.7      -6   -180    -62    181    192 182.0 -18.9  34122  288.94 0855.29
2009/04/23 10:16:52.8     -26   -190    -53    192    200 188.0 -15.5  34124  288.97 0855.29
2009/04/23 10:16:52.9     -14   -244    -37    245    248 183.4  -8.6  34122  288.92 0855.29
2009/04/23 10:16:53.0      14   -309    -92    310    324 177.3 -16.6  34122  288.93 0855.29
2009/04/23 10:16:53.1       4   -292   -107    293    311 179.1 -25.3  34128  289.02 0855.29
2009/04/23 10:16:53.2    -108   -351   -125    368    388 197.2 -23.5  34120  288.88 0855.29
2009/04/23 10:16:53.3      70   -410   -155    417    444 170.2 -25.7  34112  288.75 0855.29
2009/04/23 10:16:53.4     199   -423   -147    468    490 154.8 -22.3  34108  288.68 0855.29
2009/04/23 10:16:53.5     254   -254     32    360    362 135.1   5.1  34102  288.60 0855.29
2009/04/23 10:16:53.6     213   -276     32    349    351 142.4   5.3  34114  288.79 0855.29
2009/04/23 10:16:53.7     269   -308     91    410    421 138.8  12.6  34104  288.63 0855.29
2009/04/23 10:16:53.8     188   -317    140    369    394 149.3  21.8  34112  288.77 0855.29
2009/04/23 10:16:53.9     157   -435    218    463    511 160.1  27.1  34094  288.46 0855.29
2009/04/23 10:16:54.0      10   -366    307    367    478 178.4  44.2  34098  288.53 0855.29
2009/04/23 10:16:54.1      67   -279    228    287    366 166.4  42.4  34100  288.55 0855.29
2009/04/23 10:16:54.2      46    -70    127     85    152 146.6  63.6  34108  288.70 0855.29
2009/04/23 10:16:54.3     112   -134    111    175    207 140.1  35.5  34110  288.74 0855.29
2009/04/23 10:16:54.4      27    -35     77     45     89 143.0  66.8  34120  288.91 0855.27
2009/04/23 10:16:54.5      -5      0    133      6    133 270.0  90.0  34114  288.79 0855.27
2009/04/23 10:16:54.6      -1   -101     95    102    139 180.9  47.9  34100  288.57 0855.27
2009/04/23 10:16:54.7      81    -56    117     99    153 124.6  55.8  34108  288.69 0855.27
2009/04/23 10:16:54.8      59    -71     61     93    111 140.4  36.0  34108  288.69 0855.27
2009/04/23 10:16:54.9      68   -130     91    147    172 152.4  35.2  34102  288.58 0855.27
2009/04/23 10:16:55.0     -32    -96    204    102    228 198.3  71.7  34118  288.86 0855.27
2009/04/23 10:16:55.1      85     -1    117     86    145  90.8  60.5  34124  288.97 0855.27
2009/04/23 10:16:55.2     125    -80    114    149    187 122.5  41.2  34108  288.70 0855.27
2009/04/23 10:16:55.3      35   -159     -7    164    165 167.3  -2.6  34106  288.65 0855.27
2009/04/23 10:16:55.4      19   -195    -74    197    210 174.2 -25.4  34102  288.58 0855.27
2009/04/23 10:16:55.5      -9   -162    -98    163    190 183.4 -38.4  34102  288.60 0855.27
2009/04/23 10:16:55.6      -9   -117   -115    118    164 184.5 -54.2  34100  288.57 0855.27
2009/04/23 10:16:55.7     -62   -101   -146    119    188 211.6 -60.8  34106  288.65 0855.27
2009/04/23 10:16:55.8     -35    -34   -114     50    124 226.0 -79.4  34114  288.79 0855.27
2009/04/23 10:16:55.9    -139     17    -75    141    159 277.0 -34.7  34100  288.57 0855.27
2009/04/23 10:16:56.0    -133    -90   -114    161    197 235.9 -43.2  34108  288.70 0855.27
2009/04/23 10:16:56.1     -80   -237    -79    251    264 198.7 -17.6  34104  288.61 0855.27
2009/04/23 10:16:56.2      41   -278   -199    282    345 171.5 -43.1  34100  288.54 0855.27
2009/04/23 10:16:56.3     -87   -285   -183    299    350 196.9 -39.0  34094  288.47 0855.27
2009/04/23 10:16:56.4     -88   -200   -201    219    297 203.8 -52.1  34100  288.54 0855.26
2009/04/23 10:16:56.5     -48   -180   -173    187    254 195.2 -52.3  34104  288.61 0855.26
2009/04/23 10:16:56.6      63   -312   -160    319    356 168.4 -33.1  34102  288.60 0855.26
2009/04/23 10:16:56.7     160   -219   -104    272    291 143.9 -26.4  34098  288.53 0855.26
2009/04/23 10:16:56.8    -214    -59   -128    223    257 254.5 -36.8  34104  288.63 0855.26
2009/04/23 10:16:56.9    -161    -88   -218    184    285 241.1 -60.0  34108  288.70 0855.26
2009/04/23 10:16:57.0    -110    -56   -185    124    222 242.9 -67.6  34102  288.60 0855.26
2009/04/23 10:16:57.1     -23   -250   -208    252    326 185.4 -48.1  34094  288.46 0855.26
2009/04/23 10:16:57.2    -232      3   -126    233    264 270.8 -35.0  34100  288.54 0855.26
2009/04/23 10:16:57.3    -303   -129   -150    330    362 246.9 -30.7  34126  288.98 0855.26
2009/04/23 10:16:57.4    -163   -168   -153    235    280 224.1 -40.4  34116  288.83 0855.26
2009/04/23 10:16:57.5     132   -337   -145    362    389 158.6 -27.4  34098  288.52 0855.26
2009/04/23 10:16:57.6     104   -328    -52    345    349 162.3  -8.7  34102  288.59 0855.26
2009/04/23 10:16:57.7     -36   -256     -1    259    260 188.0  -0.3  34102  288.59 0855.26
2009/04/23 10:16:57.8     -12    -82    -27     84     88 188.9 -23.3  34112  288.75 0855.26
2009/04/23 10:16:57.9     -37    -74    -43     83     93 206.7 -33.7  34118  288.86 0855.26
2009/04/23 10:16:58.0     -17   -114    -44    116    124 188.5 -25.4  34116  288.84 0855.26
2009/04/23 10:16:58.1      60   -181    -72    191    204 161.5 -25.7  34118  288.87 0855.26
2009/04/23 10:16:58.2      77   -240    -91    253    268 162.2 -24.8  34114  288.78 0855.26
2009/04/23 10:16:58.3     185   -269   -115    327    346 145.4 -24.4  34106  288.66 0855.26
2009/04/23 10:16:58.4     116   -367   -120    385    403 162.4 -22.3  34116  288.81 0855.25
2009/04/23 10:16:58.5       6    -62   -197     63    206 173.8 -86.2  34110  288.74 0855.25
2009/04/23 10:16:58.6    -103    -54   -156    117    195 242.5 -64.2  34124  288.97 0855.25
2009/04/23 10:16:58.7     -46   -101   -116    111    160 204.5 -55.8  34126  288.99 0855.25
2009/04/23 10:16:58.8     -10   -150   -106    151    184 184.0 -43.0  34124  288.97 0855.25
2009/04/23 10:16:58.9      56   -153    -16    164    165 159.7  -5.6  34118  288.86 0855.25
2009/04/23 10:16:59.0     137   -202     34    245    248 145.7   8.0  34110  288.71 0855.25
2009/04/23 10:16:59.1     147   -223    155    268    309 146.6  32.7  34102  288.59 0855.25
2009/04/23 10:16:59.2     124   -110    -62    166    177 131.6 -25.9  34106  288.67 0855.25
2009/04/23 10:16:59.3     207   -114    -85    237    251 118.8 -24.8  34112  288.75 0855.25
2009/04/23 10:16:59.4     131   -172    -64    217    227 142.6 -16.5  34108  288.70 0855.25
2009/04/23 10:16:59.5     -50   -244    -32    250    253 191.6  -7.3  34106  288.66 0855.25
2009/04/23 10:16:59.6    -140   -104    -96    175    199 233.4 -35.7  34102  288.60 0855.25
2009/04/23 10:16:59.7     -90   -118     96    149    177 217.4  35.7  34104  288.64 0855.25
2009/04/23 10:16:59.8    -111   -220     88    247    262 206.7  20.2  34108  288.68 0855.25
2009/04/23 10:16:59.9     -26   -246     34    248    251 186.2   8.0  34108  288.70 0855.25
2009/04/23 10:17:00.0     -54   -161     65    170    182 198.7  22.0  34110  288.74 0855.25
2009/04/23 10:17:00.1      45    -37     97     59    113 129.6  64.7  34120  288.91 0855.25
2009/04/23 10:17:00.2      57   -242     48    249    254 166.7  11.1  34106  288.66 0855.25
2009/04/23 10:17:00.3      56   -201     50    209    215 164.2  13.5  34108  288.69 0855.25
2009/04/23 10:17:00.4     -89   -223    121    241    269 201.8  28.5  34100  288.54 0855.23
2009/04/23 10:17:00.5    -144   -317    201    349    402 204.5  32.4  34104  288.62 0855.23
2009/04/23 10:17:00.6     -83   -469    211    477    521 190.1  25.6  34106  288.66 0855.23
2009/04/23 10:17:00.7      61   -554    271    558    620 173.7  27.7  34106  288.66 0855.23
2009/04/23 10:17:00.8     -11    -95    222     96    241 186.7  75.3  34112  288.75 0855.23
2009/04/23 10:17:00.9       7   -444     38    445    447 179.0   5.0  34104  288.63 0855.23
2009/04/23 10:17:01.0     228   -554     78    600    606 157.6   7.5  34108  288.68 0855.23
2009/04/23 10:17:01.1      85   -612    142    618    635 172.1  13.0  34102  288.60 0855.23
2009/04/23 10:17:01.2     121   -676    -32    687    688 169.8  -2.7  34106  288.65 0855.23
2009/04/23 10:17:01.3     249   -568    -40    621    623 156.3  -3.7  34106  288.67 0855.23
2009/04/23 10:17:01.4     276   -516    -32    586    587 151.9  -3.2  34112  288.75 0855.23
2009/04/23 10:17:01.5     290   -522     39    598    600 151.0   3.8  34110  288.71 0855.23
2009/04/23 10:17:01.6     190   -398    181    442    477 154.5  23.5  34108  288.68 0855.23
2009/04/23 10:17:01.7     125   -263    147    292    326 154.5  28.7  34104  288.63 0855.23
2009/04/23 10:17:01.8      60   -439    169    444    475 172.2  21.8  34110  288.74 0855.23
2009/04/23 10:17:02.0     115   -312    135    333    359 159.7  23.4  34110  288.72 0855.23
2009/04/23 10:17:02.0     106   -290    188    309    361 159.9  34.2  34112  288.77 0855.23
2009/04/23 10:17:02.1      76   -247    175    259    312 162.8  37.3  34110  288.71 0855.23
2009/04/23 10:17:02.2     118   -249    180    276    329 154.7  36.0  34114  288.80 0855.23
2009/04/23 10:17:02.3     110   -369    247    386    458 163.4  35.6  34110  288.73 0855.23
2009/04/23 10:17:02.4      29   -345    186    347    393 175.1  30.3  34116  288.82 0855.23
2009/04/23 10:17:02.5     -16   -334    241    335    412 182.9  39.5  34114  288.79 0855.23
2009/04/23 10:17:02.6      -5   -338    201    339    394 180.9  33.5  34116  288.82 0855.23
2009/04/23 10:17:02.7      62   -308    195    315    370 168.5  35.0  34112  288.77 0855.23
2009/04/23 10:17:02.8      25   -269    169    271    319 174.6  35.1  34118  288.85 0855.23
2009/04/23 10:17:02.9      28   -295    260    297    394 174.4  45.8  34116  288.82 0855.23
2009/04/23 10:17:03.0      23   -242    223    244    330 174.4  47.1  34120  288.88 0855.23
2009/04/23 10:17:03.1     -32   -259    216    262    339 187.1  43.7  34118  288.85 0855.23
2009/04/23 10:17:03.2    -108   -327    247    345    424 198.4  39.2  34118  288.86 0855.23
2009/04/23 10:17:03.3    -103   -377    152    391    419 195.3  22.3  34122  288.94 0855.23
2009/04/23 10:17:03.4     -97   -343     69    357    364 195.9  11.0  34120  288.91 0855.23
2009/04/23 10:17:03.5     -46   -241     34    246    249 190.9   8.0  34116  288.81 0855.23
2009/04/23 10:17:03.6      58    -91    -22    109    112 147.5 -11.5  34120  288.89 0855.23
2009/04/23 10:17:03.7     204   -301    239    364    435 145.9  36.5  34120  288.90 0855.23
2009/04/23 10:17:03.8     112   -273    162    296    337 157.7  31.3  34122  288.93 0855.23
2009/04/23 10:17:03.9     183   -329     62    377    383 150.9   9.3  34116  288.84 0855.23
2009/04/23 10:17:04.0     124    -94    105    156    188 127.3  37.0  34126  288.99 0855.23
2009/04/23 10:17:04.1     134     -2    112    135    175  91.3  43.8  34134  289.13 0855.23
2009/04/23 10:17:04.2      90     54     41    106    113  58.9  22.0  34128  289.04 0855.23
2009/04/23 10:17:04.3     122     97    111    157    192  51.4  38.8  34124  288.96 0855.23
2009/04/23 10:17:04.4      41     -5    135     42    141  97.0  82.7  34136  289.18 0855.21
2009/04/23 10:17:04.5      22     10    139     25    141  64.7  90.0  34132  289.11 0855.21
2009/04/23 10:17:04.6      -7     -3     43      8     43 244.7  90.0  34134  289.13 0855.21
2009/04/23 10:17:04.7      60     -3     86     61    105  93.5  61.1  34130  289.08 0855.21
2009/04/23 10:17:04.8     -35     11     99     37    105 288.2  78.6  34144  289.30 0855.21
2009/04/23 10:17:04.9      -5    -72    139     73    157 184.5  70.4  34134  289.14 0855.21
2009/04/23 10:17:05.0     -51   -151    151    160    220 198.7  48.2  34124  288.96 0855.21
2009/04/23 10:17:05.1    -153   -151    199    216    293 225.3  47.9  34128  289.03 0855.21
2009/04/23 10:17:05.2    -130   -168     57    213    221 217.6  15.0  34146  289.33 0855.21
2009/04/23 10:17:05.3     -16   -204    107    205    231 184.7  29.5  34134  289.13 0855.21
2009/04/23 10:17:05.4    -164   -165    128    233    265 224.9  31.3  34142  289.25 0855.21
2009/04/23 10:17:05.5    -135   -333    142    360    386 202.1  22.9  34130  289.06 0855.21
2009/04/23 10:17:05.6    -180   -296    141    347    374 211.4  23.4  34124  288.96 0855.21
2009/04/23 10:17:05.7    -193   -261    140    326    354 216.5  24.9  34126  289.01 0855.21
2009/04/23 10:17:05.8    -171   -306    186    351    397 209.3  30.2  34138  289.21 0855.21
2009/04/23 10:17:05.9    -175   -343    162    386    418 207.1  24.1  34136  289.17 0855.21
2009/04/23 10:17:06.0    -333   -232     97    407    419 235.1  13.5  34182  289.94 0855.21
2009/04/23 10:17:06.1    -216   -173    141    277    310 231.3  29.2  34182  289.93 0855.21
2009/04/23 10:17:06.2    -159   -227    105    278    297 215.0  21.7  34174  289.80 0855.21
2009/04/23 10:17:06.3    -115   -208    157    239    285 209.0  36.5  34160  289.58 0855.21
2009/04/23 10:17:06.4    -101   -227    141    249    286 204.1  32.1  34128  289.03 0855.21
2009/04/23 10:17:06.5    -135   -320    157    348    381 202.9  25.9  34120  288.89 0855.21
2009/04/23 10:17:06.6    -230   -287    210    368    423 218.7  32.3  34124  288.95 0855.21
2009/04/23 10:17:06.7    -189   -203    200    278    342 223.0  39.5  34116  288.81 0855.21
2009/04/23 10:17:06.8    -104   -157    236    189    302 213.6  57.5  34132  289.09 0855.21
2009/04/23 10:17:06.9     -78   -182    223    199    298 203.2  53.7  34128  289.03 0855.21
2009/04/23 10:17:07.0     -88   -153    263    177    317 209.9  62.8  34140  289.24 0855.21
2009/04/23 10:17:07.1       7    -92    232     93    249 175.5  77.1  34136  289.18 0855.21
2009/04/23 10:17:07.2     -81   -239    274    253    372 198.7  52.5  34122  288.94 0855.21
2009/04/23 10:17:07.3    -151   -280    283    319    426 208.3  46.2  34130  289.08 0855.21
2009/04/23 10:17:07.4    -171   -160    176    235    293 226.8  40.6  34136  289.17 0855.21
2009/04/23 10:17:07.5    -145    -98    204    176    269 236.0  55.0  34140  289.24 0855.21
2009/04/23 10:17:07.6    -124    -94    176    156    235 232.7  54.0  34146  289.33 0855.21
2009/04/23 10:17:07.7    -148   -197    313    247    398 217.0  57.8  34146  289.35 0855.21
2009/04/23 10:17:07.8     -82   -217    260    233    349 200.7  53.6  34126  288.98 0855.21
2009/04/23 10:17:07.9     -12   -284     84    285    298 182.6  16.4  34120  288.90 0855.21
2009/04/23 10:17:08.0       4   -277    139    278    310 179.1  28.2  34122  288.93 0855.21
2009/04/23 10:17:08.1     -74   -244    170    256    307 197.0  36.5  34120  288.88 0855.21
2009/04/23 10:17:08.2    -194   -198    -32    278    280 224.3  -6.7  34122  288.92 0855.21
2009/04/23 10:17:08.3    -154   -180     70    237    248 220.6  16.4  34120  288.90 0855.21
2009/04/23 10:17:08.4    -220   -187    158    289    329 229.6  30.9  34146  289.32 0855.23
2009/04/23 10:17:08.5    -146   -184     98    236    255 218.5  24.1  34142  289.25 0855.23
2009/04/23 10:17:08.6    -130   -147    173    197    262 221.4  45.9  34154  289.46 0855.23
2009/04/23 10:17:08.7    -154   -227    156    275    316 214.3  32.1  34150  289.39 0855.23
2009/04/23 10:17:08.8    -144   -190    107    239    261 217.2  25.7  34132  289.09 0855.23
2009/04/23 10:17:08.9    -133   -116    131    177    220 228.7  40.1  34122  288.92 0855.23
2009/04/23 10:17:09.0     -67   -105     83    125    150 212.5  36.5  34128  289.04 0855.23
2009/04/23 10:17:09.1    -131   -161     46    208    214 219.2  12.6  34132  289.09 0855.23
2009/04/23 10:17:09.2    -157   -138     20    210    212 228.7   5.7  34132  289.11 0855.23
2009/04/23 10:17:09.3    -235    -14     64    236    245 266.5  15.2  34136  289.15 0855.23
2009/04/23 10:17:09.4    -331   -103    -85    347    358 252.7 -13.8  34126  288.99 0855.23
2009/04/23 10:17:09.5    -285    -93    -51    300    305 251.8  -9.8  34130  289.05 0855.23
2009/04/23 10:17:09.6    -211    -92    -12    231    232 246.5  -3.1  34124  288.96 0855.23
2009/04/23 10:17:09.7    -239    -32   -100    242    261 262.3 -28.0  34130  289.07 0855.23
2009/04/23 10:17:09.8    -172   -135    -67    219    230 231.8 -17.0  34134  289.13 0855.23
2009/04/23 10:17:09.9    -197    -47     10    203    204 256.5   2.9  34142  289.26 0855.23
2009/04/23 10:17:10.0    -212   -225    -69    310    318 223.3 -12.6  34148  289.37 0855.23
2009/04/23 10:17:10.1    -296   -242     29    383    384 230.8   4.3  34162  289.62 0855.23
2009/04/23 10:17:10.2    -332   -192     15    384    385 239.9   2.3  34136  289.18 0855.23
2009/04/23 10:17:10.3    -333     46    -42    337    340 277.9  -7.2  34130  289.06 0855.23
2009/04/23 10:17:10.4    -461      0    -60    462    466 270.0  -7.5  34140  289.22 0855.24
2009/04/23 10:17:10.5    -252    -26     98    254    272 263.9  22.1  34144  289.29 0855.24
2009/04/23 10:17:10.6    -264   -179    135    320    347 235.8  24.2  34142  289.25 0855.24
2009/04/23 10:17:10.7    -192   -112    130    223    258 239.6  32.9  34140  289.22 0855.24
2009/04/23 10:17:10.8     -89   -245     92    261    277 200.0  19.4  34136  289.17 0855.24
2009/04/23 10:17:10.9      26   -162     78    165    182 170.9  27.1  34134  289.14 0855.24
2009/04/23 10:17:11.0      17    -67    135     70    152 165.7  70.8  34146  289.35 0855.24
2009/04/23 10:17:11.1      36     -7    128     37    133 101.5  83.3  34146  289.35 0855.24
2009/04/23 10:17:11.2     -96    -32    102    102    144 251.6  50.1  34154  289.48 0855.24
2009/04/23 10:17:11.3    -259     23    -82    261    274 275.2 -17.5  34154  289.46 0855.24
2009/04/23 10:17:11.4    -159    -34    -25    163    166 257.6  -9.0  34150  289.41 0855.23
2009/04/23 10:17:11.5     -90   -276      5    291    292 198.0   1.0  34146  289.32 0855.23
2009/04/23 10:17:11.6     -73   -212     75    225    238 199.2  18.4  34144  289.29 0855.23
2009/04/23 10:17:11.7     -18   -244     25    245    247 184.4   6.0  34132  289.10 0855.23
2009/04/23 10:17:11.8    -110   -191     56    221    229 210.1  14.3  34132  289.09 0855.23
2009/04/23 10:17:11.9     -87   -183      9    203    204 205.5   2.8  34132  289.09 0855.23
2009/04/23 10:17:12.0     -77   -147    136    167    215 207.6  43.7  34128  289.04 0855.23
2009/04/23 10:17:12.1    -103   -106     52    148    157 224.1  19.4  34128  289.02 0855.23
2009/04/23 10:17:12.2    -126   -122     80    176    193 226.0  26.4  34112  288.77 0855.23
2009/04/23 10:17:12.3      57    -47     29     75     80 129.5  22.5  34122  288.92 0855.23
2009/04/23 10:17:12.4     135    -86     -1    161    162 122.4  -0.5  34120  288.91 0855.23
2009/04/23 10:17:12.5     108    -89     96    141    170 129.5  37.6  34122  288.94 0855.23
2009/04/23 10:17:12.6      84     -7     97     85    128  95.2  54.3  34136  289.16 0855.23
2009/04/23 10:17:12.7      68    -52     37     86     93 127.3  24.6  34132  289.11 0855.23
2009/04/23 10:17:12.8      24     -4     24     25     34  99.7  52.0  34132  289.11 0855.23
2009/04/23 10:17:12.9       2    -39      9     40     42 176.4  13.2  34128  289.04 0855.23
2009/04/23 10:17:13.0     -22    -50    -11     55     57 204.5 -11.3  34122  288.94 0855.23
2009/04/23 10:17:13.1     -62    -51      3     81     82 230.5   2.3  34120  288.91 0855.23
2009/04/23 10:17:13.2    -130     10      1    131    132 274.8   0.8  34116  288.82 0855.23
2009/04/23 10:17:13.3    -113     37     24    119    122 288.2  11.6  34128  289.02 0855.23
2009/04/23 10:17:13.4     -84    -89     31    123    127 223.3  14.3  34124  288.96 0855.24
2009/04/23 10:17:13.5    -120   -168     48    207    213 215.6  13.2  34114  288.80 0855.24
2009/04/23 10:17:13.6       2   -161     57    162    171 179.1  20.0  34114  288.80 0855.24
2009/04/23 10:17:13.7      10   -128     65    129    144 175.1  29.2  34110  288.74 0855.24
2009/04/23 10:17:13.8    -148   -164    208    221    303 222.1  48.0  34124  288.95 0855.24
2009/04/23 10:17:13.9     -74   -109    179    133    223 214.3  60.0  34126  288.99 0855.24
2009/04/23 10:17:14.0    -207    -69    110    219    245 251.6  28.5  34140  289.24 0855.24
2009/04/23 10:17:14.1    -163     26    113    166    200 279.2  37.6  34144  289.30 0855.24
2009/04/23 10:17:14.2    -165     80    112    184    215 296.0  34.2  34142  289.28 0855.24
2009/04/23 10:17:14.3    -125     91    142    155    210 306.0  47.5  34146  289.35 0855.24
2009/04/23 10:17:14.4     -60    -12    138     62    151 258.6  74.0  34152  289.43 0855.24
2009/04/23 10:17:14.5    -146    -79    175    167    241 241.6  51.2  34140  289.23 0855.24
2009/04/23 10:17:14.6    -158   -115    151    196    247 234.0  41.6  34146  289.33 0855.24
2009/04/23 10:17:14.8    -106    -59    122    122    172 240.7  50.1  34150  289.40 0855.24
2009/04/23 10:17:14.8    -101    -96     64    140    153 226.4  27.1  34142  289.28 0855.24
2009/04/23 10:17:15.0     -83    -98      8    129    130 220.1   3.8  34134  289.13 0855.24
2009/04/23 10:17:15.1      42    -33     -1     54     55 128.6  -1.3  34128  289.02 0855.24
2009/04/23 10:17:15.2      66     -4     -3     67     68  93.5  -3.2  34126  288.99 0855.24
2009/04/23 10:17:15.3     -63    115     -1    132    133 331.1  -0.7  34122  288.94 0855.24
2009/04/23 10:17:15.4    -229    131     -1    264    265 299.8  -0.3  34142  289.27 0855.24
2009/04/23 10:17:15.5    -326    -24     41    327    330 265.6   7.2  34126  289.01 0855.26
2009/04/23 10:17:15.6    -371     10     53    372    376 271.6   8.1  34142  289.25 0855.26
2009/04/23 10:17:15.7    -257     19    140    258    293 274.3  31.0  34072  288.09 0855.26
2009/04/23 10:17:15.8    -406   -154    171    435    467 249.2  22.5  34106  288.65 0855.26
2009/04/23 10:17:15.9    -321   -342    -56    470    474 223.2  -6.8  34120  288.90 0855.26
2009/04/23 10:17:16.0     -31   -246     34    248    251 187.2   8.0  34100  288.54 0855.26
2009/04/23 10:17:16.1     -63   -223    -29    232    234 195.8  -7.2  34104  288.61 0855.26
2009/04/23 10:17:16.2     -78   -284    -16    295    296 195.4  -3.3  34106  288.65 0855.26
2009/04/23 10:17:16.3     -93   -216     28    236    238 203.4   6.9  34114  288.80 0855.26
2009/04/23 10:17:16.4    -150   -275    217    314    381 208.7  38.0  34114  288.79 0855.26
2009/04/23 10:17:16.5    -131   -275    143    305    336 205.5  27.1  34110  288.71 0855.26
2009/04/23 10:17:16.6    -103   -248    239    269    359 202.7  46.3  34100  288.54 0855.26
2009/04/23 10:17:16.7    -171   -306    150    351    381 209.3  24.6  34102  288.59 0855.26
2009/04/23 10:17:16.8    -217   -152    -68    266    275 235.0 -14.4  34118  288.87 0855.26
2009/04/23 10:17:16.9    -398   -216    -12    453    454 241.5  -1.6  34134  289.12 0855.26
2009/04/23 10:17:17.0    -421   -205     26    469    470 244.0   3.3  34128  289.03 0855.26
2009/04/23 10:17:17.1    -430   -157    -43    458    461 249.9  -5.4  34116  288.82 0855.26
2009/04/23 10:17:17.2    -450    -56   -133    454    474 262.9 -16.4  34110  288.73 0855.26
2009/04/23 10:17:17.3    -511   -188   -184    545    576 249.8 -18.7  34108  288.70 0855.26
2009/04/23 10:17:17.4    -581   -212   -182    619    646 250.0 -16.4  34106  288.67 0855.26
2009/04/23 10:17:17.5    -629   -170   -223    652    690 254.8 -18.9  34092  288.43 0855.29
2009/04/23 10:17:17.6    -709   -179   -205    732    760 255.8 -20.3  34092  288.41 0855.29
2009/04/23 10:17:17.7    -584   -143   -187    602    630 256.2 -22.2  34110  288.71 0855.29
2009/04/23 10:17:17.8    -522    -63   -125    526    541 263.0 -13.4  34112  288.77 0855.29
2009/04/23 10:17:17.9    -506    -66   -108    511    523 262.6 -12.0  34100  288.57 0855.29
2009/04/23 10:17:18.0    -459   -151   -185    484    518 251.8 -26.4  34108  288.68 0855.29
2009/04/23 10:17:18.1    -450   -238    -42    510    512 242.1  -4.8  34098  288.52 0855.29
2009/04/23 10:17:18.2    -256   -438    -26    508    509 210.3  -3.0  34090  288.39 0855.29
2009/04/23 10:17:18.3    -148   -434    -32    459    461 198.9  -4.0  34092  288.43 0855.29
2009/04/23 10:17:18.4    -149   -418    -24    445    446 199.7  -3.1  34094  288.46 0855.29
2009/04/23 10:17:18.5    -138   -304     18    334    335 204.4   3.1  34094  288.44 0855.29
2009/04/23 10:17:18.6    -167   -146    140    222    262 228.9  35.5  34100  288.56 0855.29
2009/04/23 10:17:18.7    -115     42    119    123    171 290.4  49.2  34104  288.64 0855.29
2009/04/23 10:17:18.8    -111     90     86    144    167 309.1  34.0  34110  288.74 0855.29
2009/04/23 10:17:18.9     -26     16    132     31    135 302.5  87.0  34136  289.18 0855.29
2009/04/23 10:17:19.0      -5    -10    134     12    134 209.0  90.0  34146  289.35 0855.29
2009/04/23 10:17:19.1      31   -193    116    196    227 170.9  33.5  34108  288.70 0855.29
2009/04/23 10:17:19.2      46   -222     86    227    242 168.2  21.7  34104  288.61 0855.29
2009/04/23 10:17:19.3      90   -166     69    190    202 151.5  20.9  34100  288.55 0855.29
2009/04/23 10:17:19.4     157   -240     35    288    291 146.8   7.1  34100  288.54 0855.29
2009/04/23 10:17:19.5      47   -198     80    204    219 166.4  22.8  34100  288.55 0855.30
2009/04/23 10:17:19.6      -8   -109     71    110    130 184.5  35.6  34100  288.57 0855.30
2009/04/23 10:17:19.7      14    -86     65     88    109 170.2  39.7  34102  288.60 0855.30
2009/04/23 10:17:19.8      45   -113    -10    122    123 158.1  -5.1  34098  288.52 0855.30
2009/04/23 10:17:19.9      89    -95    -41    131    138 136.8 -17.5  34098  288.52 0855.30
2009/04/23 10:17:20.0     108    -89     62    140    153 129.5  25.2  34088  288.36 0855.30
2009/04/23 10:17:20.1      36    -39     -6     54     55 136.8  -7.2  34102  288.60 0855.30
2009/04/23 10:17:20.2      52     64    108     83    136  39.2  58.5  34096  288.50 0855.30
2009/04/23 10:17:20.3     -17    134      0    136    137 352.4   0.2  34100  288.55 0855.30
2009/04/23 10:17:20.4     -20    121     20    123    125 350.2   9.5  34102  288.60 0855.30
2009/04/23 10:17:20.5     -52     39    -17     66     69 306.9 -14.5  34100  288.57 0855.30
2009/04/23 10:17:20.6    -126     69    -45    144    150 298.9 -22.8  34094  288.47 0855.30
2009/04/23 10:17:20.7    -155   -126    -55    200    208 230.9 -15.5  34090  288.40 0855.30
2009/04/23 10:17:20.8    -283   -103   -106    302    320 250.0 -24.5  34086  288.31 0855.30
2009/04/23 10:17:20.9    -390    -98   -112    403    418 255.8 -20.2  34096  288.50 0855.30
2009/04/23 10:17:21.0    -448    -77   -123    455    472 260.2 -15.2  34108  288.69 0855.30
2009/04/23 10:17:21.1    -428   -156   -145    456    478 249.9 -22.8  34098  288.52 0855.30
2009/04/23 10:17:21.2    -473   -148   -147    496    518 252.6 -16.5  34104  288.62 0855.30
2009/04/23 10:17:21.3    -333   -132   -125    359    380 248.4 -24.3  34106  288.67 0855.30
2009/04/23 10:17:21.4    -183   -183    -39    260    263 225.0  -8.6  34104  288.63 0855.30
2009/04/23 10:17:21.5    -182    107     68    212    223 300.4  17.9  34110  288.72 0855.32
2009/04/23 10:17:21.6    -182     23    -30    184    187 277.5  -9.3  34114  288.79 0855.32
2009/04/23 10:17:21.7      40    177    -69    182    194  12.9 -25.9  34114  288.79 0855.32
2009/04/23 10:17:21.8     140    -10    114    141    181  94.4  43.3  34112  288.77 0855.32
2009/04/23 10:17:21.9     100     30    104    105    147  73.2  50.0  34116  288.84 0855.32
2009/04/23 10:17:22.0     -70      5    102     71    124 274.4  62.6  34128  289.04 0855.32
2009/04/23 10:17:22.1    -115    113    131    162    208 314.7  43.3  34112  288.75 0855.32
2009/04/23 10:17:22.2    -175    139    102    224    246 308.6  26.2  34106  288.66 0855.32
2009/04/23 10:17:22.3    -191    169    107    256    277 311.6  24.1  34108  288.68 0855.32
2009/04/23 10:17:22.4    -180    135    137    226    264 306.9  34.4  34112  288.75 0855.32
2009/04/23 10:17:22.5    -307      4    175    308    354 270.8  32.1  34106  288.66 0855.32
2009/04/23 10:17:22.6    -169     84    114    189    220 296.6  33.7  34106  288.67 0855.32
2009/04/23 10:17:22.7    -145    -68     -6    161    162 244.8  -2.2  34110  288.74 0855.32
2009/04/23 10:17:22.8    -131    -24      6    134    135 259.4   2.9  34110  288.74 0855.32
2009/04/23 10:17:22.9     -73    -20     50     76     90 254.1  36.5  34112  288.75 0855.32
2009/04/23 10:17:23.0     121   -267    148    294    329 155.5  28.7  34108  288.70 0855.32
2009/04/23 10:17:23.1     166   -320    118    361    380 152.5  18.2  34102  288.60 0855.32
2009/04/23 10:17:23.2     131   -350     45    374    377 159.4   6.9  34100  288.54 0855.32
2009/04/23 10:17:23.3     177   -323     19    369    370 151.3   3.0  34102  288.59 0855.32
2009/04/23 10:17:23.4     199   -240     12    313    314 140.3   2.3  34106  288.65 0855.32
2009/04/23 10:17:23.5     116   -171    103    207    231 145.9  28.2  34108  288.70 0855.30
2009/04/23 10:17:23.6     136   -138     87    194    212 135.5  25.7  34110  288.74 0855.30
2009/04/23 10:17:23.7     113   -160     82    197    213 144.8  23.6  34104  288.64 0855.30
2009/04/23 10:17:23.8      10   -303    -72    304    313 178.0 -13.4  34100  288.54 0855.30
2009/04/23 10:17:23.9      91   -202   -181    222    286 155.7 -48.1  34104  288.61 0855.30
2009/04/23 10:17:24.0       5   -109   -149    110    185 177.3 -64.7  34100  288.55 0855.30
2009/04/23 10:17:24.1     140    -88     44    166    172 122.4  15.0  34100  288.57 0855.30
2009/04/23 10:17:24.2       7    -92     73     93    118 175.1  42.2  34108  288.70 0855.30
2009/04/23 10:17:24.3    -104    -91     22    139    141 228.7   9.0  34102  288.60 0855.30
2009/04/23 10:17:24.4     -98   -228    106    249    270 203.4  24.3  34100  288.56 0855.30
2009/04/23 10:17:24.5    -113   -203     98    233    252 209.0  24.1  34104  288.63 0855.30
2009/04/23 10:17:24.6     -93   -187    -63    210    220 206.5 -16.8  34102  288.60 0855.30
2009/04/23 10:17:24.7    -196   -257     70    324    332 217.4  12.3  34100  288.54 0855.30
2009/04/23 10:17:24.8    -204   -334    110    392    408 211.4  15.7  34094  288.46 0855.30
2009/04/23 10:17:24.9     -69   -527    -16    532    533 187.5  -1.8  34094  288.47 0855.30
2009/04/23 10:17:25.0    -112   -310    295    330    442 200.0  46.4  34106  288.67 0855.30
2009/04/23 10:17:25.1       1   -474    172    475    505 179.8  20.7  34092  288.42 0855.30
2009/04/23 10:17:25.2     184   -516     37    549    551 160.3   3.9  34096  288.50 0855.30
2009/04/23 10:17:25.3     233   -485     73    539    544 154.3   7.8  34104  288.62 0855.30
2009/04/23 10:17:25.4     134   -374     -1    398    399 160.3  -0.2  34104  288.62 0855.30
2009/04/23 10:17:25.5     158   -352     54    386    390 155.8   8.1  34104  288.64 0855.33
2009/04/23 10:17:25.6      76   -369     53    377    381 168.3   8.0  34104  288.64 0855.33
2009/04/23 10:17:25.7      86   -364    115    375    393 166.6  17.1  34104  288.64 0855.33
2009/04/23 10:17:25.8      53   -365    101    369    383 171.7  15.4  34094  288.47 0855.33
2009/04/23 10:17:25.9      63   -300    194    307    363 168.0  35.5  34108  288.69 0855.33
2009/04/23 10:17:26.0      22   -359    132    360    383 176.4  21.0  34104  288.62 0855.33
2009/04/23 10:17:26.1     -60   -348    -36    354    356 189.8  -5.9  34104  288.64 0855.33
2009/04/23 10:17:26.2     -42   -300   -155    304    341 188.1 -33.6  34102  288.59 0855.33
2009/04/23 10:17:26.3     260     -3     71    261    271  90.8  15.3  34104  288.63 0855.33
2009/04/23 10:17:26.4      35    -23    210     43    214 123.3  89.0  34126  288.99 0855.33
2009/04/23 10:17:26.5     -84     42    132     95    162 296.6  61.1  34122  288.94 0855.33
2009/04/23 10:17:26.6     -63    -40     88     75    115 237.5  55.8  34108  288.69 0855.33
2009/04/23 10:17:26.7       7     56    110     57    123   7.1  70.8  34116  288.82 0855.33
2009/04/23 10:17:26.8     -20     48     93     53    107 337.3  67.7  34120  288.89 0855.33
2009/04/23 10:17:26.9      93    -22     77     96    123 103.3  43.3  34116  288.82 0855.33
2009/04/23 10:17:27.0      72    -73     41    103    110 135.5  23.0  34108  288.70 0855.33
2009/04/23 10:17:27.1      26     23     48     35     59  48.7  60.5  34110  288.74 0855.33
2009/04/23 10:17:27.2      -1     33    129     34    133 357.4  84.9  34116  288.82 0855.33
2009/04/23 10:17:27.3       0     89    107     90    139 359.6  56.3  34116  288.84 0855.33
2009/04/23 10:17:27.4     -19    141    164    143    217 352.0  54.3  34112  288.77 0855.33
2009/04/23 10:17:27.5     -80    126    117    150    190 327.4  42.2  34128  289.04 0855.28
2009/04/23 10:17:27.6     -47   -129    211    138    252 200.1  64.1  34114  288.79 0855.28
2009/04/23 10:17:27.7      96   -134    126    166    208 144.4  41.2  34114  288.79 0855.28
2009/04/23 10:17:27.8     181    -97     95    206    226 118.4  26.6  34110  288.72 0855.28
2009/04/23 10:17:27.9    -153   -194     35    248    251 218.3   8.2  34106  288.65 0855.28
2009/04/23 10:17:28.0    -203    -86     35    221    224 246.9   9.0  34106  288.67 0855.28
2009/04/23 10:17:28.1     -97    -87    113    131    173 227.8  45.4  34112  288.77 0855.28
2009/04/23 10:17:28.2     -33   -191     94    195    216 190.0  27.3  34108  288.69 0855.28
2009/04/23 10:17:28.3      40    -91    110    100    148 156.4  52.2  34104  288.62 0855.28
2009/04/23 10:17:28.4      26   -128    141    131    192 168.4  52.2  34114  288.80 0855.28
2009/04/23 10:17:28.5      18   -213     73    214    227 175.1  18.9  34108  288.70 0855.28
2009/04/23 10:17:28.6      20   -330      8    331    332 176.5   1.5  34106  288.66 0855.28
2009/04/23 10:17:28.7     -33   -329     62    331    337 185.8  10.7  34110  288.71 0855.28
2009/04/23 10:17:28.8      65   -420    258    425    497 171.2  34.2  34104  288.64 0855.28
2009/04/23 10:17:28.9     242   -368    266    441    515 146.6  34.0  34112  288.76 0855.28
2009/04/23 10:17:29.0     272   -352    288    445    530 142.3  35.9  34108  288.68 0855.28
2009/04/23 10:17:29.1     312   -117    210    334    394 110.6  35.2  34108  288.69 0855.28
2009/04/23 10:17:29.2     374   -112     49    391    395 106.8   7.2  34106  288.66 0855.28
2009/04/23 10:17:29.3     373   -190    167    419    451 117.0  23.0  34110  288.73 0855.28
2009/04/23 10:17:29.4     327   -219    148    394    420 123.9  21.6  34106  288.67 0855.28
2009/04/23 10:17:29.5     303   -307    -38    432    434 135.4  -5.1  34110  288.72 0855.25
2009/04/23 10:17:29.6     191   -180     -5    263    264 133.3  -1.3  34110  288.71 0855.25
2009/04/23 10:17:29.7      84   -218      8    234    235 158.8   2.1  34106  288.65 0855.25
2009/04/23 10:17:29.8     -12   -205    -61    206    214 183.4 -21.5  34106  288.67 0855.25
2009/04/23 10:17:29.9      50   -223    -39    229    233 167.3  -9.8  34112  288.77 0855.25
2009/04/23 10:17:30.0      71   -215    -27    227    229 161.5  -6.9  34112  288.77 0855.25
2009/04/23 10:17:30.1      17    -94   -104     96    141 169.8 -56.6  34112  288.77 0855.25
2009/04/23 10:17:30.2     -63   -113   -109    130    169 209.4 -48.5  34122  288.92 0855.25
2009/04/23 10:17:30.3    -112   -287    -90    309    321 201.4 -21.1  34114  288.80 0855.25
2009/04/23 10:17:30.4     -33   -249    -51    252    258 187.6 -11.5  34104  288.63 0855.25
2009/04/23 10:17:30.5    -222   -113     -5    250    251 242.9  -1.3  34106  288.66 0855.25
2009/04/23 10:17:30.6     -22   -164    154    166    226 187.8  47.9  34108  288.70 0855.25
2009/04/23 10:17:30.7    -101   -127     54    163    172 218.5  18.6  34098  288.53 0855.25
2009/04/23 10:17:30.8      39     22    189     45    194  60.2  86.9  34120  288.91 0855.25
2009/04/23 10:17:30.9    -101    -49     74    113    135 244.2  35.6  34120  288.91 0855.25
2009/04/23 10:17:31.0     -35   -106    -20    112    114 198.3 -10.3  34102  288.60 0855.25
2009/04/23 10:17:31.1     -39    -44      7     59     60 221.4   6.9  34104  288.64 0855.25
2009/04/23 10:17:31.2     -73    -17      3     75     76 256.7   2.9  34106  288.65 0855.25
2009/04/23 10:17:31.3     -66     66    -45     94    104 315.0 -31.7  34104  288.64 0855.25
2009/04/23 10:17:31.4    -127     80    -75    151    168 302.4 -32.6  34108  288.69 0855.25
2009/04/23 10:17:31.5     -48     15    -28     51     58 288.2 -35.8  34106  288.65 0855.26
2009/04/23 10:17:31.6      18    -78    -73     81    109 166.6 -51.9  34106  288.65 0855.26
2009/04/23 10:17:31.7      58   -152      2    163    164 159.1   1.0  34096  288.50 0855.26
2009/04/23 10:17:31.8      76   -148    -47    167    173 152.8 -20.7  34100  288.57 0855.26
2009/04/23 10:17:31.9      74    -12    -39     76     85  99.7 -33.7  34096  288.50 0855.26
2009/04/23 10:17:32.0      56    112    -94    126    157  26.7 -45.1  34098  288.53 0855.26
2009/04/23 10:17:32.1     149     89    -58    174    183  59.1 -23.6  34096  288.48 0855.26
2009/04/23 10:17:32.2     163     55    -97    173    198  71.4 -36.0  34098  288.52 0855.26
2009/04/23 10:17:32.3     236     32   -105    239    261  82.1 -29.6  34102  288.59 0855.26
2009/04/23 10:17:32.4     270      1    -10    271    272  89.6  -2.2  34092  288.43 0855.26
2009/04/23 10:17:32.5     234    -54     65    241    250 103.2  15.3  34100  288.54 0855.27
2009/04/23 10:17:32.6      84    -61     64    104    122 126.0  34.4  34098  288.52 0855.27
2009/04/23 10:17:32.7     -30    -55    134     63    148 209.0  73.1  34102  288.60 0855.27
2009/04/23 10:17:32.8     -46     32    138     57    149 305.1  77.0  34120  288.91 0855.27
2009/04/23 10:17:32.9     -72     28    124     78    146 291.7  64.7  34106  288.65 0855.27
2009/04/23 10:17:33.0     -76     24    144     80    164 288.2  68.5  34108  288.69 0855.27
2009/04/23 10:17:33.1    -145     55    130    156    203 290.8  44.1  34100  288.55 0855.27
2009/04/23 10:17:33.2    -234     78     87    247    261 288.4  20.0  34096  288.48 0855.27
2009/04/23 10:17:33.3    -165     23    105    167    197 278.1  35.5  34096  288.50 0855.27
2009/04/23 10:17:33.4     -83    114    117    142    183 324.0  43.7  34092  288.43 0855.27
2009/04/23 10:17:33.5    -110    105    129    153    200 313.6  44.5  34090  288.40 0855.27
2009/04/23 10:17:33.6    -286    -22      8    287    288 265.4   1.6  34092  288.41 0855.27
2009/04/23 10:17:33.7    -330     -4     99    331    346 269.2  16.7  34090  288.38 0855.27
2009/04/23 10:17:33.8    -266    -50     94    271    287 259.2  19.2  34100  288.54 0855.27
2009/04/23 10:17:33.9    -349    -75     56    358    363 257.9   8.9  34092  288.42 0855.27
2009/04/23 10:17:34.0    -398   -189   -208    441    487 244.6 -31.5  34082  288.25 0855.27
2009/04/23 10:17:34.1    -489   -165   -170    517    545 251.3 -18.2  34080  288.21 0855.27
2009/04/23 10:17:34.2    -453   -153     53    479    482 251.3   6.4  34090  288.37 0855.27
2009/04/23 10:17:34.3    -405   -120     43    423    426 253.5   5.9  34100  288.55 0855.27
2009/04/23 10:17:34.4    -294   -229    106    373    388 232.1  15.9  34086  288.32 0855.27
2009/04/23 10:17:34.5    -194   -253     68    319    327 217.5  12.2  34092  288.41 0855.31
2009/04/23 10:17:34.6    -176   -274     96    326    341 212.7  16.5  34084  288.28 0855.31
2009/04/23 10:17:34.7    -255   -219     87    337    349 229.3  14.5  34102  288.59 0855.31
2009/04/23 10:17:34.8    -148   -187    149    239    281 218.5  35.2  34106  288.65 0855.31
2009/04/23 10:17:34.9    -134   -172    104    219    242 217.9  27.1  34110  288.71 0855.31
2009/04/23 10:17:35.0    -122   -137    155    184    240 221.7  44.5  34122  288.92 0855.31
2009/04/23 10:17:35.1     -97    -94    129    136    187 226.0  48.2  34112  288.75 0855.31
2009/04/23 10:17:35.2      35    -22    127     42    133 122.4  80.7  34114  288.80 0855.31
2009/04/23 10:17:35.3     -14   -106    151    107    185 187.6  61.3  34096  288.50 0855.31
2009/04/23 10:17:35.4     -73    -48    152     88    175 236.7  67.5  34100  288.55 0855.31
2009/04/23 10:17:35.5     -75    -89    161    117    199 220.1  60.5  34104  288.64 0855.31
2009/04/23 10:17:35.6     -15    -31    115     35    120 207.2  82.7  34112  288.77 0855.31
2009/04/23 10:17:35.7     -60    -73    104     95    140 219.6  52.2  34094  288.45 0855.31
2009/04/23 10:17:35.8     -63    -83     94    105    140 217.0  46.4  34090  288.40 0855.31
2009/04/23 10:17:35.9     -53    -97     92    111    144 209.0  43.7  34094  288.45 0855.31
2009/04/23 10:17:36.0     -31    -66     78     74    107 205.3  51.6  34092  288.43 0855.31
2009/04/23 10:17:36.1     -43    -46     -3     64     65 223.2  -3.2  34092  288.43 0855.31
2009/04/23 10:17:36.2       5    -76    -11     77     78 175.6  -8.2  34100  288.57 0855.31
2009/04/23 10:17:36.3     -20    -60     -2     64     65 198.5  -2.2  34094  288.45 0855.31
2009/04/23 10:17:36.4     -25    -25    -11     36     37 225.0 -23.8  34094  288.47 0855.31
2009/04/23 10:17:36.5     -35    -63      1     73     74 208.9   0.8  34090  288.38 0855.35
2009/04/23 10:17:36.6    -123    -72     -5    143    144 239.8  -2.2  34096  288.48 0855.35
2009/04/23 10:17:36.7     -86   -104    -32    136    140 219.6 -13.4  34094  288.45 0855.35
2009/04/23 10:17:36.8    -135   -102    -49    170    176 232.9 -20.4  34092  288.43 0855.35
2009/04/23 10:17:36.9    -173   -208    -35    271    274 219.7  -7.5  34092  288.43 0855.35
2009/04/23 10:17:37.0    -232   -318    -88    394    404 216.1 -12.6  34096  288.49 0855.35
2009/04/23 10:17:37.1    -230   -269    -81    355    365 220.6 -12.9  34090  288.40 0855.35
2009/04/23 10:17:37.2     -75   -296     26    306    308 194.3   5.0  34090  288.39 0855.35
2009/04/23 10:17:37.3    -116   -229     43    257    261 207.0   9.5  34090  288.39 0855.35
2009/04/23 10:17:37.4    -198   -256     36    324    327 217.7   6.5  34090  288.39 0855.35
2009/04/23 10:17:37.5    -175   -349     54    391    395 206.7   8.0  34090  288.40 0855.35
2009/04/23 10:17:37.6    -200   -281     17    346    347 215.5   2.9  34094  288.44 0855.35
2009/04/23 10:17:37.7    -226   -279     77    360    369 219.0  12.2  34090  288.40 0855.35
2009/04/23 10:17:37.8    -243   -231     59    336    342 226.4  10.0  34090  288.40 0855.35
2009/04/23 10:17:37.9    -217   -196     68    293    301 227.8  13.2  34090  288.39 0855.35
2009/04/23 10:17:38.0    -268   -226    102    351    366 229.8  16.3  34098  288.52 0855.35
2009/04/23 10:17:38.1    -314   -154    -29    350    352 243.9  -4.9  34102  288.59 0855.35
2009/04/23 10:17:38.2    -281   -260   -114    383    400 227.2 -16.6  34096  288.50 0855.35
2009/04/23 10:17:38.3    -137   -316     85    345    356 203.4  13.9  34080  288.22 0855.35
2009/04/23 10:17:38.4    -146   -326    219    358    419 204.1  34.4  34094  288.45 0855.35
2009/04/23 10:17:38.5    -232   -155    146    280    315 236.3  29.8  34096  288.49 0855.35
2009/04/23 10:17:38.6    -167   -232    121    287    311 215.8  24.2  34104  288.63 0855.35
2009/04/23 10:17:38.7    -159   -169    111    233    258 223.3  27.3  34102  288.59 0855.35
2009/04/23 10:17:38.8    -208    -76     28    222    224 249.8   7.2  34116  288.82 0855.35
2009/04/23 10:17:38.9    -180    -22    119    182    217 262.8  36.0  34118  288.87 0855.35
2009/04/23 10:17:39.0    -180    -76   -106    196    222 246.9 -35.7  34108  288.70 0855.35
2009/04/23 10:17:39.1    -131    -83   -172    156    232 237.6 -57.4  34092  288.42 0855.35
2009/04/23 10:17:39.2    -197    -96   -106    220    244 244.0 -31.8  34096  288.49 0855.35
2009/04/23 10:17:39.3       0   -208    -61    209    217 180.0 -21.2  34098  288.52 0855.35
2009/04/23 10:17:39.4      59   -216     65    225    235 164.6  16.3  34098  288.53 0855.35
2009/04/23 10:17:39.5     -63   -187     53    198    205 198.7  15.0  34088  288.36 0855.35
2009/04/23 10:17:39.6     -66   -229     66    239    249 196.0  15.6  34092  288.41 0855.35
2009/04/23 10:17:39.7    -141   -207      0    251    252 214.3   0.0  34098  288.51 0855.35
2009/04/23 10:17:39.8    -209   -185   -122    280    305 228.6 -29.5  34100  288.56 0855.35
2009/04/23 10:17:39.9    -122   -216    -45    249    254 209.4 -10.4  34098  288.51 0855.35
2009/04/23 10:17:40.0     -91   -330    -92    343    356 195.4 -15.0  34094  288.45 0855.35
2009/04/23 10:17:40.1     -38   -178    -51    183    189 192.0 -20.4  34096  288.48 0855.35
2009/04/23 10:17:40.2      35   -159    -19    163    165 167.5  -6.9  34100  288.57 0855.35
2009/04/23 10:17:40.3      41   -125    -40    132    137 161.7 -21.7  34100  288.55 0855.35
2009/04/23 10:17:40.4      49   -153     -6    161    162 162.2  -2.2  34098  288.52 0855.35
2009/04/23 10:17:40.5     124   -192     46    229    234 147.0  11.6  34094  288.45 0855.35
2009/04/23 10:17:40.7     102   -244    138    265    298 157.3  29.5  34094  288.44 0855.35
2009/04/23 10:17:40.7      88   -312     61    325    331 164.2  10.7  34094  288.47 0855.35
2009/04/23 10:17:40.8      82   -429     25    437    438 169.1   3.3  34094  288.46 0855.35
2009/04/23 10:17:41.0      64   -340     71    347    355 169.3  11.6  34098  288.52 0855.35
2009/04/23 10:17:41.1      48   -333    127    337    360 171.8  21.5  34096  288.49 0855.35
2009/04/23 10:17:41.2      19   -352    159    353    387 176.8  26.0  34096  288.50 0855.35
2009/04/23 10:17:41.3      57   -347    143    352    379 170.6  23.2  34096  288.49 0855.35
2009/04/23 10:17:41.4      48   -350    111    354    372 172.2  17.4  34094  288.47 0855.35
2009/04/23 10:17:41.5      41   -296    123    299    323 172.0  23.7  34096  288.48 0855.35
2009/04/23 10:17:41.6       3   -236    141    237    275 179.1  33.5  34094  288.46 0855.35
2009/04/23 10:17:41.7      -4   -175    147    176    229 181.6  43.8  34094  288.47 0855.35
2009/04/23 10:17:41.8     162   -101    174    192    259 122.0  47.0  34098  288.53 0855.35
2009/04/23 10:17:41.9      91    -96    172    133    217 136.7  58.5  34100  288.55 0855.35
2009/04/23 10:17:42.0      35    -74    155     82    175 154.6  70.0  34106  288.65 0855.35
2009/04/23 10:17:42.1      50    -16    148     53    157 108.2  79.7  34110  288.72 0855.35
2009/04/23 10:17:42.2     103   -110    113    151    188 136.8  40.7  34096  288.48 0855.35
2009/04/23 10:17:42.3      85   -207    183    224    289 157.7  43.7  34098  288.51 0855.35
2009/04/23 10:17:42.4      76   -217    223    231    321 160.6  49.1  34098  288.51 0855.35
2009/04/23 10:17:42.5      10   -134    174    135    220 175.5  58.5  34092  288.42 0855.35
2009/04/23 10:17:42.6      -9    -24    158     26    160 201.8  90.0  34108  288.69 0855.33
2009/04/23 10:17:42.7      27     32    139     43    145  40.5  81.8  34112  288.75 0855.33
2009/04/23 10:17:42.8      -6    -99    152    100    181 183.6  63.9  34110  288.72 0855.33
2009/04/23 10:17:42.9      37   -157    182    162    243 166.7  54.0  34106  288.67 0855.33
2009/04/23 10:17:43.0      26   -129    226    132    261 168.4  67.0  34112  288.75 0855.33
2009/04/23 10:17:43.1     -15   -131    225    132    260 186.7  66.8  34110  288.72 0855.33
2009/04/23 10:17:43.2      43   -183    105    189    216 166.6  31.4  34096  288.50 0855.33
2009/04/23 10:17:43.3      72   -293    164    302    343 166.2  30.9  34096  288.49 0855.33
2009/04/23 10:17:43.4     107   -314    171    332    373 161.1  29.3  34096  288.49 0855.33
2009/04/23 10:17:43.5     137   -297    221    328    395 155.3  37.3  34094  288.47 0855.33
2009/04/23 10:17:43.6      72   -234    199    245    315 162.8  43.4  34100  288.56 0855.33
2009/04/23 10:17:43.7      26   -162    205    165    263 170.9  56.9  34108  288.68 0855.33
2009/04/23 10:17:43.8      19   -238    216    239    322 175.3  46.8  34104  288.63 0855.33
2009/04/23 10:17:43.9     -23   -279    295    281    407 184.9  51.4  34100  288.54 0855.33
2009/04/23 10:17:44.0      17   -325    303    326    445 176.9  47.8  34098  288.51 0855.33
2009/04/23 10:17:44.1     -31   -343    321    345    471 185.2  47.8  34096  288.48 0855.33
2009/04/23 10:17:44.2     -91   -374    296    385    485 193.7  41.4  34086  288.33 0855.33
2009/04/23 10:17:44.3    -120   -286    201    311    370 202.7  35.7  34094  288.45 0855.33
2009/04/23 10:17:44.4     -83   -305    261    317    410 195.2  43.7  34098  288.52 0855.33
2009/04/23 10:17:44.5     -86   -328    208    340    398 194.7  34.4  34100  288.54 0855.33
2009/04/23 10:17:44.6     -67   -220    223    231    321 197.0  49.1  34096  288.48 0855.30
2009/04/23 10:17:44.7     -40   -317    158    320    356 187.3  28.4  34100  288.55 0855.30
2009/04/23 10:17:44.8     -88   -366    148    377    405 193.5  22.5  34096  288.49 0855.30
2009/04/23 10:17:44.9    -133   -338    220    364    425 201.6  34.1  34104  288.61 0855.30
2009/04/23 10:17:45.0    -127   -367    252    389    463 199.2  35.7  34102  288.60 0855.30
2009/04/23 10:17:45.1    -161   -337    221    374    434 205.6  33.4  34106  288.67 0855.30
2009/04/23 10:17:45.2    -183   -330    254    378    455 209.1  37.3  34106  288.65 0855.30
2009/04/23 10:17:45.3    -118   -282    260    306    401 202.8  44.7  34104  288.64 0855.30
2009/04/23 10:17:45.4    -108   -337    228    354    421 197.8  35.6  34100  288.54 0855.30
2009/04/23 10:17:45.5    -133   -364    192    388    432 200.2  28.2  34098  288.51 0855.30
2009/04/23 10:17:45.6     -89   -362    171    373    410 193.9  26.3  34096  288.50 0855.30
2009/04/23 10:17:45.7     -95   -336    179    350    393 195.8  29.2  34098  288.52 0855.30
2009/04/23 10:17:45.8     -94   -304    113    319    338 197.2  20.3  34094  288.45 0855.30
2009/04/23 10:17:45.9     -55   -250     94    257    273 192.5  20.9  34100  288.54 0855.30
2009/04/23 10:17:46.0      -3   -238    101    239    259 180.9  24.2  34102  288.59 0855.30
2009/04/23 10:17:46.1      51   -252     70    258    268 168.4  15.3  34098  288.53 0855.30
2009/04/23 10:17:46.2      38   -309     76    312    322 172.9  13.8  34098  288.51 0855.30
2009/04/23 10:17:46.3     -96   -219    -28    240    242 203.7  -6.7  34096  288.49 0855.30
2009/04/23 10:17:46.4     -17   -269     -5    270    271 183.6  -1.3  34096  288.49 0855.30
2009/04/23 10:17:46.5      34   -303     26    305    307 173.5   4.9  34098  288.51 0855.30
2009/04/23 10:17:46.6      14   -241     47    242    247 176.5  11.0  34100  288.54 0855.28
2009/04/23 10:17:46.7      50   -215     60    221    230 166.7  15.3  34100  288.55 0855.28
2009/04/23 10:17:46.8      60   -168     51    179    187 160.2  16.0  34098  288.53 0855.28
2009/04/23 10:17:46.9      25   -174     41    176    181 171.5  13.2  34102  288.60 0855.28
2009/04/23 10:17:47.0      62   -158     84    170    189 158.6  28.0  34104  288.62 0855.28
2009/04/23 10:17:47.1      89   -160    150    184    237 150.8  43.5  34108  288.69 0855.28
2009/04/23 10:17:47.2     164   -138    163    215    269 130.0  40.9  34108  288.70 0855.28
2009/04/23 10:17:47.3     222   -216    110    310    328 134.2  20.2  34104  288.61 0855.28
2009/04/23 10:17:47.4     149   -307     93    342    355 154.0  15.3  34100  288.55 0855.28
2009/04/23 10:17:47.5     203   -343    -15    399    400 149.4  -2.2  34100  288.57 0855.28
2009/04/23 10:17:47.6     272   -384    -51    471    474 144.6  -6.2  34098  288.51 0855.28
2009/04/23 10:17:47.7     329   -271    -70    427    433 129.5  -9.4  34098  288.51 0855.28
2009/04/23 10:17:47.8     342   -294     70    452    458 130.7   8.8  34094  288.46 0855.28
2009/04/23 10:17:47.9     296   -273     32    404    406 132.7   4.6  34094  288.46 0855.28
2009/04/23 10:17:48.0     210   -172     30    272    274 129.3   6.5  34100  288.54 0855.28
2009/04/23 10:17:48.1     188   -314     73    366    374 149.1  11.3  34100  288.57 0855.28
2009/04/23 10:17:48.2     141   -342    101    371    385 157.5  15.3  34104  288.64 0855.28
2009/04/23 10:17:48.3     134   -283    149    314    347 154.7  27.2  34110  288.71 0855.28
2009/04/23 10:17:48.4     182   -312    102    362    377 149.7  15.8  34104  288.62 0855.28
2009/04/23 10:17:48.5     187   -392     71    435    441 154.5   9.3  34102  288.60 0855.28
2009/04/23 10:17:48.6      27   -360    -32    361    363 175.6  -5.2  34110  288.71 0855.28
2009/04/23 10:17:48.7       1   -338    -19    339    340 179.7  -3.3  34106  288.67 0855.28
2009/04/23 10:17:48.8      -3   -340     10    341    342 180.6   1.7  34106  288.66 0855.28
2009/04/23 10:17:48.9      58   -353     18    358    359 170.6   3.0  34104  288.62 0855.28
2009/04/23 10:17:49.0     -80   -376    -36    385    387 192.1  -5.4  34104  288.64 0855.28
2009/04/23 10:17:49.1    -216   -185     -3    285    286 229.5  -0.7  34100  288.56 0855.28
2009/04/23 10:17:49.2    -336     -7   -120    337    357 268.7 -24.7  34090  288.37 0855.28
2009/04/23 10:17:49.3    -279   -131    -28    309    311 244.9  -5.2  34094  288.44 0855.28
2009/04/23 10:17:49.4      30   -277    211    279    349 173.7  40.8  34098  288.53 0855.28
2009/04/23 10:17:49.5    -101   -296    201    313    371 198.9  35.6  34102  288.60 0855.28
2009/04/23 10:17:49.6     -36   -179    219    183    285 191.6  56.3  34104  288.61 0855.28
2009/04/23 10:17:49.7     -90   -105     85    139    162 220.5  34.8  34096  288.48 0855.28
2009/04/23 10:17:49.8     -66   -120    178    138    225 208.9  58.4  34106  288.67 0855.28
2009/04/23 10:17:49.9     -75   -115    161    138    212 213.4  55.0  34110  288.74 0855.28
2009/04/23 10:17:50.0     -20   -155    160    157    224 187.6  50.2  34110  288.74 0855.28
2009/04/23 10:17:50.1     -23    -96    119     99    154 193.8  56.3  34106  288.67 0855.28
2009/04/23 10:17:50.2     -59   -106    130    122    178 209.0  52.1  34118  288.87 0855.28
2009/04/23 10:17:50.3    -275     64     98    283    300 283.3  19.2  34102  288.59 0855.28
2009/04/23 10:17:50.4    -238     10    -26    239    241 272.6  -6.2  34110  288.73 0855.28
2009/04/23 10:17:50.5    -188     -9    111    189    219 267.0  33.4  34102  288.60 0855.28
2009/04/23 10:17:50.6    -204     45    107    210    235 282.6  29.1  34104  288.62 0855.29
2009/04/23 10:17:50.7    -222     16    120    223    253 274.3  30.6  34110  288.71 0855.29
2009/04/23 10:17:50.8    -184    -73     73    199    211 248.3  21.0  34108  288.69 0855.29
2009/04/23 10:17:50.9    -165     15     -6    166    167 275.5  -2.2  34104  288.64 0855.29
2009/04/23 10:17:51.0    -238    115     42    265    269 295.8   9.0  34106  288.66 0855.29
2009/04/23 10:17:51.1    -236     27     -5    238    239 276.6  -1.3  34108  288.70 0855.29
2009/04/23 10:17:51.2    -126     42    -12    134    135 288.6  -5.2  34108  288.70 0855.29
2009/04/23 10:17:51.3    -150     96    -53    179    187 302.6 -16.6  34108  288.69 0855.29
2009/04/23 10:17:51.4    -162     35    -64    166    177 282.4 -26.7  34104  288.62 0855.29
2009/04/23 10:17:51.5    -105    -33   -133    111    173 252.7 -60.5  34108  288.69 0855.29
2009/04/23 10:17:51.6     -82    -60   -110    102    150 233.6 -56.6  34108  288.69 0855.29
2009/04/23 10:17:51.7     -26   -197    -98    199    221 187.6 -32.4  34120  288.91 0855.29
2009/04/23 10:17:51.8     -16   -149    -53    150    159 186.2 -24.6  34130  289.06 0855.29
2009/04/23 10:17:51.9    -110   -154    -21    190    192 215.4  -6.5  34150  289.40 0855.29
2009/04/23 10:17:52.0    -224   -144    -54    267    273 237.1 -11.5  34134  289.12 0855.29
2009/04/23 10:17:52.1    -268   -170    -28    318    320 237.6  -5.1  34160  289.56 0855.29
2009/04/23 10:17:52.2    -202   -189     13    277    278 226.9   2.8  34132  289.10 0855.29
2009/04/23 10:17:52.3    -292   -153    -78    330    340 242.2 -13.3  34146  289.32 0855.29
2009/04/23 10:17:52.4    -246    -85   -111    261    283 250.9 -29.3  34118  288.87 0855.29
2009/04/23 10:17:52.5    -216   -123     50    249    255 240.2  11.4  34124  288.95 0855.29
2009/04/23 10:17:52.6    -197   -174    -33    264    267 228.6  -7.2  34134  289.14 0855.28
2009/04/23 10:17:52.7    -108   -299     46    319    323 200.0   8.3  34120  288.88 0855.28
2009/04/23 10:17:52.8      -5   -352    -42    353    356 180.9  -6.9  34122  288.94 0855.28
2009/04/23 10:17:52.9     -21   -337    -47    338    342 183.7  -7.9  34128  289.04 0855.28
2009/04/23 10:17:53.0     -78   -274     -5    286    287 196.0  -1.2  34136  289.15 0855.28
2009/04/23 10:17:53.1       8   -184    -37    185    189 177.3 -11.3  34138  289.21 0855.28
2009/04/23 10:17:53.2    -169   -212    -36    272    275 218.5  -7.7  34132  289.10 0855.28
2009/04/23 10:17:53.3    -156   -204     40    258    262 217.4   9.0  34124  288.95 0855.28
2009/04/23 10:17:53.4    -175   -232     -5    291    292 217.0  -1.1  34128  289.02 0855.28
2009/04/23 10:17:53.5    -128   -337    -59    361    366 200.9  -9.4  34118  288.86 0855.28
2009/04/23 10:17:53.6    -201   -330    106    387    402 211.3  15.4  34116  288.84 0855.31
2009/04/23 10:17:53.7    -231   -299     73    379    387 217.7  11.0  34126  288.98 0855.31
2009/04/23 10:17:53.8    -190   -219     36    291    294 221.0   7.1  34126  288.98 0855.31
2009/04/23 10:17:53.9    -235   -202    -52    311    316 229.3  -9.5  34130  289.05 0855.31
2009/04/23 10:17:54.0    -119   -178   -108    215    240 213.8 -32.9  34118  288.86 0855.31
2009/04/23 10:17:54.1     -75   -182    -90    197    216 202.5 -30.6  34120  288.89 0855.31
2009/04/23 10:17:54.2     -30   -164   -108    167    198 190.5 -40.1  34118  288.86 0855.31
2009/04/23 10:17:54.3     -23   -216    -70    218    228 186.2 -23.3  34120  288.89 0855.31
2009/04/23 10:17:54.4     -61   -299    -41    306    309 191.6  -7.7  34116  288.81 0855.31
2009/04/23 10:17:54.5    -114   -266      2    290    291 203.2   0.5  34122  288.93 0855.31
2009/04/23 10:17:54.6    -125   -230     12    262    263 208.5   2.8  34118  288.87 0855.31
2009/04/23 10:17:54.7    -142   -177      1    228    229 218.7   0.5  34128  289.04 0855.31
2009/04/23 10:17:54.8    -188   -182    -17    262    263 226.0  -3.9  34132  289.10 0855.31
2009/04/23 10:17:54.9    -209   -262      8    336    337 218.5   1.5  34116  288.81 0855.31
2009/04/23 10:17:55.0    -135   -199     87    241    256 214.3  20.7  34108  288.70 0855.31
2009/04/23 10:17:55.1    -106   -192     78    220    234 209.0  19.6  34092  288.43 0855.31
2009/04/23 10:17:55.2     -82   -201    130    218    253 202.3  33.5  34096  288.49 0855.31
2009/04/23 10:17:55.3     -73   -217    195    230    301 198.7  44.8  34102  288.58 0855.31
2009/04/23 10:17:55.4     -98   -224    164    245    294 203.6  37.3  34092  288.41 0855.31
2009/04/23 10:17:55.5    -167   -230     34    285    288 216.0   6.9  34094  288.44 0855.31
2009/04/23 10:17:55.6    -151   -269     43    309    313 209.4   8.0  34090  288.39 0855.33
2009/04/23 10:17:55.7     -56   -247     92    254    270 192.9  20.7  34094  288.44 0855.33
2009/04/23 10:17:55.8     -27   -224     78    226    240 187.1  19.2  34096  288.48 0855.33
2009/04/23 10:17:55.9     -24   -245     38    247    250 185.6   8.8  34092  288.41 0855.33
2009/04/23 10:17:56.0      19   -206     97    207    228 174.7  27.1  34096  288.48 0855.33
2009/04/23 10:17:56.1     100   -181     57    207    215 151.1  15.6  34094  288.45 0855.33
2009/04/23 10:17:56.2     119   -116     62    167    178 134.4  21.3  34094  288.45 0855.33
2009/04/23 10:17:56.3      69   -152    113    168    202 155.5  37.0  34088  288.35 0855.33
2009/04/23 10:17:56.4      51   -128     98    138    169 158.2  38.8  34086  288.31 0855.33
2009/04/23 10:17:56.5      45   -123     64    132    146 160.0  27.3  34092  288.42 0855.33
2009/04/23 10:17:56.6     120    -36     15    126    127 106.8   6.9  34096  288.48 0855.33
2009/04/23 10:17:56.7     125    -64     22    141    143 117.1   9.0  34098  288.53 0855.33
2009/04/23 10:17:56.8     169    -79     86    187    205 115.3  26.6  34098  288.53 0855.33
2009/04/23 10:17:56.9     202   -123     88    237    252 121.5  21.0  34100  288.56 0855.33
2009/04/23 10:17:57.0     226   -155     82    275    288 124.4  16.6  34096  288.48 0855.33
2009/04/23 10:17:57.1     257   -185     63    317    324 125.7  11.3  34092  288.41 0855.33
2009/04/23 10:17:57.2     179   -199      3    268    269 138.1   0.7  34090  288.39 0855.33
2009/04/23 10:17:57.3     169   -138     34    219    222 129.1   8.9  34090  288.38 0855.33
2009/04/23 10:17:57.4     126    -69    -20    144    146 118.8  -8.2  34090  288.40 0855.33
2009/04/23 10:17:57.5      65    -33     14     73     75 117.1  11.1  34090  288.40 0855.33
2009/04/23 10:17:57.6     -51      3    -38     52     64 273.5 -44.1  34092  288.43 0855.32
2009/04/23 10:17:57.7    -119     92   -107    151    185 307.8 -43.2  34092  288.43 0855.32
2009/04/23 10:17:57.8    -155     72   -139    172    221 295.1 -47.9  34092  288.42 0855.32
2009/04/23 10:17:57.9     -97     -7   -118     98    153 265.6 -60.7  34100  288.55 0855.32
2009/04/23 10:17:58.0     -75    -14   -111     77    135 259.4 -67.0  34096  288.50 0855.32
2009/04/23 10:17:58.1     -67    -46   -133     82    156 235.8 -69.1  34096  288.50 0855.32
2009/04/23 10:17:58.2    -114     61    -31    130    134 298.4 -13.4  34092  288.42 0855.32
2009/04/23 10:17:58.3    -210    -16    -51    211    218 265.6 -13.7  34090  288.38 0855.32
2009/04/23 10:17:58.4    -215      9    -50    216    222 272.5 -13.3  34098  288.52 0855.32
2009/04/23 10:17:58.5     -36   -156    -69    161    175 193.3 -29.0  34088  288.36 0855.32
2009/04/23 10:17:58.6      97   -206    -63    228    236 154.8 -20.0  34090  288.39 0855.32
2009/04/23 10:17:58.7      33   -161    -50    165    172 168.2 -22.1  34092  288.42 0855.32
2009/04/23 10:17:58.8      29   -144     96    147    175 168.5  35.7  34092  288.42 0855.32
2009/04/23 10:17:58.9      26   -119    148    122    191 167.5  56.3  34096  288.48 0855.32
2009/04/23 10:17:59.0    -242    -77    -34    254    257 252.3  -7.7  34094  288.44 0855.32
2009/04/23 10:17:59.1    -178   -113    -42    211    216 237.6 -11.3  34090  288.40 0855.32
2009/04/23 10:17:59.2     -37    -10     64     39     74 254.9  64.7  34102  288.58 0855.32
2009/04/23 10:17:59.3     -26     64     89     70    113 338.1  57.5  34116  288.82 0855.32
2009/04/23 10:17:59.4     -44     82    113     94    146 331.9  56.3  34108  288.69 0855.32
2009/04/23 10:17:59.5     -72     81    113    109    157 318.1  51.2  34104  288.62 0855.32
2009/04/23 10:17:59.6     -80     46     90     93    129 300.2  49.4  34104  288.62 0855.36
2009/04/23 10:17:59.7     -93   -162     23    187    189 209.9   7.1  34096  288.50 0855.36
2009/04/23 10:17:59.8    -102   -194    -37    220    224 207.6  -9.6  34094  288.45 0855.36
2009/04/23 10:17:59.9     -85   -155    -88    177    197 208.7 -32.6  34096  288.48 0855.36
2009/04/23 10:18:00.0     -10   -138   -131    139    191 184.5 -52.6  34096  288.50 0855.36
2009/04/23 10:18:00.1     -65    -75   -118    100    154 221.0 -60.2  34094  288.47 0855.36
2009/04/23 10:18:00.2     -61   -157   -108    169    200 201.4 -40.0  34096  288.48 0855.36
2009/04/23 10:18:00.3     -67    -96   -121    118    169 214.7 -55.1  34096  288.50 0855.36
2009/04/23 10:18:00.4     -55    -18    -90     58    107 251.8 -69.0  34098  288.52 0855.36
2009/04/23 10:18:00.5     -87    -55   -154    104    185 237.5 -67.2  34096  288.50 0855.36
2009/04/23 10:18:00.6     -52     26   -144     59    155 296.2 -81.4  34102  288.58 0855.36
2009/04/23 10:18:00.7      42    110   -129    118    174  20.9 -57.4  34116  288.82 0855.36
2009/04/23 10:18:00.8      88     84   -139    122    184  46.4 -58.7  34114  288.80 0855.36
2009/04/23 10:18:00.9     132     41   -125    139    186  72.7 -51.3  34110  288.72 0855.36
2009/04/23 10:18:01.0      67     32    -58     75     94  64.6 -46.1  34100  288.57 0855.36
2009/04/23 10:18:01.1     -93   -113    -48    147    154 219.6 -23.8  34100  288.57 0855.36
2009/04/23 10:18:01.2    -248    -97    -88    267    282 248.5 -18.3  34100  288.56 0855.36
2009/04/23 10:18:01.3    -254      3   -185    255    315 270.8 -44.1  34094  288.44 0855.36
2009/04/23 10:18:01.4    -230     19   -254    231    343 274.8 -57.6  34106  288.66 0855.36
2009/04/23 10:18:01.5     -84    102   -184    133    227 320.3 -65.0  34110  288.74 0855.36
2009/04/23 10:18:01.6     -61    -61   -108     87    138 225.1 -61.3  34104  288.64 0855.40
2009/04/23 10:18:01.7      49      8   -155     50    162  80.3 -86.0  34106  288.65 0855.40
2009/04/23 10:18:01.8     115    126   -167    171    239  42.5 -53.8  34106  288.67 0855.40
2009/04/23 10:18:01.9      62     -3   -152     63    164  93.5 -81.0  34110  288.72 0855.40
2009/04/23 10:18:02.0     145    -24   -195    148    244  99.7 -63.4  34110  288.72 0855.40
2009/04/23 10:18:02.1      78   -141   -243    162    292 151.0 -68.0  34106  288.65 0855.40
2009/04/23 10:18:02.2     166      3   -214    167    271  88.7 -62.6  34100  288.54 0855.40
2009/04/23 10:18:02.3     129      9   -202    130    240  85.7 -68.8  34106  288.65 0855.40
2009/04/23 10:18:02.4     176     44   -201    182    271  75.8 -57.7  34106  288.65 0855.40
2009/04/23 10:18:02.5     271     46   -174    275    325  80.3 -39.9  34098  288.51 0855.40
2009/04/23 10:18:02.6     269     21   -115    270    293  85.4 -28.7  34098  288.51 0855.40
2009/04/23 10:18:02.7     315     28   -106    317    334  84.8 -23.6  34090  288.40 0855.40
2009/04/23 10:18:02.8     295     31   -181    297    347  83.9 -38.7  34110  288.71 0855.40
2009/04/23 10:18:02.9     363     78    -97    372    385  77.8 -14.6  34102  288.60 0855.40
2009/04/23 10:18:03.0     387     83    -61    396    401  77.8  -8.8  34102  288.60 0855.40
2009/04/23 10:18:03.1     399    135     68    422    428  71.3   9.2  34100  288.55 0855.40
2009/04/23 10:18:03.2     309     67    -29    317    319  77.6  -5.4  34108  288.68 0855.40
2009/04/23 10:18:03.3     336     37    -92    339    352  83.7 -15.2  34110  288.74 0855.40
2009/04/23 10:18:03.4     362    -27    -67    363    370  94.3 -10.5  34106  288.66 0855.40
2009/04/23 10:18:03.5     349      3    -13    350    351  89.4  -2.2  34106  288.66 0855.40
2009/04/23 10:18:03.6     342    -39    -25    345    346  96.6  -4.2  34104  288.64 0855.38
2009/04/23 10:18:03.7     407     -5     37    408    410  90.8   5.2  34100  288.56 0855.38
2009/04/23 10:18:03.8     403      4     38    404    406  89.4   5.5  34102  288.58 0855.38
2009/04/23 10:18:03.9     386     29     75    388    396  85.6  11.0  34096  288.50 0855.38
2009/04/23 10:18:04.0     403    109    189    418    458  74.8  26.2  34098  288.51 0855.38
2009/04/23 10:18:04.2     448    182    191    484    520  67.8  22.8  34094  288.44 0855.38
2009/04/23 10:18:04.2     388     -8    149    389    416  91.3  22.1  34102  288.60 0855.38
2009/04/23 10:18:04.3     332    -59    172    338    379 100.1  29.2  34102  288.59 0855.38
2009/04/23 10:18:04.4     277    -53    230    283    364 100.8  43.5  34104  288.64 0855.38
2009/04/23 10:18:04.5     321    -39    220    324    391  97.0  37.6  34102  288.59 0855.38
2009/04/23 10:18:04.6     258    -44    201    262    330  99.7  41.4  34106  288.65 0855.38
2009/04/23 10:18:04.7     254    -22    244    255    352  95.0  48.6  34102  288.59 0855.38
2009/04/23 10:18:04.8     223    -68    188    234    300 107.1  43.0  34104  288.63 0855.38
2009/04/23 10:18:04.9     333    -65    129    340    363 101.1  21.7  34100  288.57 0855.38
2009/04/23 10:18:05.0     277   -137    132    310    336 116.4  24.5  34094  288.44 0855.38
2009/04/23 10:18:05.1     205   -175     92    270    286 130.5  18.9  34104  288.61 0855.38
2009/04/23 10:18:05.2     259   -107     39    281    284 112.6   8.0  34104  288.61 0855.38
2009/04/23 10:18:05.3     223   -101     59    245    253 114.4  13.7  34098  288.53 0855.38
2009/04/23 10:18:05.4      94    -67    -44    116    124 125.9 -25.4  34104  288.64 0855.38
2009/04/23 10:18:05.5      78   -123     94    146    173 147.5  35.6  34104  288.62 0855.38
2009/04/23 10:18:05.6      85    -28     75     90    117 108.2  43.8  34106  288.65 0855.36
2009/04/23 10:18:05.7      79      4    189     80    205  86.5  75.9  34108  288.70 0855.36
2009/04/23 10:18:05.8      83     60    155    103    186  54.0  63.6  34112  288.75 0855.36
2009/04/23 10:18:05.9     142     -5    161    143    215  92.1  54.0  34104  288.62 0855.36
2009/04/23 10:18:06.0     157    -59    200    168    261 110.6  55.8  34112  288.75 0855.36
2009/04/23 10:18:06.1     132    -87    137    159    209 123.3  45.4  34110  288.72 0855.36
2009/04/23 10:18:06.2     182    -81    131    200    239 114.0  36.5  34102  288.60 0855.36
2009/04/23 10:18:06.3     220    -72    150    232    276 108.2  36.0  34112  288.75 0855.36
2009/04/23 10:18:06.4     218    -91    149    237    279 112.8  35.5  34110  288.73 0855.36
2009/04/23 10:18:06.5     258    -91    131    274    303 109.5  27.3  34108  288.68 0855.36
2009/04/23 10:18:06.6     249    -86    108    264    285 109.1  23.6  34108  288.70 0855.36
2009/04/23 10:18:06.7     182    -46    136    188    232 104.4  39.5  34110  288.72 0855.36
2009/04/23 10:18:06.8     158    -53    131    167    212 108.8  42.0  34112  288.75 0855.36
2009/04/23 10:18:06.9     110   -186    173    217    277 149.3  42.7  34110  288.71 0855.36
2009/04/23 10:18:07.0      46   -181     98    187    211 165.7  29.5  34106  288.67 0855.36
2009/04/23 10:18:07.1     107   -148    110    183    213 144.2  34.0  34106  288.67 0855.36
2009/04/23 10:18:07.2     145   -151    131    210    247 136.1  35.0  34108  288.68 0855.36
2009/04/23 10:18:07.4     120   -202    140    236    274 149.3  33.4  34106  288.66 0855.36
2009/04/23 10:18:07.4     166   -183    152    248    290 137.7  34.5  34106  288.66 0855.36
2009/04/23 10:18:07.6     141   -234    120    274    299 148.8  25.2  34106  288.66 0855.36
2009/04/23 10:18:07.6     224   -165    115    279    301 126.4  23.4  34106  288.65 0855.38
2009/04/23 10:18:07.8     156   -177    112    237    262 138.6  27.1  34112  288.76 0855.38
2009/04/23 10:18:07.9     118   -221     61    251    259 151.9  13.7  34108  288.68 0855.38
2009/04/23 10:18:08.0      19   -234     45    235    240 175.1  11.0  34114  288.78 0855.38
2009/04/23 10:18:08.1     -43   -292     96    296    312 188.5  18.0  34120  288.90 0855.38
2009/04/23 10:18:08.2     -15   -382    108    383    399 182.3  15.8  34106  288.67 0855.38
2009/04/23 10:18:08.3     -21   -464    162    465    493 182.6  19.3  34106  288.66 0855.38
2009/04/23 10:18:08.4      -3   -481    187    482    517 180.4  22.3  34106  288.66 0855.38
2009/04/23 10:18:08.5     -56   -493    165    497    524 186.6  18.4  34104  288.64 0855.38
2009/04/23 10:18:08.6      -4   -505     98    506    516 180.5  11.0  34104  288.64 0855.38
2009/04/23 10:18:08.7       0   -464    149    465    489 179.9  17.8  34110  288.73 0855.38
2009/04/23 10:18:08.8      35   -453     59    455    459 175.5   7.4  34110  288.73 0855.38
2009/04/23 10:18:08.9      49   -469     10    472    473 173.9   1.2  34108  288.69 0855.38
2009/04/23 10:18:09.0      68   -424     51    430    434 170.9   6.8  34104  288.63 0855.38
2009/04/23 10:18:09.1       9   -461     55    462    466 178.8   6.9  34106  288.65 0855.38
2009/04/23 10:18:09.2      20   -394     11    395    396 177.0   1.6  34106  288.67 0855.38
2009/04/23 10:18:09.3      41   -347    -33    350    352 173.2  -5.5  34110  288.71 0855.38
2009/04/23 10:18:09.4     -11   -322     45    323    327 182.1   8.0  34108  288.68 0855.38
2009/04/23 10:18:09.5      34   -360     57    362    367 174.6   9.0  34110  288.72 0855.38
2009/04/23 10:18:09.6     -11   -274     45    275    279 182.5   9.3  34108  288.68 0855.38
2009/04/23 10:18:09.7       5   -220     48    221    227 178.6  12.4  34110  288.72 0855.36
2009/04/23 10:18:09.8     -35   -251     49    254    259 188.1  11.1  34110  288.71 0855.36
2009/04/23 10:18:09.9     -13   -280    110    281    301 182.7  22.5  34110  288.73 0855.36
2009/04/23 10:18:10.0     -61   -256    170    264    314 193.4  35.9  34114  288.78 0855.36
2009/04/23 10:18:10.1     -91   -194    138    215    255 205.2  35.6  34116  288.81 0855.36
2009/04/23 10:18:10.2    -146   -236     81    278    290 211.7  16.3  34116  288.81 0855.36
2009/04/23 10:18:10.3    -222   -265    -16    346    347 220.0  -2.7  34114  288.79 0855.36
2009/04/23 10:18:10.4    -262   -205    -83    333    344 231.9 -14.1  34126  288.99 0855.36
2009/04/23 10:18:10.5    -229   -155    -92    277    291 235.8 -23.8  34154  289.47 0855.36
2009/04/23 10:18:10.6    -128   -154    -28    201    204 219.9  -8.0  34134  289.13 0855.36
2009/04/23 10:18:10.7     -91   -177    -48    200    206 207.2 -13.7  34140  289.23 0855.36
2009/04/23 10:18:10.8    -148   -173    -29    228    230 220.5  -7.3  34142  289.26 0855.36
2009/04/23 10:18:10.9    -115   -208    -10    238    239 209.0  -2.6  34130  289.05 0855.36
2009/04/23 10:18:11.0    -232   -151    -70    277    286 236.9 -14.3  34120  288.90 0855.36
2009/04/23 10:18:11.1    -146    -80    -39    167    172 241.2 -13.4  34126  288.99 0855.36
2009/04/23 10:18:11.2     -47    -85    -29     98    103 209.0 -16.6  34128  289.02 0855.36
2009/04/23 10:18:11.3     -11   -142    -41    143    149 184.5 -16.0  34128  289.04 0855.36
2009/04/23 10:18:11.4     -24   -140      5    143    144 189.8   2.3  34114  288.80 0855.36
2009/04/23 10:18:11.5      -7    -55    -22     56     60 188.0 -27.4  34118  288.87 0855.36
2009/04/23 10:18:11.6      37    -72    -59     81    100 152.8 -44.1  34120  288.91 0855.36
2009/04/23 10:18:11.7      58   -175    -21    185    187 161.7  -6.5  34118  288.86 0855.36
2009/04/23 10:18:11.8      97   -191    -22    215    217 152.9  -6.0  34114  288.80 0855.36
2009/04/23 10:18:11.9     135   -103    105    170    199 127.3  34.8  34116  288.84 0855.36
2009/04/23 10:18:12.0     155   -107     84    189    206 124.6  25.3  34122  288.92 0855.36
2009/04/23 10:18:12.1     109   -130     90    170    192 139.9  30.3  34118  288.87 0855.36
2009/04/23 10:18:12.2      54   -149    117    159    197 160.0  39.9  34118  288.86 0855.36
2009/04/23 10:18:12.3      81   -218     58    233    241 159.5  14.2  34118  288.87 0855.36
2009/04/23 10:18:12.4      37   -182     38    186    190 168.4  11.6  34116  288.84 0855.36
2009/04/23 10:18:12.5     -56   -168     25    178    180 198.5   8.2  34116  288.82 0855.36
2009/04/23 10:18:12.6     -10    -76     48     77     90 188.1  35.5  34118  288.86 0855.36
2009/04/23 10:18:12.7      40   -235    128    239    271 170.2  30.6  34120  288.88 0855.36
2009/04/23 10:18:12.8      23   -203     78    205    219 173.3  21.7  34120  288.91 0855.36
2009/04/23 10:18:12.9      37   -193     17    197    198 168.9   5.0  34116  288.84 0855.36
2009/04/23 10:18:13.0      26   -218     -8    220    221 173.1  -2.2  34116  288.84 0855.36
2009/04/23 10:18:13.1      57   -196    -94    205    225 163.7 -31.0  34112  288.77 0855.36
2009/04/23 10:18:13.2      33   -165   -178    169    245 168.7 -56.0  34118  288.87 0855.36
2009/04/23 10:18:13.3      -4   -141   -131    142    193 181.8 -52.3  34116  288.82 0855.36
2009/04/23 10:18:13.4     -41   -100    -37    109    116 202.3 -18.7  34118  288.87 0855.36
2009/04/23 10:18:13.5     -24      4     -9     25     26 281.5 -23.3  34116  288.82 0855.36
2009/04/23 10:18:13.6      44     87     36     98    104  27.2  20.4  34120  288.89 0855.36
2009/04/23 10:18:13.7     110     22     16    113    115  78.5   8.5  34118  288.87 0855.35
2009/04/23 10:18:13.8       7    -99     61    100    117 175.6  35.0  34120  288.91 0855.35
2009/04/23 10:18:13.9     -25    -67     63     72     95 200.9  45.8  34124  288.97 0855.35
2009/04/23 10:18:14.0       3    -67     75     68    101 177.3  52.7  34126  288.99 0855.35
2009/04/23 10:18:14.1       2   -167     71    168    182 179.1  24.1  34120  288.91 0855.35
2009/04/23 10:18:14.2     136   -170     96    218    238 141.3  25.2  34116  288.84 0855.35
2009/04/23 10:18:14.3     184   -280    107    336    353 146.6  17.8  34126  288.99 0855.35
2009/04/23 10:18:14.4     146   -333     95    364    377 156.3  14.6  34122  288.94 0855.35
2009/04/23 10:18:14.5     142   -277     85    312    324 152.8  15.3  34128  289.02 0855.35
2009/04/23 10:18:14.6     112   -330     54    349    354 161.2   8.8  34126  288.99 0855.35
2009/04/23 10:18:14.7     130   -377    -99    399    412 161.0 -13.9  34122  288.94 0855.35
2009/04/23 10:18:14.8     120   -404   -100    422    434 163.5 -13.4  34120  288.89 0855.35
2009/04/23 10:18:14.9     176   -361    -76    402    410 154.0 -10.8  34120  288.90 0855.35
2009/04/23 10:18:15.0     122   -283    -22    309    310 156.6  -4.2  34114  288.78 0855.35
2009/04/23 10:18:15.1      43   -312    -55    316    321 172.0  -9.9  34120  288.90 0855.35
2009/04/23 10:18:15.2      23   -275    -10    277    278 175.1  -2.2  34120  288.88 0855.35
2009/04/23 10:18:15.3     135   -227     -5    265    266 149.2  -1.3  34114  288.78 0855.35
2009/04/23 10:18:15.4     208   -437    101    485    496 154.5  11.8  34116  288.83 0855.35
2009/04/23 10:18:15.5     136   -381    111    405    421 160.3  15.4  34116  288.83 0855.35
2009/04/23 10:18:15.6     206   -395    155    446    472 152.5  20.0  34120  288.89 0855.35
2009/04/23 10:18:15.7     240   -325     57    405    410 143.5   8.0  34116  288.83 0855.33
2009/04/23 10:18:15.8     128   -331     55    355    360 158.8   8.9  34120  288.91 0855.33
2009/04/23 10:18:15.9     149   -278     30    316    318 151.7   5.5  34120  288.90 0855.33
2009/04/23 10:18:16.0      94   -350   -104    363    378 164.9 -16.0  34120  288.88 0855.33
2009/04/23 10:18:16.1     123   -210    150    244    286 149.7  34.5  34116  288.83 0855.33
2009/04/23 10:18:16.2     133   -137    171    192    257 135.9  46.4  34122  288.92 0855.33
2009/04/23 10:18:16.3     182   -193    127    266    294 136.8  27.3  34116  288.83 0855.33
2009/04/23 10:18:16.4      85   -216    107    233    256 158.4  26.4  34118  288.87 0855.33
2009/04/23 10:18:16.5      61   -180    146    191    240 161.3  41.4  34116  288.84 0855.33
2009/04/23 10:18:16.6      93   -204     17    225    226 155.5   4.4  34118  288.86 0855.33
2009/04/23 10:18:16.7     173   -207     55    271    277 140.1  11.6  34120  288.90 0855.34
2009/04/23 10:18:16.8     143   -214     90    258    274 146.2  19.2  34118  288.85 0855.34
2009/04/23 10:18:16.9     104   -197    180    224    287 152.1  43.0  34120  288.90 0855.34
2009/04/23 10:18:17.0      52   -158    166    167    235 161.7  50.0  34126  288.99 0855.34
2009/04/23 10:18:17.1      54   -142    162    153    222 159.1  52.0  34132  289.09 0855.34
2009/04/23 10:18:17.2      87   -212    190    230    298 157.5  43.7  34134  289.14 0855.34
2009/04/23 10:18:17.3     187   -154    177    243    300 129.5  39.7  34132  289.10 0855.34
2009/04/23 10:18:17.4      81   -134    167    157    229 148.8  52.1  34128  289.04 0855.34
2009/04/23 10:18:17.5      74    -79    125    109    165 136.8  54.6  34140  289.24 0855.34
2009/04/23 10:18:17.6      75   -157    114    175    208 154.4  36.0  34132  289.11 0855.34
2009/04/23 10:18:17.7     162   -118    137    201    243 126.2  37.6  34132  289.11 0855.34
2009/04/23 10:18:17.8     173    -98    126    199    235 119.5  35.5  34134  289.13 0855.34
2009/04/23 10:18:17.9     181    -84    152    200    251 115.1  40.9  34130  289.05 0855.34
2009/04/23 10:18:18.0     181    -69    133    194    235 111.1  37.6  34130  289.06 0855.34
2009/04/23 10:18:18.1     205    -22    116    207    237  96.2  31.6  34122  288.92 0855.34
2009/04/23 10:18:18.2     219    -44    129    224    258 101.5  32.4  34122  288.93 0855.34
2009/04/23 10:18:18.3     130    -47    113    139    179 110.0  43.5  34130  289.08 0855.34
2009/04/23 10:18:18.4     167    -78     98    185    209 115.1  30.1  34128  289.02 0855.34
2009/04/23 10:18:18.5     151    -45    126    158    202 106.9  42.7  34128  289.02 0855.34
2009/04/23 10:18:18.6     127    -73    131    147    196 119.8  46.4  34130  289.06 0855.34
2009/04/23 10:18:18.7     100    -30     91    105    138 106.8  45.8  34132  289.09 0855.32
2009/04/23 10:18:18.8       5    -42     47     43     63 172.0  52.2  34136  289.16 0855.32
2009/04/23 10:18:18.9      56    -46     44     73     85 129.5  34.4  34138  289.19 0855.32
2009/04/23 10:18:19.0     140      0     26    141    144  90.0  10.6  34128  289.02 0855.32
2009/04/23 10:18:19.1     140    -11     17    141    143  94.8   7.1  34126  289.01 0855.32
2009/04/23 10:18:19.2     148    -59    -23    160    162 111.7  -8.2  34134  289.13 0855.32
2009/04/23 10:18:19.3      88    -70    -65    113    130 128.6 -37.3  34134  289.14 0855.32
2009/04/23 10:18:19.4      69      1    -82     70    107  89.1 -59.8  34136  289.16 0855.32
2009/04/23 10:18:19.5      98     -7    -74     99    123  94.4 -44.5  34132  289.11 0855.32
2009/04/23 10:18:19.6      46    -20    -72     51     88 113.5 -65.9  34136  289.18 0855.32
2009/04/23 10:18:19.7      43    -45    -82     63    103 136.7 -62.9  34136  289.18 0855.32
2009/04/23 10:18:19.8      60    -46    -50     76     90 127.8 -40.9  34128  289.04 0855.32
2009/04/23 10:18:19.9      42    -16    -15     46     49 111.7 -18.7  34134  289.13 0855.32
2009/04/23 10:18:20.0      32     -2     11     33     35  94.4  18.9  34130  289.08 0855.32
2009/04/23 10:18:20.1      20      5     24     21     31  74.9  54.3  34130  289.08 0855.32
2009/04/23 10:18:20.2       0      0     53      1     53 315.0  90.0  34140  289.23 0855.32
2009/04/23 10:18:20.3     -32    -51    131     61    144 211.6  73.1  34146  289.35 0855.32
2009/04/23 10:18:20.4    -175   -129     84    218    233 233.6  22.0  34128  289.04 0855.32
2009/04/23 10:18:20.5    -113   -108     35    157    161 226.4  12.6  34128  289.04 0855.32
2009/04/23 10:18:20.6      98    -26     87    102    134 105.0  44.8  34134  289.13 0855.32
2009/04/23 10:18:20.7      28    -68    137     74    155 157.3  68.9  34148  289.38 0855.31
2009/04/23 10:18:20.8       9    -87    112     88    142 173.8  57.9  34142  289.28 0855.31
2009/04/23 10:18:20.9      -6    -86     92     87    126 184.5  51.6  34134  289.13 0855.31
2009/04/23 10:18:21.0       0   -169    116    170    205 180.0  37.6  34128  289.02 0855.31
2009/04/23 10:18:21.1     -42   -238    136    242    277 190.0  31.9  34124  288.95 0855.31
2009/04/23 10:18:21.2     -54   -252    154    258    300 192.3  33.5  34126  288.98 0855.31
2009/04/23 10:18:21.3      44   -139    192    147    241 162.2  59.0  34138  289.21 0855.31
2009/04/23 10:18:21.4     224   -244    177    332    376 137.5  30.5  34128  289.03 0855.31
2009/04/23 10:18:21.5     190   -374    156    420    448 153.0  21.3  34116  288.83 0855.31
2009/04/23 10:18:21.6      98   -362    179    376    416 164.8  27.3  34120  288.89 0855.31
2009/04/23 10:18:21.7     111   -364    188    381    424 163.0  28.1  34120  288.90 0855.31
2009/04/23 10:18:21.8     106   -366    148    382    409 163.9  22.3  34120  288.89 0855.31
2009/04/23 10:18:21.9      81   -363     90    373    384 167.4  13.7  34126  288.98 0855.31
2009/04/23 10:18:22.0      15   -324     88    325    337 177.2  15.2  34118  288.86 0855.31
2009/04/23 10:18:22.1     112   -255     98    279    296 156.3  19.4  34120  288.88 0855.31
2009/04/23 10:18:22.2     104   -247     84    269    282 157.2  17.4  34122  288.92 0855.31
2009/04/23 10:18:22.3      49   -276    129    281    309 169.8  26.6  34122  288.93 0855.31
2009/04/23 10:18:22.4      46   -246    148    251    291 169.3  33.5  34124  288.95 0855.31
2009/04/23 10:18:22.5       6   -279    242    280    370 178.6  45.4  34126  289.01 0855.31
2009/04/23 10:18:22.6      56   -273    206    279    346 168.2  40.0  34126  289.00 0855.31
2009/04/23 10:18:22.7     122   -167    228    207    307 143.9  53.2  34128  289.03 0855.32
2009/04/23 10:18:22.8      39    -78     83     88    120 153.3  48.0  34128  289.02 0855.32
2009/04/23 10:18:22.9      -8    -81    107     82    134 185.8  58.5  34122  288.94 0855.32
2009/04/23 10:18:23.0      53     -2    124     54    135  92.6  75.0  34138  289.19 0855.32
2009/04/23 10:18:23.1     130    -49     74    140    158 110.8  30.3  34126  289.01 0855.32
2009/04/23 10:18:23.2     107     -9     91    108    141  95.2  44.3  34130  289.06 0855.32
2009/04/23 10:18:23.3      50      0     62     51     80  90.0  56.4  34130  289.08 0855.32
2009/04/23 10:18:23.4     -16    -99    142    101    174 189.3  61.3  34128  289.02 0855.32
2009/04/23 10:18:23.5    -123   -164    119    206    237 217.0  32.4  34124  288.96 0855.32
2009/04/23 10:18:23.6     -87    -86      5    123    124 225.6   2.3  34126  288.99 0855.32
2009/04/23 10:18:23.7     -48    -10     -1     50     51 257.6  -2.2  34122  288.94 0855.32
2009/04/23 10:18:23.8       0      7     19      8     20 357.3  77.1  34130  289.08 0855.32
2009/04/23 10:18:23.9      -4    -14     35     15     38 198.5  77.1  34128  289.02 0855.32
2009/04/23 10:18:24.0      -3    -98     93     99    135 182.2  48.5  34126  289.01 0855.32
2009/04/23 10:18:24.1      21   -169     62    171    181 172.9  20.7  34126  288.99 0855.32
2009/04/23 10:18:24.2       9   -170    105    171    200 176.9  34.4  34122  288.94 0855.32
2009/04/23 10:18:24.3     -14   -172    106    173    202 184.7  34.4  34126  289.01 0855.32
2009/04/23 10:18:24.4     -35   -131     94    136    165 195.1  38.0  34130  289.08 0855.32
2009/04/23 10:18:24.5      23    -49     59     55     80 154.6  52.2  34136  289.16 0855.32
2009/04/23 10:18:24.6      -3     14     63     15     64 344.9  86.9  34142  289.26 0855.32
2009/04/23 10:18:24.7       0     28     64     29     70 359.1  73.1  34148  289.36 0855.31
2009/04/23 10:18:24.8     -18     17     48     26     54 313.1  68.8  34150  289.41 0855.31
2009/04/23 10:18:24.9      -2    -28     64     29     70 184.5  73.1  34150  289.41 0855.31
2009/04/23 10:18:25.0     -31    -32     62     45     76 224.2  60.5  34136  289.16 0855.31
2009/04/23 10:18:25.1     -33    -50     26     61     66 213.4  23.1  34128  289.02 0855.31
2009/04/23 10:18:25.2     -12    -50     -5     52     53 194.3  -6.2  34128  289.02 0855.31
2009/04/23 10:18:25.3      45    -27      7     53     54 120.7   8.0  34132  289.11 0855.31
2009/04/23 10:18:25.4     127    -23     21    130    132 100.6   9.5  34130  289.06 0855.31
2009/04/23 10:18:25.5     184   -177     24    256    258 134.0   5.4  34128  289.02 0855.31
2009/04/23 10:18:25.6     186   -160      7    246    247 130.7   1.8  34130  289.07 0855.31
2009/04/23 10:18:25.7     219   -206    -61    301    308 133.2 -11.6  34130  289.05 0855.31
2009/04/23 10:18:25.8     219   -220     11    311    312 135.1   2.1  34128  289.02 0855.31
2009/04/23 10:18:25.9     206   -207    -44    293    297 135.1  -8.6  34128  289.03 0855.31
2009/04/23 10:18:26.0     206   -110    -13    234    235 118.2  -3.3  34124  288.95 0855.31
2009/04/23 10:18:26.1     169    -83    -17    189    190 116.2  -5.2  34130  289.08 0855.31
2009/04/23 10:18:26.2     188    -61     -7    198    199 108.2  -2.1  34128  289.02 0855.31
2009/04/23 10:18:26.3     180    -50    -10    187    188 105.5  -3.1  34128  289.04 0855.31
2009/04/23 10:18:26.4     144    -47    -19    152    154 108.2  -7.2  34128  289.02 0855.31
2009/04/23 10:18:26.5     104    -27     10    108    109 104.6   5.4  34128  289.02 0855.31
2009/04/23 10:18:26.6       8   -105    132    106    169 175.6  56.9  34130  289.08 0855.31
2009/04/23 10:18:26.7     -84   -171    129    191    230 206.1  37.4  34126  288.99 0855.27
2009/04/23 10:18:26.8      -6   -188    159    189    246 182.0  44.5  34130  289.06 0855.27
2009/04/23 10:18:26.9      25   -166    181    168    246 171.3  52.2  34134  289.14 0855.27
2009/04/23 10:18:27.0     -32   -200     72    203    216 189.3  19.6  34132  289.09 0855.27
2009/04/23 10:18:27.1     -48   -278     88    283    297 189.8  17.4  34132  289.10 0855.27
2009/04/23 10:18:27.2     -27   -327     28    329    331 184.9   4.9  34128  289.04 0855.27
2009/04/23 10:18:27.3       9   -325     90    326    339 178.3  15.4  34122  288.94 0855.27
2009/04/23 10:18:27.4      90   -323    116    336    356 164.4  19.2  34126  288.99 0855.27
2009/04/23 10:18:27.5     110   -302    131    322    347 160.0  23.2  34118  288.86 0855.27
2009/04/23 10:18:27.6     120   -299     78    323    333 158.2  13.6  34120  288.91 0855.27
2009/04/23 10:18:27.7      26   -268     93    270    286 174.4  19.2  34118  288.87 0855.27
2009/04/23 10:18:27.8      94   -285    163    301    342 161.7  30.8  34122  288.93 0855.27
2009/04/23 10:18:27.9      70   -278    129    287    314 165.7  25.9  34120  288.88 0855.27
2009/04/23 10:18:28.0      96   -211    106    232    255 155.5  26.2  34124  288.95 0855.27
2009/04/23 10:18:28.1     128   -213    163    249    297 149.0  36.5  34122  288.92 0855.27
2009/04/23 10:18:28.2     179   -292    119    343    364 148.4  19.2  34122  288.94 0855.27
2009/04/23 10:18:28.3     176   -213    135    277    308 140.3  27.8  34122  288.92 0855.27
2009/04/23 10:18:28.4     151   -171    122    229    259 138.6  30.3  34124  288.95 0855.27
2009/04/23 10:18:28.5     173   -208    159    271    314 140.3  33.0  34124  288.97 0855.27
2009/04/23 10:18:28.6     211   -241    113    321    341 138.8  19.4  34126  288.98 0855.27
2009/04/23 10:18:28.7     216   -196    111    292    312 132.2  21.7  34122  288.92 0855.25
2009/04/23 10:18:28.8     116   -189     29    223    225 148.4   7.5  34120  288.89 0855.25
2009/04/23 10:18:28.9      85   -178     31    198    201 154.5   9.0  34122  288.94 0855.25
2009/04/23 10:18:29.0      85   -133     69    159    173 147.4  24.9  34124  288.96 0855.25
2009/04/23 10:18:29.1      99   -142     95    174    198 145.0  31.0  34126  288.99 0855.25
2009/04/23 10:18:29.2     102   -171     70    200    211 149.3  20.0  34126  288.99 0855.25
2009/04/23 10:18:29.3      99   -154     68    184    196 147.4  21.3  34122  288.92 0855.25
2009/04/23 10:18:29.4      43   -130    142    137    197 161.7  51.2  34128  289.04 0855.25
2009/04/23 10:18:29.5      65   -144    154    159    221 155.5  49.2  34132  289.09 0855.25
2009/04/23 10:18:29.6       5   -171    134    172    218 178.2  41.7  34130  289.08 0855.25
2009/04/23 10:18:29.7     -11   -149    112    150    187 184.4  40.4  34132  289.09 0855.25
2009/04/23 10:18:29.8      -2   -154    105    155    187 181.0  37.3  34132  289.11 0855.25
2009/04/23 10:18:29.9      -5   -133    123    134    181 182.2  47.7  34128  289.04 0855.25
2009/04/23 10:18:30.0     -29   -150    122    153    195 191.1  42.7  34130  289.08 0855.25
2009/04/23 10:18:30.1     -40   -164    132    169    214 193.8  42.0  34130  289.06 0855.25
2009/04/23 10:18:30.2     -39   -124    150    131    199 197.4  54.3  34140  289.24 0855.25
2009/04/23 10:18:30.3     -55   -171    118    180    215 198.0  36.3  34130  289.08 0855.25
2009/04/23 10:18:30.4     -28   -156    156    159    222 190.2  49.8  34128  289.04 0855.25
2009/04/23 10:18:30.5       0   -117    122    118    169 180.0  50.7  34130  289.08 0855.25
2009/04/23 10:18:30.6     103    -52    142    116    183 117.1  56.4  34136  289.16 0855.25
2009/04/23 10:18:30.7     137    -45    145    145    205 108.4  50.1  34130  289.08 0855.24
2009/04/23 10:18:30.8     128    -42    123    135    182 108.2  47.5  34128  289.04 0855.24
2009/04/23 10:18:30.9     115    -26    121    118    169 102.8  50.7  34128  289.02 0855.24
2009/04/23 10:18:31.0      35     -7     76     36     84 101.5  72.9  34132  289.11 0855.24
2009/04/23 10:18:31.1      83    -10    143     84    165  97.5  67.0  34130  289.08 0855.24
2009/04/23 10:18:31.2     113    -24    107    116    157 102.4  47.7  34128  289.02 0855.24
2009/04/23 10:18:31.3      57      4     80     58     98  85.7  60.5  34134  289.13 0855.24
2009/04/23 10:18:31.4       5      0     83      6     83  90.0  90.0  34138  289.21 0855.24
2009/04/23 10:18:31.5      -5    -35    102     36    108 188.0  80.7  34138  289.19 0855.24
2009/04/23 10:18:31.6      -2    -42     84     43     94 182.7  70.8  34144  289.30 0855.24
2009/04/23 10:18:31.7       0    -58     87     59    105 180.9  63.2  34140  289.24 0855.24
2009/04/23 10:18:31.9      15    -31     78     35     85 152.8  74.5  34136  289.16 0855.24
2009/04/23 10:18:31.9      57    -15     69     60     91 105.1  54.8  34142  289.28 0855.24
2009/04/23 10:18:32.0      70    -33     61     78     99 115.4  42.2  34132  289.11 0855.24
2009/04/23 10:18:32.1      33    -33     42     47     63 135.0  47.9  34130  289.08 0855.24
2009/04/23 10:18:32.2     -19    -54     78     58     97 199.2  59.4  34128  289.02 0855.24
2009/04/23 10:18:32.3      67     19     70     70     98  74.1  50.1  34132  289.09 0855.24
2009/04/23 10:18:32.4      97     26    114    101    152  74.9  54.2  34132  289.09 0855.24
2009/04/23 10:18:32.5      89     65     74    111    133  54.0  36.5  34132  289.09 0855.24
2009/04/23 10:18:32.6      68     83    104    108    149  39.2  49.4  34142  289.26 0855.24
2009/04/23 10:18:32.7      17     65     71     68     98  15.1  50.7  34142  289.28 0855.25
2009/04/23 10:18:32.8     -36      7     45     37     58 281.5  56.3  34150  289.40 0855.25
2009/04/23 10:18:32.9     -31     84     21     90     93 339.5  13.7  34146  289.33 0855.25
2009/04/23 10:18:33.0     -25     89     29     93     98 344.0  17.3  34154  289.46 0855.25
2009/04/23 10:18:33.1      42     62     34     76     83  34.3  25.7  34154  289.46 0855.25
2009/04/23 10:18:33.2     -43     52     24     68     73 320.3  19.4  34162  289.60 0855.25
2009/04/23 10:18:33.3    -111     19    -36    113    118 280.1 -22.3  34166  289.69 0855.25
2009/04/23 10:18:33.4     -89    -38    -42     97    105 246.9 -29.0  34152  289.43 0855.25
2009/04/23 10:18:33.5     -66    -58     -6     88     89 228.7  -4.1  34146  289.35 0855.25
2009/04/23 10:18:33.6     -31    -77     50     84     97 202.3  34.4  34170  289.75 0855.25
2009/04/23 10:18:33.7      -7    -85     51     86     99 185.3  33.5  34176  289.85 0855.25
2009/04/23 10:18:33.8      -7   -101     27    102    106 184.5  15.3  34172  289.77 0855.25
2009/04/23 10:18:33.9     -18    -85     13     87     89 192.0   9.0  34174  289.80 0855.25
2009/04/23 10:18:34.1      -3    -89      1     90     91 182.2   1.2  34158  289.55 0855.25
2009/04/23 10:18:34.1      23    -78      6     82     83 163.1   4.4  34164  289.65 0855.25
2009/04/23 10:18:34.2      31    -13     54     34     63 113.5  64.7  34178  289.89 0855.25
2009/04/23 10:18:34.3      21      7     53     23     57  71.4  75.0  34224  290.65 0855.25
2009/04/23 10:18:34.4      54      0     60     55     81  90.0  52.7  34246  291.03 0855.25
2009/04/23 10:18:34.5      72     13     60     74     95  79.4  43.7  34260  291.26 0855.25
2009/04/23 10:18:34.6      86     48     78     99    126  60.7  42.2  34258  291.25 0855.25
2009/04/23 10:18:34.7     194    116     53    227    234  59.1  13.2  34218  290.55 0855.25
2009/04/23 10:18:34.8     227    108     84    252    266  64.6  18.4  34210  290.41 0855.25
2009/04/23 10:18:34.9     182    115     -6    216    217  57.6  -1.8  34200  290.25 0855.25
2009/04/23 10:18:35.0     194    124    -10    231    232  57.4  -2.6  34200  290.26 0855.25
2009/04/23 10:18:35.2     301    181     54    352    357  58.9   8.8  34188  290.03 0855.25
2009/04/23 10:18:35.3     282    143    104    317    334  63.0  18.2  34198  290.22 0855.25
2009/04/23 10:18:35.4     136    200     42    242    246  34.2  10.0  34192  290.10 0855.25
2009/04/23 10:18:35.5     121    193     49    229    235  32.1  12.2  34212  290.45 0855.25
2009/04/23 10:18:35.6     186    147     55    238    245  51.6  13.1  34186  290.02 0855.25
2009/04/23 10:18:35.7     222    276     72    355    363  38.8  11.6  34172  289.79 0855.25
2009/04/23 10:18:35.8     266    188    109    326    345  54.8  18.6  34174  289.81 0855.25
2009/04/23 10:18:35.9     311    128      8    337    338  67.5   1.5  34164  289.65 0855.25
2009/04/23 10:18:36.0     349    165     39    387    390  64.6   5.8  34164  289.64 0855.25
2009/04/23 10:18:36.1     248    193    113    315    334  52.2  20.6  34180  289.90 0855.25
2009/04/23 10:18:36.2     133    262     41    295    298  27.0   8.0  34176  289.83 0855.25
2009/04/23 10:18:36.3     207    195    116    285    307  46.8  23.1  34196  290.17 0855.25
2009/04/23 10:18:36.4     228    150     92    274    290  56.7  18.6  34180  289.92 0855.25
2009/04/23 10:18:36.5     304    184     63    356    362  58.9  10.1  34198  290.23 0855.25
2009/04/23 10:18:36.6     306    151     89    342    354  63.8  14.7  34192  290.10 0855.25
2009/04/23 10:18:36.7     199    187     91    274    289  46.9  18.4  34198  290.22 0855.25
2009/04/23 10:18:36.8      98    206    120    229    258  25.4  30.1  34200  290.26 0855.26
2009/04/23 10:18:36.9     129    167    109    212    238  37.6  29.3  34190  290.08 0855.26
2009/04/23 10:18:37.0      86    126    134    153    203  34.3  45.8  34194  290.16 0855.26
2009/04/23 10:18:37.1      85     57    136    103    170  56.3  59.0  34176  289.84 0855.26
2009/04/23 10:18:37.2      74     61     99     96    137  50.5  51.2  34178  289.89 0855.26
2009/04/23 10:18:37.3      50    115     68    126    143  23.6  31.3  34188  290.04 0855.26
2009/04/23 10:18:37.4      32    136     50    140    148  13.4  20.4  34186  290.01 0855.26
2009/04/23 10:18:37.5       0    170      8    171    172   0.0   2.8  34190  290.09 0855.26
2009/04/23 10:18:37.6       1    151      2    152    153   0.5   0.8  34198  290.23 0855.26
2009/04/23 10:18:37.7     -69     78      4    105    106 318.6   2.3  34200  290.26 0855.26
2009/04/23 10:18:37.8    -118     51    -46    129    138 293.6 -19.6  34224  290.67 0855.26
2009/04/23 10:18:37.9    -191     22    -35    193    197 276.6 -10.5  34206  290.35 0855.26
2009/04/23 10:18:38.0    -233     -3      4    234    235 269.1   1.2  34128  289.02 0855.26
2009/04/23 10:18:38.1    -240     -3    -67    241    251 269.2 -15.5  34102  288.59 0855.26
2009/04/23 10:18:38.2    -305     60   -148    311    344 281.2 -31.6  34118  288.86 0855.26
2009/04/23 10:18:38.3    -401     95   -145    413    438 283.4 -19.4  34128  289.04 0855.26
2009/04/23 10:18:38.4    -374     50   -116    378    395 277.7 -22.1  34106  288.66 0855.26
2009/04/23 10:18:38.5    -360     83   -116    370    388 283.0 -17.5  34102  288.60 0855.26
2009/04/23 10:18:38.6    -323     57   -114    329    349 280.1 -19.1  34102  288.59 0855.26
2009/04/23 10:18:38.7    -316     50   -131    320    345 279.0 -27.9  34118  288.86 0855.26
2009/04/23 10:18:38.8    -397     61   -209    402    453 278.8 -33.9  34102  288.58 0855.26
2009/04/23 10:18:38.9    -384     54   -199    388    436 278.0 -33.7  34102  288.60 0855.26
2009/04/23 10:18:39.0    -406      8   -206    407    456 271.2 -33.5  34124  288.97 0855.26
2009/04/23 10:18:39.1    -409    -31   -166    411    443 265.7 -27.5  34198  290.21 0855.26
2009/04/23 10:18:39.2    -382    -64   -160    388    419 260.4 -28.1  34200  290.24 0855.26
2009/04/23 10:18:39.3    -330    -26   -162    332    369 265.4 -32.3  34174  289.82 0855.26
2009/04/23 10:18:39.4    -306    -19   -198    307    365 266.3 -40.1  34100  288.55 0855.26
2009/04/23 10:18:39.5    -417    -67   -273    423    503 260.8 -40.3  34150  289.40 0855.26
2009/04/23 10:18:39.6    -370   -115   -132    388    409 252.7 -23.8  34182  289.95 0855.26
2009/04/23 10:18:39.7    -409    -83   -231    418    477 258.5 -35.8  34120  288.90 0855.26
2009/04/23 10:18:39.8    -448   -122   -214    465    511 254.7 -30.8  34118  288.86 0855.25
2009/04/23 10:18:39.9    -429    -88    -89    439    448 258.3 -11.5  34202  290.29 0855.25
2009/04/23 10:18:40.0    -310   -138   -181    340    385 246.0 -34.7  34104  288.62 0855.25
2009/04/23 10:18:40.1    -254   -161   -198    301    360 237.6 -40.8  34104  288.64 0855.25
2009/04/23 10:18:40.2    -222   -164   -205    277    344 233.6 -44.5  34108  288.68 0855.25
2009/04/23 10:18:40.3    -311   -171   -210    356    413 241.2 -37.8  34106  288.67 0855.25
2009/04/23 10:18:40.4    -330   -212   -172    393    428 237.2 -29.5  34136  289.16 0855.25
2009/04/23 10:18:40.5    -321   -152   -129    356    378 244.6 -25.2  34166  289.69 0855.25
2009/04/23 10:18:40.6    -340   -212   -146    401    426 238.0 -25.2  34138  289.21 0855.25
2009/04/23 10:18:40.7    -248   -169   -132    301    328 235.6 -29.6  34112  288.76 0855.25
2009/04/23 10:18:40.8    -146   -201    -83    249    262 216.1 -23.6  34134  289.14 0855.25
2009/04/23 10:18:40.9    -190   -198    -65    275    283 223.9 -13.4  34142  289.25 0855.25
2009/04/23 10:18:41.0    -244   -183    -58    306    312 233.2 -10.9  34128  289.03 0855.25
2009/04/23 10:18:41.1    -283   -198    -13    346    347 234.9  -2.2  34128  289.03 0855.25
2009/04/23 10:18:41.2    -228   -123   -240    260    353 241.6 -52.1  34108  288.68 0855.25
2009/04/23 10:18:41.3    -155   -146   -191    214    286 226.8 -50.6  34104  288.63 0855.25
2009/04/23 10:18:41.4    -160    -69    -95    175    199 246.5 -35.4  34110  288.72 0855.25
2009/04/23 10:18:41.5     -93    -67   -106    115    156 234.0 -52.3  34112  288.75 0855.25
2009/04/23 10:18:41.6    -123     -5   -126    124    176 267.4 -54.8  34114  288.80 0855.25
2009/04/23 10:18:41.7    -319     33   -184    321    369 276.1 -37.0  34134  289.13 0855.25
2009/04/23 10:18:41.8    -265      3   -172    266    316 270.8 -40.4  34128  289.02 0855.27
2009/04/23 10:18:41.9    -266     12   -176    267    319 272.6 -40.8  34104  288.61 0855.27
2009/04/23 10:18:42.0    -356    -20   -188    357    403 266.7 -34.4  34100  288.57 0855.27
2009/04/23 10:18:42.1    -343      0   -151    344    375 270.0 -29.6  34104  288.64 0855.27
2009/04/23 10:18:42.2    -368    -22   -132    369    391 266.5 -24.8  34104  288.64 0855.27
2009/04/23 10:18:42.3    -308    -61   -131    314    340 258.8 -28.2  34130  289.06 0855.27
2009/04/23 10:18:42.4    -299    -95   -100    314    329 252.3 -22.9  34134  289.12 0855.27
2009/04/23 10:18:42.5    -320   -176   -131    366    389 241.1 -19.7  34132  289.11 0855.27
2009/04/23 10:18:42.6    -332    -85    -67    343    350 255.5 -11.1  34146  289.33 0855.27
2009/04/23 10:18:42.7    -349    -77   -109    358    374 257.5 -21.7  34124  288.96 0855.27
2009/04/23 10:18:42.8    -317    -81    -60    328    334 255.6 -10.4  34132  289.11 0855.27
2009/04/23 10:18:42.9    -285     69   -105    294    313 283.7 -19.8  34164  289.64 0855.27
2009/04/23 10:18:43.0    -274      2   -105    275    294 270.6 -26.4  34118  288.85 0855.27
2009/04/23 10:18:43.1    -275    -17   -168    276    323 266.3 -38.7  34112  288.76 0855.27
2009/04/23 10:18:43.2    -170      7   -139    171    220 272.6 -48.1  34104  288.64 0855.27
2009/04/23 10:18:43.3    -128     31   -138    132    190 283.7 -55.8  34124  288.97 0855.27
2009/04/23 10:18:43.4     -93     99    -17    136    138 316.8  -7.3  34154  289.48 0855.27
2009/04/23 10:18:43.5    -122    175    -17    214    215 325.0  -4.6  34178  289.87 0855.27
2009/04/23 10:18:43.6     -77    210    -17    224    225 339.7  -4.6  34166  289.67 0855.27
2009/04/23 10:18:43.7     -42    171    -74    177    191 346.0 -28.2  34148  289.36 0855.27
2009/04/23 10:18:43.8    -109     88    -74    141    159 309.1 -34.2  34146  289.33 0855.28
2009/04/23 10:18:43.9     -94     91    -79    132    153 314.0 -38.4  34142  289.26 0855.28
2009/04/23 10:18:44.0     -72     90    -82    116    142 321.3 -43.9  34128  289.02 0855.28
2009/04/23 10:18:44.1     -75     49    -66     90    111 303.3 -44.1  34134  289.13 0855.28
2009/04/23 10:18:44.2    -168    122    -26    208    210 306.0  -7.2  34142  289.28 0855.28
2009/04/23 10:18:44.3    -130    168     25    213    215 322.4   6.9  34152  289.43 0855.28
2009/04/23 10:18:44.4    -125    188    -45    226    231 326.4 -11.3  34156  289.50 0855.28
2009/04/23 10:18:44.5    -125    150    -41    196    201 320.3 -11.9  34152  289.45 0855.28
2009/04/23 10:18:44.6    -136    132    -64    190    200 314.0 -23.3  34146  289.33 0855.28
2009/04/23 10:18:44.7    -160    102    -57    191    200 302.6 -16.8  34152  289.45 0855.28
2009/04/23 10:18:44.8    -132     -3   -101    133    167 268.3 -45.8  34170  289.74 0855.28
2009/04/23 10:18:44.9    -118     -4   -141    119    184 267.9 -60.0  34174  289.82 0855.28
2009/04/23 10:18:45.0    -128      8   -123    129    178 273.9 -53.1  34168  289.72 0855.28
2009/04/23 10:18:45.1     -76     67   -107    102    147 311.3 -56.0  34154  289.46 0855.28
2009/04/23 10:18:45.2    -104    129   -107    166    197 321.0 -40.1  34154  289.46 0855.28
2009/04/23 10:18:45.3    -170     78   -159    188    246 294.8 -48.9  34150  289.41 0855.28
2009/04/23 10:18:45.4     -80    126   -153    150    214 327.4 -54.6  34148  289.38 0855.28
2009/04/23 10:18:45.5     -27    153   -128    156    201 349.8 -48.1  34142  289.28 0855.28
2009/04/23 10:18:45.6       2    158   -104    159    189   1.0 -40.4  34142  289.26 0855.28
2009/04/23 10:18:45.7     -44     70    -98     83    128 327.9 -60.2  34146  289.35 0855.28
2009/04/23 10:18:45.8      -7    160   -108    161    193 357.4 -41.1  34146  289.35 0855.28
2009/04/23 10:18:45.9      22    163    -74    165    180   8.0 -30.1  34148  289.36 0855.28
2009/04/23 10:18:46.0     -41     65    -80     78    111 327.5 -54.5  34142  289.26 0855.28
2009/04/23 10:18:46.1     -52    143    -46    153    159 339.9 -21.7  34136  289.18 0855.28
2009/04/23 10:18:46.2    -113    138    -74    179    193 320.6 -27.8  34140  289.23 0855.28
2009/04/23 10:18:46.3    -202     73    -69    215    226 290.0 -17.9  34174  289.82 0855.28
2009/04/23 10:18:46.4    -168     17    -42    169    175 276.1 -13.9  34188  290.06 0855.28
2009/04/23 10:18:46.5    -159      4    -23    160    162 271.7  -8.2  34196  290.19 0855.28
2009/04/23 10:18:46.6    -110     57    -44    124    132 297.5 -19.7  34192  290.11 0855.28
2009/04/23 10:18:46.7    -156     70    -58    172    181 294.2 -23.3  34188  290.06 0855.28
2009/04/23 10:18:46.8    -200     60    -26    209    211 286.8  -7.3  34176  289.85 0855.28
2009/04/23 10:18:46.9    -166     78    -13    184    185 295.4  -4.1  34174  289.80 0855.28
2009/04/23 10:18:47.0    -132    100    -15    166    167 307.3  -5.2  34168  289.72 0855.28
2009/04/23 10:18:47.1     -96    102      2    141    142 316.7   0.8  34176  289.84 0855.28
2009/04/23 10:18:47.2     -92     76     25    120    123 309.5  12.2  34172  289.77 0855.28
2009/04/23 10:18:47.3     -85     54     41    101    109 302.4  23.0  34170  289.74 0855.28
2009/04/23 10:18:47.4    -139    -10     21    140    142 265.6   8.9  34188  290.06 0855.28
2009/04/23 10:18:47.5    -210     17    -30    211    214 274.8  -8.2  34178  289.89 0855.28
2009/04/23 10:18:47.6    -160     27    -45    163    170 279.7 -15.4  34206  290.35 0855.28
2009/04/23 10:18:47.7    -130    -91     12    159    160 234.9   4.4  34206  290.36 0855.28
2009/04/23 10:18:47.8    -125    -65      6    141    142 242.5   2.8  34182  289.94 0855.27
2009/04/23 10:18:47.9     -49   -143     76    152    169 199.2  28.5  34186  290.02 0855.27
2009/04/23 10:18:48.0     -76   -125    112    147    184 211.2  40.9  34188  290.04 0855.27
2009/04/23 10:18:48.1     -44    -92    106    103    147 205.9  50.7  34184  289.97 0855.27
2009/04/23 10:18:48.2     -16    -79     82     81    115 191.6  49.1  34186  290.01 0855.27
2009/04/23 10:18:48.3      24   -119     82    122    146 168.4  37.0  34166  289.69 0855.27
2009/04/23 10:18:48.4      12    -60    163     62    174 168.4  78.6  34176  289.84 0855.27
2009/04/23 10:18:48.5      17   -165    180    166    244 174.0  52.7  34138  289.21 0855.27
2009/04/23 10:18:48.6      93   -133    140    163    214 145.0  45.1  34132  289.11 0855.27
2009/04/23 10:18:48.7     136   -124    160    185    244 132.4  45.1  34142  289.26 0855.27
2009/04/23 10:18:48.8     143   -158    137    214    254 137.9  35.6  34136  289.17 0855.27
2009/04/23 10:18:48.9      22   -166    161    168    232 172.4  48.7  34134  289.14 0855.27
2009/04/23 10:18:49.0       3   -163    171    164    236 178.6  51.2  34138  289.21 0855.27
2009/04/23 10:18:49.1      33   -208    172    211    272 170.9  43.7  34140  289.22 0855.27
2009/04/23 10:18:49.2       5   -181    155    182    239 178.4  44.8  34138  289.19 0855.27
2009/04/23 10:18:49.3      17   -133    174    135    220 172.4  58.5  34142  289.26 0855.27
2009/04/23 10:18:49.4      25    -63    133     68    149 158.2  71.0  34150  289.40 0855.27
2009/04/23 10:18:49.5      34    -85    139     92    166 157.7  63.6  34144  289.31 0855.27
2009/04/23 10:18:49.6      81    -45    137     93    165 119.3  62.8  34148  289.36 0855.27
2009/04/23 10:18:49.7     186    -98    181    211    277 117.8  45.1  34140  289.24 0855.26
2009/04/23 10:18:49.8     120    -50    165    131    210 112.6  57.5  34142  289.26 0855.26
2009/04/23 10:18:49.9     162    -63    137    174    221 111.3  42.2  34134  289.13 0855.26
2009/04/23 10:18:50.0     111    -31    124    116    169 105.5  52.2  34134  289.13 0855.26
2009/04/23 10:18:50.1      30    -42    102     52    114 143.9  70.8  34144  289.31 0855.26
2009/04/23 10:18:50.2      48    -74     95     89    130 146.6  52.1  34132  289.09 0855.26
2009/04/23 10:18:50.3       9   -128    169    129    212 175.6  58.7  34142  289.28 0855.26
2009/04/23 10:18:50.4     -38   -157    194    162    252 193.6  56.3  34136  289.16 0855.26
2009/04/23 10:18:50.5     -65   -170    144    183    232 200.9  42.2  34136  289.18 0855.26
2009/04/23 10:18:50.6     -49   -175     82    182    199 195.8  25.9  34138  289.21 0855.26
2009/04/23 10:18:50.7     -31   -155     71    159    174 191.5  25.9  34136  289.18 0855.26
2009/04/23 10:18:50.8      -8   -104     96    105    142 184.5  47.9  34140  289.24 0855.26
2009/04/23 10:18:50.9     -25    -97     84    101    131 194.7  43.8  34140  289.23 0855.26
2009/04/23 10:18:51.0     -67    -99     18    120    122 214.2   8.9  34138  289.19 0855.26
2009/04/23 10:18:51.1     -41    -88     40     98    105 205.3  23.1  34136  289.18 0855.26
2009/04/23 10:18:51.2     -43    -84     32     95    101 207.2  18.9  34140  289.24
    -30    -34     51     46     68 222.3  52.2  34146  289.35
    -27     11     57     30     64 291.7  69.8  34158  289.53
    -28     18     45     34     56 302.5  59.4  34162  289.62
    -89     25     43     93    102 285.9  26.6  34150  289.41
   -109     13     64    110    127 277.0  32.9  34150  289.41
   -162     36     43    167    173 282.6  14.7  34202  290.30
   -192     48     -2    198    199 284.2  -0.7  34234  290.84
   -183     75    -14    199    200 292.4  -4.1  34182  289.94
   -117    105     75    158    174 311.8  27.2  34160  289.57
   -106     82     55    135    145 307.8  23.1  34152  289.43
   -125    103     61    162    173 309.5  21.3  34154  289.48
   -114     82     65    141    155 306.0  27.1  34160  289.57 0855.26
2009/04/23 10:18:52.6    -157      3     34    158    162 271.3  12.4  34152  289.45 0855.26
2009/04/23 10:18:52.7    -187     38     20    191    193 281.5   6.1  34152  289.43 0855.26
2009/04/23 10:18:52.8    -148     78     48    168    175 297.8  16.0  34164  289.63 0855.26
2009/04/23 10:18:52.9     -93     81     38    124    130 310.9  17.3  34164  289.65 0855.26
2009/04/23 10:18:53.0     -85     64    -25    107    110 307.3 -13.4  34166  289.67 0855.26
2009/04/23 10:18:53.1     -31     94    -25     99    103 341.7 -14.5  34162  289.62 0855.26
2009/04/23 10:18:53.2      -2    114    -32    115    120 359.0 -15.5  34156  289.50 0855.26
2009/04/23 10:18:53.3     -15     62    -39     64     74 345.7 -39.9  34156  289.52 0855.26
2009/04/23 10:18:53.4      25     85    -87     89    124  16.9 -54.4  34184  289.99 0855.26
2009/04/23 10:18:53.5      83     83    -36    118    124  44.9 -17.0  34194  290.14 0855.26
2009/04/23 10:18:53.6      61     81    -29    102    106  37.4 -20.2  34186  290.02 0855.26
2009/04/23 10:18:53.7      59     92    -32    110    114  32.5 -21.7  34174  289.82 0855.26
2009/04/23 10:18:53.8      78     38    -31     87     93  63.8 -19.7  34172  289.77 0855.26
2009/04/23 10:18:53.9      67     37    -17     77     80  61.1 -12.9  34170  289.75 0855.26
2009/04/23 10:18:54.0     116    -32     33    121    126 105.5  15.2  34170  289.74 0855.26
2009/04/23 10:18:54.1     125    -90     16    155    156 125.9   5.9  34168  289.72 0855.26
2009/04/23 10:18:54.2     119   -136    -17    181    182 138.8  -5.6  34154  289.48 0855.26
2009/04/23 10:18:54.3     135   -155     10    206    207 138.8   2.9  34142  289.28 0855.26
2009/04/23 10:18:54.4     155   -213    -74    264    274 143.9 -20.4  34138  289.20 0855.26
2009/04/23 10:18:54.5      97   -208     -1    230    231 155.1  -0.3  34134  289.13 0855.26
2009/04/23 10:18:54.6     147   -355     90    385    396 157.5  13.3  34128  289.03 0855.25
2009/04/23 10:18:54.7     140   -332    157    361    393 157.2  25.1  34126  288.99 0855.25
2009/04/23 10:18:54.8     111   -267    277    290    401 157.3  48.7  34136  289.15 0855.25
2009/04/23 10:18:54.9       0    -84    175     85    194 180.4  72.7  34138  289.21 0855.25
2009/04/23 10:18:55.0       9   -312    123    313    336 178.2  22.8  34128  289.03 0855.25
2009/04/23 10:18:55.1       3   -237     98    238    257 179.1  23.6  34132  289.10 0855.25
2009/04/23 10:18:55.2      15    -54     99     57    114 164.0  67.2  34140  289.24 0855.25
2009/04/23 10:18:55.3      65   -138    -18    153    155 154.7  -6.7  34132  289.09 0855.25
2009/04/23 10:18:55.4      21   -194    -26    196    198 173.8  -7.7  34128  289.04 0855.25
2009/04/23 10:18:55.5       7   -153    -99    154    183 177.3 -40.0  34132  289.09 0855.25
2009/04/23 10:18:55.6      29   -110   -110    114    158 164.8 -53.6  34136  289.18 0855.25
2009/04/23 10:18:55.7       3    -84   -122     85    148 177.8 -66.5  34138  289.19 0855.25
2009/04/23 10:18:55.8       0   -172    -41    173    178 180.0 -13.4  34130  289.08 0855.25
2009/04/23 10:18:55.9     -16   -181    -35    182    186 185.1 -11.1  34130  289.06 0855.25
2009/04/23 10:18:56.0     -29   -199     -4    202    203 188.5  -1.2  34130  289.06 0855.25
2009/04/23 10:18:56.1     -55   -250     93    257    274 192.5  19.9  34134  289.14 0855.25
2009/04/23 10:18:56.2      46   -229     52    234    240 168.4  12.6  34130  289.07 0855.25
2009/04/23 10:18:56.3      49   -193     76    200    213 165.7  21.5  34134  289.13 0855.25
2009/04/23 10:18:56.4     124   -148    127    194    231 139.9  35.7  34138  289.21 0855.25
2009/04/23 10:18:56.5     166   -177     88    243    258 136.8  20.7  34134  289.14 0855.25
2009/04/23 10:18:56.6     209   -270     50    342    346 142.2   8.3  34130  289.08 0855.25
2009/04/23 10:18:56.7     181   -285    -10    338    339 147.6  -1.8  34132  289.11 0855.25
2009/04/23 10:18:56.8      88   -241    -18    257    258 160.0  -4.1  34132  289.10 0855.25
2009/04/23 10:18:56.9      82   -322    -67    333    340 165.7 -11.5  34142  289.25 0855.25
2009/04/23 10:18:57.0      67   -259    -68    268    277 165.5 -14.4  34138  289.19 0855.25
2009/04/23 10:18:57.1      21   -122    -59    124    137 170.2 -31.6  34140  289.23 0855.25
2009/04/23 10:18:57.2     -32    -50    -66     60     89 212.5 -57.1  34144  289.31 0855.25
2009/04/23 10:18:57.3      58   -160    -17    171    172 160.0  -6.0  34152  289.43 0855.25
2009/04/23 10:18:57.4      90   -164     -7    188    189 151.1  -2.2  34146  289.33 0855.25
2009/04/23 10:18:57.5      92   -288     56    303    309 162.2  10.6  34150  289.41 0855.25
2009/04/23 10:18:57.6      43   -236    -43    241    245 169.5 -10.3  34142  289.27 0855.25
2009/04/23 10:18:57.7     -45   -326     26    330    332 187.9   4.6  34144  289.30 0855.25
2009/04/23 10:18:57.8      -7   -241      2    242    243 181.8   0.5  34140  289.24 0855.25
2009/04/23 10:18:57.9      32   -179     79    182    198 169.8  24.9  34148  289.36 0855.25
2009/04/23 10:18:58.0     107   -104    113    150    187 134.4  40.7  34142  289.28 0855.25
2009/04/23 10:18:58.1      73   -134    137    153    205 151.5  46.4  34144  289.30 0855.25
2009/04/23 10:18:58.2      68   -131    129    148    196 152.4  45.8  34150  289.40 0855.25
2009/04/23 10:18:58.3      10   -135    162    136    211 175.5  55.8  34144  289.31 0855.25
2009/04/23 10:18:58.4      39   -194    129    198    236 168.5  36.3  34138  289.19 0855.25
2009/04/23 10:18:58.5      66   -303    153    311    346 167.6  28.1  34132  289.10 0855.25
2009/04/23 10:18:58.6     210   -328    167    390    424 147.4  24.6  34130  289.07 0855.26
2009/04/23 10:18:58.7      78   -431    108    439    453 169.7  13.9  34128  289.02 0855.26
2009/04/23 10:18:58.8      68   -496    112    501    514 172.2  12.6  34130  289.05 0855.26
2009/04/23 10:18:58.9     118   -386    200    404    450 163.0  28.2  34136  289.17 0855.26
2009/04/23 10:18:59.0     139   -370    204    396    445 159.4  29.3  34134  289.14 0855.26
2009/04/23 10:18:59.1     178   -444    257    479    543 158.1  30.7  34128  289.02 0855.26
2009/04/23 10:18:59.2     202   -451    192    495    530 155.9  22.4  34114  288.80 0855.26
2009/04/23 10:18:59.3     171   -378    221    416    471 155.6  30.2  34118  288.85 0855.26
2009/04/23 10:18:59.4      87   -410    265    420    496 168.0  35.5  34124  288.95 0855.26
2009/04/23 10:18:59.5      58   -458    192    462    500 172.7  23.9  34126  289.00 0855.26
2009/04/23 10:18:59.6     -25   -467     92    468    478 183.2  11.1  34136  289.17 0855.26
2009/04/23 10:18:59.7      38   -477     31    479    481 175.4   3.8  34140  289.22 0855.26
2009/04/23 10:18:59.8      51   -406    111    410    425 172.8  15.1  34142  289.26 0855.26
2009/04/23 10:18:59.9     240   -433    100    496    506 151.0  11.4  34136  289.18 0855.26
2009/04/23 10:19:00.0     249   -319     30    406    408 142.0   4.2  34116  288.83 0855.26
2009/04/23 10:19:00.1     262   -273     20    379    380 136.2   3.1  34104  288.62 0855.26
2009/04/23 10:19:00.2     214   -233    111    317    337 137.5  19.4  34114  288.79 0855.26
2009/04/23 10:19:00.3     210   -235    241    316    397 138.3  41.2  34124  288.96 0855.26
2009/04/23 10:19:00.4     132   -206    239    245    342 147.3  49.3  34136  289.17 0855.26
2009/04/23 10:19:00.5      34   -271    205    274    342 172.8  40.6  34130  289.07 0855.26
2009/04/23 10:19:00.6      70   -254    203    264    333 164.4  41.4  34134  289.12 0855.26
2009/04/23 10:19:00.7      29   -164    222    167    277 169.8  59.4  34132  289.09 0855.26
2009/04/23 10:19:00.8     -34   -157    169    161    233 192.5  51.4  34132  289.11 0855.26
2009/04/23 10:19:00.9     -25   -154    203    157    256 189.3  58.5  34126  288.99 0855.26
2009/04/23 10:19:01.0       0   -126    139    127    188 180.0  52.7  34130  289.06 0855.26
2009/04/23 10:19:01.1     -63   -167    109    179    209 200.7  34.4  34126  289.01 0855.26
2009/04/23 10:19:01.2      11   -159    197    160    253 176.0  56.6  34132  289.11 0855.26
2009/04/23 10:19:01.3     -64   -147    208    161    263 203.6  58.5  34144  289.29 0855.26
2009/04/23 10:19:01.4       8    -12    135     15    135 147.4  90.0  34156  289.52 0855.26
2009/04/23 10:19:01.5     -10    -51    125     53    135 191.6  75.5  34152  289.45 0855.26
2009/04/23 10:19:01.6     -21     56     85     60    104 339.1  61.5  34168  289.70 0855.27
2009/04/23 10:19:01.7       0    -10    134     11    134 182.7  90.0  34156  289.50 0855.27
2009/04/23 10:19:01.8       6    -33    179     34    182 168.4  89.8  34148  289.36 0855.27
2009/04/23 10:19:01.9     -64      3    149     65    162 273.5  75.3  34146  289.33 0855.27
2009/04/23 10:19:02.0      11     81    134     82    157   8.0  65.7  34146  289.35 0855.27
2009/04/23 10:19:02.1      -2    -46    141     47    148 182.7  81.0  34144  289.30 0855.27
2009/04/23 10:19:02.2     108    -13    160    109    193  97.0  62.8  34154  289.48 0855.27
2009/04/23 10:19:02.3       0    -44    145     45    151 180.9  81.8  34156  289.50 0855.27
2009/04/23 10:19:02.4     133    -32     98    137    168 103.7  39.1  34130  289.08 0855.27
2009/04/23 10:19:02.5     184     26     15    186    187  81.9   4.9  34130  289.06 0855.27
2009/04/23 10:19:02.6     248     45     -5    253    254  79.6  -1.3  34130  289.07 0855.27
2009/04/23 10:19:02.7     268     46     92    273    289  80.1  18.6  34132  289.09 0855.27
2009/04/23 10:19:02.8     242     73    127    253    283  73.2  28.7  34128  289.03 0855.27
2009/04/23 10:19:02.9     162     41    132    168    213  75.6  42.2  34128  289.02 0855.27
2009/04/23 10:19:03.1      87     -5    126     88    153  93.9  62.1  34130  289.08 0855.27
2009/04/23 10:19:03.2     -11    -56    124     58    136 191.6  73.1  34144  289.30 0855.27
2009/04/23 10:19:03.3      46    -56    124     73    143 140.3  66.8  34134  289.14 0855.27
2009/04/23 10:19:03.4     148   -116    163    189    249 128.0  45.1  34132  289.09 0855.27
2009/04/23 10:19:03.5     184   -224    200    291    353 140.6  37.8  34126  288.99 0855.27
2009/04/23 10:19:03.6     178   -210    170    276    324 139.7  34.8  34130  289.05 0855.27
2009/04/23 10:19:03.7     134   -242    159    277    319 151.0  32.7  34128  289.02 0855.28
2009/04/23 10:19:03.8     172   -153    125    231    262 131.8  31.0  34128  289.03 0855.28
2009/04/23 10:19:03.9     157   -139    106    210    235 131.6  28.7  34130  289.08 0855.28
2009/04/23 10:19:04.0      65   -174    149    186    238 159.5  42.7  34134  289.14 0855.28
2009/04/23 10:19:04.1      59   -122    126    136    185 154.1  47.9  34134  289.13 0855.28
2009/04/23 10:19:04.2     -18   -115    123    117    169 188.9  51.2  34140  289.23 0855.28
2009/04/23 10:19:04.3      35   -150    129    155    201 166.7  44.1  34136  289.16 0855.28
2009/04/23 10:19:04.4      -7   -129    138    130    189 183.1  52.0  34138  289.19 0855.28
2009/04/23 10:19:04.5     112    -32    120    117    167 105.9  50.7  34142  289.28 0855.28
2009/04/23 10:19:04.6     139    -59     95    152    179 113.1  35.2  34132  289.09 0855.28
2009/04/23 10:19:04.7     118   -131    226    177    287 137.9  58.2  34138  289.19 0855.28
2009/04/23 10:19:04.8     127   -199     78    237    250 147.5  18.4  34128  289.03 0855.28
2009/04/23 10:19:04.9      54   -236    178    243    301 167.1  39.7  34130  289.07 0855.28
2009/04/23 10:19:05.0      69   -240    234    250    342 164.0  47.9  34124  288.97 0855.28
2009/04/23 10:19:05.1      32   -138    224    142    265 166.6  64.7  34136  289.18 0855.28
2009/04/23 10:19:05.2       0   -139    149    140    204 180.4  52.0  34136  289.16 0855.28
2009/04/23 10:19:05.3      17    -17    129     25    131 135.0  89.1  34142  289.26 0855.28
2009/04/23 10:19:05.4     119    -65    120    136    181 118.9  46.2  34136  289.18 0855.28
2009/04/23 10:19:05.5       9   -127    134    128    185 175.5  51.4  34138  289.19 0855.28
2009/04/23 10:19:05.6      45    -48    109     67    127 136.8  65.1  34140  289.24 0855.28
2009/04/23 10:19:05.7     -15   -109     75    111    133 188.1  37.0  34142  289.26 0855.29
2009/04/23 10:19:05.8     -38   -126    120    132    178 196.9  47.5  34138  289.19 0855.29
2009/04/23 10:19:05.9      -9   -116    131    117    175 184.5  53.5  34140  289.23 0855.29
2009/04/23 10:19:06.0     -53   -148    117    158    196 200.0  40.4  34138  289.19 0855.29
2009/04/23 10:19:06.1     -67   -177     91    190    210 200.7  27.3  34138  289.19 0855.29
2009/04/23 10:19:06.2    -196   -208     22    287    288 223.3   4.4  34138  289.19 0855.29
2009/04/23 10:19:06.3    -179   -284    -22    336    337 212.2  -3.9  34152  289.45 0855.29
2009/04/23 10:19:06.4     -82   -270     29    283    285 196.9   5.9  34146  289.34 0855.29
2009/04/23 10:19:06.5    -190   -256     75    319    328 216.6  13.3  34150  289.39 0855.29
2009/04/23 10:19:06.6    -183   -237     36    300    303 217.8   6.9  34136  289.17 0855.29
2009/04/23 10:19:06.7    -342   -244    -29    421    423 234.5  -4.0  34132  289.11 0855.29
2009/04/23 10:19:06.8    -393   -227    -32    454    456 240.0  -4.1  34126  288.99 0855.29
2009/04/23 10:19:06.9    -381   -194    -55    428    432 242.9  -7.3  34128  289.02 0855.29
2009/04/23 10:19:07.0    -337   -140    -88    365    376 247.4 -13.6  34136  289.18 0855.29
2009/04/23 10:19:07.1    -317   -157    -75    354    362 243.6 -12.0  34152  289.43 0855.29
2009/04/23 10:19:07.2    -295   -104    -53    314    319 250.5  -9.6  34144  289.29 0855.29
2009/04/23 10:19:07.3    -202   -103    -65    227    237 242.9 -16.0  34144  289.31 0855.29
2009/04/23 10:19:07.4    -289   -150     34    326    328 242.5   6.1  34144  289.29 0855.29
2009/04/23 10:19:07.5    -256   -136    -38    291    294 242.0  -7.5  34148  289.37 0855.29
2009/04/23 10:19:07.6    -258    -73    -74    269    278 254.1 -20.0  34132  289.10 0855.29
2009/04/23 10:19:07.7    -248     18    -87    249    264 274.3 -19.4  34128  289.02 0855.29
2009/04/23 10:19:07.8    -208      8    -21    209    211 272.4  -6.0  34126  289.01 0855.29
2009/04/23 10:19:07.9    -213     52    -27    220    222 283.9  -7.2  34102  288.58 0855.29
2009/04/23 10:19:08.0    -208     62    -43    218    223 286.6 -11.3  34100  288.55 0855.29
2009/04/23 10:19:08.1    -198     59    -57    207    215 286.6 -15.5  34114  288.79 0855.29
2009/04/23 10:19:08.2    -187     25     21    189    191 277.7   6.5  34176  289.84 0855.29
2009/04/23 10:19:08.3    -197     48     29    203    206 283.9   8.2  34158  289.55 0855.29
2009/04/23 10:19:08.4    -161     39     17    166    167 283.9   6.1  34144  289.30 0855.29
2009/04/23 10:19:08.5    -185     13     49    186    193 274.3  15.0  34144  289.31
   - 0855.29
2009/04/23 10:19:08.7 94     32     17    197    198 279.5   5.0  34156  289.50
   - 0855.29
2009/04/23 10:19:08.9 32    -70      4    243    244 253.1   1.0  34132  289.10
   - 0855.29
2009/04/23 10:19:09.0 35    -60     62    243    251 255.6  14.5  34148  289.36
   -19 0855.29
2009/04/23 10:19:09.5     125    198    234 224.3  35.5  34130  289.08
   -176    -7 0855.29
2009/04/23 10:19:09.6      60    192    202 246.9  17.3  34132  289.09
   -193    -7 0855.29
2009/04/23 10:19:09.7      33    208    211 248.7   9.0  34122  288.94
   -123    -89 0855.30
2009/04/23 10:19:09.9     -8    118    119 214.7  -4.1  34132  289.09
     32    -32    0855.30
2009/04/23 10:19:10.2 0     79     93 147.5  35.5  34138  289.19
     28    -69     4 0855.30
2009/04/23 10:19:10.4      48     51 141.3  19.2  34136  289.18
    -38    -46     58 0855.30
2009/04/23 10:19:10.6    158    160 219.6   7.8  34138  289.19
    -79   -112    -22   0855.30
2009/04/23 10:19:11.2 40  289.23
    -27    -30     -1     41     42 221.4  -2.2  341 0855.30
2009/04/23 10:19:11.6 289.28
     28     35     30     45     54  38.7  36.5  34154  2 0855.30
2009/04/23 10:19:12.2      44   -147      6    154    155 163.1   2.3  34126  289.01 0855.31
2009/04/23 10:19:12.3      41   -170     40    176    181 166.2  12.9  34124  288.97 0855.31
2009/04/23 10:19:12.4      47   -155     44    163    169 163.1  15.3  34124  288.96 0855.31
2009/04/23 10:19:12.5       2   -142     68    143    158 179.0  27.0  34124  288.96 0855.31
2009/04/23 10:19:12.6      56   -119     81    132    154 154.6  35.5  34126  288.99 0855.31
2009/04/23 10:19:12.7       3   -113     65    114    131 178.2  32.4  34128  289.04 0855.31
2009/04/23 10:19:12.8      77    -73     82    107    134 133.2  41.6  34124  288.97 0855.31
2009/04/23 10:19:12.9      70    -57     80     91    121 129.1  45.8  34130  289.08 0855.31
2009/04/23 10:19:13.0      40    -59     91     72    116 145.7  57.5  34134  289.14 0855.31
2009/04/23 10:19:13.1       0     -3     46      4     46 175.5  90.0  34144  289.31 0855.31
2009/04/23 10:19:13.2     500      3     67    159    172 360.0  24.1  34142  289.28 0855.31
2009/04/23 10:19:13.3     -93     82      6    125    126 311.4   2.8  34134  289.14 0855.31
2009/04/23 10:19:13.4     -15     15     78     22     81 315.0  83.9  34138  289.19 0855.31
2009/04/23 10:19:13.5     -10     32     70     34     77 341.3  72.8  34138  289.19 0855.31
2009/04/23 10:19:13.6       8    -13    134     16    134 147.5  90.0  34144  289.31 0855.31
2009/04/23 10:19:13.7      -6    -88    172     89    193 184.5  70.6  34142  289.28 0855.30
2009/04/23 10:19:13.8     -60   -169     75    180    195 199.6  23.8  34124  288.97 0855.30
2009/04/23 10:19:13.9     -31   -152     40    156    162 191.6  14.5  34124  288.96 0855.30
2009/04/23 10:19:14.0     -40   -116     69    123    141 199.2  31.4  34124  288.97 0855.30
2009/04/23 10:19:14.1      -1    -71    135     72    153 180.9  69.3  34138  289.19 0855.30
2009/04/23 10:19:14.2      25    -39     83     47     95 147.4  67.7  34142  289.26 0855.30
2009/04/23 10:19:14.3       0   -132     97    133    164 180.4  39.7  34124  288.97 0855.30
2009/04/23 10:19:14.4     116   -110     95    161    186 133.6  33.5  34124  288.96 0855.30
2009/04/23 10:19:14.5      49   -128     89    138    164 159.1  35.7  34124  288.97 0855.30
2009/04/23 10:19:14.6       8   -191    122    192    227 177.5  35.5  34128  289.02 0855.30
2009/04/23 10:19:14.7      67   -210     95    221    240 162.2  24.9  34126  289.00 0855.30
2009/04/23 10:19:14.8      88   -188     77    208    221 154.8  21.0  34126  288.99 0855.30
2009/04/23 10:19:14.9      46   -204    122    210    242 167.3  32.9  34126  288.99 0855.30
2009/04/23 10:19:15.0      83   -232    148    247    287 160.2  33.5  34128  289.03 0855.30
2009/04/23 10:19:15.1      44   -232    129    237    269 169.1  31.0  34128  289.03 0855.30
2009/04/23 10:19:15.2      72   -233    146    244    284 162.8  33.5  34130  289.07 0855.30
2009/04/23 10:19:15.3      60   -241    155    249    293 165.8  35.2  34126  289.00 0855.30
2009/04/23 10:19:15.4      58   -210    178    219    282 164.4  43.3  34128  289.03 0855.30
2009/04/23 10:19:15.5      79   -154    163    174    238 152.8  48.0  34128  289.04 0855.30
2009/04/23 10:19:15.6     126   -190    138    229    267 146.4  34.0  34130  289.07 0855.30
2009/04/23 10:19:15.7     122   -169    136    209    249 144.2  36.0  34130  289.07 0855.31
2009/04/23 10:19:15.8     102   -141    122    175    213 144.2  38.0  34132  289.09 0855.31
2009/04/23 10:19:15.9      77    -75    116    108    158 134.0  52.2  34140  289.23 0855.31
2009/04/23 10:19:16.0       0   -175    152    176    232 180.0  45.4  34136  289.18 0855.31
2009/04/23 10:19:16.1      46   -194    149    200    249 166.4  40.6  34142  289.25 0855.31
2009/04/23 10:19:16.2      -7   -193    135    194    236 182.2  38.4  34142  289.28 0855.31
2009/04/23 10:19:16.3      -3   -228    126    229    261 180.9  31.4  34150  289.39 0855.31
2009/04/23 10:19:16.4     -52   -257    131    263    293 191.6  28.2  34146  289.32 0855.31
2009/04/23 10:19:16.5     -69   -208    107    220    244 198.3  27.8  34140  289.24 0855.31
2009/04/23 10:19:16.6     -38   -127    166    133    212 197.0  57.1  34146  289.35 0855.31
2009/04/23 10:19:16.7     -36   -110    137    116    179 198.3  55.6  34140  289.23 0855.31
2009/04/23 10:19:16.8      14    -91    123     93    154 171.1  59.0  34138  289.21 0855.31
2009/04/23 10:19:16.9      51   -117    109    128    168 156.4  44.8  34138  289.21 0855.31
2009/04/23 10:19:17.0      72    -81    121    109    162 138.6  53.3  34150  289.41 0855.31
2009/04/23 10:19:17.1      15    -16     74     22     77 136.8  81.8  34156  289.50 0855.31
2009/04/23 10:19:17.2      10    -54     98     55    112 169.3  68.8  34150  289.41 0855.31
2009/04/23 10:19:17.3     -22   -111    169    114    203 191.5  62.8  34150  289.41 0855.31
2009/04/23 10:19:17.4       6    -72    124     73    143 174.7  66.8  34150  289.41 0855.31
2009/04/23 10:19:17.5      -5   -121    127    122    176 182.6  51.2  34140  289.23 0855.31
2009/04/23 10:19:17.6      13   -175    137    176    223 175.5  41.7  34138  289.19 0855.31
2009/04/23 10:19:17.7      47    -77     79     91    120 148.4  45.8  34144  289.31 0855.31
2009/04/23 10:19:17.8      53     -4     49     54     72  94.4  47.9  34146  289.33 0855.31
2009/04/23 10:19:17.9      11    -56     73     58     93 168.4  56.9  34150  289.40 0855.31
2009/04/23 10:19:18.0      60   -149    126    161    204 158.1  41.7  34140  289.24 0855.31
2009/04/23 10:19:18.1      31   -154    110    158    192 168.5  38.0  34140  289.24 0855.31
2009/04/23 10:19:18.2      32   -157    110    161    194 168.4  37.3  34140  289.24 0855.31
2009/04/23 10:19:18.3      37   -126     83    132    155 163.5  35.5  34138  289.21 0855.31
2009/04/23 10:19:18.4      30   -148     62    152    164 168.4  23.4  34140  289.23 0855.31
2009/04/23 10:19:18.5      35   -126     54    131    141 164.4  23.1  34136  289.18 0855.31
2009/04/23 10:19:18.6      10   -126     60    127    140 175.1  27.1  34142  289.26 0855.31
2009/04/23 10:19:18.7      60    -95     57    113    126 147.5  29.2  34138  289.19 0855.31
2009/04/23 10:19:18.8      28    -26     57     39     69 133.3  62.6  34148  289.38 0855.31
2009/04/23 10:19:18.9      14     25     75     29     80  29.0  77.6  34156  289.50 0855.31
2009/04/23 10:19:19.0      24     -1     42     25     48  94.4  65.7  34162  289.62 0855.31
2009/04/23 10:19:19.1     -10     32     64     34     72 341.3  69.8  34174  289.80 0855.31
2009/04/23 10:19:19.2      -8      2     62      9     62 288.2  90.0  34172  289.77 0855.31
2009/04/23 10:19:19.3     -10      9     29     14     32 313.1  72.9  34172  289.79 0855.31
2009/04/23 10:19:19.4     -36     79     43     87     97 335.5  27.8  34170  289.75 0855.31
2009/04/23 10:19:19.5     -36     96     52    103    115 339.1  28.2  34194  290.14 0855.31
2009/04/23 10:19:19.6      29     74     84     80    116  21.8  51.2  34190  290.09 0855.31
2009/04/23 10:19:19.7      78     77     67    110    128  45.4  34.4  34200  290.26 0855.31
2009/04/23 10:19:19.8     -19     73     69     76    102 344.8  47.5  34240  290.94 0855.31
2009/04/23 10:19:19.9     -34     58     28     68     73 329.3  23.0  34256  291.20 0855.31
2009/04/23 10:19:20.0      17     96     43     98    107  10.2  24.6  34250  291.09 0855.31
2009/04/23 10:19:20.1      68    154    103    169    197  23.8  34.2  34250  291.11 0855.31
2009/04/23 10:19:20.2     122    230     89    261    276  28.0  18.9  34260  291.26 0855.31
2009/04/23 10:19:20.3      11    151     90    152    176   4.5  33.1  34260  291.26 0855.31
2009/04/23 10:19:20.4      52    130     75    141    159  21.9  30.3  34256  291.21 0855.31
2009/04/23 10:19:20.5     141     77     43    161    167  61.4  15.0  34240  290.94 0855.31
2009/04/23 10:19:20.6     137     64     45    152    159  64.8  16.6  34224  290.67 0855.31
2009/04/23 10:19:20.7     106     28     72    110    131  74.9  36.0  34220  290.58 0855.32
2009/04/23 10:19:20.8     256     91    175    272    323  70.3  35.7  34194  290.15 0855.32
2009/04/23 10:19:20.9     307    110     74    327    336  70.2  12.8  34178  289.87 0855.32
2009/04/23 10:19:21.0     264    105    -67    285    293  68.2 -13.4  34182  289.95 0855.32
2009/04/23 10:19:21.1     290     82     46    302    306  74.1   8.8  34216  290.51 0855.32
2009/04/23 10:19:21.2     348    106     56    365    370  73.0   8.8  34258  291.25 0855.32
2009/04/23 10:19:21.3     296    136    188    326    376  65.3  32.7  34266  291.37 0855.32
2009/04/23 10:19:21.4     357    107    158    373    405  73.2  24.3  34268  291.42 0855.32
2009/04/23 10:19:21.5     316    169    206    359    413  61.9  32.4  34250  291.10 0855.32
2009/04/23 10:19:21.6     390    109    233    406    468  74.3  32.4  34220  290.60 0855.32
2009/04/23 10:19:21.7     279    162    196    323    377  59.8  34.1  34202  290.30 0855.32
2009/04/23 10:19:21.8     359    175    293    400    495  64.0  39.8  34204  290.32 0855.32
2009/04/23 10:19:21.9     542    313    126    626    639  60.0  11.4  34176  289.84 0855.32
2009/04/23 10:19:22.0     550    221    132    594    609  68.1  12.6  34186  290.02 0855.32
2009/04/23 10:19:22.1     443     87     98    452    463  78.9  12.3  34208  290.38 0855.32
2009/04/23 10:19:22.2     431    -21    160    432    460  92.9  21.1  34200  290.24 0855.32
2009/04/23 10:19:22.3     399    -35    288    401    493  95.1  39.2  34194  290.15 0855.32
2009/04/23 10:19:22.4     439    138     47    461    464  72.5   5.9  34182  289.94 0855.32
2009/04/23 10:19:22.5     467    189    145    505    526  67.9  16.0  34188  290.06 0855.32
2009/04/23 10:19:22.6     502     77    124    508    524  81.2  13.8  34198  290.20 0855.32
2009/04/23 10:19:22.7     457    160    137    485    505  70.7  15.8  34196  290.18 0855.33
2009/04/23 10:19:22.8     401    255     40    476    478  57.6   4.9  34182  289.93 0855.33
2009/04/23 10:19:22.9     330    237    -51    407    411  54.3  -7.2  34162  289.60 0855.33
2009/04/23 10:19:23.0     202    204    -48    288    293  44.8  -9.6  34172  289.78 0855.33
2009/04/23 10:19:23.1     174    143    -35    226    229  50.5  -8.8  34160  289.57 0855.33
2009/04/23 10:19:23.2     306     88     89    319    332  73.9  15.6  34188  290.05 0855.33
2009/04/23 10:19:23.3     271    107     24    292    294  68.3   4.9  34172  289.76 0855.33
2009/04/23 10:19:23.4     260    154     85    303    315  59.4  15.8  34166  289.68 0855.33
2009/04/23 10:19:23.5     273    150    -60    312    318  61.2 -11.0  34154  289.46 0855.33
2009/04/23 10:19:23.6     430    207     -2    478    479  64.2  -0.3  34172  289.78 0855.33
2009/04/23 10:19:23.7     502    102     59    513    517  78.5   6.6  34170  289.74 0855.33
2009/04/23 10:19:23.8     397     66    131    403    424  80.5  18.0  34172  289.78 0855.33
2009/04/23 10:19:23.9     291    162    103    334    350  60.8  17.2  34186  290.01 0855.33
2009/04/23 10:19:24.0     228    -10    -45    229    234  92.6 -11.1  34172  289.79 0855.33
2009/04/23 10:19:24.1     251     71    150    261    301  74.1  32.4  34190  290.09 0855.33
2009/04/23 10:19:24.2     283     30     83    285    297  83.9  16.3  34174  289.80 0855.33
2009/04/23 10:19:24.3     239    -26     38    241    245  96.4   9.0  34176  289.83 0855.33
2009/04/23 10:19:24.4     349    116     35    369    371  71.5   5.4  34180  289.91 0855.33
2009/04/23 10:19:24.5     277     86     51    291    296  72.7  10.1  34176  289.83 0855.33
2009/04/23 10:19:24.6     240    -17     92    241    257  94.1  22.0  34180  289.90 0855.33
2009/04/23 10:19:24.7     140   -252    141    289    321 151.0  28.0  34164  289.63 0855.33
2009/04/23 10:19:24.8      95   -300    203    315    374 162.4  35.7  34168  289.72 0855.33
2009/04/23 10:19:24.9      63   -253    176    261    314 166.0  37.3  34174  289.81 0855.33
2009/04/23 10:19:25.0      78   -269    179    281    333 163.9  35.6  34188  290.03 0855.33
2009/04/23 10:19:25.1      97   -203    181    226    289 154.4  42.8  34192  290.10 0855.33
2009/04/23 10:19:25.2     217   -202    201    297    358 132.9  37.4  34180  289.91 0855.33
2009/04/23 10:19:25.3     225   -163    173    278    327 126.0  35.0  34184  289.98 0855.33
2009/04/23 10:19:25.4     220   -213     84    307    319 134.0  15.4  34178  289.86 0855.33
2009/04/23 10:19:25.5     230   -114     83    257    271 116.4  17.9  34176  289.85 0855.33
2009/04/23 10:19:25.6     266   -126     98    295    312 115.3  18.5  34182  289.95 0855.33
2009/04/23 10:19:25.7     227   -130     95    262    278 119.8  20.9  34180  289.90 0855.33
2009/04/23 10:19:25.8     198    -97    108    221    245 116.2  27.8  34174  289.81 0855.33
2009/04/23 10:19:25.9     148   -149    148    211    257 135.2  38.6  34156  289.51 0855.33
2009/04/23 10:19:26.0     237   -203    115    313    333 130.5  21.3  34160  289.56 0855.33
2009/04/23 10:19:26.1     227    -74     65    239    248 108.2  15.3  34154  289.47 0855.33
2009/04/23 10:19:26.2     165   -172    131    239    272 136.1  31.3  34152  289.42 0855.33
2009/04/23 10:19:26.3     169   -170     55    240    247 135.2  12.9  34160  289.58 0855.33
2009/04/23 10:19:26.4     189   -145     25    239    241 127.5   6.1  34164  289.63 0855.33
2009/04/23 10:19:26.5     248   -157     70    294    303 122.4  13.5  34148  289.36 0855.33
2009/04/23 10:19:26.6     130   -223    128    259    288 149.7  28.2  34160  289.58 0855.33
2009/04/23 10:19:26.7       0   -286     30    287    289 180.0   6.1  34172  289.78 0855.33
2009/04/23 10:19:26.8     -18   -246    -44    247    252 184.4 -10.3  34166  289.68 0855.33
2009/04/23 10:19:26.9     -49   -251   -122    256    283 191.1 -31.7  34148  289.36 0855.33
2009/04/23 10:19:27.0     123   -219   -159    252    297 150.6 -39.9  34120  288.90 0855.33
2009/04/23 10:19:27.1     165   -193     12    255    256 139.5   2.9  34144  289.29 0855.33
2009/04/23 10:19:27.2     137   -222     -1    262    263 148.3  -0.3  34130  289.07 0855.33
2009/04/23 10:19:27.3     135    -88    191    162    250 123.3  55.4  34174  289.80 0855.33
2009/04/23 10:19:27.4     111    -18    169    113    203  99.2  63.2  34162  289.62 0855.33
2009/04/23 10:19:27.5     130    -91    124    160    202 125.1  41.7  34152  289.45 0855.33
2009/04/23 10:19:27.6     -73    -34     27     81     86 244.7  18.4  34166  289.67 0855.33
2009/04/23 10:19:27.7      14   -107     96    108    144 172.4  46.4  34166  289.69 0855.33
2009/04/23 10:19:27.8     -84    -86     86    121    148 224.5  39.1  34210  290.43 0855.33
2009/04/23 10:19:27.9    -174   -180     87    251    266 223.9  19.2  34194  290.15 0855.33
2009/04/23 10:19:28.0     -97   -138    129    169    212 215.2  41.4  34154  289.46 0855.33
2009/04/23 10:19:28.1      84    -12    103     85    133  98.4  56.4  34170  289.74 0855.33
2009/04/23 10:19:28.2     279    -92    195    294    352 108.4  36.7  34118  288.86 0855.33
2009/04/23 10:19:28.3     190    -33    217    193    290  99.9  54.0  34118  288.85 0855.33
2009/04/23 10:19:28.4      97    -28    101    102    143 106.4  50.0  34138  289.21 0855.33
2009/04/23 10:19:28.5     181    -85    143    201    246 115.3  38.8  34132  289.09 0855.33
2009/04/23 10:19:28.6     201    -72     73    214    227 109.7  18.9  34132  289.09 0855.33
2009/04/23 10:19:28.7     207    -33     74    210    223  99.2  19.4  34136  289.18 0855.31
2009/04/23 10:19:28.8     166    -31     85    169    189 100.8  28.5  34122  288.94 0855.31
2009/04/23 10:19:28.9      52      0     54     53     75  90.0  49.1  34126  289.01 0855.31
2009/04/23 10:19:29.0     -43    -27     10     52     53 237.6  11.0  34132  289.09 0855.31
2009/04/23 10:19:29.1     -53     -4      2     54     55 265.6   2.8  34128  289.02 0855.31
2009/04/23 10:19:29.2     -31     -8     -1     33     34 254.9  -3.2  34126  288.99 0855.31
2009/04/23 10:19:29.3       3      7      4      8      9  25.4  27.2  34132  289.09 0855.31
2009/04/23 10:19:29.4      58      6     25     59     64  83.9  23.1  34134  289.14 0855.31
2009/04/23 10:19:29.5      99    -14     48    101    111  98.4  27.2  34134  289.14 0855.31
2009/04/23 10:19:29.6     123    -78     26    146    149 122.5  10.1  34134  289.13 0855.31
2009/04/23 10:19:29.7      70   -112     22    133    135 147.9   9.5  34116  288.82 0855.31
2009/04/23 10:19:29.8     109   -173     85    205    221 147.7  23.6  34106  288.67 0855.31
2009/04/23 10:19:29.9      70   -171    147    185    236 157.7  42.7  34104  288.62 0855.31
2009/04/23 10:19:30.0      42   -182    164    187    248 166.9  45.8  34108  288.70 0855.31
2009/04/23 10:19:30.1      44   -248    179    253    309 169.8  38.6  34114  288.80 0855.31
2009/04/23 10:19:30.2     -26   -311    196    313    369 184.9  35.3  34116  288.84 0855.31
2009/04/23 10:19:30.3      24   -317     70    318    326 175.6  12.5  34114  288.80 0855.31
2009/04/23 10:19:30.4     -73   -313    154    322    356 193.1  27.3  34120  288.91 0855.31
2009/04/23 10:19:30.5     -63   -240     87    249    264 194.7  19.4  34122  288.93 0855.31
2009/04/23 10:19:30.7    -185   -278     -6    335    336 213.7  -1.2  34106  288.66 0855.31
2009/04/23 10:19:30.8    -116   -133    105    177    205 221.0  33.5  34124  288.96 0855.29
2009/04/23 10:19:30.9     -80   -118     26    143    146 214.3  10.6  34122  288.92 0855.29
2009/04/23 10:19:31.0    -119    -92     29    151    154 232.2  11.0  34128  289.04 0855.29
2009/04/23 10:19:31.1     -26    -27     57     38     68 223.4  64.6  34134  289.13 0855.29
2009/04/23 10:19:31.2     -78    -36     56     87    103 245.2  35.6  34130  289.06 0855.29
2009/04/23 10:19:31.3     -47      0     83     48     95 270.0  67.2  34142  289.26 0855.29
2009/04/23 10:19:31.4       9    -60     34     61     69 171.1  31.4  34134  289.14 0855.29
2009/04/23 10:19:31.5      57    -93     19    110    112 148.4  10.1  34132  289.09 0855.29
2009/04/23 10:19:31.6      44   -138    -30    145    149 162.2 -11.9  34132  289.11 0855.29
2009/04/23 10:19:31.7       8   -236     46    237    242 178.0  11.1  34124  288.97 0855.29
2009/04/23 10:19:31.8     -16   -219    130    220    255 184.4  33.5  34130  289.07 0855.29
2009/04/23 10:19:31.9     -55   -204     97    212    233 195.1  26.4  34126  289.01 0855.29
2009/04/23 10:19:32.0     -64   -160     84    173    192 201.8  27.3  34132  289.11 0855.29
2009/04/23 10:19:32.1     -42   -115     98    123    157 200.1  42.7  34132  289.11 0855.29
2009/04/23 10:19:32.2      -5    -94    137     95    166 183.1  61.8  34140  289.23 0855.29
2009/04/23 10:19:32.3      11    -56    113     58    127 168.4  70.8  34146  289.35 0855.29
2009/04/23 10:19:32.4      39    -61    116     73    137 147.4  64.7  34140  289.24 0855.29
2009/04/23 10:19:32.5      -5    -23     62     24     66 193.4  78.2  34148  289.38 0855.29
2009/04/23 10:19:32.6      19    -73     79     76    109 164.8  51.2  34138  289.19 0855.29
2009/04/23 10:19:32.7      46   -153     78    160    178 163.1  28.0  34130  289.06 0855.29
2009/04/23 10:19:32.8      65   -134     56    150    160 154.1  21.3  34128  289.04 0855.30
2009/04/23 10:19:32.9      93   -170     38    194    198 151.3  11.1  34124  288.96 0855.30
2009/04/23 10:19:33.0      45   -161     37    168    173 164.4  12.6  34128  289.02 0855.30
2009/04/23 10:19:33.1      32   -134     72    138    155 166.6  29.8  34126  289.01 0855.30
2009/04/23 10:19:33.2      18   -175     90    176    197 174.0  29.3  34126  288.99 0855.30
2009/04/23 10:19:33.3       1   -179    123    180    218 179.5  37.6  34126  288.99 0855.30
2009/04/23 10:19:33.4     -17   -234    148    235    277 184.4  35.5  34126  288.98 0855.30
2009/04/23 10:19:33.5       7    -95    144     96    173 175.6  63.6  34134  289.14 0855.30
2009/04/23 10:19:33.6     -49   -103    127    115    171 205.3  53.3  34130  289.08 0855.30
2009/04/23 10:19:33.7      90    -84     97    124    157 133.1  42.2  34130  289.08 0855.30
2009/04/23 10:19:33.8      76     10     90     77    118  82.1  54.8  34132  289.09 0855.30
2009/04/23 10:19:33.9      49     23    104     55    117  64.7  69.8  34142  289.26 0855.30
2009/04/23 10:19:34.0      20     12     74     24     77  57.6  80.7  34148  289.36 0855.30
2009/04/23 10:19:34.1      92     42    144    102    176  65.6  60.8  34140  289.24 0855.30
2009/04/23 10:19:34.2     -14    -70    114     72    134 191.6  64.7  34138  289.21 0855.30
2009/04/23 10:19:34.3     -16   -114    104    116    155 188.0  46.9  34132  289.09 0855.30
2009/04/23 10:19:34.4      27     -2     96     28    100  94.4  83.3  34138  289.21 0855.30
2009/04/23 10:19:34.5      -2    -59     77     60     97 182.7  57.9  34136  289.16 0855.30
2009/04/23 10:19:34.6      54   -122     31    134    138 155.9  13.2  34128  289.04 0855.30
2009/04/23 10:19:34.7      21   -151     62    153    165 171.9  23.0  34128  289.02 0855.30
2009/04/23 10:19:34.8      34   -128     74    133    152 164.9  31.4  34122  288.94 0855.29
2009/04/23 10:19:34.9      24   -131     17    134    136 169.3   7.5  34120  288.91 0855.29
2009/04/23 10:19:35.0     -34   -127     56    132    143 195.1  24.1  34126  289.01 0855.29
2009/04/23 10:19:35.1     -55   -121     62    134    147 204.5  27.1  34126  289.01 0855.29
2009/04/23 10:19:35.2     -96    -25     31    100    105 255.4  17.3  34136  289.18 0855.29
2009/04/23 10:19:35.3     -64    -12     13     66     68 259.4  11.1  34132  289.11 0855.29
2009/04/23 10:19:35.4     -12    -25     28     28     39 205.4  50.1  34130  289.06 0855.29
2009/04/23 10:19:35.5     -56    -54      6     79     80 226.0   4.4  34130  289.08 0855.29
2009/04/23 10:19:35.6     -65    -57     24     87     91 228.7  15.3  34126  289.01 0855.29
2009/04/23 10:19:35.7    -147     -2     23    148    150 269.1   8.9  34134  289.14 0855.29
2009/04/23 10:19:35.8    -208   -132      9    247    248 237.5   2.1  34136  289.15 0855.29
2009/04/23 10:19:35.9    -149    -12     35    150    155 265.2  13.2  34132  289.09 0855.29
2009/04/23 10:19:36.0    -180    -86    -55    200    208 244.2 -15.4  34130  289.06 0855.29
2009/04/23 10:19:36.1    -227    -19    -58    228    236 265.2 -14.3  34130  289.05 0855.29
2009/04/23 10:19:36.2    -311    -56    -70    317    325 259.7 -12.5  34134  289.14 0855.29
2009/04/23 10:19:36.3    -347    -43    -76    350    359 262.8 -12.3  34132  289.11 0855.29
2009/04/23 10:19:36.4    -349    -54   -112    354    372 261.1 -17.6  34136  289.16 0855.29
2009/04/23 10:19:36.5    -312    -78    -90    322    334 255.8 -20.3  34136  289.15 0855.29
2009/04/23 10:19:36.6    -248    -50    -68    254    263 258.5 -15.0  34134  289.14 0855.29
2009/04/23 10:19:36.7    -234    -74    -44    246    250 252.5 -10.3  34134  289.14 0855.31
2009/04/23 10:19:36.8    -245    -66    -70    254    264 254.9 -15.5  34134  289.12 0855.31
2009/04/23 10:19:36.9    -181    -72    -33    196    199 248.2  -9.8  34128  289.04 0855.31
2009/04/23 10:19:37.0    -168    -34    -50    172    180 258.5 -16.4  34134  289.13 0855.31
2009/04/23 10:19:37.1    -158    -63    -55    171    180 248.0 -18.1  34136  289.16 0855.31
2009/04/23 10:19:37.2    -146    -69    -66    162    174 244.6 -27.8  34132  289.11 0855.31
2009/04/23 10:19:37.3    -163    -87   -109    186    215 241.8 -37.5  34136  289.18 0855.31
2009/04/23 10:19:37.4    -110    -37   -118    117    166 251.4 -54.3  34138  289.21 0855.31
2009/04/23 10:19:37.5    -126    -72   -101    146    177 240.2 -42.4  34142  289.26 0855.31
2009/04/23 10:19:37.6    -238   -173    -59    295    301 234.0 -11.3  34140  289.22 0855.31
2009/04/23 10:19:37.7    -248    -60    -84    256    270 256.3 -18.3  34132  289.10 0855.31
2009/04/23 10:19:37.8    -231    -45    -84    236    251 259.0 -19.7  34136  289.17 0855.31
2009/04/23 10:19:37.9    -181   -159    -75    242    253 228.7 -22.5  34132  289.09 0855.31
2009/04/23 10:19:38.0    -158    -58   -108    169    200 249.6 -40.0  34134  289.14 0855.31
2009/04/23 10:19:38.1     -78   -166    -21    184    186 205.2  -6.7  34132  289.11 0855.31
2009/04/23 10:19:38.2     -98    -77    -73    126    145 231.8 -37.3  34138  289.19 0855.31
2009/04/23 10:19:38.3     -87    -55   -157    104    188 237.6 -68.0  34144  289.30 0855.31
2009/04/23 10:19:38.4     -77   -177   -140    194    239 203.6 -43.9  34138  289.19 0855.31
2009/04/23 10:19:38.5     -98   -207   -180    230    292 205.5 -46.4  34134  289.14 0855.31
2009/04/23 10:19:38.6    -101    -93   -182    138    228 227.3 -63.4  34144  289.30 0855.31
2009/04/23 10:19:38.7     -16    -85   -168     87    189 190.7 -75.0  34142  289.28 0855.31
2009/04/23 10:19:38.8      18   -102   -164    104    194 169.8 -69.1  34140  289.24 0855.31
2009/04/23 10:19:38.9      43   -128   -181    136    226 161.3 -63.6  34144  289.31 0855.31
2009/04/23 10:19:39.0     -62    -38   -152     73    168 238.5 -77.2  34144  289.30 0855.31
2009/04/23 10:19:39.1     -20   -246    -96    247    265 184.7 -26.7  34130  289.07 0855.31
2009/04/23 10:19:39.2      -7   -240    -80    241    253 181.8 -23.8  34134  289.14 0855.31
2009/04/23 10:19:39.3     -31   -152   -105    156    188 191.5 -41.4  34126  289.01 0855.31
2009/04/23 10:19:39.4     -76   -119   -117    142    183 212.5 -48.1  34124  288.96 0855.31
2009/04/23 10:19:39.5    -100   -123   -116    159    196 219.2 -44.1  34132  289.09 0855.31
2009/04/23 10:19:39.6      -6   -159   -149    160    218 182.2 -52.3  34128  289.04 0855.31
2009/04/23 10:19:39.7      46   -191    -98    197    220 166.4 -32.6  34128  289.04 0855.31
2009/04/23 10:19:39.8     105   -239    -14    262    263 156.2  -3.2  34124  288.95 0855.31
2009/04/23 10:19:39.9      24   -251      9    253    254 174.4   2.1  34124  288.97 0855.31
2009/04/23 10:19:40.0     -16   -267    -14    268    269 183.5  -3.1  34124  288.97 0855.31
2009/04/23 10:19:40.1     -44   -265      8    269    270 189.6   1.8  34124  288.95 0855.31
2009/04/23 10:19:40.2     -45   -257     -1    262    263 190.0  -0.3  34124  288.97 0855.31
2009/04/23 10:19:40.3     -54   -218    -37    225    229 194.0  -9.3  34130  289.06 0855.31
2009/04/23 10:19:40.4      45   -184     -2    190    191 166.2  -0.7  34122  288.92 0855.31
2009/04/23 10:19:40.5      81   -167     21    186    188 153.9   6.5  34122  288.94 0855.31
2009/04/23 10:19:40.6     161   -111     51    196    203 124.6  14.7  34122  288.94 0855.31
2009/04/23 10:19:40.7     110   -149     50    186    193 143.5  15.3  34124  288.97 0855.31
2009/04/23 10:19:40.8      84   -194      0    212    213 156.4   0.0  34128  289.02 0855.31
2009/04/23 10:19:40.9      76   -225    -11    238    239 161.3  -2.8  34126  288.98 0855.31
2009/04/23 10:19:41.0      38   -275    -15    278    279 172.0  -3.1  34118  288.87 0855.31
2009/04/23 10:19:41.1       2   -283     -1    284    285 179.5  -0.3  34120  288.90 0855.31
2009/04/23 10:19:41.2      59   -286    -75    293    303 168.2 -14.4  34120  288.88 0855.31
2009/04/23 10:19:41.3      69   -272     36    281    284 165.7   7.5  34122  288.92 0855.31
2009/04/23 10:19:41.4     174   -234     12    292    293 143.3   2.5  34124  288.95 0855.31
2009/04/23 10:19:41.5     -30   -193    -64    196    206 188.9 -23.8  34120  288.91 0855.31
2009/04/23 10:19:41.6      -6   -127    -91    128    157 182.7 -43.5  34124  288.96 0855.31
2009/04/23 10:19:41.7      29   -110    -79    114    138 164.8 -42.4  34120  288.91 0855.31
2009/04/23 10:19:41.8      68    -93    -35    116    121 143.9 -21.7  34126  289.01 0855.31
2009/04/23 10:19:41.9      99   -143    -36    175    179 145.3 -11.9  34122  288.94 0855.31
2009/04/23 10:19:42.0     143   -162    -33    217    220 138.6  -8.8  34120  288.91 0855.31
2009/04/23 10:19:42.1     167    -81    -66    186    198 116.0 -19.7  34122  288.94 0855.31
2009/04/23 10:19:42.2     138    -65      3    153    154 115.2   1.2  34124  288.97 0855.31
2009/04/23 10:19:42.3     180    -25     48    182    189  97.9  15.0  34120  288.91 0855.31
2009/04/23 10:19:42.4     222    -17      3    223    224  94.4   0.8  34122  288.94 0855.31
2009/04/23 10:19:42.5     189    -41     41    194    199 102.4  12.2  34124  288.97 0855.31
2009/04/23 10:19:42.6     180    -53    102    188    213 106.6  31.0  34122  288.92 0855.31
2009/04/23 10:19:42.7     151    -30    107    155    188 101.5  38.0  34126  288.99 0855.31
2009/04/23 10:19:42.8     202    -73    138    215    255 110.0  35.6  34122  288.93 0855.31
2009/04/23 10:19:42.9     183   -163    167    246    297 131.8  37.4  34122  288.93 0855.31
2009/04/23 10:19:43.0     152   -189    175    243    299 141.3  39.5  34124  288.95 0855.31
2009/04/23 10:19:43.1      59   -196    196    205    283 163.1  49.0  34116  288.83 0855.31
2009/04/23 10:19:43.2      48   -159    160    167    231 163.1  48.7  34122  288.92 0855.31
2009/04/23 10:19:43.3      86   -170     86    191    209 153.0  25.9  34120  288.91 0855.31
2009/04/23 10:19:43.4      83   -145     60    168    178 150.1  20.4  34124  288.96 0855.31
2009/04/23 10:19:43.5      34   -169    143    173    224 168.4  43.8  34120  288.91 0855.31
2009/04/23 10:19:43.6      37   -139    146    145    205 164.8  50.1  34122  288.92 0855.31
2009/04/23 10:19:43.7     -56   -212    151    220    266 194.9  37.6  34120  288.90 0855.32
2009/04/23 10:19:43.8     -66   -251    206    260    331 194.9  42.4  34122  288.93 0855.32
2009/04/23 10:19:43.9    -126   -244    114    275    297 207.4  23.6  34118  288.85 0855.32
2009/04/23 10:19:44.0      -6   -137    193    138    237 182.7  61.1  34124  288.96 0855.32
2009/04/23 10:19:44.1     -43   -182    206    188    278 193.4  52.7  34112  288.76 0855.32
2009/04/23 10:19:44.2     -70   -178    189    192    269 201.6  49.9  34112  288.76 0855.32
2009/04/23 10:19:44.3     -28   -215    219    217    308 187.6  50.1  34114  288.80 0855.32
2009/04/23 10:19:44.4      48   -102    152    113    189 154.7  60.0  34118  288.87 0855.32
2009/04/23 10:19:44.5     -13   -127    228    128    261 186.3  68.3  34128  289.04 0855.32
2009/04/23 10:19:44.6     -72   -235    167    246    297 197.2  37.4  34120  288.90 0855.32
2009/04/23 10:19:44.7     -44   -189    145    195    243 193.1  40.4  34124  288.96 0855.32
2009/04/23 10:19:44.8    -124   -179     51    219    225 214.7  13.2  34120  288.91 0855.32
2009/04/23 10:19:44.9    -102   -139    -37    173    178 216.3 -12.2  34118  288.87 0855.32
2009/04/23 10:19:45.0       4   -168     23    169    171 178.6   8.0  34118  288.87 0855.32
2009/04/23 10:19:45.1     -21   -226    174    228    286 185.3  41.4  34114  288.80 0855.32
2009/04/23 10:19:45.2    -110   -190    160    220    272 210.1  39.7  34116  288.81 0855.32
2009/04/23 10:19:45.3     -58   -161    156    172    232 199.8  47.1  34118  288.86 0855.32
2009/04/23 10:19:45.4     -17   -226    134    227    263 184.5  33.5  34116  288.83 0855.32
2009/04/23 10:19:45.5      -3   -184    120    185    220 181.1  35.7  34122  288.92 0855.32
2009/04/23 10:19:45.6      59   -147     55    159    169 158.2  19.2  34114  288.80 0855.32
2009/04/23 10:19:45.7      39   -222    164    226    279 170.0  39.7  34120  288.88 0855.31
2009/04/23 10:19:45.8     -54   -303    156    308    345 190.2  28.9  34120  288.91 0855.31
2009/04/23 10:19:45.9    -103   -270    140    290    322 200.9  27.7  34116  288.81 0855.31
2009/04/23 10:19:46.0     -82   -134     -6    158    159 211.6  -2.2  34116  288.82 0855.31
2009/04/23 10:19:46.1     -61    -78     -2    100    101 218.3  -1.3  34116  288.82 0855.31
2009/04/23 10:19:46.2     -40    -87     79     96    124 204.9  43.7  34120  288.89 0855.31
2009/04/23 10:19:46.3     -11    -60     94     62    112 190.7  64.1  34130  289.06 0855.31
2009/04/23 10:19:46.4      -8   -107     92    108    141 184.5  44.8  34122  288.94 0855.31
2009/04/23 10:19:46.5     -40   -131    136    138    193 196.9  50.2  34128  289.04 0855.31
2009/04/23 10:19:46.6     -86   -121     84    149    171 215.6  31.9  34124  288.96 0855.31
2009/04/23 10:19:46.7     -71    -71     52    101    113 224.7  28.7  34130  289.08 0855.31
2009/04/23 10:19:46.8     -87   -101     57    134    145 221.0  24.1  34120  288.91 0855.31
2009/04/23 10:19:46.9     -23   -250    137    252    286 185.3  31.0  34112  288.76 0855.31
2009/04/23 10:19:47.0     -13   -382    135    383    407 182.0  19.4  34116  288.81 0855.31
2009/04/23 10:19:47.1      44   -409    152    412    439 173.8  21.0  34118  288.85 0855.31
2009/04/23 10:19:47.2      53   -429    113    433    448 172.9  14.6  34124  288.95 0855.31
2009/04/23 10:19:47.3     159   -379     54    412    416 157.2   7.5  34116  288.82 0855.31
2009/04/23 10:19:47.4     230   -378     63    443    448 148.7   8.1  34116  288.82 0855.31
2009/04/23 10:19:47.5     -65   -400      5    406    407 189.3   0.7  34116  288.83 0855.31
2009/04/23 10:19:47.6      92   -441     12    451    452 168.1   1.6  34116  288.82 0855.31
2009/04/23 10:19:47.7      38   -460    143    462    484 175.2  17.3  34120  288.90 0855.31
2009/04/23 10:19:47.8      70   -459    134    465    485 171.3  16.1  34126  288.98 0855.31
2009/04/23 10:19:47.9       6   -442    113    443    458 179.1  14.4  34120  288.90 0855.31
2009/04/23 10:19:48.0     111   -476     67    489    494 166.9   7.9  34130  289.06 0855.31
2009/04/23 10:19:48.1     154   -465    134    490    509 161.6  15.3  34126  289.01 0855.31
2009/04/23 10:19:48.2      81   -385    188    394    436 168.0  27.3  34126  289.00 0855.31
2009/04/23 10:19:48.3     122   -390    174    409    444 162.6  24.5  34128  289.04 0855.31
2009/04/23 10:19:48.4     155   -438     91    465    474 160.5  11.1  34126  289.00 0855.31
2009/04/23 10:19:48.5     143   -478    108    500    512 163.3  12.3  34126  288.98 0855.31
2009/04/23 10:19:48.6     173   -471    102    502    513 159.8  11.5  34130  289.05 0855.31
2009/04/23 10:19:48.7     164   -449     33    479    481 160.0   4.0  34130  289.06 0855.31
2009/04/23 10:19:48.8     170   -453     23    484    485 159.4   2.8  34130  289.08 0855.31
2009/04/23 10:19:48.9     102   -405    113    418    434 165.8  15.2  34128  289.04 0855.31
2009/04/23 10:19:49.0     152   -361     85    392    402 157.2  12.3  34128  289.04 0855.31
2009/04/23 10:19:49.1      83   -426    111    435    450 168.9  14.4  34128  289.04 0855.31
2009/04/23 10:19:49.2      19   -413    176    414    449 177.3  24.5  34128  289.02 0855.31
2009/04/23 10:19:49.3     178   -353    150    396    423 153.2  21.8  34128  289.02 0855.31
2009/04/23 10:19:49.4     316   -291     35    430    432 132.7   4.7  34126  289.00 0855.31
2009/04/23 10:19:49.5     227   -300    131    377    399 142.9  20.0  34126  288.99 0855.31
2009/04/23 10:19:49.6     148   -289    163    325    363 152.8  28.6  34128  289.03 0855.31
2009/04/23 10:19:49.7     155   -272    216    314    381 150.2  37.8  34128  289.04 0855.29
2009/04/23 10:19:49.8     110   -261    220    284    359 157.1  41.7  34128  289.03 0855.29
2009/04/23 10:19:49.9      81   -277    217    289    361 163.7  40.8  34128  289.03 0855.29
2009/04/23 10:19:50.0     163   -198    186    257    317 140.6  39.5  34132  289.10 0855.29
2009/04/23 10:19:50.1     128   -313    236    339    413 157.7  38.4  34136  289.15 0855.29
2009/04/23 10:19:50.2     199   -243    192    315    368 140.6  34.3  34124  288.96 0855.29
2009/04/23 10:19:50.3      95   -285    149    301    335 161.5  28.4  34126  289.00 0855.29
2009/04/23 10:19:50.4     144   -365    112    393    409 158.4  16.0  34122  288.92 0855.29
2009/04/23 10:19:50.5      64   -291    137    299    328 167.5  26.4  34126  288.98 0855.29
2009/04/23 10:19:50.6      75   -205    162    219    272 159.7  39.9  34128  289.03 0855.29
2009/04/23 10:19:50.7      30    -45    157     55    166 145.7  80.2  34134  289.14 0855.29
2009/04/23 10:19:50.8      16    -89    131     91    159 169.3  61.8  34134  289.13 0855.29
2009/04/23 10:19:50.9     103   -159    133    190    231 147.0  38.4  34136  289.18 0855.29
2009/04/23 10:19:51.0      72    -67    132     99    165 133.1  59.4  34140  289.24 0855.29
2009/04/23 10:19:51.1      -7     17    144     19    145 338.2  90.0  34148  289.36 0855.29
2009/04/23 10:19:51.2     -17    -53    134     56    145 198.7  76.6  34132  289.11 0855.29
2009/04/23 10:19:51.3      37   -192    175    196    262 169.1  46.6  34140  289.22 0855.29
2009/04/23 10:19:51.4      17   -124    153    126    198 172.0  56.4  34142  289.28 0855.29
2009/04/23 10:19:51.5       0   -203    172    204    266 180.2  44.3  34138  289.19 0855.29
2009/04/23 10:19:51.6     -42   -183    251    188    313 193.1  59.4  34134  289.12 0855.29
2009/04/23 10:19:51.7     -46   -126    219    135    257 200.1  65.6  34142  289.26 0855.31
2009/04/23 10:19:51.8     -37    -83    149     92    175 204.1  65.1  34146  289.35 0855.31
2009/04/23 10:19:51.9     -51   -154    204    163    261 198.3  57.3  34134  289.12 0855.31
2009/04/23 10:19:52.0    -258   -103    149    279    316 248.2  30.5  34148  289.37 0855.31
2009/04/23 10:19:52.1       0    -90    174     91    196 180.4  70.6  34144  289.30 0855.31
2009/04/23 10:19:52.2     -83   -174    226    194    297 205.6  55.3  34118  288.87 0855.31
2009/04/23 10:19:52.3    -115   -246    262    272    377 205.2  49.0  34142  289.26 0855.31
2009/04/23 10:19:52.4    -163   -336    271    374    461 206.0  39.5  34144  289.29 0855.31
2009/04/23 10:19:52.5    -196   -237    139    308    337 219.7  26.0  34146  289.32 0855.31
2009/04/23 10:19:52.6    -229   -118     93    258    275 242.7  19.9  34182  289.95 0855.31
2009/04/23 10:19:52.7    -170   -165     62    238    246 225.8  14.7  34180  289.92 0855.31
2009/04/23 10:19:52.8    -179    -73     33    194    197 247.8   9.9  34176  289.84 0855.31
2009/04/23 10:19:52.9    -178    -96    -57    203    210 241.6 -20.4  34156  289.50 0855.31
2009/04/23 10:19:53.0    -120   -158     30    199    202 217.4   8.8  34138  289.21 0855.31
2009/04/23 10:19:53.1     -50   -152     57    161    170 198.3  20.0  34128  289.04 0855.31
2009/04/23 10:19:53.2      -4   -168     58    169    179 181.4  19.2  34124  288.96 0855.31
2009/04/23 10:19:53.3     -40   -179     96    184    207 192.7  29.5  34126  288.99 0855.31
2009/04/23 10:19:53.4     -44   -172    124    178    216 194.5  38.4  34128  289.02 0855.31
2009/04/23 10:19:53.5      33   -260    155    263    305 172.7  33.4  34124  288.95 0855.31
2009/04/23 10:19:53.6      -9   -214    112    215    242 182.6  29.8  34122  288.93 0855.31
2009/04/23 10:19:53.7     -43   -209    167    214    271 191.8  42.0  34130  289.07 0855.34
2009/04/23 10:19:53.8     -42   -148    111    154    189 196.0  39.5  34124  288.97 0855.34
2009/04/23 10:19:53.9     -37   -196    153    200    251 190.9  41.2  34122  288.93 0855.34
2009/04/23 10:19:54.0     -60   -189    144    199    245 197.8  39.7  34122  288.94 0855.34
2009/04/23 10:19:54.1     -42   -237    161    241    289 190.2  36.7  34124  288.97 0855.34
2009/04/23 10:19:54.2     -43   -194     93    199    219 192.5  27.1  34124  288.97 0855.34
2009/04/23 10:19:54.3     -31   -202    126    205    240 188.7  34.4  34120  288.91 0855.34
2009/04/23 10:19:54.4      18   -177    123    178    216 174.0  38.0  34122  288.94 0855.34
2009/04/23 10:19:54.5      59   -223    103    231    252 165.1  25.7  34122  288.93 0855.34
2009/04/23 10:19:54.6     -72   -226     87    238    253 197.8  20.7  34116  288.83 0855.34
2009/04/23 10:19:54.7     -60   -222    118    231    259 195.2  29.2  34124  288.95 0855.34
2009/04/23 10:19:54.8     -93   -198    156    219    268 205.2  39.1  34122  288.92 0855.34
2009/04/23 10:19:54.9     -28   -107    170    111    203 194.7  64.1  34124  288.96 0855.34
2009/04/23 10:19:55.0     114     -3    144    115    184  91.7  57.5  34134  289.14 0855.34
2009/04/23 10:19:55.1     178     12    140    179    227  86.1  42.0  34152  289.43 0855.34
2009/04/23 10:19:55.2     195     74     59    209    218  69.2  15.8  34156  289.50 0855.34
2009/04/23 10:19:55.3     205    113     50    235    241  61.2  12.2  34152  289.44 0855.34
2009/04/23 10:19:55.4     180    104    -14    209    210  60.0  -3.9  34140  289.23 0855.34
2009/04/23 10:19:55.5     130      5     25    131    134  87.4  11.1  34128  289.02 0855.34
2009/04/23 10:19:55.6      56    -64    120     86    147 138.6  60.6  34142  289.28 0855.34
2009/04/23 10:19:55.7      11   -150    139    151    205 175.5  47.5  34128  289.04 0855.36
2009/04/23 10:19:55.8     111   -142    142    181    230 142.2  42.2  34128  289.02 0855.36
2009/04/23 10:19:55.9     137   -129    142    189    236 133.1  40.7  34122  288.94 0855.36
2009/04/23 10:19:56.0     152    -97    140    181    228 122.4  41.7  34128  289.04 0855.36
2009/04/23 10:19:56.1     157    -56    123    167    207 109.7  39.9  34128  289.02 0855.36
2009/04/23 10:19:56.2     186   -114     43    219    224 121.5  11.1  34130  289.06 0855.36
2009/04/23 10:19:56.4     144   -204     90    250    265 144.8  20.4  34120  288.88 0855.36
2009/04/23 10:19:56.4      94   -175    138    199    242 151.7  38.0  34116  288.84 0855.36
2009/04/23 10:19:56.5      57   -225    147    233    275 165.7  35.5  34124  288.97 0855.36
2009/04/23 10:19:56.6     131   -227    124    263    290 150.1  27.1  34126  288.98 0855.36
2009/04/23 10:19:56.7     154   -161    132    224    260 136.3  33.4  34124  288.95 0855.36
2009/04/23 10:19:56.8     125   -126    108    178    208 135.2  34.2  34122  288.94 0855.36
2009/04/23 10:19:56.9      50   -135    103    145    177 159.5  39.1  34120  288.91 0855.36
2009/04/23 10:19:57.0      29   -143     99    147    177 168.4  37.3  34122  288.94 0855.36
2009/04/23 10:19:57.1      27   -134     53    137    146 168.5  22.0  34122  288.94 0855.36
2009/04/23 10:19:57.2      -6   -159     55    160    170 182.5  19.2  34124  288.97 0855.36
2009/04/23 10:19:57.4       2   -142     13    143    144 179.1   5.4  34124  288.96 0855.36
2009/04/23 10:19:57.5      11   -141     17    142    144 175.5   6.9  34120  288.89 0855.36
2009/04/23 10:19:57.6      45   -149     24    156    158 163.0   9.0  34120  288.89 0855.36
2009/04/23 10:19:57.7     135   -139     43    194    199 135.9  12.6  34124  288.96 0855.36
2009/04/23 10:19:57.8     109   -167     51    200    207 146.8  14.3  34120  288.89 0855.36
2009/04/23 10:19:57.9      84   -186     52    205    212 155.7  14.3  34118  288.87 0855.36
2009/04/23 10:19:58.0      34   -188     74    192    205 169.8  22.3  34120  288.89 0855.36
2009/04/23 10:19:58.1      16   -107     48    109    119 171.5  25.1  34122  288.94 0855.36
2009/04/23 10:19:58.2      76   -103     51    129    138 143.5  23.0  34122  288.94 0855.36
2009/04/23 10:19:58.3      33   -123     59    128    140 164.8  26.6  34122  288.92 0855.36
2009/04/23 10:19:58.4      21    -93     48     96    107 167.1  27.8  34124  288.96 0855.36
2009/04/23 10:19:58.5       1   -133     66    134    149 179.5  27.8  34130  289.06 0855.36
2009/04/23 10:19:58.6      14   -130     20    131    133 173.7   8.9  34128  289.04 0855.36
2009/04/23 10:19:58.7      70   -177    -53    191    199 158.4 -15.5  34124  288.97 0855.36
2009/04/23 10:19:58.8     168   -200     -5    262    263 139.9  -1.2  34124  288.95 0855.36
2009/04/23 10:19:58.9     116   -189    -28    222    224 148.4  -7.3  34126  288.99 0855.36
2009/04/23 10:19:59.0      77   -218     56    232    239 160.6  13.7  34124  288.95 0855.36
2009/04/23 10:19:59.1      87   -199     77    218    232 156.4  19.4  34122  288.94 0855.36
2009/04/23 10:19:59.2      66   -228    131    238    271 163.7  31.4  34128  289.03 0855.36
2009/04/23 10:19:59.3      11   -181    134    182    226 176.4  39.9  34126  288.99 0855.36
2009/04/23 10:19:59.4     -33   -184    152    188    241 190.2  43.3  34128  289.04 0855.36
2009/04/23 10:19:59.5     -33   -247    104    250    270 187.8  24.1  34128  289.03 0855.36
2009/04/23 10:19:59.6      -3   -222    123    223    254 180.9  31.3  34128  289.02 0855.36
2009/04/23 10:19:59.7    -100   -195    128    220    254 207.2  32.7  34128  289.02 0855.36
2009/04/23 10:19:59.8     -55   -138    102    149    180 201.8  37.8  34128  289.04 0855.36
2009/04/23 10:19:59.9     -66   -116    115    134    176 209.9  45.1  34130  289.06 0855.36
2009/04/23 10:20:00.0     -84    -87     88    122    150 224.1  39.7  34128  289.02 0855.36
2009/04/23 10:20:00.1     -47    -93    100    105    145 207.2  49.0  34132  289.09 0855.36
2009/04/23 10:20:00.2     -49   -106    119    117    166 204.9  50.4  34134  289.14 0855.36
2009/04/23 10:20:00.3     -19    -64    143     67    157 196.9  73.5  34140  289.24 0855.36
2009/04/23 10:20:00.4      16     16     76     24     79  45.0  81.8  34144  289.31 0855.36
2009/04/23 10:20:00.5      -1     58     37     59     69 358.2  35.5  34150  289.40 0855.36
2009/04/23 10:20:00.6     -64      8     46     65     79 277.9  38.6  34154  289.46 0855.36
2009/04/23 10:20:00.7     -58     75    155     96    182 322.2  65.1  34154  289.46 0855.36
2009/04/23 10:20:00.8     -57     62     60     85    104 317.2  38.6  34144  289.30 0855.36
2009/04/23 10:20:00.9      41    -34     76     54     93 129.5  61.1  34148  289.38 0855.36
2009/04/23 10:20:01.0      52    -33     48     62     78 122.4  42.2  34142  289.28 0855.36
2009/04/23 10:20:01.1     104     20    -20    106    108  79.0 -10.9  34148  289.38 0855.36
2009/04/23 10:20:01.2      47     51    -98     70    120  43.2 -65.0  34142  289.28 0855.36
2009/04/23 10:20:01.3      81     64    -70    104    125  51.8 -41.8  34138  289.19 0855.36
2009/04/23 10:20:01.4     117     35    -27    123    126  73.1 -12.4  34138  289.19 0855.36
2009/04/23 10:20:01.5      85     41    -85     95    127  63.8 -50.8  34136  289.18 0855.36
2009/04/23 10:20:01.6      84    -40    -71     94    117 115.3 -45.1  34144  289.31 0855.36
2009/04/23 10:20:01.7      49   -113     12    124    125 156.4   5.9  34138  289.19 0855.36
2009/04/23 10:20:01.8      74   -117     47    139    148 147.5  18.9  34142  289.28 0855.34
2009/04/23 10:20:01.9      38   -116    -41    123    129 161.7 -23.6  34142  289.26 0855.34
2009/04/23 10:20:02.0       0   -116    -79    117    141 180.0 -42.0  34140  289.23 0855.34
2009/04/23 10:20:02.1      21   -170   -108    172    203 172.9 -39.9  34136  289.18 0855.34
2009/04/23 10:20:02.2     -38   -184    -38    189    193 191.8 -11.6  34124  288.96 0855.34
2009/04/23 10:20:02.3    -118   -113    -68    164    177 226.2 -28.0  34130  289.08 0855.34
2009/04/23 10:20:02.4    -125    -90    -22    155    157 234.1  -8.2  34140  289.23 0855.34
2009/04/23 10:20:02.5    -119   -104     19    159    161 228.7   6.9  34162  289.62 0855.34
2009/04/23 10:20:02.6    -101    -83     27    132    135 230.5  11.6  34180  289.92 0855.34
2009/04/23 10:20:02.7    -189      0     82    190    206 270.0  25.1  34178  289.89 0855.34
2009/04/23 10:20:02.8    -173     21     42    175    181 277.0  13.7  34198  290.23 0855.34
2009/04/23 10:20:02.9    -123    -45     73    132    150 250.0  31.4  34158  289.55 0855.34
2009/04/23 10:20:03.0    -135    -74     81    155    174 241.2  29.8  34140  289.23 0855.34
2009/04/23 10:20:03.1    -129    -78     52    151    160 238.9  19.2  34144  289.31 0855.34
2009/04/23 10:20:03.2    -106    -50      5    118    119 244.8   2.8  34166  289.69 0855.34
2009/04/23 10:20:03.3     -50    -53      3     74     75 223.2   2.9  34154  289.46 0855.34
2009/04/23 10:20:03.4       0    -48     36     49     60 180.9  39.7  34166  289.67 0855.34
2009/04/23 10:20:03.5     -38     16     57     42     70 293.5  60.5  34168  289.72 0855.34
2009/04/23 10:20:03.6     -46     40     75     62     97 311.3  56.3  34164  289.65 0855.34
2009/04/23 10:20:03.7    -113     50     65    124    140 294.0  29.8  34152  289.43 0855.33
2009/04/23 10:20:03.8    -128     31     58    132    144 283.7  25.2  34148  289.38 0855.33
2009/04/23 10:20:03.9    -110     28     50    114    124 284.6  25.1  34146  289.35 0855.33
2009/04/23 10:20:04.0    -124     27     56    127    138 282.4  25.1  34154  289.48 0855.33
2009/04/23 10:20:04.1    -106     19     68    108    127 280.6  35.5  34162  289.62 0855.33
2009/04/23 10:20:04.2     -37     40     79     55     96 316.8  62.1  34166  289.69 0855.33
2009/04/23 10:20:04.3     -18     13     72     23     75 306.0  80.7  34172  289.77 0855.33
2009/04/23 10:20:04.4      -6     33     61     34     69 348.5  68.8  34164  289.63 0855.33
2009/04/23 10:20:04.5     -46      0     63     47     78 270.0  59.0  34178  289.89 0855.33
2009/04/23 10:20:04.6     -38    -65     58     76     95 210.7  41.7  34168  289.72 0855.33
2009/04/23 10:20:04.7     -29    -59     24     66     70 206.3  20.0  34170  289.75 0855.33
2009/04/23 10:20:04.8       6    -62      0     63     64 173.8   0.8  34170  289.74 0855.33
2009/04/23 10:20:04.9      56    -38     31     68     74 124.2  27.1  34176  289.84 0855.33
2009/04/23 10:20:05.0      32    -39     45     51     68 140.4  47.9  34182  289.94 0855.33
2009/04/23 10:20:05.1       5    -46     71     47     85 172.9  63.6  34188  290.06 0855.33
2009/04/23 10:20:05.2     -28    -70     53     76     92 201.8  38.0  34184  289.99 0855.33
2009/04/23 10:20:05.3     -18    -26     43     32     53 214.3  59.4  34182  289.94 0855.33
2009/04/23 10:20:05.4     -20     -9     28     23     36 244.7  56.4  34180  289.92 0855.33
2009/04/23 10:20:05.5     -33    -19     20     39     43 239.3  28.2  34180  289.92 0855.33
2009/04/23 10:20:05.6     -73    -10      6     74     75 262.1   4.9  34174  289.80 0855.33
2009/04/23 10:20:05.7    -192    -45    -23    198    200 256.7  -6.9  34154  289.46 0855.33
2009/04/23 10:20:05.8    -166    -42    -11    172    173 255.6  -3.7  34158  289.55 0855.33
2009/04/23 10:20:05.9    -138     -7     43    139    146 267.0  17.3  34166  289.69 0855.33
2009/04/23 10:20:06.0    -178     10     -8    179    180 273.3  -2.8  34158  289.55 0855.33
2009/04/23 10:20:06.1    -175    -14     63    176    186 265.4  20.4  34162  289.60 0855.33
2009/04/23 10:20:06.2    -240    -26      6    242    243 263.6   1.6  34176  289.85 0855.33
2009/04/23 10:20:06.3    -216     37     23    220    222 279.9   6.1  34174  289.82 0855.33
2009/04/23 10:20:06.4    -176      0     14    177    178 269.9   4.6  34168  289.70 0855.33
2009/04/23 10:20:06.5    -216      3      3    217    218 270.8   0.8  34160  289.57 0855.33
2009/04/23 10:20:06.6    -150     30     77    153    171 281.4  28.5  34176  289.84 0855.33
2009/04/23 10:20:06.7    -110    -59     83    126    150 241.6  36.0  34176  289.85 0855.34
2009/04/23 10:20:06.8     -62    -67     81     92    122 223.2  45.9  34172  289.79 0855.34
2009/04/23 10:20:06.9    -130    -49     90    140    166 249.2  35.7  34170  289.74 0855.34
2009/04/23 10:20:07.0    -150    -11     58    151    161 265.6  22.0  34176  289.84 0855.34
2009/04/23 10:20:07.1    -198     47     89    204    222 283.5  25.1  34174  289.80 0855.34
2009/04/23 10:20:07.2    -195     14     50    196    203 274.1  14.5  34166  289.67 0855.34
2009/04/23 10:20:07.3    -161    -53     36    170    174 251.8  12.0  34150  289.40 0855.34
2009/04/23 10:20:07.4    -173    -64     78    185    200 249.6  24.1  34144  289.31 0855.34
2009/04/23 10:20:07.5    -154    -11     57    155    165 265.7  20.7  34150  289.40 0855.34
2009/04/23 10:20:07.6    -133     -6     50    134    143 267.4  21.0  34152  289.45 0855.34
2009/04/23 10:20:07.7    -129      4     66    130    145 272.1  29.2  34158  289.53 0855.34
2009/04/23 10:20:07.8    -152     -8     58    153    163 267.0  21.5  34168  289.70 0855.34
2009/04/23 10:20:07.9    -149     -2     81    150    170 269.2  30.6  34164  289.63 0855.34
2009/04/23 10:20:08.0    -136    -10     46    137    145 265.6  18.9  34166  289.67 0855.34
2009/04/23 10:20:08.1    -140      0     48    141    150 269.6  18.9  34160  289.58 0855.34
2009/04/23 10:20:08.2    -144    -39     53    150    160 254.9  19.4  34170  289.75 0855.34
2009/04/23 10:20:08.3     -96    -79    118    125    171 230.5  48.5  34180  289.91 0855.34
2009/04/23 10:20:08.4     -31    -59     96     67    117 208.1  62.1  34186  290.01 0855.34
2009/04/23 10:20:08.5     -68    -53     82     87    119 231.8  48.5  34186  290.02 0855.34
2009/04/23 10:20:08.6     -75    -98     91    124    153 217.4  39.7  34176  289.85 0855.34
2009/04/23 10:20:08.7     -24    -83    109     87    139 196.5  56.9  34164  289.63 0855.33
2009/04/23 10:20:08.8      -1    -74    107     75    130 180.9  61.5  34176  289.85 0855.33
2009/04/23 10:20:08.9       0    -25    108     26    111 180.9  86.9  34188  290.06 0855.33
2009/04/23 10:20:09.0     -20    -89     99     92    135 192.9  52.2  34176  289.84 0855.33
2009/04/23 10:20:09.1     116     -9    148    117    188  94.8  57.7  34172  289.77 0855.33
2009/04/23 10:20:09.2      43    -45    112     63    128 136.7  68.3  34168  289.70 0855.33
2009/04/23 10:20:09.3     105   -112    117    154    193 136.8  40.9  34158  289.53 0855.33
2009/04/23 10:20:09.4       0    -66    125     67    141 180.0  69.3  34172  289.77 0855.33
2009/04/23 10:20:09.5     -30    -90     73     95    119 198.5  41.7  34158  289.55 0855.33
2009/04/23 10:20:09.6     -34      3     54     35     64 276.1  64.6  34170  289.75 0855.33
2009/04/23 10:20:09.7      49    -60     88     78    117 140.4  53.7  34148  289.36 0855.33
2009/04/23 10:20:09.8      39   -190     93    195    216 168.4  27.3  34134  289.13 0855.33
2009/04/23 10:20:09.9      74   -156    126    173    214 154.4  39.7  34142  289.28 0855.33
2009/04/23 10:20:10.0      35   -172    153    176    233 168.4  45.6  34146  289.35 0855.33
2009/04/23 10:20:10.1      42   -171    121    177    214 166.0  37.6  34152  289.43 0855.33
2009/04/23 10:20:10.2      61   -186     84    196    213 161.7  24.6  34142  289.26 0855.33
2009/04/23 10:20:10.3      78   -231     86    244    259 161.3  19.4  34132  289.10 0855.33
2009/04/23 10:20:10.4      45   -266     79    270    282 170.4  16.4  34134  289.14 0855.33
2009/04/23 10:20:10.5      79   -217     81    232    246 160.0  19.4  34134  289.14 0855.33
2009/04/23 10:20:10.6      44   -195     69    201    213 167.1  19.2  34144  289.30 0855.33
2009/04/23 10:20:10.7     -10   -140     53    141    150 184.5  21.5  34146  289.33 0855.31
2009/04/23 10:20:10.8      -9   -147     39    148    154 183.6  14.7  34136  289.16 0855.31
2009/04/23 10:20:10.9     -39   -176     34    181    185 192.7  10.6  34136  289.18 0855.31
2009/04/23 10:20:11.0     -50   -152     52    161    170 198.5  17.9  34130  289.08 0855.31
2009/04/23 10:20:11.1     -36   -157     73    162    177 192.9  25.9  34136  289.18 0855.31
2009/04/23 10:20:11.2     -37   -158     22    163    165 193.4   8.0  34164  289.63 0855.31
2009/04/23 10:20:11.3     -45   -136     33    144    148 198.3  13.2  34158  289.53 0855.31
2009/04/23 10:20:11.4     -48   -166    113    173    206 196.3  36.0  34164  289.63 0855.31
2009/04/23 10:20:11.5     -51   -268    162    273    317 190.9  33.5  34146  289.34 0855.31
2009/04/23 10:20:11.6     -63   -288     97    295    311 192.4  18.2  34162  289.59 0855.31
2009/04/23 10:20:11.7     -97   -229     36    249    252 202.9   8.2  34186  290.02 0855.31
2009/04/23 10:20:11.8    -169   -231    101    287    304 216.1  20.0  34168  289.70 0855.31
2009/04/23 10:20:11.9    -187   -170    123    253    281 227.7  27.8  34158  289.54 0855.31
2009/04/23 10:20:12.0    -158   -226     60    276    283 215.0  12.4  34140  289.24 0855.31
2009/04/23 10:20:12.1    -148   -302     78    337    346 206.1  13.1  34146  289.32 0855.31
2009/04/23 10:20:12.2    -119   -233     -9    262    263 207.2  -2.1  34160  289.56 0855.31
2009/04/23 10:20:12.3     -47   -303     72    307    316 188.9  13.3  34146  289.32 0855.31
2009/04/23 10:20:12.4     -74   -359    -47    367    371 191.7  -7.4  34162  289.59 0855.31
2009/04/23 10:20:12.5     -94   -305   -111    320    338 197.2 -24.3  34168  289.72 0855.31
2009/04/23 10:20:12.6    -157   -269   -179    312    359 210.3 -37.0  34152  289.43 0855.31
2009/04/23 10:20:12.7    -101   -326   -103    342    357 197.2 -21.7  34146  289.32 0855.30
2009/04/23 10:20:12.8      23   -303    -44    304    308 175.6  -8.2  34134  289.12 0855.30
2009/04/23 10:20:12.9     -16   -280     -1    281    282 183.4  -0.3  34130  289.05 0855.30
2009/04/23 10:20:13.0     -21   -277     45    278    282 184.4   9.3  34132  289.09 0855.30
2009/04/23 10:20:13.1     -95   -354     28    367    368 195.0   4.4  34128  289.03 0855.30
2009/04/23 10:20:13.2    -119   -269    -48    295    300 203.8  -9.3  34122  288.92 0855.30
2009/04/23 10:20:13.3      -4   -281     15    282    283 180.9   3.1  34130  289.05 0855.30
2009/04/23 10:20:13.4     -54   -248      4    254    255 192.4   1.0  34130  289.07 0855.30
2009/04/23 10:20:13.5     -36   -263    -43    266    270 187.8  -9.3  34130  289.05 0855.30
2009/04/23 10:20:13.6     -76   -235      6    248    249 198.0   1.6  34130  289.05 0855.30
2009/04/23 10:20:13.7    -111   -335     68    354    361 198.4  11.0  34128  289.04 0855.30
2009/04/23 10:20:13.8     -37   -292    115    295    316 187.3  22.4  34128  289.03 0855.30
2009/04/23 10:20:13.9      29   -230    124    232    263 172.7  30.6  34134  289.12 0855.30
2009/04/23 10:20:14.0      33   -196    164    199    257 170.4  43.7  34136  289.17 0855.30
2009/04/23 10:20:14.1      58   -255    203    262    331 167.1  41.5  34132  289.10 0855.30
2009/04/23 10:20:14.2      21   -280    206    281    348 175.6  39.8  34134  289.12 0855.30
2009/04/23 10:20:14.3     130   -313     42    339    342 157.4   7.1  34128  289.04 0855.30
2009/04/23 10:20:14.4     159   -312    108    351    368 152.9  17.2  34128  289.03 0855.30
2009/04/23 10:20:14.5     123   -314    163    338    375 158.5  27.3  34126  288.98 0855.30
2009/04/23 10:20:14.6      55   -324    206    329    388 170.3  35.3  34124  288.96 0855.30
2009/04/23 10:20:14.7     118   -295    210    318    381 158.2  36.5  34130  289.08 0855.28
2009/04/23 10:20:14.8      33   -243    275    246    368 172.2  53.7  34136  289.15 0855.28
2009/04/23 10:20:14.9      46   -358    306    362    474 172.6  44.5  34136  289.16 0855.28
2009/04/23 10:20:15.0     -24   -312    247    314    399 184.5  42.2  34136  289.16 0855.28
2009/04/23 10:20:15.1     -74   -312    130    321    346 193.4  23.2  34132  289.10 0855.28
2009/04/23 10:20:15.2     -96   -321    112    336    355 196.6  18.4  34130  289.08 0855.28
2009/04/23 10:20:15.3     -89   -346    143    358    385 194.5  23.0  34128  289.04 0855.28
2009/04/23 10:20:15.4    -133   -332     81    358    368 201.9  12.8  34132  289.11 0855.28
2009/04/23 10:20:15.5    -141   -391     44    416    419 199.9   6.1  34130  289.07 0855.28
2009/04/23 10:20:15.6     -48   -345    142    349    376 188.0  23.2  34132  289.11 0855.28
2009/04/23 10:20:15.7       4   -277    137    278    309 179.1  28.0  34136  289.15 0855.28
2009/04/23 10:20:15.8      30   -215     96    218    238 171.9  25.2  34138  289.19 0855.28
2009/04/23 10:20:15.9     -46   -296     57    300    306 188.9  10.8  34134  289.14 0855.28
2009/04/23 10:20:16.0     -80   -417     44    425    428 190.9   6.0  34134  289.14 0855.28
2009/04/23 10:20:16.1     -10   -322     83    323    334 181.8  14.4  34136  289.16 0855.28
2009/04/23 10:20:16.2     161   -282     66    325    332 150.2  11.5  34136  289.15 0855.28
2009/04/23 10:20:16.3     222   -241    127    328    351 137.4  22.3  34122  288.93 0855.28
2009/04/23 10:20:16.4      33   -272    190    275    334 172.9  38.3  34128  289.03 0855.28
2009/04/23 10:20:16.5      70   -255    220    265    344 164.6  43.8  34132  289.09 0855.28
2009/04/23 10:20:16.6      61   -245    160    253    299 165.8  35.5  34128  289.03 0855.28
2009/04/23 10:20:16.7      61   -187     99    197    220 161.7  28.7  34130  289.06 0855.26
2009/04/23 10:20:16.8      34   -182     38    186    190 169.3  11.6  34128  289.02 0855.26
2009/04/23 10:20:16.9      68   -165     18    179    180 157.5   5.9  34130  289.06 0855.26
2009/04/23 10:20:17.0      94   -169    -13    194    195 151.0  -3.9  34126  289.01 0855.26
2009/04/23 10:20:17.1      85   -167    -19    188    190 153.0  -6.0  34132  289.09 0855.26
2009/04/23 10:20:17.2     112    -81    -49    139    148 126.0 -19.7  34136  289.18 0855.26
2009/04/23 10:20:17.3     172    -56     -5    182    183 108.2  -1.6  34132  289.09 0855.26
2009/04/23 10:20:17.4     125   -143    -36    190    194 138.8 -10.9  34130  289.08 0855.26
2009/04/23 10:20:17.5      81    -98    -57    128    140 140.3 -29.6  34132  289.09 0855.26
2009/04/23 10:20:17.6     102    -55    -36    117    122 118.4 -21.8  34138  289.19 0855.26
2009/04/23 10:20:17.7      84      0    -41     85     94  90.0 -31.7  34138  289.19 0855.26
2009/04/23 10:20:17.8      79     -6      0     80     81  94.4  -0.3  34136  289.16 0855.26
2009/04/23 10:20:17.9      47    -14     34     50     60 106.8  37.6  34142  289.26 0855.26
2009/04/23 10:20:18.0      87     -6     51     88    101  94.4  32.4  34138  289.21 0855.26
2009/04/23 10:20:18.1      79    -20     63     82    103 104.6  41.7  34144  289.31 0855.26
2009/04/23 10:20:18.2      47    -29     75     56     93 121.5  59.4  34146  289.35 0855.26
2009/04/23 10:20:18.3      51    -31    101     60    117 121.5  66.2  34150  289.41 0855.26
2009/04/23 10:20:18.4      55    -32     80     64    102 120.7  56.9  34154  289.46 0855.26
2009/04/23 10:20:18.5     -12     -8     54     15     56 237.6  83.9  34154  289.48 0855.26
2009/04/23 10:20:18.6     -25    -74    115     79    139 198.7  62.6  34142  289.26 0855.26
2009/04/23 10:20:18.7     -34    -31    108     47    117 227.8  75.0  34150  289.41 0855.26
2009/04/23 10:20:18.8    -120    -76    -39    143    149 237.5 -15.4  34140  289.23 0855.26
2009/04/23 10:20:18.9     -44    -61     43     76     87 216.1  32.4  34142  289.26 0855.26
2009/04/23 10:20:19.0     118     24    162    121    202  78.5  59.8  34146  289.35 0855.26
2009/04/23 10:20:19.1      -2   -104    187    105    214 181.4  68.5  34148  289.38 0855.26
2009/04/23 10:20:19.3      55   -139    216    150    262 158.2  61.8  34144  289.30 0855.26
2009/04/23 10:20:19.3      91    -86    172    126    213 133.6  60.5  34146  289.35 0855.26
2009/04/23 10:20:19.4      -6    -89    191     90    211 184.0  73.1  34148  289.36 0855.26
2009/04/23 10:20:19.5     -19   -161    127    163    206 186.9  42.0  34142  289.26 0855.26
2009/04/23 10:20:19.6     -29   -122    144    126    191 193.4  54.3  34138  289.21 0855.26
2009/04/23 10:20:19.7     -59   -150      8    162    163 201.4   2.9  34140  289.23 0855.26
2009/04/23 10:20:19.8     -87   -137    -10    163    164 212.5  -3.7  34138  289.21 0855.26
2009/04/23 10:20:19.9     -80   -118    -43    143    149 214.2 -21.8  34140  289.24 0855.26
2009/04/23 10:20:20.0     -52   -109    -61    121    135 205.5 -33.1  34140  289.23 0855.26
2009/04/23 10:20:20.1     -19   -106    -12    108    109 190.2  -6.7  34138  289.19 0855.26
2009/04/23 10:20:20.2       0   -164    -39    165    170 180.0 -13.4  34138  289.21 0855.26
2009/04/23 10:20:20.3      31   -175    -42    178    183 169.8 -13.4  34140  289.23 0855.26
2009/04/23 10:20:20.5      62   -155    -13    168    169 158.2  -4.6  34140  289.24 0855.26
2009/04/23 10:20:20.5      66   -101     14    121    122 146.6   6.9  34140  289.24 0855.26
2009/04/23 10:20:20.6      10    -74     -4     75     76 172.0  -3.2  34142  289.26 0855.26
2009/04/23 10:20:20.7      30    -23    -18     38     42 127.8 -31.6  34142  289.28 0855.28
2009/04/23 10:20:20.8      27      9    -16     29     33  71.4 -35.8  34146  289.35 0855.28
2009/04/23 10:20:20.9      40     59     -3     72     73  34.3  -3.1  34142  289.26 0855.28
2009/04/23 10:20:21.0     110     70     77    131    151  57.5  33.5  34140  289.24 0855.28
2009/04/23 10:20:21.1      60     95     46    113    122  32.6  23.0  34140  289.24 0855.28
2009/04/23 10:20:21.2      62      9    121     63    136  81.2  70.8  34148  289.36 0855.28
2009/04/23 10:20:21.3     -37     51     55     64     84 323.9  45.8  34148  289.36 0855.28
2009/04/23 10:20:21.4      32     63     59     71     92  27.2  43.8  34142  289.28 0855.28
2009/04/23 10:20:21.5     -48    -57     95     75    121 220.5  57.9  34136  289.16 0855.28
2009/04/23 10:20:21.7     -50   -202    212    209    297 194.0  50.2  34132  289.10 0855.28
2009/04/23 10:20:21.7     -81   -127    204    151    253 212.5  60.3  34138  289.19 0855.28
2009/04/23 10:20:21.8      92   -178    100    201    224 152.6  28.5  34132  289.09 0855.28
2009/04/23 10:20:21.9       2   -196     42    197    202 179.3  12.0  34124  288.97 0855.28
2009/04/23 10:20:22.0     -20   -184    170    186    251 186.2  47.1  34134  289.13 0855.28
2009/04/23 10:20:22.1     125   -124     85    177    196 134.8  27.3  34132  289.11 0855.28
2009/04/23 10:20:22.2     -12   -127    -81    128    151 185.8 -39.9  34128  289.04 0855.28
2009/04/23 10:20:22.3     -16   -196    -86    197    214 184.7 -29.5  34130  289.08 0855.28
2009/04/23 10:20:22.4      25   -147    -69    150    165 170.3 -30.8  34130  289.08 0855.28
2009/04/23 10:20:22.5     116   -133    -86    177    196 139.0 -31.8  34134  289.13 0855.28
2009/04/23 10:20:22.6     115   -126    -73    171    185 137.5 -29.0  34132  289.09 0855.28
2009/04/23 10:20:22.7     169    -93    -66    193    205 118.9 -19.1  34134  289.14 0855.28
2009/04/23 10:20:22.9     163   -105      0    195    196 122.9  -0.3  34136  289.18 0855.28
2009/04/23 10:20:22.9     108    -99     -8    147    148 132.7  -3.1  34138  289.21 0855.28
2009/04/23 10:20:23.0     140    -82     65    163    175 120.2  23.0  34134  289.14 0855.28
2009/04/23 10:20:23.2     227     -3    198    228    301  90.9  45.8  34134  289.14 0855.28
2009/04/23 10:20:23.2     226     35    190    229    297  81.0  43.8  34140  289.22 0855.28
2009/04/23 10:20:23.3     191     28    164    194    254  81.4  44.5  34140  289.22 0855.28
2009/04/23 10:20:23.4     354    -27    112    355    373  94.4  17.5  34136  289.18 0855.28
2009/04/23 10:20:23.6     124   -284    118    311    332 156.4  21.7  34136  289.15 0855.28
2009/04/23 10:20:23.7     107   -406    118    420    437 165.2  15.8  34134  289.14 0855.28
2009/04/23 10:20:23.8     276   -388     19    477    478 144.6   2.4  34130  289.05 0855.28
2009/04/23 10:20:23.9     110   -284    106    305    324 158.8  19.2  34124  288.97 0855.28
2009/04/23 10:20:24.0     109   -315    124    334    356 160.8  21.3  34128  289.04 0855.28
2009/04/23 10:20:24.1     110   -371    125    387    407 163.5  18.0  34128  289.03 0855.28
2009/04/23 10:20:24.2      72   -328    136    336    362 167.6  23.2  34130  289.08 0855.28
2009/04/23 10:20:24.3      12   -229    118    230    258 176.9  29.3  34128  289.03 0855.28
2009/04/23 10:20:24.4     127   -111    218    169    275 131.1  58.4  34134  289.14 0855.28
2009/04/23 10:20:24.5     195   -178    115    265    288 132.3  25.1  34138  289.19 0855.28
2009/04/23 10:20:24.6      80   -279    164    291    334 164.0  31.7  34140  289.22 0855.28
2009/04/23 10:20:24.7      45   -244     88    249    264 169.4  20.0  34138  289.19 0855.28
2009/04/23 10:20:24.8      40   -233    167    237    289 170.2  38.6  34136  289.15 0855.30
2009/04/23 10:20:24.9       0   -127    141    128    190 180.4  53.0  34138  289.21 0855.30
2009/04/23 10:20:25.0      19     -1     82     20     84  94.4  85.9  34146  289.33 0855.30
2009/04/23 10:20:25.1      25     51     32     57     65  26.3  31.4  34146  289.33 0855.30
2009/04/23 10:20:25.2      19     43     -1     48     49  24.5  -2.2  34154  289.46 0855.30
2009/04/23 10:20:25.3      30     13    -10     33     34  66.5 -23.8  34150  289.41 0855.30
2009/04/23 10:20:25.4     -15    -87    -32     89     94 189.8 -23.8  34142  289.28 0855.30
2009/04/23 10:20:25.5      60    -28    -31     67     73 115.2 -31.5  34140  289.24 0855.30
2009/04/23 10:20:25.6      39    -38    -46     55     71 134.1 -48.2  34142  289.26 0855.30
2009/04/23 10:20:25.7      13   -131    -12    132    133 174.2  -5.2  34134  289.13 0855.30
2009/04/23 10:20:25.8     -26    -52     86     59    104 207.2  62.6  34142  289.26 0855.30
2009/04/23 10:20:25.9       2      7     58      8     58  18.5  90.0  34146  289.35 0855.30
2009/04/23 10:20:26.0      44     27     41     52     66  58.5  42.7  34148  289.36 0855.30
2009/04/23 10:20:26.1      65     37     91     76    118  60.2  55.8  34148  289.36 0855.30
2009/04/23 10:20:26.2      86     71     59    112    126  50.4  29.8  34142  289.28 0855.30
2009/04/23 10:20:26.3     192      0     81    193    209  90.0  24.3  34134  289.14 0855.30
2009/04/23 10:20:26.4     249     33    100    252    271  82.3  23.0  34132  289.10 0855.30
2009/04/23 10:20:26.5     122    -94     73    155    171 127.8  27.1  34136  289.18 0855.30
2009/04/23 10:20:26.6      80   -179     73    197    210 155.9  21.0  34124  288.97 0855.30
2009/04/23 10:20:26.7     144   -217     87    261    276 146.4  18.4  34130  289.07 0855.30
2009/04/23 10:20:26.8     204   -253     -7    326    327 141.2  -1.3  34128  289.03 0855.30
2009/04/23 10:20:26.9     165   -210    -28    268    270 141.9  -6.0  34118  288.87 0855.30
2009/04/23 10:20:27.0     136   -221     -2    260    261 148.4  -0.5  34120  288.90 0855.30
2009/04/23 10:20:27.1       0   -172    100    173    199 180.2  32.7  34128  289.02 0855.30
2009/04/23 10:20:27.2     -66   -199    117    210    240 198.5  31.4  34136  289.18 0855.30
2009/04/23 10:20:27.3     -38   -192    140    196    240 191.3  38.8  34132  289.11 0855.30
2009/04/23 10:20:27.4     -66   -169    180    182    255 201.6  50.0  34132  289.10 0855.30
2009/04/23 10:20:27.5     154   -130    137    202    244 130.2  37.4  34134  289.13 0855.30
2009/04/23 10:20:27.6     -16   -320     58    321    327 183.0  10.2  34134  289.12 0855.30
2009/04/23 10:20:27.7      22   -349     32    350    352 176.3   5.3  34136  289.16 0855.30
2009/04/23 10:20:27.8     116   -287    -32    310    312 157.9  -5.9  34134  289.14 0855.29
2009/04/23 10:20:27.9      97   -156    -49    184    191 148.1 -15.0  34132  289.11 0855.29
2009/04/23 10:20:28.0      17   -160    -59    161    171 173.8 -25.4  34134  289.13 0855.29
2009/04/23 10:20:28.1      26   -101    -90    105    138 165.3 -49.8  34134  289.13 0855.29
2009/04/23 10:20:28.2      28    -70    -86     76    114 158.1 -58.1  34134  289.14 0855.29
2009/04/23 10:20:28.3      96      1     26     97    101  89.2  15.2  34134  289.14 0855.29
2009/04/23 10:20:28.4     145     27    150    148    210  79.4  50.1  34136  289.18 0855.29
2009/04/23 10:20:28.5      36      8     77     38     85  76.7  71.9  34148  289.36 0855.29
2009/04/23 10:20:28.6     122    -10     91    123    153  94.8  39.7  34132  289.11 0855.29
2009/04/23 10:20:28.7     164    -31     81    167    185 100.8  27.4  34128  289.02 0855.29
2009/04/23 10:20:28.8     124     25      0    127    128  78.5   0.2  34134  289.13 0855.29
2009/04/23 10:20:28.9      48    -58     33     76     82 140.4  24.6  34132  289.11 0855.29
2009/04/23 10:20:29.0     -18    -92     41     94    102 191.6  24.6  34134  289.14 0855.29
2009/04/23 10:20:29.1      82    -84     41    118    126 135.5  19.4  34132  289.09 0855.29
2009/04/23 10:20:29.2       8    -70     25     71     76 172.9  19.4  34130  289.08 0855.29
2009/04/23 10:20:29.3      54    -21      7     59     60 111.7   6.9  34136  289.18 0855.29
2009/04/23 10:20:29.4     151     43     18    158    160  74.1   6.7  34132  289.11 0855.29
2009/04/23 10:20:29.5     235     77     12    248    249  71.8   2.9  34126  289.00 0855.29
2009/04/23 10:20:29.6     143    -47    162    151    221 108.2  52.2  34134  289.13 0855.29
2009/04/23 10:20:29.7     343    -51     17    347    348  98.5   2.9  34126  288.98 0855.29
2009/04/23 10:20:29.8      55   -140     39    151    157 158.6  14.7  34120  288.91 0855.28
2009/04/23 10:20:29.9      13   -320    244    321    403 177.5  41.2  34122  288.93 0855.28
2009/04/23 10:20:30.0      88   -321    237    333    408 164.6  39.0  34128  289.04 0855.28
2009/04/23 10:20:30.1     153   -402    303    431    526 159.2  38.6  34116  288.83 0855.28
2009/04/23 10:20:30.2     208   -284    185    353    398 143.7  30.0  34116  288.82 0855.28
2009/04/23 10:20:30.3     197   -240    148    311    344 140.6  27.2  34116  288.81 0855.28
2009/04/23 10:20:30.4     280   -100     19    298    299 109.7   3.8  34128  289.03 0855.28
2009/04/23 10:20:30.5     232   -221     17    321    322 133.6   3.1  34124  288.97 0855.28
2009/04/23 10:20:30.6     352   -273    148    446    471 127.9  18.4  34122  288.94 0855.28
2009/04/23 10:20:30.7     294   -156    183    334    380 118.0  31.3  34122  288.93 0855.28
2009/04/23 10:20:30.8     186    -13    215    187    284  94.1  54.6  34132  289.09 0855.28
2009/04/23 10:20:30.9     246     46     91    251    268  79.4  19.9  34128  289.03 0855.28
2009/04/23 10:20:31.0     235     53     71    241    252  77.2  16.4  34126  289.00 0855.28
2009/04/23 10:20:31.1     231    -76     -9    244    245 108.2  -2.2  34126  289.00 0855.28
2009/04/23 10:20:31.2     140   -161     80    214    228 138.8  21.3  34128  289.02 0855.28
2009/04/23 10:20:31.3      91   -175     94    198    219 152.4  27.2  34130  289.06 0855.28
2009/04/23 10:20:31.4     172   -153    104    231    253 131.8  26.2  34126  289.00 0855.28
2009/04/23 10:20:31.5     276   -250    165    373    407 132.1  25.6  34116  288.84 0855.28
2009/04/23 10:20:31.6     276   -319    175    423    457 139.1  23.7  34116  288.82 0855.28
2009/04/23 10:20:31.7     264   -338    112    429    444 142.0  14.7  34118  288.85 0855.28
2009/04/23 10:20:31.8     207   -325    172    386    422 147.4  25.8  34120  288.90 0855.27
2009/04/23 10:20:31.9     117   -281    173    305    350 157.3  32.1  34116  288.82 0855.27
2009/04/23 10:20:32.0     103   -237    146    259    297 156.4  31.6  34120  288.88 0855.27
2009/04/23 10:20:32.1     118   -270    182    295    346 156.4  34.8  34122  288.93 0855.27
2009/04/23 10:20:32.2     235   -220     72    323    332 133.1  12.6  34124  288.95 0855.27
2009/04/23 10:20:32.3     269   -270     81    382    391 135.1  12.0  34120  288.91 0855.27
2009/04/23 10:20:32.4     229   -276    192    359    407 140.3  30.3  34120  288.88 0855.27
2009/04/23 10:20:32.5     244   -195    117    313    334 128.6  21.5  34122  288.93 0855.27
2009/04/23 10:20:32.6     187   -175    -56    257    264 133.1 -12.4  34126  288.98 0855.27
2009/04/23 10:20:32.7     103   -235    -32    257    260 156.3  -7.2  34124  288.95 0855.27
2009/04/23 10:20:32.8     113   -354    102    372    386 162.3  15.4  34116  288.84 0855.27
2009/04/23 10:20:32.9     118   -357    133    377    400 161.7  19.5  34126  289.01 0855.27
2009/04/23 10:20:33.0     201   -310     28    370    371 147.0   4.4  34122  288.93 0855.27
2009/04/23 10:20:33.1     223   -338      5    406    407 146.6   0.8  34122  288.94 0855.27
2009/04/23 10:20:33.2     169   -377    115    414    430 155.9  15.6  34128  289.02 0855.27
2009/04/23 10:20:33.3     227   -411    101    470    481 151.1  12.2  34124  288.96 0855.27
2009/04/23 10:20:33.4     209   -351    125    409    428 149.2  17.1  34128  289.02 0855.27
2009/04/23 10:20:33.5     295   -280     40    407    410 133.5   5.7  34128  289.04 0855.27
2009/04/23 10:20:33.6     157   -285     80    326    336 151.1  13.9  34126  289.01 0855.27
2009/04/23 10:20:33.7     222   -342    111    408    424 147.0  15.3  34122  288.94 0855.27
2009/04/23 10:20:33.8     275   -307    150    413    439 138.1  20.9  34128  289.04 0855.25
2009/04/23 10:20:33.9     245   -302    207    390    441 140.9  30.2  34126  288.99 0855.25
2009/04/23 10:20:34.0     167   -335    197    375    423 153.4  30.1  34128  289.02 0855.25
2009/04/23 10:20:34.1     117   -254    247    280    373 155.3  45.9  34136  289.15 0855.25
2009/04/23 10:20:34.2     177   -306    103    354    369 150.0  16.3  34130  289.06 0855.25
2009/04/23 10:20:34.3     142   -257    143    294    326 151.0  27.8  34128  289.02 0855.25
2009/04/23 10:20:34.4     152   -169     12    228    229 138.1   3.1  34124  288.97 0855.25
2009/04/23 10:20:34.5     110   -172     23    205    207 147.4   6.5  34130  289.08 0855.25
2009/04/23 10:20:34.6     153   -153      4    217    218 134.9   1.2  34130  289.06 0855.25
2009/04/23 10:20:34.7      83   -113    -21    141    143 143.5  -8.8  34128  289.02 0855.25
2009/04/23 10:20:34.8     107    -59     -2    123    124 118.9  -1.2  34128  289.04 0855.25
2009/04/23 10:20:34.9     150    -88    -43    174    180 120.4 -13.9  34130  289.06 0855.25
2009/04/23 10:20:35.0     145    -20     34    147    151  98.0  13.1  34130  289.08 0855.25
2009/04/23 10:20:35.1     131    -46     -7    140    141 109.5  -3.2  34132  289.11 0855.25
2009/04/23 10:20:35.2      85    -64    -29    107    112 126.9 -15.4  34136  289.18 0855.25
2009/04/23 10:20:35.3      99    -19     19    101    103 101.0  11.1  34134  289.14 0855.25
2009/04/23 10:20:35.4     145    -69    -56    161    171 115.4 -19.4  34134  289.14 0855.25
2009/04/23 10:20:35.5     155    -66    -58    169    179 113.1 -19.1  34136  289.16 0855.25
2009/04/23 10:20:35.6     196    -36    -11    200    201 100.4  -3.2  34136  289.18 0855.25
2009/04/23 10:20:35.7     217    -49     14    223    224 102.8   3.8  34136  289.16 0855.25
2009/04/23 10:20:35.8     218    -68     34    229    232 107.3   8.5  34142  289.26 0855.24
2009/04/23 10:20:35.9     197   -125     78    234    247 122.5  18.4  34136  289.17 0855.24
2009/04/23 10:20:36.0     112   -221    102    248    268 153.0  23.6  34134  289.12 0855.24
2009/04/23 10:20:36.1       0   -169    150    170    226 180.0  45.9  34134  289.14 0855.24
2009/04/23 10:20:36.2     103   -218    139    242    279 154.7  32.4  34130  289.07 0855.24
2009/04/23 10:20:36.3     144   -225    132    268    298 147.4  28.2  34130  289.07 0855.24
2009/04/23 10:20:36.4     184   -213    108    282    301 139.2  22.0  34130  289.05 0855.24
2009/04/23 10:20:36.5     216   -216     53    306    311 134.9   9.9  34132  289.10 0855.24
2009/04/23 10:20:36.6     160   -269    115    314    334 149.2  21.0  34122  288.93 0855.24
2009/04/23 10:20:36.7     209   -294    138    361    386 144.6  22.0  34126  288.99 0855.24
2009/04/23 10:20:36.8     137   -176     97    224    244 142.2  24.9  34128  289.03 0855.24
2009/04/23 10:20:36.9      87   -243    111    259    281 160.2  24.6  34126  288.98 0855.24
2009/04/23 10:20:37.0      96   -369     89    382    393 165.3  13.2  34136  289.15 0855.24
2009/04/23 10:20:37.1     193   -388    107    434    448 153.5  13.9  34132  289.09 0855.24
2009/04/23 10:20:37.2     220   -380    165    440    469 149.9  21.5  34130  289.05 0855.24
2009/04/23 10:20:37.3     253   -337    242    422    486 143.0  32.6  34126  289.00 0855.24
2009/04/23 10:20:37.4     258   -228    185    345    391 131.6  30.5  34132  289.10 0855.24
2009/04/23 10:20:37.5     180   -265    155    321    356 145.8  27.8  34138  289.21 0855.24
2009/04/23 10:20:37.6     127   -296    102    323    339 156.8  17.5  34138  289.21 0855.24
2009/04/23 10:20:37.7     115   -241     52    268    273 154.5  11.0  34138  289.19 0855.24
2009/04/23 10:20:37.8       0   -190    150    191    242 180.2  42.0  34134  289.14 0855.25
2009/04/23 10:20:37.9     -18   -164    127    166    209 186.5  41.4  34140  289.23 0855.25
2009/04/23 10:20:38.0      17   -141    174    143    225 172.9  56.4  34150  289.40 0855.25
2009/04/23 10:20:38.1      20    -73     81     76    111 164.0  52.1  34150  289.40 0855.25
2009/04/23 10:20:38.2     -22   -199    -25    201    203 186.5  -7.3  34138  289.19 0855.25
2009/04/23 10:20:38.3     -31   -243    -21    245    247 187.3  -5.1  34136  289.15 0855.25
2009/04/23 10:20:38.4    -112   -238    -28    264    266 205.3  -6.1  34136  289.15 0855.25
2009/04/23 10:20:38.5     -89   -232   -107    249    271 201.2 -29.3  34136  289.15 0855.25
2009/04/23 10:20:38.6    -117   -247   -156    274    315 205.5 -36.7  34142  289.27 0855.25
2009/04/23 10:20:38.7     -32   -120   -205    125    240 195.1 -70.1  34142  289.28 0855.25
2009/04/23 10:20:38.8     -90    -74    -82    117    142 230.5 -42.4  34148  289.36 0855.25
2009/04/23 10:20:38.9     -44    -19    -69     49     84 246.5 -65.9  34140  289.24 0855.25
2009/04/23 10:20:39.0     -12    -98    -92     99    135 187.1 -52.3  34146  289.35 0855.25
2009/04/23 10:20:39.1      48    -98    -82    110    137 153.7 -45.1  34146  289.33 0855.25
2009/04/23 10:20:39.2     124   -111   -118    167    204 132.0 -43.0  34152  289.43 0855.25
2009/04/23 10:20:39.3     216    -78    -68    230    239 109.9 -21.5  34152  289.44 0855.25
2009/04/23 10:20:39.4     171   -136    -70    219    229 128.4 -23.0  34146  289.33 0855.25
2009/04/23 10:20:39.5     186   -250   -102    312    329 143.4 -18.1  34142  289.25 0855.25
2009/04/23 10:20:39.6     251   -227    -20    339    340 132.1  -3.5  34136  289.15 0855.25
2009/04/23 10:20:39.7     240   -230     41    333    336 133.8   7.1  34134  289.13 0855.25
2009/04/23 10:20:39.8     239   -204     69    315    323 130.4  12.4  34134  289.14 0855.25
2009/04/23 10:20:39.9     169   -248     59    301    307 145.7  11.1  34134  289.14 0855.25
2009/04/23 10:20:40.0     185   -292     76    346    355 147.6  12.5  34132  289.10 0855.25
2009/04/23 10:20:40.1     189   -282     80    340    350 146.2  13.3  34136  289.15 0855.25
2009/04/23 10:20:40.2     179   -273    117    327    347 146.6  20.4  34134  289.13 0855.25
2009/04/23 10:20:40.3     150   -324     84    358    368 155.2  13.3  34136  289.15 0855.25
2009/04/23 10:20:40.4      78   -271    115    283    305 164.0  23.1  34134  289.12 0855.25
2009/04/23 10:20:40.5      67   -273    115    282    304 166.2  23.1  34136  289.17 0855.25
2009/04/23 10:20:40.6      85   -278    -18    291    292 163.0  -3.7  34136  289.17 0855.25
2009/04/23 10:20:40.7      71   -319     -6    327    328 167.4  -1.2  34134  289.14 0855.25
2009/04/23 10:20:40.8     146   -264    -19    302    303 151.0  -3.7  34134  289.12 0855.25
2009/04/23 10:20:40.9     129   -273     30    303    305 154.7   5.7  34134  289.12 0855.25
2009/04/23 10:20:41.0     179   -282     16    335    336 147.5   2.8  34138  289.20 0855.25
2009/04/23 10:20:41.1     147   -287     -6    323    324 152.9  -1.1  34138  289.19 0855.25
2009/04/23 10:20:41.2     143   -252     18    291    292 150.4   3.6  34132  289.10 0855.25
2009/04/23 10:20:41.3     151   -248     74    291    301 148.6  14.3  34134  289.12 0855.25
2009/04/23 10:20:41.4     164   -258     83    306    318 147.5  15.2  34130  289.07 0855.25
2009/04/23 10:20:41.5      67   -224    151    234    278 163.3  35.7  34138  289.19 0855.25
2009/04/23 10:20:41.6     -34   -223    108    226    250 188.9  27.3  34138  289.19 0855.25
2009/04/23 10:20:41.7     -11   -150    101    151    181 184.5  36.7  34144  289.30 0855.25
2009/04/23 10:20:41.8     -15   -100    -71    102    124 188.9 -42.0  34140  289.24 0855.25
2009/04/23 10:20:41.9    -100   -111    -99    150    179 221.9 -40.9  34140  289.23 0855.25
2009/04/23 10:20:42.0     -87   -128    -84    155    176 214.2 -35.2  34140  289.24 0855.25
2009/04/23 10:20:42.1    -110   -195     -8    225    226 209.4  -2.3  34144  289.30 0855.25
2009/04/23 10:20:42.2     -93   -186   -115    209    238 206.7 -35.8  34140  289.24 0855.25
2009/04/23 10:20:42.3     -78   -268   -135    280    310 196.3 -31.7  34138  289.20 0855.25
2009/04/23 10:20:42.4     -94   -261    -10    278    279 199.8  -2.2  34138  289.19 0855.25
2009/04/23 10:20:42.5     -48   -260    -59    265    272 190.6 -12.6  34138  289.20 0855.25
2009/04/23 10:20:42.6      -2   -336   -221    337    403 180.5 -40.8  34136  289.15 0855.25
2009/04/23 10:20:42.7     -13   -397    -89    398    408 182.0 -12.6  34132  289.09 0855.25
2009/04/23 10:20:42.8     -28   -260     -1    262    263 186.2  -0.3  34134  289.12 0855.25
2009/04/23 10:20:42.9       5   -203      5    204    205 178.4   1.6  34134  289.14 0855.25
2009/04/23 10:20:43.0      22    -88     32     91     97 165.7  19.4  34136  289.16 0855.25
2009/04/23 10:20:43.1      91    -75    106    118    158 129.5  46.9  34144  289.30 0855.25
2009/04/23 10:20:43.2      88    -62    131    108    169 125.1  56.4  34140  289.24 0855.25
2009/04/23 10:20:43.3      75   -138    201    158    255 151.5  57.9  34140  289.24 0855.25
2009/04/23 10:20:43.4      48    -88     94    101    137 151.5  47.9  34144  289.30 0855.25
2009/04/23 10:20:43.5     -53     17    121     56    133 288.6  73.5  34156  289.52 0855.25
2009/04/23 10:20:43.6    -100      7    128    101    163 274.3  57.7  34146  289.33 0855.25
2009/04/23 10:20:43.7    -128     50     83    138    161 291.7  33.7  34146  289.35 0855.25
2009/04/23 10:20:43.8    -247     34     64    250    259 277.9  14.5  34144  289.31 0855.25
2009/04/23 10:20:43.9    -252    110     86    276    290 293.6  17.3  34164  289.63 0855.25
2009/04/23 10:20:44.0    -189    125     28    227    229 303.5   7.2  34154  289.46 0855.25
2009/04/23 10:20:44.1    -144    110     70    182    195 307.3  21.7  34146  289.35 0855.25
2009/04/23 10:20:44.2    -198      0     95    199    220 270.0  27.3  34140  289.24 0855.25
2009/04/23 10:20:44.3    -127      0     12    128    129 270.0   5.4  34138  289.21 0855.25
2009/04/23 10:20:44.4     -75      5     14     76     78 274.3  11.0  34140  289.23 0855.25
2009/04/23 10:20:44.5     -50    -10    -18     52     55 258.5 -23.3  34142  289.28 0855.25
2009/04/23 10:20:44.6     -37    -88    -36     96    102 202.7 -25.9  34144  289.30 0855.25
2009/04/23 10:20:44.7     -35     -8     16     36     39 256.7  25.1  34146  289.35 0855.25
2009/04/23 10:20:44.8     -15     32     35     36     50 334.6  51.1  34150  289.41 0855.25
2009/04/23 10:20:44.9      22     -7     15     24     28 108.2  35.5  34148  289.36 0855.25
2009/04/23 10:20:45.0       1    -56     -7     57     58 178.2  -7.2  34148  289.38 0855.25
2009/04/23 10:20:45.1     -52   -147     55    157    167 199.6  19.4  34136  289.16 0855.25
2009/04/23 10:20:45.2    -130   -355    106    379    394 200.2  15.7  34130  289.08 0855.25
2009/04/23 10:20:45.3      13   -210    148    211    257 176.4  38.6  34134  289.14 0855.25
2009/04/23 10:20:45.4     139   -293    216    325    390 154.5  36.7  34138  289.21 0855.25
2009/04/23 10:20:45.5     117   -350    274    370    460 161.4  40.1  34138  289.21 0855.25
2009/04/23 10:20:45.6     263   -390    180    471    504 145.9  22.0  34134  289.13 0855.25
2009/04/23 10:20:45.7     301   -405    221    505    551 143.4  25.1  34134  289.14 0855.25
2009/04/23 10:20:45.8     428   -491    261    652    702 138.9  23.0  34130  289.05 0855.26
2009/04/23 10:20:45.9     346   -390    217    522    565 138.5  23.9  34130  289.06 0855.26
2009/04/23 10:20:46.0     325   -556     96    645    653 149.7   8.5  34126  289.01 0855.26
2009/04/23 10:20:46.1     236   -620    164    664    684 159.1  13.9  34114  288.80 0855.26
2009/04/23 10:20:46.2     187   -582    126    612    626 162.2  11.7  34122  288.94 0855.26
2009/04/23 10:20:46.3     261   -459    230    529    576 150.4  25.1  34112  288.77 0855.26
2009/04/23 10:20:46.4     245   -502    -20    559    560 153.9  -2.1  34120  288.89 0855.26
2009/04/23 10:20:46.5     112   -445     53    459    463 165.8   6.6  34128  289.02 0855.26
2009/04/23 10:20:46.6      42   -421     67    424    430 174.2   9.0  34120  288.90 0855.26
2009/04/23 10:20:46.7      41   -363    201    366    417 173.4  31.3  34126  288.99 0855.26
2009/04/23 10:20:46.8    -122   -274    162    301    341 204.1  30.6  34118  288.87 0855.26
2009/04/23 10:20:46.9    -136   -207    205    249    322 213.4  43.7  34134  289.14 0855.26
2009/04/23 10:20:47.0    -148    -96    -32    177    181 237.1 -10.5  34124  288.97 0855.26
2009/04/23 10:20:47.1      41    -69   -171     81    189 149.3 -77.3  34128  289.02 0855.26
2009/04/23 10:20:47.2     112   -191    -54    222    229 149.5 -13.7  34126  289.01 0855.26
2009/04/23 10:20:47.3     253    -42     45    257    262  99.5  10.1  34134  289.12 0855.26
2009/04/23 10:20:47.4     339   -174    117    382    400 117.2  17.0  34118  288.86 0855.26
2009/04/23 10:20:47.5     247   -157    181    293    344 122.5  34.9  34112  288.77 0855.26
2009/04/23 10:20:47.6     164   -184     67    247    256 138.3  15.2  34128  289.02 0855.26
2009/04/23 10:20:47.7     180   -147    -29    233    235 129.3  -7.2  34130  289.07 0855.27
2009/04/23 10:20:47.8     188    -72    -21    202    204 111.1  -6.0  34130  289.08 0855.27
2009/04/23 10:20:47.9     148   -118     52    190    198 128.4  15.3  34132  289.11 0855.27
2009/04/23 10:20:48.0     173   -145    209    226    307 130.0  47.9  34122  288.92 0855.27
2009/04/23 10:20:48.1      94   -100    -68    138    153 136.8 -32.2  34122  288.94 0855.27
2009/04/23 10:20:48.2     144     24   -124    147    192  80.3 -48.7  34132  289.09 0855.27
2009/04/23 10:20:48.3     125    -80    -46    149    157 122.5 -17.3  34130  289.06 0855.27
2009/04/23 10:20:48.4      88    -75     88    116    145 130.4  41.2  34120  288.91 0855.27
2009/04/23 10:20:48.5      95   -107     71    144    160 138.6  28.2  34128  289.02 0855.27
2009/04/23 10:20:48.6      18   -147    182    149    235 172.9  56.4  34134  289.14 0855.27
2009/04/23 10:20:48.7      -8   -227    197    228    301 182.2  45.4  34122  288.93 0855.26
2009/04/23 10:20:48.8     -38   -271    286    274    396 188.0  51.3  34110  288.71 0855.26
2009/04/23 10:20:48.9     -24   -336    273    337    433 184.1  43.3  34104  288.61 0855.26
2009/04/23 10:20:49.0      88   -325    317    337    462 164.9  48.0  34114  288.78 0855.26
2009/04/23 10:20:49.1      84   -347    112    358    376 166.3  17.4  34110  288.74 0855.26
2009/04/23 10:20:49.2     172   -429    -18    463    464 158.1  -2.2  34112  288.77 0855.26
2009/04/23 10:20:49.3      73   -354     82    362    372 168.2  12.8  34110  288.72 0855.26
2009/04/23 10:20:49.5      79   -240    208    253    327 161.7  43.7  34110  288.71 0855.26
2009/04/23 10:20:49.5      81    -98    177    128    218 140.3  60.6  34116  288.82 0855.26
2009/04/23 10:20:49.6       1     35    149     36    153   2.7  86.9  34118  288.87 0855.26
2009/04/23 10:20:49.7     -65      0    154     66    167 270.8  75.5  34120  288.91 0855.26
2009/04/23 10:20:49.9     287   -192    161    346    381 123.9  27.1  34106  288.67 0855.26
2009/04/23 10:20:50.0     217   -131    217    254    334 121.1  44.8  34100  288.56 0855.26
2009/04/23 10:20:50.0      43    -73    175     86    194 149.3  72.4  34102  288.60 0855.26
2009/04/23 10:20:50.2      79   -217    138    232    269 159.9  33.5  34094  288.44 0855.26
2009/04/23 10:20:50.3      75   -142    -20    161    163 152.1  -7.3  34094  288.45 0855.26
2009/04/23 10:20:50.4     338   -160    -31    375    377 115.4  -4.9  34106  288.67 0855.26
2009/04/23 10:20:50.5     348   -147     82    378    387 113.0  12.3  34096  288.49 0855.26
2009/04/23 10:20:50.6     143   -180    222    231    320 141.5  49.0  34090  288.37 0855.26
2009/04/23 10:20:50.7      84    -27    236     89    252 107.7  78.6  34094  288.47 0855.26
2009/04/23 10:20:50.8      52     24    113     58    127  64.7  70.8  34110  288.72 0855.26
2009/04/23 10:20:50.9     215     71    174    227    286  71.6  41.6  34100  288.56 0855.26
2009/04/23 10:20:51.0     286    -31    221    288    363  96.4  41.5  34094  288.44 0855.26
2009/04/23 10:20:51.1      83     12    203     84    219  81.2  76.6  34100  288.57 0855.26
2009/04/23 10:20:51.2     -61    -96    150    115    189 212.6  58.7  34102  288.58 0855.26
2009/04/23 10:20:51.3      77   -170    172    187    254 155.7  47.7  34100  288.56 0855.26
2009/04/23 10:20:51.4      66   -223    150    233    277 163.5  35.6  34092  288.41 0855.26
2009/04/23 10:20:51.5     -16   -250    233    251    342 183.8  47.8  34090  288.37 0855.26
2009/04/23 10:20:51.6     -24   -212    267    214    342 186.5  57.1  34096  288.48 0855.26
2009/04/23 10:20:51.7     -17     67    169     70    182 345.7  76.8  34118  288.86 0855.26
2009/04/23 10:20:51.8       7    -93     87     94    128 175.5  47.9  34108  288.70 0855.26
2009/04/23 10:20:51.9     -26    137    148    140    203 349.3  51.6  34106  288.67 0855.26
2009/04/23 10:20:52.0     -90    -30    202     95    223 251.4  73.1  34102  288.58 0855.26
2009/04/23 10:20:52.1     -81    162    121    182    218 333.3  36.7  34100  288.55 0855.26
2009/04/23 10:20:52.2     -99      4    -88    100    133 272.6 -50.3  34090  288.40 0855.26
2009/04/23 10:20:52.3     194    -75    181    209    276 111.3  45.6  34094  288.44 0855.26
2009/04/23 10:20:52.4      67   -121    285    139    317 151.0  72.1  34098  288.53 0855.26
2009/04/23 10:20:52.5      67   -106    206    126    241 147.5  65.7  34098  288.52 0855.26
2009/04/23 10:20:52.6      28      4    110     29    113  80.3  84.9  34104  288.62 0855.26
2009/04/23 10:20:52.7     -11    -36     86     38     94 196.9  75.0  34100  288.55 0855.26
2009/04/23 10:20:52.8      40     45    127     61    140  41.4  72.8  34100  288.55 0855.27
2009/04/23 10:20:52.9     -62     67    197     92    217 317.2  73.2  34110  288.74 0855.27
2009/04/23 10:20:53.0     -30     89    192     94    213 341.3  72.1  34104  288.64 0855.27
2009/04/23 10:20:53.1    -254     11    245    255    353 272.6  48.8  34074  288.12 0855.27
2009/04/23 10:20:53.2      21    107    223    110    248  11.5  71.9  34100  288.57 0855.27
2009/04/23 10:20:53.3     -71   -265    228    275    357 195.1  43.8  34094  288.45 0855.27
2009/04/23 10:20:53.4     -36   -118    144    124    190 196.9  55.0  34088  288.35 0855.27
2009/04/23 10:20:53.5      34     20    123     40    129  59.3  80.7  34108  288.70 0855.27
2009/04/23 10:20:53.6     -45     35    175     58    184 307.8  80.7  34120  288.89 0855.27
2009/04/23 10:20:53.7    -180    -86    272    200    337 244.5  60.3  34100  288.54 0855.27
2009/04/23 10:20:53.8    -128     92    168    158    230 305.9  52.1  34098  288.53 0855.27
2009/04/23 10:20:53.9      77    -61    254     99    272 128.2  77.8  34100  288.55 0855.27
2009/04/23 10:20:54.0       9   -164    280    165    325 176.9  66.9  34106  288.65 0855.27
2009/04/23 10:20:54.1    -171     -6    210    172    271 267.9  56.4  34100  288.56 0855.27
2009/04/23 10:20:54.2    -420   -261    233    495    547 238.1  27.1  34108  288.70 0855.27
2009/04/23 10:20:54.3    -508    -74    217    514    557 261.7  24.3  34106  288.67 0855.27
2009/04/23 10:20:54.4    -375    -32    231    377    442 265.0  34.4  34100  288.56 0855.27
2009/04/23 10:20:54.5    -284   -294    288    410    501 224.0  38.6  34094  288.47 0855.27
2009/04/23 10:20:54.6    -330   -298    286    446    529 227.9  35.6  34096  288.49 0855.27
2009/04/23 10:20:54.7    -268   -372    370    459    589 215.8  42.9  34092  288.43 0855.27
2009/04/23 10:20:54.8    -472    -59     45    476    479 262.8   5.4  34110  288.73 0855.26
2009/04/23 10:20:54.9    -298   -138    108    329    347 245.2  18.1  34100  288.57 0855.26
2009/04/23 10:20:55.0    -469   -360    277    592    653 232.5  27.0  34110  288.72 0855.26
2009/04/23 10:20:55.1    -425   -332    279    540    607 232.0  29.3  34108  288.68 0855.26
2009/04/23 10:20:55.2    -534   -198     79    570    576 249.6   7.9  34116  288.83 0855.26
2009/04/23 10:20:55.3    -198   -290    106    352    368 214.4  16.8  34100  288.55 0855.26
2009/04/23 10:20:55.4     -95   -291    180    307    355 198.0  33.1  34096  288.49 0855.26
2009/04/23 10:20:55.5    -217   -372     28    432    433 210.3   3.8  34092  288.43 0855.26
2009/04/23 10:20:55.6    -191   -353     71    402    409 208.5  10.1  34098  288.51 0855.26
2009/04/23 10:20:55.7    -227   -317    135    391    414 215.6  19.1  34098  288.51 0855.26
2009/04/23 10:20:55.8    -295   -235     67    378    384 231.5  10.1  34104  288.64 0855.26
2009/04/23 10:20:55.9    -339   -212     69    400    407 238.0   9.9  34112  288.77 0855.26
2009/04/23 10:20:56.0    -378   -208     50    432    435 241.2   6.7  34120  288.90 0855.26
2009/04/23 10:20:56.1    -381    -77     -4    389    390 258.6  -0.7  34128  289.03 0855.26
2009/04/23 10:20:56.2    -414   -267    102    493    504 237.2  11.8  34126  289.00 0855.26
2009/04/23 10:20:56.3    -274    -91    -57    289    295 251.6 -11.3  34134  289.14 0855.26
2009/04/23 10:20:56.4     -72   -250    -24    261    263 196.1  -5.4  34104  288.61 0855.26
2009/04/23 10:20:56.5    -144     12    -92    145    171 274.8 -39.9  34118  288.86 0855.26
2009/04/23 10:20:56.6    -231    -71    -49    242    248 252.9 -11.6  34118  288.87 0855.26
2009/04/23 10:20:56.7    -129    -48     70    138    154 249.6  29.2  34120  288.89 0855.26
2009/04/23 10:20:56.8    -313   -105     91    331    344 251.4  15.4  34126  288.98 0855.27
2009/04/23 10:20:56.9    -287   -242    -13    376    377 229.8  -2.1  34120  288.89 0855.27
2009/04/23 10:20:57.0    -299   -265   -187    400    441 228.5 -31.5  34110  288.72 0855.27
2009/04/23 10:20:57.1    -232   -207   -106    312    330 228.2 -18.8  34116  288.83 0855.27
2009/04/23 10:20:57.2    -101   -155   -116    186    219 213.2 -39.6  34110  288.72 0855.27
2009/04/23 10:20:57.3      -3   -219   -160    220    272 180.9 -44.1  34106  288.66 0855.27
2009/04/23 10:20:57.4    -152   -152    -63    215    225 225.0 -16.4  34106  288.67 0855.27
2009/04/23 10:20:57.5      94   -187    -73    210    222 153.3 -24.0  34100  288.57 0855.27
2009/04/23 10:20:57.6      89   -200    112    220    246 155.9  29.2  34100  288.56 0855.27
2009/04/23 10:20:57.7      10   -235    143    236    275 177.4  34.0  34106  288.65 0855.27
2009/04/23 10:20:57.8      65   -267    205    275    343 166.2  40.6  34102  288.58 0855.27
2009/04/23 10:20:57.9      38   -323    229    326    398 173.2  38.5  34092  288.42 0855.27
2009/04/23 10:20:58.0    -208   -215     -5    300    301 224.1  -1.1  34094  288.44 0855.27
2009/04/23 10:20:58.1    -221   -291     18    366    367 217.2   2.9  34098  288.52 0855.27
2009/04/23 10:20:58.2    -194    -70    -53    207    214 250.0 -14.5  34100  288.57 0855.27
2009/04/23 10:20:58.3    -109   -109   -156    155    219 225.0 -54.5  34100  288.55 0855.27
2009/04/23 10:20:58.4      82   -173    -73    192    205 154.7 -25.7  34096  288.48 0855.27
2009/04/23 10:20:58.5     128    -98    256    162    302 127.3  64.7  34090  288.39 0855.27
2009/04/23 10:20:58.6     101    -93    241    138    277 132.7  67.7  34106  288.65 0855.27
2009/04/23 10:20:58.7      -6    -88    206     89    224 184.5  75.3  34114  288.79 0855.27
2009/04/23 10:20:58.8       3   -213    357    214    416 179.0  66.4  34106  288.67 0855.26
2009/04/23 10:20:58.9      42   -295    301    299    424 171.8  50.1  34110  288.71 0855.26
2009/04/23 10:20:59.0     -37   -293    279    296    406 187.2  48.2  34102  288.60 0855.26
2009/04/23 10:20:59.1    -166   -217    234    274    360 217.4  45.0  34102  288.60 0855.26
2009/04/23 10:20:59.2     -24   -101    111    104    152 193.8  52.1  34104  288.62 0855.26
2009/04/23 10:20:59.3     -85     79    136    117    179 313.1  55.0  34118  288.86 0855.26
2009/04/23 10:20:59.4    -205     49    197    211    288 283.5  48.0  34114  288.80 0855.26
2009/04/23 10:20:59.5    -416     54    -12    420    421 277.5  -1.7  34092  288.43 0855.26
2009/04/23 10:20:59.6    -346     66    -78    353    362 280.8 -12.5  34110  288.72 0855.26
2009/04/23 10:20:59.7    -334   -233    274    408    491 235.2  37.1  34100  288.57 0855.26
2009/04/23 10:20:59.8    -292   -386     66    485    490 217.1   7.8  34098  288.52 0855.26
2009/04/23 10:20:59.9    -357   -311    106    474    486 229.0  12.6  34100  288.57 0855.26
2009/04/23 10:21:00.0     -85   -320    175    332    375 195.0  30.1  34106  288.67 0855.26
2009/04/23 10:21:00.1    -215   -514    326    558    646 202.7  32.9  34094  288.45 0855.26
2009/04/23 10:21:00.2    -284   -389    299    482    567 216.1  34.8  34094  288.45 0855.26
2009/04/23 10:21:00.3    -182   -385    223    426    480 205.3  29.8  34110  288.72 0855.26
2009/04/23 10:21:00.4    -117   -216    212    246    324 208.5  45.2  34100  288.54 0855.26
2009/04/23 10:21:00.5    -108   -236    318    260    410 204.7  56.5  34100  288.57 0855.26
2009/04/23 10:21:00.6    -215   -297    260    367    449 215.9  38.7  34108  288.68 0855.26
2009/04/23 10:21:00.7    -363   -309    166    478    507 229.6  19.2  34110  288.71 0855.26
2009/04/23 10:21:00.8    -382   -125   -118    403    419 251.8 -21.1  34090  288.39 0855.26
2009/04/23 10:21:00.9    -305   -329    163    449    477 222.8  20.9  34092  288.42 0855.26
2009/04/23 10:21:01.0    -562   -206    116    599    611 249.8  11.0  34096  288.48 0855.26
2009/04/23 10:21:01.1    -294   -101     81    312    323 250.9  14.7  34096  288.49 0855.26
2009/04/23 10:21:01.2    -281   -227    -56    362    367 231.1  -8.9  34104  288.62 0855.26
2009/04/23 10:21:01.3    -251   -235    -48    345    349 226.9  -8.0  34102  288.59 0855.26
2009/04/23 10:21:01.4    -349   -210   -114    408    423 239.0 -20.3  34104  288.63 0855.26
2009/04/23 10:21:01.5    -182   -278   -101    333    347 213.3 -21.9  34104  288.64 0855.26
2009/04/23 10:21:01.6    -326   -325    -25    461    462 225.1  -3.2  34100  288.56 0855.26
2009/04/23 10:21:01.7    -207   -282    136    351    376 216.3  22.4  34110  288.72 0855.26
2009/04/23 10:21:01.8    -293    -74    -89    303    316 255.8 -16.4  34118  288.87 0855.26
2009/04/23 10:21:01.9    -160     12    -86    161    182 274.3 -35.0  34124  288.97 0855.26
2009/04/23 10:21:02.0     -69     64    -82     95    125 312.7 -50.2  34116  288.84 0855.26
2009/04/23 10:21:02.1     -41     13    -32     44     54 287.7 -44.1  34114  288.80 0855.26
2009/04/23 10:21:02.2      98    -76   -195    125    231 127.8 -69.0  34104  288.62 0855.26
2009/04/23 10:21:02.3    -161    -50   -100    169    196 252.5 -37.8  34100  288.57 0855.26
2009/04/23 10:21:02.4     -34   -104   -230    110    254 198.5 -77.2  34106  288.65 0855.26
2009/04/23 10:21:02.5       0      7   -156      8    156 355.5 -90.0  34106  288.67 0855.26
2009/04/23 10:21:02.6     -41     43   -189     60    198 316.6 -86.4  34104  288.62 0855.26
2009/04/23 10:21:02.7      24      7   -165     26    167  73.2 -90.0  34108  288.70 0855.26
2009/04/23 10:21:02.8     186     26   -159    188    246  82.0 -48.9  34104  288.62 0855.27
2009/04/23 10:21:02.9     117     98   -127    153    198  50.0 -48.2  34104  288.64 0855.27
2009/04/23 10:21:03.0      54     85   -104    101    144  32.6 -54.6  34108  288.70 0855.27
2009/04/23 10:21:03.1      42     67   -135     80    156  32.5 -71.4  34112  288.77 0855.27
2009/04/23 10:21:03.2      18     55    -83     58    101  18.3 -65.9  34114  288.79 0855.27
2009/04/23 10:21:03.3      24     79   -112     83    139  16.9 -64.9  34112  288.75 0855.27
2009/04/23 10:21:03.4      68     72    -66    100    119  43.2 -41.4  34110  288.74 0855.27
2009/04/23 10:21:03.5      75    -29   -117     81    142 111.7 -66.5  34118  288.86 0855.27
2009/04/23 10:21:03.6      43     45    -90     63    109  44.1 -65.9  34118  288.87 0855.27
2009/04/23 10:21:03.7     -74     47   -162     88    184 302.5 -73.3  34102  288.58 0855.27
2009/04/23 10:21:03.8     -73     76   -143    106    178 315.9 -64.4  34104  288.64 0855.27
2009/04/23 10:21:03.9      18    170   -155    172    231   6.2 -51.3  34104  288.62 0855.27
2009/04/23 10:21:04.0     -33    100   -186    106    214 341.3 -72.1  34108  288.69 0855.27
2009/04/23 10:21:04.1      11    141   -220    142    261   4.5 -69.0  34120  288.91 0855.27
2009/04/23 10:21:04.2      15     26   -168     31    170  30.7 -90.0  34118  288.87 0855.27
2009/04/23 10:21:04.3      89    120   -154    150    214  36.5 -55.1  34118  288.86 0855.27
2009/04/23 10:21:04.4      94     72   -159    119    198  52.7 -63.8  34118  288.86 0855.27
2009/04/23 10:21:04.5     154     93   -160    181    241  58.9 -50.6  34114  288.80 0855.27
2009/04/23 10:21:04.6     160      0    -70    161    175  90.0 -29.3  34112  288.75 0855.27
2009/04/23 10:21:04.7     274      8     91    275    290  88.3  18.4  34094  288.46 0855.27
2009/04/23 10:21:04.8     254      4    264    255    367  89.0  51.1  34110  288.72 0855.26
2009/04/23 10:21:04.9     227    -13    198    228    301  93.3  45.8  34112  288.76 0855.26
2009/04/23 10:21:05.0     273    -99    159    291    331 109.9  31.3  34106  288.65 0855.26
2009/04/23 10:21:05.1       8   -269    127    270    298 178.2  27.1  34100  288.54 0855.26
2009/04/23 10:21:05.2      57   -296     30    302    304 169.1   5.7  34106  288.66 0855.26
2009/04/23 10:21:05.3      77   -153    -39    172    177 153.3 -12.9  34106  288.67 0855.26
2009/04/23 10:21:05.4      49   -145    -50    154    162 161.3 -18.1  34108  288.69 0855.26
2009/04/23 10:21:05.5      97   -267     24    285    287 160.0   5.0  34110  288.73 0855.26
2009/04/23 10:21:05.6      94   -300    -13    315    316 162.6  -2.5  34114  288.78 0855.26
2009/04/23 10:21:05.7      55   -355    -62    360    366 171.1  -9.8  34116  288.81 0855.26
2009/04/23 10:21:05.8      21   -286    -84    287    299 175.6 -21.2  34112  288.76 0855.26
2009/04/23 10:21:05.9      24   -225    -71    227    237 173.8 -22.5  34108  288.70 0855.26
2009/04/23 10:21:06.0     -83   -215   -108    231    255 201.2 -31.4  34112  288.76 0855.26
2009/04/23 10:21:06.1    -128   -239   -203    272    339 208.3 -44.8  34112  288.75 0855.26
2009/04/23 10:21:06.2    -179   -217   -215    282    354 219.6 -45.7  34110  288.71 0855.26
2009/04/23 10:21:06.3    -134     27     49    137    145 281.4  20.0  34110  288.74 0855.26
2009/04/23 10:21:06.4      55     29    205     63    214  62.0  82.5  34124  288.97 0855.26
2009/04/23 10:21:06.5      27   -137    118    140    183 168.5  44.5  34114  288.80 0855.26
2009/04/23 10:21:06.6       6   -173    109    174    205 178.0  35.5  34114  288.79 0855.26
2009/04/23 10:21:06.7      51    -54     60     75     96 136.8  43.3  34120  288.89 0855.26
2009/04/23 10:21:06.8      75   -195     30    210    213 158.8   8.2  34106  288.67 0855.24
2009/04/23 10:21:06.9     118   -316    167    338    377 159.5  28.2  34106  288.67 0855.24
2009/04/23 10:21:07.0     -28   -349    181    351    394 184.6  29.4  34112  288.76 0855.24
2009/04/23 10:21:07.1     -60   -416     64    421    426 188.2   8.7  34108  288.70 0855.24
2009/04/23 10:21:07.2     -26   -403    134    404    426 183.8  18.4  34112  288.75 0855.24
2009/04/23 10:21:07.3     -19   -387    140    388    413 182.9  19.9  34114  288.78 0855.24
2009/04/23 10:21:07.4     -59   -417    220    422    475 188.1  29.8  34114  288.80 0855.24
2009/04/23 10:21:07.5     -56   -486    180    490    522 186.6  21.0  34118  288.86 0855.24
2009/04/23 10:21:07.6     -78   -414    133    422    443 190.7  17.5  34110  288.72 0855.24
2009/04/23 10:21:07.7    -136   -414    178    436    470 198.3  23.6  34116  288.82 0855.24
2009/04/23 10:21:07.8    -173   -415    141    450    472 202.7  17.4  34116  288.81 0855.24
2009/04/23 10:21:07.9    -179   -329    103    375    390 208.6  15.4  34112  288.77 0855.24
2009/04/23 10:21:08.0    -138   -313     47    343    347 203.8   7.8  34112  288.76 0855.24
2009/04/23 10:21:08.1     -63   -235    -48    244    249 195.1 -11.3  34112  288.75 0855.24
2009/04/23 10:21:08.2     -82   -405    -42    414    417 191.6  -5.9  34112  288.77 0855.24
2009/04/23 10:21:08.3    -153   -449   -136    475    495 198.9 -16.0  34110  288.74 0855.24
2009/04/23 10:21:08.4    -172   -389   -131    426    445 203.8 -22.1  34112  288.77 0855.24
2009/04/23 10:21:08.5    -165   -328   -165    368    403 206.7 -30.3  34116  288.81 0855.24
2009/04/23 10:21:08.6    -219   -323   -198    391    438 214.2 -33.5  34110  288.73 0855.24
2009/04/23 10:21:08.7    -119   -296   -118    320    341 201.9 -25.5  34116  288.82 0855.24
2009/04/23 10:21:08.8    -159   -192   -101    250    269 219.6 -27.4  34126  289.00 0855.22
2009/04/23 10:21:08.9    -104    -57    -94    119    151 241.1 -47.1  34132  289.09 0855.22
2009/04/23 10:21:09.0     -12   -189    -68    190    201 183.6 -25.1  34120  288.91 0855.22
2009/04/23 10:21:09.1      15   -373    -91    374    385 177.7 -13.7  34112  288.76 0855.22
2009/04/23 10:21:09.2      77   -398   -104    406    420 169.0 -14.4  34110  288.73 0855.22
2009/04/23 10:21:09.3      54   -381   -106    385    400 171.9 -15.5  34124  288.96 0855.22
2009/04/23 10:21:09.4     149   -327     -3    360    361 155.5  -0.6  34112  288.76 0855.22
2009/04/23 10:21:09.5      -7   -440    -93    441    451 181.0 -12.0  34120  288.90 0855.22
2009/04/23 10:21:09.6      -1   -374    -54    375    379 180.3  -8.2  34116  288.81 0855.22
2009/04/23 10:21:09.7     -50   -466   -125    469    486 186.2 -15.0  34116  288.84 0855.22
2009/04/23 10:21:09.8     164   -450    124    480    496 159.9  14.5  34108  288.68 0855.21
2009/04/23 10:21:09.9     103   -368    187    383    426 164.3  27.9  34106  288.67 0855.21
2009/04/23 10:21:10.0      42   -329    189    332    382 172.7  32.0  34102  288.60 0855.21
2009/04/23 10:21:10.1    -145   -411    157    437    464 199.5  20.7  34112  288.75 0855.21
2009/04/23 10:21:10.2    -140   -340    241    368    439 202.5  36.3  34110  288.72 0855.21
2009/04/23 10:21:10.3    -137   -290    214    321    385 205.4  36.7  34116  288.84 0855.21
2009/04/23 10:21:10.4     -86   -325    242    337    414 194.9  39.3  34110  288.71 0855.21
2009/04/23 10:21:10.5    -198   -188    193    274    335 226.4  38.7  34114  288.78 0855.21
2009/04/23 10:21:10.6    -101   -172    172    200    263 210.5  44.9  34118  288.85 0855.21
2009/04/23 10:21:10.7      23   -184    218    186    286 172.7  55.4  34116  288.83 0855.21
2009/04/23 10:21:10.8     135   -272    164    304    345 153.5  30.8  34112  288.77 0855.21
2009/04/23 10:21:10.9      65   -186     53    198    205 160.6  15.0  34112  288.75 0855.21
2009/04/23 10:21:11.0     -11   -142     93    143    170 184.5  36.0  34114  288.80 0855.21
2009/04/23 10:21:11.1    -124   -316    165    340    377 201.5  27.7  34126  288.98 0855.21
2009/04/23 10:21:11.2    -328    -92    221    341    406 254.3  36.0  34142  289.26 0855.21
2009/04/23 10:21:11.3    -300   -195    229    359    425 236.9  35.6  34134  289.12 0855.21
2009/04/23 10:21:11.4      68   -195    143    207    251 160.8  37.8  34136  289.17 0855.21
2009/04/23 10:21:11.5    -123     -5    142    124    188 267.5  54.3  34138  289.19 0855.21
2009/04/23 10:21:11.6      35   -159    146    163    218 167.5  46.6  34112  288.75 0855.21
2009/04/23 10:21:11.7     -15   -233     76    234    247 183.8  18.1  34110  288.73 0855.21
2009/04/23 10:21:11.8    -160   -251     73    298    307 212.5  13.8  34104  288.61 0855.22
2009/04/23 10:21:11.9     -63   -392    208    398    449 189.2  29.8  34108  288.70 0855.22
2009/04/23 10:21:12.0    -129   -300     85    327    338 203.3  14.7  34106  288.66 0855.22
2009/04/23 10:21:12.1     -48   -238     92    243    259 191.5  21.7  34108  288.68 0855.22
2009/04/23 10:21:12.2      -4   -245    123    246    275 181.0  28.5  34112  288.75 0855.22
2009/04/23 10:21:12.3      49   -291     85    296    308 170.3  16.0  34112  288.75 0855.22
2009/04/23 10:21:12.4      26   -284    110    286    306 174.7  22.1  34112  288.75 0855.22
2009/04/23 10:21:12.5     -77   -345    133    354    378 192.6  21.5  34114  288.79 0855.22
2009/04/23 10:21:12.6     -46   -191     97    197    219 193.6  28.0  34112  288.75 0855.22
2009/04/23 10:21:12.7     -90   -116    207    147    253 217.9  61.3  34116  288.82 0855.22
2009/04/23 10:21:12.8     -77   -213    229    227    322 200.1  50.1  34116  288.83 0855.22
2009/04/23 10:21:12.9    -182   -351    230    396    457 207.5  32.9  34104  288.63 0855.22
2009/04/23 10:21:13.0    -398   -178    252    436    503 245.9  32.7  34146  289.34 0855.22
2009/04/23 10:21:13.1    -150   -468    348    492    602 197.8  38.6  34100  288.55 0855.22
2009/04/23 10:21:13.2    -191   -437    372    478    605 203.6  41.7  34104  288.62 0855.22
2009/04/23 10:21:13.3     -64   -313    202    320    378 191.6  35.5  34102  288.59 0855.22
2009/04/23 10:21:13.4     -78   -263    300    275    406 196.5  52.9  34104  288.64 0855.22
2009/04/23 10:21:13.5     -23   -360    316    361    479 183.8  45.7  34116  288.82 0855.22
2009/04/23 10:21:13.6     -82   -258    274    271    385 197.8  50.2  34112  288.77 0855.22
2009/04/23 10:21:13.7    -133   -224    250    261    361 210.7  48.7  34118  288.86 0855.21
2009/04/23 10:21:13.8      59      4    174     60    184  85.7  80.7  34124  288.97 0855.21
2009/04/23 10:21:13.9     -12    -14    197     19    197 219.6  90.0  34124  288.97 0855.21
2009/04/23 10:21:14.0       0      0    198      1    198 135.0  90.0  34122  288.92 0855.21
2009/04/23 10:21:14.1     140   -262    291    298    416 151.9  49.3  34114  288.79 0855.21
2009/04/23 10:21:14.2     128   -308    338    334    475 157.4  50.2  34110  288.73 0855.21
2009/04/23 10:21:14.3      94    -88    304    129    330 133.2  75.9  34112  288.76 0855.21
2009/04/23 10:21:14.4      52   -119    258    130    288 156.3  71.4  34114  288.78 0855.21
2009/04/23 10:21:14.5     166    -71    248    181    307 113.3  60.5  34108  288.70 0855.21
2009/04/23 10:21:14.6     -32     96    210    102    233 341.5  72.7  34122  288.92 0855.21
2009/04/23 10:21:14.7     -60    -55    210     82    225 227.3  77.4  34120  288.89 0855.21
2009/04/23 10:21:14.8      -8   -113    161    114    197 184.4  61.3  34114  288.80 0855.21
2009/04/23 10:21:14.9      84    -95    261    127    290 138.6  72.4  34112  288.76 0855.21
2009/04/23 10:21:15.0     182   -355    310    400    506 152.8  41.7  34110  288.74 0855.21
2009/04/23 10:21:15.1      97   -293    306    309    434 161.5  49.9  34104  288.64 0855.21
2009/04/23 10:21:15.2     235   -334    324    409    521 144.8  42.4  34092  288.42 0855.21
2009/04/23 10:21:15.3     162   -222    305    276    411 143.9  53.3  34090  288.37 0855.21
2009/04/23 10:21:15.4      86   -199    290    217    362 156.6  59.4  34090  288.39 0855.21
2009/04/23 10:21:15.5      18   -219    309    220    379 175.1  61.2  34090  288.38 0855.21
2009/04/23 10:21:15.6       4   -140    280    141    313 178.2  71.4  34088  288.34 0855.21
2009/04/23 10:21:15.7     -48   -161    320    169    361 196.7  70.3  34092  288.43 0855.21
2009/04/23 10:21:15.8     113   -134    242    176    299 139.9  60.5  34108  288.68 0855.21
2009/04/23 10:21:15.9     -68   -320    227    328    398 192.0  37.9  34098  288.52 0855.21
2009/04/23 10:21:16.0      86    -69    239    111    263 128.6  73.1  34110  288.72 0855.21
2009/04/23 10:21:16.1      58   -114    269    129    298 152.8  72.8  34104  288.63 0855.21
2009/04/23 10:21:16.3     146   -391    273    418    499 159.4  36.2  34104  288.62 0855.21
2009/04/23 10:21:16.3     181   -362    258    405    480 153.4  35.5  34098  288.53 0855.21
2009/04/23 10:21:16.5     273   -531    410    598    725 152.8  37.8  34086  288.33 0855.21
2009/04/23 10:21:16.6     214   -471    264    518    581 155.5  29.2  34082  288.26 0855.21
2009/04/23 10:21:16.7     192   -390    342    435    553 153.7  42.2  34088  288.35 0855.21
2009/04/23 10:21:16.8     347   -254    338    431    547 126.2  42.2  34086  288.32 0855.21
2009/04/23 10:21:16.9     410   -297    297    507    587 126.0  33.0  34088  288.36 0855.21
2009/04/23 10:21:17.0     314   -257    288    407    498 129.3  38.8  34090  288.39 0855.21
2009/04/23 10:21:17.1     332   -230    239    405    470 124.8  33.3  34092  288.41 0855.21
2009/04/23 10:21:17.2     236   -303    177    385    423 142.1  26.5  34096  288.48 0855.21
2009/04/23 10:21:17.3     131   -299    164    327    365 156.3  28.6  34090  288.38 0855.21
2009/04/23 10:21:17.4     147   -338     96    369    382 156.4  14.6  34090  288.37 0855.21
2009/04/23 10:21:17.5     196   -272    188    336    385 144.2  31.6  34090  288.37 0855.21
2009/04/23 10:21:17.6     161   -386    346    419    543 157.3  43.7  34088  288.35 0855.21
2009/04/23 10:21:17.7     207   -398    188    449    486 152.5  24.1  34094  288.44 0855.21
2009/04/23 10:21:17.8     198   -364    243    415    480 151.5  32.9  34082  288.26 0855.22
2009/04/23 10:21:17.9     240   -477    248    534    588 153.3  26.6  34086  288.31 0855.22
2009/04/23 10:21:18.0     324   -366    234    490    543 138.5  27.3  34082  288.26 0855.22
2009/04/23 10:21:18.1     227   -486    266    537    599 155.0  28.2  34088  288.34 0855.22
2009/04/23 10:21:18.2     347   -380    343    515    618 137.6  36.7  34086  288.31 0855.22
2009/04/23 10:21:18.3     253   -265    200    367    417 136.3  31.0  34090  288.40 0855.22
2009/04/23 10:21:18.4     199   -212    242    291    378 136.8  43.8  34078  288.18 0855.22
2009/04/23 10:21:18.5      31   -426    282    428    512 175.8  36.5  34100  288.54 0855.22
2009/04/23 10:21:18.6     -23   -274    186    276    332 184.9  37.3  34096  288.49 0855.22
2009/04/23 10:21:18.7     -84   -302     89    314    327 195.6  15.8  34094  288.46 0855.22
2009/04/23 10:21:18.8    -268   -420    157    499    524 212.5  17.5  34098  288.51 0855.22
2009/04/23 10:21:18.9    -214   -519     22    562    563 202.5   2.3  34098  288.52 0855.22
2009/04/23 10:21:19.0    -116   -355   -129    374    396 198.1 -19.1  34098  288.52 0855.22
2009/04/23 10:21:19.1      19   -391   -119    392    410 177.1 -17.0  34106  288.65 0855.22
2009/04/23 10:21:19.2      39   -394    -53    396    400 174.3  -7.7  34102  288.59 0855.22
2009/04/23 10:21:19.3     -97   -318   -164    333    371 197.0 -32.5  34102  288.60 0855.22
2009/04/23 10:21:19.4       9   -469   -141    470    491 178.8 -16.7  34114  288.79 0855.22
2009/04/23 10:21:19.5      58   -464   -143    468    490 172.8 -17.0  34112  288.76 0855.22
2009/04/23 10:21:19.6     176   -576   -108    603    613 163.0 -10.2  34108  288.70 0855.22
2009/04/23 10:21:19.7     229   -468    -49    522    525 153.9  -5.4  34112  288.77 0855.22
2009/04/23 10:21:19.8     312   -517    -34    605    606 148.9  -3.3  34110  288.71 0855.23
2009/04/23 10:21:19.9     159   -325   -116    362    380 153.9 -23.0  34110  288.71 0855.23
2009/04/23 10:21:20.0     264   -158    -47    308    312 120.9  -8.8  34112  288.75 0855.23
2009/04/23 10:21:20.1     370   -174    -78    409    417 115.2 -10.9  34110  288.73 0855.23
2009/04/23 10:21:20.2     442   -341     53    559    562 127.7   5.4  34108  288.69 0855.23
2009/04/23 10:21:20.3     308   -238    166    390    423 127.8  24.5  34104  288.61 0855.23
2009/04/23 10:21:20.4     321   -129     68    347    354 112.0  11.1  34112  288.77 0855.23
2009/04/23 10:21:20.5     249   -180      4    308    309 125.9   0.8  34110  288.73 0855.23
2009/04/23 10:21:20.6     107   -268     45    289    293 158.2   9.0  34114  288.80 0855.23
2009/04/23 10:21:20.7     159   -161     11    227    228 135.5   2.9  34110  288.74 0855.23
2009/04/23 10:21:20.8     311   -373    145    486    508 140.2  16.7  34110  288.74 0855.23
2009/04/23 10:21:20.9     395   -382    178    550    579 134.0  17.9  34114  288.78 0855.23
2009/04/23 10:21:21.0     291   -448    160    535    559 147.0  16.7  34118  288.87 0855.23
2009/04/23 10:21:21.1     376   -726    134    818    830 152.6   9.3  34120  288.91 0855.23
2009/04/23 10:21:21.2     305   -623    125    694    706 153.9  10.2  34120  288.91 0855.23
2009/04/23 10:21:21.3     570   -545      0    789    790 133.7   0.0  34122  288.93 0855.23
2009/04/23 10:21:21.4     383   -543     20    665    666 144.8   1.8  34116  288.83 0855.23
2009/04/23 10:21:21.5     204   -503    177    543    572 157.9  18.0  34116  288.82 0855.23
2009/04/23 10:21:21.6     155   -607    159    627    648 165.6  14.3  34122  288.94 0855.23
2009/04/23 10:21:21.7     220   -576    177    617    643 159.1  16.0  34122  288.93 0855.23
2009/04/23 10:21:21.8     174   -503    224    533    578 160.9  24.2  34122  288.92 0855.25
2009/04/23 10:21:21.9     249   -387    210    461    506 147.2  26.2  34114  288.79 0855.25
2009/04/23 10:21:22.0     250   -254    132    357    380 135.4  21.0  34120  288.91 0855.25
2009/04/23 10:21:22.1     269   -153    167    310    352 119.7  30.6  34122  288.93 0855.25
2009/04/23 10:21:22.2     198   -239    199    311    369 140.4  35.6  34134  289.13 0855.25
2009/04/23 10:21:22.3      80   -251    -47    264    269 162.2 -10.1  34116  288.81 0855.25
2009/04/23 10:21:22.4      74   -201    -80    215    229 159.7 -25.4  34126  288.99 0855.25
2009/04/23 10:21:22.5      65   -257    -52    266    272 165.7 -11.1  34126  288.98 0855.25
2009/04/23 10:21:22.6      91   -302    -56    316    322 163.1 -10.1  34124  288.95 0855.25
2009/04/23 10:21:22.7      47   -233    110    238    262 168.4  26.4  34130  289.05 0855.25
2009/04/23 10:21:22.8     154   -330    142    365    391 155.0  22.4  34126  289.01 0855.25
2009/04/23 10:21:22.9      98   -362    138    376    400 164.9  21.0  34126  288.99 0855.25
2009/04/23 10:21:23.0      58   -245    153    252    294 166.6  34.0  34128  289.03 0855.25
2009/04/23 10:21:23.1      21   -453    207    454    498 177.3  26.2  34126  288.98 0855.25
2009/04/23 10:21:23.2      68   -498    182    503    535 172.2  19.9  34118  288.87 0855.25
2009/04/23 10:21:23.3     101   -639    246    648    693 171.0  21.8  34128  289.02 0855.25
2009/04/23 10:21:23.4     112   -410    185    426    464 164.7  25.1  34118  288.87 0855.25
2009/04/23 10:21:23.5     211   -399    248    452    515 152.1  31.3  34124  288.95 0855.25
2009/04/23 10:21:23.6     243   -446     40    509    511 151.4   4.6  34124  288.95 0855.25
2009/04/23 10:21:23.7     256   -446   -103    515    526 150.1 -11.3  34130  289.06 0855.25
2009/04/23 10:21:23.8     247   -453     10    516    517 151.4   1.1  34130  289.05 0855.24
2009/04/23 10:21:23.9     281   -465     26    544    545 148.8   2.8  34128  289.04 0855.24
2009/04/23 10:21:24.0     183   -497     66    530    535 159.7   7.1  34120  288.91 0855.24
2009/04/23 10:21:24.1     354   -585     20    684    685 148.8   1.7  34122  288.92 0855.24
2009/04/23 10:21:24.2     268   -562     31    623    624 154.5   2.9  34116  288.82 0855.24
2009/04/23 10:21:24.3     286   -482    212    561    599 149.3  21.7  34114  288.80 0855.24
2009/04/23 10:21:24.4     175   -531     86    560    567 161.7   8.8  34118  288.87 0855.24
2009/04/23 10:21:24.5     162   -520     -8    545    546 162.7  -0.9  34128  289.02 0855.24
2009/04/23 10:21:24.6     313   -555    -31    638    639 150.6  -2.8  34118  288.86 0855.24
2009/04/23 10:21:24.7     373   -531    -22    649    650 144.9  -2.0  34118  288.86 0855.24
2009/04/23 10:21:24.8     394   -473     63    616    620 140.2   5.9  34112  288.76 0855.24
2009/04/23 10:21:24.9     357   -551     87    657    663 147.0   7.6  34126  288.99 0855.24
2009/04/23 10:21:25.0     316   -694    139    763    776 155.5  10.4  34116  288.81 0855.24
2009/04/23 10:21:25.1     309   -575     25    654    655 151.7   2.2  34118  288.86 0855.24
2009/04/23 10:21:25.2     287   -497    203    574    609 150.0  19.5  34106  288.66 0855.24
2009/04/23 10:21:25.3     116   -587    239    599    644 168.8  23.0  34122  288.93 0855.24
2009/04/23 10:21:25.4       0   -617    191    618    647 180.0  17.2  34126  288.99 0855.24
2009/04/23 10:21:25.5     201   -608    176    641    665 161.7  15.4  34124  288.97 0855.24
2009/04/23 10:21:25.6     140   -641     37    657    659 167.6   3.2  34128  289.04 0855.24
2009/04/23 10:21:25.7      19   -599     62    600    604 178.1   5.9  34128  289.02 0855.24
2009/04/23 10:21:25.8      41   -593     48    595    598 176.0   4.7  34124  288.95 0855.25
2009/04/23 10:21:25.9      46   -550    217    553    594 175.1  22.5  34124  288.97 0855.25
2009/04/23 10:21:26.0      22   -586    247    587    636 177.8  24.2  34126  289.01 0855.25
2009/04/23 10:21:26.1      54   -607    143    610    627 174.9  13.2  34128  289.03 0855.25
2009/04/23 10:21:26.2      39   -704    110    706    715 176.8   8.9  34130  289.08 0855.25
2009/04/23 10:21:26.3     125   -662    128    674    687 169.3  10.8  34128  289.04 0855.25
2009/04/23 10:21:26.4      74   -522     74    528    534 171.9   8.0  34128  289.04 0855.25
2009/04/23 10:21:26.5     161   -525    -78    550    556 163.0  -8.1  34132  289.09 0855.25
2009/04/23 10:21:26.6     327   -691    -22    765    766 154.7  -1.7  34126  288.99 0855.25
2009/04/23 10:21:26.7     397   -355    182    533    564 131.8  18.9  34116  288.82 0855.25
2009/04/23 10:21:26.8     222   -534     90    579    587 157.4   8.9  34124  288.95 0855.25
2009/04/23 10:21:26.9     303   -556    137    634    649 151.4  12.3  34118  288.87 0855.25
2009/04/23 10:21:27.0     262   -541    100    602    611 154.1   9.5  34120  288.88 0855.25
2009/04/23 10:21:27.1     110   -470     94    483    493 166.8  11.0  34124  288.96 0855.25
2009/04/23 10:21:27.2     163   -513    263    539    599 162.3  27.9  34124  288.95 0855.25
2009/04/23 10:21:27.3     179   -652    173    677    699 164.6  14.4  34124  288.97 0855.25
2009/04/23 10:21:27.4     172   -537    204    564    600 162.2  19.9  34118  288.85 0855.25
2009/04/23 10:21:27.5     134   -533     26    550    551 165.8   2.8  34122  288.94 0855.25
2009/04/23 10:21:27.6     141   -403     22    428    429 160.7   3.0  34122  288.94 0855.25
2009/04/23 10:21:27.7      33   -440     62    442    447 175.7   8.0  34116  288.83 0855.25
2009/04/23 10:21:27.8     283   -399    135    490    509 144.6  15.4  34126  288.98 0855.25
2009/04/23 10:21:27.9      32   -406    125    408    427 175.4  17.1  34130  289.05 0855.25
2009/04/23 10:21:28.0     138   -563     81    580    586 166.2   8.0  34128  289.02 0855.25
2009/04/23 10:21:28.1     126   -592    293    606    673 168.0  27.7  34132  289.11 0855.25
2009/04/23 10:21:28.2     -66   -693    167    697    717 185.5  13.5  34136  289.15 0855.25
2009/04/23 10:21:28.3    -198   -660    159    690    709 196.7  13.0  34132  289.10 0855.25
2009/04/23 10:21:28.4     -33   -685    169    686    707 182.8  13.9  34136  289.18 0855.25
2009/04/23 10:21:28.5     -80   -679    156    684    702 186.8  12.9  34132  289.11 0855.25
2009/04/23 10:21:28.6    -178   -773     40    794    796 193.0   2.9  34126  289.00 0855.25
2009/04/23 10:21:28.7     -26   -753    133    754    766 182.0  10.0  34126  289.01 0855.25
2009/04/23 10:21:28.8     -43   -660    171    662    684 183.7  14.5  34128  289.02 0855.25
2009/04/23 10:21:28.9    -107   -690    170    699    720 188.8  13.7  34130  289.08 0855.25
2009/04/23 10:21:29.0    -140   -595     64    612    616 193.3   6.0  34122  288.94 0855.25
2009/04/23 10:21:29.1    -104   -489    127    500    516 192.0  14.3  34134  289.13 0855.25
2009/04/23 10:21:29.2    -377   -455   -187    591    620 219.6 -17.6  34130  289.07 0855.25
2009/04/23 10:21:29.3    -615   -676   -190    915    935 222.3 -11.8  34124  288.95 0855.25
2009/04/23 10:21:29.4    -299   -469     45    557    559 212.5   4.7  34130  289.06 0855.25
2009/04/23 10:21:29.5    -323   -452      9    556    557 215.6   1.0  34128  289.02 0855.25
2009/04/23 10:21:29.6     -87   -541    -21    549    550 189.2  -2.2  34120  288.91 0855.25
2009/04/23 10:21:29.7     -94   -462    -18    472    473 191.6  -2.3  34126  289.00 0855.25
2009/04/23 10:21:29.8      32   -633     33    634    635 177.1   3.0  34128  289.03 0855.25
2009/04/23 10:21:29.9     122   -616    -15    628    629 168.8  -1.4  34126  288.99 0855.25
2009/04/23 10:21:30.0      92   -482    -16    491    492 169.1  -1.9  34116  288.84 0855.25
2009/04/23 10:21:30.1     235   -411     89    474    483 150.3  10.7  34124  288.95 0855.25
2009/04/23 10:21:30.2     153   -460    317    486    580 161.5  36.2  34120  288.89 0855.25
2009/04/23 10:21:30.3     114   -412    203    428    473 164.5  27.2  34124  288.95 0855.25
2009/04/23 10:21:30.4      92   -592    399    600    720 171.1  36.7  34116  288.83 0855.25
2009/04/23 10:21:30.5      26   -539    325    540    630 177.2  33.8  34118  288.86 0855.25
2009/04/23 10:21:30.6      -7   -461    341    462    574 180.9  40.1  34124  288.96 0855.25
2009/04/23 10:21:30.7     -91   -417    344    428    549 192.4  42.8  34126  289.00 0855.25
2009/04/23 10:21:30.8     -96   -431    323    442    547 192.6  39.7  34130  289.06 0855.24
2009/04/23 10:21:30.9    -151   -417    303    444    537 200.0  37.6  34130  289.05 0855.24
2009/04/23 10:21:31.0    -204   -482    281    524    594 203.0  30.5  34124  288.95 0855.24
2009/04/23 10:21:31.1    -157   -451    255    478    541 199.3  30.3  34128  289.04 0855.24
2009/04/23 10:21:31.2    -158   -368    199    401    447 203.2  28.2  34128  289.04 0855.24
2009/04/23 10:21:31.3    -121   -354    133    375    397 199.0  20.3  34132  289.10 0855.24
2009/04/23 10:21:31.4    -127   -371    173    393    429 198.9  25.2  34132  289.09 0855.24
2009/04/23 10:21:31.5     -70   -342    187    350    396 191.6  30.3  34130  289.08 0855.24
2009/04/23 10:21:31.6      56   -394    224    399    457 171.9  31.7  34134  289.14 0855.24
2009/04/23 10:21:31.7     -11   -235    229    236    328 182.9  49.2  34136  289.17 0855.24
2009/04/23 10:21:31.8      34   -327    241    329    407 174.0  39.9  34132  289.11 0855.24
2009/04/23 10:21:31.9      95   -371    130    384    406 165.6  18.8  34130  289.06 0855.24
2009/04/23 10:21:32.0      14   -318    166    319    359 177.4  29.5  34132  289.10 0855.24
2009/04/23 10:21:32.1      78   -352    173    361    400 167.5  27.3  34130  289.08 0855.24
2009/04/23 10:21:32.2      63   -442    110    447    461 171.8  13.9  34132  289.09 0855.24
2009/04/23 10:21:32.3      20   -446    163    447    475 177.4  20.9  34136  289.15 0855.24
2009/04/23 10:21:32.4      26   -401    166    402    434 176.3  23.8  34134  289.12 0855.24
2009/04/23 10:21:32.5      28   -405    178    406    443 176.0  25.2  34132  289.11 0855.24
2009/04/23 10:21:32.6     166   -474    176    503    534 160.7  19.3  34130  289.07 0855.24
2009/04/23 10:21:32.7     158   -323     61    360    366 153.8   9.7  34132  289.11 0855.24
2009/04/23 10:21:32.8     126   -275    123    303    327 155.3  23.4  34134  289.12 0855.22
2009/04/23 10:21:32.9      59   -297    179    303    351 168.7  33.4  34136  289.15 0855.22
2009/04/23 10:21:33.0      95   -283    257    299    394 161.3  45.1  34138  289.21 0855.22
2009/04/23 10:21:33.1      64   -194    234    205    311 161.7  54.3  34136  289.17 0855.22
2009/04/23 10:21:33.2      57   -299    174    305    351 169.1  32.3  34140  289.23 0855.22
2009/04/23 10:21:33.3     161   -444    153    473    498 160.1  17.9  34134  289.13 0855.22
2009/04/23 10:21:33.4     128   -316    197    342    394 157.9  32.6  34130  289.08 0855.22
2009/04/23 10:21:33.5      39   -308    259    311    404 172.7  44.0  34136  289.16 0855.22
2009/04/23 10:21:33.6      43   -312    179    316    363 172.0  32.0  34138  289.21 0855.22
2009/04/23 10:21:33.7      42   -261    211    265    338 170.7  42.7  34142  289.27 0855.22
2009/04/23 10:21:33.8       0   -232    162    233    283 180.0  38.0  34140  289.22 0855.22
2009/04/23 10:21:33.9      65   -275    216    283    356 166.6  41.2  34142  289.25 0855.22
2009/04/23 10:21:34.0     120   -337    132    358    381 160.3  21.0  34138  289.21 0855.22
2009/04/23 10:21:34.1      97   -396    219    408    463 166.2  30.6  34134  289.12 0855.22
2009/04/23 10:21:34.2      48   -396    197    399    444 173.0  28.2  34134  289.14 0855.22
2009/04/23 10:21:34.3     -87   -510    166    518    545 189.7  17.8  34132  289.11 0855.22
2009/04/23 10:21:34.4     -29   -462    257    463    529 183.6  31.4  34130  289.05 0855.22
2009/04/23 10:21:34.5     -65   -460    303    465    555 188.1  36.2  34128  289.04 0855.22
2009/04/23 10:21:34.6     -27   -306    292    308    424 185.1  48.4  34136  289.16 0855.22
2009/04/23 10:21:34.7     -67   -377    294    383    482 190.1  41.4  34128  289.04 0855.22
2009/04/23 10:21:34.8     -62   -284    275    291    400 192.5  48.4  34128  289.03 0855.24
2009/04/23 10:21:34.9       1   -218    244    219    327 179.5  53.5  34132  289.10 0855.24
2009/04/23 10:21:35.0     137   -171    226    220    315 141.3  50.8  34132  289.09 0855.24
2009/04/23 10:21:35.1     127   -125    181    179    254 134.4  50.2  34134  289.14 0855.24
2009/04/23 10:21:35.2      11    -83    185     84    203 172.4  74.2  34138  289.19 0855.24
2009/04/23 10:21:35.3     182    -58    206    191    280 107.7  52.2  34132  289.10 0855.24
2009/04/23 10:21:35.4      13    -59    221     61    229 167.5  84.6  34136  289.16 0855.24
2009/04/23 10:21:35.5      26    -26    229     37    231 135.0  90.0  34136  289.18 0855.24
2009/04/23 10:21:35.6     -61   -177    178    188    258 199.2  48.5  34136  289.15 0855.24
2009/04/23 10:21:35.7     -38   -222    101    226    247 189.8  25.7  34136  289.15 0855.24
2009/04/23 10:21:35.8      18   -239     85    240    254 175.6  20.0  34136  289.15 0855.24
2009/04/23 10:21:35.9      27   -222    111    224    249 172.9  28.2  34132  289.10 0855.24
2009/04/23 10:21:36.0      21   -163     99    165    192 172.7  34.2  34136  289.16 0855.24
2009/04/23 10:21:36.1      59   -211    137    220    259 164.2  35.0  34142  289.25 0855.24
2009/04/23 10:21:36.2      58   -217     83    225    239 164.8  21.0  34138  289.19 0855.24
2009/04/23 10:21:36.3      55   -193     39    201    205 164.0  11.1  34132  289.09 0855.24
2009/04/23 10:21:36.4     199   -178     93    268    284 131.8  19.2  34134  289.14 0855.24
2009/04/23 10:21:36.5      73   -240    134    251    284 163.1  30.3  34136  289.17 0855.24
2009/04/23 10:21:36.6      10   -299    126    300    325 178.0  24.2  34128  289.03 0855.24
2009/04/23 10:21:36.7     -49   -309    262    314    408 189.1  44.1  34136  289.18 0855.24
2009/04/23 10:21:36.8     -85   -314    149    326    358 195.3  26.3  34138  289.21 0855.24
2009/04/23 10:21:36.9     -27   -276     -5    278    279 185.6  -1.2  34136  289.17 0855.24
2009/04/23 10:21:37.0       4   -249     87    250    265 179.0  19.2  34122  288.92 0855.24
2009/04/23 10:21:37.1     -71   -363    145    370    397 191.1  22.5  34138  289.21 0855.24
2009/04/23 10:21:37.2    -128   -354     59    377    382 199.9   8.9  34146  289.32 0855.24
2009/04/23 10:21:37.3     -98   -299      4    315    316 198.3   0.8  34146  289.34 0855.24
2009/04/23 10:21:37.4    -187   -309   -144    362    389 211.1 -27.4  34144  289.30 0855.24
2009/04/23 10:21:37.5    -205   -211    -48    295    300 224.1  -9.4  34150  289.39 0855.24
2009/04/23 10:21:37.6     -71   -302    -17    311    312 193.3  -3.2  34144  289.29 0855.24
2009/04/23 10:21:37.7     -19   -305    -59    306    312 183.6 -11.0  34144  289.29 0855.24
2009/04/23 10:21:37.8     -16   -234    -82    235    248 184.0 -24.3  34146  289.32 0855.24
2009/04/23 10:21:37.9     -17   -200    -38    201    205 184.9 -10.9  34142  289.28 0855.24
2009/04/23 10:21:38.0      26   -173      8    176    177 171.3   2.8  34140  289.23 0855.24
2009/04/23 10:21:38.1      75   -152     59    170    181 153.7  19.2  34142  289.26 0855.24
2009/04/23 10:21:38.2       4   -244      0    245    246 179.0   0.0  34148  289.36 0855.24
2009/04/23 10:21:38.3     -78   -310     -3    320    321 194.2  -0.7  34144  289.29 0855.24
2009/04/23 10:21:38.4      86   -266     14    280    281 162.1   2.9  34142  289.27 0855.24
2009/04/23 10:21:38.5       0   -257    -14    258    259 180.0  -3.1  34144  289.29 0855.24
2009/04/23 10:21:38.6      90   -226     38    244    248 158.2   9.0  34142  289.25 0855.24
2009/04/23 10:21:38.7     116   -236     47    264    269 153.7  10.1  34138  289.19 0855.24
2009/04/23 10:21:38.8     115   -214     36    243    246 151.7   8.5  34132  289.10 0855.23
2009/04/23 10:21:38.9     127   -218     53    253    259 149.7  12.0  34134  289.14 0855.23
2009/04/23 10:21:39.0     184   -124     91    222    239 124.0  23.6  34138  289.20 0855.23
2009/04/23 10:21:39.1     250    -50     87    255    270 101.4  18.9  34128  289.03 0855.23
2009/04/23 10:21:39.2     154   -137     55    207    215 131.6  15.0  34130  289.06 0855.23
2009/04/23 10:21:39.3     132   -146    129    198    236 137.9  36.3  34134  289.14 0855.23
2009/04/23 10:21:39.4     106    -58    149    122    192 118.8  56.4  34140  289.23 0855.23
2009/04/23 10:21:39.5      82    -61    142    103    175 126.4  60.8  34144  289.30 0855.23
2009/04/23 10:21:39.6     115   -118    144    165    219 135.7  45.8  34134  289.13 0855.23
2009/04/23 10:21:39.7     104   -165    168    196    258 147.7  44.9  34140  289.22 0855.23
2009/04/23 10:21:39.8     111   -158    106    194    221 145.0  31.3  34138  289.19 0855.23
2009/04/23 10:21:39.9     -87   -305    188    318    369 196.0  33.5  34136  289.18 0855.23
2009/04/23 10:21:40.0    -106   -319    128    337    360 198.4  21.6  34130  289.08 0855.23
2009/04/23 10:21:40.1      23   -364    153    365    395 176.4  24.1  34128  289.03 0855.23
2009/04/23 10:21:40.2     -73   -343    238    351    424 192.0  37.4  34124  288.96 0855.23
2009/04/23 10:21:40.3    -138   -414    -17    437    438 198.5  -2.2  34116  288.82 0855.23
2009/04/23 10:21:40.4     -15   -215    135    216    254 184.0  35.2  34122  288.93 0855.23
2009/04/23 10:21:40.5    -140   -326    180    355    398 203.3  29.1  34122  288.94 0855.23
2009/04/23 10:21:40.6    -332   -352     45    485    488 223.3   5.3  34146  289.32 0855.23
2009/04/23 10:21:40.7    -294   -191    124    351    372 236.9  20.1  34136  289.15 0855.19
2009/04/23 10:21:40.8    -125   -147    140    194    239 220.3  39.5  34124  288.97 0855.19
2009/04/23 10:21:40.9     -97   -213    179    235    295 204.5  41.4  34126  288.98 0855.19
2009/04/23 10:21:41.0    -144   -267    111    304    323 208.3  21.0  34126  289.00 0855.19
2009/04/23 10:21:41.1      -6   -167    232    168    286 182.2  60.6  34132  289.10 0855.19
2009/04/23 10:21:41.2     -79   -292    106    303    322 195.2  19.3  34120  288.90 0855.19
2009/04/23 10:21:41.3     -26   -139    164    142    216 190.7  54.6  34128  289.04 0855.19
2009/04/23 10:21:41.4     169    -72    194    184    267 113.1  51.6  34134  289.14 0855.19
2009/04/23 10:21:41.5     142   -229    193    270    331 148.3  39.1  34130  289.05 0855.19
2009/04/23 10:21:41.6     257   -244     42    355    358 133.5   6.9  34128  289.03 0855.19
2009/04/23 10:21:41.7     231   -299    120    378    397 142.3  17.7  34130  289.06 0855.19
2009/04/23 10:21:41.8     297   -333     97    447    458 138.3  12.3  34124  288.97 0855.19
2009/04/23 10:21:41.9     302   -338     62    454    459 138.2   7.8  34112  288.75 0855.19
2009/04/23 10:21:42.0     270   -331     76    428    435 140.8  10.1  34108  288.70 0855.19
2009/04/23 10:21:42.1     169   -303     67    348    355 150.8  11.0  34108  288.69 0855.19
2009/04/23 10:21:42.2     176   -259     25    314    316 145.8   4.6  34112  288.76 0855.19
2009/04/23 10:21:42.3     160   -309     21    349    350 152.6   3.5  34110  288.71 0855.19
2009/04/23 10:21:42.4     208   -440    140    487    507 154.7  16.1  34110  288.73 0855.19
2009/04/23 10:21:42.5     198   -402     81    449    457 153.7  10.3  34126  289.00 0855.19
2009/04/23 10:21:42.6     223   -382     13    443    444 149.8   1.8  34124  288.97 0855.19
2009/04/23 10:21:42.7     228   -347     22    416    417 146.6   3.1  34124  288.97 0855.18
2009/04/23 10:21:42.8     183   -311     14    361    362 149.5   2.2  34122  288.94 0855.18
2009/04/23 10:21:43.0     216   -407     30    461    463 152.0   3.8  34112  288.77 0855.18
2009/04/23 10:21:43.1     197   -376     91    425    435 152.4  12.1  34120  288.89 0855.18
2009/04/23 10:21:43.2     154   -388    133    418    439 158.3  17.7  34112  288.77 0855.18
2009/04/23 10:21:43.3     158   -399     88    430    440 158.4  11.6  34114  288.78 0855.18
2009/04/23 10:21:43.4     161   -315     78    354    363 152.9  12.5  34120  288.91 0855.18
2009/04/23 10:21:43.5     111   -316     16    336    337 160.6   2.8  34120  288.88 0855.18
2009/04/23 10:21:43.6      65   -222   -141    232    271 163.7 -38.8  34120  288.88 0855.18
2009/04/23 10:21:43.7      -4   -234     -9    235    236 181.0  -2.3  34114  288.80 0855.18
2009/04/23 10:21:43.8     118   -194     87    228    244 148.6  21.7  34112  288.75 0855.18
2009/04/23 10:21:43.9     186   -286    130    342    365 147.0  21.8  34106  288.67 0855.18
2009/04/23 10:21:44.0     218   -312     96    381    393 145.0  14.2  34110  288.72 0855.18
2009/04/23 10:21:44.1     148   -299     46    334    338 153.6   7.9  34104  288.64 0855.18
2009/04/23 10:21:44.2      43   -312    127    316    340 172.0  23.0  34106  288.67 0855.18
2009/04/23 10:21:44.3       4   -282     73    283    293 179.0  14.5  34114  288.80 0855.18
2009/04/23 10:21:44.4     -15   -344     98    345    359 182.6  15.9  34106  288.67 0855.18
2009/04/23 10:21:44.5      71   -272     51    282    287 165.3  10.3  34112  288.76 0855.18
2009/04/23 10:21:44.6     -44   -316    126    320    343 188.0  22.8  34096  288.50 0855.18
2009/04/23 10:21:44.7     -40   -258     81    262    275 188.9  17.3  34104  288.63 0855.18
2009/04/23 10:21:44.8     -12   -209     40    210    214 183.4  10.8  34102  288.60 0855.13
2009/04/23 10:21:44.9     139   -258    104    294    313 151.7  19.6  34102  288.59 0855.13
2009/04/23 10:21:45.0     -30   -186    204    189    278 189.3  52.2  34098  288.51 0855.13
2009/04/23 10:21:45.1     -27   -295     82    297    309 185.3  15.6  34104  288.61 0855.13
2009/04/23 10:21:45.2     -97   -348     99    362    376 195.6  15.3  34104  288.64 0855.13
2009/04/23 10:21:45.3    -109   -320     92    339    352 198.9  15.3  34102  288.60 0855.13
2009/04/23 10:21:45.4       0   -328    119    329    349 179.9  20.6  34100  288.57 0855.13
2009/04/23 10:21:45.5     121   -325    100    347    362 159.5  16.1  34100  288.57 0855.13
2009/04/23 10:21:45.6     135   -258     35    292    295 152.4   6.9  34098  288.53 0855.13
2009/04/23 10:21:45.7     189   -243    126    308    332 142.2  23.5  34102  288.58 0855.13
2009/04/23 10:21:45.8     143   -174    133    226    262 140.6  33.4  34098  288.51 0855.13
2009/04/23 10:21:45.9      90   -243    185    260    319 159.7  39.0  34096  288.49 0855.13
2009/04/23 10:21:46.0      24   -209     98    211    232 173.3  27.0  34096  288.50 0855.13
2009/04/23 10:21:46.1     -69   -206     -6    218    219 198.7  -1.8  34102  288.58 0855.13
2009/04/23 10:21:46.2     -86   -238    -46    254    259 200.0 -10.3  34102  288.58 0855.13
2009/04/23 10:21:46.3       4   -272    -10    273    274 179.1  -2.2  34100  288.56 0855.13
2009/04/23 10:21:46.4      78   -274     24    286    288 164.0   4.9  34104  288.61 0855.13
2009/04/23 10:21:46.5      72   -235     -7    247    248 162.8  -1.8  34100  288.54 0855.13
2009/04/23 10:21:46.6      21   -185     52    187    195 173.3  15.6  34100  288.55 0855.13
2009/04/23 10:21:46.7    -120   -145    169    189    253 219.6  46.9  34100  288.54 0855.13
2009/04/23 10:21:46.8    -102   -161    122    191    226 212.5  35.6  34104  288.64 0855.14
2009/04/23 10:21:46.9     -27   -204     81    206    221 187.8  22.8  34104  288.64 0855.14
2009/04/23 10:21:47.0      10   -230    -41    231    235 177.3 -10.3  34102  288.59 0855.14
2009/04/23 10:21:47.1      56   -150      0    161    162 159.5   0.2  34100  288.55 0855.14
2009/04/23 10:21:47.2      14   -103     93    105    140 171.9  45.9  34102  288.60 0855.14
2009/04/23 10:21:47.3     -15   -186     80    187    203 184.9  24.3  34100  288.55 0855.14
2009/04/23 10:21:47.4      36   -219    -20    222    224 170.7  -5.4  34100  288.55 0855.14
2009/04/23 10:21:47.5      87   -310     54    323    328 164.2   9.5  34090  288.39 0855.14
2009/04/23 10:21:47.6      83   -138     62    162    173 148.8  21.7  34096  288.50 0855.14
2009/04/23 10:21:47.7      81   -150     93    171    194 151.7  31.3  34092  288.43 0855.14
2009/04/23 10:21:47.8      56   -209    124    217    249 164.9  32.4  34096  288.48 0855.14
2009/04/23 10:21:47.9      82   -228    102    243    263 160.2  24.1  34094  288.46 0855.14
2009/04/23 10:21:48.0     -22   -244    183    246    306 185.4  40.1  34094  288.44 0855.14
2009/04/23 10:21:48.1     -98   -344    107    358    374 195.9  16.7  34086  288.33 0855.14
2009/04/23 10:21:48.2    -134   -272     41    304    307 206.3   7.8  34092  288.43 0855.14
2009/04/23 10:21:48.3     -35   -345      2    347    348 185.9   0.5  34090  288.38 0855.14
2009/04/23 10:21:48.4     -59   -303     86    309    321 191.1  15.7  34094  288.44 0855.14
2009/04/23 10:21:48.5      14   -270    -26    271    273 176.9  -5.6  34092  288.41 0855.14
2009/04/23 10:21:48.6     -11   -216    -60    217    226 183.1 -15.5  34094  288.47 0855.14
2009/04/23 10:21:48.7     -49   -239    -68    245    255 191.6 -15.5  34092  288.43 0855.14
2009/04/23 10:21:48.8    -177   -277   -108    330    348 212.6 -18.2  34094  288.45 0855.12
2009/04/23 10:21:48.9    -251   -245   -113    351    369 225.7 -17.9  34094  288.45 0855.12
2009/04/23 10:21:49.0    -220   -165   -188    275    333 233.1 -42.2  34102  288.59 0855.12
2009/04/23 10:21:49.1    -143   -184   -201    234    308 217.9 -49.3  34102  288.58 0855.12
2009/04/23 10:21:49.2    -198   -302    -56    362    367 213.2  -8.8  34100  288.55 0855.12
2009/04/23 10:21:49.3    -189   -274     31    334    336 214.6   5.5  34100  288.55 0855.12
2009/04/23 10:21:49.4    -142   -219     51    262    268 213.0  11.1  34100  288.56 0855.12
2009/04/23 10:21:49.5    -113   -229     96    256    273 206.3  21.3  34100  288.56 0855.12
2009/04/23 10:21:49.6    -220   -232     68    320    328 223.5  12.1  34102  288.59 0855.12
2009/04/23 10:21:49.7    -178   -244     55    303    308 216.1  10.4  34104  288.63 0855.12
2009/04/23 10:21:49.8    -169   -259     59    310    316 213.2  10.8  34100  288.56 0855.12
2009/04/23 10:21:49.9    -266   -263    -53    375    379 225.4  -8.1  34096  288.50 0855.12
2009/04/23 10:21:50.0    -502   -292   -105    581    591 239.8 -10.3  34104  288.61 0855.12
2009/04/23 10:21:50.1    -535   -235    -91    585    593 246.3  -8.9  34110  288.71 0855.12
2009/04/23 10:21:50.2    -550   -190   -200    582    616 250.9 -19.0  34112  288.76 0855.12
2009/04/23 10:21:50.3    -556   -224   -207    600    635 248.1 -19.1  34110  288.72 0855.12
2009/04/23 10:21:50.4    -549   -202   -191    586    617 249.8 -18.1  34104  288.64 0855.12
2009/04/23 10:21:50.5    -622   -195   -219    652    688 252.6 -18.6  34102  288.60 0855.12
2009/04/23 10:21:50.6    -617   -145   -232    634    675 256.8 -25.4  34106  288.66 0855.12
2009/04/23 10:21:50.7    -536    -62   -212    540    580 263.3 -27.1  34108  288.70 0855.12
2009/04/23 10:21:50.8    -369    -89   -142    380    405 256.3 -25.8  34110  288.71 0855.13
2009/04/23 10:21:50.9    -342    -80    -83    352    362 256.7 -13.4  34106  288.67 0855.13
2009/04/23 10:21:51.0    -501    -42   -162    503    528 265.2 -22.9  34112  288.77 0855.13
2009/04/23 10:21:51.1    -479    -45   -223    482    531 264.6 -31.0  34122  288.93 0855.13
2009/04/23 10:21:51.2    -281   -244      4    373    374 229.0   0.7  34104  288.64 0855.13
2009/04/23 10:21:51.3    -245    -81      8    259    260 251.6   1.8  34112  288.75 0855.13
2009/04/23 10:21:51.4    -440   -163    -59    470    474 249.7  -7.2  34108  288.69 0855.13
2009/04/23 10:21:51.5    -373   -176   -125    413    432 244.7 -16.9  34112  288.77 0855.13
2009/04/23 10:21:51.6    -424   -210    -29    474    475 243.6  -3.5  34126  289.00 0855.13
2009/04/23 10:21:51.7    -480   -208   -137    524    542 246.6 -14.7  34114  288.80 0855.13
2009/04/23 10:21:51.8    -243   -302   -132    388    410 218.8 -18.8  34120  288.90 0855.15
2009/04/23 10:21:51.9    -324   -334   -132    466    485 224.1 -15.9  34118  288.86 0855.15
2009/04/23 10:21:52.0    -425   -377   -156    569    591 228.5 -15.4  34110  288.73 0855.15
2009/04/23 10:21:52.1    -473   -314   -185    569    599 236.4 -18.0  34110  288.71 0855.15
2009/04/23 10:21:52.2    -488   -269   -170    558    584 241.2 -17.0  34106  288.66 0855.15
2009/04/23 10:21:52.3    -533   -223   -214    578    616 247.3 -25.7  34112  288.75 0855.15
2009/04/23 10:21:52.4    -513   -218   -223    558    600 246.9 -27.4  34110  288.71 0855.15
2009/04/23 10:21:52.5    -574   -215   -248    614    662 249.4 -27.6  34110  288.72 0855.15
2009/04/23 10:21:52.6    -596   -206   -175    631    654 250.9 -20.1  34110  288.74 0855.15
2009/04/23 10:21:52.7    -422   -277   -269    505    572 236.7 -34.7  34112  288.75 0855.15
2009/04/23 10:21:52.8    -423   -224   -290    479    559 242.1 -38.4  34110  288.72 0855.15
2009/04/23 10:21:52.9    -325   -306   -233    447    504 226.7 -34.2  34118  288.86 0855.15
2009/04/23 10:21:53.0    -388   -196   -158    435    462 243.2 -25.3  34114  288.78 0855.15
2009/04/23 10:21:53.1    -311   -212   -261    377    458 235.7 -42.3  34114  288.78 0855.15
2009/04/23 10:21:53.2    -380   -188   -191    425    465 243.6 -30.3  34134  289.14 0855.15
2009/04/23 10:21:53.3    -427   -195   -104    470    482 245.4 -12.5  34124  288.96 0855.15
2009/04/23 10:21:53.4    -522   -257    -37    582    584 243.8  -3.7  34144  289.30 0855.15
2009/04/23 10:21:53.5    -350   -158   -122    385    403 245.7 -22.6  34140  289.23 0855.15
2009/04/23 10:21:53.6    -497   -254   -258    559    615 242.9 -31.0  34110  288.73 0855.15
2009/04/23 10:21:53.7    -474   -143   -282    496    570 253.2 -36.7  34116  288.84 0855.15
2009/04/23 10:21:53.8    -548   -108   -290    559    629 258.8 -34.0  34114  288.78 0855.19
2009/04/23 10:21:53.9    -450   -148   -161    474    500 251.7 -23.8  34116  288.81 0855.19
2009/04/23 10:21:54.0    -487    -93   -214    496    540 259.1 -29.4  34122  288.92 0855.19
2009/04/23 10:21:54.1    -356      7   -156    357    389 271.3 -29.5  34120  288.89 0855.19
2009/04/23 10:21:54.2    -329    -61   -120    335    355 259.4 -25.0  34136  289.15 0855.19
2009/04/23 10:21:54.3    -583   -147   -173    602    627 255.8 -16.0  34106  288.65 0855.19
2009/04/23 10:21:54.4    -587   -232   -255    632    681 248.4 -27.5  34110  288.73 0855.19
2009/04/23 10:21:54.5    -427    -95    -87    438    447 257.4 -11.3  34130  289.07 0855.19
2009/04/23 10:21:54.6    -423   -211    -18    473    474 243.4  -2.2  34152  289.45 0855.19
2009/04/23 10:21:54.7    -477   -214    -95    523    532 245.8 -10.4  34142  289.26 0855.19
2009/04/23 10:21:54.8    -378   -105    -79    393    401 254.4 -11.5  34126  288.98 0855.19
2009/04/23 10:21:54.9    -492   -128   -140    509    529 255.4 -15.4  34134  289.14 0855.19
2009/04/23 10:21:55.0    -430    -87    -72    439    445 258.5  -9.3  34134  289.12 0855.19
2009/04/23 10:21:55.1    -298   -198    -42    358    361 236.4  -6.7  34138  289.21 0855.19
2009/04/23 10:21:55.2    -179   -196     -9    266    267 222.4  -2.1  34136  289.15 0855.19
2009/04/23 10:21:55.3    -241   -130     11    274    275 241.6   2.5  34132  289.09 0855.19
2009/04/23 10:21:55.4    -270   -164    -12    317    318 238.7  -2.2  34140  289.24 0855.19
2009/04/23 10:21:55.5    -273    -76    -35    284    287 254.3  -7.2  34148  289.36 0855.19
2009/04/23 10:21:55.6    -170   -160    -30    234    236 226.8  -7.3  34132  289.10 0855.19
2009/04/23 10:21:55.7    -120   -153    -58    195    204 218.1 -16.6  34120  288.89 0855.19
2009/04/23 10:21:55.8    -100   -138    -77    171    187 216.1 -30.6  34126  288.99 0855.19
2009/04/23 10:21:55.9     -69   -161    -83    176    194 203.4 -31.5  34128  289.02 0855.19
2009/04/23 10:21:56.0     -59   -115    -82    130    153 207.2 -39.9  34118  288.87 0855.19
2009/04/23 10:21:56.1     -50   -112    -76    123    144 204.1 -39.9  34112  288.75 0855.19
2009/04/23 10:21:56.2      35   -161    -79    165    182 167.5 -31.8  34116  288.82 0855.19
2009/04/23 10:21:56.3     142   -195    -36    242    245 143.9  -8.6  34110  288.73 0855.19
2009/04/23 10:21:56.4     129   -204     -9    242    243 147.5  -2.2  34112  288.75 0855.19
2009/04/23 10:21:56.5      67   -127    -40    144    150 151.9 -15.5  34106  288.67 0855.19
2009/04/23 10:21:56.6     140   -146    -62    203    212 136.1 -21.8  34112  288.75 0855.19
2009/04/23 10:21:56.7     163   -149   -101    221    242 132.4 -30.6  34112  288.75 0855.19
2009/04/23 10:21:56.8     320   -121   -122    343    365 110.7 -19.6  34116  288.84 0855.19
2009/04/23 10:21:56.9     272   -173    -64    323    330 122.5 -11.3  34116  288.83 0855.19
2009/04/23 10:21:57.0     240   -199    -95    312    327 129.6 -16.9  34112  288.76 0855.19
2009/04/23 10:21:57.1     330    -86   -122    341    363 104.6 -19.8  34110  288.74 0855.19
2009/04/23 10:21:57.2     475    -36      5    477    478  94.4   0.7  34114  288.78 0855.19
2009/04/23 10:21:57.3     422     14    123    423    441  88.0  16.3  34106  288.65 0855.19
2009/04/23 10:21:57.4     360    -62    105    366    381  99.8  16.1  34112  288.76 0855.19
2009/04/23 10:21:57.5     361     -3    172    362    400  90.5  27.3  34112  288.76 0855.19
2009/04/23 10:21:57.6     273     28    153    275    314  84.1  31.6  34118  288.85 0855.19
2009/04/23 10:21:57.7     224    -16    103    225    247  94.1  26.2  34118  288.85 0855.19
2009/04/23 10:21:57.8     172    -74     53    188    196 113.3  15.8  34112  288.75 0855.18
2009/04/23 10:21:57.9     135   -186     19    230    231 144.0   4.9  34112  288.75 0855.18
2009/04/23 10:21:58.0     126   -185     93    225    243 145.7  23.6  34110  288.73 0855.18
2009/04/23 10:21:58.1     154   -208     89    260    275 143.5  18.9  34112  288.75 0855.18
2009/04/23 10:21:58.2      71   -326    114    334    354 167.7  18.9  34112  288.77 0855.18
2009/04/23 10:21:58.3     111   -334    138    353    379 161.6  22.5  34116  288.81 0855.18
2009/04/23 10:21:58.4     129   -350    171    374    411 159.7  26.2  34112  288.76 0855.18
2009/04/23 10:21:58.5     166   -335    132    375    398 153.6  19.5  34116  288.81 0855.18
2009/04/23 10:21:58.6     170   -414    166    448    477 157.6  21.4  34114  288.79 0855.18
2009/04/23 10:21:58.7     146   -361    174    390    427 157.9  25.8  34116  288.82 0855.18
2009/04/23 10:21:58.8      69   -345    109    352    369 168.7  17.3  34116  288.81 0855.18
2009/04/23 10:21:58.9      98   -277     84    295    307 160.4  16.0  34116  288.83 0855.18
2009/04/23 10:21:59.0      62   -262     72    270    280 166.6  15.0  34116  288.81 0855.18
2009/04/23 10:21:59.1      44   -259    114    263    286 170.2  25.1  34116  288.81 0855.18
2009/04/23 10:21:59.2      23   -253    123    255    283 174.7  27.3  34116  288.81 0855.18
2009/04/23 10:21:59.3     -10   -279    146    280    315 182.2  29.8  34116  288.83 0855.18
2009/04/23 10:21:59.4      30   -314    188    316    367 174.4  33.5  34120  288.88 0855.18
2009/04/23 10:21:59.5     -19   -275    175    276    326 184.0  35.5  34116  288.81 0855.18
2009/04/23 10:21:59.6     -40   -255    145    259    296 188.9  31.4  34116  288.83 0855.18
2009/04/23 10:21:59.7     -37   -309    113    312    331 186.9  20.6  34122  288.92 0855.18
2009/04/23 10:21:59.8     -48   -278    100    283    301 189.8  19.6  34120  288.90 0855.15
2009/04/23 10:21:59.9     -48   -281    104    286    304 189.8  20.9  34122  288.93 0855.15
2009/04/23 10:22:00.0     -33   -233    118    236    263 188.1  28.2  34124  288.95 0855.15
2009/04/23 10:22:00.1     -50   -222    129    228    261 192.7  32.1  34122  288.93 0855.15
2009/04/23 10:22:00.2      17   -164    126    165    207 174.0  41.4  34124  288.96 0855.15
2009/04/23 10:22:00.3      73   -146    117    164    201 153.5  39.1  34122  288.92 0855.15
2009/04/23 10:22:00.4     110   -257    180    280    332 156.8  35.7  34120  288.88 0855.15
2009/04/23 10:22:00.5      67   -268    200    277    341 166.0  39.5  34120  288.88 0855.15
2009/04/23 10:22:00.6      69   -292    132    301    328 166.6  25.2  34118  288.87 0855.15
2009/04/23 10:22:00.7     -14   -312    127    313    337 182.7  23.2  34120  288.89 0855.15
2009/04/23 10:22:00.8     -57   -214    -10    222    223 195.1  -2.6  34120  288.89 0855.15
2009/04/23 10:22:00.9     -45   -185    -57    191    199 193.8 -21.7  34120  288.91 0855.15
2009/04/23 10:22:01.0      15   -178    -47    179    186 175.1 -14.7  34120  288.91 0855.15
2009/04/23 10:22:01.1      71   -140    -32    158    162 153.0 -11.6  34120  288.89 0855.15
2009/04/23 10:22:01.2      50    -91     11    105    106 151.1   6.5  34120  288.91 0855.15
2009/04/23 10:22:01.3     -21    -48     46     53     70 204.5  44.8  34124  288.96 0855.15
2009/04/23 10:22:01.4     -47    -47     50     67     83 225.0  40.7  34126  289.01 0855.15
2009/04/23 10:22:01.5     -57    -57     66     82    105 225.0  43.3  34128  289.04 0855.15
2009/04/23 10:22:01.6     -28    -73     99     79    126 200.9  57.5  34128  289.04 0855.15
2009/04/23 10:22:01.7    -173   -135    104    220    243 232.2  27.2  34128  289.03 0855.15
2009/04/23 10:22:01.8    -190    -87     48    209    215 245.4  13.1  34126  289.01 0855.13
2009/04/23 10:22:01.9    -210   -124     20    244    245 239.4   4.9  34126  289.00 0855.13
2009/04/23 10:22:02.0    -494    -85   -178    502    533 260.2 -19.5  34108  288.69 0855.13
2009/04/23 10:22:02.1    -444     28     49    445    448 273.6   6.4  34114  288.80 0855.13
2009/04/23 10:22:02.2    -275   -219    171    352    391 231.5  27.9  34128  289.04 0855.13
2009/04/23 10:22:02.3    -223   -196    152    298    334 228.7  29.2  34126  288.98 0855.13
2009/04/23 10:22:02.4    -365   -170     82    403    412 245.0  11.5  34130  289.07 0855.13
2009/04/23 10:22:02.5    -432    -80     77    440    447 259.4  10.0  34124  288.97 0855.13
2009/04/23 10:22:02.6    -524     33    -66    526    531 273.6  -7.2  34106  288.65 0855.13
2009/04/23 10:22:02.7    -503    117    -80    517    524 283.2  -8.8  34104  288.63 0855.13
2009/04/23 10:22:02.8    -308    271    -65    411    417 311.4  -9.0  34110  288.73 0855.13
2009/04/23 10:22:02.9    -253     91    157    270    312 289.9  32.9  34126  288.98 0855.13
2009/04/23 10:22:03.0    -365    213    186    423    462 300.3  25.2  34118  288.87 0855.13
2009/04/23 10:22:03.1    -338    225    171    407    441 303.6  24.2  34124  288.97 0855.13
2009/04/23 10:22:03.2    -272    138    240    306    388 297.0  42.2  34126  289.01 0855.13
2009/04/23 10:22:03.3    -287    190     81    345    355 303.6  13.2  34124  288.96 0855.13
2009/04/23 10:22:03.4    -317    154     27    353    355 296.0   4.5  34110  288.72 0855.13
2009/04/23 10:22:03.5    -337    214   -113    400    416 302.4 -15.9  34110  288.73 0855.13
2009/04/23 10:22:03.6    -348     96    -99    362    376 285.5 -15.4  34126  288.98 0855.13
2009/04/23 10:22:03.7    -376    134    -28    400    401 289.7  -4.1  34136  289.16 0855.13
2009/04/23 10:22:03.8    -390    222    -52    449    453 299.7  -6.7  34114  288.78 0855.18
2009/04/23 10:22:03.9    -252    168     -6    303    304 303.7  -1.3  34120  288.90 0855.18
2009/04/23 10:22:04.0    -241    -52     72    247    258 257.8  16.3  34126  289.00 0855.18
2009/04/23 10:22:04.1    -250     26    104    252    272 276.1  23.6  34130  289.07 0855.18
2009/04/23 10:22:04.2    -182    280     68    335    343 326.9  11.6  34130  289.06 0855.18
2009/04/23 10:22:04.3    -256    -38     -1    259    260 261.4  -0.3  34134  289.12 0855.18
2009/04/23 10:22:04.4    -238   -108    182    262    319 245.6  38.3  34144  289.29 0855.18
2009/04/23 10:22:04.5    -249      7    204    250    322 271.7  43.5  34142  289.25 0855.18
2009/04/23 10:22:04.6    -133     44    150    141    205 288.6  52.1  34152  289.43 0855.18
2009/04/23 10:22:04.7    -195   -178     18    265    266 227.7   3.9  34146  289.34 0855.18
2009/04/23 10:22:04.8    -154   -250    126    294    319 211.6  24.6  34134  289.12 0855.18
2009/04/23 10:22:04.9    -111   -250     80    274    286 204.1  16.3  34128  289.03 0855.18
2009/04/23 10:22:05.0     -83   -114     89    142    167 216.1  35.2  34130  289.06 0855.18
2009/04/23 10:22:05.1    -153     23     74    155    171 278.8  27.2  34144  289.30 0855.18
2009/04/23 10:22:05.2    -295     20     35    296    299 273.9   6.9  34134  289.14 0855.18
2009/04/23 10:22:05.3    -247    -90    152    263    303 250.0  32.4  34144  289.29 0855.18
2009/04/23 10:22:05.4    -187   -137     93    233    250 233.8  23.0  34132  289.09 0855.18
2009/04/23 10:22:05.5    -223     71    105    235    257 287.7  25.7  34148  289.36 0855.18
2009/04/23 10:22:05.6    -222     81    104    237    258 290.2  25.2  34156  289.51 0855.18
2009/04/23 10:22:05.7    -222     96    157    243    289 293.5  35.7  34156  289.51 0855.18
2009/04/23 10:22:05.8    -160      1    132    161    208 270.4  43.7  34164  289.63 0855.22
2009/04/23 10:22:05.9       2    -77    115     78    138 178.2  62.6  34150  289.40 0855.22
2009/04/23 10:22:06.0      17   -189    250    190    314 174.7  59.0  34136  289.15 0855.22
2009/04/23 10:22:06.1     -62   -281    203    288    352 192.5  38.7  34126  288.99 0855.22
2009/04/23 10:22:06.2      18   -335    171    336    377 176.8  29.2  34122  288.94 0855.22
2009/04/23 10:22:06.3      62   -319     88    326    338 168.9  15.1  34120  288.88 0855.22
2009/04/23 10:22:06.4     191    -99    146    216    260 117.3  37.3  34128  289.03 0855.22
2009/04/23 10:22:06.5     213   -194     14    289    290 132.4   2.8  34126  289.00 0855.22
2009/04/23 10:22:06.6     146   -103      2    179    180 125.3   0.8  34124  288.96 0855.22
2009/04/23 10:22:06.7      23    -30    -85     39     93 142.2 -77.9  34130  289.06 0855.22
2009/04/23 10:22:06.8     138    -40   -121    144    188 106.4 -48.5  34136  289.16 0855.22
2009/04/23 10:22:06.9      51   -169   -121    177    214 163.1 -42.0  34126  289.01 0855.22
2009/04/23 10:22:07.0     -68   -146    -60    162    172 204.9 -25.4  34124  288.97 0855.22
2009/04/23 10:22:07.1     -90   -252    104    268    287 199.8  22.3  34124  288.95 0855.22
2009/04/23 10:22:07.2    -170   -243    114    297    318 215.1  22.0  34130  289.05 0855.22
2009/04/23 10:22:07.3    -136   -309     86    338    349 203.9  14.4  34130  289.08 0855.22
2009/04/23 10:22:07.4      62   -151    125    164    206 157.7  41.4  34130  289.08 0855.22
2009/04/23 10:22:07.5      36   -101     56    108    121 160.0  29.3  34130  289.06 0855.22
2009/04/23 10:22:07.6      14   -111    123    112    166 172.4  53.0  34138  289.19 0855.22
2009/04/23 10:22:07.7     189   -171     93    256    272 132.2  20.7  34134  289.12 0855.22
2009/04/23 10:22:07.8     244   -241     66    344    351 134.7  11.0  34124  288.96 0855.22
2009/04/23 10:22:07.9     183   -330     86    378    388 151.0  12.9  34120  288.89 0855.22
2009/04/23 10:22:08.0      70   -278    173    287    335 165.8  34.0  34116  288.83 0855.22
2009/04/23 10:22:08.1     -11   -357     91    358    370 181.8  14.3  34118  288.86 0855.22
2009/04/23 10:22:08.2      26   -440    178    441    475 176.5  23.2  34116  288.81 0855.22
2009/04/23 10:22:08.3      42   -452    195    455    495 174.7  24.6  34114  288.78 0855.22
2009/04/23 10:22:08.4     186   -409    207    450    495 155.6  26.4  34116  288.84 0855.22
2009/04/23 10:22:08.5     -78   -421    180    429    465 190.6  24.1  34114  288.80 0855.22
2009/04/23 10:22:08.6     -23   -298    213    299    367 184.5  39.1  34118  288.86 0855.22
2009/04/23 10:22:08.7     102   -254    241    274    364 158.1  45.8  34126  289.01 0855.22
2009/04/23 10:22:08.8     -29   -395    162    397    428 184.2  23.2  34124  288.95 0855.22
2009/04/23 10:22:08.9     -12   -325    262    326    418 182.3  42.9  34128  289.04 0855.22
2009/04/23 10:22:09.0     -56   -302    301    308    430 190.5  49.3  34110  288.74 0855.22
2009/04/23 10:22:09.1     -81   -350    267    360    448 193.1  40.0  34124  288.95 0855.22
2009/04/23 10:22:09.2     -81   -337    249    347    427 193.5  39.3  34122  288.92 0855.22
2009/04/23 10:22:09.3     -17   -279    187    280    336 183.6  36.9  34126  288.98 0855.22
2009/04/23 10:22:09.4     -19   -254    170    255    306 184.4  36.7  34126  288.98 0855.22
2009/04/23 10:22:09.5      62   -215    173    224    283 163.7  41.6  34128  289.02 0855.22
2009/04/23 10:22:09.6      75   -192    126    207    242 158.6  34.4  34118  288.87 0855.22
2009/04/23 10:22:09.7      46    -97    161    108    193 154.5  63.4  34130  289.06 0855.22
2009/04/23 10:22:09.8      47     -2    118     48    127  93.5  77.0  34134  289.13 0855.22
2009/04/23 10:22:09.9     -57     41     76     71    104 306.0  52.1  34134  289.14 0855.22
2009/04/23 10:22:10.0     -27   -135    181    138    227 191.5  59.0  34128  289.02 0855.22
2009/04/23 10:22:10.1     -50   -230    160    236    285 192.3  37.4  34118  288.87 0855.22
2009/04/23 10:22:10.2     -83    -91    147    124    192 222.3  55.8  34124  288.97 0855.22
2009/04/23 10:22:10.3    -114    -73    148    136    200 237.5  52.5  34122  288.94 0855.22
2009/04/23 10:22:10.4      36     10    167     38    171  73.2  87.7  34126  289.01 0855.22
2009/04/23 10:22:10.5      69   -118    139    137    195 149.7  50.1  34126  289.01 0855.22
2009/04/23 10:22:10.6      99   -195    -34    219    222 152.9  -9.0  34120  288.91 0855.22
2009/04/23 10:22:10.8     -52   -216     -4    223    224 193.6  -1.3  34118  288.87 0855.22
2009/04/23 10:22:10.9      39   -207     82    211    226 169.1  22.5  34116  288.84 0855.22
2009/04/23 10:22:11.0     -10   -232    152    233    278 182.7  36.3  34120  288.90 0855.22
2009/04/23 10:22:11.1     -15   -252    128    253    283 183.5  29.1  34120  288.90 0855.22
2009/04/23 10:22:11.2      57   -242     74    249    260 166.7  16.6  34122  288.92 0855.22
2009/04/23 10:22:11.3     108   -261    130    283    311 157.5  26.4  34120  288.90 0855.22
2009/04/23 10:22:11.4      24   -362    178    363    404 176.1  28.0  34120  288.88 0855.22
2009/04/23 10:22:11.5      64   -271     60    279    286 166.6  12.2  34120  288.90 0855.22
2009/04/23 10:22:11.6     -41   -249    138    253    288 189.3  31.0  34122  288.92 0855.22
2009/04/23 10:22:11.7     105   -325    236    342    415 162.0  38.0  34120  288.88 0855.22
2009/04/23 10:22:11.8     201   -316    235    375    442 147.6  35.2  34116  288.83 0855.18
2009/04/23 10:22:11.9      28   -302    126    304    329 174.7  23.9  34118  288.85 0855.18
2009/04/23 10:22:12.0     -30   -242     88    244    259 187.1  20.7  34112  288.75 0855.18
2009/04/23 10:22:12.1     -79   -215     54    230    237 200.3  13.2  34118  288.87 0855.18
2009/04/23 10:22:12.2     -56   -275    186    281    336 191.6  36.6  34120  288.88 0855.18
2009/04/23 10:22:12.3     -42   -325    224    328    397 187.4  37.6  34122  288.94 0855.18
2009/04/23 10:22:12.4     -29   -223    189    225    293 187.6  44.1  34118  288.87 0855.18
2009/04/23 10:22:12.5     -23   -198    203    200    284 186.9  50.2  34120  288.88 0855.18
2009/04/23 10:22:12.6      15   -142    197    143    243 173.8  60.5  34128  289.02 0855.18
2009/04/23 10:22:12.7      76   -216    199    230    304 160.6  45.1  34126  289.00 0855.18
2009/04/23 10:22:12.8      69   -302    236    310    389 167.1  41.2  34110  288.74 0855.19
2009/04/23 10:22:12.9     179   -217    256    282    380 140.4  47.0  34116  288.82 0855.19
2009/04/23 10:22:13.0      78   -338    286    347    449 167.0  43.7  34102  288.58 0855.19
2009/04/23 10:22:13.1       5   -323    200    324    380 179.1  34.9  34110  288.72 0855.19
2009/04/23 10:22:13.2     112   -337    276    356    450 161.6  41.7  34112  288.77 0855.19
2009/04/23 10:22:13.3      43   -131    223    138    262 161.7  65.1  34110  288.72 0855.19
2009/04/23 10:22:13.4      28      0    192     29    194  89.2  90.0  34118  288.86 0855.19
2009/04/23 10:22:13.5      76     -6    172     77    188  95.2  74.5  34122  288.92 0855.19
2009/04/23 10:22:13.6      51    -72    176     89    197 144.4  71.4  34122  288.94 0855.19
2009/04/23 10:22:13.7     -17     64    113     67    131 344.9  66.7  34132  289.09 0855.19
2009/04/23 10:22:13.8     -26    -97    138    101    171 195.1  60.3  34118  288.87 0855.19
2009/04/23 10:22:13.9      60    -12     82     62    102 101.5  59.0  34122  288.92 0855.19
2009/04/23 10:22:14.0      40     30    135     50    143  53.1  79.2  34124  288.96 0855.19
2009/04/23 10:22:14.1      17    -11    152     21    153 122.5  90.0  34130  289.06 0855.19
2009/04/23 10:22:14.2     185    -11    216    186    285  93.5  55.0  34124  288.97 0855.19
2009/04/23 10:22:14.3     207     72    189    220    290  70.7  44.9  34118  288.87 0855.19
2009/04/23 10:22:14.4      58     -4    184     59    193  94.3  81.2  34132  289.11 0855.19
2009/04/23 10:22:14.5      98     45    202    108    229  65.2  69.6  34120  288.91 0855.19
2009/04/23 10:22:14.6      75     -6     73     76    105  95.2  49.4  34122  288.94 0855.19
2009/04/23 10:22:14.7     -47     22     83     52     97 295.3  64.7  34132  289.11 0855.19
2009/04/23 10:22:14.8      53     74    140     92    167  35.6  63.9  34134  289.13 0855.18
2009/04/23 10:22:14.9       1    112    120    113    164   0.9  51.6  34128  289.04 0855.18
2009/04/23 10:22:15.0      84    133    138    158    209  32.5  45.8  34122  288.94 0855.18
2009/04/23 10:22:15.1      33    103    117    109    159  17.8  52.2  34128  289.04 0855.18
2009/04/23 10:22:15.2      -7    -35    115     36    120 191.6  82.3  34142  289.26 0855.18
2009/04/23 10:22:15.3       0    -16     85     17     86 182.7  89.0  34134  289.14 0855.18
2009/04/23 10:22:15.4      58    -42     68     72     99 125.9  48.5  34122  288.92 0855.18
2009/04/23 10:22:15.5       9   -123    145    124    190 175.6  55.4  34118  288.86 0855.18
2009/04/23 10:22:15.6     -65   -109    175    127    216 210.8  60.5  34118  288.87 0855.18
2009/04/23 10:22:15.7     -65    -30    138     72    155 244.8  70.4  34122  288.92 0855.18
2009/04/23 10:22:15.8     -12    -27    153     30    155 205.5  89.1  34134  289.13 0855.18
2009/04/23 10:22:15.9     -68     -7     24     69     74 263.9  19.2  34138  289.21 0855.18
2009/04/23 10:22:16.0     111     36     59    117    131  71.8  28.7  34138  289.21 0855.18
2009/04/23 10:22:16.1       7     90     73     91    116   4.5  43.7  34138  289.21 0855.18
2009/04/23 10:22:16.2     -42      7     40     43     58 280.6  49.0  34132  289.11 0855.18
2009/04/23 10:22:16.3     -25    -16     71     30     77 237.5  77.0  34136  289.16 0855.18
2009/04/23 10:22:16.4      12     59     24     61     65  11.5  23.0  34128  289.02 0855.18
2009/04/23 10:22:16.5      95     28    -29    100    104  73.2 -21.2  34128  289.02 0855.18
2009/04/23 10:22:16.6      23    -70     56     74     92 161.7  41.7  34124  288.97 0855.18
2009/04/23 10:22:16.7       9    -62     91     63    110 171.1  62.1  34132  289.09 0855.18
2009/04/23 10:22:16.8      78    -40    163     88    185 117.1  69.3  34132  289.11 0855.18
2009/04/23 10:22:16.9      28    -40    108     50    119 144.8  73.1  34136  289.16 0855.18
2009/04/23 10:22:17.0      47    -44     94     65    114 133.1  62.6  34136  289.18 0855.18
2009/04/23 10:22:17.1       3    -48    133     49    141 176.4  79.2  34144  289.30 0855.18
2009/04/23 10:22:17.2     -41   -124    111    131    171 198.7  44.5  34120  288.91 0855.18
2009/04/23 10:22:17.3     -55   -124     84    136    159 204.1  34.8  34118  288.87 0855.18
2009/04/23 10:22:17.4     -67   -150     91    165    188 204.1  31.4  34118  288.86 0855.18
2009/04/23 10:22:17.5     -67   -154    105    169    198 203.6  35.0  34118  288.87 0855.18
2009/04/23 10:22:17.6     -68   -150     62    165    176 204.5  21.5  34116  288.84 0855.18
2009/04/23 10:22:17.7     -21   -182     29    184    187 186.7   9.0  34114  288.80 0855.18
2009/04/23 10:22:17.8     -20   -166    -33    168    172 186.9 -11.3  34116  288.82 0855.18
2009/04/23 10:22:17.9       0   -150      4    151    152 180.0   1.8  34118  288.86 0855.18
2009/04/23 10:22:18.0     -67   -198     47    210    216 198.7  12.6  34112  288.75 0855.18
2009/04/23 10:22:18.1     -67   -208    170    219    277 198.0  41.7  34120  288.88 0855.18
2009/04/23 10:22:18.2     -77   -171    184    188    263 204.5  49.8  34122  288.93 0855.18
2009/04/23 10:22:18.3    -210   -147     84    257    271 234.9  18.1  34118  288.87 0855.18
2009/04/23 10:22:18.4    -186   -137    -32    232    235 233.6  -8.0  34118  288.87 0855.18
2009/04/23 10:22:18.5    -169   -253     14    305    306 213.8   2.8  34122  288.92 0855.18
2009/04/23 10:22:18.6    -185   -238    104    302    320 217.9  19.1  34124  288.97 0855.18
2009/04/23 10:22:18.7    -192   -162    -32    252    255 229.8  -7.3  34122  288.93 0855.18
2009/04/23 10:22:18.8    -205   -130    -22    243    245 237.6  -5.2  34124  288.97 0855.19
2009/04/23 10:22:18.9    -219   -167    -35    276    279 232.7  -7.3  34140  289.22 0855.19
2009/04/23 10:22:19.0    -194   -164    -27    255    257 229.8  -6.2  34140  289.24 0855.19
2009/04/23 10:22:19.1    -195   -186     23    270    272 226.4   4.9  34136  289.15 0855.19
2009/04/23 10:22:19.2    -238   -275    -42    364    367 220.9  -6.6  34122  288.93 0855.19
2009/04/23 10:22:19.3    -289   -187    -95    345    359 237.1 -15.5  34126  288.98 0855.19
2009/04/23 10:22:19.4    -326   -253    -44    413    416 232.2  -6.1  34122  288.94 0855.19
2009/04/23 10:22:19.5    -365   -311   -146    480    502 229.6 -17.0  34124  288.95 0855.19
2009/04/23 10:22:19.6    -267   -255   -107    370    385 226.3 -21.0  34132  289.10 0855.19
2009/04/23 10:22:19.7    -291   -196     52    352    356 236.0   8.5  34132  289.10 0855.19
2009/04/23 10:22:19.8    -211   -192     24    286    288 227.8   5.0  34132  289.09 0855.19
2009/04/23 10:22:19.9    -135   -214    -71    254    263 212.3 -20.4  34126  288.98 0855.19
2009/04/23 10:22:20.0    -185    -68    -55    198    206 249.8 -15.5  34122  288.94 0855.19
2009/04/23 10:22:20.1    -300      3    -36    301    304 270.6  -6.9  34154  289.47 0855.19
2009/04/23 10:22:20.2    -341     31    -95    343    356 275.2 -15.5  34144  289.30 0855.19
2009/04/23 10:22:20.3    -307     59    -88    313    326 281.0 -15.8  34142  289.25 0855.19
2009/04/23 10:22:20.4    -109    139    -60    177    186 321.9 -23.3  34130  289.06 0855.19
2009/04/23 10:22:20.5    -224    295    151    371    400 322.8  23.5  34198  290.21 0855.19
2009/04/23 10:22:20.6    -303    213    166    371    406 305.1  25.8  34212  290.45 0855.19
2009/04/23 10:22:20.7    -332    170    116    374    392 297.2  17.3  34202  290.28 0855.19
2009/04/23 10:22:20.8    -248    134    132    282    311 298.4  27.1  34182  289.93 0855.19
2009/04/23 10:22:20.9    -248    131     76    281    292 298.0  15.2  34180  289.90 0855.19
2009/04/23 10:22:21.0    -292     85    -32    305    307 286.2  -6.1  34182  289.95 0855.19
2009/04/23 10:22:21.1    -210    -12     18    211    212 266.5   5.0  34164  289.65 0855.19
2009/04/23 10:22:21.2     -87    105    113    137    177 320.3  43.8  34146  289.35 0855.19
2009/04/23 10:22:21.3    -151    197     70    249    259 322.6  15.8  34124  288.97 0855.19
2009/04/23 10:22:21.4    -199    125     60    236    244 302.2  14.3  34128  289.03 0855.19
2009/04/23 10:22:21.5    -288    142     87    322    334 296.2  15.2  34136  289.16 0855.19
2009/04/23 10:22:21.6    -246    151     88    289    303 301.6  17.1  34132  289.10 0855.19
2009/04/23 10:22:21.7    -236    156    113    284    305 303.5  23.0  34130  289.05 0855.19
2009/04/23 10:22:21.8    -232    194     77    303    313 310.0  14.3  34152  289.44 0855.19
2009/04/23 10:22:21.9    -272    122     81    299    310 294.2  15.3  34148  289.37 0855.19
2009/04/23 10:22:22.0    -254     72     34    265    268 285.9   7.5  34148  289.36 0855.19
2009/04/23 10:22:22.1    -250     31     40    252    256 277.1   9.0  34166  289.68 0855.19
2009/04/23 10:22:22.2    -220    102    -22    243    245 294.8  -5.2  34178  289.88 0855.19
2009/04/23 10:22:22.3    -249     99    -55    269    275 291.8 -11.6  34176  289.85 0855.19
2009/04/23 10:22:22.4    -274    154    -20    315    316 299.3  -3.8  34148  289.37 0855.19
2009/04/23 10:22:22.5    -214    108    -58    240    247 296.9 -13.7  34138  289.20 0855.19
2009/04/23 10:22:22.6    -189     50    -20    196    198 285.1  -6.0  34142  289.28 0855.19
2009/04/23 10:22:22.7    -169    -56    -80    179    196 251.6 -29.7  34160  289.57 0855.19
2009/04/23 10:22:22.8    -144   -108    -97    180    204 233.1 -35.2  34160  289.57 0855.20
2009/04/23 10:22:22.9     -58   -129    -30    142    146 204.5 -11.9  34176  289.84 0855.20
2009/04/23 10:22:23.0     -29   -143    -34    146    150 191.5 -13.3  34182  289.94 0855.20
2009/04/23 10:22:23.1    -163   -198    -18    257    258 219.4  -4.1  34170  289.75 0855.20
2009/04/23 10:22:23.2    -168   -157    -30    231    233 226.9  -7.5  34172  289.79 0855.20
2009/04/23 10:22:23.3    -135    -49   -131    144    194 250.0 -51.5  34166  289.69 0855.20
2009/04/23 10:22:23.4    -156   -156    -64    222    232 225.0 -16.0  34170  289.74 0855.20
2009/04/23 10:22:23.5    -178    -81    -61    196    205 245.4 -22.5  34172  289.77 0855.20
2009/04/23 10:22:23.6    -198    -41    -30    203    206 258.3  -8.6  34170  289.75 0855.20
2009/04/23 10:22:23.7    -289    -88    -19    303    304 253.1  -3.7  34178  289.88 0855.20
2009/04/23 10:22:23.8    -178   -129     59    221    229 234.0  15.0  34182  289.94 0855.20
2009/04/23 10:22:23.9    -179   -139     35    227    230 232.2   8.9  34184  289.99 0855.20
2009/04/23 10:22:24.0    -203   -146     63    251    259 234.3  14.2  34196  290.17 0855.20
2009/04/23 10:22:24.1    -275    -98     46    293    297 250.3   9.0  34180  289.92 0855.20
2009/04/23 10:22:24.2    -309     24    -69    311    319 274.6 -12.6  34156  289.51 0855.20
2009/04/23 10:22:24.3    -201      3    -60    202    210 270.9 -21.7  34152  289.45 0855.20
2009/04/23 10:22:24.4    -112    -52    -16    124    126 245.2  -7.7  34156  289.50 0855.20
2009/04/23 10:22:24.5     -67    -82    -44    107    115 219.2 -27.5  34152  289.45 0855.20
2009/04/23 10:22:24.6     -40   -191    -54    196    204 191.8 -15.4  34150  289.40 0855.20
2009/04/23 10:22:24.7    -143   -230    -86    272    285 211.9 -22.8  34158  289.53 0855.20
2009/04/23 10:22:24.8    -128   -323     13    348    349 201.7   2.2  34164  289.65 0855.23
2009/04/23 10:22:24.9    -110   -333     42    351    354 198.4   6.9  34178  289.86 0855.23
2009/04/23 10:22:25.0    -123   -303      0    328    329 202.1   0.0  34188  290.05 0855.23
2009/04/23 10:22:25.1    -200   -361    -89    413    423 209.0 -12.2  34178  289.87 0855.23
2009/04/23 10:22:25.2    -190   -354      8    403    404 208.3   1.2  34172  289.77 0855.23
2009/04/23 10:22:25.3    -132   -321    -19    348    349 202.3  -3.3  34178  289.89 0855.23
2009/04/23 10:22:25.4    -127   -384    -43    405    408 198.4  -6.1  34168  289.72 0855.23
2009/04/23 10:22:25.5     -28   -376    -41    377    380 184.4  -6.3  34164  289.64 0855.23
2009/04/23 10:22:25.6      71   -373     92    380    392 169.1  13.7  34160  289.57 0855.23
2009/04/23 10:22:25.7     134   -370    176    394    431 160.1  25.7  34140  289.24 0855.23
2009/04/23 10:22:25.8      68   -352    131    359    382 169.0  21.0  34152  289.45 0855.23
2009/04/23 10:22:25.9     105   -341    160    358    392 162.8  25.8  34126  288.99 0855.23
2009/04/23 10:22:26.0      71   -272    150    282    319 165.3  30.3  34130  289.05 0855.23
2009/04/23 10:22:26.1      96   -223    187    244    307 156.6  41.6  34132  289.09 0855.23
2009/04/23 10:22:26.2     -16   -149    197    150    247 186.2  59.0  34142  289.28 0855.23
2009/04/23 10:22:26.3      89   -255    158    271    313 160.8  32.8  34134  289.12 0855.23
2009/04/23 10:22:26.4     125   -245    116    276    299 152.9  24.1  34132  289.10 0855.23
2009/04/23 10:22:26.5     137   -288    157    320    356 154.5  28.1  34126  289.01 0855.23
2009/04/23 10:22:26.6     119   -252    171    279    327 154.7  34.4  34128  289.02 0855.23
2009/04/23 10:22:26.7     180   -189    185    262    320 136.3  38.6  34132  289.10 0855.23
2009/04/23 10:22:26.8     126   -287    164    314    354 156.3  29.6  34130  289.08 0855.24
2009/04/23 10:22:26.9     101   -290    132    308    335 160.8  24.6  34130  289.05 0855.24
2009/04/23 10:22:27.0      80   -279    140    291    322 164.0  27.4  34126  288.98 0855.24
2009/04/23 10:22:27.1     129   -295    170    323    365 156.4  30.0  34130  289.06 0855.24
2009/04/23 10:22:27.2     109   -274    150    296    331 158.2  29.1  34130  289.05 0855.24
2009/04/23 10:22:27.3     102   -266    139    285    317 159.0  28.0  34132  289.09 0855.24
2009/04/23 10:22:27.4      79   -262    123    274    300 163.1  25.7  34126  288.98 0855.24
2009/04/23 10:22:27.5      58   -294     88    300    313 168.7  16.4  34134  289.14 0855.24
2009/04/23 10:22:27.6      68   -301     92    309    323 167.1  16.6  34134  289.14 0855.24
2009/04/23 10:22:27.7      22   -319    143    320    350 176.0  25.8  34132  289.11 0855.24
2009/04/23 10:22:27.8      65   -323    114    330    350 168.6  19.1  34132  289.10 0855.24
2009/04/23 10:22:27.9      27   -287    119    289    312 174.6  23.7  34132  289.09 0855.24
2009/04/23 10:22:28.0      41   -293    104    297    314 171.9  20.1  34134  289.12 0855.24
2009/04/23 10:22:28.1      43   -320     76    323    332 172.2  13.3  34136  289.15 0855.24
2009/04/23 10:22:28.2      24   -354     83    355    365 176.0  13.3  34132  289.11 0855.24
2009/04/23 10:22:28.3     -47   -255    158    260    304 190.5  34.2  34136  289.15 0855.24
2009/04/23 10:22:28.4      82    -97    161    128    205 139.9  57.5  34144  289.31 0855.24
2009/04/23 10:22:28.5       2   -135    114    136    177 179.1  44.3  34138  289.21 0855.24
2009/04/23 10:22:28.6     -68   -162    103    176    203 202.9  33.4  34140  289.23 0855.24
2009/04/23 10:22:28.7      -6   -161    105    162    193 182.2  35.6  34140  289.23 0855.24
2009/04/23 10:22:28.8      12   -192    123    193    228 176.4  35.6  34136  289.18 0855.26
2009/04/23 10:22:28.9      61   -251    185    259    318 166.2  39.1  34138  289.20 0855.26
2009/04/23 10:22:29.0      20   -160    189    162    248 172.9  55.4  34134  289.13 0855.26
2009/04/23 10:22:29.1     -30    -99    130    104    166 196.9  56.9  34144  289.30 0855.26
2009/04/23 10:22:29.2      38     -7    134     39    139 101.5  83.3  34152  289.43 0855.26
2009/04/23 10:22:29.3      23    -25    115     35    120 136.8  82.7  34152  289.45 0855.26
2009/04/23 10:22:29.4      -1   -120    174    121    211 180.9  62.4  34138  289.21 0855.26
2009/04/23 10:22:29.5     -63   -203    142    213    255 197.4  36.7  34136  289.17 0855.26
2009/04/23 10:22:29.6     -37   -218    147    222    266 189.7  36.5  34132  289.10 0855.26
2009/04/23 10:22:29.7     -68   -176    123    189    225 201.2  35.7  34132  289.09 0855.26
2009/04/23 10:22:29.8     -99   -186    169    211    270 208.1  43.0  34136  289.15 0855.26
2009/04/23 10:22:29.9     -62   -167    137    179    225 200.3  41.6  34138  289.19 0855.26
2009/04/23 10:22:30.0     -12   -158    190    159    247 184.4  56.1  34134  289.14 0855.26
2009/04/23 10:22:30.1      -5   -231    135    232    268 181.4  32.9  34134  289.12 0855.26
2009/04/23 10:22:30.2      23   -257    183    259    317 174.7  38.7  34140  289.24 0855.26
2009/04/23 10:22:30.3       0   -215    131    216    252 180.0  34.4  34140  289.22 0855.26
2009/04/23 10:22:30.4      24   -173    132    175    219 172.0  40.7  34138  289.19 0855.26
2009/04/23 10:22:30.5     -17   -209    140    210    252 184.9  36.5  34134  289.14 0855.26
2009/04/23 10:22:30.6     -37   -165    123    170    209 192.7  39.5  34134  289.14 0855.26
2009/04/23 10:22:30.7     -38   -169     92    174    196 192.7  30.1  34134  289.14 0855.26
2009/04/23 10:22:30.9       9   -209    118    210    240 177.4  32.1  34134  289.14 0855.27
2009/04/23 10:22:30.9     -90   -154    142    179    228 210.3  42.7  34148  289.38 0855.27
2009/04/23 10:22:31.0     -65   -144     54    158    168 204.3  18.9  34140  289.23 0855.27
2009/04/23 10:22:31.1     -60    -90     22    109    112 213.8  11.6  34140  289.23 0855.27
2009/04/23 10:22:31.2    -105    -32     57    110    123 252.7  29.3  34148  289.36 0855.27
2009/04/23 10:22:31.3    -199    -53     84    207    223 255.0  23.0  34156  289.50 0855.27
2009/04/23 10:22:31.4    -219    -51     82    226    240 256.7  20.7  34160  289.58 0855.27
2009/04/23 10:22:31.5    -194      3     86    195    213 270.9  25.2  34156  289.52 0855.27
2009/04/23 10:22:31.6    -166    -22     82    168    186 262.3  27.4  34158  289.53 0855.27
2009/04/23 10:22:31.7    -239    -33      2    242    243 262.0   0.5  34156  289.51 0855.27
2009/04/23 10:22:31.8    -165    -21     75    167    183 262.5  25.7  34162  289.62 0855.27
2009/04/23 10:22:32.0    -131    -14    117    132    176 263.8  46.2  34154  289.48 0855.27
2009/04/23 10:22:32.0     -69    -43    151     82    171 237.6  69.3  34172  289.77 0855.27
2009/04/23 10:22:32.1     -13     -2    114     14    114 258.5  90.0  34172  289.77 0855.27
2009/04/23 10:22:32.2      -1    -18     65     19     67 184.5  82.8  34168  289.72 0855.27
2009/04/23 10:22:32.3    -114     72     83    136    159 302.4  34.2  34164  289.65 0855.27
2009/04/23 10:22:32.4    -116     91     73    148    165 308.2  28.2  34192  290.13 0855.27
2009/04/23 10:22:32.5    -118     85     61    146    158 305.9  23.8  34188  290.06 0855.27
2009/04/23 10:22:32.6    -192     22     25    194    196 276.6   7.5  34170  289.74 0855.27
2009/04/23 10:22:32.7    -148      5      7    149    150 272.1   2.9  34170  289.74 0855.27
2009/04/23 10:22:32.8     -69     51     44     86     96 306.4  29.3  34168  289.70 0855.29
2009/04/23 10:22:32.9     -38     34     29     52     59 312.2  31.4  34176  289.84 0855.29
2009/04/23 10:22:33.0     -44     36     23     58     62 309.5  23.0  34180  289.91 0855.29
2009/04/23 10:22:33.2      -8     30     24     32     40 344.9  40.7  34180  289.91 0855.29
2009/04/23 10:22:33.2     -15     35     45     39     59 336.4  54.3  34182  289.94 0855.29
2009/04/23 10:22:33.3      32     -2     47     33     57  94.4  61.5  34176  289.85 0855.29
2009/04/23 10:22:33.4      15    -15     39     22     44 135.0  67.7  34170  289.75 0855.29
2009/04/23 10:22:33.5      19      4     41     20     45  76.7  71.9  34172  289.77 0855.29
2009/04/23 10:22:33.6      -7     -6     47     10     48 226.9  89.0  34184  289.99 0855.29
2009/04/23 10:22:33.7      -3    -10     33     11     34 198.5  81.0  34182  289.96 0855.30
2009/04/23 10:22:33.8      25    -17     35     31     46 124.2  53.3  34178  289.87 0855.30
2009/04/23 10:22:33.9      -4    -57     40     58     70 184.5  38.6  34166  289.67 0855.30
2009/04/23 10:22:34.0     -18    -49     27     53     59 200.0  29.3  34162  289.60 0855.30
2009/04/23 10:22:34.1     -46    -36    -16     59     62 232.2 -15.4  34152  289.45 0855.30
2009/04/23 10:22:34.2     -55    -51     -4     76     77 226.9  -3.1  34158  289.53 0855.30
2009/04/23 10:22:34.4    -142   -121     -7    187    188 229.6  -2.2  34192  290.11 0855.30
2009/04/23 10:22:34.4    -157   -123     10    200    201 232.0   2.9  34198  290.21 0855.30
2009/04/23 10:22:34.5    -143   -142     36    202    206 225.1  10.3  34206  290.36 0855.30
2009/04/23 10:22:34.6    -124   -152     36    197    201 219.2  10.6  34180  289.92 0855.30
2009/04/23 10:22:34.7    -120   -203     82    237    252 210.7  19.2  34144  289.31 0855.30
2009/04/23 10:22:34.8    -111   -154    155    190    245 215.8  43.7  34146  289.33 0855.30
2009/04/23 10:22:34.9     -35   -197    177    201    267 190.2  45.9  34148  289.36 0855.30
2009/04/23 10:22:35.0     -61   -214    139    223    262 196.0  35.2  34146  289.32 0855.30
2009/04/23 10:22:35.1    -138   -218     92    259    274 212.3  20.4  34150  289.39 0855.30
2009/04/23 10:22:35.2    -108   -166    115    199    229 213.2  32.7  34146  289.33 0855.30
2009/04/23 10:22:35.3     -96    -43    124    106    163 246.0  54.8  34154  289.46 0855.30
2009/04/23 10:22:35.4      46      4    120     47    128  84.8  77.6  34196  290.19 0855.30
2009/04/23 10:22:35.6     104     48    112    115    160  64.8  49.4  34206  290.35 0855.30
2009/04/23 10:22:35.6     103   -100    134    144    196 134.0  47.9  34208  290.38 0855.30
2009/04/23 10:22:35.7      86     12    165     87    186  81.6  70.0  34232  290.79 0855.29
2009/04/23 10:22:35.8     168     26    151    170    227  81.2  46.2  34232  290.79 0855.29
2009/04/23 10:22:35.9     210     59    152    219    266  74.3  38.0  34248  291.07 0855.29
2009/04/23 10:22:36.0     195     24    175    197    263  82.8  46.2  34240  290.92 0855.29
2009/04/23 10:22:36.1     276    -47    118    280    303  99.7  24.3  34198  290.22 0855.29
2009/04/23 10:22:36.2     240    -75    127    252    282 107.5  29.1  34184  289.98 0855.29
2009/04/23 10:22:36.3      92    -44    156    103    186 115.8  63.9  34170  289.75 0855.29
2009/04/23 10:22:36.4      47    -59    106     76    130 141.3  60.6  34152  289.43 0855.29
2009/04/23 10:22:36.5      99     22    107    102    147  77.2  51.6  34196  290.19 0855.29
2009/04/23 10:22:36.6      83     52     90     99    133  58.0  47.5  34226  290.69 0855.29
2009/04/23 10:22:36.7      57     36     49     68     83  57.6  39.7  34236  290.86 0855.29
2009/04/23 10:22:36.8      59     55     60     81    100  46.8  40.1  34222  290.62 0855.29
2009/04/23 10:22:36.9      74     20     34     77     84  74.9  24.6  34228  290.72 0855.29
2009/04/23 10:22:37.0      25    -35     -4     44     45 143.9  -5.2  34218  290.57 0855.29
2009/04/23 10:22:37.1       3    -38      1     39     40 175.5   1.8  34226  290.70 0855.29
2009/04/23 10:22:37.2      -9     -3      1     10     11 251.6   6.9  34232  290.79 0855.29
2009/04/23 10:22:37.3       9     30     -4     32     33  16.9  -7.3  34236  290.87 0855.29
2009/04/23 10:22:37.4      20     21     16     30     34  43.2  29.3  34260  291.26 0855.29
2009/04/23 10:22:37.5      38    -17     46     42     62 114.4  52.2  34254  291.16 0855.29
2009/04/23 10:22:37.6     101      1     57    102    116  89.1  31.4  34240  290.92 0855.29
2009/04/23 10:22:37.7     167     40      5    172    173  76.3   1.8  34242  290.96 0855.29
2009/04/23 10:22:37.8     181     60     24    191    193  71.6   7.2  34258  291.23 0855.29
2009/04/23 10:22:37.9     128      5     54    129    139  87.5  23.6  34256  291.21 0855.29
2009/04/23 10:22:38.0      93      4     45     94    104  87.4  27.3  34258  291.23 0855.29
2009/04/23 10:22:38.1     131    -19     67    133    148  98.4  28.7  34272  291.47 0855.29
2009/04/23 10:22:38.2     164     36    141    169    220  77.4  43.8  34266  291.38 0855.29
2009/04/23 10:22:38.3      77    213    129    227    261  20.0  32.3  34242  290.97 0855.29
2009/04/23 10:22:38.4     113    126    183    170    249  41.9  52.2  34264  291.33 0855.29
2009/04/23 10:22:38.6     231     -3    108    232    255  90.9  27.0  34264  291.34 0855.29
2009/04/23 10:22:38.7     270    113    -19    293    294  67.2  -3.7  34228  290.73 0855.29
2009/04/23 10:22:38.8     107    176     52    207    214  31.4  14.3  34226  290.70 0855.29
2009/04/23 10:22:38.9     163    235     19    287    288  34.7   3.8  34240  290.92 0855.29
2009/04/23 10:22:39.0     214    218     38    306    309  44.5   7.1  34246  291.04 0855.29
2009/04/23 10:22:39.1     265    220    130    345    368  50.2  21.5  34250  291.10 0855.29
2009/04/23 10:22:39.2     248    131    105    281    299  62.0  21.3  34244  291.00 0855.29
2009/04/23 10:22:39.3     109     60     59    125    138  61.1  27.1  34244  291.01 0855.29
2009/04/23 10:22:39.4      53    264     47    270    275  11.3   9.9  34224  290.65 0855.29
2009/04/23 10:22:39.5      99    215     31    237    239  24.7   7.5  34238  290.90 0855.29
2009/04/23 10:22:39.6     192    188     30    269    271  45.6   6.5  34230  290.75 0855.29
2009/04/23 10:22:39.7     165    205    -28    264    266  38.7  -6.1  34200  290.24 0855.29
2009/04/23 10:22:39.8     204    141     28    249    251  55.4   6.5  34202  290.29 0855.27
2009/04/23 10:22:39.9     232     50     79    238    251  77.7  18.4  34232  290.80 0855.27
2009/04/23 10:22:40.0     116    195     11    227    228  30.8   2.9  34226  290.70 0855.27
2009/04/23 10:22:40.1     133     -9     94    134    163  93.9  38.4  34230  290.77 0855.27
2009/04/23 10:22:40.2     214     16    100    215    237  85.7  26.4  34200  290.26 0855.27
2009/04/23 10:22:40.3     305     42    107    308    327  82.1  19.2  34214  290.49 0855.27
2009/04/23 10:22:40.4     300    -26    129    302    328  95.0  24.5  34212  290.44 0855.27
2009/04/23 10:22:40.5     251      3     59    252    259  89.2  13.2  34224  290.65 0855.27
2009/04/23 10:22:40.6     209     35     27    212    214  80.4   7.5  34222  290.62 0855.27
2009/04/23 10:22:40.7     208    -99     94    231    249 115.4  23.1  34220  290.59 0855.27
2009/04/23 10:22:40.8     229    -69    189    240    305 106.8  42.4  34228  290.71 0855.27
2009/04/23 10:22:40.9     213    -13    100    214    236  93.7  27.0  34182  289.96 0855.27
2009/04/23 10:22:41.0     253     55    137    259    293  77.7  30.2  34224  290.66 0855.27
2009/04/23 10:22:41.1     241     68    102    251    270  74.1  23.1  34240  290.93 0855.27
2009/04/23 10:22:41.2     196     49    112    203    231  75.8  31.4  34236  290.87 0855.27
2009/04/23 10:22:41.3     238     82     96    252    269  71.0  22.0  34278  291.56 0855.27
2009/04/23 10:22:41.4     332     43     89    335    347  82.5  14.9  34248  291.05 0855.27
2009/04/23 10:22:41.5     254     53    132    260    291  78.1  29.2  34256  291.21 0855.27
2009/04/23 10:22:41.6     288    -87    215    302    370 106.9  38.8  34262  291.30 0855.27
2009/04/23 10:22:41.7     201    -29    242    204    316  98.4  55.6  34234  290.82 0855.27
2009/04/23 10:22:41.8     302     46    181    306    355  81.2  33.4  34262  291.32 0855.23
2009/04/23 10:22:41.9     231     -3    181    232    294  90.9  41.7  34252  291.14 0855.23
2009/04/23 10:22:42.0     178    -59    155    188    243 108.4  43.7  34258  291.23 0855.23
2009/04/23 10:22:42.1     136     35    161    141    214  75.4  54.3  34268  291.42 0855.23
2009/04/23 10:22:42.2     140    107    109    177    207  52.7  34.8  34268  291.40 0855.23
2009/04/23 10:22:42.3     214     65    177    224    285  73.1  42.4  34252  291.12 0855.23
2009/04/23 10:22:42.4     237     76    165    250    299  72.1  36.5  34238  290.90 0855.23
2009/04/23 10:22:42.5     120     -9    193    121    227  94.3  64.7  34246  291.03 0855.23
2009/04/23 10:22:42.6      45     25    171     52    178  61.1  82.8  34240  290.94 0855.23
2009/04/23 10:22:42.7      16     39    126     43    133  22.7  81.2  34222  290.62 0855.23
2009/04/23 10:22:42.8       3      3    100      5    100  45.0  90.0  34210  290.43 0855.23
2009/04/23 10:22:42.9       0     25     80     26     84 359.1  80.7  34212  290.47 0855.23
2009/04/23 10:22:43.0      -6     31     54     32     62 348.5  66.8  34216  290.53 0855.23
2009/04/23 10:22:43.1       8     59     57     60     82   8.0  49.0  34214  290.50 0855.23
2009/04/23 10:22:43.2      86     40     69     96    118  64.8  39.7  34204  290.33 0855.23
2009/04/23 10:22:43.3      81     40     80     91    121  63.8  45.8  34200  290.25 0855.23
2009/04/23 10:22:43.4      52     44     78     69    104  49.6  53.3  34208  290.38 0855.23
2009/04/23 10:22:43.5      78     15     89     80    119  78.6  53.3  34200  290.26 0855.23
2009/04/23 10:22:43.6     102     34     88    108    139  71.4  43.7  34186  290.01 0855.23
2009/04/23 10:22:43.7      93     34     65    100    119  69.6  36.0  34196  290.19 0855.23
2009/04/23 10:22:43.8      67     22     62     71     94  71.6  45.8  34206  290.36 0855.21
2009/04/23 10:22:43.9      53     60     61     81    101  41.4  40.7  34252  291.13 0855.21
2009/04/23 10:22:44.0      60     21     45     64     78  70.0  38.6  34232  290.79 0855.21
2009/04/23 10:22:44.1      61    -18     67     64     92 106.8  51.2  34224  290.67 0855.21
2009/04/23 10:22:44.2      24    -51     24     57     61 154.5  23.1  34222  290.62 0855.21
2009/04/23 10:22:44.3      12    -95     18     96     98 172.4  11.1  34208  290.40 0855.21
2009/04/23 10:22:44.4     -32    -96     16    102    104 198.7   9.0  34204  290.33 0855.21
2009/04/23 10:22:44.5     -53    -33     17     63     66 237.6  15.3  34220  290.58 0855.21
2009/04/23 10:22:44.6     -27    -25     12     37     39 226.9  18.4  34212  290.45 0855.21
2009/04/23 10:22:44.7     -57    -38      8     69     70 235.8   6.9  34208  290.40 0855.21
2009/04/23 10:22:44.8     -72    -68    -20    100    102 226.9 -11.3  34208  290.38 0855.21
2009/04/23 10:22:44.9     -87    -78    -12    118    119 228.2  -6.2  34202  290.28 0855.21
2009/04/23 10:22:45.0     -97    -70     43    120    127 234.1  20.0  34192  290.11 0855.21
2009/04/23 10:22:45.1    -115    -38     86    122    149 251.4  39.1  34188  290.04 0855.21
2009/04/23 10:22:45.2    -103    -14     76    105    129 262.0  39.7  34194  290.16 0855.21
2009/04/23 10:22:45.3     -80    -32     65     87    108 248.3  40.7  34196  290.18 0855.21
2009/04/23 10:22:45.4     -52     -4     42     53     67 265.7  42.7  34200  290.25 0855.21
2009/04/23 10:22:45.5      42      3     36     43     56  85.6  43.8  34190  290.08 0855.21
2009/04/23 10:22:45.6      57      4     43     58     72  85.7  39.7  34190  290.08 0855.21
2009/04/23 10:22:45.7      37    -17     47     41     62 115.4  53.3  34188  290.04 0855.21
2009/04/23 10:22:45.8       0    -44     32     45     55 180.0  38.6  34188  290.04 0855.22
2009/04/23 10:22:45.9     -79    -26     80     84    116 251.8  49.0  34202  290.28 0855.22
2009/04/23 10:22:46.0    -110    -50     71    121    140 245.6  33.4  34194  290.14 0855.22
2009/04/23 10:22:46.1     -96    -10     43     97    106 263.9  25.7  34200  290.25 0855.22
2009/04/23 10:22:46.2     -12      3     23     13     26 285.1  66.8  34200  290.26 0855.22
2009/04/23 10:22:46.3      58      4     38     59     70  85.7  35.6  34194  290.14 0855.22
2009/04/23 10:22:46.4      85      3     45     86     97  87.4  29.8  34180  289.91 0855.22
2009/04/23 10:22:46.5     101    -19     62    103    120 101.0  33.5  34156  289.50 0855.22
2009/04/23 10:22:46.6     104    -14     84    106    135  98.0  42.7  34150  289.40 0855.22
2009/04/23 10:22:46.7      96     -7     93     97    134  94.3  49.4  34166  289.67 0855.22
2009/04/23 10:22:46.8      90    -23    110     94    144 104.6  55.4  34170  289.75 0855.22
2009/04/23 10:22:46.9     131    -47     79    140    160 109.9  31.9  34166  289.69 0855.22
2009/04/23 10:22:47.0     100    -26    104    104    147 105.0  50.1  34172  289.77 0855.22
2009/04/23 10:22:47.1      87    -12     92     88    127  98.4  51.2  34168  289.72 0855.22
2009/04/23 10:22:47.2     113    -11     97    114    149  95.7  44.3  34184  289.97 0855.22
2009/04/23 10:22:47.3     110    -17     94    112    146  98.8  43.8  34186  290.02 0855.22
2009/04/23 10:22:47.4      90    -17     82     92    123 101.0  46.9  34190  290.08 0855.22
2009/04/23 10:22:47.5      59     29     59     66     88  63.8  46.9  34188  290.06 0855.22
2009/04/23 10:22:47.6      75     45     35     88     94  58.9  22.0  34184  289.97 0855.22
2009/04/23 10:22:47.7      75     75     32    107    112  45.1  16.8  34184  289.99 0855.22
2009/04/23 10:22:47.8      55     57     -3     80     81  44.2  -2.2  34184  289.97 0855.23
2009/04/23 10:22:47.9      42     97    -47    106    115  23.6 -30.1  34184  289.97 0855.23
2009/04/23 10:22:48.0     117     74    -48    139    147  57.6 -23.3  34186  290.01 0855.23
2009/04/23 10:22:48.1     124     67    -23    141    143  61.6  -9.3  34184  289.97 0855.23
2009/04/23 10:22:48.2     155     77     35    174    178  63.4  11.4  34186  290.02 0855.23
2009/04/23 10:22:48.3     111     96      0    148    149  49.1   0.2  34190  290.08 0855.23
2009/04/23 10:22:48.4     139     71     47    157    165  62.9  16.8  34182  289.94 0855.23
2009/04/23 10:22:48.5     109     46     74    119    140  66.9  35.5  34186  290.02 0855.23
2009/04/23 10:22:48.6      89     33     56     96    111  69.6  32.9  34190  290.08 0855.23
2009/04/23 10:22:48.7     117     16     43    119    126  82.1  20.4  34198  290.21 0855.23
2009/04/23 10:22:48.8     105      3     46    106    115  88.3  25.1  34200  290.25 0855.23
2009/04/23 10:22:48.9     110     20     51    112    123  79.4  25.7  34190  290.08 0855.23
2009/04/23 10:22:49.0     116      8     42    117    124  85.6  20.0  34188  290.04 0855.23
2009/04/23 10:22:49.1     118      8     66    119    136  86.1  31.4  34170  289.74 0855.23
2009/04/23 10:22:49.2     144     11     81    145    166  85.6  31.9  34158  289.53 0855.23
2009/04/23 10:22:49.3     122    -21     62    124    138 100.1  28.7  34168  289.72 0855.23
2009/04/23 10:22:49.4     143     -2     39    144    150  90.9  15.2  34170  289.74 0855.23
2009/04/23 10:22:49.5     143     -4     28    144    147  91.7  11.1  34168  289.72 0855.23
2009/04/23 10:22:49.6     153      8     67    154    167  87.0  24.9  34156  289.50 0855.23
2009/04/23 10:22:49.7     144    -12     40    145    151  94.8  15.6  34170  289.75 0855.23
2009/04/23 10:22:49.8     117    -19     66    119    136  99.2  31.4  34162  289.60 0855.23
2009/04/23 10:22:49.9     144     -6     78    145    164  92.6  30.6  34158  289.53 0855.23
2009/04/23 10:22:50.0     148     -6     75    149    166  92.6  28.5  34152  289.45 0855.23
2009/04/23 10:22:50.1     129    -17     25    131    134  97.5  11.1  34150  289.41 0855.23
2009/04/23 10:22:50.2     126    -16     30    128    132  97.5  13.2  34148  289.38 0855.23
2009/04/23 10:22:50.3     127      4     30    128    132  87.9  13.2  34150  289.41 0855.23
2009/04/23 10:22:50.4     135     12     32    136    140  84.8  13.2  34158  289.53 0855.23
2009/04/23 10:22:50.5     137     -1     14    138    139  90.8   5.9  34156  289.50 0855.23
2009/04/23 10:22:50.6     162     10     56    163    173  86.3  19.2  34154  289.48 0855.23
2009/04/23 10:22:50.7     168     31     34    171    175  79.4  11.4  34162  289.62 0855.23
2009/04/23 10:22:50.8     165     33     34    169    173  78.5  11.6  34162  289.62 0855.23
2009/04/23 10:22:50.9     143     21     47    145    153  81.6  18.1  34166  289.67 0855.23
2009/04/23 10:22:51.0     145     47     65    153    166  71.8  24.6  34166  289.67 0855.23
2009/04/23 10:22:51.1     144     23     -2    146    147  80.8  -1.2  34158  289.53 0855.23
2009/04/23 10:22:51.2     135      0     -4    136    137  90.0  -1.8  34154  289.48 0855.23
2009/04/23 10:22:51.3     140      6     -5    141    142  87.4  -2.2  34150  289.40 0855.23
2009/04/23 10:22:51.4     147      2     -5    148    149  89.2  -2.2  34156  289.50 0855.23
2009/04/23 10:22:51.5     128     26     31    131    135  78.5  13.7  34166  289.69 0855.23
2009/04/23 10:22:51.6     114     15     40    116    123  82.1  19.2  34164  289.63 0855.23
2009/04/23 10:22:51.7     122     22     48    125    133  79.4  21.5  34168  289.72 0855.23
2009/04/23 10:22:51.8     139     46     50    147    156  71.4  18.9  34214  290.48 0855.23
2009/04/23 10:22:51.9     151     35     67    156    169  76.7  24.9  34176  289.84 0855.23
2009/04/23 10:22:52.0     157     42     74    163    179  75.0  26.2  34172  289.77 0855.23
2009/04/23 10:22:52.1     162     47     68    169    182  73.6  23.0  34174  289.82 0855.23
2009/04/23 10:22:52.2     173     57     82    183    200  71.6  25.7  34188  290.06 0855.23
2009/04/23 10:22:52.3     191     38    105    195    221  78.6  31.0  34196  290.19 0855.23
2009/04/23 10:22:52.4     167     27     91    170    192  80.8  30.6  34198  290.21 0855.23
2009/04/23 10:22:52.5     152     20     72    154    170  82.5  27.1  34200  290.26 0855.23
2009/04/23 10:22:52.6     134     10     31    135    139  85.6  13.1  34190  290.09 0855.23
2009/04/23 10:22:52.7     105      5     30    106    111  87.0  15.8  34182  289.94 0855.23
2009/04/23 10:22:52.8     116      0     57    117    130  89.6  27.3  34190  290.09 0855.23
2009/04/23 10:22:52.9      89      0     72     90    115  89.6  43.7  34220  290.58 0855.23
2009/04/23 10:22:53.0      81     13     72     83    109  80.3  44.8  34226  290.69 0855.23
2009/04/23 10:22:53.1      89     29     46     94    104  71.8  27.8  34198  290.23 0855.23
2009/04/23 10:22:53.2      90      6     39     91     99  85.6  24.1  34198  290.23 0855.23
2009/04/23 10:22:53.3      93      7     56     94    109  85.2  34.0  34192  290.13 0855.23
2009/04/23 10:22:53.4     106      0     48    107    117  90.0  25.7  34188  290.04 0855.23
2009/04/23 10:22:53.5     120     -9     44    121    128  94.3  20.9  34188  290.06 0855.23
2009/04/23 10:22:53.6      86      9     74     87    114  83.9  44.8  34224  290.67 0855.23
2009/04/23 10:22:53.7      76     20     67     79    103  75.0  44.8  34240  290.92 0855.23
2009/04/23 10:22:53.8      78      9     88     79    118  83.0  53.3  34224  290.65 0855.24
2009/04/23 10:22:53.9      87     42    115     97    150  64.2  56.3  34212  290.47 0855.24
2009/04/23 10:22:54.0      83     53    106     99    145  57.5  52.1  34224  290.65 0855.24
2009/04/23 10:22:54.1      49     49     77     70    104  45.1  52.2  34226  290.70 0855.24
2009/04/23 10:22:54.2      98     46     49    109    119  64.6  25.7  34224  290.67 0855.24
2009/04/23 10:22:54.3      98     52     49    111    121  62.0  25.2  34222  290.64 0855.24
2009/04/23 10:22:54.4     104     23     60    107    122  77.2  31.4  34238  290.89 0855.24
2009/04/23 10:22:54.5     105     41      4    113    114  68.7   2.3  34210  290.41 0855.24
2009/04/23 10:22:54.6     118     46     34    127    132  68.7  15.3  34210  290.43 0855.24
2009/04/23 10:22:54.7     111     34     36    117    123  72.7  17.4  34210  290.41 0855.24
2009/04/23 10:22:54.8     111     33     22    116    119  73.2  11.1  34218  290.57 0855.24
2009/04/23 10:22:54.9      73     41     42     84     93  60.7  28.7  34230  290.75 0855.24
2009/04/23 10:22:55.0      66     19     65     69     94  73.2  49.0  34212  290.45 0855.24
2009/04/23 10:22:55.1      49     20     75     54     92  67.4  60.5  34238  290.91 0855.24
2009/04/23 10:22:55.2      42     26     69     50     85  57.6  61.1  34254  291.16 0855.24
2009/04/23 10:22:55.3      29     29     48     42     63  45.0  53.3  34244  291.01 0855.24
2009/04/23 10:22:55.4      32     28     48     43     64  48.7  52.2  34236  290.86 0855.24
2009/04/23 10:22:55.5      56     21     62     60     86  69.2  50.1  34238  290.91 0855.24
2009/04/23 10:22:55.6      54     25     59     60     84  64.7  50.5  34248  291.08 0855.24
2009/04/23 10:22:55.7      59     48     51     77     92  50.5  36.5  34276  291.54 0855.24
2009/04/23 10:22:55.8      63     17     52     66     84  74.9  42.2  34280  291.60 0855.24
2009/04/23 10:22:55.9      52     28     39     60     71  62.0  35.6  34288  291.74 0855.24
2009/04/23 10:22:56.0      48     46     31     67     73  45.9  27.1  34294  291.84 0855.24
2009/04/23 10:22:56.1      20     44     27     49     55  24.5  32.4  34296  291.89 0855.24
2009/04/23 10:22:56.2       8     53     18     54     58   8.9  18.9  34308  292.08 0855.24
2009/04/23 10:22:56.3      -1     42     33     43     54 357.4  41.7  34318  292.25 0855.24
2009/04/23 10:22:56.4      -2     27     38     28     47 355.5  59.4  34318  292.25 0855.24
2009/04/23 10:22:56.5     -18     15     42     24     48 309.5  66.8  34304  292.03 0855.24
2009/04/23 10:22:56.6     -47     35     34     59     68 306.9  32.4  34264  291.33 0855.24
2009/04/23 10:22:56.7     -70     15     28     72     77 282.4  22.0  34248  291.06 0855.24
2009/04/23 10:22:56.8     -65     15     45     67     80 283.3  37.6  34254  291.18 0855.26
2009/04/23 10:22:56.9     -99    -24     35    102    109 256.3  19.2  34282  291.66 0855.26
2009/04/23 10:22:57.0     -93    -46     46    104    113 243.4  25.7  34294  291.86 0855.26
2009/04/23 10:22:57.1     -54    -34     74     64     97 237.6  54.3  34294  291.84 0855.26
2009/04/23 10:22:57.2     -35    -39     71     53     88 221.4  59.4  34292  291.81 0855.26
2009/04/23 10:22:57.3      -6    -52     47     53     70 187.1  46.9  34282  291.64 0855.26
2009/04/23 10:22:57.4     -10    -40     40     42     58 194.3  51.1  34274  291.52 0855.26
2009/04/23 10:22:57.5      -3    -34     40     35     53 186.2  54.3  34280  291.62 0855.26
2009/04/23 10:22:57.6      -6    -42     67     43     79 188.9  64.1  34284  291.67 0855.26
2009/04/23 10:22:57.7     -31    -49     63     59     86 212.6  51.6  34284  291.67 0855.26
2009/04/23 10:22:57.8      -8    -12     55     15     57 212.5  83.9  34278  291.59 0855.26
2009/04/23 10:22:57.9      97    -14     81     99    127  98.4  43.7  34200  290.25 0855.26
2009/04/23 10:22:58.0     115    -38     70    122    140 108.4  32.4  34184  289.97 0855.26
2009/04/23 10:22:58.1     123    -37     85    129    154 106.8  35.6  34208  290.38 0855.26
2009/04/23 10:22:58.2      79    -36     81     88    119 114.8  47.9  34232  290.81 0855.26
2009/04/23 10:22:58.3      46    -34     71     58     91 126.0  56.4  34264  291.33 0855.26
2009/04/23 10:22:58.4     -23    -49     69     55     88 205.4  56.4  34284  291.69 0855.26
2009/04/23 10:22:58.5     -39    -83     98     92    134 205.4  51.6  34286  291.72 0855.26
2009/04/23 10:22:58.6     -87    -66     95    110    145 232.7  45.4  34290  291.79 0855.26
2009/04/23 10:22:58.7     -72    -63    100     96    138 228.7  51.2  34284  291.69 0855.26
2009/04/23 10:22:58.8     -26    -98     82    102    130 195.1  43.7  34264  291.35 0855.26
2009/04/23 10:22:58.9     -67   -120    126    138    186 209.4  47.5  34286  291.71 0855.26
2009/04/23 10:22:59.0     -37   -106    119    113    164 199.6  51.2  34288  291.76 0855.26
2009/04/23 10:22:59.1     -67   -190    111    202    230 199.6  31.3  34278  291.59 0855.26
2009/04/23 10:22:59.2     -64   -182     92    193    213 199.4  27.3  34264  291.35 0855.26
2009/04/23 10:22:59.3     -23   -178     78    180    196 187.6  25.1  34254  291.16 0855.26
2009/04/23 10:22:59.4       7   -137     96    138    168 176.9  38.4  34256  291.21 0855.26
2009/04/23 10:22:59.5     -20   -176     91    178    199 186.7  29.2  34218  290.57 0855.26
2009/04/23 10:22:59.6     -17   -169     87    170    190 186.0  29.1  34216  290.52 0855.26
2009/04/23 10:22:59.7     -26   -181     89    183    203 188.2  28.0  34204  290.31 0855.26
2009/04/23 10:22:59.8     -35   -174     88    178    198 191.6  28.5  34218  290.55 0855.26
2009/04/23 10:22:59.9      -8   -171    107    172    202 182.7  35.2  34194  290.14 0855.26
2009/04/23 10:23:00.0      -5   -205     97    206    227 181.6  27.1  34170  289.74 0855.26
2009/04/23 10:23:00.1      52   -189    152    197    248 164.6  41.7  34164  289.64 0855.26
2009/04/23 10:23:00.2      51   -187     91    195    215 164.6  27.1  34176  289.85 0855.26
2009/04/23 10:23:00.3       7   -165     66    166    178 177.3  23.0  34200  290.26 0855.26
2009/04/23 10:23:00.4     -18   -141    145    143    203 187.6  50.1  34164  289.63 0855.26
2009/04/23 10:23:00.5     -44   -131    131    139    191 198.7  48.2  34166  289.69 0855.26
2009/04/23 10:23:00.6     -52    -77    102     94    138 214.3  52.2  34170  289.75 0855.26
2009/04/23 10:23:00.7    -112   -114    103    161    191 224.5  35.6  34156  289.52 0855.26
2009/04/23 10:23:00.8    -102    -97     76    141    160 226.4  30.6  34156  289.52 0855.26
2009/04/23 10:23:00.9     -83   -108     83    137    160 217.8  34.2  34160  289.58 0855.26
2009/04/23 10:23:01.0     -92   -119     98    151    180 217.8  36.0  34168  289.72 0855.26
2009/04/23 10:23:01.1     -88   -140    119    166    204 212.3  39.1  34164  289.65 0855.26
2009/04/23 10:23:01.2    -110   -149    116    186    219 216.5  35.2  34154  289.46 0855.26
2009/04/23 10:23:01.3    -137   -116     95    180    203 229.8  30.1  34156  289.50 0855.26
2009/04/23 10:23:01.4    -125   -100     93    161    185 231.4  32.7  34168  289.70 0855.26
2009/04/23 10:23:01.5    -121   -100     69    158    172 230.5  25.1  34172  289.77 0855.26
2009/04/23 10:23:01.6    -168    -88     37    190    194 242.2  11.1  34176  289.84 0855.26
2009/04/23 10:23:01.7     -83    -26    -71     88    113 252.3 -48.1  34168  289.70 0855.26
2009/04/23 10:23:01.8    -177   -143    -73    228    239 231.1 -22.8  34172  289.78 0855.26
2009/04/23 10:23:01.9    -192   -165    103    254    274 229.3  23.1  34178  289.86 0855.26
2009/04/23 10:23:02.0    -168   -106     78    199    213 237.8  22.3  34210  290.43 0855.26
2009/04/23 10:23:02.1    -167   -110     71    201    214 236.5  19.4  34198  290.21 0855.26
2009/04/23 10:23:02.2    -179   -116     84    214    229 237.1  22.8  34198  290.23 0855.26
2009/04/23 10:23:02.3    -124   -180     71    219    231 214.5  18.1  34186  290.02 0855.26
2009/04/23 10:23:02.4     -88   -133     49    160    168 213.4  17.1  34198  290.23 0855.26
2009/04/23 10:23:02.5    -107   -100     55    147    156 226.8  21.5  34204  290.31 0855.26
2009/04/23 10:23:02.6    -103    -86     45    135    143 230.0  18.4  34196  290.18 0855.26
2009/04/23 10:23:02.7     -99    -55      5    114    115 241.1   2.9  34196  290.19 0855.25
2009/04/23 10:23:02.8    -117    -32    -15    122    123 254.5  -7.3  34212  290.45 0855.25
2009/04/23 10:23:02.9    -122    -10    -29    123    127 265.2 -13.4  34210  290.43 0855.25
2009/04/23 10:23:03.0    -114    -96    -30    150    154 230.0 -11.3  34180  289.92 0855.25
2009/04/23 10:23:03.1    -162    -71     -3    177    178 246.3  -1.3  34202  290.30 0855.25
2009/04/23 10:23:03.2    -141    -67     -6    157    158 244.7  -2.3  34192  290.11 0855.25
2009/04/23 10:23:03.3    -114   -100     13    153    154 228.7   4.9  34170  289.74 0855.25
2009/04/23 10:23:03.4    -117    -55     30    130    134 244.8  13.2  34172  289.77 0855.25
2009/04/23 10:23:03.5    -141    -43     22    148    150 253.1   8.5  34168  289.72 0855.25
2009/04/23 10:23:03.6    -165    -94     31    191    194 240.2   9.5  34178  289.87 0855.25
2009/04/23 10:23:03.7    -128    -26     -5    131    132 258.1  -2.2  34188  290.04 0855.25
2009/04/23 10:23:03.8    -162      1    -23    163    165 270.6  -8.2  34214  290.48 0855.25
2009/04/23 10:23:03.9    -185    -11     13    186    187 266.5   4.2  34220  290.58 0855.25
2009/04/23 10:23:04.0    -199     -6    -34    200    204 268.1  -9.8  34200  290.26 0855.25
2009/04/23 10:23:04.1    -200    -11    -27    201    203 266.7  -7.7  34186  290.01 0855.25
2009/04/23 10:23:04.2    -172     -7    -41    173    178 267.4 -13.4  34190  290.09 0855.25
2009/04/23 10:23:04.3    -208    -12    -74    209    221 266.5 -24.4  34218  290.57 0855.25
2009/04/23 10:23:04.4    -204    -44    -54    209    216 257.8 -14.5  34208  290.38 0855.25
2009/04/23 10:23:04.5    -202    -73     18    216    217 250.0   4.9  34174  289.82 0855.25
2009/04/23 10:23:04.6    -193   -145     16    242    243 233.1   3.8  34198  290.20 0855.25
2009/04/23 10:23:04.7    -257    -60    -73    264    275 256.8 -15.5  34190  290.07 0855.26
2009/04/23 10:23:04.8    -262    -88    -90    277    291 251.4 -23.6  34162  289.59 0855.26
2009/04/23 10:23:04.9    -218    -86    -45    235    240 248.5 -10.9  34174  289.81 0855.26
2009/04/23 10:23:05.0    -193   -126     41    231    235 236.9  10.1  34194  290.14 0855.26
2009/04/23 10:23:05.1    -213    -49    -10    219    220 257.0  -2.8  34198  290.21 0855.26
2009/04/23 10:23:05.2    -279    -77    -67    290    298 254.5 -13.2  34190  290.09 0855.26
2009/04/23 10:23:05.3    -300      0    -97    301    317 270.0 -17.9  34256  291.21 0855.26
2009/04/23 10:23:05.5    -345     -8   -107    346    362 268.6 -22.3  34232  290.79 0855.26
2009/04/23 10:23:05.5    -270    -41     -6    274    275 261.2  -1.3  34202  290.27 0855.26
2009/04/23 10:23:05.6    -306    -32     20    308    309 263.9   3.8  34196  290.17 0855.26
2009/04/23 10:23:05.8    -304    -29     14    306    307 264.5   2.8  34180  289.92 0855.26
2009/04/23 10:23:05.9    -279    -29      8    281    282 263.9   1.8  34196  290.19 0855.26
2009/04/23 10:23:06.0    -289    -49      9    294    295 260.3   1.8  34210  290.42 0855.26
2009/04/23 10:23:06.1    -229    -39     11    233    234 260.3   2.8  34212  290.46 0855.26
2009/04/23 10:23:06.2    -290    -58     -6    296    297 258.5  -1.3  34204  290.31 0855.26
2009/04/23 10:23:06.3    -275    -55     23    281    283 258.5   4.9  34180  289.92 0855.26
2009/04/23 10:23:06.4    -245    -78     32    258    261 252.3   7.1  34186  290.00 0855.26
2009/04/23 10:23:06.5    -178   -115     48    212    218 237.1  12.9  34184  289.99 0855.26
2009/04/23 10:23:06.6    -162   -121     39    203    207 233.1  11.1  34170  289.74 0855.26
2009/04/23 10:23:06.7    -171    -79     66    189    201 245.2  19.2  34170  289.75 0855.26
2009/04/23 10:23:06.8    -147    -82     36    169    173 240.7  12.2  34164  289.65 0855.27
2009/04/23 10:23:06.9    -145    -51     -6    154    155 250.5  -2.2  34178  289.89 0855.27
2009/04/23 10:23:07.0    -102    -64    -21    121    123 237.6 -10.3  34172  289.77 0855.27
2009/04/23 10:23:07.1     -82    -60     -3    102    103 233.6  -1.8  34172  289.77 0855.27
2009/04/23 10:23:07.2     -43    -68     52     81     96 212.6  35.6  34178  289.87 0855.27
2009/04/23 10:23:07.3     -73    -60     25     95     99 230.5  15.2  34180  289.91 0855.27
2009/04/23 10:23:07.4     -80    -43     17     91     93 241.6  11.0  34180  289.92 0855.27
2009/04/23 10:23:07.5     -71    -33    -18     79     82 244.8 -12.9  34178  289.89 0855.27
2009/04/23 10:23:07.6     -61    -46    -15     77     79 233.1 -11.3  34176  289.84 0855.27
2009/04/23 10:23:07.7     -47    -24     -4     53     54 242.9  -5.2  34178  289.89 0855.27
2009/04/23 10:23:07.8     -45      3      3     46     47 274.3   3.8  34180  289.92 0855.27
2009/04/23 10:23:07.9     -52     28     44     60     74 298.9  39.7  34184  289.97 0855.27
2009/04/23 10:23:08.0     -64     76     74    100    124 319.9  40.1  34196  290.19 0855.27
2009/04/23 10:23:08.1    -101     58     73    117    137 299.8  35.5  34198  290.23 0855.27
2009/04/23 10:23:08.2    -108     67     57    128    140 302.0  25.2  34200  290.25 0855.27
2009/04/23 10:23:08.3    -114     18    111    116    160 279.2  48.7  34194  290.16 0855.27
2009/04/23 10:23:08.4    -145     27    107    148    182 280.6  39.5  34192  290.11 0855.27
2009/04/23 10:23:08.5    -151     27     79    154    173 280.1  29.3  34194  290.16 0855.27
2009/04/23 10:23:08.6    -121     51     52    132    141 293.1  23.0  34188  290.04 0855.27
2009/04/23 10:23:08.7     -44      0     79     45     90 270.0  67.7  34192  290.11 0855.27
2009/04/23 10:23:08.8      -3    -21    107     22    109 189.8  89.1  34198  290.21 0855.25
2009/04/23 10:23:08.9    -122    -21     43    124    132 259.9  19.4  34176  289.84 0855.25
2009/04/23 10:23:09.0    -146     27     63    149    161 280.6  24.3  34176  289.84 0855.25
2009/04/23 10:23:09.1    -173     35     69    177    189 281.5  22.3  34172  289.77 0855.25
2009/04/23 10:23:09.2    -206     10    123    207    240 273.0  33.5  34164  289.63 0855.25
2009/04/23 10:23:09.3    -222     69     90    233    249 287.3  22.0  34170  289.73 0855.25
2009/04/23 10:23:09.4    -221    100     53    243    249 294.4  12.4  34160  289.56 0855.25
2009/04/23 10:23:09.5     -52    193     76    201    214 344.8  21.3  34176  289.84 0855.25
2009/04/23 10:23:09.6      11    147    107    148    182   4.4  39.5  34190  290.08 0855.25
2009/04/23 10:23:09.7     -27    143    103    146    178 349.3  38.8  34196  290.19 0855.25
2009/04/23 10:23:09.8      54     66    161     86    182  39.6  69.6  34190  290.09 0855.25
2009/04/23 10:23:09.9      77     78    133    110    172  44.7  56.3  34182  289.96 0855.25
2009/04/23 10:23:10.0      57     85    144    103    177  33.8  60.6  34186  290.02 0855.25
2009/04/23 10:23:10.1     -18     87    138     89    164 348.0  64.4  34198  290.23 0855.25
2009/04/23 10:23:10.2      12     37    129     39    134  18.3  82.3  34198  290.21 0855.25
2009/04/23 10:23:10.3      40     73    101     84    131  29.0  56.3  34188  290.06 0855.25
2009/04/23 10:23:10.4     110     68    168    130    212  58.0  58.5  34184  289.97 0855.25
2009/04/23 10:23:10.5      91     88    136    127    186  46.0  52.2  34180  289.91 0855.25
2009/04/23 10:23:10.6      26    101    131    105    167  14.7  57.1  34180  289.91 0855.25
2009/04/23 10:23:10.7      47     88    106    100    145  28.1  52.1  34176  289.85 0855.25
2009/04/23 10:23:10.8      62    -39     84     74    111 122.5  53.7  34190  290.09 0855.24
2009/04/23 10:23:10.9      68     67    127     96    159  45.4  59.2  34186  290.02 0855.24
2009/04/23 10:23:11.0     -52    -41     65     67     93 232.2  50.0  34184  289.97 0855.24
2009/04/23 10:23:11.1    -125    -59    109    139    176 244.6  42.4  34174  289.82 0855.24
2009/04/23 10:23:11.2    -224    -31     81    227    241 262.0  20.2  34174  289.81 0855.24
2009/04/23 10:23:11.3    -183    -94     77    206    219 242.7  21.3  34172  289.79 0855.24
2009/04/23 10:23:11.4    -149    -65     61    163    174 246.4  21.3  34176  289.84 0855.24
2009/04/23 10:23:11.5     -78   -145    156    165    227 208.5  48.0  34170  289.74 0855.24
2009/04/23 10:23:11.6     -62   -112    110    129    169 209.0  44.5  34174  289.82 0855.24
2009/04/23 10:23:11.7     -63    -94     92    114    146 213.8  43.7  34170  289.75 0855.24
2009/04/23 10:23:11.8     -28    -98    136    102    170 196.0  59.2  34176  289.84 0855.24
2009/04/23 10:23:11.9      -4   -103    137    104    172 182.7  59.0  34178  289.87 0855.24
2009/04/23 10:23:12.0       8   -107    139    108    176 175.5  58.2  34174  289.82 0855.24
2009/04/23 10:23:12.1     -17   -149    172    151    228 186.7  54.3  34166  289.67 0855.24
2009/04/23 10:23:12.2     -37   -196    175    200    265 190.9  45.8  34174  289.80 0855.24
2009/04/23 10:23:12.3      -3   -205    176    206    270 180.9  44.8  34164  289.64 0855.24
2009/04/23 10:23:12.4     -15   -197    216    198    293 184.4  52.5  34170  289.73 0855.24
2009/04/23 10:23:12.5     -57   -202    183    210    278 195.8  45.8  34204  290.32 0855.24
2009/04/23 10:23:12.6     -84   -151     28    173    176 209.2   9.3  34214  290.48 0855.24
2009/04/23 10:23:12.7    -108   -186    -26    216    218 210.3  -6.9  34190  290.08 0855.24
2009/04/23 10:23:12.8    -139   -204     60    248    256 214.3  13.7  34218  290.54 0855.23
2009/04/23 10:23:12.9    -200   -212     62    292    299 223.3  12.0  34234  290.82 0855.23
2009/04/23 10:23:13.0    -223   -245     95    332    346 222.2  16.0  34232  290.79 0855.23
2009/04/23 10:23:13.1    -215   -194    102    290    307 228.0  20.0  34236  290.85 0855.23
2009/04/23 10:23:13.2    -143   -232    137    273    305 211.6  28.5  34196  290.17 0855.23
2009/04/23 10:23:13.3    -119   -158     72    198    210 217.0  20.7  34200  290.25 0855.23
2009/04/23 10:23:13.4     -92   -148     22    175    177 211.9   7.2  34186  290.02 0855.23
2009/04/23 10:23:13.5    -115   -146     48    186    193 218.3  14.5  34196  290.18 0855.23
2009/04/23 10:23:13.6    -147   -150     77    211    224 224.3  20.9  34208  290.40 0855.23
2009/04/23 10:23:13.7    -194   -166     70    256    266 229.5  15.3  34200  290.24 0855.23
2009/04/23 10:23:13.8    -249   -273     18    370    371 222.4   2.9  34178  289.86 0855.23
2009/04/23 10:23:13.9    -225   -250    -50    337    341 222.1  -8.6  34174  289.81 0855.23
2009/04/23 10:23:14.0    -249   -337   -123    420    437 216.5 -21.1  34142  289.26 0855.23
2009/04/23 10:23:14.1    -188   -284   -121    341    363 213.5 -19.6  34134  289.13 0855.23
2009/04/23 10:23:14.2    -259   -109    -82    282    293 247.2 -21.0  34168  289.70 0855.23
2009/04/23 10:23:14.3    -217   -106    -86    242    257 243.8 -19.6  34160  289.56 0855.23
2009/04/23 10:23:14.4    -216    -52    -79    223    237 256.5 -19.6  34164  289.65 0855.23
2009/04/23 10:23:14.5    -242    -57    -82    249    263 256.7 -18.3  34162  289.61 0855.23
2009/04/23 10:23:14.6    -367   -107   -131    383    405 253.7 -19.0  34136  289.16 0855.23
2009/04/23 10:23:14.7    -289   -115   -133    312    339 248.3 -28.9  34120  288.88 0855.23
2009/04/23 10:23:14.8    -365     27    -67    366    373 274.3 -10.5  34144  289.30 0855.22
2009/04/23 10:23:14.9    -309     18    -83    310    321 273.4 -15.1  34148  289.37 0855.22
2009/04/23 10:23:15.0    -240      6    -86    241    255 271.5 -24.6  34154  289.47 0855.22
2009/04/23 10:23:15.1    -192     32    -69    195    208 279.7 -19.6  34158  289.55 0855.22
2009/04/23 10:23:15.2    -318    -24     70    319    327 265.7  12.4  34174  289.81 0855.22
2009/04/23 10:23:15.3    -393    -84     55    403    407 257.9   7.8  34246  291.04 0855.22
2009/04/23 10:23:15.4    -267    -80    182    279    333 253.2  36.2  34222  290.61 0855.22
2009/04/23 10:23:15.5    -191   -149    265    243    359 232.2  52.7  34164  289.64 0855.22
2009/04/23 10:23:15.6    -260     44    214    264    339 279.6  43.4  34162  289.59 0855.22
2009/04/23 10:23:15.7    -311    180    184    360    404 300.1  29.2  34152  289.42 0855.22
2009/04/23 10:23:15.8    -280    337    198    439    481 320.2  26.0  34172  289.76 0855.20
2009/04/23 10:23:15.9    -251    344    133    427    448 323.9  17.3  34170  289.73 0855.20
2009/04/23 10:23:16.0    -293    357    204    462    505 320.6  25.6  34162  289.61 0855.20
2009/04/23 10:23:16.1    -298    205     22    362    363 304.5   3.5  34162  289.62 0855.20
2009/04/23 10:23:16.2    -176    192     71    261    271 317.5  15.3  34164  289.64 0855.20
2009/04/23 10:23:16.3     -33    223    -21    226    228 351.5  -5.4  34146  289.33 0855.20
2009/04/23 10:23:16.4      64    235     26    244    246  15.4   6.1  34142  289.25 0855.20
2009/04/23 10:23:16.5      19    336     63    337    343   3.4  10.6  34134  289.13 0855.20
2009/04/23 10:23:16.6    -135    300    -39    330    333 335.7  -6.9  34146  289.35 0855.20
2009/04/23 10:23:16.7     -29    207    114    210    238 351.9  30.8  34168  289.72 0855.20
2009/04/23 10:23:16.8      40    199     85    204    221  11.6  23.6  34164  289.65 0855.20
2009/04/23 10:23:16.9      14    181     49    182    189   4.5  15.2  34166  289.67 0855.20
2009/04/23 10:23:17.0     -41    181     45    186    192 347.1  13.7  34168  289.70 0855.20
2009/04/23 10:23:17.1     -84    179      8    198    199 334.7   2.5  34160  289.58 0855.20
2009/04/23 10:23:17.2     -55    121     32    133    137 335.5  13.7  34156  289.52 0855.20
2009/04/23 10:23:17.3     -91     75      0    119    120 309.5  -0.3  34160  289.57 0855.20
2009/04/23 10:23:17.4     -70    142     22    159    161 333.7   8.0  34160  289.58 0855.20
2009/04/23 10:23:17.5     -44     90     -9    101    102 334.1  -5.2  34162  289.62 0855.20
2009/04/23 10:23:17.6      26    162     13    165    166   9.3   4.6  34164  289.65 0855.20
2009/04/23 10:23:17.7     132    165    -58    212    220  38.5 -15.4  34164  289.63 0855.20
2009/04/23 10:23:17.8      77    164    -13    182    183  25.2  -4.4  34164  289.63 0855.21
2009/04/23 10:23:17.9      66    128    -79    145    165  27.2 -35.4  34160  289.58 0855.21
2009/04/23 10:23:18.0      55     83    -65    100    119  33.4 -40.4  34164  289.63 0855.21
2009/04/23 10:23:18.1     130     56    -57    142    153  66.5 -27.4  34166  289.67 0855.21
2009/04/23 10:23:18.2      97     -8    -83     98    128  95.2 -48.7  34166  289.69 0855.21
2009/04/23 10:23:18.3     174      0   -139    175    223  90.0 -46.8  34162  289.62 0855.21
2009/04/23 10:23:18.4      75     -6   -134     76    154  95.2 -72.1  34164  289.65 0855.21
2009/04/23 10:23:18.5      46     16   -101     49    112  70.9 -77.2  34172  289.79 0855.21
2009/04/23 10:23:18.6     -75    -73    -59    105    120 225.6 -36.3  34164  289.63 0855.21
2009/04/23 10:23:18.7     -85    -65    -17    108    110 232.7  -9.3  34170  289.74 0855.21
2009/04/23 10:23:18.8    -106    -74     48    130    138 234.9  21.0  34178  289.87 0855.21
2009/04/23 10:23:18.9    -189    -72     47    203    209 248.9  13.2  34212  290.45 0855.21
2009/04/23 10:23:19.0     -59   -134     -1    147    148 203.7  -0.7  34208  290.40 0855.21
2009/04/23 10:23:19.1    -107   -192     37    221    225 209.2   9.5  34204  290.31 0855.21
2009/04/23 10:23:19.2     -91   -275    -14    290    291 198.5  -2.8  34178  289.88 0855.21
2009/04/23 10:23:19.3    -102   -281    -19    300    301 200.1  -3.7  34152  289.44 0855.21
2009/04/23 10:23:19.4     -47   -294    -57    298    304 189.1 -10.9  34150  289.41 0855.21
2009/04/23 10:23:19.5     -40   -403   -131    405    425 185.7 -23.2  34144  289.29 0855.21
2009/04/23 10:23:19.6      11   -394   -117    395    411 178.3 -21.2  34148  289.38 0855.21
2009/04/23 10:23:19.7     -34   -384   -125    386    405 185.1 -23.0  34148  289.37 0855.21
2009/04/23 10:23:19.8     -65   -280    -84    288    300 193.1 -21.2  34154  289.46 0855.22
2009/04/23 10:23:19.9     147   -161    -68    219    230 137.7 -17.3  34158  289.55 0855.22
2009/04/23 10:23:20.0     127   -188     -5    228    229 145.9  -1.3  34162  289.60 0855.22
2009/04/23 10:23:20.1      30   -180    169    183    249 170.4  47.9  34152  289.45 0855.22
2009/04/23 10:23:20.2      80   -249    222    262    343 162.1  44.4  34168  289.70 0855.22
2009/04/23 10:23:20.3      51    -76    142     92    169 145.7  64.1  34168  289.70 0855.22
2009/04/23 10:23:20.4     -11   -103    169    104    198 186.2  65.7  34170  289.75 0855.22
2009/04/23 10:23:20.5      51   -141    146    151    210 160.0  49.4  34166  289.67 0855.22
2009/04/23 10:23:20.6      21   -151    126    153    198 172.0  43.7  34156  289.52 0855.22
2009/04/23 10:23:20.7      24   -173    149    175    229 172.0  44.5  34146  289.35 0855.22
2009/04/23 10:23:20.8     -13   -161    150    162    220 184.7  47.9  34166  289.69 0855.22
2009/04/23 10:23:20.9      48   -115    122    125    174 157.3  49.8  34154  289.48 0855.22
2009/04/23 10:23:21.0      62     52    108     82    135  50.0  58.5  34166  289.69 0855.22
2009/04/23 10:23:21.1     -33    -83    115     90    146 201.8  58.4  34148  289.38 0855.22
2009/04/23 10:23:21.2      -1   -314    156    315    351 180.2  28.4  34146  289.35 0855.22
2009/04/23 10:23:21.3     -57   -291    135    297    326 191.1  26.2  34136  289.17 0855.22
2009/04/23 10:23:21.4     -61   -273    120    280    304 192.7  24.9  34138  289.20 0855.22
2009/04/23 10:23:21.5    -106   -255    102    277    295 202.7  21.0  34146  289.32 0855.22
2009/04/23 10:23:21.6     -99   -251    129    271    300 201.6  27.3  34130  289.07 0855.22
2009/04/23 10:23:21.7    -141   -277    114    311    331 207.0  20.8  34116  288.83 0855.22
2009/04/23 10:23:21.8    -161   -272    134    317    344 210.7  24.3  34114  288.79 0855.25
2009/04/23 10:23:21.9    -118   -239    230    267    352 206.3  45.4  34134  289.14 0855.25
2009/04/23 10:23:22.0     -89   -369    253    380    456 193.7  36.7  34134  289.12 0855.25
2009/04/23 10:23:22.1     -89   -400    225    410    467 192.6  31.3  34136  289.16 0855.25
2009/04/23 10:23:22.2    -120   -571    207    584    619 191.9  20.3  34136  289.17 0855.25
2009/04/23 10:23:22.3     -20   -580    211    581    618 182.0  20.9  34134  289.12 0855.25
2009/04/23 10:23:22.4     146   -517    152    538    560 164.2  15.8  34132  289.11 0855.25
2009/04/23 10:23:22.5     104   -472    100    484    495 167.5  11.7  34140  289.23 0855.25
2009/04/23 10:23:22.6      53   -522     41    525    527 174.2   4.5  34144  289.29 0855.25
2009/04/23 10:23:22.7     122   -458     93    475    485 165.0  11.1  34136  289.15 0855.25
2009/04/23 10:23:22.8      41   -439     79    442    450 174.6  10.2  34140  289.24 0855.25
2009/04/23 10:23:22.9      64   -595   -158    599    620 173.8 -14.8  34138  289.19 0855.25
2009/04/23 10:23:23.0      77   -572     -4    578    579 172.3  -0.5  34138  289.20 0855.25
2009/04/23 10:23:23.1     -31   -612   -101    613    622 182.9  -9.4  34142  289.25 0855.25
2009/04/23 10:23:23.2     109   -605    -64    615    619 169.8  -6.0  34130  289.08 0855.25
2009/04/23 10:23:23.3     172   -590    -79    615    621 163.7  -7.4  34138  289.20 0855.25
2009/04/23 10:23:23.4     215   -502    -21    547    548 156.8  -2.2  34128  289.04 0855.25
2009/04/23 10:23:23.5     189   -461     24    499    500 157.7   2.8  34132  289.10 0855.25
2009/04/23 10:23:23.6     140   -473     37    494    496 163.5   4.4  34134  289.13 0855.25
2009/04/23 10:23:23.7     161   -472     39    499    501 161.1   4.5  34120  288.91 0855.25
2009/04/23 10:23:23.8      76   -499    -15    505    506 171.3  -1.7  34118  288.86 0855.26
2009/04/23 10:23:23.9     171   -493    -70    523    528 160.8  -7.7  34116  288.82 0855.26
2009/04/23 10:23:24.0     110   -486      7    499    500 167.2   0.8  34126  288.98 0855.26
2009/04/23 10:23:24.1     116   -431     -9    447    448 164.9  -1.2  34128  289.02 0855.26
2009/04/23 10:23:24.2     142   -421     74    445    452 161.3   9.5  34124  288.95 0855.26
2009/04/23 10:23:24.3     115   -491    130    505    522 166.8  14.5  34120  288.88 0855.26
2009/04/23 10:23:24.4     -32   -530    130    531    547 183.5  13.8  34120  288.89 0855.26
2009/04/23 10:23:24.5     -11   -565    121    566    579 181.2  12.1  34130  289.07 0855.26
2009/04/23 10:23:24.6      23   -581    -12    582    583 177.7  -1.3  34140  289.24 0855.26
2009/04/23 10:23:24.7     -73   -582     33    587    588 187.2   3.3  34138  289.19 0855.26
2009/04/23 10:23:24.8    -103   -555     53    565    568 190.6   5.4  34136  289.16 0855.26
2009/04/23 10:23:24.9    -131   -471     68    490    495 195.6   7.9  34136  289.18 0855.26
2009/04/23 10:23:25.0    -105   -444     23    457    458 193.4   2.9  34142  289.26 0855.26
2009/04/23 10:23:25.1     -93   -507    -45    516    519 190.5  -5.1  34142  289.27 0855.26
2009/04/23 10:23:25.2    -139   -566    -32    583    584 193.8  -3.2  34158  289.54 0855.26
2009/04/23 10:23:25.3      69   -592    -61    597    601 173.3  -5.9  34120  288.88 0855.26
2009/04/23 10:23:25.4      28   -560     27    561    562 177.1   2.8  34118  288.85 0855.26
2009/04/23 10:23:25.5      -1   -557     57    558    561 180.1   5.9  34116  288.82 0855.26
2009/04/23 10:23:25.6     106   -545     58    556    560 169.0   6.0  34114  288.80 0855.26
2009/04/23 10:23:25.7     147   -546     17    566    567 164.9   1.8  34124  288.96 0855.26
2009/04/23 10:23:25.8     129   -517     59    533    537 165.9   6.4  34120  288.89 0855.28
2009/04/23 10:23:25.9      37   -475    108    477    490 175.5  12.8  34120  288.88 0855.28
2009/04/23 10:23:26.0      17   -487    185    488    521 177.9  21.7  34120  288.90 0855.28
2009/04/23 10:23:26.1      48   -513    125    516    532 174.6  13.7  34128  289.02 0855.28
2009/04/23 10:23:26.2      34   -442     87    444    453 175.5  11.1  34122  288.92 0855.28
2009/04/23 10:23:26.3      41   -436     61    439    444 174.6   8.0  34124  288.95 0855.28
2009/04/23 10:23:26.4      17   -355     69    356    363 177.2  11.1  34128  289.04 0855.28
2009/04/23 10:23:26.5       2   -338    111    339    357 179.5  18.2  34130  289.08 0855.28
2009/04/23 10:23:26.6      69   -310     57    318    324 167.3  10.2  34132  289.10 0855.28
2009/04/23 10:23:26.7     -11   -272     63    273    281 182.5  13.1  34138  289.20 0855.28
2009/04/23 10:23:26.8      22   -287     77    288    299 175.5  15.0  34140  289.22 0855.28
2009/04/23 10:23:26.9      83   -243    100    257    275 161.1  22.5  34140  289.24 0855.28
2009/04/23 10:23:27.0     123   -355    166    376    411 160.8  25.3  34138  289.20 0855.28
2009/04/23 10:23:27.1     112   -347    223    365    427 162.0  34.5  34136  289.16 0855.28
2009/04/23 10:23:27.2     138   -292    181    324    371 154.7  31.5  34132  289.10 0855.28
2009/04/23 10:23:27.3     128   -320    139    345    371 158.1  23.1  34128  289.04 0855.28
2009/04/23 10:23:27.4     190   -286    -13    344    345 146.4  -2.2  34128  289.03 0855.28
2009/04/23 10:23:27.5     118   -279     -1    303    304 157.1  -0.3  34128  289.02 0855.28
2009/04/23 10:23:27.6     199   -384    -61    433    438 152.6  -8.1  34128  289.04 0855.28
2009/04/23 10:23:27.7     224   -355     80    421    429 147.7  10.8  34122  288.92 0855.28
2009/04/23 10:23:27.8     302   -223     59    376    381 126.5   9.0  34126  289.01 0855.28
2009/04/23 10:23:27.9     312   -310    144    440    464 134.8  18.2  34128  289.02 0855.28
2009/04/23 10:23:28.0     180   -273     69    328    336 146.6  12.0  34128  289.03 0855.28
2009/04/23 10:23:28.1     215   -287    107    359    375 143.2  16.6  34126  288.99 0855.28
2009/04/23 10:23:28.2     128   -200    174    238    294 147.4  39.7  34124  288.95 0855.28
2009/04/23 10:23:28.3      10    -95    147     96    175 173.8  64.4  34136  289.18 0855.28
2009/04/23 10:23:28.4      69   -110     35    131    136 147.9  15.3  34128  289.02 0855.28
2009/04/23 10:23:28.5     104    -93     17    140    142 131.8   7.1  34128  289.04 0855.28
2009/04/23 10:23:28.6     126   -203     61    240    248 148.1  14.3  34128  289.02 0855.28
2009/04/23 10:23:28.7      85   -214     36    231    234 158.2   9.0  34130  289.05 0855.28
2009/04/23 10:23:28.8     106   -174     38    204    208 148.6  10.6  34128  289.04 0855.28
2009/04/23 10:23:28.9      60   -162     49    173    181 159.7  16.0  34130  289.08 0855.28
2009/04/23 10:23:29.0     -39   -260    149    263    302 188.7  32.1  34134  289.12 0855.28
2009/04/23 10:23:29.1     -70   -291    184    300    351 193.6  34.4  34138  289.21 0855.28
2009/04/23 10:23:29.2    -114   -241    102    267    285 205.3  22.0  34138  289.20 0855.28
2009/04/23 10:23:29.3     -30   -161    104    164    194 190.9  35.5  34142  289.28 0855.28
2009/04/23 10:23:29.4    -103   -405    280    418    503 194.3  37.0  34132  289.10 0855.28
2009/04/23 10:23:29.5     -89   -352    346    364    502 194.3  48.5  34132  289.11 0855.28
2009/04/23 10:23:29.6    -104   -219    159    243    290 205.4  36.0  34136  289.15 0855.28
2009/04/23 10:23:29.7       4   -249    110    250    273 178.9  25.2  34128  289.03 0855.29
2009/04/23 10:23:29.8     -28   -310     -4    312    313 185.3  -0.9  34126  289.00 0855.29
2009/04/23 10:23:29.9      41   -238    -13    242    243 170.2  -3.1  34130  289.07 0855.29
2009/04/23 10:23:30.0     145   -152    105    211    235 136.3  28.2  34124  288.97 0855.29
2009/04/23 10:23:30.1     227   -339     89    409    419 146.2  12.4  34128  289.02 0855.29
2009/04/23 10:23:30.2      94   -481     -5    491    492 168.9  -0.6  34130  289.08 0855.29
2009/04/23 10:23:30.3      90   -404     31    415    417 167.4   4.4  34132  289.11 0855.29
2009/04/23 10:23:30.4      79   -124    -74    148    165 147.5 -33.1  34128  289.04 0855.29
2009/04/23 10:23:30.5     128   -161     93    207    226 141.5  25.9  34134  289.13 0855.29
2009/04/23 10:23:30.6      62   -189     51    200    207 161.7  14.5  34130  289.06 0855.29
2009/04/23 10:23:30.7      19      4   -146     20    147  76.7 -90.0  34134  289.14 0855.29
2009/04/23 10:23:30.8      31   -105    -48    110    120 163.5 -29.5  34134  289.13 0855.29
2009/04/23 10:23:30.9      14    -73     41     75     85 168.5  31.4  34134  289.13 0855.29
2009/04/23 10:23:31.0     -75    -95     42    122    130 218.3  18.9  34132  289.11 0855.29
2009/04/23 10:23:31.1    -106    -58     46    121    129 241.2  21.0  34132  289.09 0855.29
2009/04/23 10:23:31.2      51   -243    118    249    275 168.0  27.1  34132  289.09 0855.29
2009/04/23 10:23:31.3     -78   -268    167    280    326 196.3  33.7  34132  289.09 0855.29
2009/04/23 10:23:31.4      52   -161    189    170    254 162.0  53.5  34136  289.18 0855.29
2009/04/23 10:23:31.5      48   -248    253    253    357 168.9  50.1  34138  289.19 0855.29
2009/04/23 10:23:31.6      66   -368    139    374    398 169.8  21.3  34126  289.01 0855.29
2009/04/23 10:23:31.7      -5   -527    159    528    552 180.6  16.8  34132  289.09 0855.29
2009/04/23 10:23:31.9     -90   -506    121    515    529 190.1  13.2  34126  289.01 0855.29
2009/04/23 10:23:31.9      36   -426    186    428    466 175.1  25.1  34138  289.19 0855.29
2009/04/23 10:23:32.1     251   -463    289    527    601 151.5  31.3  34134  289.14 0855.29
2009/04/23 10:23:32.2     344   -253    139    428    451 126.3  18.0  34126  289.00 0855.29
2009/04/23 10:23:32.3     133   -402     82    424    432 161.7  11.0  34130  289.05 0855.29
2009/04/23 10:23:32.4     265   -448    184    521    552 149.4  20.2  34128  289.02 0855.29
2009/04/23 10:23:32.5     316   -558    133    642    656 150.5  11.8  34136  289.16 0855.29
2009/04/23 10:23:32.6     166   -499    227    526    572 161.6  24.9  34130  289.06 0855.29
2009/04/23 10:23:32.7     148   -484    296    507    587 163.0  32.9  34138  289.19 0855.29
2009/04/23 10:23:32.8     160   -380    310    413    516 157.2  40.7  34138  289.20 0855.29
2009/04/23 10:23:32.9     127   -360    197    382    429 160.5  29.3  34140  289.22 0855.29
2009/04/23 10:23:33.0      95   -429    159    440    469 167.5  19.9  34140  289.22 0855.29
2009/04/23 10:23:33.1      85   -491    203    499    538 170.1  23.4  34134  289.14 0855.29
2009/04/23 10:23:33.2      82   -398    256    407    480 168.3  35.2  34132  289.09 0855.29
2009/04/23 10:23:33.3      41   -245    163    249    297 170.3  36.5  34136  289.17 0855.29
2009/04/23 10:23:33.4     139   -130    140    191    236 133.1  39.7  34140  289.24 0855.29
2009/04/23 10:23:33.5     135   -151    137    203    244 138.3  37.4  34136  289.18 0855.29
2009/04/23 10:23:33.6       0   -258    118    259    284 180.1  26.2  34142  289.27 0855.29
2009/04/23 10:23:33.7     -74   -130     86    150    172 209.9  32.7  34142  289.28 0855.29
2009/04/23 10:23:33.8     -85   -158     67    180    192 208.5  21.3  34142  289.28 0855.28
2009/04/23 10:23:33.9      66   -320    213    327    390 168.3  36.3  34142  289.26 0855.28
2009/04/23 10:23:34.0      45   -396    316    399    508 173.5  42.2  34140  289.22 0855.28
2009/04/23 10:23:34.1     -44   -369    293    372    473 186.9  42.2  34140  289.24 0855.28
2009/04/23 10:23:34.2    -135   -406    216    428    479 198.4  28.8  34142  289.27 0855.28
2009/04/23 10:23:34.3    -128   -386    215    407    460 198.4  30.2  34138  289.21 0855.28
2009/04/23 10:23:34.4     -36   -372    203    374    425 185.6  30.9  34144  289.31 0855.28
2009/04/23 10:23:34.5    -197   -355    104    407    421 209.0  14.4  34138  289.21 0855.28
2009/04/23 10:23:34.6    -167   -319    224    361    424 207.6  34.9  34140  289.22 0855.28
2009/04/23 10:23:34.7    -312   -340    -33    462    464 222.6  -4.1  34142  289.27 0855.28
2009/04/23 10:23:34.8    -232   -229    -86    327    339 225.3 -14.8  34138  289.21 0855.28
2009/04/23 10:23:34.9     -30   -391    -33    393    395 184.5  -4.9  34146  289.35 0855.28
2009/04/23 10:23:35.0     -86   -266    -72    280    290 197.9 -14.5  34142  289.25 0855.28
2009/04/23 10:23:35.1      92   -345    -30    358    360 165.0  -4.9  34150  289.40 0855.28
2009/04/23 10:23:35.2     -41   -261   -124    265    292 189.1 -31.5  34148  289.36 0855.28
2009/04/23 10:23:35.3    -156   -336   -108    371    386 205.0 -21.0  34146  289.35 0855.28
2009/04/23 10:23:35.4      58   -336   -100    342    356 170.1 -21.1  34156  289.50 0855.28
2009/04/23 10:23:35.5      24   -310   -106    312    329 175.5 -23.7  34150  289.41 0855.28
2009/04/23 10:23:35.6      57   -217   -157    225    274 165.3 -42.9  34154  289.46 0855.28
2009/04/23 10:23:35.7     -60   -113   -133    129    185 208.1 -55.1  34160  289.58 0855.28
2009/04/23 10:23:35.8      -9   -130    -11    131    132 184.0  -5.2  34152  289.45 0855.28
2009/04/23 10:23:35.9      25    -95    -32     99    105 164.9 -18.1  34154  289.46 0855.28
2009/04/23 10:23:36.0      43    -68     99     81    127 147.5  56.4  34154  289.48 0855.28
2009/04/23 10:23:36.1      94    -37     57    102    116 111.7  31.4  34158  289.53 0855.28
2009/04/23 10:23:36.2     195    -59    -73    204    216 106.9 -24.8  34156  289.50 0855.28
2009/04/23 10:23:36.3     233    -92    -71    251    261 111.5 -15.8  34158  289.53 0855.28
2009/04/23 10:23:36.4     160    -49    -23    168    170 107.3  -8.0  34158  289.53 0855.28
2009/04/23 10:23:36.5      68     93    -23    116    119  36.0 -11.3  34166  289.67 0855.28
2009/04/23 10:23:36.6      54     88      5    104    105  31.6   2.8  34156  289.50 0855.28
2009/04/23 10:23:36.7      81      5     65     82    104  86.5  42.7  34150  289.41 0855.28
2009/04/23 10:23:36.8      25    -64     23     69     73 158.2  18.4  34152  289.45 0855.28
2009/04/23 10:23:36.9      62   -231     25    240    242 164.8   6.1  34146  289.32 0855.28
2009/04/23 10:23:37.0     -51   -187    -53    195    203 195.4 -15.2  34158  289.53 0855.28
2009/04/23 10:23:37.1     -83     46    -72     96    120 299.3 -45.1  34154  289.46 0855.28
2009/04/23 10:23:37.2     -38     90    -18     98    100 336.8 -10.9  34152  289.45 0855.28
2009/04/23 10:23:37.3     -91     58     65    108    126 302.5  34.0  34166  289.69 0855.28
2009/04/23 10:23:37.4    -330     24     47    331    335 274.3   8.1  34142  289.26 0855.28
2009/04/23 10:23:37.5    -167     36     28    171    174 282.2   9.3  34128  289.04 0855.28
2009/04/23 10:23:37.6    -213   -103     92    237    254 244.2  22.1  34154  289.46 0855.28
2009/04/23 10:23:37.7    -259    -92      8    276    277 250.3   1.8  34154  289.46 0855.28
2009/04/23 10:23:37.8    -193    -76    -42    208    213 248.3 -11.6  34154  289.46 0855.28
2009/04/23 10:23:37.9    -141   -133      9    194    195 226.7   2.9  34156  289.50 0855.28
2009/04/23 10:23:38.0    -232   -118    -70    261    271 242.9 -15.0  34148  289.37 0855.28
2009/04/23 10:23:38.1    -251   -148   -103    292    309 239.4 -24.4  34150  289.39 0855.28
2009/04/23 10:23:38.2    -301    -85   -206    313    374 254.1 -40.8  34162  289.59 0855.28
2009/04/23 10:23:38.3    -188   -201    -19    276    277 223.2  -4.1  34152  289.42 0855.28
2009/04/23 10:23:38.4    -113   -234     45    261    265 205.9   9.9  34152  289.44 0855.28
2009/04/23 10:23:38.5     -17   -406     42    407    410 182.5   6.0  34146  289.34 0855.28
2009/04/23 10:23:38.6     -57   -469      1    473    474 187.0   0.2  34148  289.37 0855.28
2009/04/23 10:23:38.7    -139   -430     46    452    455 197.9   5.9  34138  289.21 0855.28
2009/04/23 10:23:38.8     -98   -377    112    390    406 194.6  16.1  34140  289.23 0855.27
2009/04/23 10:23:38.9    -112   -413    103    428    441 195.2  13.6  34140  289.22 0855.27
2009/04/23 10:23:39.0     101   -416    133    429    450 166.3  17.3  34144  289.31 0855.27
2009/04/23 10:23:39.1     113   -477     91    491    500 166.6  10.6  34132  289.10 0855.27
2009/04/23 10:23:39.2     167   -452    143    482    503 159.7  16.5  34128  289.03 0855.27
2009/04/23 10:23:39.3     241   -479    114    537    550 153.3  12.0  34124  288.97 0855.27
2009/04/23 10:23:39.4     210   -445    161    493    519 154.7  18.1  34126  289.01 0855.27
2009/04/23 10:23:39.5     203   -450    116    494    508 155.7  13.3  34136  289.15 0855.27
2009/04/23 10:23:39.6     232   -489     27    542    543 154.6   2.9  34132  289.11 0855.27
2009/04/23 10:23:39.7     171   -524    -15    552    553 161.9  -1.6  34132  289.11 0855.27
2009/04/23 10:23:39.8     196   -478    -28    517    518 157.7  -3.2  34126  289.01 0855.27
2009/04/23 10:23:39.9     236   -376     32    445    447 147.9   4.2  34126  289.00 0855.27
2009/04/23 10:23:40.0     142   -644    143    660    676 167.5  12.3  34124  288.97 0855.27
2009/04/23 10:23:40.1      82   -664    170    670    692 172.9  14.3  34126  288.99 0855.27
2009/04/23 10:23:40.2      69   -541    182    546    576 172.7  18.5  34110  288.74 0855.27
2009/04/23 10:23:40.3     110   -546    157    557    579 168.5  15.8  34122  288.93 0855.27
2009/04/23 10:23:40.4     149   -402     54    430    434 159.6   7.2  34124  288.95 0855.27
2009/04/23 10:23:40.5     230   -370     95    436    447 148.1  12.3  34120  288.90 0855.27
2009/04/23 10:23:40.6     351   -348    -24    495    496 134.8  -2.8  34124  288.96 0855.27
2009/04/23 10:23:40.7     295   -301   -150    422    449 135.6 -19.6  34128  289.02 0855.27
2009/04/23 10:23:40.8     150   -193    -60    245    253 142.1 -13.9  34124  288.97 0855.26
2009/04/23 10:23:40.9      25   -198   -120    200    233 172.7 -38.4  34128  289.02 0855.26
2009/04/23 10:23:41.0      20   -262   -130    263    293 175.6 -32.6  34126  289.00 0855.26
2009/04/23 10:23:41.1    -105   -264    -81    285    296 201.8 -20.7  34118  288.85 0855.26
2009/04/23 10:23:41.2    -137   -134     -8    192    193 225.6  -2.6  34122  288.92 0855.26
2009/04/23 10:23:41.3     -17    -84    148     86    171 191.6  67.2  34136  289.18 0855.26
2009/04/23 10:23:41.4       6   -385    211    386    439 179.1  31.0  34124  288.95 0855.26
2009/04/23 10:23:41.5     -99   -501    104    511    522 191.2  11.6  34122  288.93 0855.26
2009/04/23 10:23:41.6     -39   -424    151    427    454 185.4  19.5  34128  289.02 0855.26
2009/04/23 10:23:41.7     -41   -525     93    527    536 184.5  10.0  34130  289.06 0855.26
2009/04/23 10:23:41.8     -19   -433    170    434    466 182.6  22.7  34126  288.99 0855.26
2009/04/23 10:23:41.9     108   -415    150    429    454 165.3  20.0  34120  288.89 0855.26
2009/04/23 10:23:42.0     102   -504    121    515    529 168.5  13.2  34114  288.80 0855.26
2009/04/23 10:23:42.1      42   -562     70    564    569 175.7   7.1  34116  288.84 0855.26
2009/04/23 10:23:42.2      77   -548    118    554    567 172.0  12.1  34100  288.55 0855.26
2009/04/23 10:23:42.3      33   -534     98    536    545 176.4  10.4  34110  288.72 0855.26
2009/04/23 10:23:42.4     -25   -531    260    532    592 182.8  28.0  34108  288.70 0855.26
2009/04/23 10:23:42.5    -167   -525    200    551    586 197.7  20.9  34110  288.71 0855.26
2009/04/23 10:23:42.6    -138   -588    162    605    627 193.3  15.0  34116  288.81 0855.26
2009/04/23 10:23:42.7    -153   -612    210    631    665 194.1  18.4  34118  288.86 0855.26
2009/04/23 10:23:42.8    -205   -643    224    675    712 197.7  18.4  34110  288.73 0855.26
2009/04/23 10:23:42.9    -214   -744    157    775    791 196.0  11.5  34116  288.81 0855.26
2009/04/23 10:23:43.0    -204   -762    276    789    835 195.1  20.0  34126  288.99 0855.26
2009/04/23 10:23:43.1    -224   -757     73    790    794 196.5   5.3  34114  288.80 0855.26
2009/04/23 10:23:43.2    -165   -778     48    796    798 192.0   3.5  34116  288.81 0855.26
2009/04/23 10:23:43.3    -105   -761    135    769    782 187.9  10.0  34124  288.97 0855.26
2009/04/23 10:23:43.4     -27   -603    253    604    654 182.6  24.1  34134  289.13 0855.26
2009/04/23 10:23:43.5     178   -755    -69    776    780 166.7  -5.1  34130  289.07 0855.26
2009/04/23 10:23:43.6     125   -678   -150    690    707 169.5 -12.3  34128  289.03 0855.26
2009/04/23 10:23:43.7      91   -604   -116    611    623 171.4 -10.8  34134  289.13 0855.26
2009/04/23 10:23:43.8      25   -586    -84    587    594 177.5  -8.2  34130  289.05 0855.26
2009/04/23 10:23:43.9     193   -585     76    617    622 161.7   7.1  34126  288.99 0855.26
2009/04/23 10:23:44.0     264   -580    186    638    665 155.5  16.3  34132  289.11 0855.26
2009/04/23 10:23:44.1     248   -661    150    707    723 159.4  12.0  34132  289.10 0855.26
2009/04/23 10:23:44.2     242   -605    128    652    665 158.2  11.1  34130  289.07 0855.26
2009/04/23 10:23:44.3     152   -746    -30    762    763 168.4  -2.3  34138  289.19 0855.26
2009/04/23 10:23:44.4     319   -580     98    662    670 151.2   8.5  34138  289.19 0855.26
2009/04/23 10:23:44.5     260   -571     58    628    631 155.5   5.3  34130  289.06 0855.26
2009/04/23 10:23:44.6     196   -599    190    631    660 161.9  16.8  34134  289.13 0855.26
2009/04/23 10:23:44.7     145   -506    227    527    573 164.0  24.8  34122  288.92 0855.26
2009/04/23 10:23:44.8      78   -621    283    626    686 172.8  25.9  34130  289.07 0855.27
2009/04/23 10:23:44.9     159   -457    367    484    607 160.8  40.9  34124  288.97 0855.27
2009/04/23 10:23:45.0     185   -585    387    614    725 162.4  35.3  34130  289.07 0855.27
2009/04/23 10:23:45.1     349   -564    178    664    688 148.3  15.0  34128  289.04 0855.27
2009/04/23 10:23:45.2     401   -313    266    509    574 128.0  29.8  34126  288.99 0855.27
2009/04/23 10:23:45.3     356   -227    215    423    474 122.5  29.2  34130  289.05 0855.27
2009/04/23 10:23:45.4     393   -494    221    632    670 141.5  19.3  34126  288.99 0855.27
2009/04/23 10:23:45.5     436   -287    158    523    547 123.4  16.8  34128  289.02 0855.27
2009/04/23 10:23:45.6     446   -179    128    481    498 111.9  15.0  34128  289.03 0855.27
2009/04/23 10:23:45.7     600   -191    242    630    674 107.7  22.2  34122  288.94 0855.27
2009/04/23 10:23:45.8     472   -173    131    503    520 110.2  14.7  34126  289.01 0855.27
2009/04/23 10:23:45.9     379   -110    161    395    426 106.3  23.4  34122  288.94 0855.27
2009/04/23 10:23:46.0     401   -159    152    432    459 111.7  19.4  34132  289.11 0855.27
2009/04/23 10:23:46.1     389   -154    132    419    440 111.7  17.5  34132  289.09 0855.27
2009/04/23 10:23:46.2     448   -315    -28    548    549 125.1  -3.0  34128  289.04 0855.27
2009/04/23 10:23:46.3     448   -445    -30    632    633 134.8  -2.8  34132  289.09 0855.27
2009/04/23 10:23:46.4     516   -339    -59    618    621 123.3  -5.5  34126  289.01 0855.27
2009/04/23 10:23:46.5     467   -318     -2    566    567 124.3  -0.3  34124  288.96 0855.27
2009/04/23 10:23:46.6     412   -199     85    458    466 115.9  10.6  34130  289.05 0855.27
2009/04/23 10:23:46.7     404   -127    169    424    456 107.5  23.0  34124  288.97 0855.27
2009/04/23 10:23:46.8     378    -69     70    385    392 100.4  10.4  34126  289.01 0855.27
2009/04/23 10:23:46.9     221   -123     89    253    269 119.1  19.4  34124  288.95 0855.27
2009/04/23 10:23:47.0     135   -124    174    184    253 132.4  48.7  34132  289.10 0855.27
2009/04/23 10:23:47.1     -23    -46    218     52    224 207.2  86.9  34142  289.26 0855.27
2009/04/23 10:23:47.2     -51     42    231     67    240 309.5  83.3  34150  289.40 0855.27
2009/04/23 10:23:47.3     -47     87    205    100    228 331.5  72.7  34150  289.41 0855.27
2009/04/23 10:23:47.4     -38     66    187     77    202 330.1  76.6  34150  289.40 0855.27
2009/04/23 10:23:47.5    -122    248    141    277    310 333.7  29.2  34130  289.07 0855.27
2009/04/23 10:23:47.6    -311    304    141    436    459 314.3  17.9  34136  289.17 0855.27
2009/04/23 10:23:47.7    -354    176    167    396    429 296.4  24.2  34140  289.22 0855.27
2009/04/23 10:23:47.8    -165    229    123    283    308 324.2  25.1  34142  289.25 0855.27
2009/04/23 10:23:47.9    -206    169    101    267    285 309.5  21.7  34140  289.24 0855.27
2009/04/23 10:23:48.0    -258     71     90    268    283 285.5  18.6  34148  289.37 0855.27
2009/04/23 10:23:48.1    -250     46    155    255    298 280.6  34.2  34150  289.39 0855.27
2009/04/23 10:23:48.2     -65   -134    151    150    212 205.9  50.1  34142  289.28 0855.27
2009/04/23 10:23:48.3    -263   -185    128    322    346 234.9  23.0  34136  289.16 0855.27
2009/04/23 10:23:48.4     -88   -172    286    194    345 207.0  62.7  34148  289.37 0855.27
2009/04/23 10:23:48.5    -156   -121    123    198    233 232.0  35.5  34132  289.09 0855.27
2009/04/23 10:23:48.6    -269   -179    295    324    438 236.3  47.0  34152  289.43 0855.27
2009/04/23 10:23:48.7      90     79    197    121    231  48.7  65.1  34138  289.21 0855.27
2009/04/23 10:23:48.8     -70   -298    307    307    434 193.3  50.1  34132  289.10 0855.28
2009/04/23 10:23:48.9    -104   -133    324    170    365 218.1  70.3  34136  289.17 0855.28
2009/04/23 10:23:49.0       3   -209    337    210    397 179.1  65.3  34142  289.26 0855.28
2009/04/23 10:23:49.1      85   -214    422    231    481 158.2  69.2  34146  289.33 0855.28
2009/04/23 10:23:49.2     -21    175    238    177    296 353.1  60.0  34136  289.15 0855.28
2009/04/23 10:23:49.3     409    -31    387    411    564  94.4  48.2  34130  289.06 0855.28
2009/04/23 10:23:49.4     161   -413    310    444    541 158.7  38.4  34126  289.01 0855.28
2009/04/23 10:23:49.5     131   -531    385    547    668 166.1  38.6  34126  289.01 0855.28
2009/04/23 10:23:49.6     161   -498    363    524    637 162.1  38.1  34132  289.10 0855.28
2009/04/23 10:23:49.7     355   -487    233    603    646 143.9  22.3  34130  289.06 0855.28
2009/04/23 10:23:49.8     385   -474     -7    612    613 140.9  -0.7  34132  289.10 0855.28
2009/04/23 10:23:49.9     323   -282     -1    430    431 131.1  -0.2  34146  289.33 0855.28
2009/04/23 10:23:50.0     367   -145   -117    395    413 111.7 -16.5  34150  289.41 0855.28
2009/04/23 10:23:50.1     352    -72   -154    360    391 101.6 -29.0  34152  289.43 0855.28
2009/04/23 10:23:50.2     329    -64     41    336    339 101.1   7.1  34130  289.06 0855.28
2009/04/23 10:23:50.3     358    -17    -18    359    360  92.8  -3.0  34148  289.37 0855.28
2009/04/23 10:23:50.4     278    -32    121    280    305  96.6  25.1  34146  289.32 0855.28
2009/04/23 10:23:50.5     194     41    -10    199    200  77.8  -3.1  34150  289.41 0855.28
2009/04/23 10:23:50.6     183    185    -95    261    277  44.8 -25.4  34160  289.56 0855.28
2009/04/23 10:23:50.7      27    197   -176    199    265   7.8 -50.3  34160  289.56 0855.28
2009/04/23 10:23:50.8     130    188    -91    229    246  34.7 -27.4  34148  289.36 0855.28
2009/04/23 10:23:50.9     -25     77   -116     82    142 341.5 -65.0  34136  289.16 0855.28
2009/04/23 10:23:51.0    -167     12    -40    168    173 274.3 -13.4  34132  289.11 0855.28
2009/04/23 10:23:51.1    -255    288    -49    385    389 318.5  -7.3  34136  289.15 0855.28
2009/04/23 10:23:51.2     -79     92    167    122    206 319.5  60.3  34150  289.40 0855.28
2009/04/23 10:23:51.3     -10     52    200     54    207 348.4  84.9  34158  289.53 0855.28
2009/04/23 10:23:51.4      -2     37    172     38    176 355.5  88.0  34156  289.50 0855.28
2009/04/23 10:23:51.5      50      3    151     51    159  86.5  81.0  34146  289.35 0855.28
2009/04/23 10:23:51.6     -36     37     82     52     97 315.8  64.7  34154  289.48 0855.28
2009/04/23 10:23:51.7     -57      5     52     58     77 275.2  47.9  34156  289.52 0855.28
2009/04/23 10:23:51.8    -198    125     54    235    242 302.4  13.1  34146  289.32 0855.28
2009/04/23 10:23:51.9     -60     -8     43     61     74 262.1  38.6  34162  289.60 0855.28
2009/04/23 10:23:52.0      92     59     76    110    133  57.5  37.6  34164  289.63 0855.28
2009/04/23 10:23:52.1      70    107    125    129    179  33.4  49.2  34158  289.53 0855.28
2009/04/23 10:23:52.2      33     53    125     63    139  32.5  71.0  34176  289.85 0855.28
2009/04/23 10:23:52.3     -72     52    119     90    149 306.0  59.0  34182  289.96 0855.28
2009/04/23 10:23:52.4    -207     18    109    208    234 275.2  29.8  34172  289.79 0855.28
2009/04/23 10:23:52.5    -232    -96      5    252    253 247.4   1.2  34162  289.59 0855.28
2009/04/23 10:23:52.6    -139    -93    -21    168    170 236.3  -7.3  34158  289.53 0855.28
2009/04/23 10:23:52.7    -116   -109    -11    160    161 226.9  -4.1  34138  289.19 0855.28
2009/04/23 10:23:52.8    -228    -63     42    237    241 254.5  10.1  34154  289.47 0855.28
2009/04/23 10:23:52.9    -140   -251      4    288    289 209.2   0.8  34156  289.49 0855.28
2009/04/23 10:23:53.0    -128   -310     48    336    340 202.5   8.2  34130  289.06 0855.28
2009/04/23 10:23:53.1     -71   -344     -6    352    353 191.7  -1.1  34124  288.96 0855.28
2009/04/23 10:23:53.2    -166   -252     75    303    313 213.4  13.9  34124  288.95 0855.28
2009/04/23 10:23:53.3    -225   -342    109    410    425 213.4  14.9  34124  288.97 0855.28
2009/04/23 10:23:53.4    -277   -217     46    353    356 231.9   7.5  34152  289.45 0855.28
2009/04/23 10:23:53.5    -290   -230    -33    371    373 231.6  -5.1  34164  289.65 0855.28
2009/04/23 10:23:53.6    -340   -258   -120    427    444 232.8 -15.7  34128  289.02 0855.28
2009/04/23 10:23:53.7    -294   -298   -103    419    432 224.6 -13.8  34132  289.09 0855.28
2009/04/23 10:23:53.8    -364   -229   -144    431    455 237.8 -18.6  34150  289.39 0855.28
2009/04/23 10:23:53.9    -393   -243    -58    463    467 238.3  -7.2  34158  289.54 0855.28
2009/04/23 10:23:54.0    -465   -141    -41    487    489 253.1  -4.9  34162  289.62 0855.28
2009/04/23 10:23:54.1    -527   -148     56    548    551 254.3   5.9  34178  289.87 0855.28
2009/04/23 10:23:54.2    -368   -190     96    415    427 242.7  13.1  34166  289.68 0855.28
2009/04/23 10:23:54.3    -337   -271    151    433    459 231.2  19.3  34148  289.38 0855.28
2009/04/23 10:23:54.4    -338   -297    264    451    522 228.7  33.0  34134  289.13 0855.28
2009/04/23 10:23:54.5    -451   -144    110    474    487 252.2  13.1  34136  289.17 0855.28
2009/04/23 10:23:54.6    -403   -218    152    459    484 241.6  18.4  34142  289.28 0855.28
2009/04/23 10:23:54.7    -267     60     39    274    277 282.8   8.2  34152  289.42 0855.26
2009/04/23 10:23:54.8    -579    -81   -134    585    601 262.0 -12.9  34146  289.34 0855.26
2009/04/23 10:23:54.9    -477   -137   -197    497    534 254.0 -27.3  34132  289.11 0855.26
2009/04/23 10:23:55.0    -422   -225   -151    479    503 241.9 -17.5  34126  289.01 0855.26
2009/04/23 10:23:55.1    -405   -348    161    535    559 229.3  16.8  34120  288.89 0855.26
2009/04/23 10:23:55.2    -459   -181     64    494    499 248.4   7.4  34146  289.35 0855.26
2009/04/23 10:23:55.3    -471    -50      8    474    475 263.9   1.0  34136  289.17 0855.26
2009/04/23 10:23:55.4    -467   -257     50    533    536 241.2   5.4  34136  289.18 0855.26
2009/04/23 10:23:55.5    -267   -247     30    365    367 227.2   4.7  34134  289.13 0855.26
2009/04/23 10:23:55.6    -302   -259     45    398    401 229.4   6.6  34144  289.30 0855.26
2009/04/23 10:23:55.7    -282   -234    190    367    413 230.4  29.4  34154  289.47 0855.26
2009/04/23 10:23:55.8    -356    -72    143    364    391 258.4  22.7  34156  289.50 0855.26
2009/04/23 10:23:55.9    -191    -50    106    198    224 255.2  30.6  34164  289.65 0855.26
2009/04/23 10:23:56.0     -35   -207    213    211    299 189.8  50.1  34132  289.10 0855.26
2009/04/23 10:23:56.1    -162   -212    225    267    349 217.4  44.3  34122  288.93 0855.26
2009/04/23 10:23:56.2    -180   -232    152    294    330 217.9  29.6  34128  289.02 0855.26
2009/04/23 10:23:56.3     -55   -364    188    369    414 188.6  29.2  34122  288.94 0855.26
2009/04/23 10:23:56.4     -21   -464    121    465    481 182.7  14.6  34120  288.91 0855.26
2009/04/23 10:23:56.5      -3   -376    199    377    426 180.6  30.2  34112  288.77 0855.26
2009/04/23 10:23:56.6     189   -281    229    339    409 146.1  37.4  34128  289.04 0855.26
2009/04/23 10:23:56.7     175   -273    183    325    372 147.3  31.7  34126  289.01 0855.26
2009/04/23 10:23:56.8      93   -316    197    330    384 163.6  33.6  34130  289.08 0855.26
2009/04/23 10:23:56.9     129   -232    175    266    318 151.0  36.5  34126  288.98 0855.26
2009/04/23 10:23:57.0      98   -246    144    266    302 158.2  31.3  34122  288.92 0855.26
2009/04/23 10:23:57.1       1   -191    144    192    240 179.5  40.7  34130  289.06 0855.26
2009/04/23 10:23:57.2     -32   -135     46    139    147 193.4  18.4  34128  289.02 0855.26
2009/04/23 10:23:57.3    -115   -106    -63    157    169 227.3 -27.4  34128  289.02 0855.26
2009/04/23 10:23:57.4     -84    -53    -36    100    106 237.6 -24.4  34128  289.04 0855.26
2009/04/23 10:23:57.5     -25     -8     56     27     62 251.4  72.9  34132  289.11 0855.26
2009/04/23 10:23:57.6       9    -25     80     27     84 160.0  81.0  34140  289.24 0855.26
2009/04/23 10:23:57.7      46   -129     86    138    162 160.4  35.2  34130  289.06 0855.27
2009/04/23 10:23:57.8      71   -215    -12    227    228 161.7  -3.1  34128  289.02 0855.27
2009/04/23 10:23:57.9      -4   -231     11    232    233 181.1   2.8  34128  289.02 0855.27
2009/04/23 10:23:58.0      -3   -208     44    209    214 181.0  12.0  34126  289.01 0855.27
2009/04/23 10:23:58.2     -46   -137    -43    145    151 198.7 -21.7  34128  289.02 0855.27
2009/04/23 10:23:58.2      -9   -116   -106    117    157 184.5 -51.3  34132  289.09 0855.27
2009/04/23 10:23:58.3     -46      1     16     47     50 271.7  19.4  34130  289.06 0855.27
2009/04/23 10:23:58.5    -206    131    -68    245    255 302.4 -15.5  34136  289.15 0855.27
2009/04/23 10:23:58.6     -98     82   -130    129    183 310.0 -54.3  34148  289.38 0855.27
2009/04/23 10:23:58.7      34     73   -191     81    207  25.5 -79.9  34148  289.36 0855.27
2009/04/23 10:23:58.8     -37    138    -48    143    151 344.9 -18.7  34142  289.28 0855.27
2009/04/23 10:23:58.9     -15    174     21    175    177 354.9   6.9  34140  289.23 0855.27
2009/04/23 10:23:59.0     -73    -55    197     92    217 232.7  73.2  34162  289.62 0855.27
2009/04/23 10:23:59.1    -120    -85    157    148    215 234.5  52.1  34156  289.50 0855.27
2009/04/23 10:23:59.2     -24     -4     86     25     89 260.3  83.3  34152  289.43 0855.27
2009/04/23 10:23:59.3     -22   -165    140    167    217 187.6  44.1  34136  289.18 0855.27
2009/04/23 10:23:59.4     113   -190     95    222    241 149.3  24.3  34130  289.05 0855.27
2009/04/23 10:23:59.5      88   -125     69    154    168 144.8  25.7  34130  289.08 0855.27
2009/04/23 10:23:59.6     -13    -93     64     94    113 188.0  37.0  34140  289.24 0855.27
2009/04/23 10:23:59.7      15   -139    -17    140    142 173.8  -7.2  34130  289.08 0855.27
2009/04/23 10:23:59.8       0   -162    -76    163    179 180.2 -31.4  34132  289.11 0855.26
2009/04/23 10:23:59.9     -50    -71   -140     87    164 215.2 -69.5  34138  289.21 0855.26
2009/04/23 10:24:00.0     -50   -126   -104    136    171 201.9 -45.8  34138  289.21 0855.26
2009/04/23 10:24:00.1    -165     14   -110    166    199 275.0 -41.1  34140  289.24 0855.26
2009/04/23 10:24:00.2     -47     36    -95     60    112 307.8 -69.1  34148  289.36 0855.26
2009/04/23 10:24:00.3    -104    -47   -100    115    152 245.6 -50.2  34168  289.70 0855.26
2009/04/23 10:24:00.4     -38    -38   -102     55    115 225.0 -73.7  34168  289.72 0855.26
2009/04/23 10:24:00.5     -29   -140    -81    144    165 192.0 -36.3  34164  289.63 0855.26
2009/04/23 10:24:00.6       1   -139    -42    140    146 179.5 -21.7  34152  289.45 0855.26
2009/04/23 10:24:00.7      -6   -171    -23    172    174 182.0  -7.7  34138  289.21 0855.26
2009/04/23 10:24:00.8       0   -210     15    211    212 180.2   4.2  34126  289.01 0855.26
2009/04/23 10:24:00.9       6   -112     34    113    119 176.9  16.8  34138  289.21 0855.26
2009/04/23 10:24:01.0       0    -21    -20     22     29 179.1 -54.4  34138  289.21 0855.26
2009/04/23 10:24:01.1     112    -52    -77    124    145 115.2 -39.9  34134  289.14 0855.26
2009/04/23 10:24:01.2      89   -124      7    153    154 144.4   2.9  34130  289.06 0855.26
2009/04/23 10:24:01.3     185   -130    -54    227    234 125.1 -13.4  34128  289.02 0855.26
2009/04/23 10:24:01.4     301     -9    -16    302    303  91.9  -3.2  34120  288.90 0855.26
2009/04/23 10:24:01.5     397    100     -8    410    411  75.8  -1.2  34126  289.00 0855.26
2009/04/23 10:24:01.6     209    -92    -78    229    241 113.7 -23.6  34128  289.02 0855.26
2009/04/23 10:24:01.7     222     15     84    223    238  86.1  21.5  34120  288.88 0855.26
2009/04/23 10:24:01.8     318     16    115    319    340  87.0  19.9  34126  288.98 0855.29
2009/04/23 10:24:01.9     324    -36    126    327    350  96.4  22.0  34126  289.01 0855.29
2009/04/23 10:24:02.0     388   -134    233    411    472 109.1  32.1  34126  289.00 0855.29
2009/04/23 10:24:02.1     294    -55    261    300    397 100.6  45.5  34130  289.06 0855.29
2009/04/23 10:24:02.2     178   -222     55    285    291 141.2  11.0  34126  289.00 0855.29
2009/04/23 10:24:02.3     229   -171     73    286    296 126.8  14.3  34130  289.05 0855.29
2009/04/23 10:24:02.4     188   -136      3    233    234 125.9   0.8  34132  289.09 0855.29
2009/04/23 10:24:02.5     190   -163     10    251    252 130.5   2.3  34130  289.07 0855.29
2009/04/23 10:24:02.6     230   -165     77    284    295 125.7  15.3  34128  289.03 0855.29
2009/04/23 10:24:02.7     303   -150    151    339    371 116.4  25.6  34130  289.08 0855.29
2009/04/23 10:24:02.8     271   -138    149    305    339 117.1  27.9  34130  289.07 0855.29
2009/04/23 10:24:02.9     242   -159    176    290    339 123.3  34.3  34128  289.03 0855.29
2009/04/23 10:24:03.0     203   -147    178    251    307 125.9  38.8  34134  289.12 0855.29
2009/04/23 10:24:03.1     204   -174    136    269    301 130.4  29.2  34136  289.15 0855.29
2009/04/23 10:24:03.2     205   -198    179    286    337 134.0  35.1  34132  289.09 0855.29
2009/04/23 10:24:03.3     246   -173    185    301    353 125.1  34.3  34132  289.10 0855.29
2009/04/23 10:24:03.4     274   -217    288    350    453 128.4  43.7  34130  289.05 0855.29
2009/04/23 10:24:03.5     139    -98    252    171    304 125.3  62.6  34134  289.14 0855.29
2009/04/23 10:24:03.6     165   -228    213    282    353 144.0  40.9  34126  289.01 0855.29
2009/04/23 10:24:03.7     222   -249    225    334    402 138.3  37.3  34130  289.06 0855.29
2009/04/23 10:24:03.8     350   -157    354    384    522 114.2  47.5  34130  289.08 0855.27
2009/04/23 10:24:03.9     161   -346    280    382    473 155.1  39.9  34130  289.07 0855.27
2009/04/23 10:24:04.0       8   -440    213    441    489 178.9  27.7  34130  289.06 0855.27
2009/04/23 10:24:04.1      -5   -483    287    484    562 180.6  33.5  34126  289.01 0855.27
2009/04/23 10:24:04.2     -29   -564    199    565    599 183.0  20.2  34136  289.15 0855.27
2009/04/23 10:24:04.3      46   -601    284    603    666 175.6  27.1  34126  289.01 0855.27
2009/04/23 10:24:04.4     168   -468    325    498    594 160.2  36.2  34126  289.01 0855.27
2009/04/23 10:24:04.5     158   -361    302    395    497 156.3  41.2  34136  289.15 0855.27
2009/04/23 10:24:04.6     198   -435    216    479    525 155.5  25.9  34128  289.03 0855.27
2009/04/23 10:24:04.7     152   -451    361    477    598 161.3  40.9  34122  288.92 0855.27
2009/04/23 10:24:04.8      53   -413    288    417    506 172.6  37.9  34136  289.15 0855.27
2009/04/23 10:24:04.9      21   -381    191    382    427 176.8  28.4  34132  289.09 0855.27
2009/04/23 10:24:05.0    -137   -421    177    443    477 198.0  23.0  34126  289.01 0855.27
2009/04/23 10:24:05.1    -161   -560    222    583    623 196.0  21.8  34134  289.14 0855.27
2009/04/23 10:24:05.2     -38   -375    146    377    404 185.8  22.2  34132  289.11 0855.27
2009/04/23 10:24:05.3      33   -330    287    332    438 174.2  45.2  34128  289.02 0855.27
2009/04/23 10:24:05.4     -53   -425    308    429    528 187.1  39.3  34130  289.05 0855.27
2009/04/23 10:24:05.5       6   -423    254    424    494 179.1  33.8  34132  289.10 0855.27
2009/04/23 10:24:05.6     108   -446    168    459    488 166.3  21.0  34128  289.03 0855.27
2009/04/23 10:24:05.7     -22   -327    263    328    420 184.0  42.9  34134  289.13 0855.27
2009/04/23 10:24:05.8     -40   -610    370    612    715 183.8  34.1  34130  289.05 0855.26
2009/04/23 10:24:05.9      18   -594    438    595    738 178.2  40.0  34132  289.10 0855.26
2009/04/23 10:24:06.0      56   -744    201    746    773 175.6  15.1  34136  289.18 0855.26
2009/04/23 10:24:06.1     -72   -631    397    636    749 186.6  34.9  34136  289.17 0855.26
2009/04/23 10:24:06.2      43   -590    225    592    633 175.8  21.8  34142  289.25 0855.26
2009/04/23 10:24:06.3     160   -628    288    649    710 165.7  25.5  34128  289.04 0855.26
2009/04/23 10:24:06.4     116   -662    234    673    713 170.0  19.2  34132  289.10 0855.26
2009/04/23 10:24:06.5     -15   -651    255    652    700 181.4  22.5  34134  289.12 0855.26
2009/04/23 10:24:06.6       8   -535    190    536    570 179.1  19.6  34132  289.11 0855.26
2009/04/23 10:24:06.7     143   -527     48    547    550 164.8   5.1  34134  289.13 0855.26
2009/04/23 10:24:06.8     120   -505    104    520    531 166.6  11.3  34134  289.14 0855.26
2009/04/23 10:24:06.9      47   -577    277    580    642 175.3  27.3  34124  288.96 0855.26
2009/04/23 10:24:07.0     139   -759    127    772    783 169.6   9.3  34132  289.10 0855.26
2009/04/23 10:24:07.1      43   -619    327    621    701 176.0  30.1  34120  288.88 0855.26
2009/04/23 10:24:07.2    -181   -594    301    622    691 196.9  27.7  34124  288.95 0855.26
2009/04/23 10:24:07.3      54   -469    153    473    498 173.4  17.9  34126  289.01 0855.26
2009/04/23 10:24:07.4      32   -407    311    409    513 175.4  41.2  34134  289.13 0855.26
2009/04/23 10:24:07.5     -89   -586    262    593    648 188.7  25.3  34122  288.93 0855.26
2009/04/23 10:24:07.6     -44   -404    357    407    541 186.3  45.8  34136  289.15 0855.26
2009/04/23 10:24:07.7     -51   -360    297    364    469 188.1  43.4  34138  289.19 0855.26
2009/04/23 10:24:07.8       9   -317    208    318    379 178.2  36.2  34130  289.08 0855.27
2009/04/23 10:24:07.9      42   -427    205    430    476 174.3  27.3  34138  289.19 0855.27
2009/04/23 10:24:08.0      49   -325    255    329    416 171.4  41.7  34130  289.08 0855.27
2009/04/23 10:24:08.1     -36   -333    209    336    395 186.3  34.8  34140  289.23 0855.27
2009/04/23 10:24:08.2      44   -221    271    226    352 168.7  56.1  34142  289.27 0855.27
2009/04/23 10:24:08.3      16   -128    159    130    205 172.9  56.4  34142  289.28 0855.27
2009/04/23 10:24:08.4     157   -106     66    190    202 124.0  19.2  34138  289.21 0855.27
2009/04/23 10:24:08.5     265     11    -42    266    270  87.5  -9.0  34136  289.17 0855.27
2009/04/23 10:24:08.6     208   -135    -73    249    260 123.1 -16.5  34134  289.12 0855.27
2009/04/23 10:24:08.7       0   -398    -45    399    402 180.0  -6.5  34132  289.11 0855.27
2009/04/23 10:24:08.8     -22   -409   -168    410    443 183.1 -28.0  34134  289.12 0855.27
2009/04/23 10:24:08.9      -6   -349    -26    350    351 181.0  -4.4  34134  289.13 0855.27
2009/04/23 10:24:09.0      83   -410    -54    419    423 168.5  -7.5  34128  289.04 0855.27
2009/04/23 10:24:09.1     121    -95    104    155    186 128.2  36.7  34126  289.01 0855.27
2009/04/23 10:24:09.2     160    129    195    206    283  51.1  48.2  34134  289.14 0855.27
2009/04/23 10:24:09.3     203    201    178    286    336  45.3  35.0  34142  289.27 0855.27
2009/04/23 10:24:09.4     265     69    110    274    295  75.4  23.1  34138  289.19 0855.27
2009/04/23 10:24:09.5     299   -190    215    355    415 122.5  34.1  34128  289.04 0855.27
2009/04/23 10:24:09.6     449   -150    197    474    513 108.5  23.8  34124  288.95 0855.27
2009/04/23 10:24:09.7     367   -144    209    395    446 111.4  30.2  34124  288.97 0855.27
2009/04/23 10:24:09.8     344   -161    147    380    407 115.1  22.2  34128  289.03 0855.26
2009/04/23 10:24:09.9     282    -22    171    283    330  94.6  34.2  34122  288.92 0855.26
2009/04/23 10:24:10.0     354     11    149    355    385  88.1  24.2  34126  288.99 0855.26
2009/04/23 10:24:10.1     394     35     12    396    397  84.9   1.8  34122  288.94 0855.26
2009/04/23 10:24:10.2     350   -212    -16    410    411 121.2  -2.2  34122  288.92 0855.26
2009/04/23 10:24:10.3     127   -249    122    280    305 152.8  25.1  34124  288.95 0855.26
2009/04/23 10:24:10.4      59   -342    199    348    400 170.1  32.4  34122  288.94 0855.26
2009/04/23 10:24:10.5     174   -359    266    400    480 154.1  36.9  34122  288.92 0855.26
2009/04/23 10:24:10.6     203   -572    217    608    646 160.4  19.7  34122  288.93 0855.26
2009/04/23 10:24:10.7     288   -436     81    523    530 146.5   8.9  34116  288.84 0855.26
2009/04/23 10:24:10.8     300   -407     89    506    514 143.6  10.0  34110  288.71 0855.26
2009/04/23 10:24:10.9      94   -273     55    289    295 160.9  10.8  34114  288.78 0855.26
2009/04/23 10:24:11.0    -135   -618    171    633    656 192.4  15.2  34114  288.79 0855.26
2009/04/23 10:24:11.1      15   -614    205    615    649 178.5  18.5  34122  288.93 0855.26
2009/04/23 10:24:11.2      79   -564    178    570    598 172.0  17.4  34112  288.75 0855.26
2009/04/23 10:24:11.3      -9   -523    144    524    544 181.0  15.4  34118  288.85 0855.26
2009/04/23 10:24:11.4     -36   -471    204    473    515 184.5  24.9  34116  288.81 0855.26
2009/04/23 10:24:11.5      33   -483    145    485    507 176.0  16.7  34116  288.83 0855.26
2009/04/23 10:24:11.6     102   -397     68    411    417 165.5   9.4  34116  288.82 0855.26
2009/04/23 10:24:11.7      50   -521      7    524    525 174.4   0.8  34114  288.79 0855.26
2009/04/23 10:24:11.8     102   -426    -24    439    440 166.5  -3.2  34118  288.85 0855.26
2009/04/23 10:24:11.9     241   -318     72    400    407 142.8  10.2  34106  288.65 0855.26
2009/04/23 10:24:12.0     157   -341    -50    376    380 155.3  -7.6  34116  288.82 0855.26
2009/04/23 10:24:12.1     250   -259    102    361    376 136.0  15.8  34110  288.72 0855.26
2009/04/23 10:24:12.2     255    -23    130    257    288  95.2  29.1  34114  288.80 0855.26
2009/04/23 10:24:12.3     376   -235     53    444    448 122.0   6.9  34116  288.83 0855.26
2009/04/23 10:24:12.4     270   -348    -17    441    442 142.2  -2.2  34110  288.72 0855.26
2009/04/23 10:24:12.5     210   -572    -24    610    611 159.8  -2.3  34110  288.71 0855.26
2009/04/23 10:24:12.6     278   -491    -40    565    567 150.5  -4.1  34104  288.62 0855.26
2009/04/23 10:24:12.7      69   -668    -26    672    673 174.0  -2.2  34114  288.80 0855.26
2009/04/23 10:24:12.8      73   -695    -56    699    702 173.9  -4.6  34110  288.74 0855.26
2009/04/23 10:24:12.9     191   -666    -72    693    697 164.0  -6.0  34112  288.75 0855.26
2009/04/23 10:24:13.0     152   -592   -113    612    623 165.6 -10.5  34110  288.72 0855.26
2009/04/23 10:24:13.1     134   -593   -136    609    625 167.2 -12.6  34110  288.74 0855.26
2009/04/23 10:24:13.2     139   -319   -113    349    368 156.4 -18.0  34116  288.82 0855.26
2009/04/23 10:24:13.3      63   -673   -126    677    689 174.6 -10.6  34120  288.88 0855.26
2009/04/23 10:24:13.4     144   -586   -127    604    618 166.2 -11.9  34118  288.86 0855.26
2009/04/23 10:24:13.5     107   -564   -140    575    592 169.2 -13.7  34132  289.10 0855.26
2009/04/23 10:24:13.6     137   -459   -192    479    516 163.4 -27.4  34136  289.15 0855.26
2009/04/23 10:24:13.7      -3   -436   -182    437    473 180.5 -28.3  34136  289.17 0855.26
2009/04/23 10:24:13.8     -74   -545     -6    551    552 187.8  -0.7  34136  289.18 0855.24
2009/04/23 10:24:13.9     112   -492     -1    505    506 167.1  -0.2  34140  289.23 0855.24
2009/04/23 10:24:14.0     201   -435     40    480    482 155.2   4.9  34142  289.28 0855.24
2009/04/23 10:24:14.1     165   -406   -104    439    452 157.9 -13.4  34144  289.29 0855.24
2009/04/23 10:24:14.2     191   -549    -74    582    587 160.8  -7.3  34138  289.19 0855.24
2009/04/23 10:24:14.3     302   -421    100    519    529 144.4  11.0  34134  289.14 0855.24
2009/04/23 10:24:14.4     386   -234     -4    452    453 121.3  -0.6  34134  289.12 0855.24
2009/04/23 10:24:14.5     449   -232    -33    506    508 117.3  -3.8  34142  289.25 0855.24
2009/04/23 10:24:14.6     360   -289    -76    463    470 128.8  -9.4  34138  289.20 0855.24
2009/04/23 10:24:14.7     277   -441     88    521    529 147.9   9.6  34134  289.13 0855.24
2009/04/23 10:24:14.8     345   -410    142    536    555 139.9  14.9  34126  289.01 0855.24
2009/04/23 10:24:14.9     414   -415     91    587    595 135.1   8.9  34126  289.00 0855.24
2009/04/23 10:24:15.0     167   -546    247    572    623 163.0  24.8  34106  288.66 0855.24
2009/04/23 10:24:15.1     300   -241    299    386    488 128.8  41.7  34134  289.12 0855.24
2009/04/23 10:24:15.2     300   -332    231    448    504 137.9  29.4  34128  289.03 0855.24
2009/04/23 10:24:15.3     332   -415    144    532    552 141.4  15.1  34120  288.89 0855.24
2009/04/23 10:24:15.4     201   -479    272    520    586 157.2  29.8  34120  288.89 0855.24
2009/04/23 10:24:15.5     188   -416    190    457    494 155.6  23.8  34120  288.91 0855.24
2009/04/23 10:24:15.6     101   -307    174    324    367 161.7  30.6  34126  288.98 0855.24
2009/04/23 10:24:15.7     177   -315    131    362    384 150.7  20.7  34130  289.06 0855.24
2009/04/23 10:24:15.8     212   -357    108    416    430 149.3  14.6  34132  289.11 0855.23
2009/04/23 10:24:15.9     124   -284    146    311    343 156.4  27.1  34122  288.94 0855.23
2009/04/23 10:24:16.0     171   -295    136    342    368 149.9  22.9  34132  289.11 0855.23
2009/04/23 10:24:16.1      24   -527    208    528    567 177.3  22.8  34122  288.94 0855.23
2009/04/23 10:24:16.2     143   -514    344    534    635 164.4  35.8  34128  289.03 0855.23
2009/04/23 10:24:16.3     191   -591    353    622    715 162.1  32.1  34126  288.99 0855.23
2009/04/23 10:24:16.4     303   -490    336    577    667 148.3  32.8  34130  289.08 0855.23
2009/04/23 10:24:16.5     256   -446    265    515    579 150.1  29.3  34128  289.02 0855.23
2009/04/23 10:24:16.6      67   -130    255    147    294 152.8  67.7  34136  289.17 0855.23
2009/04/23 10:24:16.7     -93   -197    -39    219    223 205.4 -10.3  34130  289.08 0855.23
2009/04/23 10:24:16.8      33   -160    124    164    205 168.2  41.2  34126  288.99 0855.23
2009/04/23 10:24:16.9    -180     14    -13    181    182 274.6  -4.1  34134  289.14 0855.23
2009/04/23 10:24:17.0     -52    -70   -156     88    179 216.5 -72.7  34128  289.04 0855.23
2009/04/23 10:24:17.1     -28   -298   -108    300    319 185.4 -19.8  34120  288.90 0855.23
2009/04/23 10:24:17.2    -122   -129     97    178    202 223.4  31.3  34128  289.04 0855.23
2009/04/23 10:24:17.3    -127   -123     13    177    178 226.0   4.2  34140  289.24 0855.23
2009/04/23 10:24:17.4      70    -54    -60     89    107 127.8 -41.4  34136  289.18 0855.23
2009/04/23 10:24:17.5      89    -22   -171     92    194 104.2 -73.7  34146  289.33 0855.23
2009/04/23 10:24:17.6     190   -157   -353    247    430 129.6 -66.1  34130  289.08 0855.23
2009/04/23 10:24:17.7     109    -41   -226    117    254 110.8 -75.2  34132  289.09 0855.23
2009/04/23 10:24:17.8    -163    -35   -175    167    241 257.8 -55.6  34146  289.35 0855.22
2009/04/23 10:24:17.9     -85   -209   -131    226    261 202.3 -37.1  34138  289.20 0855.22
2009/04/23 10:24:18.0      79   -161    -99    180    205 153.9 -35.8  34124  288.97 0855.22
2009/04/23 10:24:18.1       6   -139    -80    140    161 177.3 -36.8  34134  289.13 0855.22
2009/04/23 10:24:18.2     -80   -109    -15    136    137 216.1  -6.7  34140  289.23 0855.22
2009/04/23 10:24:18.3     -74   -169     54    185    193 203.6  16.3  34136  289.16 0855.22
2009/04/23 10:24:18.4    -201   -373      0    424    425 208.4   0.0  34116  288.82 0855.22
2009/04/23 10:24:18.5      19   -338    119    339    360 176.8  19.4  34098  288.52 0855.22
2009/04/23 10:24:18.6     108   -339    117    356    375 162.3  18.2  34110  288.72 0855.22
2009/04/23 10:24:18.7     119   -282    183    307    357 157.1  33.5  34120  288.89 0855.22
2009/04/23 10:24:18.8     395   -349    -42    528    530 131.5  -4.6  34102  288.60 0855.21
2009/04/23 10:24:18.9     112   -608    -24    619    620 169.5  -2.2  34110  288.71 0855.21
2009/04/23 10:24:19.0     156   -432    -25    460    461 160.1  -3.2  34110  288.73 0855.21
2009/04/23 10:24:19.1     242   -436     87    499    507 151.0   9.9  34092  288.42 0855.21
2009/04/23 10:24:19.2       1   -630    224    631    669 179.9  20.3  34104  288.61 0855.21
2009/04/23 10:24:19.3       8   -553    265    554    614 179.1  27.3  34102  288.59 0855.21
2009/04/23 10:24:19.4     -40   -521    221    523    567 184.5  24.3  34108  288.70 0855.21
2009/04/23 10:24:19.5    -239   -774    174    811    830 197.2  12.1  34090  288.40 0855.21
2009/04/23 10:24:19.6    -242   -587    170    635    658 202.4  15.0  34100  288.55 0855.21
2009/04/23 10:24:19.7    -307   -576    142    653    669 208.1  12.3  34098  288.51 0855.21
2009/04/23 10:24:19.8    -283   -552     86    621    627 207.2   7.9  34104  288.64 0855.21
2009/04/23 10:24:19.9     -84   -571    225    578    620 188.4  22.4  34100  288.56 0855.21
2009/04/23 10:24:20.0      55   -465    251    469    531 173.2  30.6  34100  288.56 0855.21
2009/04/23 10:24:20.1     -94   -365    -91    378    389 194.5 -13.6  34094  288.47 0855.21
2009/04/23 10:24:20.2      98   -469   -182    480    513 168.1 -26.2  34100  288.54 0855.21
2009/04/23 10:24:20.3     192   -428   -157    470    496 155.8 -18.6  34104  288.64 0855.21
2009/04/23 10:24:20.4     157   -542   -202    565    600 163.9 -24.8  34100  288.56 0855.21
2009/04/23 10:24:20.5     127   -650    -88    663    669 168.9  -7.6  34100  288.56 0855.21
2009/04/23 10:24:20.6     142   -466   -148    488    509 163.0 -21.7  34100  288.57 0855.21
2009/04/23 10:24:20.7      93   -529   -187    538    569 170.0 -24.3  34098  288.53 0855.21
2009/04/23 10:24:20.8     198   -454   -137    496    515 156.4 -15.5  34100  288.57 0855.24
2009/04/23 10:24:20.9     221   -481   -115    530    543 155.3 -12.3  34098  288.52 0855.24
2009/04/23 10:24:21.0     239   -451    -41    511    513 152.0  -4.7  34104  288.61 0855.24
2009/04/23 10:24:21.1     278   -383    -23    474    475 144.1  -2.8  34110  288.71 0855.24
2009/04/23 10:24:21.2      13   -260    -24    261    263 177.1  -5.4  34094  288.46 0855.24
2009/04/23 10:24:21.3     239   -246    -26    344    346 135.8  -4.5  34100  288.55 0855.24
2009/04/23 10:24:21.4     263   -264    -49    373    377 135.1  -7.5  34110  288.71 0855.24
2009/04/23 10:24:21.5     229   -180    -11    292    293 128.2  -2.3  34104  288.63 0855.24
2009/04/23 10:24:21.6     315    -84     69    327    335 105.1  12.0  34106  288.66 0855.24
2009/04/23 10:24:21.7     320     -9    194    321    375  91.7  34.0  34102  288.60 0855.24
2009/04/23 10:24:21.8     335    -94     68    349    356 105.8  11.1  34104  288.62 0855.24
2009/04/23 10:24:21.9     429   -167     35    461    463 111.3   4.4  34098  288.51 0855.24
2009/04/23 10:24:22.0     262    -66    -10    271    272 104.2  -2.3  34104  288.63 0855.24
2009/04/23 10:24:22.1      65   -128   -120    144    187 152.8 -48.2  34116  288.84 0855.24
2009/04/23 10:24:22.2       0      1   -130      2    130  18.5 -90.0  34112  288.77 0855.24
2009/04/23 10:24:22.3     105    -32   -141    110    178 107.3 -62.6  34118  288.86 0855.24
2009/04/23 10:24:22.4     169     -7    -54    170    178  92.6 -22.8  34108  288.69 0855.24
2009/04/23 10:24:22.5     117    -12     21    118    120  96.1  10.1  34104  288.64 0855.24
2009/04/23 10:24:22.6     133      0     18    134    136  90.0   8.0  34112  288.75 0855.24
2009/04/23 10:24:22.7     157    -99     52    186    194 122.2  15.8  34114  288.79 0855.23
2009/04/23 10:24:22.8      68   -253     37    263    266 164.8   8.0  34106  288.66 0855.23
2009/04/23 10:24:22.9      14   -306    -39    307    310 177.3  -7.3  34108  288.68 0855.23
2009/04/23 10:24:23.0     -36   -273     12    276    277 187.6   2.5  34104  288.61 0855.23
2009/04/23 10:24:23.1     -56   -238      0    245    246 193.4   0.0  34104  288.61 0855.23
2009/04/23 10:24:23.2      47   -276     35    281    284 170.2   7.1  34106  288.65 0855.23
2009/04/23 10:24:23.3      50   -298    -38    303    306 170.4  -7.3  34110  288.71 0855.23
2009/04/23 10:24:23.4      62   -238    -89    247    262 165.3 -25.1  34100  288.56 0855.23
2009/04/23 10:24:23.5    -145   -284     43    320    323 207.1   7.8  34112  288.75 0855.23
2009/04/23 10:24:23.6    -128   -444    -44    463    466 196.1  -5.5  34108  288.70 0855.23
2009/04/23 10:24:23.7     -42   -358   -106    361    377 186.7 -16.4  34108  288.69 0855.23
2009/04/23 10:24:23.8     -73   -365     49    373    377 191.3   7.5  34110  288.74 0855.23
2009/04/23 10:24:23.9      -7   -250   -170    251    303 181.8 -41.8  34112  288.76 0855.23
2009/04/23 10:24:24.0     -97   -202   -200    225    301 205.6 -50.6  34118  288.85 0855.23
2009/04/23 10:24:24.1    -138   -146   -242    202    315 223.4 -60.4  34104  288.63 0855.23
2009/04/23 10:24:24.2    -190   -130   -181    231    293 235.6 -46.4  34094  288.44 0855.23
2009/04/23 10:24:24.3    -290   -184   -312    344    464 237.6 -51.3  34100  288.56 0855.23
2009/04/23 10:24:24.4    -337     15   -134    338    363 272.7 -27.3  34100  288.57 0855.23
2009/04/23 10:24:24.5     -41     56    -32     70     76 324.0 -31.5  34104  288.64 0855.23
2009/04/23 10:24:24.6      35    -19    136     41    142 118.9  82.8  34112  288.77 0855.23
2009/04/23 10:24:24.7     125   -156     82    201    217 141.3  23.1  34108  288.69 0855.23
2009/04/23 10:24:24.8     299   -165    178    342    385 118.9  29.6  34102  288.60 0855.23
2009/04/23 10:24:24.9     151   -471    109    495    508 162.2  12.5  34104  288.64 0855.23
2009/04/23 10:24:25.1     -22   -570    153    571    592 182.2  15.0  34094  288.46 0855.23
2009/04/23 10:24:25.2     -36   -493     81    495    502 184.2   9.3  34098  288.52 0855.23
2009/04/23 10:24:25.3     136   -596    -79    612    617 167.1  -7.4  34104  288.64 0855.23
2009/04/23 10:24:25.4     177   -560    193    588    619 162.5  18.2  34100  288.54 0855.23
2009/04/23 10:24:25.5      59   -787    170    790    809 175.7  12.2  34106  288.66 0855.23
2009/04/23 10:24:25.6     235   -886    233    917    947 165.1  14.3  34104  288.64 0855.23
2009/04/23 10:24:25.7     205   -860    174    885    903 166.6  11.1  34100  288.57 0855.23
2009/04/23 10:24:25.8     225   -725     64    760    763 162.7   4.9  34106  288.67 0855.23
2009/04/23 10:24:25.9     179   -654    189    679    705 164.7  15.6  34108  288.70 0855.23
2009/04/23 10:24:26.0     136   -585    118    601    613 166.9  11.1  34104  288.63 0855.23
2009/04/23 10:24:26.1      83   -539    111    546    558 171.2  11.6  34112  288.77 0855.23
2009/04/23 10:24:26.2     112   -523    104    536    546 167.9  11.0  34108  288.70 0855.23
2009/04/23 10:24:26.3      61   -510     65    514    519 173.1   7.2  34106  288.66 0855.23
2009/04/23 10:24:26.4     -15   -495    101    496    507 181.8  11.6  34104  288.64 0855.23
2009/04/23 10:24:26.5     -74   -474    205    480    521 188.9  24.6  34110  288.74 0855.23
2009/04/23 10:24:26.6     -41   -500    177    502    532 184.7  20.2  34108  288.70 0855.23
2009/04/23 10:24:26.7     -82   -749    225    754    787 186.3  16.6  34094  288.47 0855.23
2009/04/23 10:24:26.8    -131   -832     69    843    846 189.0   4.7  34120  288.88 0855.19
2009/04/23 10:24:26.9    -141   -782    276    795    842 190.3  19.2  34112  288.76 0855.19
2009/04/23 10:24:27.0     -32   -588    -14    589    590 183.2  -1.4  34112  288.76 0855.19
2009/04/23 10:24:27.1    -294   -598   -191    667    694 206.2 -16.0  34116  288.82 0855.19
2009/04/23 10:24:27.2    -243   -533   -272    586    646 204.5 -31.1  34104  288.62 0855.19
2009/04/23 10:24:27.3    -254   -635   -149    685    702 201.8 -12.3  34118  288.87 0855.19
2009/04/23 10:24:27.4    -184   -604   -125    632    645 197.0 -11.2  34126  288.98 0855.19
2009/04/23 10:24:27.5    -296   -626   -149    693    710 205.3 -12.2  34114  288.79 0855.19
2009/04/23 10:24:27.6    -268   -706   -157    756    773 200.8 -11.8  34108  288.68 0855.19
2009/04/23 10:24:27.7    -192   -655    -80    683    688 196.4  -6.7  34108  288.70 0855.19
2009/04/23 10:24:27.8    -210   -562   -127    601    615 200.5 -12.0  34124  288.97 0855.19
2009/04/23 10:24:27.9    -137   -512    -67    531    536 195.1  -7.2  34140  289.24 0855.19
2009/04/23 10:24:28.0    -170   -575    -43    600    602 196.5  -4.1  34136  289.17 0855.19
2009/04/23 10:24:28.1    -159   -599    -56    620    623 194.9  -5.2  34128  289.03 0855.19
2009/04/23 10:24:28.2     -61   -606   -156    610    630 185.8 -14.4  34112  288.77 0855.19
2009/04/23 10:24:28.3    -105   -609   -160    619    640 189.8 -14.5  34106  288.67 0855.19
2009/04/23 10:24:28.4    -191   -580   -158    611    632 198.3 -14.5  34112  288.76 0855.19
2009/04/23 10:24:28.5    -245   -572   -184    623    650 203.2 -16.5  34116  288.81 0855.19
2009/04/23 10:24:28.6     -88   -644   -207    650    683 187.8 -17.7  34114  288.80 0855.19
2009/04/23 10:24:28.7     -62   -602   -190    606    636 185.9 -17.4  34114  288.79 0855.19
2009/04/23 10:24:28.8      11   -508    -48    509    512 178.7  -5.5  34122  288.93 0855.21
2009/04/23 10:24:28.9      46   -441   -130    444    463 173.9 -16.4  34118  288.85 0855.21
2009/04/23 10:24:29.0     112   -524   -120    537    551 167.9 -12.7  34114  288.79 0855.21
2009/04/23 10:24:29.1      58   -456    -92    460    470 172.7 -11.3  34120  288.90 0855.21
2009/04/23 10:24:29.2     174   -571   -133    598    613 163.1 -12.6  34112  288.75 0855.21
2009/04/23 10:24:29.3     181   -463   -142    498    517 158.6 -20.7  34110  288.74 0855.21
2009/04/23 10:24:29.4     148   -445    -44    469    472 161.6  -5.5  34112  288.76 0855.21
2009/04/23 10:24:29.5     102   -424    -24    437    438 166.4  -3.2  34114  288.78 0855.21
2009/04/23 10:24:29.6      86   -457    -45    466    469 169.3  -5.6  34110  288.74 0855.21
2009/04/23 10:24:29.7     137   -411     -8    434    435 161.6  -1.2  34110  288.72 0855.21
2009/04/23 10:24:29.8     140   -357    -40    384    387 158.5  -6.1  34110  288.72 0855.21
2009/04/23 10:24:29.9     177   -324    -67    370    377 151.4 -10.4  34112  288.76 0855.21
2009/04/23 10:24:30.0     189   -243   -118    308    329 142.2 -26.2  34112  288.76 0855.21
2009/04/23 10:24:30.1     109   -228     62    253    261 154.4  13.9  34106  288.66 0855.21
2009/04/23 10:24:30.2      44   -215    -36    220    224 168.4  -9.4  34112  288.77 0855.21
2009/04/23 10:24:30.3       8   -359    112    360    378 178.6  17.3  34114  288.79 0855.21
2009/04/23 10:24:30.4      42   -370     60    373    378 173.4   9.2  34116  288.81 0855.21
2009/04/23 10:24:30.5      91   -277     97    292    308 161.7  18.4  34118  288.87 0855.21
2009/04/23 10:24:30.6      64   -391    186    397    438 170.7  27.0  34112  288.77 0855.21
2009/04/23 10:24:30.7     134   -403    206    425    472 161.6  27.8  34114  288.80 0855.21
2009/04/23 10:24:30.8     144   -356    172    385    421 157.9  25.8  34112  288.77 0855.22
2009/04/23 10:24:30.9     159   -378    109    411    426 157.2  14.9  34112  288.77 0855.22
2009/04/23 10:24:31.0     135   -308    101    337    352 156.3  16.7  34112  288.77 0855.22
2009/04/23 10:24:31.1      72   -328    104    337    353 167.5  17.2  34116  288.82 0855.22
2009/04/23 10:24:31.2     103   -327    135    344    369 162.4  22.5  34116  288.81 0855.22
2009/04/23 10:24:31.3     109   -403    168    418    450 164.9  23.1  34110  288.73 0855.22
2009/04/23 10:24:31.4      82   -381    208    390    442 167.7  30.3  34112  288.75 0855.22
2009/04/23 10:24:31.5      15   -364    202    365    417 177.5  31.4  34116  288.84 0855.22
2009/04/23 10:24:31.6      43   -377    172    380    417 173.4  26.2  34118  288.85 0855.22
2009/04/23 10:24:31.7      70   -392    192    399    442 169.9  27.3  34116  288.82 0855.22
2009/04/23 10:24:31.8       0   -418    179    419    455 180.1  24.6  34118  288.85 0855.22
2009/04/23 10:24:31.9     -89   -525    214    533    574 189.7  23.0  34114  288.80 0855.22
2009/04/23 10:24:32.0     -46   -478    241    481    537 185.6  28.7  34118  288.87 0855.22
2009/04/23 10:24:32.1     -83   -517    184    524    556 189.2  19.4  34116  288.84 0855.22
2009/04/23 10:24:32.2    -194   -442    183    483    516 203.7  21.7  34110  288.74 0855.22
2009/04/23 10:24:32.3    -188   -447    228    485    535 202.8  27.1  34116  288.82 0855.22
2009/04/23 10:24:32.4    -132   -459    324    478    577 196.0  37.4  34118  288.87 0855.22
2009/04/23 10:24:32.5       6   -397    398    398    562 179.0  50.1  34116  288.81 0855.22
2009/04/23 10:24:32.6      79   -674    226    679    716 173.3  18.4  34110  288.74 0855.22
2009/04/23 10:24:32.7     255   -460    231    527    575 151.0  25.2  34114  288.80 0855.22
2009/04/23 10:24:32.8     253   -496     53    557    560 152.9   5.5  34118  288.85 0855.22
2009/04/23 10:24:32.9     294   -323    125    437    455 137.7  16.0  34116  288.83 0855.22
2009/04/23 10:24:33.0     338   -348     61    486    490 135.9   7.2  34108  288.69 0855.22
2009/04/23 10:24:33.1     301   -292    126    420    439 134.2  16.8  34110  288.73 0855.22
2009/04/23 10:24:33.2      90   -323    241    336    413 164.4  39.2  34112  288.77 0855.22
2009/04/23 10:24:33.3      56   -270    109    276    296 168.2  23.0  34114  288.78 0855.22
2009/04/23 10:24:33.4     110   -263    171    286    333 157.3  33.7  34114  288.80 0855.22
2009/04/23 10:24:33.5    -128   -379    253    401    474 198.7  35.2  34112  288.77 0855.22
2009/04/23 10:24:33.6     -63   -366    385    372    535 189.9  51.2  34124  288.95 0855.22
2009/04/23 10:24:33.7      53    -79    275     96    291 146.2  80.5  34118  288.87 0855.22
2009/04/23 10:24:33.8     -83   -197    338    215    400 202.9  64.7  34126  288.99 0855.22
2009/04/23 10:24:33.9      64   -273    286    281    400 166.7  50.4  34126  289.01 0855.22
2009/04/23 10:24:34.0      24   -334    288    335    441 175.9  45.0  34126  288.99 0855.22
2009/04/23 10:24:34.1      15   -240    -33    241    244 176.2  -8.0  34132  289.10 0855.22
2009/04/23 10:24:34.2     -15    -19   -213     25    214 219.6 -90.0  34136  289.18 0855.22
2009/04/23 10:24:34.3      12   -131   -133    132    187 174.7 -54.5  34140  289.24 0855.22
2009/04/23 10:24:34.4      23    -65    -44     70     82 160.0 -39.9  34142  289.26 0855.22
2009/04/23 10:24:34.5       2   -105    -35    106    112 178.6 -18.7  34144  289.30 0855.22
2009/04/23 10:24:34.6      54    -76    -80     94    123 144.8 -49.8  34140  289.23 0855.22
2009/04/23 10:24:34.7     113    -52    -78    125    147 114.8 -39.9  34142  289.26 0855.22
2009/04/23 10:24:34.8       3    -84    -64     85    106 177.8 -45.1  34140  289.24 0855.24
2009/04/23 10:24:34.9      45   -183    -33    189    193 166.2 -10.1  34138  289.21 0855.24
2009/04/23 10:24:35.0     126   -168    -35    211    214 143.0  -9.6  34138  289.19 0855.24
2009/04/23 10:24:35.1     212    -79    101    227    248 110.6  25.9  34142  289.27 0855.24
2009/04/23 10:24:35.2     184   -137    -59    230    238 126.6 -14.5  34142  289.27 0855.24
2009/04/23 10:24:35.3     251   -102     65    272    280 112.2  13.5  34140  289.22 0855.24
2009/04/23 10:24:35.4     232    -34    141    235    274  98.4  33.7  34134  289.12 0855.24
2009/04/23 10:24:35.5     161    -30    168    164    234 100.6  50.4  34134  289.13 0855.24
2009/04/23 10:24:35.6     135   -127    134    186    229 133.1  39.5  34134  289.14 0855.24
2009/04/23 10:24:35.7     173   -139     77    223    237 128.9  19.2  34132  289.09 0855.24
2009/04/23 10:24:35.8     114    -90     93    146    173 128.2  35.5  34134  289.13 0855.24
2009/04/23 10:24:35.9      32    -10    107     34    112 108.4  81.2  34132  289.11 0855.24
2009/04/23 10:24:36.0      82    -10    149     83    170  97.0  68.5  34142  289.26 0855.24
2009/04/23 10:24:36.1      61      0    113     62    128  90.9  68.9  34140  289.24 0855.24
2009/04/23 10:24:36.2      52      9    139     53    148  79.4  78.2  34142  289.28 0855.24
2009/04/23 10:24:36.3      19    -30    115     36    120 147.4  82.3  34138  289.19 0855.24
2009/04/23 10:24:36.4     -45     58    149     74    166 322.2  72.1  34138  289.21 0855.24
2009/04/23 10:24:36.5     159     75    227    176    287  64.7  58.5  34132  289.10 0855.24
2009/04/23 10:24:36.6       1    -35    212     36    215 177.3  90.0  34148  289.36 0855.24
2009/04/23 10:24:36.7     143   -100    155    175    233 124.9  45.9  34132  289.11 0855.24
2009/04/23 10:24:36.8     -41    -38    121     57    133 226.9  72.9  34146  289.35 0855.23
2009/04/23 10:24:36.9     -30     46    119     56    131 326.6  73.1  34146  289.35 0855.23
2009/04/23 10:24:37.0     -12     86    126     87    153 352.0  62.6  34156  289.50 0855.23
2009/04/23 10:24:37.1     -31     83    136     89    162 339.5  64.1  34146  289.35 0855.23
2009/04/23 10:24:37.2     -29   -145    217    148    262 191.5  62.6  34132  289.09 0855.23
2009/04/23 10:24:37.3     135   -221    258    260    366 148.6  50.0  34134  289.13 0855.23
2009/04/23 10:24:37.4       3   -230    232    231    327 179.1  50.0  34132  289.10 0855.23
2009/04/23 10:24:37.5     -28   -310    141    312    342 185.3  26.0  34126  289.01 0855.23
2009/04/23 10:24:37.6      10   -241    120    242    270 177.4  28.2  34128  289.02 0855.23
2009/04/23 10:24:37.7     -30   -214    137    217    256 188.1  35.5  34128  289.02 0855.23
2009/04/23 10:24:37.8     -47   -298    170    302    346 189.1  31.9  34136  289.15 0855.23
2009/04/23 10:24:37.9    -135   -212     73    252    263 212.5  16.3  34134  289.14 0855.23
2009/04/23 10:24:38.0     -81   -304    140    315    344 195.1  25.7  34130  289.06 0855.23
2009/04/23 10:24:38.1    -185   -254    189    315    367 216.1  33.8  34132  289.10 0855.23
2009/04/23 10:24:38.2     -88   -253    153    268    308 199.2  32.3  34130  289.07 0855.23
2009/04/23 10:24:38.3     -36   -192    144    196    243 190.7  39.9  34130  289.08 0855.23
2009/04/23 10:24:38.4      -5   -291    232    292    372 181.0  42.6  34130  289.08 0855.23
2009/04/23 10:24:38.5     -53   -302    196    307    364 190.0  35.6  34134  289.13 0855.23
2009/04/23 10:24:38.6     -69   -240    193    250    315 196.0  41.5  34132  289.10 0855.23
2009/04/23 10:24:38.7    -190   -268    225    329    398 215.4  37.6  34128  289.04 0855.23
2009/04/23 10:24:38.8    -215   -215     15    305    306 225.0   2.9  34136  289.17 0855.26
2009/04/23 10:24:38.9    -113   -455    176    469    500 194.1  21.5  34136  289.17 0855.26
2009/04/23 10:24:39.0      -6   -399     94    400    411 180.9  13.2  34128  289.04 0855.26
2009/04/23 10:24:39.1      65   -321     66    328    335 168.4  11.5  34136  289.15 0855.26
2009/04/23 10:24:39.2      43   -380    169    383    418 173.4  25.3  34130  289.07 0855.26
2009/04/23 10:24:39.3      56   -206    129    214    249 164.6  34.0  34130  289.07 0855.26
2009/04/23 10:24:39.4       3   -214     18    215    216 179.1   4.9  34132  289.09 0855.26
2009/04/23 10:24:39.5      50   -195     67    202    213 165.5  18.4  34130  289.08 0855.26
2009/04/23 10:24:39.6      13   -161     82    162    181 175.3  28.7  34134  289.13 0855.26
2009/04/23 10:24:39.7      33   -229    155    232    279 171.8  37.0  34130  289.05 0855.26
2009/04/23 10:24:39.8      74   -218    155    231    278 161.1  37.3  34134  289.14 0855.24
2009/04/23 10:24:39.9     105   -223    200    247    317 154.6  43.1  34130  289.07 0855.24
2009/04/23 10:24:40.0     209   -196    139    287    318 133.1  27.8  34132  289.09 0855.24
2009/04/23 10:24:40.1     213   -260    148    337    368 140.7  25.2  34134  289.13 0855.24
2009/04/23 10:24:40.2     186   -207    161    279    322 138.1  32.8  34138  289.20 0855.24
2009/04/23 10:24:40.3     160   -260    117    306    327 148.4  21.8  34134  289.12 0855.24
2009/04/23 10:24:40.4      38   -350     83    353    363 173.8  13.3  34126  288.98 0855.24
2009/04/23 10:24:40.5      52   -417     -9    421    422 172.8  -1.3  34132  289.11 0855.24
2009/04/23 10:24:40.6      97   -304     15    320    321 162.2   2.8  34132  289.10 0855.24
2009/04/23 10:24:40.7     189   -302     18    357    358 147.9   3.0  34134  289.13 0855.24
2009/04/23 10:24:40.8     219   -266     43    345    348 140.5   7.1  34136  289.16 0855.24
2009/04/23 10:24:40.9     127   -308      9    334    335 157.5   1.7  34142  289.25 0855.24
2009/04/23 10:24:41.0     101   -253     48    273    278 158.1  10.0  34140  289.24 0855.24
2009/04/23 10:24:41.1     119   -211     40    243    247 150.6   9.5  34142  289.25 0855.24
2009/04/23 10:24:41.2      94   -154     63    181    192 148.4  19.4  34140  289.23 0855.24
2009/04/23 10:24:41.3     130   -194     78    234    247 146.2  18.4  34140  289.24 0855.24
2009/04/23 10:24:41.4      45   -166     98    173    198 164.9  31.9  34142  289.28 0855.24
2009/04/23 10:24:41.5      46   -168     85    175    194 164.6  27.4  34144  289.30 0855.24
2009/04/23 10:24:41.6      33   -184     98    188    212 169.8  29.8  34138  289.21 0855.24
2009/04/23 10:24:41.7      70   -302    137    311    339 166.9  25.3  34138  289.20 0855.24
2009/04/23 10:24:41.8      94   -225    131    244    276 157.3  30.6  34142  289.27 0855.19
2009/04/23 10:24:41.9      16   -198     80    199    214 175.3  23.0  34140  289.23 0855.19
2009/04/23 10:24:42.0     -17   -208    134    209    248 184.7  35.6  34142  289.27 0855.19
2009/04/23 10:24:42.1     -84   -281     90    294    308 196.7  17.0  34148  289.37 0855.19
2009/04/23 10:24:42.2    -129   -242     28    275    277 208.0   6.0  34156  289.51 0855.19
2009/04/23 10:24:42.3    -158   -210     12    264    265 217.0   2.8  34150  289.39 0855.19
2009/04/23 10:24:42.4    -135   -141     24    196    198 223.9   7.1  34148  289.36 0855.19
2009/04/23 10:24:42.5     -70    -45      4     84     85 237.6   2.9  34150  289.41 0855.19
2009/04/23 10:24:42.6    -100   -131     49    166    174 217.4  16.6  34148  289.38 0855.19
2009/04/23 10:24:42.7    -127   -168     -8    211    212 217.2  -2.2  34144  289.31 0855.19
2009/04/23 10:24:42.8    -107   -131    -46    170    177 219.4 -15.2  34138  289.21 0855.19
2009/04/23 10:24:42.9    -127   -170   -105    213    237 216.7 -32.6  34128  289.02 0855.19
2009/04/23 10:24:43.0     -95   -133   -112    164    198 215.6 -42.0  34132  289.11 0855.19
2009/04/23 10:24:43.1     -54   -162    -79    171    188 198.5 -31.4  34128  289.04 0855.19
2009/04/23 10:24:43.2     -41   -216    -74    220    232 190.9 -23.3  34130  289.06 0855.19
2009/04/23 10:24:43.3      26   -235      9    237    238 173.5   2.3  34132  289.10 0855.19
2009/04/23 10:24:43.4      61   -231    -17    240    241 165.1  -4.1  34136  289.15 0855.19
2009/04/23 10:24:43.5      63   -215     11    225    226 163.7   2.9  34138  289.19 0855.19
2009/04/23 10:24:43.6      49   -179     54    186    194 164.6  16.3  34136  289.18 0855.19
2009/04/23 10:24:43.7      30   -147     56    151    161 168.4  21.3  34138  289.21 0855.19
2009/04/23 10:24:43.8     -32   -166     22    170    172 190.9   7.5  34134  289.14 0855.18
2009/04/23 10:24:43.9     -14   -188     -4    189    190 184.4  -1.3  34136  289.16 0855.18
2009/04/23 10:24:44.0     -58   -175    -65    185    197 198.3 -19.6  34134  289.14 0855.18
2009/04/23 10:24:44.1      -8    -96     33     97    103 185.3  18.9  34132  289.09 0855.18
2009/04/23 10:24:44.2      11   -147     74    148    165 175.5  28.7  34134  289.14 0855.18
2009/04/23 10:24:44.3     -13   -176    102    177    204 184.4  32.7  34136  289.18 0855.18
2009/04/23 10:24:44.4       3   -248    115    249    274 179.3  26.6  34136  289.17 0855.18
2009/04/23 10:24:44.5      39   -259    140    262    297 171.3  30.6  34136  289.17 0855.18
2009/04/23 10:24:44.6      44   -221    143    226    267 168.7  35.5  34142  289.25 0855.18
2009/04/23 10:24:44.7       7   -196    122    197    231 177.8  35.2  34138  289.19 0855.18
2009/04/23 10:24:44.8       0   -190    106    191    218 180.0  31.4  34144  289.30 0855.18
2009/04/23 10:24:44.9     -59   -173    150    183    236 198.9  43.7  34144  289.31 0855.18
2009/04/23 10:24:45.0     -81   -170    173    189    256 205.5  47.5  34150  289.41 0855.18
2009/04/23 10:24:45.1     -86    -98    179    131    221 221.4  60.5  34152  289.45 0855.18
2009/04/23 10:24:45.2     -72   -130    142    149    205 209.0  48.5  34148  289.36 0855.18
2009/04/23 10:24:45.3     -56   -102    147    117    187 209.0  57.1  34150  289.41 0855.18
2009/04/23 10:24:45.4     -26   -135    104    138    172 191.1  40.9  34152  289.43 0855.18
2009/04/23 10:24:45.5     -51   -127    161    137    211 201.9  55.4  34164  289.65 0855.18
2009/04/23 10:24:45.6      45    -40     99     61    116 132.2  64.7  34174  289.80 0855.18
2009/04/23 10:24:45.7     -36   -138    146    143    204 194.7  50.2  34152  289.45 0855.18
2009/04/23 10:24:45.8     -23   -196    114    198    228 186.7  32.7  34144  289.31 0855.18
2009/04/23 10:24:45.9      30   -187    104    190    216 170.9  31.3  34144  289.30 0855.18
2009/04/23 10:24:46.0      38   -164     61    169    179 166.9  20.4  34148  289.36 0855.18
2009/04/23 10:24:46.1      25   -124     61    127    140 168.4  27.3  34146  289.35 0855.18
2009/04/23 10:24:46.2    -115   -115     58    163    173 225.0  20.0  34150  289.41 0855.18
2009/04/23 10:24:46.3     -76   -139    158    159    224 208.9  50.0  34148  289.38 0855.18
2009/04/23 10:24:46.4    -198    -89    142    218    260 245.8  36.0  34180  289.92 0855.18
2009/04/23 10:24:46.5     -95    -92    104    133    168 226.0  42.2  34172  289.77 0855.18
2009/04/23 10:24:46.6     -97    -87     74    131    150 227.8  31.4  34176  289.85 0855.18
2009/04/23 10:24:46.7     -70   -142     64    159    171 206.3  23.0  34152  289.45 0855.18
2009/04/23 10:24:46.8     -54   -163     81    172    190 198.5  27.1  34158  289.55 0855.18
2009/04/23 10:24:46.9      28   -180    130    183    224 170.9  39.1  34154  289.46 0855.18
2009/04/23 10:24:47.0     -45   -226     20    231    232 191.5   5.0  34150  289.41 0855.18
2009/04/23 10:24:47.1     -51   -235     16    241    242 192.3   3.8  34158  289.53 0855.18
2009/04/23 10:24:47.2     -60   -228    -17    236    237 194.9  -4.1  34156  289.51 0855.18
2009/04/23 10:24:47.3     -14   -244    -45    245    250 183.4 -10.4  34164  289.63 0855.18
2009/04/23 10:24:47.4     -34   -244    -52    247    253 188.1 -11.9  34152  289.44 0855.18
2009/04/23 10:24:47.5      61   -306     10    313    314 168.7   1.9  34138  289.20 0855.18
2009/04/23 10:24:47.6     158   -233     14    282    283 145.7   2.9  34138  289.19 0855.18
2009/04/23 10:24:47.7     140   -297    105    329    346 154.7  17.8  34136  289.15 0855.18
2009/04/23 10:24:47.9      90   -309    134    322    348 163.7  23.9  34136  289.18 0855.18
2009/04/23 10:24:47.9      73   -270    105    280    299 164.8  21.3  34138  289.20 0855.18
2009/04/23 10:24:48.0     133   -270    142    302    333 153.7  27.1  34138  289.20 0855.18
2009/04/23 10:24:48.1     121   -256    125    284    310 154.7  25.2  34140  289.22 0855.18
2009/04/23 10:24:48.2     132   -222    194    259    323 149.3  40.7  34142  289.25 0855.18
2009/04/23 10:24:48.3      84    -97    172    129    215 139.0  59.8  34140  289.23 0855.18
2009/04/23 10:24:48.4     287   -119    205    311    372 112.6  36.6  34138  289.20 0855.18
2009/04/23 10:24:48.5     222   -106    186    247    309 115.5  40.7  34144  289.29 0855.18
2009/04/23 10:24:48.6     186    -74    161    201    257 111.8  42.8  34144  289.31 0855.18
2009/04/23 10:24:48.7     170   -104    134    200    240 121.5  37.0  34138  289.21 0855.18
2009/04/23 10:24:48.8      86   -166    154    187    242 152.6  43.7  34142  289.26 0855.18
2009/04/23 10:24:48.9      12   -155     44    156    163 175.5  15.8  34160  289.58 0855.18
2009/04/23 10:24:49.1     -35   -183     34    187    191 190.9  10.3  34164  289.65 0855.18
2009/04/23 10:24:49.1     -21   -270    148    271    308 184.5  31.3  34178  289.86 0855.18
2009/04/23 10:24:49.2     -71    -92    125    117    171 217.8  52.0  34186  290.01 0855.18
2009/04/23 10:24:49.3    -181   -131    140    224    264 234.0  35.5  34188  290.05 0855.18
2009/04/23 10:24:49.4    -242    -98     50    262    267 247.8  11.0  34190  290.09 0855.18
2009/04/23 10:24:49.5    -125    -36     90    131    158 253.6  37.8  34188  290.04 0855.18
2009/04/23 10:24:49.6     -91    -77     76    120    142 229.6  35.5  34176  289.84 0855.18
2009/04/23 10:24:49.7    -133    -73    104    152    184 241.1  37.6  34168  289.72 0855.19
2009/04/23 10:24:49.8    -146   -107      8    182    183 233.6   2.8  34158  289.53 0855.19
2009/04/23 10:24:49.9       0    -27     68     28     73 180.9  77.1  34150  289.40 0855.19
2009/04/23 10:24:50.0       8   -138     73    139    157 176.4  29.8  34142  289.26 0855.19
2009/04/23 10:24:50.1     -87   -224    123    241    270 201.2  29.2  34164  289.63 0855.19
2009/04/23 10:24:50.2    -122   -160    106    202    228 217.4  29.8  34162  289.60 0855.19
2009/04/23 10:24:50.3    -161   -140     31    214    217 228.9   8.2  34158  289.53 0855.19
2009/04/23 10:24:50.4     -45   -199     73    205    218 192.9  19.6  34138  289.19 0855.19
2009/04/23 10:24:50.5    -151   -151     87    214    231 225.0  23.1  34140  289.23 0855.19
2009/04/23 10:24:50.6     -60   -152     38    164    169 201.8  13.2  34136  289.18 0855.19
2009/04/23 10:24:50.7     -19   -177     19    179    181 186.2   6.1  34142  289.26 0855.19
2009/04/23 10:24:50.8     -96    -32     -4    102    103 251.4  -2.2  34146  289.33 0855.19
2009/04/23 10:24:50.9     -68     -5    -25     69     73 265.6 -23.3  34146  289.33 0855.19
2009/04/23 10:24:51.0     -52     49    -45     72     84 313.1 -39.9  34140  289.24 0855.19
2009/04/23 10:24:51.1      41     83    -31     93     98  26.3 -23.6  34146  289.33 0855.19
2009/04/23 10:24:51.2      59     92    -22    110    113  32.5 -11.3  34144  289.31 0855.19
2009/04/23 10:24:51.4      95     23     17     98    100  76.3  10.1  34150  289.40 0855.19
2009/04/23 10:24:51.5     101     61    -15    119    120  58.9  -7.3  34146  289.35 0855.19
2009/04/23 10:24:51.6      94     31    -11    100    101  71.4  -6.7  34146  289.33 0855.19
2009/04/23 10:24:51.7      89     10     -3     90     91  83.0  -2.2  34146  289.33 0855.19
2009/04/23 10:24:51.8      81     23    -10     85     86  74.1  -7.3  34146  289.33 0855.17
2009/04/23 10:24:51.9      78      6     -8     79     80  85.6  -6.2  34146  289.35 0855.17
2009/04/23 10:24:52.0      59      4    -16     60     63  85.7 -15.5  34148  289.36 0855.17
2009/04/23 10:24:52.1      91     -5     -5     92     93  93.5  -3.1  34146  289.35 0855.17
2009/04/23 10:24:52.2      70    -21     24     74     79 106.8  18.4  34152  289.43 0855.17
2009/04/23 10:24:52.3      76     13     65     78    101  80.3  43.8  34162  289.60 0855.17
2009/04/23 10:24:52.4      38     51    122     64    137  37.0  70.4  34176  289.84 0855.17
2009/04/23 10:24:52.5       8     25     90     27     93  18.7  82.3  34178  289.87 0855.17
2009/04/23 10:24:52.6     -10    -21     84     24     87 207.2  83.3  34180  289.91 0855.17
2009/04/23 10:24:52.7      68    -12     83     70    108 100.6  55.8  34166  289.67 0855.17
2009/04/23 10:24:52.8      11    -50     87     52    101 167.5  66.8  34162  289.62 0855.17
2009/04/23 10:24:52.9     -20   -114    103    116    155 190.2  45.9  34156  289.50 0855.17
2009/04/23 10:24:53.0     -84    -97    109    129    168 221.0  44.3  34170  289.75 0855.17
2009/04/23 10:24:53.1    -124    -41     45    131    139 251.4  18.9  34168  289.70 0855.17
2009/04/23 10:24:53.2     -62    -39     82     74    110 237.6  53.3  34158  289.55 0855.17
2009/04/23 10:24:53.3      90    -96    140    132    192 136.8  52.0  34166  289.67 0855.17
2009/04/23 10:24:53.4      21   -154    143    156    211 172.0  47.5  34142  289.28 0855.17
2009/04/23 10:24:53.5      35   -146     91    151    176 166.6  34.0  34142  289.28 0855.17
2009/04/23 10:24:53.6       2   -143     98    144    174 179.1  37.3  34140  289.24 0855.17
2009/04/23 10:24:53.7      -5   -164     77    165    182 181.8  27.0  34142  289.28 0855.17
2009/04/23 10:24:53.8      11   -174     81    175    192 176.2  27.0  34140  289.24 0855.17
2009/04/23 10:24:53.9      11   -149     90    150    174 175.5  34.2  34140  289.24 0855.17
2009/04/23 10:24:54.0      10   -137     88    138    163 175.5  35.6  34140  289.24 0855.17
2009/04/23 10:24:54.1      50   -113    130    124    179 155.9  51.4  34146  289.33 0855.17
2009/04/23 10:24:54.2     164   -205    190    263    324 141.3  39.5  34144  289.29 0855.17
2009/04/23 10:24:54.3     128   -260    146    290    324 153.7  28.6  34138  289.20 0855.17
2009/04/23 10:24:54.4     219   -372    105    432    445 149.5  13.7  34126  289.00 0855.17
2009/04/23 10:24:54.5     240   -368    130    440    459 146.8  16.5  34128  289.02 0855.17
2009/04/23 10:24:54.6     154   -448    233    474    528 161.0  28.1  34126  289.00 0855.17
2009/04/23 10:24:54.7     290   -357     90    461    470 140.9  11.1  34122  288.93 0855.17
2009/04/23 10:24:54.8     155   -268    109    310    328 149.9  20.1  34124  288.95 0855.17
2009/04/23 10:24:54.9      65   -373    191    379    424 170.1  28.7  34130  289.07 0855.17
2009/04/23 10:24:55.0     -53   -372    214    376    432 188.1  32.3  34134  289.12 0855.17
2009/04/23 10:24:55.1     -10   -386    168    387    421 181.6  25.0  34132  289.11 0855.17
2009/04/23 10:24:55.2      25   -380    187    381    424 176.2  28.0  34132  289.11 0855.17
2009/04/23 10:24:55.3    -216   -358    296    419    513 211.1  38.6  34130  289.06 0855.17
2009/04/23 10:24:55.4    -139   -287    192    320    373 205.9  33.7  34144  289.30 0855.17
2009/04/23 10:24:55.5      -5   -362    304    363    473 180.9  44.3  34140  289.22 0855.17
2009/04/23 10:24:55.6     271   -472    123    545    559 150.1  12.8  34132  289.09 0855.17
2009/04/23 10:24:55.7     171   -634    351    657    744 164.9  30.3  34120  288.88 0855.17
2009/04/23 10:24:55.8     201   -608    316    641    714 161.7  28.2  34130  289.05 0855.20
2009/04/23 10:24:55.9     275   -472    370    547    660 149.7  37.3  34128  289.03 0855.20
2009/04/23 10:24:56.0     251   -418    291    488    568 149.0  33.5  34132  289.09 0855.20
2009/04/23 10:24:56.1     152   -380     42    410    413 158.2   5.9  34132  289.09 0855.20
2009/04/23 10:24:56.2     154   -330     43    365    368 155.0   6.8  34130  289.08 0855.20
2009/04/23 10:24:56.3     208   -226     26    308    310 137.5   4.9  34132  289.09 0855.20
2009/04/23 10:24:56.4     177   -188      3    259    260 136.8   0.8  34130  289.07 0855.20
2009/04/23 10:24:56.5      91   -236    -36    254    257 158.8  -8.2  34122  288.93 0855.20
2009/04/23 10:24:56.6     240   -354     -5    428    429 145.8  -0.7  34128  289.04 0855.20
2009/04/23 10:24:56.7     190   -320      1    373    374 149.3   0.2  34136  289.15 0855.20
2009/04/23 10:24:56.8     193   -248     11    315    316 142.2   2.1  34140  289.24 0855.20
2009/04/23 10:24:56.9     221   -258    -27    340    342 139.4  -4.6  34138  289.21 0855.20
2009/04/23 10:24:57.0     254   -272     80    373    382 137.0  12.2  34136  289.15 0855.20
2009/04/23 10:24:57.1     172   -228     14    286    287 143.0   2.9  34140  289.24 0855.20
2009/04/23 10:24:57.2     174   -194    104    261    280 138.1  23.0  34142  289.27 0855.20
2009/04/23 10:24:57.3     212   -225      1    310    311 136.8   0.2  34138  289.19 0855.20
2009/04/23 10:24:57.4     109   -394    105    409    423 164.5  14.5  34138  289.21 0855.20
2009/04/23 10:24:57.5      49   -468    -85    471    479 173.9 -10.3  34142  289.27 0855.20
2009/04/23 10:24:57.6       8   -522   -117    523    537 179.1 -12.7  34146  289.35 0855.20
2009/04/23 10:24:57.7      49   -520      6    523    524 174.6   0.7  34140  289.24 0855.20
2009/04/23 10:24:57.8     175   -468     -7    500    501 159.4  -0.9  34130  289.08 0855.18
2009/04/23 10:24:57.9     -12   -497    -10    498    499 181.4  -1.3  34134  289.12 0855.18
2009/04/23 10:24:58.0      59   -613    -59    617    620 174.4  -5.5  34142  289.25 0855.18
2009/04/23 10:24:58.1     104   -604    -77    614    619 170.2  -7.2  34142  289.26 0855.18
2009/04/23 10:24:58.2      43   -550    -65    552    556 175.5  -6.8  34138  289.21 0855.18
2009/04/23 10:24:58.3      45   -525    -66    528    533 175.0  -7.2  34146  289.35 0855.18
2009/04/23 10:24:58.4    -102   -517    -42    528    530 191.2  -4.6  34148  289.36 0855.18
2009/04/23 10:24:58.5    -124   -526     26    541    542 193.3   2.8  34152  289.43 0855.18
2009/04/23 10:24:58.6    -241   -674   -201    717    745 199.7 -15.7  34140  289.23 0855.18
2009/04/23 10:24:58.7    -146   -575   -165    594    616 194.3 -20.1  34134  289.14 0855.18
2009/04/23 10:24:58.8    -134   -553   -166    570    593 193.7 -21.1  34136  289.17 0855.18
2009/04/23 10:24:58.9    -132   -529   -188    546    578 194.0 -19.1  34140  289.24 0855.18
2009/04/23 10:24:59.0    -121   -445   -157    462    487 195.2 -23.8  34140  289.22 0855.18
2009/04/23 10:24:59.1    -169   -423   -137    456    476 201.9 -21.7  34152  289.45 0855.18
2009/04/23 10:24:59.2    -158   -340    -49    376    380 205.0  -7.5  34154  289.47 0855.18
2009/04/23 10:24:59.3     -69   -448    -82    454    462 188.8 -10.2  34150  289.39 0855.18
2009/04/23 10:24:59.4    -154   -416   -127    444    463 200.4 -16.0  34150  289.39 0855.18
2009/04/23 10:24:59.5    -181   -479   -164    513    538 200.7 -22.9  34134  289.14 0855.18
2009/04/23 10:24:59.6    -141   -475   -199    496    534 196.5 -27.4  34132  289.09 0855.18
2009/04/23 10:24:59.7    -131   -444   -187    464    500 196.5 -27.5  34140  289.22 0855.18
2009/04/23 10:24:59.8    -109   -403   -183    418    456 195.2 -29.5  34140  289.24 0855.18
2009/04/23 10:24:59.9    -101   -387   -104    400    414 194.7 -14.6  34146  289.34 0855.18
2009/04/23 10:25:00.0    -116   -357   -118    376    395 198.1 -17.5  34142  289.28 0855.18
2009/04/23 10:25:00.1     -70   -396   -181    403    441 190.0 -30.4  34136  289.17 0855.18
2009/04/23 10:25:00.2     -21   -424    -90    425    435 182.9 -12.0  34144  289.29 0855.18
2009/04/23 10:25:00.3    -122   -390    -31    409    411 197.4  -4.4  34148  289.36 0855.18
2009/04/23 10:25:00.4     -34   -325   -107    327    344 186.1 -23.5  34142  289.26 0855.18
2009/04/23 10:25:00.5     -22   -323    -56    324    329 183.9  -9.9  34144  289.31 0855.18
2009/04/23 10:25:00.6     -48   -255    -34    260    263 190.7  -7.5  34144  289.29 0855.18
2009/04/23 10:25:00.7      11   -259    -47    260    265 177.5 -10.3  34146  289.34 0855.18
2009/04/23 10:25:00.8     -91   -207    138    227    265 203.8  34.4  34158  289.53 0855.19
2009/04/23 10:25:00.9     -74   -245     69    257    267 196.9  15.2  34144  289.31 0855.19
2009/04/23 10:25:01.0    -111   -236      0    261    262 205.2   0.2  34144  289.31 0855.19
2009/04/23 10:25:01.1     -33   -161     19    165    167 191.8   6.9  34138  289.21 0855.19
2009/04/23 10:25:01.2     -10   -130     69    131    148 184.5  30.3  34146  289.33 0855.19
2009/04/23 10:25:01.3      23   -188     71    190    202 172.9  21.0  34142  289.28 0855.19
2009/04/23 10:25:01.4      90   -212     34    231    234 157.1   8.5  34140  289.22 0855.19
2009/04/23 10:25:01.5      70   -260     11    270    271 164.9   2.5  34138  289.19 0855.19
2009/04/23 10:25:01.6      78   -287     65    298    306 164.8  12.4  34136  289.17 0855.19
2009/04/23 10:25:01.7     132   -301     18    329    330 156.3   3.2  34130  289.08 0855.19
2009/04/23 10:25:01.8      52   -254     98    260    277 168.4  21.7  34138  289.20 0855.19
2009/04/23 10:25:01.9      53   -334     93    339    352 171.0  15.4  34136  289.16 0855.19
2009/04/23 10:25:02.0     180   -305     83    355    365 149.4  13.2  34136  289.18 0855.19
2009/04/23 10:25:02.1     148   -268    173    307    352 151.1  31.9  34132  289.11 0855.19
2009/04/23 10:25:02.2      -4   -264    253    265    366 181.0  48.6  34136  289.15 0855.19
2009/04/23 10:25:02.3      70   -176    194    190    271 158.1  50.4  34140  289.22 0855.19
2009/04/23 10:25:02.4      70   -261    217    271    347 164.9  43.0  34136  289.17 0855.19
2009/04/23 10:25:02.5      75   -206    222    220    312 159.9  50.1  34140  289.24 0855.19
2009/04/23 10:25:02.6     167   -312     13    355    356 151.8   2.1  34136  289.16 0855.19
2009/04/23 10:25:02.7     142   -383     25    409    410 159.6   3.6  34138  289.19 0855.19
2009/04/23 10:25:02.8      78   -501    128    508    524 171.1  14.2  34134  289.12 0855.20
2009/04/23 10:25:02.9      -7   -463    174    464    495 180.9  21.5  34138  289.20 0855.20
2009/04/23 10:25:03.0     -22   -456    112    457    471 182.8  13.8  34130  289.08 0855.20
2009/04/23 10:25:03.1      32   -413    189    415    456 175.5  26.2  34130  289.05 0855.20
2009/04/23 10:25:03.2     -76   -447    229    454    508 189.7  28.9  34134  289.13 0855.20
2009/04/23 10:25:03.3      14   -442    235    443    501 178.1  30.2  34136  289.15 0855.20
2009/04/23 10:25:03.4      72   -381    178    388    426 169.2  26.5  34140  289.22 0855.20
2009/04/23 10:25:03.5      69   -283     34    292    294 166.2   6.7  34130  289.05 0855.20
2009/04/23 10:25:03.6      32   -224    -17    227    228 171.9  -4.4  34134  289.14 0855.20
2009/04/23 10:25:03.7     132   -120    -50    179    185 132.4 -20.2  34138  289.19 0855.20
2009/04/23 10:25:03.8     241    -37     32    244    247  98.8   7.5  34138  289.20 0855.20
2009/04/23 10:25:03.9     155    -32     -8    159    160 101.9  -3.1  34136  289.18 0855.20
2009/04/23 10:25:04.0     158    -65    -46    171    178 112.4 -15.2  34140  289.24 0855.20
2009/04/23 10:25:04.1     173   -190    -77    257    268 137.7 -21.7  34136  289.17 0855.20
2009/04/23 10:25:04.2     199   -171     51    263    269 130.7  11.1  34138  289.20 0855.20
2009/04/23 10:25:04.3     273    -17    115    274    297  93.7  24.1  34136  289.15 0855.20
2009/04/23 10:25:04.4     286    -96    101    302    319 108.6  18.5  34132  289.10 0855.20
2009/04/23 10:25:04.5     328   -177     68    373    380 118.4  10.3  34136  289.16 0855.20
2009/04/23 10:25:04.6     159   -238    110    287    307 146.2  22.0  34128  289.03 0855.20
2009/04/23 10:25:04.7     126   -232    140    265    299 151.5  30.2  34134  289.14 0855.20
2009/04/23 10:25:04.8     120   -120     69    170    183 135.0  23.0  34138  289.21 0855.23
2009/04/23 10:25:04.9     104      0     90    105    138  90.0  45.4  34142  289.28 0855.23
2009/04/23 10:25:05.0     134     -7    102    135    169  93.0  40.9  34140  289.24 0855.23
2009/04/23 10:25:05.1     124     21     82    126    150  80.3  35.6  34146  289.33 0855.23
2009/04/23 10:25:05.2     157      9     52    158    167  86.5  18.4  34140  289.23 0855.23
2009/04/23 10:25:05.3     209    -31     99    212    233  98.6  27.1  34144  289.31 0855.23
2009/04/23 10:25:05.4     120   -145     70    189    201 140.3  21.0  34136  289.18 0855.23
2009/04/23 10:25:05.5     135   -224     87    262    277 149.0  18.4  34134  289.14 0855.23
2009/04/23 10:25:05.6       6   -328    -42    329    332 178.9  -7.4  34132  289.11 0855.23
2009/04/23 10:25:05.7    -127   -249    -48    280    285 207.2  -9.8  34144  289.31 0855.23
2009/04/23 10:25:05.8    -114   -234    -93    261    278 206.1 -19.7  34146  289.34 0855.23
2009/04/23 10:25:05.9      22   -208    -65    210    219 173.8 -22.1  34146  289.33 0855.23
2009/04/23 10:25:06.0      -7   -173    -48    174    180 182.5 -20.0  34144  289.30 0855.23
2009/04/23 10:25:06.1      56   -146    -64    157    169 159.1 -27.8  34144  289.31 0855.23
2009/04/23 10:25:06.2     128    -55      7    140    141 113.5   2.9  34134  289.14 0855.23
2009/04/23 10:25:06.3      51   -152      0    161    162 161.3   0.2  34138  289.19 0855.23
2009/04/23 10:25:06.4     122   -214    -83    247    261 150.4 -18.7  34144  289.31 0855.23
2009/04/23 10:25:06.5     131   -158    -29    206    209 140.4  -8.2  34140  289.24 0855.23
2009/04/23 10:25:06.6     188   -297    -91    352    364 147.6 -14.6  34144  289.30 0855.23
2009/04/23 10:25:06.7     290   -336    -34    444    446 139.2  -4.4  34132  289.09 0855.23
2009/04/23 10:25:06.8     264   -401     63    481    486 146.6   7.5  34134  289.12 0855.23
2009/04/23 10:25:06.9     163   -376    -16    410    411 156.5  -2.2  34138  289.21 0855.23
2009/04/23 10:25:07.0     286   -475     -8    555    556 149.0  -0.9  34132  289.09 0855.23
2009/04/23 10:25:07.1     366   -408     84    549    556 138.1   8.7  34126  289.01 0855.23
2009/04/23 10:25:07.2     393   -326     87    511    519 129.7   9.7  34124  288.95 0855.23
2009/04/23 10:25:07.3     221   -312    136    383    406 144.7  20.2  34132  289.11 0855.23
2009/04/23 10:25:07.4     103   -353     67    368    375 163.6  10.4  34134  289.13 0855.23
2009/04/23 10:25:07.5     230   -298    -92    377    389 142.4 -13.8  34138  289.20 0855.23
2009/04/23 10:25:07.6     212   -177   -130    277    305 129.8 -31.5  34146  289.34 0855.23
2009/04/23 10:25:07.7     170   -174   -103    244    264 135.7 -28.6  34144  289.29 0855.23
2009/04/23 10:25:07.8      90   -119    -21    150    152 143.0  -8.2  34140  289.23 0855.23
2009/04/23 10:25:07.9      88    -88     34    125    130 134.8  15.3  34140  289.24 0855.23
2009/04/23 10:25:08.0      72   -222    170    234    289 162.0  39.7  34132  289.10 0855.23
2009/04/23 10:25:08.1     271   -216    152    347    378 128.6  25.1  34136  289.16 0855.23
2009/04/23 10:25:08.2     323   -138     64    352    358 113.2  10.4  34136  289.16 0855.23
2009/04/23 10:25:08.3     193   -150     16    245    246 127.8   3.8  34134  289.12 0855.23
2009/04/23 10:25:08.4     195    -60    -33    205    208 107.3  -9.3  34132  289.11 0855.23
2009/04/23 10:25:08.5     194    -59    -33    203    206 107.1  -9.4  34130  289.08 0855.23
2009/04/23 10:25:08.6     273    -12    112    274    296  92.6  23.4  34142  289.25 0855.23
2009/04/23 10:25:08.7     180    -13    148    181    233  94.3  43.7  34138  289.21 0855.23
2009/04/23 10:25:08.8     229     -5    118    230    258  91.5  29.3  34142  289.27 0855.21
2009/04/23 10:25:08.9     209    -35    107    213    238  99.7  28.7  34140  289.23 0855.21
2009/04/23 10:25:09.0     151    -71    126    168    210 115.3  40.9  34140  289.24 0855.21
2009/04/23 10:25:09.1     128    -12    131    129    183  95.7  50.1  34150  289.40 0855.21
2009/04/23 10:25:09.2     144    -44     40    151    157 107.3  15.0  34144  289.31 0855.21
2009/04/23 10:25:09.3     192     50    -39    199    203  75.4 -11.3  34136  289.16 0855.21
2009/04/23 10:25:09.4     221    116     -9    250    251  62.2  -2.2  34140  289.22 0855.21
2009/04/23 10:25:09.5     219     69     45    230    235  72.3  11.1  34138  289.20 0855.21
2009/04/23 10:25:09.6      15   -234    144    235    275 176.2  34.4  34138  289.19 0855.21
2009/04/23 10:25:09.7      58   -191    110    200    228 163.1  31.4  34138  289.21 0855.21
2009/04/23 10:25:09.8     133   -195    208    237    315 145.7  45.8  34146  289.34 0855.21
2009/04/23 10:25:09.9      82   -230    135    245    279 160.2  31.4  34146  289.32 0855.21
2009/04/23 10:25:10.0     186   -127    177    226    287 124.4  42.0  34142  289.27 0855.21
2009/04/23 10:25:10.1     221   -162     64    275    283 126.2  13.1  34138  289.20 0855.21
2009/04/23 10:25:10.2     231      0     63    232    241  90.0  15.3  34140  289.22 0855.21
2009/04/23 10:25:10.3     109   -192    104    221    244 150.4  27.1  34142  289.27 0855.21
2009/04/23 10:25:10.4     189   -173     72    257    268 132.4  15.8  34142  289.25 0855.21
2009/04/23 10:25:10.5      99   -227     77    248    260 156.3  17.3  34144  289.29 0855.21
2009/04/23 10:25:10.6      62   -252    149    260    299 166.2  32.3  34140  289.22 0855.21
2009/04/23 10:25:10.7      90   -320    145    333    363 164.3  25.1  34136  289.18 0855.21
2009/04/23 10:25:10.8      94   -348    128    361    383 164.9  20.2  34142  289.25 0855.17
2009/04/23 10:25:10.9      24   -376    150    377    405 176.3  22.9  34138  289.20 0855.17
2009/04/23 10:25:11.0     -42   -409    155    412    440 186.0  21.5  34136  289.16 0855.17
2009/04/23 10:25:11.1     -87   -419    149    429    454 191.8  20.0  34136  289.16 0855.17
2009/04/23 10:25:11.2     -84   -415    177    424    459 191.5  24.1  34136  289.16 0855.17
2009/04/23 10:25:11.3    -124   -476    163    492    519 194.7  18.4  34136  289.18 0855.17
2009/04/23 10:25:11.4    -138   -580    178    597    624 193.4  16.6  34136  289.15 0855.17
2009/04/23 10:25:11.5    -158   -475     52    501    504 198.5   6.0  34132  289.10 0855.17
2009/04/23 10:25:11.6      42   -569     42    571    573 175.8   4.2  34136  289.17 0855.17
2009/04/23 10:25:11.7      50   -576     -3    579    580 175.0  -0.4  34142  289.25 0855.17
2009/04/23 10:25:11.8     228   -520      0    569    570 156.3   0.0  34138  289.21 0855.17
2009/04/23 10:25:11.9     255   -393   -122    469    485 147.0 -14.7  34134  289.12 0855.17
2009/04/23 10:25:12.0     390   -276    -21    478    479 125.3  -2.6  34130  289.05 0855.17
2009/04/23 10:25:12.1     423   -323     56    533    537 127.3   6.1  34140  289.23 0855.17
2009/04/23 10:25:12.2     233   -356      0    426    427 146.8   0.0  34136  289.16 0855.17
2009/04/23 10:25:12.3     313   -228      6    388    389 126.1   1.0  34140  289.23 0855.17
2009/04/23 10:25:12.4     267    -82    124    280    306 107.1  25.3  34142  289.27 0855.17
2009/04/23 10:25:12.5     193    -68    173    205    268 109.5  44.3  34146  289.32 0855.17
2009/04/23 10:25:12.6     152    -81    216    173    276 118.0  57.3  34142  289.27 0855.17
2009/04/23 10:25:12.7      30     22    146     38    150  54.0  84.9  34144  289.31 0855.17
2009/04/23 10:25:12.8     180     64    183    192    265  70.3  48.7  34134  289.14 0855.15
2009/04/23 10:25:12.9     253     50    233    258    347  78.8  46.9  34142  289.27 0855.15
2009/04/23 10:25:13.0     276     20    118    277    301  85.7  24.3  34140  289.22 0855.15
2009/04/23 10:25:13.1     337     13    192    338    388  87.7  32.3  34130  289.06 0855.15
2009/04/23 10:25:13.2     249    143    159    288    328  60.2  31.4  34136  289.15 0855.15
2009/04/23 10:25:13.3     343    116     20    363    364  71.2   3.3  34136  289.16 0855.15
2009/04/23 10:25:13.4     440     46    132    443    463  83.9  16.7  34138  289.19 0855.15
2009/04/23 10:25:13.5     354    117    199    373    422  71.7  30.3  34136  289.16 0855.15
2009/04/23 10:25:13.6     387     50    137    391    415  82.5  19.3  34126  288.99 0855.15
2009/04/23 10:25:13.7     208    -86     37    226    230 112.6   9.5  34140  289.23 0855.15
2009/04/23 10:25:13.8     313    -75     96    322    337 103.5  16.7  34130  289.06 0855.15
2009/04/23 10:25:13.9     333    -93    211    346    405 105.7  34.3  34132  289.11 0855.15
2009/04/23 10:25:14.0     337   -105    103    354    369 107.4  16.3  34134  289.13 0855.15
2009/04/23 10:25:14.1     235    -97    222    255    338 112.6  45.5  34138  289.20 0855.15
2009/04/23 10:25:14.2     270    -90    239    285    371 108.4  44.2  34130  289.06 0855.15
2009/04/23 10:25:14.3     138    -45    239    146    280 108.2  65.7  34134  289.14 0855.15
2009/04/23 10:25:14.4      80     96    254    126    283  39.7  71.9  34138  289.20 0855.15
2009/04/23 10:25:14.5     245     42    317    249    403  80.1  57.9  34134  289.13 0855.15
2009/04/23 10:25:14.6     181    -75    180    197    266 112.6  47.1  34142  289.25 0855.15
2009/04/23 10:25:14.7     160    -27    219    163    273  99.7  59.8  34146  289.32 0855.15
2009/04/23 10:25:14.8      89     88    246    126    276  45.1  70.8  34150  289.39 0855.18
2009/04/23 10:25:14.9      31    -49    200     59    208 147.5  83.1  34150  289.40 0855.18
2009/04/23 10:25:15.0      -2     19    168     20    169 352.0  90.0  34148  289.38 0855.18
2009/04/23 10:25:15.1      12    -37    207     39    210 161.7  89.8  34150  289.41 0855.18
2009/04/23 10:25:15.2     -18    -45    192     49    198 202.7  85.6  34144  289.30 0855.18
2009/04/23 10:25:15.3     148     25    148    151    211  80.3  49.8  34140  289.24 0855.18
2009/04/23 10:25:15.4     141    -36    184    146    234 104.6  57.5  34144  289.30 0855.18
2009/04/23 10:25:15.5      75     -9    223     76    235  97.0  81.0  34150  289.41 0855.18
2009/04/23 10:25:15.6      -9   -291    328    292    439 181.8  54.0  34126  288.99 0855.18
2009/04/23 10:25:15.7     -68   -401    363    407    545 189.7  46.4  34120  288.88 0855.18
2009/04/23 10:25:15.8    -212   -362    371    420    560 210.4  45.9  34120  288.90 0855.18
2009/04/23 10:25:15.9      90   -351    399    363    539 165.5  53.2  34130  289.05 0855.18
2009/04/23 10:25:16.0    -132   -532    402    549    680 194.0  39.8  34118  288.87 0855.18
2009/04/23 10:25:16.1    -161   -479    202    506    544 198.6  23.0  34128  289.04 0855.18
2009/04/23 10:25:16.2     146   -364    149    393    420 158.1  21.7  34124  288.97 0855.18
2009/04/23 10:25:16.3      80   -376     10    385    386 168.0   1.6  34130  289.08 0855.18
2009/04/23 10:25:16.4      62   -305    164    312    352 168.5  30.0  34128  289.04 0855.18
2009/04/23 10:25:16.5      71   -389    140    396    420 169.7  20.1  34126  288.99 0855.18
2009/04/23 10:25:16.6    -133   -293    225    323    393 204.5  38.4  34132  289.10 0855.18
2009/04/23 10:25:16.7     113   -210    117    239    266 151.7  27.8  34126  288.98 0855.19
2009/04/23 10:25:16.8     156    -58    141    167    218 110.6  44.3  34136  289.18 0855.19
2009/04/23 10:25:16.9      64    -81    136    104    171 141.7  58.7  34136  289.16 0855.19
2009/04/23 10:25:17.0     -24    -70    114     75    136 199.2  64.6  34132  289.09 0855.19
2009/04/23 10:25:17.1     -17    -81    128     83    152 192.0  64.6  34134  289.14 0855.19
2009/04/23 10:25:17.2     -70   -213     80    225    238 198.3  20.2  34130  289.07 0855.19
2009/04/23 10:25:17.3      15   -177    111    178    209 175.1  35.2  34134  289.13 0855.19
2009/04/23 10:25:17.4     -31   -184    112    187    217 189.6  33.5  34134  289.13 0855.19
2009/04/23 10:25:17.5      -2   -131    137    132    190 180.9  50.9  34138  289.19 0855.19
2009/04/23 10:25:17.6      -9      0    105     10    105 270.0  90.0  34152  289.45 0855.19
2009/04/23 10:25:17.7      13   -128    163    129    207 174.2  57.7  34140  289.24 0855.19
2009/04/23 10:25:17.8      -5   -341    338    342    480 180.9  49.9  34132  289.11 0855.19
2009/04/23 10:25:17.9      96   -223    245    244    345 156.6  50.0  34132  289.10 0855.19
2009/04/23 10:25:18.0       4   -294    229    295    373 179.1  41.7  34126  288.98 0855.19
2009/04/23 10:25:18.1     -74   -329    284    338    441 192.7  44.2  34126  289.00 0855.19
2009/04/23 10:25:18.2      88    -76    169    117    205 130.9  62.4  34136  289.16 0855.19
2009/04/23 10:25:18.3      80    -52    152     96    179 122.9  64.7  34146  289.35 0855.19
2009/04/23 10:25:18.4     110      5    200    111    228  87.4  68.8  34146  289.33 0855.19
2009/04/23 10:25:18.6     205     49    224    211    307  76.5  52.1  34136  289.15 0855.19
2009/04/23 10:25:18.7      74    -12    197     76    211  99.7  78.2  34144  289.30 0855.19
2009/04/23 10:25:18.8     118    -21    148    120    190 100.1  56.4  34140  289.23 0855.19
2009/04/23 10:25:18.9       0     62    115     63    131 359.1  68.9  34148  289.38 0855.19
2009/04/23 10:25:19.0     118     39    103    125    161  71.8  44.1  34136  289.16 0855.19
2009/04/23 10:25:19.1      57   -159    158    170    232 160.2  47.9  34132  289.09 0855.19
2009/04/23 10:25:19.2      -6   -186    160    187    246 182.0  44.8  34128  289.04 0855.19
2009/04/23 10:25:19.3      -8   -186    107    187    215 182.7  32.1  34126  288.99 0855.19
2009/04/23 10:25:19.4      36   -160     76    165    181 167.3  26.4  34132  289.09 0855.19
2009/04/23 10:25:19.5      50   -123     87    133    158 157.7  36.5  34130  289.08 0855.19
2009/04/23 10:25:19.6     128   -215    155    251    295 149.2  34.8  34128  289.02 0855.19
2009/04/23 10:25:19.7      22   -245    107    247    269 174.7  25.1  34124  288.97 0855.19
2009/04/23 10:25:19.8      19   -201    152    202    252 174.4  40.7  34126  289.00 0855.19
2009/04/23 10:25:19.9     -15   -247     82    248    262 183.5  18.5  34130  289.05 0855.19
2009/04/23 10:25:20.0      16   -113     -9    115    116 171.5  -4.6  34128  289.04 0855.19
2009/04/23 10:25:20.1     -82    -82    -45    117    125 225.0 -26.4  34126  289.01 0855.19
2009/04/23 10:25:20.2     -66   -108    -90    127    155 211.6 -43.5  34128  289.04 0855.19
2009/04/23 10:25:20.3     -48   -109    -80    120    144 203.6 -40.9  34126  289.01 0855.19
2009/04/23 10:25:20.4      24   -118    -50    121    130 168.4 -28.0  34128  289.02 0855.19
2009/04/23 10:25:20.5      72   -141     -9    159    160 152.9  -3.3  34128  289.02 0855.19
2009/04/23 10:25:20.6      76   -139     89    159    182 151.1  31.9  34126  288.99 0855.19
2009/04/23 10:25:20.7      31   -119    177    123    215 165.3  61.5  34118  288.86 0855.19
2009/04/23 10:25:20.8     -49   -128    265    138    298 200.9  70.6  34136  289.15 0855.20
2009/04/23 10:25:20.9     -24   -324    200    325    381 184.3  34.8  34120  288.91 0855.20
2009/04/23 10:25:21.0    -115   -367    195    385    431 197.4  29.2  34118  288.87 0855.20
2009/04/23 10:25:21.1    -129   -346    284    370    466 200.5  41.5  34126  289.00 0855.20
2009/04/23 10:25:21.2    -145   -330     42    361    364 203.7   6.7  34124  288.96 0855.20
2009/04/23 10:25:21.3      98   -246    204    266    335 158.2  41.3  34126  289.00 0855.20
2009/04/23 10:25:21.4      21   -286    196    287    347 175.6  37.6  34126  288.99 0855.20
2009/04/23 10:25:21.5    -106   -332    171    349    388 197.7  27.9  34120  288.88 0855.20
2009/04/23 10:25:21.6     -93   -240    214    258    335 201.2  44.0  34124  288.97 0855.20
2009/04/23 10:25:21.7      -9   -147    152    148    212 183.6  50.4  34126  288.99 0855.20
2009/04/23 10:25:21.8     -66    -81    168    105    198 219.2  65.1  34132  289.09 0855.17
2009/04/23 10:25:21.9     -56   -190     66    199    210 196.5  18.4  34124  288.96 0855.17
2009/04/23 10:25:22.0    -111   -123     39    167    172 222.1  13.2  34128  289.02 0855.17
2009/04/23 10:25:22.1    -101   -122     -1    159    160 219.6  -0.7  34128  289.02 0855.17
2009/04/23 10:25:22.2     -87   -119    -51    148    157 216.1 -19.1  34128  289.04 0855.17
2009/04/23 10:25:22.3     -91    -91     -5    129    130 225.0  -2.2  34130  289.08 0855.17
2009/04/23 10:25:22.4    -118   -153     77    194    208 217.6  22.8  34126  289.01 0855.17
2009/04/23 10:25:22.5     -31   -164    108    168    199 190.9  35.7  34124  288.97 0855.17
2009/04/23 10:25:22.6     -82   -136     31    159    163 211.2  11.1  34126  289.01 0855.17
2009/04/23 10:25:22.7     -86   -117      7    146    147 216.1   2.8  34128  289.02 0855.17
2009/04/23 10:25:22.8    -220    -72     19    232    233 251.8   4.9  34140  289.22 0855.17
2009/04/23 10:25:22.9    -213   -101     32    236    239 244.6   7.8  34132  289.09 0855.17
2009/04/23 10:25:23.0    -167   -131    111    213    240 231.8  29.8  34132  289.11 0855.17
2009/04/23 10:25:23.1    -222    -58     77    230    243 255.4  18.6  34146  289.34 0855.17
2009/04/23 10:25:23.2    -202   -252     33    324    326 218.7   5.9  34138  289.20 0855.17
2009/04/23 10:25:23.3    -204   -244     44    319    322 219.9   7.9  34144  289.31 0855.17
2009/04/23 10:25:23.4      23   -304      5    306    307 175.5   1.0  34126  289.00 0855.17
2009/04/23 10:25:23.5      28   -196    -18    199    200 171.8  -5.4  34122  288.92 0855.17
2009/04/23 10:25:23.6      15   -196     85    197    214 175.6  25.1  34124  288.97 0855.17
2009/04/23 10:25:23.7     -58   -286     90    293    307 191.6  17.2  34128  289.03 0855.17
2009/04/23 10:25:23.8    -135   -298     50    328    332 204.3   8.8  34126  289.01 0855.14
2009/04/23 10:25:23.9    -155   -279     41    320    323 209.0   7.4  34134  289.12 0855.14
2009/04/23 10:25:24.0    -200   -283    107    347    364 215.3  17.2  34136  289.18 0855.14
2009/04/23 10:25:24.1    -255   -257     41    363    366 224.8   6.5  34142  289.25 0855.14
2009/04/23 10:25:24.2    -221   -228     57    318    324 224.1  10.2  34136  289.15 0855.14
2009/04/23 10:25:24.3    -197   -180    115    268    291 227.6  24.9  34136  289.15 0855.14
2009/04/23 10:25:24.4    -145   -126     99    193    216 229.1  29.3  34134  289.14 0855.14
2009/04/23 10:25:24.5     -92   -264    203    280    345 199.2  39.5  34128  289.03 0855.14
2009/04/23 10:25:24.6    -119   -250    236    277    363 205.5  44.7  34128  289.04 0855.14
2009/04/23 10:25:24.7    -169   -219    264    277    382 217.8  48.5  34136  289.16 0855.14
2009/04/23 10:25:24.8    -166    -97    204    193    280 239.8  52.0  34146  289.32 0855.14
2009/04/23 10:25:24.9       7      2    121      8    121  71.4  90.0  34138  289.19 0855.14
2009/04/23 10:25:25.0     185    -32    240    188    304 100.1  57.9  34130  289.07 0855.14
2009/04/23 10:25:25.1      21   -275    302    276    409 175.6  52.9  34126  288.98 0855.14
2009/04/23 10:25:25.2     -72   -438    125    444    462 189.3  15.8  34120  288.90 0855.14
2009/04/23 10:25:25.3    -158   -340    189    376    420 205.0  28.6  34124  288.97 0855.14
2009/04/23 10:25:25.4    -160   -326     96    364    377 206.2  14.9  34120  288.91 0855.14
2009/04/23 10:25:25.5      -8   -229    191    230    298 182.2  43.8  34128  289.02 0855.14
2009/04/23 10:25:25.6     104   -246    127    268    296 157.1  27.1  34126  288.98 0855.14
2009/04/23 10:25:25.7     175   -210    127    274    302 140.1  26.6  34130  289.05 0855.14
2009/04/23 10:25:25.8     132   -203    157    243    289 147.0  35.7  34132  289.09 0855.15
2009/04/23 10:25:25.9      19   -137    169    139    218 172.0  56.4  34134  289.14 0855.15
2009/04/23 10:25:26.0      91   -110    125    143    189 140.4  45.6  34134  289.14 0855.15
2009/04/23 10:25:26.1     103   -118    105    157    188 139.0  36.7  34134  289.14 0855.15
2009/04/23 10:25:26.2      63    -35     99     73    123 118.9  60.5  34146  289.33 0855.15
2009/04/23 10:25:26.3      -1    -66     73     67     99 180.9  52.2  34140  289.23 0855.15
2009/04/23 10:25:26.4     -13   -135    132    136    189 185.8  49.4  34132  289.11 0855.15
2009/04/23 10:25:26.5     -21   -152    136    154    205 188.0  45.9  34132  289.09 0855.15
2009/04/23 10:25:26.6     -21   -126    128    128    181 189.7  50.1  34130  289.06 0855.15
2009/04/23 10:25:26.7      41   -139    104    146    179 163.5  39.3  34134  289.13 0855.15
2009/04/23 10:25:26.8      58    -96    123    113    167 148.8  52.7  34128  289.04 0855.15
2009/04/23 10:25:26.9     180   -193    130    265    295 137.0  28.0  34128  289.03 0855.15
2009/04/23 10:25:27.0     120   -264    188    291    346 155.5  35.7  34126  289.01 0855.15
2009/04/23 10:25:27.1       4   -306    211    307    372 179.1  37.9  34132  289.10 0855.15
2009/04/23 10:25:27.2     136   -356    258    382    460 159.1  37.4  34122  288.94 0855.15
2009/04/23 10:25:27.3     168   -448     54    479    483 159.4   6.5  34126  289.00 0855.15
2009/04/23 10:25:27.4     118   -471    136    486    505 165.8  15.7  34130  289.06 0855.15
2009/04/23 10:25:27.5     124   -251    109    280    300 153.7  22.3  34106  288.65 0855.15
2009/04/23 10:25:27.6     -24   -433    230    434    491 183.2  30.2  34120  288.91 0855.15
2009/04/23 10:25:27.7      12   -501    177    502    532 178.6  20.2  34118  288.87 0855.15
2009/04/23 10:25:27.8     -45   -325    180    329    375 187.9  31.3  34112  288.77 0855.17
2009/04/23 10:25:27.9       0   -223    165    224    278 179.8  39.9  34122  288.93 0855.17
2009/04/23 10:25:28.0     105   -204    209    230    310 152.8  47.0  34126  288.98 0855.17
2009/04/23 10:25:28.1      50   -122    131    132    185 157.7  50.5  34126  289.01 0855.17
2009/04/23 10:25:28.2     -12   -155    102    156    186 184.5  36.0  34128  289.02 0855.17
2009/04/23 10:25:28.3     -42   -119     67    127    143 199.6  30.3  34126  288.99 0855.17
2009/04/23 10:25:28.4     -35     52     27     63     68 325.7  24.1  34136  289.18 0855.17
2009/04/23 10:25:28.5     -65     95     52    116    127 325.7  25.7  34136  289.16 0855.17
2009/04/23 10:25:28.6     -38    114     39    121    128 341.3  17.9  34134  289.14 0855.17
2009/04/23 10:25:28.7      12    115     96    116    150   6.2  43.8  34134  289.14 0855.17
2009/04/23 10:25:28.8      63     82     84    104    133  37.8  43.7  34132  289.09 0855.17
2009/04/23 10:25:28.9      61     77    100     99    140  38.7  50.1  34132  289.11 0855.17
2009/04/23 10:25:29.0      45     16    119     48    128  70.0  77.1  34142  289.28 0855.17
2009/04/23 10:25:29.1     -10     14     82     18     83 323.9  87.5  34148  289.38 0855.17
2009/04/23 10:25:29.2     -47     71     70     86    110 326.6  43.7  34138  289.19 0855.17
2009/04/23 10:25:29.3     -48    175     53    182    190 344.6  16.3  34122  288.94 0855.17
2009/04/23 10:25:29.4     -50    194     56    201    209 345.5  15.8  34124  288.96 0855.17
2009/04/23 10:25:29.5     -39    160     66    165    177 346.0  23.0  34122  288.92 0855.17
2009/04/23 10:25:29.6     -94    187    168    210    268 333.3  43.0  34120  288.88 0855.17
2009/04/23 10:25:29.7    -185    188    120    264    289 315.5  26.2  34116  288.83 0855.17
2009/04/23 10:25:29.8    -236    221    145    324    354 313.0  25.7  34118  288.86 0855.19
2009/04/23 10:25:29.9    -320    -18    135    321    348 266.7  24.1  34122  288.94 0855.19
2009/04/23 10:25:30.0    -246   -173    122    301    324 234.9  23.4  34122  288.92 0855.19
2009/04/23 10:25:30.1    -223   -105     48    247    252 244.8  11.1  34122  288.92 0855.19
2009/04/23 10:25:30.2    -190    -31    122    193    228 260.5  35.5  34116  288.82 0855.19
2009/04/23 10:25:30.3    -231   -156    194    279    339 235.9  38.3  34124  288.97 0855.19
2009/04/23 10:25:30.4    -255   -223    207    340    398 228.8  34.3  34118  288.86 0855.19
2009/04/23 10:25:30.5     -96   -195    154    218    266 206.3  38.6  34120  288.90 0855.19
2009/04/23 10:25:30.6      55    -86    142    103    175 147.4  60.8  34124  288.97 0855.19
2009/04/23 10:25:30.7    -107   -255    274    277    389 202.8  49.9  34120  288.89 0855.19
2009/04/23 10:25:30.8    -360   -183    115    404    421 243.0  15.9  34134  289.14 0855.19
2009/04/23 10:25:30.9    -282   -191    153    341    373 235.8  25.8  34126  288.99 0855.19
2009/04/23 10:25:31.0    -220   -268    244    347    424 219.4  38.6  34120  288.88 0855.19
2009/04/23 10:25:31.1    -249   -362    237    440    499 214.5  30.7  34136  289.18 0855.19
2009/04/23 10:25:31.2    -323   -141    143    353    380 246.4  23.2  34136  289.16 0855.19
2009/04/23 10:25:31.3    -281   -146     78    317    327 242.5  13.9  34148  289.36 0855.19
2009/04/23 10:25:31.4    -243   -131     94    277    293 241.6  18.9  34144  289.31 0855.19
2009/04/23 10:25:31.5    -174   -164    116    240    266 226.8  27.3  34142  289.25 0855.19
2009/04/23 10:25:31.6    -120   -264    146    291    325 204.5  28.5  34136  289.17 0855.19
2009/04/23 10:25:31.7    -184   -254    170    314    357 216.0  30.8  34136  289.18 0855.19
2009/04/23 10:25:31.8    -168   -326     61    367    373 207.3   9.5  34132  289.10 0855.19
2009/04/23 10:25:31.9    -195   -455      7    496    497 203.2   0.9  34116  288.84 0855.19
2009/04/23 10:25:32.0    -257   -363    101    445    457 215.3  12.8  34112  288.77 0855.19
2009/04/23 10:25:32.1     118   -416    248    433    498 164.1  32.4  34116  288.81 0855.19
2009/04/23 10:25:32.2      84   -415    150    424    449 168.5  20.3  34116  288.83 0855.19
2009/04/23 10:25:32.3      49   -387    207    391    442 172.8  30.2  34116  288.83 0855.19
2009/04/23 10:25:32.4      25   -410    232    411    471 176.4  31.9  34112  288.75 0855.19
2009/04/23 10:25:32.5     -65   -418    255    424    494 188.9  34.0  34120  288.90 0855.19
2009/04/23 10:25:32.6    -129   -408    170    428    460 197.6  23.0  34112  288.77 0855.19
2009/04/23 10:25:32.7      -1   -325     18    326    327 180.2   3.3  34116  288.83 0855.19
2009/04/23 10:25:32.8      62   -235    126    244    274 165.1  29.3  34116  288.81 0855.19
2009/04/23 10:25:32.9      72   -377     64    384    390 169.1   9.5  34116  288.84 0855.19
2009/04/23 10:25:33.0      65   -348    -48    355    359 169.3  -7.7  34116  288.82 0855.19
2009/04/23 10:25:33.1     106   -235    -22    258    260 155.7  -4.9  34118  288.87 0855.19
2009/04/23 10:25:33.2     101   -190      8    216    217 151.9   2.3  34116  288.82 0855.19
2009/04/23 10:25:33.3     167   -208     51    267    272 141.3  11.0  34118  288.87 0855.19
2009/04/23 10:25:33.4     159   -133    137    208    249 129.8  36.5  34110  288.73 0855.19
2009/04/23 10:25:33.5      -8    -36    264     38    266 193.4  90.0  34128  289.04 0855.19
2009/04/23 10:25:33.6     -56     -6    197     57    205 263.9  83.1  34134  289.13 0855.19
2009/04/23 10:25:33.7     -79   -230    173    244    299 198.9  38.8  34114  288.80 0855.19
2009/04/23 10:25:33.8      -9   -209    235    210    315 182.5  53.7  34122  288.92 0855.20
2009/04/23 10:25:33.9      24   -325    238    326    403 175.7  39.7  34116  288.82 0855.20
2009/04/23 10:25:34.0      17   -242    181    243    303 175.8  40.6  34114  288.78 0855.20
2009/04/23 10:25:34.1      37   -222    145    226    268 170.4  35.6  34122  288.92 0855.20
2009/04/23 10:25:34.2     -90   -119     50    150    159 217.0  18.6  34118  288.86 0855.20
2009/04/23 10:25:34.3     -57     27    102     64    120 295.3  64.7  34122  288.92 0855.20
2009/04/23 10:25:34.4      28    -31    140     42    146 137.7  82.8  34134  289.14 0855.20
2009/04/23 10:25:34.5      16    -86    179     88    199 169.3  72.1  34138  289.19 0855.20
2009/04/23 10:25:34.6      -3    -40    191     41    195 185.3  88.5  34126  288.99 0855.20
2009/04/23 10:25:34.7     -24   -238    216    240    322 185.8  46.6  34122  288.93 0855.20
2009/04/23 10:25:34.8      12   -371    169    372    408 178.1  26.2  34120  288.89 0855.20
2009/04/23 10:25:34.9     -23   -361    148    362    391 183.7  23.6  34120  288.89 0855.20
2009/04/23 10:25:35.0     -69   -305    -17    313    314 192.9  -3.2  34122  288.92 0855.20
2009/04/23 10:25:35.1       8   -222     97    223    243 177.8  25.1  34114  288.80 0855.20
2009/04/23 10:25:35.2      -8   -199     55    200    208 182.5  15.6  34120  288.89 0855.20
2009/04/23 10:25:35.3      -8   -177     84    178    196 182.7  27.1  34114  288.79 0855.20
2009/04/23 10:25:35.4     -46   -158    111    165    198 196.5  37.4  34122  288.94 0855.20
2009/04/23 10:25:35.5    -114    -94     41    148    154 230.5  15.6  34120  288.91 0855.20
2009/04/23 10:25:35.6    -136    -41      7    143    144 253.2   2.9  34122  288.92 0855.20
2009/04/23 10:25:35.7     -34    -16     20     38     42 244.6  30.3  34118  288.87 0855.20
2009/04/23 10:25:35.8     -62   -150    129    163    207 202.5  42.4  34120  288.91 0855.20
2009/04/23 10:25:35.9      -4   -158    103    159    189 181.8  35.7  34122  288.92 0855.20
2009/04/23 10:25:36.0      13   -202    137    203    244 176.2  37.4  34118  288.87 0855.20
2009/04/23 10:25:36.1       4   -176    110    177    208 178.4  35.0  34122  288.94 0855.20
2009/04/23 10:25:36.2      38    -90     83     98    128 156.8  44.3  34124  288.96 0855.20
2009/04/23 10:25:36.3      23    -91    105     94    140 165.7  53.7  34126  289.01 0855.20
2009/04/23 10:25:36.4       7   -178    206    179    272 177.5  54.6  34120  288.88 0855.20
2009/04/23 10:25:36.5    -107   -269    100    290    307 201.8  19.1  34116  288.81 0855.20
2009/04/23 10:25:36.6       0   -245    178    246    303 180.1  39.7  34122  288.93 0855.20
2009/04/23 10:25:36.7      10   -197    121    198    232 177.1  34.8  34124  288.96 0855.20
2009/04/23 10:25:36.8      33   -210     70    213    225 170.9  18.1  34122  288.92 0855.20
2009/04/23 10:25:36.9      15    -87     93     89    128 170.2  51.2  34118  288.86 0855.20
2009/04/23 10:25:37.0     -87   -184    206    204    289 205.3  50.1  34124  288.95 0855.20
2009/04/23 10:25:37.1     -71   -176    222    191    292 202.1  55.0  34130  289.05 0855.20
2009/04/23 10:25:37.2     -70   -177    135    191    233 201.8  38.8  34118  288.86 0855.20
2009/04/23 10:25:37.3    -133    -44    176    141    225 251.8  56.9  34124  288.97 0855.20
2009/04/23 10:25:37.4    -179   -108     92    210    229 238.9  25.2  34124  288.96 0855.20
2009/04/23 10:25:37.5    -203    -81     34    219    222 248.2   8.9  34120  288.91 0855.20
2009/04/23 10:25:37.6    -109   -179    214    210    299 211.4  50.2  34122  288.92 0855.20
2009/04/23 10:25:37.7     -86   -103    199    135    240 219.6  62.6  34124  288.96 0855.20
2009/04/23 10:25:37.8      -3    -65    136     66    151 182.7  72.8  34130  289.06 0855.23
2009/04/23 10:25:37.9    -203    -58     26    212    214 254.1   7.1  34128  289.02 0855.23
2009/04/23 10:25:38.0    -138      0    -38    139    145 270.0 -15.5  34132  289.11 0855.23
2009/04/23 10:25:38.1     -84     75    101    113    151 311.8  46.4  34130  289.06 0855.23
2009/04/23 10:25:38.2      19     21    120     29    123  41.4  86.9  34134  289.13 0855.23
2009/04/23 10:25:38.3     -92      3    125     93    155 272.1  60.0  34136  289.16 0855.23
2009/04/23 10:25:38.4    -184    -14    108    185    214 265.6  33.4  34126  289.01 0855.23
2009/04/23 10:25:38.5    -254     24    -55    256    262 275.5 -12.2  34134  289.14 0855.23
2009/04/23 10:25:38.6    -180    -26     90    182    203 261.6  28.5  34132  289.09 0855.23
2009/04/23 10:25:38.7    -236    -78     -7    249    250 251.6  -1.6  34128  289.02 0855.23
2009/04/23 10:25:38.8    -192    -91      0    213    214 244.6   0.0  34126  289.01 0855.23
2009/04/23 10:25:38.9    -144    -79     35    165    169 241.2  12.2  34130  289.08 0855.23
2009/04/23 10:25:39.0    -211    -60     34    220    223 254.1   8.9  34124  288.97 0855.23
2009/04/23 10:25:39.1    -266      0     80    267    279 270.0  16.8  34122  288.93 0855.23
2009/04/23 10:25:39.2    -341     99    111    356    374 286.2  17.4  34128  289.03 0855.23
2009/04/23 10:25:39.3    -333     15    105    334    351 272.6  17.5  34128  289.03 0855.23
2009/04/23 10:25:39.4    -319     24     96    320    335 274.4  16.8  34132  289.10 0855.23
2009/04/23 10:25:39.5    -261   -127     92    291    306 244.0  17.7  34138  289.19 0855.23
2009/04/23 10:25:39.6    -513   -259     39    575    577 243.2   3.9  34136  289.17 0855.23
2009/04/23 10:25:39.7    -589   -188    -55    619    622 252.3  -5.1  34136  289.16 0855.23
2009/04/23 10:25:39.8    -448   -184     17    485    486 247.6   2.1  34124  288.96 0855.22
2009/04/23 10:25:39.9    -235   -325    128    402    422 215.8  17.7  34124  288.95 0855.22
2009/04/23 10:25:40.0    -333   -353    173    486    515 223.3  20.4  34126  288.98 0855.22
2009/04/23 10:25:40.1    -447   -483    168    659    681 222.8  14.3  34120  288.88 0855.22
2009/04/23 10:25:40.2    -611   -342     36    701    702 240.7   3.0  34142  289.27 0855.22
2009/04/23 10:25:40.3    -590   -267    -76    648    653 245.6  -6.7  34146  289.33 0855.22
2009/04/23 10:25:40.4    -582   -321   -143    665    681 241.1 -12.2  34156  289.51 0855.22
2009/04/23 10:25:40.5    -487   -252     97    549    558 242.6  10.1  34140  289.23 0855.22
2009/04/23 10:25:40.6    -335   -383    227    510    558 221.2  25.7  34124  288.97 0855.22
2009/04/23 10:25:40.7    -260   -251    156    362    394 226.1  24.9  34134  289.13 0855.22
2009/04/23 10:25:40.8    -189   -260    235    322    398 216.0  39.7  34126  289.01 0855.22
2009/04/23 10:25:40.9    -235   -440    335    499    601 208.1  37.1  34146  289.32 0855.22
2009/04/23 10:25:41.0    -397   -434      3    589    590 222.4   0.3  34150  289.41 0855.22
2009/04/23 10:25:41.1     -53   -441    227    445    499 186.9  29.2  34150  289.40 0855.22
2009/04/23 10:25:41.2      34   -446    212    448    495 175.6  27.2  34134  289.13 0855.22
2009/04/23 10:25:41.3      21   -421    108    422    436 177.1  14.4  34136  289.17 0855.22
2009/04/23 10:25:41.4     -55   -443     90    447    456 187.1  11.5  34128  289.02 0855.22
2009/04/23 10:25:41.5     -80   -494     21    501    502 189.2   2.5  34120  288.91 0855.22
2009/04/23 10:25:41.6    -253   -477     67    541    546 208.0   7.1  34122  288.92 0855.22
2009/04/23 10:25:41.7    -238   -446    114    506    519 208.1  12.8  34120  288.88 0855.22
2009/04/23 10:25:41.8    -153   -486     52    510    513 197.5   5.9  34120  288.91 0855.23
2009/04/23 10:25:41.9     -50   -456    265    459    530 186.3  32.6  34120  288.90 0855.23
2009/04/23 10:25:42.0     -23   -181    259    183    317 187.3  61.4  34134  289.12 0855.23
2009/04/23 10:25:42.1     130   -313    137    339    365 157.4  23.2  34122  288.93 0855.23
2009/04/23 10:25:42.2      71   -367     88    374    385 169.0  13.2  34120  288.89 0855.23
2009/04/23 10:25:42.3     118   -435     56    451    455 164.8   7.1  34120  288.90 0855.23
2009/04/23 10:25:42.4      19   -347     79    348    357 176.8  12.9  34120  288.88 0855.23
2009/04/23 10:25:42.5     127   -456    206    474    516 164.4  25.1  34120  288.88 0855.23
2009/04/23 10:25:42.6     113   -473    259    487    551 166.5  30.3  34122  288.94 0855.23
2009/04/23 10:25:42.7      14   -420    258    421    493 178.0  34.4  34118  288.86 0855.23
2009/04/23 10:25:42.8      43   -336    297    339    450 172.6  45.8  34124  288.97 0855.25
2009/04/23 10:25:42.9      57   -357    266    362    449 170.8  39.8  34118  288.87 0855.25
2009/04/23 10:25:43.0     145   -343    216    373    431 157.0  32.7  34126  289.00 0855.25
2009/04/23 10:25:43.1     228   -214    315    314    444 133.2  50.1  34126  288.99 0855.25
2009/04/23 10:25:43.2     349   -367    309    507    593 136.5  34.3  34128  289.04 0855.25
2009/04/23 10:25:43.3     452   -294    281    540    608 123.1  29.6  34118  288.85 0855.25
2009/04/23 10:25:43.4     337   -431    162    548    572 142.0  16.5  34124  288.97 0855.25
2009/04/23 10:25:43.5     292   -357    -15    462    463 140.8  -1.9  34124  288.97 0855.25
2009/04/23 10:25:43.6     310   -282     62    420    425 132.3   8.5  34126  289.00 0855.25
2009/04/23 10:25:43.7     209   -308     51    373    377 145.9   7.9  34128  289.03 0855.25
2009/04/23 10:25:43.8     193   -306     47    362    366 147.8   7.4  34128  289.04 0855.25
2009/04/23 10:25:43.9     327   -244     82    409    418 126.8  11.3  34122  288.94 0855.25
2009/04/23 10:25:44.0     367   -213    132    425    446 120.2  17.3  34130  289.07 0855.25
2009/04/23 10:25:44.1     236   -228     79    329    339 134.0  13.6  34130  289.08 0855.25
2009/04/23 10:25:44.2     171   -154    109    231    255 132.0  27.1  34130  289.07 0855.25
2009/04/23 10:25:44.3     117    -86    154    146    212 126.4  51.6  34132  289.11 0855.25
2009/04/23 10:25:44.4     -15     16    134     22    135 316.8  90.0  34144  289.31 0855.25
2009/04/23 10:25:44.5       5   -268    310    269    410 178.9  54.7  34138  289.21 0855.25
2009/04/23 10:25:44.6     -59   -290    212    297    364 191.6  39.1  34136  289.16 0855.25
2009/04/23 10:25:44.7      85   -384    231    394    456 167.5  33.1  34138  289.19 0855.24
2009/04/23 10:25:44.8      36   -208    281    212    352 170.2  59.2  34138  289.19 0855.24
2009/04/23 10:25:44.9      -9   -295    288    296    412 181.8  49.1  34134  289.13 0855.24
2009/04/23 10:25:45.0     -52   -238    279    244    370 192.5  54.3  34136  289.18 0855.24
2009/04/23 10:25:45.1      24   -129    248    132    280 169.3  69.8  34148  289.37 0855.24
2009/04/23 10:25:45.2     -30   -254    329    256    416 186.9  58.4  34146  289.35 0855.24
2009/04/23 10:25:45.3     100   -181    132    208    246 151.0  35.5  34144  289.31 0855.24
2009/04/23 10:25:45.4     205   -145     90    252    267 125.3  20.4  34138  289.19 0855.24
2009/04/23 10:25:45.5      90   -235    139    252    287 159.0  31.4  34140  289.22 0855.24
2009/04/23 10:25:45.6     124   -197     62    233    242 147.7  15.0  34136  289.15 0855.24
2009/04/23 10:25:45.7      27   -216     96    218    238 172.7  25.2  34142  289.26 0855.24
2009/04/23 10:25:45.8      48   -254     82    259    272 169.3  17.7  34140  289.22 0855.24
2009/04/23 10:25:45.9     120   -213    -49    245    250 150.6 -11.5  34140  289.24 0855.24
2009/04/23 10:25:46.0     146   -325     35    357    359 155.8   5.7  34126  288.99 0855.24
2009/04/23 10:25:46.1     131   -304     28    332    334 156.6   4.9  34134  289.13 0855.24
2009/04/23 10:25:46.2      78   -373     96    382    394 168.2  14.2  34128  289.04 0855.24
2009/04/23 10:25:46.4     105   -364     29    379    381 163.9   4.5  34126  288.99 0855.24
2009/04/23 10:25:46.5      42   -227     86    231    246 169.5  21.3  34118  288.85 0855.24
2009/04/23 10:25:46.6     192   -132     28    234    236 124.6   6.9  34134  289.12 0855.24
2009/04/23 10:25:46.7     126    -38     83    132    155 106.8  35.5  34130  289.06 0855.24
2009/04/23 10:25:46.8      72    -87    153    114    190 140.3  59.8  34130  289.06 0855.23
2009/04/23 10:25:46.9      98    -50    149    111    185 117.1  59.4  34126  289.01 0855.23
2009/04/23 10:25:47.0     -14   -160    159    161    226 185.1  49.9  34130  289.06 0855.23
2009/04/23 10:25:47.1     -15   -150    148    151    211 185.8  49.8  34126  289.01 0855.23
2009/04/23 10:25:47.2     -23   -123    157    126    201 190.7  57.1  34132  289.09 0855.23
2009/04/23 10:25:47.3     -33    -97    145    103    177 198.7  61.1  34132  289.09 0855.23
2009/04/23 10:25:47.4     -84   -102    100    133    166 219.6  40.7  34124  288.96 0855.23
2009/04/23 10:25:47.5     -37   -157    153    162    222 193.4  48.2  34122  288.94 0855.23
2009/04/23 10:25:47.6     -87   -213    186    231    296 202.3  43.3  34128  289.03 0855.23
2009/04/23 10:25:47.7     -18   -241     86    242    256 184.4  20.4  34124  288.97 0855.23
2009/04/23 10:25:47.8      21   -152    123    154    197 172.0  42.7  34122  288.94 0855.23
2009/04/23 10:25:47.9     -18   -179    147    180    232 186.0  43.7  34128  289.02 0855.23
2009/04/23 10:25:48.0     -12   -136    207    137    248 185.3  63.6  34138  289.21 0855.23
2009/04/23 10:25:48.1     -65    -85    179    108    209 217.4  66.2  34140  289.23 0855.23
2009/04/23 10:25:48.2     -76   -181    207    197    285 202.9  51.6  34130  289.07 0855.23
2009/04/23 10:25:48.3     -22   -128    161    130    206 189.8  56.6  34136  289.16 0855.23
2009/04/23 10:25:48.4     -52   -101    137    114    178 207.2  56.1  34140  289.23 0855.23
2009/04/23 10:25:48.5      59     -4     92     60    109  94.4  64.6  34146  289.33 0855.23
2009/04/23 10:25:48.6     -31   -114     54    119    130 195.6  26.2  34136  289.16 0855.23
2009/04/23 10:25:48.7      37    -34     59     51     77 132.2  54.3  34132  289.09 0855.23
2009/04/23 10:25:48.8     -17     38     81     42     91 335.5  70.8  34154  289.48 0855.22
2009/04/23 10:25:48.9     -21     21    122     30    125 315.0  86.4  34154  289.46 0855.22
2009/04/23 10:25:49.0      12    113    138    114    178   6.2  56.4  34146  289.35 0855.22
2009/04/23 10:25:49.1     -39     94     76    103    128 337.3  40.1  34146  289.35 0855.22
2009/04/23 10:25:49.2     -35    129     86    134    159 344.9  35.7  34140  289.24 0855.22
2009/04/23 10:25:49.3     -39    146     96    152    179 344.8  35.5  34134  289.14 0855.22
2009/04/23 10:25:49.4     -17    182    112    183    214 354.4  34.8  34142  289.28 0855.22
2009/04/23 10:25:49.5     -49    120     84    130    154 337.7  35.6  34144  289.30 0855.22
2009/04/23 10:25:49.6    -106     82    -44    135    143 307.7 -18.1  34132  289.11 0855.22
2009/04/23 10:25:49.7    -142     47      7    150    151 288.4   2.9  34142  289.28 0855.22
2009/04/23 10:25:49.8     -71     92     64    117    133 322.2  31.4  34142  289.26 0855.22
2009/04/23 10:25:49.9     -43    142     52    149    157 343.1  20.0  34140  289.23 0855.22
2009/04/23 10:25:50.0      23    136     49    139    147   9.8  20.0  34140  289.24 0855.22
2009/04/23 10:25:50.1      65     55     90     86    124  49.6  50.7  34156  289.50 0855.22
2009/04/23 10:25:50.2     -97     39     66    105    124 291.8  35.5  34164  289.63 0855.22
2009/04/23 10:25:50.3    -188    -13     20    189    191 265.9   6.1  34166  289.67 0855.22
2009/04/23 10:25:50.4    -224     24     85    226    241 276.2  21.5  34196  290.17 0855.22
2009/04/23 10:25:50.5    -216     57    112    224    250 284.8  28.2  34208  290.37 0855.22
2009/04/23 10:25:50.6    -266     40     55    270    276 278.6  11.6  34198  290.20 0855.22
2009/04/23 10:25:50.7    -244     65     93    253    269 285.0  21.0  34194  290.15 0855.22
2009/04/23 10:25:50.8    -346     35    112    348    366 275.9  17.9  34164  289.64 0855.22
2009/04/23 10:25:50.9    -353    -81     52    363    367 257.0   8.2  34156  289.52 0855.22
2009/04/23 10:25:51.0    -259     48    136    264    296 280.5  29.3  34166  289.66 0855.22
2009/04/23 10:25:51.1    -275    -43     65    279    287 261.0  13.2  34176  289.85 0855.22
2009/04/23 10:25:51.2    -261    -36     61    264    272 262.0  13.1  34160  289.58 0855.22
2009/04/23 10:25:51.3    -213     51    -44    220    225 283.5 -11.5  34124  288.96 0855.22
2009/04/23 10:25:51.4    -155    -21    -74    157    173 262.1 -31.5  34116  288.84 0855.22
2009/04/23 10:25:51.5    -156    -99    -52    185    192 237.6 -20.2  34118  288.87 0855.22
2009/04/23 10:25:51.6    -125    -54    -14    137    138 246.4  -6.2  34118  288.86 0855.22
2009/04/23 10:25:51.7     -43     14     51     46     68 288.2  52.2  34128  289.04 0855.22
2009/04/23 10:25:51.8     -54    -37     23     66     71 235.8  19.4  34128  289.02 0855.22
2009/04/23 10:25:51.9     -37    -17     42     41     58 244.6  48.2  34132  289.11 0855.22
2009/04/23 10:25:52.0      -3      3     85      5     85 313.3  90.0  34152  289.45 0855.22
2009/04/23 10:25:52.1     -22     41    125     47    133 331.9  79.1  34146  289.33 0855.22
2009/04/23 10:25:52.2      -2    -16     91     17     92 188.0  89.6  34144  289.31 0855.22
2009/04/23 10:25:52.3     -71    -45     99     85    130 237.5  54.8  34150  289.40 0855.22
2009/04/23 10:25:52.4      48   -110    132    121    179 156.4  52.5  34164  289.65 0855.22
2009/04/23 10:25:52.5      47   -202     68    208    219 166.9  18.1  34148  289.36 0855.22
2009/04/23 10:25:52.6     -19    -98     27    100    104 191.1  15.3  34152  289.43 0855.22
2009/04/23 10:25:52.7    -111   -155     19    191    192 215.6   5.7  34178  289.89 0855.22
2009/04/23 10:25:52.8    -157   -163     78    227    241 224.1  18.9  34186  290.02 0855.21
2009/04/23 10:25:52.9    -130   -176    -49    220    226 216.5 -12.6  34166  289.69 0855.21
2009/04/23 10:25:53.0    -108   -212    -43    238    242 207.0 -10.3  34154  289.47 0855.21
2009/04/23 10:25:53.1    -117   -247     18    274    275 205.5   3.8  34164  289.63 0855.21
2009/04/23 10:25:53.2     -46   -178     71    185    198 194.7  22.0  34176  289.84 0855.21
2009/04/23 10:25:53.3     -86   -211    171    229    285 202.3  40.6  34178  289.86 0855.21
2009/04/23 10:25:53.4    -176   -223     60    285    292 218.3  12.0  34168  289.70 0855.21
2009/04/23 10:25:53.5     -39   -274      3    277    278 188.1   0.8  34166  289.66 0855.21
2009/04/23 10:25:53.6     -22   -317     -9    318    319 184.0  -1.7  34168  289.71 0855.21
2009/04/23 10:25:53.7     -71   -340      0    348    349 191.9   0.0  34158  289.55 0855.21
2009/04/23 10:25:53.8     -56   -214    -76    222    234 194.7 -24.0  34134  289.14 0855.21
2009/04/23 10:25:53.9      19   -110    -90    112    143 170.2 -47.7  34138  289.19 0855.21
2009/04/23 10:25:54.0     218    -90     83    236    250 112.4  20.0  34168  289.71 0855.21
2009/04/23 10:25:54.1     263    -35    115    266    289  97.7  25.1  34140  289.22 0855.21
2009/04/23 10:25:54.2      88   -282    261    296    394 162.6  45.9  34126  288.99 0855.21
2009/04/23 10:25:54.3     -13   -305    303    306    430 182.6  49.9  34130  289.06 0855.21
2009/04/23 10:25:54.4    -116   -421    190    437    476 195.4  25.0  34128  289.04 0855.21
2009/04/23 10:25:54.5    -158   -426    134    455    475 200.4  16.4  34124  288.95 0855.21
2009/04/23 10:25:54.6    -191   -405    113    449    464 205.3  14.2  34128  289.02 0855.21
2009/04/23 10:25:54.7    -348   -355    -47    498    501 224.4  -5.5  34126  289.00 0855.21
2009/04/23 10:25:54.8    -279   -316    -32    422    424 221.5  -4.4  34130  289.05 0855.23
2009/04/23 10:25:54.9    -112   -489     14    502    503 193.0   1.6  34126  289.01 0855.23
2009/04/23 10:25:55.0     -60   -416    125    421    440 188.2  16.5  34112  288.77 0855.23
2009/04/23 10:25:55.1     -38   -243    196    247    315 188.9  42.4  34130  289.07 0855.23
2009/04/23 10:25:55.2    -168   -286    244    332    412 210.4  39.9  34130  289.06 0855.23
2009/04/23 10:25:55.3    -181   -180    158    256    300 225.1  35.0  34128  289.02 0855.23
2009/04/23 10:25:55.4     -83    -78    150    115    189 226.8  58.7  34132  289.09 0855.23
2009/04/23 10:25:55.5      44    -20    110     49    120 115.3  74.9  34142  289.26 0855.23
2009/04/23 10:25:55.6      -7    -35    119     36    124 191.6  82.7  34152  289.43 0855.23
2009/04/23 10:25:55.7     -37   -166    276    171    324 192.7  65.3  34134  289.14 0855.23
2009/04/23 10:25:55.8    -192   -226    296    297    419 220.3  50.0  34132  289.10 0855.23
2009/04/23 10:25:55.9    -298   -152    208    335    394 242.9  34.8  34142  289.25 0855.23
2009/04/23 10:25:56.0       6    -98    204     99    226 176.0  72.8  34128  289.04 0855.23
2009/04/23 10:25:56.1     -37    -92    249    100    268 201.8  77.1  34146  289.33 0855.23
2009/04/23 10:25:56.2    -137   -124    131    186    227 227.8  38.6  34156  289.50 0855.23
2009/04/23 10:25:56.3      69   -314    170    322    364 167.5  30.0  34138  289.20 0855.23
2009/04/23 10:25:56.4      89   -275    232    290    371 162.0  42.9  34138  289.20 0855.23
2009/04/23 10:25:56.5       0   -429    301    430    524 179.9  38.5  34140  289.22 0855.23
2009/04/23 10:25:56.6     -47   -555    247    558    610 184.9  25.2  34132  289.10 0855.23
2009/04/23 10:25:56.7     -76   -502    270    508    575 188.7  30.3  34130  289.07 0855.23
2009/04/23 10:25:56.8     -31   -502    201    504    542 183.6  23.0  34132  289.11 0855.24
2009/04/23 10:25:56.9     -19   -490    174    491    521 182.3  19.5  34130  289.06 0855.24
2009/04/23 10:25:57.0     -16   -415    288    416    505 182.3  38.0  34132  289.10 0855.24
2009/04/23 10:25:57.1     102   -435    267    447    520 166.7  33.6  34138  289.20 0855.24
2009/04/23 10:25:57.2      13   -438    238    439    499 178.2  30.8  34130  289.08 0855.24
2009/04/23 10:25:57.3      17   -375    228    376    439 177.3  34.2  34130  289.05 0855.24
2009/04/23 10:25:57.4     104   -301    159    319    356 160.9  28.6  34136  289.18 0855.24
2009/04/23 10:25:57.5      -6   -344    128    345    367 181.0  21.1  34134  289.13 0855.24
2009/04/23 10:25:57.6     146   -265    126    303    328 151.1  23.8  34130  289.07 0855.24
2009/04/23 10:25:57.7       5   -187    129    188    228 178.2  37.6  34130  289.08 0855.24
2009/04/23 10:25:57.8     -63    -70     61     95    112 221.9  35.6  34136  289.16 0855.24
2009/04/23 10:25:57.9      -2     -7     16      8     17 198.5  72.9  34138  289.19 0855.24
2009/04/23 10:25:58.0     -16     29     46     34     57 331.0  59.4  34142  289.28 0855.24
2009/04/23 10:25:58.1     -71   -139    103    157    187 207.1  36.3  34130  289.08 0855.24
2009/04/23 10:25:58.2     -86   -143    162    168    233 211.0  49.2  34130  289.06 0855.24
2009/04/23 10:25:58.3     -47    -27    124     55    135 240.2  74.9  34136  289.16 0855.24
2009/04/23 10:25:58.4     -68     27     87     74    114 291.7  55.4  34142  289.28 0855.24
2009/04/23 10:25:58.5     -45     32     73     56     92 305.1  58.5  34142  289.26 0855.24
2009/04/23 10:25:58.6     -41      0     31     42     52 269.2  40.7  34132  289.11 0855.24
2009/04/23 10:25:58.7      56    200    189    208    281  15.8  47.0  34134  289.14 0855.24
2009/04/23 10:25:58.8      42     97    119    106    159  23.6  53.5  34136  289.16 0855.25
2009/04/23 10:25:58.9     -10     59     74     60     95 350.2  56.4  34138  289.19 0855.25
2009/04/23 10:25:59.0     -33     88     57     95    110 339.1  34.4  34134  289.13 0855.25
2009/04/23 10:25:59.1     -92     58    -21    110    113 302.4 -10.9  34132  289.09 0855.25
2009/04/23 10:25:59.2    -127      5     20    128    130 272.5   8.9  34128  289.02 0855.25
2009/04/23 10:25:59.3     -90   -170     59    193    202 208.1  17.1  34128  289.02 0855.25
2009/04/23 10:25:59.4    -294   -230     46    374    377 232.0   7.1  34126  288.99 0855.25
2009/04/23 10:25:59.5    -326   -110    103    345    361 251.3  16.6  34136  289.18 0855.25
2009/04/23 10:25:59.6    -327    -64    129    334    358 258.9  22.2  34132  289.11 0855.25
2009/04/23 10:25:59.7     -97   -199    164    222    276 206.1  40.1  34122  288.92 0855.25
2009/04/23 10:25:59.8    -240   -233    216    335    398 225.8  35.7  34116  288.82 0855.25
2009/04/23 10:25:59.9    -231   -267    249    354    432 220.9  38.6  34124  288.95 0855.25
2009/04/23 10:26:00.0    -235   -172    161    292    333 233.8  31.3  34132  289.09 0855.25
2009/04/23 10:26:00.1     -58   -176    195    186    269 198.5  51.4  34128  289.03 0855.25
2009/04/23 10:26:00.2     -88   -167     86    189    207 207.9  26.2  34126  288.99 0855.25
2009/04/23 10:26:00.3    -148   -226     23    271    273 213.2   4.9  34122  288.92 0855.25
2009/04/23 10:26:00.4    -218   -276      9    352    353 218.3   1.6  34120  288.91 0855.25
2009/04/23 10:26:00.5    -285   -334     22    440    441 220.5   2.9  34124  288.95 0855.25
2009/04/23 10:26:00.6    -272   -490    -92    561    569 209.0  -9.4  34102  288.58 0855.25
2009/04/23 10:26:00.7    -270   -396   -114    480    494 214.3 -13.4  34104  288.62 0855.25
2009/04/23 10:26:00.8    -261   -322   -115    415    430 219.1 -20.1  34116  288.83 0855.21
2009/04/23 10:26:00.9    -313   -313    -48    444    447 225.0  -6.2  34118  288.87 0855.21
2009/04/23 10:26:01.0    -179   -302    -60    351    357 210.7  -9.7  34124  288.96 0855.21
2009/04/23 10:26:01.1    -208   -311   -116    375    393 213.8 -17.2  34120  288.89 0855.21
2009/04/23 10:26:01.2    -106   -319     -7    337    338 198.4  -1.3  34122  288.93 0855.21
2009/04/23 10:26:01.3     -86   -345     -3    356    357 194.0  -0.6  34120  288.88 0855.21
2009/04/23 10:26:01.4     -27   -392     22    393    394 184.0   3.3  34120  288.89 0855.21
2009/04/23 10:26:01.5     -49   -354    -55    358    363 187.9  -8.8  34118  288.86 0855.21
2009/04/23 10:26:01.6      35   -356    -52    358    362 174.3  -8.4  34118  288.86 0855.21
2009/04/23 10:26:01.7     140   -397     17    422    423 160.5   2.3  34112  288.75 0855.21
2009/04/23 10:26:01.8      65   -446   -104    451    463 171.7 -13.0  34112  288.75 0855.21
2009/04/23 10:26:01.9     103   -313    119    330    351 161.7  19.9  34110  288.74 0855.21
2009/04/23 10:26:02.0      87   -375    120    386    405 166.9  17.3  34104  288.62 0855.21
2009/04/23 10:26:02.1      33   -404    126    406    426 175.2  17.3  34106  288.65 0855.21
2009/04/23 10:26:02.2      41   -439     63    442    447 174.6   8.2  34098  288.51 0855.21
2009/04/23 10:26:02.3      13   -441    170    442    473 178.3  22.1  34098  288.53 0855.21
2009/04/23 10:26:02.4    -116   -358    168    377    412 197.9  25.7  34104  288.62 0855.21
2009/04/23 10:26:02.5    -119   -312    209    335    394 200.9  35.0  34096  288.49 0855.21
2009/04/23 10:26:02.6    -198   -456    170    498    527 203.5  18.9  34108  288.68 0855.21
2009/04/23 10:26:02.7    -151   -376    157    406    435 201.9  22.2  34106  288.65 0855.21
2009/04/23 10:26:02.8    -132   -409    183    430    467 197.9  24.3  34100  288.55 0855.19
2009/04/23 10:26:02.9       6   -313    153    314    349 178.9  27.8  34106  288.67 0855.19
2009/04/23 10:26:03.0     -14   -160    125    161    203 185.1  41.7  34108  288.69 0855.19
2009/04/23 10:26:03.1      92   -172    128    196    234 151.7  35.7  34106  288.65 0855.19
2009/04/23 10:26:03.2     133   -168    120    215    246 141.7  31.6  34096  288.48 0855.19
2009/04/23 10:26:03.3       6   -120    105    121    160 176.9  45.6  34098  288.52 0855.19
2009/04/23 10:26:03.4       9    -28    190     30    192 161.3  90.0  34112  288.75 0855.19
2009/04/23 10:26:03.5       3     -8    140      9    140 154.6  90.0  34116  288.82 0855.19
2009/04/23 10:26:03.6     -21     33    186     40    190 327.5  88.8  34116  288.82 0855.19
2009/04/23 10:26:03.7     134    -44    231    142    271 108.2  65.4  34118  288.87 0855.19
2009/04/23 10:26:03.8      59   -208    152    217    264 164.2  38.6  34106  288.65 0855.19
2009/04/23 10:26:03.9     124   -167    160    209    263 143.3  41.2  34102  288.58 0855.19
2009/04/23 10:26:04.0     -11    -83    140     84    163 188.0  66.2  34118  288.86 0855.19
2009/04/23 10:26:04.1    -131   -415    235    436    495 197.6  30.8  34104  288.64 0855.19
2009/04/23 10:26:04.2    -161   -343    233    380    445 205.2  34.4  34104  288.63 0855.19
2009/04/23 10:26:04.3    -141   -208    169    252    303 214.1  37.0  34100  288.56 0855.19
2009/04/23 10:26:04.4     -37    -70    154     80    173 208.1  70.4  34108  288.70 0855.19
2009/04/23 10:26:04.5    -125   -235    107    267    287 208.1  23.0  34106  288.65 0855.19
2009/04/23 10:26:04.6    -174   -273    142    324    353 212.5  25.2  34104  288.64 0855.19
2009/04/23 10:26:04.7    -366   -146     -7    395    396 248.2  -1.1  34110  288.74 0855.19
2009/04/23 10:26:04.8    -373   -149    -59    402    407 248.2  -8.4  34102  288.60 0855.19
2009/04/23 10:26:04.9    -280   -200    144    345    373 234.5  23.8  34100  288.57 0855.19
2009/04/23 10:26:05.0    -244   -150    187    287    342 238.4  36.0  34110  288.73 0855.19
2009/04/23 10:26:05.1    -442   -132     39    462    464 253.4   4.9  34126  289.00 0855.19
2009/04/23 10:26:05.2    -538    -51    -48    541    544 264.6  -5.1  34116  288.82 0855.19
2009/04/23 10:26:05.3    -413   -131   -103    434    447 252.3 -13.4  34110  288.72 0855.19
2009/04/23 10:26:05.4    -397   -252   -108    471    484 237.6 -13.0  34116  288.83 0855.19
2009/04/23 10:26:05.5    -469   -449    108    650    659 226.2   9.5  34106  288.67 0855.19
2009/04/23 10:26:05.6    -308   -542    199    624    655 209.6  17.7  34110  288.72 0855.19
2009/04/23 10:26:05.7     -65   -594    205    598    633 186.3  18.9  34110  288.71 0855.19
2009/04/23 10:26:05.8     -75   -442    291    449    535 189.7  35.9  34120  288.88 0855.20
2009/04/23 10:26:05.9     -27   -420    341    421    541 183.8  43.3  34104  288.62 0855.20
2009/04/23 10:26:06.0     -67   -497    252    502    561 187.7  28.7  34102  288.60 0855.20
2009/04/23 10:26:06.1     -65   -405    232    411    471 189.2  31.9  34104  288.63 0855.20
2009/04/23 10:26:06.2     148   -369    237    398    463 158.1  33.5  34104  288.61 0855.20
2009/04/23 10:26:06.3     147   -423    294    448    535 160.8  36.4  34102  288.59 0855.20
2009/04/23 10:26:06.4      16   -361    288    362    462 177.3  42.7  34100  288.55 0855.20
2009/04/23 10:26:06.5     185   -263    263    322    415 144.8  43.5  34112  288.77 0855.20
2009/04/23 10:26:06.6      88   -263    261    278    381 161.5  48.0  34108  288.69 0855.20
2009/04/23 10:26:06.7      83   -143    215    166    271 149.7  58.5  34104  288.61 0855.20
2009/04/23 10:26:06.8     130    -61    197    144    244 115.2  60.5  34110  288.74 0855.20
2009/04/23 10:26:06.9     -53    -53    195     75    208 225.0  78.2  34124  288.97 0855.20
2009/04/23 10:26:07.0      79   -357    336    366    496 167.4  47.5  34112  288.75 0855.20
2009/04/23 10:26:07.1       6   -267    275    268    383 178.6  50.8  34110  288.71 0855.20
2009/04/23 10:26:07.2      -8   -110    172    111    204 184.4  64.6  34120  288.89 0855.20
2009/04/23 10:26:07.3      21     51    130     56    141  22.7  75.0  34130  289.06 0855.20
2009/04/23 10:26:07.4     -33    -71    206     79    220 205.4  78.4  34122  288.94 0855.20
2009/04/23 10:26:07.5     -71   -140    214    158    266 207.1  60.3  34116  288.83 0855.20
2009/04/23 10:26:07.6     -73   -184    152    199    250 201.8  41.4  34112  288.75 0855.20
2009/04/23 10:26:07.7     -62   -131    105    146    179 205.3  39.5  34112  288.77 0855.20
2009/04/23 10:26:07.8      48   -144    123    152    195 161.5  43.3  34114  288.80 0855.22
2009/04/23 10:26:07.9     -68   -175    167    189    252 201.4  46.2  34120  288.88 0855.22
2009/04/23 10:26:08.0    -164   -269    110    316    335 211.4  19.2  34110  288.71 0855.22
2009/04/23 10:26:08.1     -94   -166    134    191    233 209.6  38.4  34094  288.47 0855.22
2009/04/23 10:26:08.2     -22   -226    195    228    300 185.6  44.9  34114  288.78 0855.22
2009/04/23 10:26:08.3     -39   -284    231    287    368 188.0  43.1  34112  288.77 0855.22
2009/04/23 10:26:08.4     -98   -243    247    263    360 202.1  48.0  34116  288.81 0855.22
2009/04/23 10:26:08.5    -152   -238    201    283    347 212.6  39.0  34116  288.83 0855.22
2009/04/23 10:26:08.6    -142   -203    302    248    390 215.0  56.5  34126  288.98 0855.22
2009/04/23 10:26:08.7     -56    -41    203     70    214 234.0  81.0  34124  288.97 0855.22
2009/04/23 10:26:08.8      63    -54    168     84    187 130.4  71.7  34120  288.91 0855.22
2009/04/23 10:26:08.9     -22   -100    144    103    177 192.5  60.6  34122  288.92 0855.22
2009/04/23 10:26:09.0     -20   -109     92    111    144 190.7  43.7  34122  288.92 0855.22
2009/04/23 10:26:09.1     -64    -51    146     82    167 231.4  68.3  34142  289.26 0855.22
2009/04/23 10:26:09.2    -180    -88     44    201    206 244.0  12.4  34134  289.13 0855.22
2009/04/23 10:26:09.3    -103   -217     72    241    252 205.5  16.8  34120  288.88 0855.22
2009/04/23 10:26:09.4    -109   -107    152    153    215 225.6  50.0  34124  288.97 0855.22
2009/04/23 10:26:09.5    -123    -58    179    137    225 244.7  58.5  34150  289.41 0855.22
2009/04/23 10:26:09.6    -125   -283    301    310    432 203.8  49.1  34136  289.16 0855.22
2009/04/23 10:26:09.7    -222   -221    191    314    367 225.1  34.2  34122  288.94 0855.23
2009/04/23 10:26:09.8    -104   -273    199    293    354 201.0  37.6  34122  288.93 0855.23
2009/04/23 10:26:09.9     -17   -226    173    227    285 184.5  41.6  34114  288.80 0855.23
2009/04/23 10:26:10.0     -14   -195    172    196    260 184.4  45.8  34116  288.83 0855.23
2009/04/23 10:26:10.1       2   -133    136    134    190 179.0  50.1  34114  288.80 0855.23
2009/04/23 10:26:10.2       0   -190    175    191    259 180.0  47.7  34116  288.81 0855.23
2009/04/23 10:26:10.3     -63   -204     70    214    226 197.2  18.1  34112  288.77 0855.23
2009/04/23 10:26:10.4     -79   -185    125    202    237 203.2  34.5  34112  288.75 0855.23
2009/04/23 10:26:10.5    -101   -171    140    199    243 210.7  38.5  34116  288.84 0855.23
2009/04/23 10:26:10.6    -175   -226    129    287    314 217.8  25.9  34114  288.80 0855.23
2009/04/23 10:26:10.7    -187   -218    -36    288    291 220.5  -7.2  34110  288.71 0855.23
2009/04/23 10:26:10.8    -188   -138    129    234    267 233.6  31.4  34112  288.76 0855.23
2009/04/23 10:26:10.9    -225   -154     31    273    275 235.6   6.5  34116  288.83 0855.23
2009/04/23 10:26:11.0    -206    -87     78    224    237 246.9  20.0  34116  288.83 0855.23
2009/04/23 10:26:11.1    -106   -167    131    199    238 212.5  36.5  34114  288.80 0855.23
2009/04/23 10:26:11.2     -26    -16    132     31    135 237.5  87.0  34134  289.13 0855.23
2009/04/23 10:26:11.3    -128   -133     93    185    207 223.9  28.5  34114  288.79 0855.23
2009/04/23 10:26:11.4    -113   -152    135    190    233 216.7  38.8  34114  288.79 0855.23
2009/04/23 10:26:11.5    -163   -163     69    231    242 224.9  16.6  34112  288.76 0855.23
2009/04/23 10:26:11.6    -135   -186     80    231    245 216.0  19.2  34114  288.78 0855.23
2009/04/23 10:26:11.7     -95   -146     29    175    178 213.2   9.5  34112  288.77 0855.22
2009/04/23 10:26:11.8    -105   -152    -28    186    189 214.7  -8.6  34110  288.74 0855.22
2009/04/23 10:26:11.9    -144   -229      2    271    272 212.3   0.5  34108  288.70 0855.22
2009/04/23 10:26:12.0     -65   -153    161    167    231 203.2  49.2  34116  288.84 0855.22
2009/04/23 10:26:12.1    -155    -83    104    176    204 241.8  33.5  34116  288.84 0855.22
2009/04/23 10:26:12.2    -156      0     -4    157    158 270.0  -1.6  34116  288.84 0855.22
2009/04/23 10:26:12.3    -135   -110    161    175    237 230.7  47.7  34120  288.91 0855.22
2009/04/23 10:26:12.4     -57   -162    120    172    209 199.4  38.4  34128  289.02 0855.22
2009/04/23 10:26:12.5    -361    -73   -101    369    383 258.5 -15.4  34136  289.16 0855.22
2009/04/23 10:26:12.6    -341   -151   -178    374    414 246.0 -31.7  34126  288.99 0855.22
2009/04/23 10:26:12.7    -434    -19     13    435    436 267.4   1.8  34146  289.33 0855.22
2009/04/23 10:26:12.8    -354   -158    121    388    407 245.9  17.3  34122  288.94 0855.22
2009/04/23 10:26:12.9    -371    -44    -24    374    375 263.2  -3.8  34150  289.40 0855.22
2009/04/23 10:26:13.0    -403    -62    -97    408    420 261.2 -13.4  34156  289.49 0855.22
2009/04/23 10:26:13.1    -351   -308     17    468    469 228.7   2.1  34156  289.49 0855.22
2009/04/23 10:26:13.2    -411   -196   -153    456    482 244.5 -18.6  34166  289.66 0855.22
2009/04/23 10:26:13.3    -494    -80   -158    501    526 260.8 -17.6  34154  289.47 0855.22
2009/04/23 10:26:13.4    -425    -92   -157    436    464 257.7 -19.8  34142  289.26 0855.22
2009/04/23 10:26:13.5    -547   -106   -241    558    607 259.0 -29.4  34140  289.24 0855.22
2009/04/23 10:26:13.6    -476     -4   -152    477    501 269.5 -17.7  34150  289.39 0855.22
2009/04/23 10:26:13.7    -487    -63   -109    492    505 262.6 -12.5  34146  289.35 0855.21
2009/04/23 10:26:13.8    -436    -81   -141    444    465 259.4 -22.8  34144  289.31 0855.21
2009/04/23 10:26:13.9    -388     56   -236    393    458 278.3 -38.2  34138  289.19 0855.21
2009/04/23 10:26:14.0    -350    -64   -131    356    379 259.5 -25.4  34144  289.30 0855.21
2009/04/23 10:26:14.2    -405     -6   -135    406    427 269.1 -23.8  34154  289.48 0855.21
2009/04/23 10:26:14.3    -500     52   -180    503    535 276.0 -19.7  34138  289.19 0855.21
2009/04/23 10:26:14.4    -431     14   -129    432    451 271.9 -16.6  34134  289.14 0855.21
2009/04/23 10:26:14.5    -406     22   -162    407    438 273.2 -27.4  34142  289.26 0855.21
2009/04/23 10:26:14.6    -381    123   -143    401    426 287.9 -19.7  34148  289.36 0855.21
2009/04/23 10:26:14.7    -460     20   -194    461    500 272.6 -28.6  34120  288.88 0855.21
2009/04/23 10:26:14.8    -452   -196   -178    493    524 246.5 -25.1  34120  288.90 0855.21
2009/04/23 10:26:14.9    -555   -150   -105    576    586 254.8 -10.4  34144  289.29 0855.21
2009/04/23 10:26:15.0    -533   -105   -177    544    572 258.8 -23.2  34126  288.99 0855.21
2009/04/23 10:26:15.1    -531   -249   -194    587    618 244.9 -23.7  34142  289.25 0855.21
2009/04/23 10:26:15.2    -508   -216   -200    553    588 246.9 -25.3  34128  289.02 0855.21
2009/04/23 10:26:15.3    -524   -380   -139    648    663 234.1 -12.2  34140  289.22 0855.21
2009/04/23 10:26:15.4    -536   -361   -186    647    674 236.1 -16.1  34130  289.07 0855.21
2009/04/23 10:26:15.5    -600   -302    -78    672    677 243.3  -6.7  34144  289.29 0855.21
2009/04/23 10:26:15.6    -472   -474    135    670    684 224.9  11.4  34134  289.12 0855.21
2009/04/23 10:26:15.7    -592   -399    -43    714    716 236.0  -3.5  34128  289.03 0855.21
2009/04/23 10:26:15.8    -128   -429     55    448    452 196.6   7.1  34132  289.11 0855.24
2009/04/23 10:26:15.9    -193   -461     25    500    501 202.7   2.9  34130  289.05 0855.24
2009/04/23 10:26:16.0    -213   -381      0    437    438 209.3   0.0  34120  288.90 0855.24
2009/04/23 10:26:16.1     -83   -461     76    469    476 190.2   9.2  34124  288.96 0855.24
2009/04/23 10:26:16.2    -219   -466    120    516    530 205.2  13.1  34118  288.85 0855.24
2009/04/23 10:26:16.3     -62   -573    135    577    593 186.3  13.2  34116  288.81 0855.24
2009/04/23 10:26:16.4    -121   -571     92    584    592 192.0   9.0  34120  288.88 0855.24
2009/04/23 10:26:16.5     -82   -523    110    530    542 189.0  11.8  34122  288.94 0855.24
2009/04/23 10:26:16.6       0   -550    195    551    585 180.0  19.5  34120  288.88 0855.24
2009/04/23 10:26:16.7    -118   -443    295    459    545 195.0  35.6  34110  288.74 0855.24
2009/04/23 10:26:16.8    -198   -440    208    483    525 204.3  24.6  34114  288.79 0855.24
2009/04/23 10:26:16.9    -242   -394    176    463    495 211.5  21.8  34118  288.86 0855.24
2009/04/23 10:26:17.0    -259   -316     89    409    419 219.4  12.3  34118  288.87 0855.24
2009/04/23 10:26:17.1    -257   -251    141    360    386 225.6  22.7  34116  288.84 0855.24
2009/04/23 10:26:17.2    -104   -142    200    177    267 216.1  54.2  34120  288.90 0855.24
2009/04/23 10:26:17.3     -25   -328    282    330    434 184.5  44.9  34120  288.89 0855.24
2009/04/23 10:26:17.4    -155   -459    214    485    530 198.7  25.2  34116  288.81 0855.24
2009/04/23 10:26:17.5    -222   -477    217    527    569 205.0  23.7  34122  288.92 0855.24
2009/04/23 10:26:17.6    -231   -357    139    426    449 213.0  18.1  34114  288.78 0855.24
2009/04/23 10:26:17.7    -211   -333    132    395    417 212.3  18.6  34116  288.83 0855.24
2009/04/23 10:26:17.8     -76   -298    189    308    361 194.3  34.4  34116  288.84 0855.21
2009/04/23 10:26:17.9    -193   -252    215    318    383 217.4  37.3  34120  288.91 0855.21
2009/04/23 10:26:18.0    -223   -269    181    350    394 219.6  29.4  34118  288.86 0855.21
2009/04/23 10:26:18.1    -312   -220    171    383    419 234.8  25.8  34128  289.04 0855.21
2009/04/23 10:26:18.2    -379   -267      8    464    465 234.8   1.0  34146  289.34 0855.21
2009/04/23 10:26:18.3    -399   -289     -7    493    494 234.1  -0.9  34152  289.42 0855.21
2009/04/23 10:26:18.4    -417   -316      1    524    525 232.8   0.2  34154  289.46 0855.21
2009/04/23 10:26:18.5    -411   -290     24    503    504 234.8   2.8  34148  289.37 0855.21
2009/04/23 10:26:18.6    -432   -238    -50    494    497 241.2  -5.8  34134  289.12 0855.21
2009/04/23 10:26:18.7    -428   -185    -80    467    475 246.6  -9.8  34134  289.12 0855.21
2009/04/23 10:26:18.8    -384   -220    -24    443    444 240.2  -3.2  34142  289.27 0855.21
2009/04/23 10:26:18.9    -435   -179    -68    471    476 247.6  -8.3  34146  289.32 0855.21
2009/04/23 10:26:19.0    -490   -188      6    525    526 249.0   0.7  34142  289.26 0855.21
2009/04/23 10:26:19.1    -490    -68   -140    495    515 262.0 -15.8  34152  289.42 0855.21
2009/04/23 10:26:19.2    -347   -183    173    393    429 242.2  25.2  34128  289.04 0855.21
2009/04/23 10:26:19.3    -363    -70     79    370    379 259.0  12.2  34126  288.99 0855.21
2009/04/23 10:26:19.4    -387    -70    138    394    418 259.6  19.3  34136  289.16 0855.21
2009/04/23 10:26:19.5    -338   -127    101    362    377 249.3  15.7  34126  289.01 0855.21
2009/04/23 10:26:19.6    -273   -198     14    338    339 234.0   2.5  34122  288.94 0855.21
2009/04/23 10:26:19.7    -223   -354     20    419    420 212.2   2.8  34126  289.00 0855.21
2009/04/23 10:26:19.8    -138   -303    120    334    354 204.5  20.7  34132  289.11 0855.21
2009/04/23 10:26:19.9    -255   -176     78    311    321 235.4  14.2  34152  289.42 0855.21
2009/04/23 10:26:20.0    -360   -209     21    417    418 239.9   2.9  34152  289.44 0855.21
2009/04/23 10:26:20.1    -247    -16     -3    248    249 266.1  -0.7  34156  289.51 0855.21
2009/04/23 10:26:20.2    -282   -133     93    312    326 244.7  16.6  34162  289.59 0855.21
2009/04/23 10:26:20.3     -85   -255    123    269    295 198.5  26.2  34128  289.03 0855.21
2009/04/23 10:26:20.4      25   -230    120    232    261 173.8  29.5  34134  289.14 0855.21
2009/04/23 10:26:20.5      21   -270    113    271    293 175.5  24.1  34124  288.97 0855.21
2009/04/23 10:26:20.6       7   -165    113    166    200 177.3  37.6  34122  288.94 0855.21
2009/04/23 10:26:20.7      19    -93    121     95    153 168.4  57.9  34130  289.06 0855.21
2009/04/23 10:26:20.8      32   -150    153    154    217 168.0  50.0  34116  288.84 0855.21
2009/04/23 10:26:20.9       3    -70    139     71    156 177.3  71.1  34132  289.09 0855.21
2009/04/23 10:26:21.0      58      7    145     59    156  83.0  76.6  34136  289.16 0855.21
2009/04/23 10:26:21.1     -49     31    148     59    159 302.5  77.4  34136  289.18 0855.21
2009/04/23 10:26:21.2     -64     41    134     77    154 302.5  67.2  34136  289.16 0855.21
2009/04/23 10:26:21.3      71     59    154     93    179  50.5  66.2  34130  289.08 0855.21
2009/04/23 10:26:21.4      63    -45    168     78    185 125.9  73.2  34134  289.14 0855.21
2009/04/23 10:26:21.5      15    -16    130     22    131 136.8  90.0  34138  289.21 0855.21
2009/04/23 10:26:21.6     117   -124    125    171    211 136.8  39.7  34124  288.96 0855.21
2009/04/23 10:26:21.7      80   -161    104    180    207 153.5  32.9  34124  288.96 0855.21
2009/04/23 10:26:21.8      65   -167     76    180    195 158.8  24.3  34122  288.94 0855.22
2009/04/23 10:26:21.9     -50   -252     55    258    264 191.3  12.1  34122  288.93 0855.22
2009/04/23 10:26:22.0    -106   -265     -3    286    287 201.8  -0.7  34120  288.88 0855.22
2009/04/23 10:26:22.1    -163   -327    -28    366    367 206.5  -4.4  34116  288.84 0855.22
2009/04/23 10:26:22.2    -128   -260    114    291    312 206.3  22.4  34120  288.90 0855.22
2009/04/23 10:26:22.3     -41   -261    101    265    283 189.1  21.7  34118  288.85 0855.22
2009/04/23 10:26:22.4     -98   -271     61    289    296 200.0  12.0  34120  288.90 0855.22
2009/04/23 10:26:22.5     -34   -324    109    326    344 186.1  18.6  34120  288.88 0855.22
2009/04/23 10:26:22.6    -155   -373    109    404    419 202.6  15.2  34120  288.89 0855.22
2009/04/23 10:26:22.7    -213   -408     52    461    464 207.6   6.5  34120  288.90 0855.22
2009/04/23 10:26:22.8    -124   -301    114    326    346 202.5  19.3  34110  288.74 0855.22
2009/04/23 10:26:22.9     -52   -238    151    244    286 192.5  34.8  34118  288.85 0855.22
2009/04/23 10:26:23.0     -42   -249    235    253    345 189.6  47.8  34122  288.93 0855.22
2009/04/23 10:26:23.1     -38   -302    214    305    372 187.2  38.6  34120  288.89 0855.22
2009/04/23 10:26:23.2     -99   -263    226    282    361 200.7  42.9  34120  288.91 0855.22
2009/04/23 10:26:23.3     -97   -293    194    309    364 198.3  35.2  34126  288.99 0855.22
2009/04/23 10:26:23.4    -110   -223    237    249    343 206.3  48.5  34120  288.88 0855.22
2009/04/23 10:26:23.5     -72   -270    172    280    328 195.1  34.6  34120  288.88 0855.22
2009/04/23 10:26:23.6      39   -160    263    165    310 166.0  64.7  34138  289.19 0855.22
2009/04/23 10:26:23.7     110   -126    214    168    272 138.8  57.9  34128  289.02 0855.22
2009/04/23 10:26:23.8     -27   -356    225    357    421 184.4  35.5  34112  288.77 0855.23
2009/04/23 10:26:23.9    -131   -362    212    386    440 199.9  31.3  34116  288.83 0855.23
2009/04/23 10:26:24.0    -188   -302    206    356    411 211.9  32.6  34110  288.74 0855.23
2009/04/23 10:26:24.1     -17   -245    276    246    369 184.0  53.9  34122  288.94 0855.23
2009/04/23 10:26:24.2     -53   -274    278    280    394 191.1  50.0  34124  288.96 0855.23
2009/04/23 10:26:24.3     -66   -329    239    336    412 191.3  39.1  34112  288.76 0855.23
2009/04/23 10:26:24.4     -19   -407    275    408    492 182.8  37.2  34114  288.78 0855.23
2009/04/23 10:26:24.5      60   -443    301    448    539 172.2  37.2  34114  288.78 0855.23
2009/04/23 10:26:24.6      38   -406    280    408    494 174.6  37.8  34118  288.86 0855.23
2009/04/23 10:26:24.7      25   -361    250    362    439 176.0  37.8  34118  288.87 0855.23
2009/04/23 10:26:24.8     -23   -274    189    276    334 184.9  37.7  34114  288.80 0855.25
2009/04/23 10:26:24.9    -108   -283     12    304    305 201.0   2.3  34118  288.85 0855.25
2009/04/23 10:26:25.0     -84   -266    -47    280    284 197.6  -9.6  34116  288.83 0855.25
2009/04/23 10:26:25.1     -45   -261    -83    265    278 189.8 -17.6  34118  288.85 0855.25
2009/04/23 10:26:25.2     -33   -266    -38    269    272 187.2  -8.2  34120  288.88 0855.25
2009/04/23 10:26:25.3     -33   -241    -56    244    251 188.0 -12.9  34114  288.78 0855.25
2009/04/23 10:26:25.4      43   -128    143    136    197 161.3  51.6  34112  288.77 0855.25
2009/04/23 10:26:25.5      88   -100    155    134    204 138.6  54.6  34122  288.94 0855.25
2009/04/23 10:26:25.6     -17   -163     47    164    171 186.0  16.3  34120  288.91 0855.25
2009/04/23 10:26:25.7     -72   -146     32    163    167 206.3  11.1  34116  288.84 0855.25
2009/04/23 10:26:25.8    -165   -369   -119    405    423 204.1 -16.4  34116  288.83 0855.25
2009/04/23 10:26:25.9      22   -554    -85    555    562 177.7  -8.7  34116  288.82 0855.25
2009/04/23 10:26:26.0      -8   -532    -95    533    542 180.9 -10.1  34118  288.85 0855.25
2009/04/23 10:26:26.1     -98   -525     79    534    540 190.6   8.5  34118  288.87 0855.25
2009/04/23 10:26:26.2    -116   -368    115    386    403 197.5  16.6  34116  288.84 0855.25
2009/04/23 10:26:26.3     -80   -362     44    371    374 192.6   6.9  34120  288.89 0855.25
2009/04/23 10:26:26.4     -64   -268    100    276    294 193.4  19.9  34120  288.88 0855.25
2009/04/23 10:26:26.5      18   -204    132    205    243 174.9  35.6  34122  288.94 0855.25
2009/04/23 10:26:26.6     -80   -227    245    241    343 199.6  50.6  34122  288.92 0855.25
2009/04/23 10:26:26.7    -104   -315     87    332    344 198.4  14.7  34120  288.88 0855.25
2009/04/23 10:26:26.8     -82   -403     96    412    424 191.5  13.1  34116  288.83 0855.22
2009/04/23 10:26:26.9     -95   -471    126    481    498 191.5  14.7  34118  288.86 0855.22
2009/04/23 10:26:27.0     -33   -526     72    528    533 183.6   7.8  34120  288.91 0855.22
2009/04/23 10:26:27.1     -29   -470     18    471    472 183.6   2.2  34120  288.90 0855.22
2009/04/23 10:26:27.2      77   -420     60    428    433 169.5   8.0  34120  288.90 0855.22
2009/04/23 10:26:27.3     -10   -576     51    577    580 181.0   5.1  34122  288.92 0855.22
2009/04/23 10:26:27.4     -62   -431    -73    436    443 188.2  -9.6  34120  288.90 0855.22
2009/04/23 10:26:27.5    -131   -543     93    559    567 193.6   9.5  34120  288.89 0855.22
2009/04/23 10:26:27.6    -102   -373    115    387    404 195.3  16.6  34116  288.84 0855.22
2009/04/23 10:26:27.7     -18   -461     37    462    464 182.3   4.7  34122  288.92 0855.22
2009/04/23 10:26:27.8    -106   -459    -63    472    477 193.0  -7.7  34122  288.93 0855.22
2009/04/23 10:26:27.9     -43   -411     51    414    418 186.1   7.1  34116  288.82 0855.22
2009/04/23 10:26:28.0     -15   -284    118    285    308 183.1  23.6  34124  288.95 0855.22
2009/04/23 10:26:28.1      -4   -273    146    274    310 180.9  30.3  34122  288.92 0855.22
2009/04/23 10:26:28.2     -52   -254     50    260    265 191.6  11.0  34116  288.83 0855.22
2009/04/23 10:26:28.3    -144   -379     -6    406    407 200.9  -0.9  34108  288.70 0855.22
2009/04/23 10:26:28.4    -118   -389    102    407    420 197.0  14.2  34114  288.80 0855.22
2009/04/23 10:26:28.5     -33   -366    125    368    389 185.2  18.8  34110  288.72 0855.22
2009/04/23 10:26:28.6      13   -266    147    267    304 177.1  31.3  34108  288.68 0855.22
2009/04/23 10:26:28.7      -2   -178     85    179    198 180.9  27.3  34106  288.65 0855.22
2009/04/23 10:26:28.8     -13   -177     76    178    193 184.2  24.3  34108  288.70 0855.17
2009/04/23 10:26:28.9     -33   -304     67    306    314 186.2  12.4  34110  288.73 0855.17
2009/04/23 10:26:29.0      -3   -229    105    230    252 180.9  26.2  34108  288.68 0855.17
2009/04/23 10:26:29.1      15   -204     98    205    227 175.5  27.2  34112  288.77 0855.17
2009/04/23 10:26:29.2     -28   -135    138    139    195 192.0  50.0  34114  288.80 0855.17
2009/04/23 10:26:29.3     -51   -183    126    190    227 195.6  36.5  34110  288.74 0855.17
2009/04/23 10:26:29.4    -126   -275    159    303    342 204.7  30.0  34112  288.77 0855.17
2009/04/23 10:26:29.5      82   -305    206    316    377 164.9  36.2  34110  288.71 0855.17
2009/04/23 10:26:29.6      66   -330    142    337    365 168.7  24.2  34100  288.54 0855.17
2009/04/23 10:26:29.7     -25   -187     38    189    193 187.8  11.4  34104  288.62 0855.17
2009/04/23 10:26:29.8     150   -193     67    245    255 142.2  15.3  34108  288.68 0855.17
2009/04/23 10:26:29.9     106   -192    -23    220    222 151.1  -6.0  34104  288.62 0855.17
2009/04/23 10:26:30.0     133   -196    106    237    259 145.8  25.7  34104  288.63 0855.17
2009/04/23 10:26:30.1      -4   -263    131    264    294 180.9  28.2  34110  288.71 0855.17
2009/04/23 10:26:30.2     134   -243     75    278    289 151.0  15.2  34108  288.70 0855.17
2009/04/23 10:26:30.3     -23   -215    116    217    246 186.2  30.3  34108  288.70 0855.17
2009/04/23 10:26:30.4     -29   -115     51    119    129 194.3  25.1  34108  288.69 0855.17
2009/04/23 10:26:30.5       8   -166    136    167    215 177.1  43.7  34108  288.70 0855.17
2009/04/23 10:26:30.6     -58   -175    161    185    245 198.5  45.6  34106  288.65 0855.17
2009/04/23 10:26:30.7    -150    -83     58    172    182 240.9  18.9  34108  288.69 0855.17
2009/04/23 10:26:30.8    -149    -54     35    159    163 250.0  12.6  34108  288.70 0855.19
2009/04/23 10:26:30.9     -96    -10     56     97    112 263.9  32.4  34114  288.79 0855.19
2009/04/23 10:26:31.0    -138    -50     67    147    161 250.1  26.2  34110  288.74 0855.19
2009/04/23 10:26:31.1    -191     25     86    193    211 277.7  25.3  34116  288.82 0855.19
2009/04/23 10:26:31.2     -76    -35     16     84     86 245.2  11.1  34118  288.86 0855.19
2009/04/23 10:26:31.3     -24    -50     42     56     70 206.3  40.7  34118  288.87 0855.19
2009/04/23 10:26:31.4     -95    -84     27    127    130 228.6  12.2  34116  288.84 0855.19
2009/04/23 10:26:31.5     -61    -86     83    106    134 215.6  41.7  34116  288.84 0855.19
2009/04/23 10:26:31.6       1   -127     70    128    145 179.1  31.4  34116  288.84 0855.19
2009/04/23 10:26:31.7      -2   -123     57    124    136 181.0  26.6  34114  288.80 0855.19
2009/04/23 10:26:31.8      77   -139     20    159    161 151.0   7.2  34112  288.75 0855.19
2009/04/23 10:26:31.9      79   -142     25    163    165 151.0   8.8  34110  288.72 0855.19
2009/04/23 10:26:32.0      18    -78     85     81    117 167.1  51.2  34112  288.75 0855.19
2009/04/23 10:26:32.1     -92    -98     84    135    159 223.2  34.8  34114  288.79 0855.19
2009/04/23 10:26:32.2     -18    -86     70     88    112 192.0  43.7  34120  288.89 0855.19
2009/04/23 10:26:32.3      -3      3     82      5     82 316.6  90.0  34128  289.02 0855.19
2009/04/23 10:26:32.4     -63     26    114     69    133 292.6  65.7  34134  289.13 0855.19
2009/04/23 10:26:32.5     -71      5    125     72    144 274.4  67.2  34138  289.21 0855.19
2009/04/23 10:26:32.6     -82     41    110     92    143 296.6  55.8  34128  289.02 0855.19
2009/04/23 10:26:32.7    -230     75     86    243    259 288.2  19.6  34112  288.75 0855.19
2009/04/23 10:26:32.8    -294    182    109    347    364 301.8  17.5  34116  288.82 0855.22
2009/04/23 10:26:32.9    -340     66     21    347    348 281.1   3.6  34120  288.91 0855.22
2009/04/23 10:26:33.0    -449     35     88    451    460 274.5  11.1  34126  288.99 0855.22
2009/04/23 10:26:33.1    -392    103    173    406    441 284.8  24.6  34114  288.80 0855.22
2009/04/23 10:26:33.2    -377     59    183    382    423 279.0  27.3  34114  288.78 0855.22
2009/04/23 10:26:33.3    -323    -68    117    331    351 258.1  20.3  34128  289.03 0855.22
2009/04/23 10:26:33.4    -336   -155    151    371    400 245.2  23.5  34172  289.76 0855.22
2009/04/23 10:26:33.5    -371     -7     72    372    379 268.8  11.0  34136  289.15 0855.22
2009/04/23 10:26:33.6    -395    -50     85    399    409 262.8  12.1  34140  289.22 0855.22
2009/04/23 10:26:33.7    -295   -238    114    380    397 231.1  16.7  34130  289.08 0855.22
2009/04/23 10:26:33.8    -372   -128    163    394    426 251.0  23.7  34124  288.97 0855.22
2009/04/23 10:26:33.9    -313   -197    117    370    389 237.8  17.5  34116  288.81 0855.22
2009/04/23 10:26:34.0    -159   -361    206    395    445 203.8  29.6  34110  288.73 0855.22
2009/04/23 10:26:34.1    -321   -386    123    503    518 219.8  13.8  34120  288.88 0855.22
2009/04/23 10:26:34.2    -187   -510    217    544    585 200.2  23.0  34110  288.71 0855.22
2009/04/23 10:26:34.3     -62   -495    172    499    528 187.2  19.1  34114  288.78 0855.22
2009/04/23 10:26:34.4    -114   -380    107    397    412 196.8  15.2  34136  289.16 0855.22
2009/04/23 10:26:34.5    -254   -312     77    403    411 219.2  10.8  34162  289.60 0855.22
2009/04/23 10:26:34.6    -379   -124    -35    399    401 251.8  -5.1  34154  289.47 0855.22
2009/04/23 10:26:34.7    -287   -269     -1    394    395 226.8  -0.3  34156  289.52 0855.22
2009/04/23 10:26:34.8    -306   -296    -35    426    428 226.0  -4.8  34136  289.17 0855.25
2009/04/23 10:26:34.9    -397   -288   -136    491    510 234.1 -15.5  34116  288.81 0855.25
2009/04/23 10:26:35.0    -418   -161   -110    448    462 248.9 -13.8  34118  288.87 0855.25
2009/04/23 10:26:35.1    -298   -248    -17    389    390 230.2  -2.5  34116  288.82 0855.25
2009/04/23 10:26:35.2    -328   -235    -15    404    405 234.3  -2.2  34122  288.94 0855.25
2009/04/23 10:26:35.3    -407   -234    -59    470    474 240.1  -7.2  34116  288.83 0855.25
2009/04/23 10:26:35.4    -372   -330    -10    498    499 228.4  -1.3  34120  288.91 0855.25
2009/04/23 10:26:35.5    -348    -26    -25    349    350 265.6  -4.1  34116  288.81 0855.25
2009/04/23 10:26:35.6    -354     11    -18    355    356 271.9  -3.0  34128  289.04 0855.25
2009/04/23 10:26:35.7    -117   -279    123    303    327 202.7  23.4  34122  288.93 0855.25
2009/04/23 10:26:35.8     -46   -268    127    273    301 189.8  27.0  34118  288.87 0855.25
2009/04/23 10:26:35.9    -168   -255    145    306    338 213.4  27.2  34128  289.03 0855.25
2009/04/23 10:26:36.0    -134   -350    312    375    487 201.0  44.0  34154  289.48 0855.25
2009/04/23 10:26:36.1      17   -566    245    567    617 178.2  25.1  34116  288.83 0855.25
2009/04/23 10:26:36.2      54   -646    135    649    664 175.2  11.8  34110  288.72 0855.25
2009/04/23 10:26:36.3     104   -495    157    506    530 168.1  17.3  34114  288.80 0855.25
2009/04/23 10:26:36.4     -63   -381    208    387    439 189.4  30.6  34126  288.99 0855.25
2009/04/23 10:26:36.5     -27   -345    143    347    375 184.5  23.6  34114  288.79 0855.25
2009/04/23 10:26:36.6      83   -465    199    473    513 169.8  24.2  34112  288.76 0855.25
2009/04/23 10:26:36.7     -64   -460    244    465    525 188.0  29.9  34114  288.78 0855.25
2009/04/23 10:26:36.8      11   -512    277    513    583 178.7  30.8  34108  288.69 0855.28
2009/04/23 10:26:36.9     -12   -448    310    449    545 181.6  37.9  34110  288.71 0855.28
2009/04/23 10:26:37.0       3   -410    315    411    517 179.5  41.4  34112  288.76 0855.28
2009/04/23 10:26:37.1    -111   -355    254    373    451 197.4  37.6  34126  288.99 0855.28
2009/04/23 10:26:37.2      -7   -406    155    407    435 181.0  21.8  34110  288.73 0855.28
2009/04/23 10:26:37.3      42   -439    137    442    463 174.4  17.3  34110  288.73 0855.28
2009/04/23 10:26:37.4      64   -414    153    419    446 171.2  20.9  34108  288.70 0855.28
2009/04/23 10:26:37.5      85   -381    184    391    432 167.3  27.1  34112  288.75 0855.28
2009/04/23 10:26:37.6      49   -319    176    323    367 171.1  30.9  34116  288.81 0855.28
2009/04/23 10:26:37.7     -72   -218    250    230    339 198.5  52.6  34124  288.97 0855.28
2009/04/23 10:26:37.8     -10   -223    111    224    249 182.7  28.2  34118  288.87 0855.28
2009/04/23 10:26:37.9     -25   -276     43    278    282 185.3   8.9  34118  288.85 0855.28
2009/04/23 10:26:38.0       3   -252     65    253    262 179.1  14.5  34114  288.80 0855.28
2009/04/23 10:26:38.1       0   -215     66    216    227 180.2  17.1  34116  288.84 0855.28
2009/04/23 10:26:38.2      33   -187    108    191    219 169.8  31.6  34110  288.74 0855.28
2009/04/23 10:26:38.3     135    -59     38    148    153 113.5  14.7  34112  288.77 0855.28
2009/04/23 10:26:38.4     102    -13     27    103    107  97.5  14.7  34116  288.84 0855.28
2009/04/23 10:26:38.5     106     15     -2    108    109  81.6  -1.3  34114  288.79 0855.28
2009/04/23 10:26:38.6     120    -23     82    123    147 101.0  36.5  34114  288.79 0855.28
2009/04/23 10:26:38.7      57    -92     88    109    140 148.4  43.7  34116  288.82 0855.30
2009/04/23 10:26:38.8      48   -146    139    154    207 161.5  46.6  34110  288.74 0855.30
2009/04/23 10:26:38.9      45   -148    121    155    196 163.1  42.0  34112  288.77 0855.30
2009/04/23 10:26:39.0      32   -122     98    127    160 165.3  41.7  34108  288.69 0855.30
2009/04/23 10:26:39.1      52   -134    153    145    210 158.6  51.6  34116  288.84 0855.30
2009/04/23 10:26:39.2     120   -177     75    215    228 145.8  19.4  34110  288.74 0855.30
2009/04/23 10:26:39.3       5   -236    125    237    267 178.6  30.2  34110  288.71 0855.30
2009/04/23 10:26:39.4      -7   -201    222    202    300 182.2  53.0  34116  288.81 0855.30
2009/04/23 10:26:39.5      73   -136    186    155    242 151.9  56.1  34112  288.77 0855.30
2009/04/23 10:26:39.6     135    -86    158    161    225 122.5  49.8  34118  288.87 0855.30
2009/04/23 10:26:39.7     197    -84     79    215    229 113.1  21.0  34114  288.79 0855.30
2009/04/23 10:26:39.8     252    -26     13    254    255  96.1   3.1  34112  288.76 0855.30
2009/04/23 10:26:39.9     266    -33    -29    269    271  97.2  -6.2  34110  288.73 0855.30
2009/04/23 10:26:40.0     205     22    -74    207    220  83.8 -19.7  34110  288.74
    263     57    -24    270    272  77.6  -5.2  34112  288.76
    283     68    -95    292    308  76.5 -18.1  34112  288.76
    302     61    -27    309    311  78.6  -5.1  34116  288.83
    303     31    -21    305    306  84.1  -4.1  34106  288.66 0855.30
2009/04/23 10:26:40.6       2   -154    189    155    244 179.0  56.4  34110  288.74 0855.30
2009/04/23 10:26:40.8     129    -50    135    139    193 111.3  49.4  34116  288.84 0855.29
2009/04/23 10:26:40.9     203    -68    191    215    287 108.6  46.2  34124  288.97 0855.29
2009/04/23 10:26:40.9     117     40     91    124    153  70.9  39.7  34118  288.86 0855.29
2009/04/23 10:26:41.0     124    -54     85    136    160 113.5  35.0  34114  288.80 0855.29
2009/04/23 10:26:41.1      95   -122     57    155    165 142.2  20.7  34114  288.79 0855.29
2009/04/23 10:26:41.2     110   -111     71    157    172 135.1  26.2  34116  288.84 0855.29
2009/04/23 10:26:41.3     -21   -121     79    123    146 190.2  35.6  34110  288.72 0855.29
2009/04/23 10:26:41.4     -32    -59     71     68     98 209.0  50.7  34122  288.94 0855.29
2009/04/23 10:26:41.6     -23    -30     78     38     86 217.8  72.4  34126  288.99 0855.29
2009/04/23 10:26:41.7      24     19     98     31    102  52.2  81.8  34128  289.02 0855.29
2009/04/23 10:26:41.8      58     23     84     63    105  68.3  60.0  34120  288.89 0855.29
2009/04/23 10:26:41.9      24    -24     74     34     81 135.0  74.0  34124  288.97 0855.29
2009/04/23 10:26:42.0     -61    -51     90     80    120 230.4  53.7  34120  288.89 0855.29
2009/04/23 10:26:42.1      -6    -26    107     27    110 193.4  85.9  34124  288.96 0855.29
2009/04/23 10:26:42.2      -2     37     85     38     93 355.6  74.5  34130  289.08 0855.29
2009/04/23 10:26:42.3      28     50    109     58    123  29.9  69.8  34130  289.06 0855.29
2009/04/23 10:26:42.4      36     36    111     52    122  45.0  73.5  34132  289.09 0855.29
2009/04/23 10:26:42.5      19     44     91     49    103  23.6  68.9  34128  289.02 0855.29
2009/04/23 10:26:42.6      55     78     53     96    109  35.6  31.4  34124  288.96 0855.29
2009/04/23 10:26:42.7      19     59     53     63     82  18.5  44.8  34130  289.06 0855.29
2009/04/23 10:26:42.8      12     45     43     47     63  16.0  47.9  34130  289.06 0855.29
2009/04/23 10:26:42.9      23     45     64     51     81  27.2  57.5  34124  288.97 0855.29
2009/04/23 10:26:43.0      43     14     91     46    101  71.8  71.4  34126  288.99 0855.29
2009/04/23 10:26:43.1      99    -43    116    108    158 113.5  52.2  34124  288.97 0855.29
2009/04/23 10:26:43.2     138    -23     73    141    158  99.7  29.5  34124  288.97 0855.29
2009/04/23 10:26:43.3     114    -23     77    117    140 101.5  36.5  34126  288.99 0855.29
2009/04/23 10:26:43.4      99    -27     96    103    140 105.5  47.9  34130  289.06 0855.29
2009/04/23 10:26:43.5      52     33     71     62     94  57.6  54.3  34136  289.16 0855.29
2009/04/23 10:26:43.6     -32     -6     69     33     76 258.5  72.9  34138  289.21 0855.29
2009/04/23 10:26:43.7     -42    -50    111     66    129 219.6  66.7  34134  289.14 0855.29
2009/04/23 10:26:43.8    -132    -44     68    140    155 251.4  27.3  34128  289.02 0855.29
2009/04/23 10:26:43.9    -117    -15     70    118    137 262.5  33.5  34128  289.02 0855.29
2009/04/23 10:26:44.0     -78     -6     26     79     84 265.6  18.4  34132  289.09 0855.29
2009/04/23 10:26:44.1    -100    -30     17    105    107 253.2   9.5  34132  289.09 0855.29
2009/04/23 10:26:44.2     -54     29     25     62     66 298.8  23.0  34140  289.23 0855.29
2009/04/23 10:26:44.3      13     67     36     69     77  11.5  29.3  34132  289.11 0855.29
2009/04/23 10:26:44.4     -18     67     12     70     72 344.9  10.1  34132  289.11 0855.29
2009/04/23 10:26:44.5     -56     41     31     70     76 305.9  25.1  34130  289.06 0855.29
2009/04/23 10:26:44.6      37     45    111     59    125  39.7  69.8  34132  289.11 0855.29
2009/04/23 10:26:44.7     -29    -90    139     95    168 198.3  62.6  34132  289.09 0855.29
2009/04/23 10:26:44.8      40    -45     94     61    112 138.6  64.6  34142  289.28 0855.26
2009/04/23 10:26:44.9       0   -162     94    163    188 180.2  32.7  34126  289.01 0855.26
2009/04/23 10:26:45.0      13   -185     81    186    202 175.8  25.1  34136  289.16 0855.26
2009/04/23 10:26:45.1      -8    -26     25     28     37 198.3  47.9  34148  289.36 0855.26
2009/04/23 10:26:45.2     -94     21    -12     97     98 282.8  -7.2  34150  289.40 0855.26
2009/04/23 10:26:45.3    -123     17    -13    125    126 277.9  -6.2  34148  289.36 0855.26
2009/04/23 10:26:45.4    -126     43    -13    134    135 289.1  -5.6  34142  289.28 0855.26
2009/04/23 10:26:45.5     -84     85    -25    120    123 315.3 -11.9  34144  289.30 0855.26
2009/04/23 10:26:45.6     -55     97    -33    112    116 330.1 -21.7  34144  289.30 0855.26
2009/04/23 10:26:45.7      44     93     -4    103    104  25.4  -2.2  34138  289.21 0855.26
2009/04/23 10:26:45.8      52     90     30    105    110  30.3  16.3  34138  289.21 0855.25
2009/04/23 10:26:45.9      61     73      3     96     97  40.1   1.8  34144  289.31 0855.25
2009/04/23 10:26:46.0      70     52    -25     88     92  53.1 -16.0  34148  289.38 0855.25
2009/04/23 10:26:46.1      52     28    -28     60     66  62.0 -31.5  34150  289.41 0855.25
2009/04/23 10:26:46.2      62      0    -28     63     68  89.2 -29.5  34158  289.53 0855.25
2009/04/23 10:26:46.3      34     21    -39     41     56  58.5 -54.4  34158  289.53 0855.25
2009/04/23 10:26:46.4      31     91    -65     97    116  18.7 -40.9  34154  289.46 0855.25
2009/04/23 10:26:46.5      36    110      5    116    117  18.3   2.9  34152  289.43 0855.25
2009/04/23 10:26:46.6     -10    121     24    122    125 355.1  11.1  34152  289.45 0855.25
2009/04/23 10:26:46.7     -57    106     30    121    125 331.9  14.3  34150  289.41 0855.25
2009/04/23 10:26:46.8     -89     78     14    119    120 311.3   6.9  34148  289.36 0855.25
2009/04/23 10:26:46.9    -114     73     39    136    142 302.5  16.3  34142  289.28 0855.25
2009/04/23 10:26:47.0    -128     76     22    149    151 300.7   8.5  34144  289.31 0855.25
2009/04/23 10:26:47.1    -121    -27     22    125    127 257.2  10.1  34144  289.30 0855.25
2009/04/23 10:26:47.2    -116    -73     13    138    139 237.6   5.4  34148  289.36 0855.25
2009/04/23 10:26:47.3    -105    -76    -39    130    136 234.0 -17.0  34148  289.38 0855.25
2009/04/23 10:26:47.4     -99    -44    -14    109    110 246.0  -7.7  34158  289.53 0855.25
2009/04/23 10:26:47.5     -66    -48     34     82     88 234.1  23.6  34154  289.46 0855.25
2009/04/23 10:26:47.6     -66    -19     51     69     85 253.2  40.1  34146  289.35 0855.25
2009/04/23 10:26:47.7      29    -46     19     55     59 147.5  19.4  34146  289.35 0855.25
2009/04/23 10:26:47.8      57    -72    -28     92     97 141.7 -17.0  34150  289.40 0855.25
2009/04/23 10:26:47.9      82      3     31     83     88  87.9  21.0  34152  289.45 0855.25
2009/04/23 10:26:48.0     134    -22     46    136    144  99.6  18.9  34144  289.31 0855.25
2009/04/23 10:26:48.1     128    -18     10    130    131  98.0   4.4  34132  289.09 0855.25
2009/04/23 10:26:48.2     130    -71     77    149    167 118.8  29.5  34132  289.09 0855.25
2009/04/23 10:26:48.3     111    -86     49    141    150 127.7  19.4  34142  289.26 0855.25
2009/04/23 10:26:48.4      51    -64     55     83     99 141.3  36.5  34138  289.21 0855.25
2009/04/23 10:26:48.5      66    -73     93     99    135 137.7  48.5  34138  289.19 0855.25
2009/04/23 10:26:48.6      27    -79     79     84    115 160.8  48.0  34136  289.18 0855.25
2009/04/23 10:26:48.7      42    -80     60     91    109 151.9  36.0  34138  289.21 0855.25
2009/04/23 10:26:48.8      57    -69     15     90     92 140.4   9.5  34140  289.24 0855.25
2009/04/23 10:26:48.9      21    -94     -3     97     98 167.1  -2.2  34138  289.19 0855.25
2009/04/23 10:26:49.0       6    -78    -20     79     82 175.1 -14.5  34134  289.14 0855.25
2009/04/23 10:26:49.1       4    -57    -16     58     61 175.5 -15.5  34134  289.13 0855.25
2009/04/23 10:26:49.2       0    -55      5     56     57 180.9   5.9  34130  289.08 0855.25
2009/04/23 10:26:49.3       3    -38     24     39     45 175.5  35.5  34136  289.16 0855.25
2009/04/23 10:26:49.4      11    -34     24     36     43 161.3  37.6  34138  289.21 0855.25
2009/04/23 10:26:49.5      17    -17     30     25     39 135.0  56.3  34140  289.24 0855.25
2009/04/23 10:26:49.6      25    -17     29     31     42 124.2  49.0  34142  289.28 0855.25
2009/04/23 10:26:49.7       7    -35     18     36     40 168.4  29.3  34142  289.28 0855.25
2009/04/23 10:26:49.8      21    -11     20     24     31 118.9  43.8  34142  289.26 0855.25
2009/04/23 10:26:49.9      17    -11     28     21     35 122.5  60.5  34144  289.31 0855.25
2009/04/23 10:26:50.0       4    -15     31     16     34 164.9  70.8  34146  289.35 0855.25
2009/04/23 10:26:50.1      19     -3     47     20     51 101.5  76.1  34148  289.38 0855.25
2009/04/23 10:26:50.2      13    -23     40     27     48 149.3  63.6  34150  289.40 0855.25
2009/04/23 10:26:50.3      19    -59     40     63     74 161.7  35.5  34144  289.30 0855.25
2009/04/23 10:26:50.4       7    -59     32     60     68 172.9  31.3  34144  289.31 0855.25
2009/04/23 10:26:50.5       3    -46     38     47     60 175.5  43.7  34146  289.33 0855.25
2009/04/23 10:26:50.6     -16    -34     45     38     58 205.4  55.4  34146  289.35 0855.25
2009/04/23 10:26:50.7     -39    -73     21     83     86 208.1  14.7  34146  289.35 0855.25
2009/04/23 10:26:50.8     -87   -101     12    134    135 221.0   5.4  34168  289.72 0855.25
2009/04/23 10:26:50.9    -140   -100    -22    173    175 234.5  -7.5  34174  289.80 0855.25
2009/04/23 10:26:51.0    -150    -78     46    170    177 242.5  15.2  34186  290.01 0855.25
2009/04/23 10:26:51.1    -136    -34     25    141    144 255.8  10.1  34188  290.04 0855.25
2009/04/23 10:26:51.2    -134    -75     -6    154    155 240.7  -2.2  34166  289.67 0855.25
2009/04/23 10:26:51.3     -30   -172     58    175    185 190.0  18.4  34136  289.18 0855.25
2009/04/23 10:26:51.4     -90   -142     62    169    180 212.5  20.7  34130  289.08 0855.25
2009/04/23 10:26:51.5    -104   -131    -12    168    169 218.3  -4.4  34132  289.11 0855.25
2009/04/23 10:26:51.6    -104   -132     -2    169    170 218.1  -0.7  34130  289.06 0855.25
2009/04/23 10:26:51.7    -134    -86     36    160    165 237.1  12.9  34148  289.38 0855.25
2009/04/23 10:26:51.8    -104   -116     34    157    161 221.9  12.4  34134  289.14 0855.25
2009/04/23 10:26:51.9    -138   -127     22    188    190 227.3   6.9  34146  289.35 0855.25
2009/04/23 10:26:52.0     -89   -113     24    145    148 218.3   9.5  34138  289.21 0855.25
2009/04/23 10:26:52.1    -142    -67     39    158    163 244.7  13.9  34176  289.84 0855.25
2009/04/23 10:26:52.2     -85    -98     43    130    138 221.0  18.4  34140  289.24 0855.25
2009/04/23 10:26:52.3    -161    -33     13    165    166 258.1   4.6  34204  290.33 0855.25
2009/04/23 10:26:52.4    -143    -18     45    145    152 262.5  17.4  34224  290.65 0855.25
2009/04/23 10:26:52.5    -129     14     44    130    138 276.2  18.9  34204  290.33 0855.25
2009/04/23 10:26:52.6    -110     52    -20    122    124 295.3  -9.3  34166  289.69 0855.25
2009/04/23 10:26:52.7    -104     68    -39    125    132 303.3 -17.5  34162  289.62 0855.25
2009/04/23 10:26:52.8       0     96     87     97    130 359.5  46.4  34164  289.63 0855.25
2009/04/23 10:26:52.9     -25     94     74     98    122 344.9  41.2  34160  289.57 0855.25
2009/04/23 10:26:53.0      -8    -26    119     28    122 198.7  86.9  34194  290.14 0855.25
2009/04/23 10:26:53.1     -46    -36     92     59    109 231.4  64.6  34192  290.13 0855.25
2009/04/23 10:26:53.2     -54    -11    110     56    123 258.5  70.8  34202  290.30 0855.25
2009/04/23 10:26:53.3     -25     -5     93     26     96 256.7  83.9  34194  290.16 0855.25
2009/04/23 10:26:53.4     -10    -63    120     64    136 189.8  69.8  34166  289.67 0855.25
2009/04/23 10:26:53.5      19    -14     63     24     67 126.0  79.2  34164  289.65 0855.25
2009/04/23 10:26:53.6     -62     74     48     97    108 319.9  27.3  34174  289.82 0855.25
2009/04/23 10:26:53.7    -117     40     19    124    126 289.1   9.0  34178  289.87 0855.25
2009/04/23 10:26:53.8    -110     37     29    117    121 288.6  14.3  34168  289.70 0855.20
2009/04/23 10:26:53.9    -105     53     14    118    119 297.1   6.9  34168  289.70 0855.20
2009/04/23 10:26:54.0     -74     65    -19     99    101 311.3 -11.3  34172  289.77 0855.20
2009/04/23 10:26:54.1     -64     53      0     84     85 309.5   0.2  34168  289.72 0855.20
2009/04/23 10:26:54.2     -64     13    -19     66     69 281.4 -16.6  34170  289.74 0855.20
2009/04/23 10:26:54.3     -35      7    -21     36     41 281.5 -36.8  34172  289.79 0855.20
2009/04/23 10:26:54.4     -21      0      3     22     23 270.0   9.0  34178  289.89 0855.20
2009/04/23 10:26:54.5      -9     14     24     17     29 327.5  62.6  34180  289.91 0855.20
2009/04/23 10:26:54.6      -7      3     33      8     33 295.3  86.9  34186  290.02 0855.20
2009/04/23 10:26:54.7     -10      7     39     13     41 306.0  81.0  34190  290.09 0855.20
2009/04/23 10:26:54.8      27     40     40     49     63  34.3  43.7  34188  290.04 0855.20
2009/04/23 10:26:54.9      59     38     27     71     75  57.5  21.0  34162  289.60 0855.20
2009/04/23 10:26:55.0      41     -9     55     42     69 102.4  57.5  34184  289.99 0855.20
2009/04/23 10:26:55.1      61     11     47     63     78  79.4  41.2  34228  290.72 0855.20
2009/04/23 10:26:55.2      70     58     61     92    110  50.4  36.0  34234  290.82 0855.20
2009/04/23 10:26:55.3      67     82    112    107    154  39.2  51.2  34196  290.19 0855.20
2009/04/23 10:26:55.4     119    113     90    165    187  46.4  31.0  34180  289.92 0855.20
2009/04/23 10:26:55.5     103    141     68    175    187  36.1  22.3  34168  289.70 0855.20
2009/04/23 10:26:55.6     144    135     37    198    202  46.9  10.8  34206  290.35 0855.20
2009/04/23 10:26:55.7     103     43     67    112    130  66.9  33.5  34192  290.11 0855.20
2009/04/23 10:26:55.8      31    115     66    120    136  15.2  31.4  34194  290.16 0855.22
2009/04/23 10:26:55.9     121     75     57    143    153  58.0  23.0  34204  290.33 0855.22
2009/04/23 10:26:56.0     202    164     89    261    276  50.9  18.9  34182  289.93 0855.22
2009/04/23 10:26:56.1     287    176    170    337    377  58.5  28.9  34178  289.89 0855.22
2009/04/23 10:26:56.2     449    186    149    487    510  67.5  17.0  34286  291.71 0855.22
2009/04/23 10:26:56.3     221    265    275    346    441  39.9  42.6  34284  291.67 0855.22
2009/04/23 10:26:56.4     534    356     67    643    647  56.3   6.0  34244  291.01 0855.22
2009/04/23 10:26:56.5     511    307    204    597    632  59.0  18.9  34274  291.50 0855.22
2009/04/23 10:26:56.6     718    340    121    795    805  64.6   8.7  34234  290.83 0855.22
2009/04/23 10:26:56.7     555    252    127    610    624  65.6  11.8  34210  290.43 0855.22
2009/04/23 10:26:56.8     702    237    315    742    806  71.3  24.4  34216  290.51 0855.22
2009/04/23 10:26:56.9     536    288    271    609    666  61.7  25.6  34168  289.70 0855.22
2009/04/23 10:26:57.0     568    264    231    627    668  65.1  21.1  34218  290.54 0855.22
2009/04/23 10:26:57.1     615    237    204    660    691  68.9  17.2  34246  291.02 0855.22
2009/04/23 10:26:57.2     508    129    255    525    583  75.7  27.8  34212  290.45 0855.22
2009/04/23 10:26:57.3     518    195    129    554    569  69.3  13.1  34212  290.45 0855.22
2009/04/23 10:26:57.4     516    254    118    576    589  63.8  11.6  34220  290.58 0855.22
2009/04/23 10:26:57.5     406    341     63    531    535  50.0   6.9  34230  290.75 0855.22
2009/04/23 10:26:57.6     472    381    198    607    639  51.1  18.1  34190  290.09 0855.22
2009/04/23 10:26:57.7     495    272    197    565    598  61.2  20.0  34204  290.31 0855.22
2009/04/23 10:26:57.8     410    312     87    516    524  52.7   9.6  34192  290.11 0855.24
2009/04/23 10:26:57.9     342    295     75    453    460  49.2   9.5  34204  290.31 0855.24
2009/04/23 10:26:58.0     392    333    112    515    528  49.6  12.3  34202  290.28 0855.24
2009/04/23 10:26:58.1     439    289     92    526    535  56.6  10.0  34184  289.97 0855.24
2009/04/23 10:26:58.2     503    204    101    543    553  67.9  10.6  34230  290.77 0855.24
2009/04/23 10:26:58.3     398    209     65    450    455  62.2   8.2  34240  290.94 0855.24
2009/04/23 10:26:58.4     418    -10    147    419    444  91.5  20.1  34210  290.41 0855.24
2009/04/23 10:26:58.5     499   -115    178    513    544 103.0  19.2  34192  290.11 0855.24
2009/04/23 10:26:58.6     575    166    170    599    623  73.9  15.9  34166  289.67 0855.24
2009/04/23 10:26:58.7     567      8     89    568    576  89.1   8.9  34222  290.64 0855.24
2009/04/23 10:26:58.8     351    -84     99    361    375 103.5  15.4  34230  290.76 0855.24
2009/04/23 10:26:58.9     438    -20    110    439    453  92.7  14.2  34216  290.51 0855.24
2009/04/23 10:26:59.0     304    -17    128    305    330  93.3  24.1  34220  290.59 0855.24
2009/04/23 10:26:59.1     309     17    127    310    335  86.7  23.5  34242  290.95 0855.24
2009/04/23 10:26:59.2     180   -145    161    232    282 128.9  37.8  34242  290.97 0855.24
2009/04/23 10:26:59.3     102   -437     29    449    450 166.8   3.8  34230  290.77 0855.24
2009/04/23 10:26:59.4       7   -519    159    520    544 179.2  17.0  34212  290.45 0855.24
2009/04/23 10:26:59.5     273   -496     63    567    571 151.2   6.4  34166  289.69 0855.24
2009/04/23 10:26:59.6     307   -371    107    482    494 140.4  12.6  34176  289.83 0855.24
2009/04/23 10:26:59.7     315   -254    192    405    448 128.9  27.2  34214  290.50 0855.24
2009/04/23 10:26:59.8      73   -195    201    209    289 159.3  49.0  34222  290.63 0855.23
2009/04/23 10:26:59.9     235   -292    230    375    439 141.2  34.4  34140  289.24 0855.23
2009/04/23 10:27:00.0     301   -222    241    375    445 126.4  35.6  34148  289.36 0855.23
2009/04/23 10:27:00.1     260   -188    206    322    382 125.9  35.6  34142  289.25 0855.23
2009/04/23 10:27:00.2     247   -204    199    321    377 129.6  34.9  34142  289.25 0855.23
2009/04/23 10:27:00.3     285   -175    169    335    375 121.6  29.1  34138  289.21 0855.23
2009/04/23 10:27:00.4     349   -131    165    373    407 110.6  25.6  34146  289.33 0855.23
2009/04/23 10:27:00.5     370   -235    189    439    477 122.5  24.9  34154  289.47 0855.23
2009/04/23 10:27:00.6     326   -326    232    462    516 135.0  28.7  34178  289.89 0855.23
2009/04/23 10:27:00.7     273   -290    125    399    419 136.7  17.4  34182  289.94 0855.23
2009/04/23 10:27:00.8     290   -261    170    391    426 131.9  25.1  34182  289.95 0855.23
2009/04/23 10:27:00.9     205   -193    100    282    300 133.2  19.6  34192  290.12 0855.23
2009/04/23 10:27:01.0     176   -223     42    285    289 141.7   8.5  34218  290.56 0855.23
2009/04/23 10:27:01.1     122   -237    -14    267    268 152.6  -3.2  34232  290.80 0855.23
2009/04/23 10:27:01.2      33   -236     48    239    244 172.0  11.4  34204  290.31 0855.23
2009/04/23 10:27:01.3    -113   -312    168    332    372 200.0  29.1  34210  290.43 0855.23
2009/04/23 10:27:01.4     -76   -269    253    280    377 195.8  46.9  34188  290.06 0855.23
2009/04/23 10:27:01.6     -49   -262    180    267    322 190.7  37.2  34166  289.68 0855.23
2009/04/23 10:27:01.6      -9   -319    202    320    378 181.8  35.5  34178  289.86 0855.23
2009/04/23 10:27:01.7    -115   -200     94    231    249 209.9  23.1  34158  289.53 0855.23
2009/04/23 10:27:01.8    -130   -130    140    185    232 225.0  40.9  34188  290.04 0855.22
2009/04/23 10:27:01.9     145     -4    114    146    185  91.7  42.0  34198  290.21 0855.22
2009/04/23 10:27:02.0     348    122    -20    370    371  70.6  -3.2  34226  290.69 0855.22
2009/04/23 10:27:02.1     188    -36    219    192    291 101.0  54.3  34214  290.48 0855.22
2009/04/23 10:27:02.2     235     15    263    236    353  86.3  53.6  34222  290.63 0855.22
2009/04/23 10:27:02.3     194     87    279    213    351  65.8  58.9  34232  290.78 0855.22
2009/04/23 10:27:02.4     339     73    359    347    499  77.8  51.2  34218  290.56 0855.22
2009/04/23 10:27:02.5     325    119    296    347    456  69.9  44.8  34202  290.29 0855.22
2009/04/23 10:27:02.6     241    133    245    276    369  61.2  46.1  34238  290.91 0855.22
2009/04/23 10:27:02.7     189     82    329    207    388  66.5  64.7  34256  291.20 0855.22
2009/04/23 10:27:02.8     143    105    235    178    294  53.8  59.2  34200  290.24 0855.22
2009/04/23 10:27:02.9      59   -148    178    160    239 158.2  53.3  34222  290.64 0855.22
2009/04/23 10:27:03.0     200   -258     59    327    333 142.1  10.2  34146  289.35 0855.22
2009/04/23 10:27:03.1     207   -220     56    303    309 136.8  10.6  34146  289.32 0855.22
2009/04/23 10:27:03.2     295   -193    155    353    385 123.2  25.2  34158  289.55 0855.22
2009/04/23 10:27:03.3     244   -181    144    305    337 126.6  27.1  34154  289.47 0855.22
2009/04/23 10:27:03.4     302   -120    124    326    348 111.7  21.8  34158  289.54 0855.22
2009/04/23 10:27:03.5     191    -50    131    198    237 104.8  36.5  34182  289.96 0855.22
2009/04/23 10:27:03.6     249    -83    192    263    325 108.4  39.8  34178  289.88 0855.22
2009/04/23 10:27:03.7     185    -34    246    189    310 100.4  58.5  34238  290.90 0855.22
2009/04/23 10:27:03.8     158      5    229    159    278  87.9  61.8  34254  291.16 0855.20
2009/04/23 10:27:03.9     121     43    214    129    249  70.5  66.2  34266  291.37 0855.20
2009/04/23 10:27:04.0      15     73    152     75    169  11.6  72.1  34256  291.20 0855.20
2009/04/23 10:27:04.1      12     51    125     53    135  13.4  75.5  34244  290.99 0855.20
2009/04/23 10:27:04.2     -41    -15    143     44    149 250.0  82.3  34194  290.14 0855.20
2009/04/23 10:27:04.3     -66    -13    116     68    134 258.5  66.8  34190  290.09 0855.20
2009/04/23 10:27:04.4     -75     10    104     76    128 277.9  60.5  34182  289.96 0855.20
2009/04/23 10:27:04.5      71    -33    107     79    133 115.2  60.5  34192  290.11 0855.20
2009/04/23 10:27:04.6      -7     19     88     21     90 338.2  87.5  34174  289.80 0855.20
2009/04/23 10:27:04.7     -22     11     51     25     56 297.1  72.8  34172  289.79 0855.20
2009/04/23 10:27:04.8      12    -12     62     18     64 135.0  82.8  34162  289.60 0855.20
2009/04/23 10:27:04.9     -12    -55     66     57     87 192.5  54.3  34148  289.38 0855.20
2009/04/23 10:27:05.0     -23   -111    106    114    155 192.0  47.9  34138  289.21 0855.20
2009/04/23 10:27:05.1     -73   -103     98    127    160 215.6  41.7  34156  289.52 0855.20
2009/04/23 10:27:05.2    -101    -86     36    133    138 229.6  15.3  34172  289.77 0855.20
2009/04/23 10:27:05.3     -57    -51    -20     77     80 227.8 -14.5  34180  289.91 0855.20
2009/04/23 10:27:05.4     -25    -76     80     81    113 198.7  50.5  34164  289.63 0855.20
2009/04/23 10:27:05.5     -46    -97     87    108    138 205.5  43.3  34144  289.31 0855.20
2009/04/23 10:27:05.6    -184    -78     51    201    208 246.9  14.3  34162  289.60 0855.20
2009/04/23 10:27:05.7    -209    -90     59    228    236 246.5  14.7  34166  289.68 0855.20
2009/04/23 10:27:05.8    -220    -36     29    224    226 260.5   7.5  34146  289.35 0855.21
2009/04/23 10:27:05.9    -202     20     39    203    207 275.7  11.1  34124  288.96 0855.21
2009/04/23 10:27:06.0    -114     31     47    119    127 285.5  23.0  34140  289.24 0855.21
2009/04/23 10:27:06.1    -133    -70    128    151    197 242.0  44.8  34148  289.38 0855.21
2009/04/23 10:27:06.2    -145     -6     86    146    169 267.4  33.5  34152  289.43 0855.21
2009/04/23 10:27:06.3    -217      0    -35    218    221 270.1  -9.3  34174  289.80 0855.21
2009/04/23 10:27:06.4    -175     62    -39    186    191 289.7 -11.9  34174  289.80 0855.21
2009/04/23 10:27:06.5    -291    -12     81    292    304 267.5  15.6  34162  289.59 0855.21
2009/04/23 10:27:06.6    -207    -62     29    217    219 253.2   7.8  34164  289.65 0855.21
2009/04/23 10:27:06.7     -71    -26     60     76     96 249.2  42.7  34162  289.62 0855.21
2009/04/23 10:27:06.9       0     -4     57      5     57 189.7  90.0  34168  289.72 0855.22
2009/04/23 10:27:06.9      12     -4     74     13     75 108.6  90.0  34174  289.82 0855.22
2009/04/23 10:27:07.0      -8     25     66     27     71 341.3  77.1  34178  289.89 0855.22
2009/04/23 10:27:07.1     -35   -131     93    136    164 195.2  37.6  34164  289.63 0855.22
2009/04/23 10:27:07.2     -49   -137    105    146    179 200.0  39.5  34158  289.53 0855.22
2009/04/23 10:27:07.4     -96   -151     71    180    193 212.5  22.5  34160  289.58 0855.22
2009/04/23 10:27:07.4     -76   -119     27    142    145 212.6  11.0  34162  289.62 0855.22
2009/04/23 10:27:07.6     -74   -107      1    131    132 214.7   0.8  34158  289.53 0855.22
2009/04/23 10:27:07.6     -81    -92     -5    123    124 221.4  -2.6  34164  289.65 0855.22
2009/04/23 10:27:07.8     -58    -91     -5    108    109 212.5  -3.1  34168  289.70 0855.22
2009/04/23 10:27:07.9      -6    -78     27     79     84 184.5  19.4  34166  289.67 0855.22
2009/04/23 10:27:08.0     -42    -45     42     62     74 223.3  36.5  34168  289.70 0855.22
2009/04/23 10:27:08.1     -87    -66     47    110    119 232.7  24.1  34170  289.75 0855.22
2009/04/23 10:27:08.2    -102    -49     48    114    123 244.2  24.1  34174  289.80 0855.22
2009/04/23 10:27:08.2    -148    -59     16    160    161 248.2   5.9  34166  289.69 0855.22
2009/04/23 10:27:08.4    -189   -121     -4    225    226 237.4  -1.2  34162  289.60 0855.22
2009/04/23 10:27:08.5    -176    -44     -1    182    183 255.8  -0.5  34162  289.62 0855.22
2009/04/23 10:27:08.6     -95    -42     25    105    109 246.0  13.7  34154  289.48 0855.22
2009/04/23 10:27:08.7    -128    -48     46    137    145 249.2  18.9  34154  289.48 0855.22
2009/04/23 10:27:08.8    -151    -41     14    157    158 254.9   5.4  34138  289.19 0855.22
2009/04/23 10:27:08.9    -204    -15     -8    205    206 265.6  -2.2  34162  289.60 0855.22
2009/04/23 10:27:09.0    -204     65    -90    215    233 287.7 -28.2  34176  289.84 0855.22
2009/04/23 10:27:09.1    -241     91     -1    258    259 290.8  -0.3  34192  290.10 0855.22
2009/04/23 10:27:09.2    -279     -3     29    280    282 269.2   6.1  34178  289.86 0855.22
2009/04/23 10:27:09.3    -216    -12    105    217    241 266.7  27.8  34160  289.58 0855.22
2009/04/23 10:27:09.4    -229    -83     52    244    250 250.0  12.0  34156  289.49 0855.22
2009/04/23 10:27:09.5     -63    -96     22    115    118 213.4  11.1  34164  289.63 0855.22
2009/04/23 10:27:09.6     -68   -115     60    134    146 210.7  26.2  34158  289.53 0855.22
2009/04/23 10:27:09.7     -67   -120     49    138    146 209.4  20.0  34144  289.30 0855.22
2009/04/23 10:27:09.8     -37    -94     71    102    124 201.9  37.6  34136  289.18 0855.22
2009/04/23 10:27:09.9      23   -124     92    127    156 169.3  39.3  34150  289.41 0855.22
2009/04/23 10:27:10.0     -23   -117     44    120    127 191.5  21.0  34158  289.55 0855.22
2009/04/23 10:27:10.1     -87    -98     34    132    137 221.4  14.7  34156  289.50 0855.22
2009/04/23 10:27:10.2    -152    -83     60    174    185 241.4  19.2  34164  289.63 0855.22
2009/04/23 10:27:10.3    -193    -82     25    210    212 246.9   6.9  34170  289.75 0855.22
2009/04/23 10:27:10.4    -184      3    -37    185    189 271.0 -11.6  34162  289.60 0855.22
2009/04/23 10:27:10.5    -197      0    -64    198    209 269.9 -17.9  34156  289.52 0855.22
2009/04/23 10:27:10.6    -223      3    -28    224    226 270.8  -7.3  34172  289.77 0855.22
2009/04/23 10:27:10.7    -170    -13     -6    171    172 265.6  -2.2  34184  289.99 0855.22
2009/04/23 10:27:10.8    -301    -52    -53    306    311 260.1  -9.9  34172  289.76 0855.22
2009/04/23 10:27:10.9    -309    -28    -98    311    326 264.7 -22.5  34160  289.58 0855.22
2009/04/23 10:27:11.0    -285    -17    -81    286    298 266.5 -15.8  34174  289.80 0855.22
2009/04/23 10:27:11.1    -332    -23   -117    333    352 266.0 -24.7  34180  289.91 0855.22
2009/04/23 10:27:11.2    -316    -52    -86    321    333 260.6 -15.0  34180  289.91 0855.22
2009/04/23 10:27:11.3    -253   -100    -55    273    279 248.3 -11.6  34176  289.85 0855.22
2009/04/23 10:27:11.4    -295    -45   -105    299    316 261.2 -24.5  34194  290.14 0855.22
2009/04/23 10:27:11.5    -344    -38   -110    347    365 263.6 -17.6  34168  289.71 0855.22
2009/04/23 10:27:11.6    -295    -97    -94    311    326 251.8 -16.9  34166  289.66 0855.22
2009/04/23 10:27:11.7    -296   -142    -77    329    339 244.2 -13.3  34168  289.71 0855.22
2009/04/23 10:27:11.8    -290   -166    -38    335    338 240.2  -6.6  34166  289.67 0855.22
2009/04/23 10:27:11.9    -211   -169    -23    271    273 231.3  -4.9  34160  289.58 0855.22
2009/04/23 10:27:12.0    -221   -138     -9    261    262 238.0  -2.1  34162  289.61 0855.22
2009/04/23 10:27:12.1    -263   -129    -56    294    300 243.8 -10.9  34164  289.64 0855.22
2009/04/23 10:27:12.2    -254   -127     -1    285    286 243.4  -0.3  34180  289.92 0855.22
2009/04/23 10:27:12.3    -230   -109    -14    255    256 244.6  -3.3  34206  290.36 0855.22
2009/04/23 10:27:12.4    -164   -102     25    194    196 238.2   7.5  34202  290.30 0855.22
2009/04/23 10:27:12.5     -68   -142    -17    158    159 205.5  -6.2  34184  289.97 0855.22
2009/04/23 10:27:12.6     -76   -132     50    153    161 209.9  18.1  34186  290.01 0855.22
2009/04/23 10:27:12.7      27   -162     55    165    175 170.4  18.6  34164  289.65 0855.22
2009/04/23 10:27:12.8      24   -233     59    235    243 174.0  14.2  34128  289.02 0855.22
2009/04/23 10:27:12.9      23   -242     32    244    247 174.4   7.5  34132  289.10 0855.23
2009/04/23 10:27:13.0      49   -322     37    326    329 171.3   6.5  34128  289.02 0855.23
2009/04/23 10:27:13.1       6   -284    102    285    302 178.6  20.4  34132  289.09 0855.23
2009/04/23 10:27:13.2      14   -329     -1    330    331 177.5  -0.3  34134  289.13 0855.23
2009/04/23 10:27:13.3      11   -283     14    284    285 177.8   2.9  34124  288.97 0855.23
2009/04/23 10:27:13.4      11   -238     69    239    249 177.3  16.3  34130  289.05 0855.23
2009/04/23 10:27:13.5      -7   -253     88    254    269 181.8  19.2  34126  289.00 0855.23
2009/04/23 10:27:13.6     -82   -259     63    272    280 197.6  13.1  34132  289.09 0855.23
2009/04/23 10:27:13.7     -22   -276     50    277    282 184.7  10.3  34130  289.05 0855.23
2009/04/23 10:27:13.8     -25   -346     59    347    353 184.2   9.7  34130  289.08 0855.23
2009/04/23 10:27:13.9      12   -351    115    352    371 177.9  18.2  34146  289.35 0855.23
2009/04/23 10:27:14.0       8   -362    114    363    381 178.6  17.5  34146  289.35 0855.23
2009/04/23 10:27:14.1     -14   -314     53    315    320 182.6   9.7  34152  289.44 0855.23
2009/04/23 10:27:14.2     -30   -269     43    271    275 186.5   9.0  34156  289.51 0855.23
2009/04/23 10:27:14.3    -167   -321    -37    362    364 207.5  -5.9  34154  289.48 0855.23
2009/04/23 10:27:14.4    -101   -337    -31    352    354 196.7  -5.1  34144  289.30 0855.23
2009/04/23 10:27:14.5    -110   -304    -46    324    328 200.0  -8.2  34140  289.24 0855.23
2009/04/23 10:27:14.6    -102   -348    -49    363    367 196.4  -7.7  34140  289.23 0855.23
2009/04/23 10:27:14.7     -63   -309    -18    316    317 191.6  -3.3  34136  289.15 0855.23
2009/04/23 10:27:14.8     -32   -351    -19    353    354 185.4  -3.2  34146  289.33 0855.23
2009/04/23 10:27:14.9    -112   -283    -50    305    310 201.6  -9.4  34152  289.42 0855.20
2009/04/23 10:27:15.0     -32   -344    -25    346    347 185.3  -4.2  34132  289.10 0855.20
2009/04/23 10:27:15.1      24   -400    -42    401    404 176.5  -6.0  34126  288.99 0855.20
2009/04/23 10:27:15.2       0   -372    -65    373    379 180.1  -9.9  34128  289.03 0855.20
2009/04/23 10:27:15.3     -17   -290    -14    291    292 183.4  -2.8  34128  289.03 0855.20
2009/04/23 10:27:15.4    -107   -323     49    341    345 198.5   8.2  34130  289.08 0855.20
2009/04/23 10:27:15.5      23   -312     77    313    323 175.8  13.8  34124  288.97 0855.20
2009/04/23 10:27:15.6     -84   -245     98    260    277 199.1  21.7  34128  289.02 0855.20
2009/04/23 10:27:15.7    -116   -235     95    263    279 206.3  20.9  34132  289.09 0855.20
2009/04/23 10:27:15.8    -109   -230     81    255    268 205.3  17.7  34134  289.12 0855.20
2009/04/23 10:27:15.9     -22   -292    111    293    313 184.5  21.8  34134  289.14 0855.20
2009/04/23 10:27:16.0     -76   -272    133    283    312 195.6  27.1  34136  289.15 0855.20
2009/04/23 10:27:16.1      13   -282     91    283    298 177.3  17.9  34132  289.10 0855.20
2009/04/23 10:27:16.2     -70   -275     80    284    296 194.3  15.8  34134  289.12 0855.20
2009/04/23 10:27:16.3       3   -216     81    217    231 179.1  21.3  34130  289.06 0855.20
2009/04/23 10:27:16.4     130   -208    124    246    275 148.1  29.1  34130  289.05 0855.20
2009/04/23 10:27:16.5      20   -247     89    248    264 175.3  19.9  34132  289.09 0855.20
2009/04/23 10:27:16.6     -10   -247     50    248    253 182.5  11.4  34130  289.05 0855.20
2009/04/23 10:27:16.7      30   -177     84    180    198 170.4  27.0  34134  289.13 0855.20
2009/04/23 10:27:16.8      -5   -152    102    153    183 182.2  36.5  34134  289.13 0855.20
2009/04/23 10:27:16.9      -1   -118     88    119    148 180.9  39.7  34134  289.14 0855.22
2009/04/23 10:27:17.0      27   -112     87    116    145 166.2  40.1  34136  289.18 0855.22
2009/04/23 10:27:17.1      85   -134    114    160    196 147.5  39.3  34138  289.19 0855.22
2009/04/23 10:27:17.2      96   -151    123    180    218 147.5  37.6  34136  289.18 0855.22
2009/04/23 10:27:17.3      82   -129    135    154    204 147.4  45.8  34142  289.28 0855.22
2009/04/23 10:27:17.4      25   -115     83    118    144 167.5  38.6  34144  289.30 0855.22
2009/04/23 10:27:17.5      30   -135     77    139    158 167.5  31.6  34140  289.23 0855.22
2009/04/23 10:27:17.6       7    -96     84     97    128 175.5  45.8  34138  289.21 0855.22
2009/04/23 10:27:17.7     -56   -157     74    167    182 199.8  25.3  34138  289.19 0855.22
2009/04/23 10:27:17.8    -101   -301    206    318    378 198.7  35.7  34128  289.04 0855.22
2009/04/23 10:27:17.9     -80   -265    253    278    375 196.9  47.1  34132  289.10 0855.22
2009/04/23 10:27:18.0     -65   -190    189    201    275 198.9  48.0  34132  289.09 0855.22
2009/04/23 10:27:18.1    -124   -241    247    272    367 207.2  47.0  34126  289.01 0855.22
2009/04/23 10:27:18.2     -17   -265    257    266    369 183.8  49.1  34138  289.21 0855.22
2009/04/23 10:27:18.3      59   -220    261    228    346 164.8  54.6  34140  289.24 0855.22
2009/04/23 10:27:18.4      10   -195    206    196    284 176.9  51.4  34140  289.24 0855.22
2009/04/23 10:27:18.5      -4   -341    297    342    452 180.7  45.5  34134  289.12 0855.22
2009/04/23 10:27:18.6     -30   -284    244    286    375 186.2  45.0  34136  289.18 0855.22
2009/04/23 10:27:18.7      38   -227    194    231    301 170.3  44.3  34136  289.17 0855.22
2009/04/23 10:27:18.8     -32   -231    171    234    289 188.1  39.7  34136  289.15 0855.22
2009/04/23 10:27:18.9     -29   -248     46    250    255 186.9  10.6  34132  289.10 0855.23
2009/04/23 10:27:19.0     -20   -237      3    238    239 184.9   0.8  34136  289.17 0855.23
2009/04/23 10:27:19.1      -3   -228      0    229    230 181.0   0.0  34134  289.14 0855.23
2009/04/23 10:27:19.2       0   -217     -8    218    219 180.2  -2.2  34132  289.11 0855.23
2009/04/23 10:27:19.3     -23   -238    -30    240    242 185.6  -7.3  34138  289.19 0855.23
2009/04/23 10:27:19.4     -26   -167     32    170    174 189.1  10.8  34134  289.14 0855.23
2009/04/23 10:27:19.5     -62   -193    -19    203    205 197.8  -5.6  34136  289.16 0855.23
2009/04/23 10:27:19.6     -32   -205     20    208    210 189.1   5.7  34134  289.14 0855.23
2009/04/23 10:27:19.7     -50   -125     67    135    150 201.8  27.8  34138  289.21 0855.23
2009/04/23 10:27:19.8      -3    -35     93     36     99 186.2  78.2  34150  289.40 0855.23
2009/04/23 10:27:19.9     -12    -28     79     31     84 203.6  78.2  34160  289.57 0855.23
2009/04/23 10:27:20.0      51    -24     77     57     95 115.2  60.0  34148  289.36 0855.23
2009/04/23 10:27:20.1      59    -69     54     91    105 139.5  34.0  34142  289.26 0855.23
2009/04/23 10:27:20.2      -8   -107     33    108    114 184.5  17.3  34132  289.09 0855.23
2009/04/23 10:27:20.3     -82   -100    -36    130    134 219.6 -20.7  34134  289.13 0855.23
2009/04/23 10:27:20.4     -86    -26    -32     90     96 253.2 -19.7  34140  289.24 0855.23
2009/04/23 10:27:20.5     -72     -5    -13     73     75 265.6 -10.3  34138  289.19 0855.23
2009/04/23 10:27:20.6    -166      4     47    167    174 271.7  15.8  34140  289.23 0855.23
2009/04/23 10:27:20.7    -117    -63     36    133    138 241.6  15.3  34140  289.24 0855.23
2009/04/23 10:27:20.8    -117    -36     57    123    135 252.7  27.1  34140  289.24 0855.23
2009/04/23 10:27:20.9    -117     12     59    118    131 276.1  28.2  34138  289.21 0855.22
2009/04/23 10:27:21.0    -206     19     13    207    208 275.5   3.8  34138  289.19 0855.22
2009/04/23 10:27:21.1    -138    -45    -49    146    155 251.8 -18.7  34140  289.23 0855.22
2009/04/23 10:27:21.2    -169     22     24    171    173 277.5   8.0  34154  289.46 0855.22
2009/04/23 10:27:21.3    -231     17    -33    232    235 274.3  -8.2  34186  290.00 0855.22
2009/04/23 10:27:21.4    -342     38    -70    345    353 276.5 -11.6  34164  289.65 0855.22
2009/04/23 10:27:21.5    -398      0     85    399    409 270.0  12.1  34170  289.73 0855.22
2009/04/23 10:27:21.6    -335     -3    -36    336    339 269.4  -6.3  34182  289.96 0855.22
2009/04/23 10:27:21.7    -304    -38    -87    307    320 262.8 -15.8  34166  289.66 0855.22
2009/04/23 10:27:21.8    -323     36    -30    326    328 276.4  -5.3  34162  289.61 0855.22
2009/04/23 10:27:21.9    -392     -6     87    393    403 269.0  12.6  34162  289.62 0855.22
2009/04/23 10:27:22.0    -300    -42     71    304    313 262.0  13.2  34164  289.64 0855.22
2009/04/23 10:27:22.1    -345     22    122    346    366 273.8  20.1  34162  289.62 0855.22
2009/04/23 10:27:22.2    -181     99     40    207    211 298.6  11.1  34156  289.52 0855.22
2009/04/23 10:27:22.3     -87    144     65    169    181 329.0  22.3  34146  289.35 0855.22
2009/04/23 10:27:22.4     -34    192    117    196    228 349.8  33.5  34148  289.38 0855.22
2009/04/23 10:27:22.5     -77    211    120    225    255 340.0  30.3  34144  289.31 0855.22
2009/04/23 10:27:22.6    -146    373    108    401    416 338.6  15.2  34128  289.02 0855.22
2009/04/23 10:27:22.7     -33    390    165    392    425 355.1  24.2  34126  289.00 0855.22
2009/04/23 10:27:22.8     -22    152    276    154    316 351.5  68.4  34148  289.36 0855.22
2009/04/23 10:27:22.9     -89      8    196     90    215 275.2  73.5  34152  289.45 0855.20
2009/04/23 10:27:23.0     -19    -15    157     25    158 230.5  90.0  34136  289.18 0855.20
2009/04/23 10:27:23.1      70    135    263    153    304  27.6  67.2  34140  289.22 0855.20
2009/04/23 10:27:23.2     -19    132    243    134    277 351.5  68.8  34164  289.63 0855.20
2009/04/23 10:27:23.3    -141     10    194    142    240 274.3  60.3  34186  290.01 0855.20
2009/04/23 10:27:23.4    -367   -133    186    391    432 250.1  27.3  34182  289.94 0855.20
2009/04/23 10:27:23.5    -552   -156    191    574    605 254.2  18.4  34154  289.46 0855.20
2009/04/23 10:27:23.6    -407   -178    112    445    459 246.4  14.2  34138  289.21 0855.20
2009/04/23 10:27:23.7    -407   -169     -2    441    442 247.4  -0.3  34166  289.66 0855.20
2009/04/23 10:27:23.8    -408   -242     61    475    479 239.3   7.4  34162  289.59 0855.20
2009/04/23 10:27:23.9    -503   -201    -33    542    543 248.2  -3.5  34180  289.90 0855.20
2009/04/23 10:27:24.0    -396   -107     79    411    419 254.8  11.0  34178  289.87 0855.20
2009/04/23 10:27:24.1    -464   -276     15    541    542 239.3   1.6  34148  289.38 0855.20
2009/04/23 10:27:24.2    -242   -284   -118    374    393 220.4 -17.5  34172  289.79 0855.20
2009/04/23 10:27:24.3    -150   -213     66    261    270 215.2  14.3  34158  289.54 0855.20
2009/04/23 10:27:24.4    -134   -170    102    217    239 218.3  27.0  34168  289.70 0855.20
2009/04/23 10:27:24.5      23   -308     52    309    314 175.6   9.7  34154  289.46 0855.20
2009/04/23 10:27:24.6     190   -391      6    435    436 154.0   0.8  34122  288.92 0855.20
2009/04/23 10:27:24.7     119   -154    115    195    226 142.4  33.5  34134  289.14 0855.20
2009/04/23 10:27:24.8     235    -75    138    247    282 107.7  31.6  34130  289.07 0855.20
2009/04/23 10:27:24.9      41     50    122     65    138  39.7  69.3  34130  289.08 0855.22
2009/04/23 10:27:25.0     -77     10    129     78    150 278.0  66.2  34134  289.14 0855.22
2009/04/23 10:27:25.1     -13     23     54     27     60 329.3  71.9  34130  289.06 0855.22
2009/04/23 10:27:25.2     -34    -94    176    100    202 200.0  67.7  34130  289.08 0855.22
2009/04/23 10:27:25.3     -58   -112     12    127    128 207.2   5.4  34114  288.80 0855.22
2009/04/23 10:27:25.4    -241   -199     68    313    321 230.4  12.3  34116  288.83 0855.22
2009/04/23 10:27:25.5    -497   -116    -97    511    521 256.8 -10.8  34098  288.52 0855.22
2009/04/23 10:27:25.6    -325    -68    -78    333    343 258.1 -13.3  34124  288.96 0855.22
2009/04/23 10:27:25.7    -239   -339     -6    416    417 215.2  -0.9  34124  288.97 0855.22
2009/04/23 10:27:25.8    -194   -304    148    361    390 212.6  23.6  34108  288.69 0855.22
2009/04/23 10:27:25.9    -238   -231     79    332    342 225.9  13.5  34106  288.66 0855.22
2009/04/23 10:27:26.0    -319   -301    170    439    470 226.7  22.3  34110  288.72 0855.22
2009/04/23 10:27:26.1    -484   -247     49    544    547 242.9   5.2  34110  288.72 0855.22
2009/04/23 10:27:26.2    -406   -319     44    517    520 231.8   4.9  34120  288.88 0855.22
2009/04/23 10:27:26.3    -274   -307     37    412    414 221.7   5.2  34112  288.75 0855.22
2009/04/23 10:27:26.4       0   -333    -24    334    335 180.1  -4.2  34120  288.91 0855.22
2009/04/23 10:27:26.5     -85   -331   -180    342    386 194.5 -34.5  34112  288.77 0855.22
2009/04/23 10:27:26.6       8   -277    -18    278    279 178.2  -3.9  34118  288.85 0855.22
2009/04/23 10:27:26.7      52   -349    -88    353    364 171.5 -14.1  34112  288.77 0855.22
2009/04/23 10:27:26.8    -162   -343    138    380    404 205.3  20.9  34116  288.81 0855.22
2009/04/23 10:27:26.9    -228   -309    109    385    401 216.4  15.9  34118  288.86 0855.23
2009/04/23 10:27:27.0    -205   -292     78    358    367 215.1  12.3  34120  288.89 0855.23
2009/04/23 10:27:27.1    -146   -256     46    295    299 209.8   8.9  34116  288.81 0855.23
2009/04/23 10:27:27.2    -141   -522    171    541    568 195.2  17.5  34114  288.80 0855.23
2009/04/23 10:27:27.3    -193   -445    124    486    502 203.5  14.4  34118  288.86 0855.23
2009/04/23 10:27:27.4    -264   -389    -26    471    472 214.2  -3.2  34116  288.83 0855.23
2009/04/23 10:27:27.5    -212   -331    119    394    412 212.7  16.8  34108  288.68 0855.23
2009/04/23 10:27:27.6    -121   -432    -47    449    452 195.7  -6.1  34108  288.68 0855.23
2009/04/23 10:27:27.7     -22   -483    152    484    508 182.7  17.5  34114  288.78 0855.23
2009/04/23 10:27:27.8     -21   -466    112    467    481 182.6  13.6  34104  288.62 0855.23
2009/04/23 10:27:27.9     -76   -375     23    383    384 191.5   3.5  34106  288.67 0855.25
2009/04/23 10:27:28.0     -89   -391    110    402    417 192.9  15.3  34110  288.72 0855.25
2009/04/23 10:27:28.1    -122   -477    147    493    515 194.4  16.6  34114  288.78 0855.25
2009/04/23 10:27:28.2    -207   -438    189    485    520 205.3  22.5  34110  288.74 0855.25
2009/04/23 10:27:28.3     -77   -288    192    299    355 195.1  35.6  34116  288.84 0855.25
2009/04/23 10:27:28.4     -80   -345     46    355    358 193.1   7.5  34108  288.69 0855.25
2009/04/23 10:27:28.5    -162   -247    115    296    317 213.4  22.3  34114  288.80 0855.25
2009/04/23 10:27:28.6     -68   -488    180    493    524 188.0  20.9  34108  288.69 0855.25
2009/04/23 10:27:28.7    -182   -433    138    470    490 202.8  16.4  34110  288.74 0855.25
2009/04/23 10:27:28.8    -172   -207     93    270    286 219.7  19.2  34112  288.76 0855.25
2009/04/23 10:27:28.9    -268   -233     83    356    366 229.0  13.1  34112  288.77 0855.25
2009/04/23 10:27:29.0    -225   -243   -137    332    359 222.8 -28.0  34120  288.91 0855.25
2009/04/23 10:27:29.1    -112   -371   -117    388    405 196.9 -21.7  34116  288.84 0855.25
2009/04/23 10:27:29.2     -67   -479    -97    484    494 188.0 -11.3  34110  288.73 0855.25
2009/04/23 10:27:29.3      22   -602    -54    603    606 177.9  -5.2  34114  288.80 0855.25
2009/04/23 10:27:29.4     -29   -536    -90    537    545 183.1  -9.6  34106  288.67 0855.25
2009/04/23 10:27:29.5     -90   -616    124    623    636 188.4  11.3  34110  288.72 0855.25
2009/04/23 10:27:29.6     -95   -506    -37    516    518 190.7  -4.1  34106  288.66 0855.25
2009/04/23 10:27:29.7    -115   -434    142    450    472 194.9  17.5  34110  288.73 0855.25
2009/04/23 10:27:29.8    -180   -473    142    507    527 200.9  15.7  34112  288.75 0855.25
2009/04/23 10:27:29.9    -127   -519    255    535    592 193.8  27.3  34114  288.78 0855.24
2009/04/23 10:27:30.0     -76   -565    292    571    641 187.7  29.2  34112  288.76 0855.24
2009/04/23 10:27:30.1    -178   -432    336    468    576 202.5  39.2  34106  288.67 0855.24
2009/04/23 10:27:30.2    -136   -407    257    430    500 198.6  33.6  34110  288.71 0855.24
2009/04/23 10:27:30.3    -226   -416    263    474    542 208.6  31.4  34102  288.60 0855.24
2009/04/23 10:27:30.4    -221   -495    148    543    563 204.1  15.3  34100  288.55 0855.24
2009/04/23 10:27:30.5    -321   -426    178    534    564 217.0  18.5  34102  288.58 0855.24
2009/04/23 10:27:30.6    -316   -443     56    545    548 215.5   5.9  34100  288.55 0855.24
2009/04/23 10:27:30.7    -368   -365    -68    519    524 225.2  -7.5  34096  288.50 0855.24
2009/04/23 10:27:30.8    -388   -411    -54    566    569 223.3  -5.5  34100  288.57 0855.24
2009/04/23 10:27:30.9    -103   -283     64    302    309 200.0  12.1  34108  288.68 0855.24
2009/04/23 10:27:31.0    -113   -222    -31    250    252 207.1  -7.2  34104  288.61 0855.24
2009/04/23 10:27:31.1    -302   -342    -10    457    458 221.5  -1.3  34106  288.65 0855.24
2009/04/23 10:27:31.2    -269   -448    -40    523    525 211.0  -4.4  34120  288.89 0855.24
2009/04/23 10:27:31.3    -383   -316     56    497    501 230.5   6.5  34118  288.86 0855.24
2009/04/23 10:27:31.4    -506   -229    -54    556    559 245.6  -5.6  34124  288.96 0855.24
2009/04/23 10:27:31.6    -326   -260    -15    418    419 231.4  -2.1  34128  289.02 0855.24
2009/04/23 10:27:31.6    -249   -205   -117    323    343 230.5 -25.2  34122  288.94 0855.24
2009/04/23 10:27:31.7    -269   -324    -12    422    423 219.6  -1.7  34136  289.16 0855.24
2009/04/23 10:27:31.8      35   -498     78    500    507 175.9   8.9  34108  288.69 0855.24
2009/04/23 10:27:31.9      -5   -574     52    575    578 180.6   5.2  34104  288.64 0855.23
2009/04/23 10:27:32.0      85   -643      4    649    650 172.4   0.4  34110  288.72 0855.23
2009/04/23 10:27:32.1    -210   -523    -30    564    565 201.9  -3.1  34122  288.92 0855.23
2009/04/23 10:27:32.2    -197   -493     54    532    535 201.8   5.8  34118  288.85 0855.23
2009/04/23 10:27:32.3    -161   -551     90    575    583 196.3   8.9  34104  288.63 0855.23
2009/04/23 10:27:32.4    -313   -571   -104    652    661 208.7  -9.1  34114  288.80 0855.23
2009/04/23 10:27:32.5    -204   -476    -85    518    526 203.2  -9.3  34128  289.04 0855.23
2009/04/23 10:27:32.6      25   -565   -153    566    587 177.4 -15.2  34118  288.85 0855.23
2009/04/23 10:27:32.7      40   -427     77    430    437 174.6  10.2  34112  288.75 0855.23
2009/04/23 10:27:32.8      28   -357     36    359    361 175.5   5.8  34112  288.76 0855.23
2009/04/23 10:27:32.9       0   -279     24    280    282 180.0   5.0  34110  288.71 0855.23
2009/04/23 10:27:33.1      11   -273     92    274    290 177.5  18.6  34112  288.76 0855.23
2009/04/23 10:27:33.1     -54   -292     81    297    308 190.5  15.3  34114  288.80 0855.23
2009/04/23 10:27:33.2    -108   -349     23    366    367 197.3   3.6  34112  288.77 0855.23
2009/04/23 10:27:33.3     -16   -362    -52    363    367 182.6  -8.2  34112  288.76 0855.23
2009/04/23 10:27:33.4      -9   -269     13    270    271 182.0   2.8  34094  288.46 0855.23
2009/04/23 10:27:33.5     181   -400    164    440    469 155.6  21.5  34110  288.73 0855.23
2009/04/23 10:27:33.6     263   -358    181    445    480 143.6  23.5  34104  288.61 0855.23
2009/04/23 10:27:33.7     233   -370    156    438    466 147.8  19.6  34102  288.58 0855.23
2009/04/23 10:27:33.8     154   -351    212    384    438 156.3  31.4  34102  288.60 0855.23
2009/04/23 10:27:33.9     230   -240    137    333    360 136.3  23.6  34106  288.66 0855.22
2009/04/23 10:27:34.0     184   -155    126    241    271 130.2  29.8  34104  288.63 0855.22
2009/04/23 10:27:34.2     189   -132     95    231    249 124.9  23.8  34104  288.61 0855.22
2009/04/23 10:27:34.3     225   -196    122    299    322 131.1  23.5  34110  288.73 0855.22
2009/04/23 10:27:34.4     243   -215     38    325    328 131.4   6.8  34116  288.83 0855.22
2009/04/23 10:27:34.5     270   -117    102    295    313 113.5  19.2  34112  288.75 0855.22
2009/04/23 10:27:34.6     396     18     75    397    405  87.3  10.7  34112  288.76 0855.22
2009/04/23 10:27:34.7     224     -4     94    225    243  91.3  23.8  34118  288.85 0855.22
2009/04/23 10:27:34.8      41   -105     80    113    138 158.6  39.1  34124  288.96 0855.22
2009/04/23 10:27:34.9     135   -130     93    188    209 133.8  28.0  34112  288.75 0855.22
2009/04/23 10:27:35.0     -93   -145    -22    173    175 212.7  -7.3  34114  288.79 0855.22
2009/04/23 10:27:35.1     -91   -175    -38    198    202 207.4 -10.9  34116  288.82 0855.22
2009/04/23 10:27:35.2    -146   -134   -121    199    232 227.3 -39.2  34128  289.04 0855.22
2009/04/23 10:27:35.3    -118   -118    -85    168    188 225.1 -33.1  34132  289.11 0855.22
2009/04/23 10:27:35.4    -139   -111   -105    179    207 231.4 -37.8  34130  289.06 0855.22
2009/04/23 10:27:35.5    -129   -109     -6    169    170 229.8  -2.2  34122  288.92 0855.22
2009/04/23 10:27:35.6    -159     50   -126    167    209 287.5 -45.3  34128  289.04 0855.22
2009/04/23 10:27:35.7      95    -45   -122    106    161 115.3 -59.0  34136  289.16 0855.22
2009/04/23 10:27:35.8     103   -187      1    214    215 151.1   0.5  34128  289.04 0855.22
2009/04/23 10:27:35.9      65   -214     27    224    226 163.1   7.1  34126  289.01 0855.22
2009/04/23 10:27:36.0      98   -178     93    204    224 151.1  26.2  34124  288.97 0855.23
2009/04/23 10:27:36.1     146   -193    119    243    270 142.8  27.8  34118  288.87 0855.23
2009/04/23 10:27:36.2     146   -222    216    266    342 146.6  43.5  34112  288.76 0855.23
2009/04/23 10:27:36.3     174    -99    126    201    237 119.5  35.0  34116  288.84 0855.23
2009/04/23 10:27:36.4     165   -190    146    252    291 139.0  33.1  34114  288.78 0855.23
2009/04/23 10:27:36.5     230   -305    226    383    444 143.0  33.4  34106  288.67 0855.23
2009/04/23 10:27:36.6     159   -295    283    336    439 151.6  44.3  34120  288.90 0855.23
2009/04/23 10:27:36.7     194   -226    237    299    381 139.4  42.6  34120  288.88 0855.23
2009/04/23 10:27:36.8     263   -212    161    339    375 128.9  27.2  34126  288.98 0855.23
2009/04/23 10:27:36.9     346   -234     64    418    423 124.1   8.8  34130  289.07 0855.23
2009/04/23 10:27:37.0     235   -253    -38    346    349 137.1  -6.3  34128  289.04 0855.23
2009/04/23 10:27:37.1     252   -272     93    371    383 137.2  14.2  34126  289.01 0855.23
2009/04/23 10:27:37.2     316   -201     83    375    385 122.5  12.5  34120  288.88 0855.23
2009/04/23 10:27:37.3     194   -285    152    345    377 145.7  25.2  34116  288.82 0855.23
2009/04/23 10:27:37.4     206   -387    135    439    460 151.9  17.1  34120  288.89 0855.23
2009/04/23 10:27:37.5     303   -143     41    336    339 115.3   7.1  34126  289.01 0855.23
2009/04/23 10:27:37.6     295   -284    -25    410    411 133.9  -3.5  34120  288.90 0855.23
2009/04/23 10:27:37.7     182   -293    210    346    404 148.1  34.2  34120  288.89 0855.23
2009/04/23 10:27:37.8     134   -324    179    351    394 157.5  29.2  34122  288.93 0855.23
2009/04/23 10:27:37.9     167   -300    209    344    402 150.9  34.1  34116  288.84 0855.23
2009/04/23 10:27:38.0     204   -360    315    414    520 150.5  41.2  34120  288.90 0855.23
2009/04/23 10:27:38.1     190   -245    298    311    430 142.2  48.8  34124  288.96 0855.23
2009/04/23 10:27:38.2      24   -329    322    330    461 175.7  49.3  34130  289.05 0855.23
2009/04/23 10:27:38.3       7   -218    154    219    267 178.0  38.6  34120  288.88 0855.23
2009/04/23 10:27:38.4     132   -215     21    253    254 148.4   5.0  34124  288.95 0855.23
2009/04/23 10:27:38.5     254   -291   -114    387    404 138.8 -16.5  34124  288.96 0855.23
2009/04/23 10:27:38.6     170   -406    -74    441    448 157.3  -9.6  34126  288.99 0855.23
2009/04/23 10:27:38.7      68   -311    -26    319    321 167.6  -4.8  34124  288.97 0855.23
2009/04/23 10:27:38.8      64   -392     24    398    399 170.7   3.5  34120  288.88 0855.23
2009/04/23 10:27:38.9     231   -268    197    354    405 139.2  31.5  34120  288.89 0855.23
2009/04/23 10:27:39.0     301   -339    256    454    521 138.3  32.0  34124  288.96 0855.23
2009/04/23 10:27:39.1     129   -279    236    308    388 155.1  41.4  34126  288.98 0855.23
2009/04/23 10:27:39.2     227   -283    226    363    427 141.3  35.1  34136  289.16 0855.23
2009/04/23 10:27:39.3     -40   -468     89    470    479 185.0  10.8  34128  289.03 0855.23
2009/04/23 10:27:39.4    -159   -397    -15    428    429 201.9  -2.1  34130  289.07 0855.23
2009/04/23 10:27:39.5    -114   -603     50    614    617 190.7   4.7  34126  288.99 0855.23
2009/04/23 10:27:39.6    -202   -416     38    463    465 206.0   4.7  34124  288.95 0855.23
2009/04/23 10:27:39.7     -84   -352     37    363    365 193.5   5.9  34130  289.08 0855.23
2009/04/23 10:27:39.8     105   -231    -32    254    257 155.5  -7.2  34126  288.98 0855.23
2009/04/23 10:27:39.9     168   -112    147    202    249 123.7  39.7  34132  289.09 0855.23
2009/04/23 10:27:40.0      60   -180     55    190    198 161.5  16.3  34126  289.01 0855.23
2009/04/23 10:27:40.1      31    -91      2     97     98 161.3   1.2  34134  289.13 0855.23
2009/04/23 10:27:40.2      21   -270    115    271    294 175.5  24.3  34134  289.14 0855.23
2009/04/23 10:27:40.3      41   -244     94    248    265 170.4  22.0  34136  289.17 0855.23
2009/04/23 10:27:40.4      74   -129    122    149    192 150.1  43.7  34136  289.16 0855.23
2009/04/23 10:27:40.5      15   -223     61    224    233 176.0  15.2  34134  289.14 0855.23
2009/04/23 10:27:40.6     -77   -206     52    221    228 200.5  13.2  34132  289.11 0855.23
2009/04/23 10:27:40.7     -92   -102     57    138    149 222.3  23.1  34136  289.18 0855.23
2009/04/23 10:27:40.8     -28   -105     91    109    141 195.2  43.8  34140  289.24 0855.23
2009/04/23 10:27:40.9      11    -36     70     38     79 163.1  69.3  34138  289.21 0855.23
2009/04/23 10:27:41.0     118    -75    114    141    181 122.5  43.3  34140  289.24 0855.23
2009/04/23 10:27:41.1     148   -147    -26    209    211 134.8  -7.2  34140  289.24 0855.23
2009/04/23 10:27:41.2     130    -91    -50    160    168 125.1 -17.6  34146  289.35 0855.23
2009/04/23 10:27:41.3     164     -3    -82    165    184  91.3 -32.6  34140  289.23 0855.23
2009/04/23 10:27:41.4      92    -12     49     93    105  97.9  30.3  34134  289.13 0855.23
2009/04/23 10:27:41.5     197     55     66    205    216  74.3  17.9  34134  289.14 0855.23
2009/04/23 10:27:41.6     165     68     95    179    202  67.6  30.3  34138  289.19 0855.23
2009/04/23 10:27:41.7     175     54     65    184    196  72.7  19.6  34132  289.11 0855.23
2009/04/23 10:27:41.8     128     38     90    134    161  73.2  37.3  34134  289.14 0855.23
2009/04/23 10:27:41.9      81    -50    131     96    162 122.0  60.3  34146  289.35 0855.23
2009/04/23 10:27:42.0      79    -38    108     88    139 115.8  56.4  34152  289.43 0855.26
2009/04/23 10:27:42.1     107     28     28    111    115  74.9  14.3  34138  289.21 0855.26
2009/04/23 10:27:42.2     127     25      8    130    131  78.6   3.8  34138  289.19 0855.26
2009/04/23 10:27:42.3     115     39     44    122    129  70.9  20.4  34134  289.14 0855.26
2009/04/23 10:27:42.4     117     -9     38    118    125  94.4  17.9  34138  289.21 0855.26
2009/04/23 10:27:42.5     147    -39    -22    153    155 105.1  -8.2  34136  289.16 0855.26
2009/04/23 10:27:42.6     173   -163    -15    238    239 133.3  -3.7  34130  289.05 0855.26
2009/04/23 10:27:42.7      83   -419    -51    428    432 168.8  -6.8  34106  288.65 0855.26
2009/04/23 10:27:42.8    -109   -370    132    386    409 196.4  18.9  34120  288.88 0855.26
2009/04/23 10:27:42.9       0   -493    217    494    539 180.1  25.2  34118  288.85 0855.26
2009/04/23 10:27:43.0     -22   -552    195    553    587 182.3  19.4  34122  288.92 0855.26
2009/04/23 10:27:43.1      86   -554    203    561    597 171.1  19.9  34118  288.85 0855.26
2009/04/23 10:27:43.2     216   -511    189    555    587 157.1  18.8  34118  288.86 0855.26
2009/04/23 10:27:43.3     182   -471    206    506    546 158.8  23.5  34116  288.84 0855.26
2009/04/23 10:27:43.4     135   -481    293    500    579 164.3  32.9  34124  288.96 0855.26
2009/04/23 10:27:43.5     145   -451    266    474    543 162.1  31.7  34128  289.04 0855.26
2009/04/23 10:27:43.6     210   -430    197    479    517 153.9  23.6  34126  288.98 0855.26
2009/04/23 10:27:43.7     201   -295     84    358    368 145.7  13.2  34118  288.86 0855.26
2009/04/23 10:27:43.8      73   -215     46    228    233 161.3  11.4  34122  288.94 0855.26
2009/04/23 10:27:43.9     178   -217     25    282    284 140.6   5.2  34120  288.88 0855.26
2009/04/23 10:27:44.0     136   -236     91    273    288 150.1  18.5  34118  288.87 0855.27
2009/04/23 10:27:44.1     183   -183     86    259    274 135.0  18.5  34120  288.90 0855.27
2009/04/23 10:27:44.2     200   -145     77    248    260 126.0  17.3  34118  288.87 0855.27
2009/04/23 10:27:44.3     183   -167    100    249    268 132.4  23.0  34118  288.85 0855.27
2009/04/23 10:27:44.4     155   -136     67    207    218 131.3  18.1  34118  288.87 0855.27
2009/04/23 10:27:44.5     121   -146     76    190    204 140.4  23.0  34114  288.79 0855.27
2009/04/23 10:27:44.6      93   -166    149    191    242 150.6  41.7  34118  288.87 0855.27
2009/04/23 10:27:44.7      97   -207    175    229    288 154.7  41.6  34122  288.93 0855.27
2009/04/23 10:27:44.8     108    -97    123    146    190 131.8  44.1  34122  288.94 0855.27
2009/04/23 10:27:44.9     127   -175    189    217    287 144.2  45.8  34122  288.92 0855.27
2009/04/23 10:27:45.0     105   -168    206    199    286 147.9  51.2  34120  288.90 0855.27
2009/04/23 10:27:45.1     -22    -22    126     32    130 225.1  85.9  34130  289.08 0855.27
2009/04/23 10:27:45.2      23     23    114     33    118  45.1  83.9  34130  289.06 0855.27
2009/04/23 10:27:45.3     -26     41     92     49    104 327.4  69.3  34140  289.24 0855.27
2009/04/23 10:27:45.4       5    -17    130     18    131 161.7  90.0  34136  289.18 0855.27
2009/04/23 10:27:45.5      17   -199    211    200    290 174.9  52.0  34124  288.95 0855.27
2009/04/23 10:27:45.6      40   -118    230    125    261 161.3  68.9  34116  288.84 0855.27
2009/04/23 10:27:45.7       2   -291    214    292    362 179.5  39.9  34116  288.84 0855.27
2009/04/23 10:27:45.8     -12   -290    181    291    342 182.5  35.1  34114  288.78 0855.27
2009/04/23 10:27:45.9      -8   -281    209    282    351 181.8  40.1  34116  288.84 0855.27
2009/04/23 10:27:46.0      31   -280    174    282    331 173.5  34.9  34112  288.76 0855.26
2009/04/23 10:27:46.1     -24   -200    159    202    257 186.9  42.2  34108  288.70 0855.26
2009/04/23 10:27:46.2     -42   -139    149    146    208 197.0  50.4  34110  288.72 0855.26
2009/04/23 10:27:46.3     -80   -203    170    219    277 201.6  41.7  34112  288.76 0855.26
2009/04/23 10:27:46.4     -86   -134    183    160    243 212.6  54.3  34124  288.97 0855.26
2009/04/23 10:27:46.5    -236   -112     32    262    265 244.6   7.1  34136  289.15 0855.26
2009/04/23 10:27:46.6    -237   -123    -57    268    275 242.5 -12.2  34136  289.17 0855.26
2009/04/23 10:27:46.7    -130     13    -64    131    145 276.1 -31.7  34116  288.82 0855.26
2009/04/23 10:27:46.8    -152    -16   -129    153    200 263.8 -48.9  34122  288.92 0855.26
2009/04/23 10:27:46.9    -177   -173     -9    248    249 225.6  -2.1  34130  289.07 0855.26
2009/04/23 10:27:47.0    -211   -223     64    308    315 223.4  11.8  34128  289.03 0855.26
2009/04/23 10:27:47.1    -230    -63    -59    239    247 254.7 -13.9  34118  288.87 0855.26
2009/04/23 10:27:47.2    -205     65    -92    216    234 287.7 -29.0  34094  288.45 0855.26
2009/04/23 10:27:47.3    -122     77     28    145    148 302.4  11.0  34102  288.60 0855.26
2009/04/23 10:27:47.4    -110     29      5    114    115 285.1   2.8  34110  288.72 0855.26
2009/04/23 10:27:47.5     -45     21     76     50     90 295.4  63.6  34122  288.94 0855.26
2009/04/23 10:27:47.6     -41     64     60     77     97 327.4  42.2  34126  288.99 0855.26
2009/04/23 10:27:47.7     -79     -1    -43     80     90 269.1 -34.7  34120  288.91 0855.26
2009/04/23 10:27:47.8     -56    -47    -73     74    103 230.4 -54.9  34112  288.77 0855.26
2009/04/23 10:27:47.9       2    -48    -49     49     69 177.3 -54.5  34136  289.16 0855.26
2009/04/23 10:27:48.0      32     10   -120     34    124  71.6 -87.7  34154  289.46 0855.25
2009/04/23 10:27:48.1     -31      3   -149     32    152 276.1 -90.0  34142  289.28 0855.25
2009/04/23 10:27:48.2       5     21    -65     22     68  15.1 -85.4  34156  289.52 0855.25
2009/04/23 10:27:48.3     -21     -7    -49     23     54 250.0 -77.5  34170  289.74 0855.25
2009/04/23 10:27:48.4    -138    -62     29    152    155 245.6  11.1  34154  289.48 0855.25
2009/04/23 10:27:48.5    -110     22    -30    113    118 281.4 -15.0  34160  289.58 0855.25
2009/04/23 10:27:48.6     -51     17    -35     54     64 289.1 -40.0  34162  289.62 0855.25
2009/04/23 10:27:48.7      57     28    -95     64    114  63.8 -68.0  34174  289.82 0855.25
2009/04/23 10:27:48.8     163     20     16    165    166  83.0   5.7  34208  290.38 0855.25
2009/04/23 10:27:48.9     188     11     -7    189    190  86.5  -2.2  34200  290.25 0855.25
2009/04/23 10:27:49.0     190    -22    -45    192    198  96.8 -13.4  34206  290.36 0855.25
2009/04/23 10:27:49.1      86     41    110     96    146  64.6  54.3  34226  290.70 0855.25
2009/04/23 10:27:49.2     137     38    105    143    177  74.5  39.9  34224  290.65 0855.25
2009/04/23 10:27:49.3     159     64     72    172    186  68.0  24.1  34228  290.74 0855.25
2009/04/23 10:27:49.4      67     31     60     75     96  64.8  43.3  34224  290.65 0855.25
2009/04/23 10:27:49.5      15     31     83     35     90  25.4  75.5  34226  290.69 0855.25
2009/04/23 10:27:49.6      49     96     90    109    141  27.2  43.7  34216  290.53 0855.25
2009/04/23 10:27:49.7      51     90     77    104    129  29.4  40.1  34220  290.58 0855.25
2009/04/23 10:27:49.8     -13     64     52     66     84 348.5  42.2  34216  290.52 0855.25
2009/04/23 10:27:49.9      30     68      3     75     76  23.6   2.9  34208  290.40 0855.25
2009/04/23 10:27:50.0     111     72     54    133    143  57.1  23.0  34228  290.74 0855.25
2009/04/23 10:27:50.1     118    145     -3    188    189  39.2  -1.2  34246  291.03 0855.25
2009/04/23 10:27:50.2     165     58    119    176    212  70.5  37.3  34242  290.98 0855.25
2009/04/23 10:27:50.3     175     93    134    199    239  62.0  37.3  34218  290.55 0855.25
2009/04/23 10:27:50.4     128     35     86    133    158  74.5  36.0  34210  290.43 0855.25
2009/04/23 10:27:50.5     189     51    151    196    247  74.9  41.6  34204  290.33 0855.25
2009/04/23 10:27:50.6     194     63     93    205    225  71.8  26.4  34182  289.96 0855.25
2009/04/23 10:27:50.7      52     87    108    102    148  30.7  52.1  34202  290.28 0855.25
2009/04/23 10:27:50.8       0      3    102      4    102 355.5  90.0  34206  290.35 0855.25
2009/04/23 10:27:50.9     -25      2     82     26     86 276.1  81.2  34208  290.38 0855.25
2009/04/23 10:27:51.0     -68     22    102     72    124 288.6  61.5  34204  290.31 0855.23
2009/04/23 10:27:51.1     -26    116    117    119    166 347.1  49.8  34190  290.09 0855.23
2009/04/23 10:27:51.2     -59    124     86    138    162 334.7  35.2  34194  290.16 0855.23
2009/04/23 10:27:51.3    -118     53     41    130    137 294.4  17.4  34200  290.25 0855.23
2009/04/23 10:27:51.4     -55    -18     79     58     98 251.6  60.0  34216  290.52 0855.23
2009/04/23 10:27:51.5       9    -65     70     66     96 172.0  51.2  34212  290.47 0855.23
2009/04/23 10:27:51.6      75    -64    -26     99    103 130.4 -15.0  34198  290.21 0855.23
2009/04/23 10:27:51.7     109    -32    -36    114    119 106.4 -22.8  34186  290.02 0855.23
2009/04/23 10:27:51.8      57    -22    -74     62     96 111.7 -60.2  34176  289.85 0855.23
2009/04/23 10:27:51.9     -20     -8    -73     22     76 248.3 -86.2  34182  289.94 0855.23
2009/04/23 10:27:52.0     -87     72    -98    113    149 309.6 -49.8  34182  289.94 0855.23
2009/04/23 10:27:52.1     -41    103    -81    111    137 338.2 -44.1  34180  289.92 0855.23
2009/04/23 10:27:52.2     -41     92    -71    101    123 335.9 -43.0  34162  289.60 0855.23
2009/04/23 10:27:52.3     -49     15    -76     52     92 287.7 -67.0  34170  289.74 0855.23
2009/04/23 10:27:52.4    -166    -45    -98    173    198 254.9 -36.3  34180  289.92 0855.23
2009/04/23 10:27:52.5    -327    -46    -61    331    337 261.9 -10.5  34158  289.54 0855.23
2009/04/23 10:27:52.6    -302    -56    -70    308    316 259.4 -12.9  34124  288.95 0855.23
2009/04/23 10:27:52.7    -334    -23    -92    335    348 266.0 -15.4  34130  289.06 0855.23
2009/04/23 10:27:52.8    -353    -83    -93    363    375 256.8 -14.5  34126  289.01 0855.23
2009/04/23 10:27:52.9    -315    -41    -98    318    333 262.4 -17.2  34124  288.95 0855.23
2009/04/23 10:27:53.0    -305    -98    -41    321    324 252.2  -7.4  34128  289.02 0855.21
2009/04/23 10:27:53.1    -294    -69    -69    303    311 256.7 -12.9  34130  289.07 0855.21
2009/04/23 10:27:53.2    -185    -77   -114    201    231 247.4 -36.3  34132  289.11 0855.21
2009/04/23 10:27:53.3    -273    -72   -116    283    305 255.2 -27.8  34138  289.20 0855.21
2009/04/23 10:27:53.4    -296    -60    -88    302    314 258.5 -21.1  34136  289.17 0855.21
2009/04/23 10:27:53.5    -243   -124   -104    274    293 242.9 -26.4  34138  289.19 0855.21
2009/04/23 10:27:53.6    -241   -111    -24    266    268 245.2  -5.2  34152  289.42 0855.21
2009/04/23 10:27:53.7    -207    -98    -87    230    245 244.5 -25.9  34136  289.15 0855.21
2009/04/23 10:27:53.8    -272    -34    -60    275    282 262.8 -12.4  34156  289.51 0855.21
2009/04/23 10:27:53.9    -220   -149    -28    266    268 235.8  -6.2  34168  289.70 0855.21
2009/04/23 10:27:54.0    -270    -20    -10    271    272 265.7  -2.2  34176  289.85 0855.21
2009/04/23 10:27:54.1    -160   -102     36    190    194 237.5  11.0  34190  290.08 0855.21
2009/04/23 10:27:54.2    -249    -46     -9    254    255 259.5  -2.2  34200  290.24 0855.21
2009/04/23 10:27:54.3    -208   -129     75    245    257 238.2  17.1  34182  289.95 0855.21
2009/04/23 10:27:54.4     -15   -202     70    203    215 184.5  19.2  34156  289.52 0855.21
2009/04/23 10:27:54.5     -18   -213     33    214    217 185.1   8.8  34158  289.55 0855.21
2009/04/23 10:27:54.6     -11   -185     34    186    190 183.4  10.3  34162  289.60 0855.21
2009/04/23 10:27:54.7     -35   -176     84    180    198 191.5  27.0  34174  289.80 0855.21
2009/04/23 10:27:54.8     -93   -198    106    219    243 205.2  27.8  34160  289.58 0855.21
2009/04/23 10:27:54.9     -91   -217     95    236    254 202.9  23.0  34148  289.37 0855.21
2009/04/23 10:27:55.0     -82   -237    103    252    272 199.2  23.1  34150  289.39 0855.21
2009/04/23 10:27:55.1    -105   -291    130    310    336 200.0  24.1  34146  289.34 0855.21
2009/04/23 10:27:55.2     -83   -278    101    291    309 196.7  19.2  34138  289.19 0855.21
2009/04/23 10:27:55.3    -113   -238    102    264    283 205.5  22.1  34154  289.47 0855.21
2009/04/23 10:27:55.4     -71   -226    187    238    302 197.6  42.2  34134  289.14 0855.21
2009/04/23 10:27:55.5    -170   -233     40    289    292 216.1   8.0  34170  289.73 0855.21
2009/04/23 10:27:55.6    -105   -286     68    305    313 200.3  12.6  34132  289.09 0855.21
2009/04/23 10:27:55.7     -93   -271     77    287    298 199.1  15.0  34134  289.12 0855.21
2009/04/23 10:27:55.8     -79   -237     92    250    266 198.5  21.0  34148  289.37 0855.21
2009/04/23 10:27:55.9      31   -152     72    156    171 168.4  26.6  34156  289.50 0855.21
2009/04/23 10:27:56.0      42   -204     18    209    210 168.2   5.2  34152  289.43 0855.21
2009/04/23 10:27:56.1      12   -265     22    266    268 177.4   4.9  34150  289.41 0855.21
2009/04/23 10:27:56.2      13   -286      3    287    288 177.3   0.7  34162  289.61 0855.21
2009/04/23 10:27:56.3     -19   -407     21    408    409 182.7   3.0  34152  289.44 0855.21
2009/04/23 10:27:56.4      21   -442     41    443    446 177.2   5.3  34142  289.26 0855.21
2009/04/23 10:27:56.5     -16   -403    104    404    418 182.3  14.5  34142  289.26 0855.21
2009/04/23 10:27:56.6       0   -514    100    515    525 179.9  11.0  34134  289.14 0855.21
2009/04/23 10:27:56.7       9   -505    165    506    533 178.9  18.1  34126  289.01 0855.21
2009/04/23 10:27:56.8      86   -388    209    398    449 167.4  30.0  34130  289.07 0855.21
2009/04/23 10:27:56.9      38   -387    132    389    411 174.3  18.8  34132  289.09 0855.21
2009/04/23 10:27:57.0     154   -403     71    432    438 159.1   9.3  34126  289.00 0855.21
2009/04/23 10:27:57.1      59   -342    109    348    365 170.2  17.5  34124  288.96 0855.21
2009/04/23 10:27:57.2      26   -412     65    413    419 176.4   9.0  34126  289.00 0855.21
2009/04/23 10:27:57.3       4   -376     51    377    381 179.3   7.8  34126  288.99 0855.21
2009/04/23 10:27:57.4      26   -486     94    487    497 176.9  11.0  34124  288.95 0855.21
2009/04/23 10:27:57.5     -16   -448    207    449    494 182.1  26.5  34124  288.95 0855.21
2009/04/23 10:27:57.6     143   -278    144    313    344 152.8  26.5  34122  288.94 0855.21
2009/04/23 10:27:57.7     119   -414    140    431    454 163.9  18.0  34128  289.02 0855.21
2009/04/23 10:27:57.8     183   -350    147    395    421 152.4  21.4  34124  288.97 0855.21
2009/04/23 10:27:57.9     148   -284    159    321    358 152.4  28.4  34126  288.98 0855.21
2009/04/23 10:27:58.0     113   -361    257    379    457 162.6  37.4  34118  288.87 0855.21
2009/04/23 10:27:58.1     -29   -379    253    381    457 184.5  36.6  34124  288.95 0855.21
2009/04/23 10:27:58.2     -45   -304    157    308    345 188.5  29.1  34126  288.98 0855.21
2009/04/23 10:27:58.3     130   -252    176    284    334 152.6  34.9  34122  288.93 0855.21
2009/04/23 10:27:58.4      66   -335    227    342    410 168.8  36.6  34126  288.99 0855.21
2009/04/23 10:27:58.5       8   -219    186    220    288 177.8  44.5  34120  288.90 0855.21
2009/04/23 10:27:58.6      50    -77    124     93    155 147.0  60.0  34138  289.19 0855.21
2009/04/23 10:27:58.7      57      8    104     58    119  81.2  68.8  34134  289.14 0855.21
2009/04/23 10:27:58.8      48   -162    191    169    255 163.5  54.0  34126  289.01 0855.21
2009/04/23 10:27:58.9     187    -91    190    209    282 116.0  47.0  34138  289.19 0855.21
2009/04/23 10:27:59.0     124    -79    202    148    250 122.5  60.3  34130  289.06 0855.22
2009/04/23 10:27:59.1     286   -169    200    333    388 120.7  34.0  34126  289.01 0855.22
2009/04/23 10:27:59.2     125   -117    164    172    237 133.3  48.7  34126  288.99 0855.22
2009/04/23 10:27:59.3     -53   -284    189    289    345 190.6  36.2  34128  289.02 0855.22
2009/04/23 10:27:59.4    -109   -352    122    369    389 197.3  18.4  34124  288.96 0855.22
2009/04/23 10:27:59.5    -106   -393    182    408    446 195.2  25.8  34124  288.97 0855.22
2009/04/23 10:27:59.6    -153   -283    104    322    339 208.5  17.9  34124  288.96 0855.22
2009/04/23 10:27:59.7    -139   -280    107    313    331 206.5  18.9  34114  288.78 0855.22
2009/04/23 10:27:59.9    -169   -179     71    247    258 223.4  16.0  34122  288.92 0855.22
2009/04/23 10:27:59.9    -151   -159     79    220    233 223.4  20.2  34122  288.92 0855.22
2009/04/23 10:28:00.0    -120   -153    126    195    232 218.3  35.6  34120  288.89 0855.22
2009/04/23 10:28:00.1    -126   -127     62    180    191 224.8  19.2  34122  288.94 0855.22
2009/04/23 10:28:00.2    -251    -19    -65    252    261 265.6 -14.5  34118  288.87 0855.22
2009/04/23 10:28:00.4    -274      8     -1    275    276 271.7  -0.3  34118  288.87 0855.22
2009/04/23 10:28:00.5    -132    109     32    172    175 309.5  10.6  34120  288.91 0855.22
2009/04/23 10:28:00.6    -299   -124     17    324    325 247.4   3.0  34132  289.10 0855.22
2009/04/23 10:28:00.7    -415    -58    -77    420    428 262.0 -10.5  34116  288.83 0855.22
2009/04/23 10:28:00.8    -351    -22    -92    352    364 266.4 -14.7  34120  288.88 0855.22
2009/04/23 10:28:00.9    -325   -247    -23    409    410 232.7  -3.3  34106  288.65 0855.22
2009/04/23 10:28:01.0    -522   -190     -2    556    557 249.9  -0.3  34108  288.69 0855.22
2009/04/23 10:28:01.1    -644    153    -77    663    668 283.4  -6.7  34116  288.83 0855.21
2009/04/23 10:28:01.2    -578    185   -123    608    621 287.8 -11.5  34122  288.93 0855.21
2009/04/23 10:28:01.3    -503     18     -4    504    505 272.1  -0.5  34136  289.18 0855.21
2009/04/23 10:28:01.4    -473     32     -2    475    476 273.9  -0.3  34126  289.00 0855.21
2009/04/23 10:28:01.5    -501   -144     44    522    525 254.0   4.9  34144  289.31 0855.21
2009/04/23 10:28:01.6    -577    -72    -37    582    584 262.8  -3.7  34130  289.08 0855.21
2009/04/23 10:28:01.7    -508    -96     98    518    528 259.3  10.7  34134  289.14 0855.21
2009/04/23 10:28:01.8    -351    298    186    461    497 310.4  23.1  34190  290.08 0855.21
2009/04/23 10:28:01.9    -302    283    183    414    452 313.1  25.2  34186  290.02 0855.21
2009/04/23 10:28:02.0    -293    241    169    380    415 309.5  25.6  34224  290.67 0855.21
2009/04/23 10:28:02.1    -373    267    124    459    476 305.6  15.2  34224  290.66 0855.21
2009/04/23 10:28:02.2    -317    402    222    513    558 321.7  25.0  34202  290.28 0855.21
2009/04/23 10:28:02.3    -254    367    234    447    504 325.3  29.9  34182  289.95 0855.21
2009/04/23 10:28:02.4    -464    225     81    516    523 295.9   9.0  34188  290.06 0855.21
2009/04/23 10:28:02.5    -409    168   -129    443    461 292.3 -21.0  34150  289.41 0855.21
2009/04/23 10:28:02.6    -389    195     18    436    437 296.6   2.4  34194  290.14 0855.21
2009/04/23 10:28:02.7    -471    183    -19    506    507 291.3  -2.2  34194  290.15 0855.21
2009/04/23 10:28:02.8    -426     89     -6    436    437 281.9  -0.9  34160  289.56 0855.21
2009/04/23 10:28:02.9    -465   -126     92    482    491 254.8  10.8  34138  289.20 0855.21
2009/04/23 10:28:03.0    -292   -227    167    370    405 232.1  26.0  34150  289.40 0855.21
2009/04/23 10:28:03.1    -344     -5    181    345    389 269.1  30.0  34174  289.82 0855.21
2009/04/23 10:28:03.2    -554    108    -15    565    566 281.1  -1.6  34158  289.53 0855.21
2009/04/23 10:28:03.3    -820    275    148    866    879 288.6   9.7  34120  288.91 0855.21
2009/04/23 10:28:03.4    -773    345     41    847    849 294.1   2.8  34128  289.02 0855.21
2009/04/23 10:28:03.5    -694    383    -95    793    799 298.9  -6.9  34120  288.91 0855.21
2009/04/23 10:28:03.6    -663    455    173    805    824 304.5  12.2  34146  289.33 0855.21
2009/04/23 10:28:03.7    -509    396    198    646    676 307.9  17.1  34152  289.44 0855.21
2009/04/23 10:28:03.8    -401    175    137    438    460 293.6  17.4  34152  289.44 0855.21
2009/04/23 10:28:03.9    -433    172     -7    466    467 291.7  -0.9  34152  289.45 0855.21
2009/04/23 10:28:04.0    -337     30    111    339    357 275.1  18.1  34156  289.50 0855.21
2009/04/23 10:28:04.1    -564     38    139    566    583 273.9  13.8  34164  289.64 0855.21
2009/04/23 10:28:04.2    -551     66    -72    555    560 276.9  -7.5  34152  289.43 0855.21
2009/04/23 10:28:04.3    -332    236     -4    408    409 305.5  -0.6  34142  289.27 0855.21
2009/04/23 10:28:04.4    -401    170    -87    436    445 293.1 -11.3  34150  289.39 0855.21
2009/04/23 10:28:04.5    -488    341   -142    596    613 305.0 -13.4  34128  289.02 0855.21
2009/04/23 10:28:04.6    -452    196   -101    493    504 293.5 -11.6  34134  289.13 0855.21
2009/04/23 10:28:04.7    -509     82   -153    516    539 279.2 -16.5  34116  288.84 0855.21
2009/04/23 10:28:04.8    -530    -16   -106    531    542 268.2 -11.3  34120  288.89 0855.21
2009/04/23 10:28:04.9    -533    144   -175    553    581 285.2 -17.6  34118  288.86 0855.21
2009/04/23 10:28:05.0    -663    312   -161    733    751 295.2 -12.4  34104  288.63 0855.21
2009/04/23 10:28:05.1    -669     52    -73    672    677 274.5  -6.2  34144  289.31 0855.22
2009/04/23 10:28:05.2    -471    180    130    505    522 290.9  14.5  34148  289.37 0855.22
2009/04/23 10:28:05.3    -457    443    -69    637    641 314.1  -6.3  34128  289.04 0855.22
2009/04/23 10:28:05.4    -305    345   -173    461    492 318.6 -26.0  34108  288.69 0855.22
2009/04/23 10:28:05.5    -551    451    -85    713    719 309.3  -6.8  34106  288.66 0855.22
2009/04/23 10:28:05.6    -455    418      9    619    620 312.6   0.9  34110  288.72 0855.22
2009/04/23 10:28:05.7    -198    450    160    492    518 336.2  18.0  34122  288.93 0855.22
2009/04/23 10:28:05.8    -365    418    141    555    573 318.9  14.3  34136  289.16 0855.22
2009/04/23 10:28:05.9    -366    456   -210    585    621 321.3 -25.0  34130  289.05 0855.22
2009/04/23 10:28:06.0    -412    493      4    643    644 320.1   0.4  34138  289.20 0855.22
2009/04/23 10:28:06.1    -449    423    -94    618    626 313.3  -8.7  34146  289.33 0855.22
2009/04/23 10:28:06.2    -615    181   -122    642    654 286.4 -10.8  34142  289.28 0855.22
2009/04/23 10:28:06.3    -488    321     -6    585    586 303.4  -0.6  34136  289.17 0855.22
2009/04/23 10:28:06.4    -653    345    -48    739    741 297.9  -3.7  34128  289.04 0855.22
2009/04/23 10:28:06.5    -712    307   -183    776    798 293.3 -13.3  34126  289.00 0855.22
2009/04/23 10:28:06.6    -828    566   -276   1004   1041 304.4 -20.0  34104  288.61 0855.22
2009/04/23 10:28:06.7    -598    444    -86    746    751 306.6  -6.6  34126  289.01 0855.22
2009/04/23 10:28:06.8    -382    122     -8    402    403 287.8  -1.2  34132  289.11 0855.22
2009/04/23 10:28:06.9    -507    -38   -180    509    541 265.7 -19.5  34134  289.14 0855.22
2009/04/23 10:28:07.0    -531    -60     -4    535    536 263.5  -0.5  34136  289.18 0855.22
2009/04/23 10:28:07.1    -521     75   -190    527    560 278.3 -25.1  34120  288.91 0855.23
2009/04/23 10:28:07.2    -744    139   -310    757    818 280.6 -27.9  34112  288.75 0855.23
2009/04/23 10:28:07.3   -1015     35   -310   1016   1063 272.0 -17.0  34104  288.62 0855.23
2009/04/23 10:28:07.4    -857     24   -204    858    882 271.6 -13.4  34096  288.50 0855.23
2009/04/23 10:28:07.5    -719    234   -295    757    812 288.0 -26.9  34116  288.83 0855.23
2009/04/23 10:28:07.6    -540    161   -185    564    594 286.6 -18.2  34098  288.53 0855.23
2009/04/23 10:28:07.7    -827    128   -258    837    875 278.8 -22.1  34122  288.93 0855.23
2009/04/23 10:28:07.8    -786    135   -308    798    855 279.8 -26.7  34124  288.97 0855.23
2009/04/23 10:28:07.9    -401   -172    -88    437    446 246.8 -11.5  34136  289.17 0855.23
2009/04/23 10:28:08.0    -642    -55    -81    645    651 265.0  -7.2  34132  289.11 0855.23
2009/04/23 10:28:08.1    -559    -12    -71    560    565 268.7  -7.3  34122  288.94 0855.23
2009/04/23 10:28:08.2    -442   -119    -91    458    468 254.9 -11.3  34152  289.45 0855.23
2009/04/23 10:28:08.3    -258     14   -153    259    300 273.3 -37.9  34128  289.02 0855.23
2009/04/23 10:28:08.4    -275   -199   -109    340    357 234.1 -22.9  34148  289.37 0855.23
2009/04/23 10:28:08.5    -360   -177   -120    402    420 243.8 -16.7  34142  289.26 0855.23
2009/04/23 10:28:08.6    -433   -273   -146    512    533 237.8 -15.9  34138  289.21 0855.23
2009/04/23 10:28:08.7    -311    -64   -176    318    363 258.3 -35.8  34126  288.98 0855.23
2009/04/23 10:28:08.8    -501    168   -141    529    548 288.6 -15.0  34134  289.13 0855.23
2009/04/23 10:28:08.9    -479    178   -146    512    532 290.4 -20.7  34142  289.26 0855.23
2009/04/23 10:28:09.0    -415     99   -100    427    439 283.5 -13.3  34154  289.46 0855.23
2009/04/23 10:28:09.1    -469     -7   -115    470    484 269.1 -13.8  34174  289.81 0855.25
2009/04/23 10:28:09.2    -413     17   -125    414    432 272.4 -21.7  34166  289.68 0855.25
2009/04/23 10:28:09.3    -253    134    -99    287    304 297.9 -19.1  34172  289.76 0855.25
2009/04/23 10:28:09.4    -167    272    -43    320    323 328.4  -7.7  34166  289.66 0855.25
2009/04/23 10:28:09.5    -136    247    -85    282    295 331.1 -16.8  34178  289.86 0855.25
2009/04/23 10:28:09.6    -283    144   -100    318    334 297.0 -17.5  34132  289.11 0855.25
2009/04/23 10:28:09.7    -112    176   -202    209    290 327.5 -53.6  34122  288.93 0855.25
2009/04/23 10:28:09.8    -163    257   -217    305    374 327.5 -43.5  34126  288.99 0855.25
2009/04/23 10:28:09.9    -213     48   -265    219    343 282.8 -60.7  34126  289.00 0855.25
2009/04/23 10:28:10.0    -218     65   -200    228    303 286.6 -50.2  34130  289.07 0855.25
2009/04/23 10:28:10.1    -433    -54   -267    437    512 262.9 -38.7  34134  289.12 0855.27
2009/04/23 10:28:10.2    -490   -156    -12    515    516 252.3  -1.4  34146  289.35 0855.27
2009/04/23 10:28:10.3    -275   -188     26    334    336 235.6   4.6  34138  289.21 0855.27
2009/04/23 10:28:10.4    -288   -259    121    388    407 228.0  17.3  34142  289.28 0855.27
2009/04/23 10:28:10.5    -157   -293    141    333    361 208.3  24.5  34142  289.25 0855.27
2009/04/23 10:28:10.6    -253   -171     16    306    307 235.9   3.1  34120  288.88 0855.27
2009/04/23 10:28:10.7    -295   -139     -6    327    328 244.8  -1.1  34134  289.12 0855.27
2009/04/23 10:28:10.8    -293    -45   -121    297    320 261.2 -27.9  34154  289.46 0855.27
2009/04/23 10:28:10.9    -323    125     81    347    357 291.2  13.1  34136  289.16 0855.27
2009/04/23 10:28:11.0    -211     31    -27    214    216 278.4  -7.2  34138  289.21 0855.27
2009/04/23 10:28:11.1    -207    -26     86    209    226 262.8  23.4  34142  289.28 0855.27
2009/04/23 10:28:11.2    -167    273     -2    321    322 328.6  -0.5  34136  289.15 0855.27
2009/04/23 10:28:11.3    -254    237     25    348    349 313.1   4.2  34142  289.25 0855.27
2009/04/23 10:28:11.4    -197    269     25    334    335 323.7   4.3  34130  289.06 0855.27
2009/04/23 10:28:11.5    -243    132     45    277    281 298.6   9.3  34130  289.05 0855.27
2009/04/23 10:28:11.6    -180    -10    102    181    207 266.7  31.9  34136  289.16 0855.27
2009/04/23 10:28:11.7    -321     15    127    322    346 272.8  22.8  34138  289.20 0855.27
2009/04/23 10:28:11.8    -302    -67     89    310    323 257.4  16.0  34152  289.42 0855.27
2009/04/23 10:28:11.9    -154    137    214    207    297 311.6  51.2  34156  289.51 0855.27
2009/04/23 10:28:12.0    -159    125    149    203    251 308.2  39.9  34136  289.17 0855.27
2009/04/23 10:28:12.1    -190     -3    148    191    241 269.0  41.7  34158  289.53 0855.26
2009/04/23 10:28:12.2     -45    -71    210     85    226 212.5  77.0  34160  289.58 0855.26
2009/04/23 10:28:12.3      -9     27    135     29    138 340.0  88.5  34168  289.72 0855.26
2009/04/23 10:28:12.4    -141     36    139    146    201 284.6  48.5  34168  289.70 0855.26
2009/04/23 10:28:12.5    -165     29    107    168    199 280.1  35.5  34162  289.62 0855.26
2009/04/23 10:28:12.6    -157     42    111    163    197 285.0  37.6  34168  289.72 0855.26
2009/04/23 10:28:12.7    -187     48    163    194    253 284.6  44.1  34156  289.49 0855.26
2009/04/23 10:28:12.8    -310     43     90    314    327 278.0  16.0  34144  289.31 0855.26
2009/04/23 10:28:12.9    -298     -4     74    299    308 269.1  13.9  34152  289.42 0855.26
2009/04/23 10:28:13.0    -199     40    -23    203    205 281.4  -6.5  34166  289.69 0855.26
2009/04/23 10:28:13.1     -85     62     21    106    109 306.0  11.6  34154  289.46 0855.26
2009/04/23 10:28:13.2      98     32     95    104    140  71.6  47.9  34150  289.41 0855.26
2009/04/23 10:28:13.3     -24     24    104     34    109 315.0  80.7  34152  289.43 0855.26
2009/04/23 10:28:13.4    -233    116    113    261    284 296.4  25.1  34178  289.86 0855.26
2009/04/23 10:28:13.5    -181      5     60    182    192 271.7  18.4  34182  289.96 0855.26
2009/04/23 10:28:13.6    -198    -44     28    203    206 257.4   8.0  34160  289.58 0855.26
2009/04/23 10:28:13.7    -255      7     13    256    257 271.7   2.9  34170  289.75 0855.26
2009/04/23 10:28:13.8    -205    -41    -25    210    212 258.6  -6.9  34144  289.30 0855.26
2009/04/23 10:28:13.9     -69   -196    -59    208    216 199.4 -20.2  34146  289.35 0855.26
2009/04/23 10:28:14.0    -205   -259    -31    331    333 218.4  -5.4  34154  289.48 0855.26
2009/04/23 10:28:14.1     -93   -279     22    295    296 198.5   4.4  34150  289.41 0855.25
2009/04/23 10:28:14.2     -44   -274    103    278    296 189.1  21.0  34140  289.22 0855.25
2009/04/23 10:28:14.3     -37   -221     93    225    243 189.6  23.6  34144  289.29 0855.25
2009/04/23 10:28:14.4      86   -268    152    282    320 162.2  30.8  34118  288.87 0855.25
2009/04/23 10:28:14.5     104   -286    169    305    348 159.9  31.4  34116  288.82 0855.25
2009/04/23 10:28:14.6      88   -121    242    150    284 143.9  65.1  34130  289.05 0855.25
2009/04/23 10:28:14.7     203   -184    185    275    331 132.2  37.2  34122  288.92 0855.25
2009/04/23 10:28:14.8      74   -255    275    266    382 163.7  51.2  34132  289.10 0855.25
2009/04/23 10:28:14.9      47   -244    288    249    380 169.1  54.9  34132  289.11 0855.25
2009/04/23 10:28:15.0     127   -142    206    191    280 138.1  52.2  34134  289.14 0855.25
2009/04/23 10:28:15.1       7   -128    246    129    277 176.9  70.4  34136  289.15 0855.25
2009/04/23 10:28:15.2      28   -291    243    293    380 174.4  43.8  34126  288.98 0855.25
2009/04/23 10:28:15.3       0   -172    247    173    301 180.2  61.7  34148  289.37 0855.25
2009/04/23 10:28:15.4     -67   -187    237    199    309 200.0  56.1  34166  289.66 0855.25
2009/04/23 10:28:15.5    -127   -107    192    167    254 230.0  54.6  34192  290.13 0855.25
2009/04/23 10:28:15.6    -201   -118    213    234    316 239.6  47.0  34182  289.95 0855.25
2009/04/23 10:28:15.7    -224   -210    141    308    338 226.9  26.3  34178  289.89 0855.25
2009/04/23 10:28:15.8    -182   -284    248    338    419 212.7  39.8  34192  290.11 0855.25
2009/04/23 10:28:15.9    -282   -292    152    407    434 224.0  21.4  34144  289.29 0855.25
2009/04/23 10:28:16.0    -231   -278    168    362    399 219.8  26.6  34150  289.40 0855.25
2009/04/23 10:28:16.1    -218   -239    160    324    361 222.4  28.2  34162  289.60 0855.20
2009/04/23 10:28:16.2    -176   -291    176    341    383 211.1  29.3  34146  289.32 0855.20
2009/04/23 10:28:16.3    -104   -257     83    278    291 202.1  16.6  34136  289.17 0855.20
2009/04/23 10:28:16.4     -16   -156    258    157    302 186.2  65.7  34150  289.39 0855.20
2009/04/23 10:28:16.5    -103   -160    264    191    325 212.7  60.7  34152  289.44 0855.20
2009/04/23 10:28:16.6     -52   -201    239    208    316 194.7  54.6  34130  289.05 0855.20
2009/04/23 10:28:16.7     -42   -224    266    229    350 190.7  55.0  34128  289.03 0855.20
2009/04/23 10:28:16.8       3   -219    218    220    309 179.1  50.0  34126  289.00 0855.20
2009/04/23 10:28:16.9       4   -265    264    266    374 179.0  50.0  34130  289.08 0855.20
2009/04/23 10:28:17.0      25   -210    236    212    317 173.1  53.5  34124  288.95 0855.20
2009/04/23 10:28:17.1      -8   -158    205    159    259 183.1  58.4  34126  288.99 0855.20
2009/04/23 10:28:17.2      -9   -203    167    204    263 182.6  43.7  34118  288.85 0855.20
2009/04/23 10:28:17.3     -14   -223    132    224    260 183.8  33.4  34124  288.97 0855.20
2009/04/23 10:28:17.4      24   -256    106    258    278 174.6  23.4  34138  289.19 0855.20
2009/04/23 10:28:17.5      86   -127    120    154    195 145.8  42.2  34178  289.89 0855.20
2009/04/23 10:28:17.6       6   -149     60    150    161 177.4  23.0  34158  289.55 0855.20
2009/04/23 10:28:17.7     -25    -64     13     69     71 201.8  11.0  34164  289.65 0855.20
2009/04/23 10:28:17.8     -22    129   -108    131    169 350.2 -48.1  34166  289.69 0855.20
2009/04/23 10:28:17.9      83    208    -71    225    237  21.8 -17.6  34136  289.18 0855.20
2009/04/23 10:28:18.0     106    130   -104    168    197  39.2 -39.2  34128  289.04 0855.20
2009/04/23 10:28:18.1      69    146   -140    162    214  25.4 -49.8  34136  289.16 0855.17
2009/04/23 10:28:18.2     189    155    -40    245    249  50.5  -9.4  34132  289.10 0855.17
2009/04/23 10:28:18.3     376    114    -12    394    395  73.1  -1.8  34110  288.71 0855.17
2009/04/23 10:28:18.4     435     97    242    446    507  77.4  30.9  34126  289.00 0855.17
2009/04/23 10:28:18.5     481    185    115    516    529  68.9  12.6  34082  288.25 0855.17
2009/04/23 10:28:18.6     673     82    311    679    746  83.0  26.3  34184  289.98 0855.17
2009/04/23 10:28:18.7     688    151    519    705    875  77.6  40.0  34226  290.70 0855.17
2009/04/23 10:28:18.8     896    188    470    916   1029  78.1  29.3  34172  289.76 0855.17
2009/04/23 10:28:18.9    1047     81    315   1051   1098  85.5  16.7  34152  289.45 0855.17
2009/04/23 10:28:19.0     902    125    -28    911    912  82.1  -1.8  34142  289.26 0855.17
2009/04/23 10:28:19.1     646      0     26    647    648  90.0   2.3  34152  289.45 0855.17
2009/04/23 10:28:19.2     384     90   -111    395    411  76.7 -15.8  34158  289.55 0855.17
2009/04/23 10:28:19.3     358     65    105    364    379  79.7  16.1  34152  289.45 0855.17
2009/04/23 10:28:19.4     419    161     85    449    458  68.9  10.7  34186  290.00 0855.17
2009/04/23 10:28:19.5     513     39     91    515    524  85.6  10.0  34184  289.97 0855.17
2009/04/23 10:28:19.6     844    -38    132    845    856  92.6   8.9  34124  288.97 0855.17
2009/04/23 10:28:19.7     624    318    264    701    749  63.0  21.7  34156  289.52 0855.17
2009/04/23 10:28:19.8     677   -227    -78    715    720 108.6  -6.3  34156  289.50 0855.17
2009/04/23 10:28:19.9     559   -135     24    576    577 103.6   2.4  34164  289.64 0855.17
2009/04/23 10:28:20.0     602   -286   -149    667    684 115.4 -12.6  34172  289.78 0855.17
2009/04/23 10:28:20.1     491   -134    -79    510    517 105.3  -8.9  34150  289.40 0855.12
2009/04/23 10:28:20.2     668    297    -51    731    733  66.0  -4.0  34100  288.56 0855.12
2009/04/23 10:28:20.3     783    376     -4    869    870  64.3  -0.3  34116  288.83 0855.12
2009/04/23 10:28:20.4     903    448     95   1008   1013  63.6   5.4  34104  288.61 0855.12
2009/04/23 10:28:20.5     813    245    237    850    883  73.2  15.6  34116  288.81 0855.12
2009/04/23 10:28:20.6     421    154     14    449    450  69.8   1.9  34134  289.14 0855.12
2009/04/23 10:28:20.7     348   -130   -148    372    400 110.6 -27.4  34126  288.98 0855.12
2009/04/23 10:28:20.8     251   -256   -222    359    422 135.6 -39.0  34132  289.11 0855.12
2009/04/23 10:28:20.9     195     58    -73    204    216  73.2 -24.8  34128  289.02 0855.12
2009/04/23 10:28:21.0     129     56    -44    141    147  66.4 -22.3  34130  289.08 0855.12
2009/04/23 10:28:21.1     472    320      8    571    572  55.8   0.8  34102  288.58 0855.12
2009/04/23 10:28:21.2     792    437   -169    905    921  61.1 -10.6  34114  288.80 0855.12
2009/04/23 10:28:21.3    1040    411    -22   1119   1120  68.4  -1.2  34108  288.70 0855.12
2009/04/23 10:28:21.4    1152    454    105   1239   1244  68.5   4.9  34100  288.54 0855.12
2009/04/23 10:28:21.5     723    -79    312    728    792  96.3  24.6  34100  288.56 0855.12
2009/04/23 10:28:21.6     665   -124      9    677    678 100.6   0.8  34112  288.75 0855.12
2009/04/23 10:28:21.7     907     12    119    908    916  89.2   7.5  34094  288.45 0855.12
2009/04/23 10:28:21.8     921     -3     44    922    924  90.2   2.8  34092  288.41 0855.12
2009/04/23 10:28:21.9     495   -189    183    531    562 111.0  19.1  34096  288.48 0855.12
2009/04/23 10:28:22.0     543   -431    208    694    725 128.4  16.7  34124  288.95 0855.12
2009/04/23 10:28:22.1     470   -531    248    710    752 138.5  20.0  34118  288.85 0855.16
2009/04/23 10:28:22.2     359   -593    303    694    757 148.8  25.1  34114  288.80 0855.16
2009/04/23 10:28:22.3     572   -442    359    724    808 127.7  28.4  34104  288.61 0855.16
2009/04/23 10:28:22.4     441   -406    251    600    650 132.7  24.1  34110  288.72 0855.16
2009/04/23 10:28:22.5     242   -125    260    273    377 117.3  48.5  34114  288.79 0855.16
2009/04/23 10:28:22.6     153   -347    199    380    428 156.2  30.0  34126  289.00 0855.16
2009/04/23 10:28:22.7     -83   -409    316    418    524 191.5  40.9  34126  288.98 0855.16
2009/04/23 10:28:22.8      84   -300    303    312    434 164.2  49.2  34120  288.91 0855.16
2009/04/23 10:28:22.9     255      0     19    256    257  90.0   4.4  34118  288.85 0855.16
2009/04/23 10:28:23.0     479    226    -20    530    531  64.7  -2.2  34132  289.11 0855.16
2009/04/23 10:28:23.1     498     22     78    499    506  87.4   8.9  34130  289.08 0855.16
2009/04/23 10:28:23.2     440    -13     36    441    443  91.7   4.7  34130  289.07 0855.16
2009/04/23 10:28:23.3     272    -27    251    274    371  95.7  47.3  34142  289.28 0855.16
2009/04/23 10:28:23.4      85     40    221     95    240  64.6  75.3  34152  289.43 0855.16
2009/04/23 10:28:23.5      38   -128     56    134    145 163.5  23.6  34144  289.30 0855.16
2009/04/23 10:28:23.6      19   -137     74    139    157 172.0  30.1  34134  289.14 0855.16
2009/04/23 10:28:23.7       9    -60    160     61    171 171.1  78.4  34152  289.45 0855.16
2009/04/23 10:28:23.8      23     -7     95     25     98 108.4  84.9  34154  289.46 0855.16
2009/04/23 10:28:23.9      17    -64     98     67    118 164.9  62.6  34148  289.38 0855.16
2009/04/23 10:28:24.0      15   -145     90    146    171 173.8  34.8  34142  289.26 0855.16
2009/04/23 10:28:24.1     -44   -179    101    185    210 193.8  31.0  34146  289.35 0855.16
2009/04/23 10:28:24.2    -178    -79    -27    195    197 246.0  -8.0  34150  289.41 0855.16
2009/04/23 10:28:24.3     -62    -66     41     91     99 223.2  26.2  34156  289.50 0855.16
2009/04/23 10:28:24.4      15   -166    105    167    197 174.7  35.5  34166  289.69 0855.16
2009/04/23 10:28:24.5     -15     21    -15     26     30 323.9 -37.9  34152  289.43 0855.16
2009/04/23 10:28:24.6    -127     59     38    141    147 294.8  15.3  34154  289.48 0855.16
2009/04/23 10:28:24.7    -222    -17    100    223    244 265.6  25.9  34156  289.51 0855.16
2009/04/23 10:28:24.8    -242    -20    -79    243    256 265.2 -18.1  34148  289.36 0855.16
2009/04/23 10:28:24.9    -114    163     31    200    203 325.0   8.9  34148  289.38 0855.16
2009/04/23 10:28:25.0     -15     48    192     51    198 342.2  84.9  34172  289.79 0855.16
2009/04/23 10:28:25.1     243    408   -191    476    512  30.8 -27.4  34164  289.64 0855.16
2009/04/23 10:28:25.2     145    178   -330    230    402  39.2 -66.1  34146  289.33 0855.16
2009/04/23 10:28:25.3     122    344     31    366    368  19.5   4.9  34172  289.76 0855.16
2009/04/23 10:28:25.4     131    290     -9    319    320  24.3  -1.7  34172  289.76 0855.16
2009/04/23 10:28:25.5      41    261     42    265    269   9.1   9.0  34176  289.85 0855.16
2009/04/23 10:28:25.6      -6    123    112    124    167 356.9  46.9  34166  289.67 0855.16
2009/04/23 10:28:25.7     -64     25    107     69    127 291.7  64.6  34166  289.67 0855.16
2009/04/23 10:28:25.8       5    -95     37     96    102 176.9  22.0  34160  289.58 0855.16
2009/04/23 10:28:25.9     -54    -42      5     69     70 232.2   4.9  34162  289.62 0855.16
2009/04/23 10:28:26.0    -165   -105    -32    196    199 237.5  -9.4  34162  289.60 0855.16
2009/04/23 10:28:26.1    -166    -93     23    191    193 240.7   7.1  34168  289.70 0855.17
2009/04/23 10:28:26.2    -134   -121     35    181    185 227.8  11.0  34162  289.62 0855.17
2009/04/23 10:28:26.3     -75    -75     46    107    116 225.0  24.6  34162  289.60 0855.17
2009/04/23 10:28:26.4     -45   -101     45    111    119 204.1  23.1  34160  289.57 0855.17
2009/04/23 10:28:26.5    -126   -221     71    255    265 209.6  15.6  34150  289.41 0855.17
2009/04/23 10:28:26.7     -84   -268     55    281    287 197.4  11.1  34154  289.46 0855.17
2009/04/23 10:28:26.8     -88   -253     20    268    269 199.2   4.4  34158  289.54 0855.17
2009/04/23 10:28:26.9    -151   -196    116    248    273 217.6  27.1  34164  289.64 0855.17
2009/04/23 10:28:27.0    -130   -244    144    277    312 208.1  29.8  34164  289.64 0855.17
2009/04/23 10:28:27.0    -205   -180     99    273    291 228.7  19.9  34170  289.73 0855.17
2009/04/23 10:28:27.2    -193   -335     40    387    390 210.0   5.9  34188  290.04 0855.17
2009/04/23 10:28:27.3    -138   -314     60    344    350 203.8   9.9  34202  290.27 0855.17
2009/04/23 10:28:27.4    -243   -275     92    368    380 221.5  14.2  34176  289.84 0855.17
2009/04/23 10:28:27.5     -52   -190    221    198    296 195.4  53.5  34182  289.95 0855.17
2009/04/23 10:28:27.6     -62   -152    224    165    278 202.1  60.3  34156  289.51 0855.17
2009/04/23 10:28:27.7       3    -62    206     63    215 176.4  82.5  34138  289.21 0855.17
2009/04/23 10:28:27.8      22    -67    130     71    148 161.3  68.9  34142  289.28 0855.17
2009/04/23 10:28:27.9      77   -184    100    200    223 157.1  28.7  34134  289.14 0855.17
2009/04/23 10:28:28.0     -74   -252    157    263    306 196.5  33.5  34132  289.10 0855.17
2009/04/23 10:28:28.1     -24   -261    218    263    341 185.3  44.0  34136  289.17 0855.17
2009/04/23 10:28:28.2     -18   -279    173    280    329 183.8  34.8  34148  289.37 0855.19
2009/04/23 10:28:28.3      21   -242    137    243    278 174.9  31.9  34138  289.20 0855.19
2009/04/23 10:28:28.4      51   -216    173    223    282 166.6  41.7  34138  289.19 0855.19
2009/04/23 10:28:28.5      42   -121    157    129    203 160.8  56.4  34140  289.23 0855.19
2009/04/23 10:28:28.6      60    -28    157     67    170 115.4  75.5  34140  289.24 0855.19
2009/04/23 10:28:28.7      93      4    206     94    226  87.4  73.8  34132  289.11 0855.19
2009/04/23 10:28:28.8      99      2    183    100    208  88.3  69.1  34130  289.08 0855.19
2009/04/23 10:28:28.9     227     76    215    240    322  71.4  46.6  34122  288.92 0855.19
2009/04/23 10:28:29.0     213     41    205    217    298  79.0  48.0  34106  288.66 0855.19
2009/04/23 10:28:29.1     252     86    256    267    369  71.2  48.8  34096  288.49 0855.19
2009/04/23 10:28:29.2     207      0    287    208    354  90.0  60.6  34104  288.63 0855.19
2009/04/23 10:28:29.3     380    -16    227    381    443  92.5  33.5  34098  288.53 0855.19
2009/04/23 10:28:29.4     397    208    348    449    568  62.3  41.7  34138  289.19 0855.19
2009/04/23 10:28:29.5     380    292    348    480    592  52.5  39.5  34152  289.45 0855.19
2009/04/23 10:28:29.6     391    233    338    456    567  59.3  40.2  34162  289.60 0855.19
2009/04/23 10:28:29.7     547    182    338    577    668  71.6  33.1  34152  289.43 0855.19
2009/04/23 10:28:29.8     429    -50    316    432    535  96.7  39.7  34126  289.00 0855.19
2009/04/23 10:28:29.9     567    106    409    577    707  79.4  38.8  34132  289.09 0855.19
2009/04/23 10:28:30.0     537     82    354    544    649  81.3  36.2  34188  290.03 0855.19
2009/04/23 10:28:30.1     443      3    443    444    627  89.5  50.1  34142  289.27 0855.19
2009/04/23 10:28:30.2     517     36    520    519    734  86.0  50.1  34128  289.02 0855.19
2009/04/23 10:28:30.3     593    285    374    659    757  64.3  32.2  34104  288.62 0855.19
2009/04/23 10:28:30.4     616    277    456    676    815  65.8  37.2  34126  288.98 0855.19
2009/04/23 10:28:30.5     673    112    509    683    851  80.5  40.4  34116  288.83 0855.19
2009/04/23 10:28:30.6     531    232    330    580    667  66.4  32.2  34126  288.99 0855.19
2009/04/23 10:28:30.7     551    130    270    567    628  76.7  27.3  34148  289.37 0855.19
2009/04/23 10:28:30.8     573     40    289    575    643  86.0  28.7  34132  289.09 0855.19
2009/04/23 10:28:30.9     513     14    301    514    595  88.4  33.1  34136  289.15 0855.19
2009/04/23 10:28:31.0     492     10    258    493    556  88.8  29.8  34160  289.58 0855.19
2009/04/23 10:28:31.1     396    -30    225    398    457  94.4  31.9  34144  289.31 0855.19
2009/04/23 10:28:31.2     476     98    176    487    519  78.3  19.9  34136  289.18 0855.21
2009/04/23 10:28:31.3     410     68     91    416    426  80.5  12.4  34122  288.94 0855.21
2009/04/23 10:28:31.4     438    261     52    510    513  59.2   5.9  34158  289.54 0855.21
2009/04/23 10:28:31.5     528    174     27    557    558  71.7   2.8  34240  290.92 0855.21
2009/04/23 10:28:31.6     568    171    116    594    606  73.2  11.1  34228  290.71 0855.21
2009/04/23 10:28:31.7     707    257    185    753    776  70.0  13.8  34212  290.45 0855.21
2009/04/23 10:28:31.8     880    280    141    924    935  72.3   8.7  34206  290.35 0855.21
2009/04/23 10:28:31.9     878    156    303    892    943  79.9  18.8  34188  290.06 0855.21
2009/04/23 10:28:32.0     879    229    514    909   1044  75.4  32.0  34240  290.92 0855.21
2009/04/23 10:28:32.1     807    210    638    834   1050  75.4  41.3  34114  288.79 0855.21
2009/04/23 10:28:32.2     895    298    475    944   1056  71.6  28.8  34096  288.50 0855.21
2009/04/23 10:28:32.3     541    141     67    560    565  75.3   6.9  34136  289.18 0855.21
2009/04/23 10:28:32.4     869    -53      7    871    872  93.5   0.5  34130  289.06 0855.21
2009/04/23 10:28:32.5    1085    148    103   1095   1101  82.2   5.4  34112  288.75 0855.21
2009/04/23 10:28:32.6     841    254    -63    879    882  73.2  -4.1  34092  288.42 0855.21
2009/04/23 10:28:32.7     571   -259    230    628    668 114.4  21.0  34110  288.72 0855.21
2009/04/23 10:28:32.8     574    -71    280    579    643  97.1  27.7  34126  288.98 0855.21
2009/04/23 10:28:32.9     428    -48    272    431    509  96.5  35.3  34130  289.06 0855.21
2009/04/23 10:28:33.0     357   -314    332    476    580 131.3  38.4  34106  288.65 0855.21
2009/04/23 10:28:33.1     406   -192    291    450    535 115.4  35.7  34108  288.68 0855.21
2009/04/23 10:28:33.2     271   -217    210    348    406 128.8  34.1  34108  288.69 0855.25
2009/04/23 10:28:33.3     228   -380    352    444    566 149.0  42.6  34104  288.62 0855.25
2009/04/23 10:28:33.4     216   -429    368    481    605 153.3  41.3  34104  288.62 0855.25
2009/04/23 10:28:33.5      79   -441    326    449    554 169.8  39.5  34114  288.79 0855.25
2009/04/23 10:28:33.6     -35   -475    293    477    559 184.3  34.5  34138  289.19 0855.25
2009/04/23 10:28:33.7     -66   -606    247    610    658 186.3  23.2  34110  288.74 0855.25
2009/04/23 10:28:33.8     126   -506    269    522    587 166.0  29.3  34102  288.60 0855.25
2009/04/23 10:28:33.9      22   -491    199    492    530 177.4  23.1  34100  288.57 0855.25
2009/04/23 10:28:34.0      -2   -454      9    455    456 180.3   1.2  34124  288.97 0855.25
2009/04/23 10:28:34.1      96   -242     36    261    264 158.2   8.0  34118  288.85 0855.25
2009/04/23 10:28:34.2    -301   -283   -123    414    433 226.8 -16.6  34122  288.92 0855.25
2009/04/23 10:28:34.3    -224   -290    -20    367    368 217.6  -3.2  34128  289.04 0855.25
2009/04/23 10:28:34.4    -170   -374    171    412    446 204.5  23.9  34136  289.16 0855.25
2009/04/23 10:28:34.5    -188   -365    212    411    462 207.3  29.3  34148  289.38 0855.25
2009/04/23 10:28:34.6     -71   -263    346    273    440 195.2  57.8  34146  289.32 0855.25
2009/04/23 10:28:34.7    -238   -151    227    282    362 237.6  43.0  34122  288.93 0855.25
2009/04/23 10:28:34.8    -149     46    318    157    354 287.3  71.9  34118  288.87 0855.25
2009/04/23 10:28:34.9      -4    146    337    147    367 358.2  74.9  34112  288.76 0855.25
2009/04/23 10:28:35.0     193    215    349    289    453  41.9  56.3  34124  288.97 0855.25
2009/04/23 10:28:35.1     -49    407    291    410    502 353.1  38.8  34124  288.96 0855.25
2009/04/23 10:28:35.2     199    240    189    312    364  39.6  34.1  34112  288.77 0855.26
2009/04/23 10:28:35.3     337    244     93    417    428  54.0  12.6  34116  288.82 0855.26
2009/04/23 10:28:35.4     383    278    142    474    495  54.0  16.7  34114  288.79 0855.26
2009/04/23 10:28:35.5     268    225    168    351    389  50.0  27.3  34118  288.86 0855.26
2009/04/23 10:28:35.6     395    202    147    444    468  62.9  18.4  34124  288.97 0855.26
2009/04/23 10:28:35.7     406     99    165    419    450  76.2  23.0  34120  288.90 0855.26
2009/04/23 10:28:35.8     355     61    321    361    483  80.2  46.3  34102  288.60 0855.26
2009/04/23 10:28:35.9     181     51    318    189    369  74.3  66.5  34112  288.76 0855.26
2009/04/23 10:28:36.0     197     12    271    198    335  86.3  60.5  34122  288.93 0855.26
2009/04/23 10:28:36.1     368    181    285    411    500  63.8  38.3  34090  288.40 0855.26
2009/04/23 10:28:36.2     219    128    234    254    345  59.6  47.6  34088  288.34 0855.26
2009/04/23 10:28:36.3     289    161    255    331    417  60.9  41.5  34096  288.49 0855.26
2009/04/23 10:28:36.4     276    145    363    313    479  62.2  54.9  34112  288.77 0855.26
2009/04/23 10:28:36.5     275    159    302    318    438  60.0  48.5  34138  289.21 0855.26
2009/04/23 10:28:36.6     183    132    327    226    397  54.1  62.1  34176  289.84 0855.26
2009/04/23 10:28:36.7      81    156    280    176    330  27.4  64.8  34200  290.24 0855.26
2009/04/23 10:28:36.8     272    160    461    316    558  59.4  62.5  34172  289.78 0855.26
2009/04/23 10:28:36.9     243     73    424    254    494  73.2  66.3  34190  290.07 0855.26
2009/04/23 10:28:37.0     185     30    328    188    378  80.5  67.7  34144  289.31 0855.26
2009/04/23 10:28:37.1      12     61    268     63    275  11.5  87.0  34124  288.97 0855.26
2009/04/23 10:28:37.2     -39     44    111     60    126 318.6  69.3  34122  288.94 0855.27
2009/04/23 10:28:37.3     -26     59    163     65    175 335.5  77.1  34120  288.91 0855.27
2009/04/23 10:28:37.4     -76     38     98     86    130 296.6  54.3  34136  289.18 0855.27
2009/04/23 10:28:37.5     -63    -54    -29     84     89 229.6 -19.1  34142  289.26 0855.27
2009/04/23 10:28:37.6       8    -53    -66     54     85 171.1 -60.8  34144  289.31 0855.27
2009/04/23 10:28:37.7     102    -27    -90    106    139 105.1 -48.7  34148  289.36 0855.27
2009/04/23 10:28:37.8     152     -6    -53    153    161  92.6 -24.0  34144  289.30 0855.27
2009/04/23 10:28:37.9     257     19    -90    258    273  85.7 -24.4  34134  289.12 0855.27
2009/04/23 10:28:38.0     260    -86    -77    275    285 108.4 -20.2  34124  288.97 0855.27
2009/04/23 10:28:38.1     232   -176    -24    292    294 127.1  -4.9  34134  289.12 0855.27
2009/04/23 10:28:38.2     288   -216    -43    361    364 126.9  -6.8  34126  288.98 0855.27
2009/04/23 10:28:38.3     257   -255    -34    363    365 134.8  -5.4  34128  289.04 0855.27
2009/04/23 10:28:38.4     207   -378      2    432    433 151.3   0.4  34132  289.11 0855.27
2009/04/23 10:28:38.5     291   -303    151    421    447 136.2  20.6  34130  289.07 0855.27
2009/04/23 10:28:38.6     317   -197     62    374    380 121.8   9.5  34116  288.84 0855.27
2009/04/23 10:28:38.7      97      7    115     98    151  85.6  55.8  34118  288.86 0855.27
2009/04/23 10:28:38.8    -212    112     -2    240    241 297.9  -0.5  34120  288.90 0855.27
2009/04/23 10:28:38.9     -99    145    100    176    202 325.7  32.4  34128  289.04 0855.27
2009/04/23 10:28:39.0    -174    170   -104    244    265 314.2 -29.0  34134  289.12 0855.27
2009/04/23 10:28:39.1      27     24   -111     37    117  48.7 -85.4  34120  288.89 0855.27
2009/04/23 10:28:39.2     229    -12     69    230    241  93.0  16.8  34136  289.15 0855.27
2009/04/23 10:28:39.3     246     68    237    256    348  74.5  47.8  34136  289.15 0855.27
2009/04/23 10:28:39.4     308     61    288    315    426  78.8  47.1  34128  289.04 0855.27
2009/04/23 10:28:39.5     277    258    217    379    436  47.1  32.4  34136  289.16 0855.27
2009/04/23 10:28:39.6     269    354    291    445    531  37.2  36.3  34124  288.96 0855.27
2009/04/23 10:28:39.7    -136   -217    131    257    288 212.1  29.2  34126  289.00 0855.27
2009/04/23 10:28:39.8     128   -201    -13    239    240 147.5  -3.1  34132  289.09 0855.27
2009/04/23 10:28:39.9     250   -352    -54    432    436 144.6  -7.2  34116  288.83 0855.27
2009/04/23 10:28:40.0      99   -313     55    329    334 162.4   9.5  34122  288.94 0855.27
2009/04/23 10:28:40.1     214   -227     82    313    324 136.7  14.7  34120  288.90 0855.27
2009/04/23 10:28:40.2     131    -35    100    136    168 105.0  40.1  34122  288.94 0855.27
2009/04/23 10:28:40.3     -23    -24     86     34     92 223.4  77.6  34142  289.28 0855.27
2009/04/23 10:28:40.4    -101    -20    104    104    147 258.5  50.1  34136  289.18 0855.27
2009/04/23 10:28:40.5    -115    -68     84    134    158 239.3  35.2  34140  289.23 0855.27
2009/04/23 10:28:40.6      53    -83     98     99    139 147.5  50.0  34136  289.18 0855.27
2009/04/23 10:28:40.7     123    -53    164    135    212 113.5  56.4  34128  289.04 0855.27
2009/04/23 10:28:40.8     149    123    252    194    318  50.5  58.6  34134  289.12 0855.27
2009/04/23 10:28:40.9      86    148    259    172    310  30.3  63.6  34120  288.88 0855.27
2009/04/23 10:28:41.0     263     36    335    266    427  82.1  57.5  34122  288.93 0855.27
2009/04/23 10:28:41.1     410    255    307    484    573  58.1  35.5  34124  288.97 0855.27
2009/04/23 10:28:41.2     278    249     87    374    385  48.1  13.1  34128  289.04 0855.26
2009/04/23 10:28:41.3     353    313    168    473    503  48.4  19.6  34116  288.83 0855.26
2009/04/23 10:28:41.4     605    450    213    755    785  53.4  15.8  34130  289.07 0855.26
2009/04/23 10:28:41.5     427    344    178    549    578  51.1  18.0  34128  289.02 0855.26
2009/04/23 10:28:41.6      64    373    108    379    395   9.8  15.9  34128  289.04 0855.26
2009/04/23 10:28:41.7     305    279     88    414    424  47.6  12.1  34116  288.82 0855.26
2009/04/23 10:28:41.8     144    326    165    357    393  23.8  26.5  34124  288.96 0855.26
2009/04/23 10:28:41.9     158    204    106    259    279  37.8  23.4  34132  289.09 0855.26
2009/04/23 10:28:42.0       0    111   -164    112    198   0.0 -67.0  34134  289.13 0855.26
2009/04/23 10:28:42.1     193     59   -101    202    225  72.9 -32.6  34124  288.96 0855.26
2009/04/23 10:28:42.2     226    113    -27    253    255  63.4  -6.2  34126  289.00 0855.26
2009/04/23 10:28:42.3     576    175      5    603    604  73.1   0.5  34134  289.14 0855.26
2009/04/23 10:28:42.4     502    114     28    515    516  77.1   3.1  34136  289.17 0855.26
2009/04/23 10:28:42.5     218    237    -41    323    326  42.6  -7.3  34182  289.95 0855.26
2009/04/23 10:28:42.6     108    237   -125    261    289  24.5 -31.7  34178  289.86 0855.26
2009/04/23 10:28:42.7     180    217    -89    283    297  39.7 -17.6  34158  289.53 0855.26
2009/04/23 10:28:42.8     232    126     -1    265    266  61.4  -0.3  34120  288.90 0855.26
2009/04/23 10:28:42.9     264     20    -91    265    281  85.7 -19.1  34122  288.93 0855.26
2009/04/23 10:28:43.0     334    -97    135    348    373 106.2  22.4  34130  289.06 0855.26
2009/04/23 10:28:43.1     407    -22     95    408    419  93.2  13.1  34134  289.14 0855.26
2009/04/23 10:28:43.2     242    188    123    307    330  52.2  23.0  34136  289.17 0855.25
2009/04/23 10:28:43.3     566    265    119    625    637  64.9  10.8  34126  288.98 0855.25
2009/04/23 10:28:43.4     503    195    290    540    612  68.8  30.7  34152  289.42 0855.25
2009/04/23 10:28:43.5     271     11    378    272    465  87.6  60.6  34146  289.34 0855.25
2009/04/23 10:28:43.6     364    219    202    425    470  59.0  27.3  34146  289.33 0855.25
2009/04/23 10:28:43.7     573    217    305    613    684  69.2  28.5  34138  289.21 0855.25
2009/04/23 10:28:43.8     322    177    310    368    481  61.1  44.3  34140  289.24 0855.25
2009/04/23 10:28:43.9     280    145    249    316    402  62.5  42.3  34136  289.18 0855.25
2009/04/23 10:28:44.0     470    171    250    501    559  70.0  28.4  34150  289.40 0855.25
2009/04/23 10:28:44.1     364    246    167    440    470  55.9  21.8  34128  289.04 0855.25
2009/04/23 10:28:44.2     532    272    116    598    610  62.9  11.0  34130  289.08 0855.25
2009/04/23 10:28:44.3     492    274    166    564    588  60.9  16.4  34122  288.93 0855.25
2009/04/23 10:28:44.4     797    197      7    822    823  76.1   0.5  34126  288.98 0855.25
2009/04/23 10:28:44.5     618    186     80    646    652  73.2   7.1  34122  288.94 0855.25
2009/04/23 10:28:44.6     429    283     40    515    517  56.6   4.5  34130  289.06 0855.25
2009/04/23 10:28:44.7     312    361    121    478    494  40.9  14.3  34188  290.03 0855.25
2009/04/23 10:28:44.8     310    288     20    424    425  47.1   2.8  34142  289.26 0855.25
2009/04/23 10:28:44.9     256    227   -122    343    365  48.4 -19.7  34128  289.03 0855.25
2009/04/23 10:28:45.0     278    276   -126    392    411  45.2 -22.9  34132  289.09 0855.25
2009/04/23 10:28:45.1     253    328   -118    415    431  37.7 -20.5  34146  289.33 0855.25
2009/04/23 10:28:45.2     126    277    112    305    324  24.5  21.0  34170  289.73 0855.21
2009/04/23 10:28:45.3     263    216    119    341    362  50.5  19.3  34166  289.67 0855.21
2009/04/23 10:28:45.4     303    162     60    344    350  61.8  10.0  34156  289.50 0855.21
2009/04/23 10:28:45.5     146    186    102    237    258  38.1  24.6  34184  289.98 0855.21
2009/04/23 10:28:45.6     100    100     53    142    151  45.2  21.0  34176  289.84 0855.21
2009/04/23 10:28:45.7     197    109    -40    226    230  61.1 -10.1  34144  289.31 0855.21
2009/04/23 10:28:45.8     209    167     22    268    270  51.3   4.9  34132  289.09 0855.21
2009/04/23 10:28:45.9     220     44     54    225    232  78.6  13.5  34128  289.04 0855.21
2009/04/23 10:28:46.0     319     44    146    322    353  82.1  26.0  34136  289.16 0855.21
2009/04/23 10:28:46.1     236    107    156    260    303  65.6  33.7  34134  289.14 0855.21
2009/04/23 10:28:46.2     300     72    138    309    338  76.5  25.7  34140  289.23 0855.21
2009/04/23 10:28:46.3     217     25    154    219    267  83.4  38.6  34144  289.29 0855.21
2009/04/23 10:28:46.4     134    -63    104    149    181 115.2  38.6  34136  289.18 0855.21
2009/04/23 10:28:46.5     134    -24    129    137    188 100.1  48.2  34140  289.24 0855.21
2009/04/23 10:28:46.6      61      0    108     62    124  90.8  67.2  34150  289.41 0855.21
2009/04/23 10:28:46.7      96    -23    120     99    155 103.7  56.4  34146  289.35 0855.21
2009/04/23 10:28:46.8     103      7     86    104    134  85.6  43.8  34144  289.31 0855.21
2009/04/23 10:28:46.9     173    -13     92    174    196  94.4  30.1  34138  289.21 0855.21
2009/04/23 10:28:47.0     241    -24     85    243    258  95.7  19.4  34136  289.15 0855.21
2009/04/23 10:28:47.1     252     26     87    254    269  83.9  18.9  34134  289.12 0855.21
2009/04/23 10:28:47.2     231     60    116    239    265  75.4  27.3  34140  289.22 0855.19
2009/04/23 10:28:47.3     211     44    164    216    271  78.1  40.9  34142  289.25 0855.19
2009/04/23 10:28:47.4     106     99    122    146    190  46.9  43.8  34148  289.38 0855.19
2009/04/23 10:28:47.5     123     36    154    129    200  73.6  55.8  34142  289.28 0855.19
2009/04/23 10:28:47.6      77     46    164     90    187  59.3  68.8  34144  289.31 0855.19
2009/04/23 10:28:47.7     103     65    210    123    243  57.6  67.0  34152  289.43 0855.19
2009/04/23 10:28:47.8      91     50    172    105    201  61.1  66.0  34152  289.43 0855.19
2009/04/23 10:28:47.9      -9     28    124     30    127 341.7  86.9  34166  289.67 0855.19
2009/04/23 10:28:48.0     -77     53    167     94    191 304.6  68.5  34168  289.72 0855.19
2009/04/23 10:28:48.1     -89     75    171    117    207 310.0  62.6  34158  289.55 0855.19
2009/04/23 10:28:48.2     -95     62    104    114    154 303.3  47.9  34160  289.58 0855.19
2009/04/23 10:28:48.3     -58    -15     93     61    111 255.0  64.1  34176  289.85 0855.19
2009/04/23 10:28:48.4      23     23    163     33    166  45.0  89.0  34190  290.09 0855.19
2009/04/23 10:28:48.5     180     82    125    199    235  65.4  35.2  34166  289.69 0855.19
2009/04/23 10:28:48.6     125    -54     40    137    143 113.6  16.3  34188  290.06 0855.19
2009/04/23 10:28:48.7     -19    -48    -74     52     90 201.8 -65.9  34194  290.14 0855.19
2009/04/23 10:28:48.8     -76    -37    -79     85    116 243.8 -52.4  34188  290.04 0855.19
2009/04/23 10:28:48.9     -84    -13    -81     86    118 260.8 -52.4  34190  290.09 0855.19
2009/04/23 10:28:49.0      76   -121    -95    143    171 147.9 -41.1  34180  289.91 0855.19
2009/04/23 10:28:49.1     135   -164    -81    213    227 140.6 -26.1  34140  289.23 0855.19
2009/04/23 10:28:49.2     153    -69     45    169    175 114.4  15.0  34142  289.26 0855.25
2009/04/23 10:28:49.3      93     30     14     98    100  71.6   8.5  34160  289.57 0855.25
2009/04/23 10:28:49.4      22     50     91     55    106  23.6  65.7  34164  289.65 0855.25
2009/04/23 10:28:49.5     -82    101    179    131    221 320.8  60.5  34154  289.48 0855.25
2009/04/23 10:28:49.6      32     84    161     91    184  20.9  68.1  34170  289.74 0855.25
2009/04/23 10:28:49.7     -21     21    131     30    134 315.0  88.0  34178  289.89 0855.25
2009/04/23 10:28:49.8     -41     -7    100     42    108 259.4  76.1  34180  289.91 0855.25
2009/04/23 10:28:49.9     -36    -74    143     83    165 206.3  67.2  34164  289.63 0855.25
2009/04/23 10:28:50.0     -80   -104     93    132    161 217.8  38.6  34164  289.63 0855.25
2009/04/23 10:28:50.1      28    -77    178     82    195 160.0  73.8  34146  289.33 0855.25
2009/04/23 10:28:50.2      24    -50    165     56    174 153.7  81.2  34144  289.30 0855.25
2009/04/23 10:28:50.3     -22   -214    274    216    348 186.0  57.7  34134  289.14 0855.25
2009/04/23 10:28:50.4     -49   -184    170    191    255 195.1  46.4  34146  289.34 0855.25
2009/04/23 10:28:50.5     -38   -113    127    120    174 198.7  51.4  34142  289.26 0855.25
2009/04/23 10:28:50.6     -93    -12     74     94    119 262.1  42.2  34146  289.35 0855.25
2009/04/23 10:28:50.7     -88      0     69     89    112 270.0  42.2  34144  289.31 0855.25
2009/04/23 10:28:50.8     -33     40     68     53     86 320.4  58.5  34158  289.55 0855.25
2009/04/23 10:28:50.9     -77    -78     53    110    122 224.7  27.3  34148  289.36 0855.25
2009/04/23 10:28:51.0     -84    -13    133     86    158 260.8  64.1  34164  289.63 0855.25
2009/04/23 10:28:51.1     -82    -66    109    106    152 231.4  50.7  34172  289.77 0855.25
2009/04/23 10:28:51.2     -18     55    126     58    138 341.7  73.1  34170  289.75 0855.27
2009/04/23 10:28:51.3     -21     -7    132     23    133 250.0  90.0  34156  289.50 0855.27
2009/04/23 10:28:51.4     -43      9    154     45    160 282.4  83.3  34158  289.55 0855.27
2009/04/23 10:28:51.5    -121    -69     76    140    159 240.2  30.8  34146  289.35 0855.27
2009/04/23 10:28:51.6    -125   -141    146    189    238 221.4  41.6  34138  289.19 0855.27
2009/04/23 10:28:51.7    -153    -41    135    159    208 254.9  44.5  34148  289.38 0855.27
2009/04/23 10:28:51.8     -64    -21    153     68    167 251.4  74.5  34158  289.55 0855.27
2009/04/23 10:28:51.9    -106    -93    182    142    230 228.7  58.2  34156  289.50 0855.27
2009/04/23 10:28:52.0    -113   -112    163    160    228 225.1  50.4  34142  289.26 0855.27
2009/04/23 10:28:52.1     -24   -182     81    184    201 187.8  25.1  34140  289.23 0855.27
2009/04/23 10:28:52.2      -6   -177     81    178    195 182.0  26.2  34140  289.23 0855.25
2009/04/23 10:28:52.3     -88   -210    125    228    260 202.7  31.3  34140  289.22 0855.25
2009/04/23 10:28:52.4     -43   -192    107    197    224 192.7  31.3  34140  289.24 0855.25
2009/04/23 10:28:52.5     -50   -200    142    207    251 194.0  37.6  34146  289.34 0855.25
2009/04/23 10:28:52.6    -133   -209     81    249    263 212.5  18.1  34142  289.27 0855.25
2009/04/23 10:28:52.7    -122   -207     85    241    256 210.5  19.4  34140  289.22 0855.25
2009/04/23 10:28:52.8     -76   -215     89    229    245 199.6  22.3  34134  289.12 0855.25
2009/04/23 10:28:52.9     -48   -236    134    242    276 191.6  31.4  34132  289.09 0855.25
2009/04/23 10:28:53.0     -55   -313     90    318    331 190.1  15.8  34142  289.25 0855.25
2009/04/23 10:28:53.1     -51   -352     48    356    360 188.3   7.8  34148  289.38 0855.25
2009/04/23 10:28:53.2      -6   -418     29    419    421 180.9   4.0  34132  289.11 0855.25
2009/04/23 10:28:53.3      -7   -378     -7    379    380 181.2  -1.2  34136  289.15 0855.25
2009/04/23 10:28:53.4     118   -340    -35    361    363 160.8  -5.6  34134  289.13 0855.25
2009/04/23 10:28:53.5      78   -327    -48    337    341 166.6  -8.1  34136  289.15 0855.25
2009/04/23 10:28:53.6     139   -215    -44    257    261 147.0  -9.8  34140  289.24 0855.25
2009/04/23 10:28:53.7     127   -155    -11    201    202 140.6  -3.2  34140  289.23 0855.25
2009/04/23 10:28:53.8      95   -169    -16    195    196 150.6  -4.9  34136  289.18 0855.25
2009/04/23 10:28:53.9      62   -164     -6    176    177 159.1  -2.2  34136  289.16 0855.25
2009/04/23 10:28:54.0     -24   -145    -13    148    149 189.7  -5.2  34136  289.16 0855.25
2009/04/23 10:28:54.2     -69   -143      2    160    161 205.9   0.8  34138  289.19 0855.25
2009/04/23 10:28:54.3    -134   -136     18    192    193 224.5   5.4  34140  289.23 0855.18
2009/04/23 10:28:54.4    -124   -119     63    172    183 226.2  20.7  34134  289.14 0855.18
2009/04/23 10:28:54.5     -50   -160      3    168    169 197.4   1.2  34134  289.13 0855.18
2009/04/23 10:28:54.6    -116   -116    -60    165    175 225.1 -24.6  34138  289.19 0855.18
2009/04/23 10:28:54.7     -65   -259    -17    268    269 194.2  -3.7  34136  289.15 0855.18
2009/04/23 10:28:54.8     -32   -296     46    298    302 186.2   8.9  34130  289.07 0855.18
2009/04/23 10:28:54.9     -24   -342     -2    343    344 184.0  -0.4  34130  289.06 0855.18
2009/04/23 10:28:55.0     -32   -369   -107    371    386 185.0 -20.9  34126  288.99 0855.18
2009/04/23 10:28:55.1    -218   -412   -139    467    488 207.9 -16.6  34130  289.06 0855.18
2009/04/23 10:28:55.2    -161   -273   -129    318    343 210.5 -27.6  34120  288.89 0855.18
2009/04/23 10:28:55.3    -248   -363    -42    440    443 214.4  -5.5  34126  289.00 0855.18
2009/04/23 10:28:55.4     -40   -481    -29    483    484 184.9  -3.5  34120  288.88 0855.18
2009/04/23 10:28:55.5      39   -439    -63    441    446 174.8  -8.2  34126  288.99 0855.18
2009/04/23 10:28:55.6     -39   -372   -179    375    415 186.1 -31.7  34132  289.11 0855.18
2009/04/23 10:28:55.7      96   -477   -163    487    514 168.6 -18.6  34124  288.96 0855.18
2009/04/23 10:28:55.8     -28   -467    -55    468    472 183.5  -6.8  34118  288.86 0855.18
2009/04/23 10:28:55.9     -40   -488    -30    490    491 184.7  -3.5  34126  289.00 0855.18
2009/04/23 10:28:56.0     161   -526     76    551    557 163.0   7.9  34120  288.89 0855.18
2009/04/23 10:28:56.1      95   -459      1    469    470 168.2   0.2  34130  289.08 0855.18
2009/04/23 10:28:56.2     -79   -320    -81    330    340 193.9 -13.9  34128  289.04 0855.18
2009/04/23 10:28:56.3     -55   -297    -38    303    306 190.6  -7.2  34128  289.03 0855.11
2009/04/23 10:28:56.4    -177   -220    -11    283    284 218.7  -2.2  34126  288.98 0855.11
2009/04/23 10:28:56.5    -138   -424     81    446    454 198.0  10.4  34122  288.94 0855.11
2009/04/23 10:28:56.6     -48   -520     82    523    530 185.3   9.0  34126  289.01 0855.11
2009/04/23 10:28:56.7     -26   -484     76    485    492 183.1   9.0  34126  289.00 0855.11
2009/04/23 10:28:56.8      20   -460     63    461    466 177.4   7.8  34128  289.04 0855.11
2009/04/23 10:28:56.9     115   -489     27    503    504 166.7   3.1  34126  289.00 0855.11
2009/04/23 10:28:57.0     235   -628    -26    671    672 159.4  -2.2  34116  288.83 0855.11
2009/04/23 10:28:57.1     162   -624     15    645    646 165.4   1.4  34112  288.77 0855.11
2009/04/23 10:28:57.2     138   -579     48    596    599 166.6   4.7  34104  288.63 0855.11
2009/04/23 10:28:57.3     125   -510     53    526    529 166.2   5.8  34116  288.82 0855.11
2009/04/23 10:28:57.4      60   -337    114    343    362 169.9  18.5  34116  288.81 0855.11
2009/04/23 10:28:57.5     -17   -321    271    322    420 183.2  44.3  34124  288.96 0855.11
2009/04/23 10:28:57.6      38   -106     52    113    124 160.0  26.6  34120  288.89 0855.11
2009/04/23 10:28:57.7     128   -151    -66    198    208 139.7 -23.6  34108  288.70 0855.11
2009/04/23 10:28:57.8     257   -378    -49    458    461 145.8  -6.2  34110  288.73 0855.11
2009/04/23 10:28:57.9     187   -432     22    471    472 156.6   2.8  34106  288.66 0855.11
2009/04/23 10:28:58.0     108   -406    138    421    444 165.0  18.2  34106  288.65 0855.11
2009/04/23 10:28:58.1      44   -525    154    528    551 175.1  16.3  34114  288.80 0855.11
2009/04/23 10:28:58.2     131   -413      9    434    435 162.3   1.2  34122  288.92 0855.11
2009/04/23 10:28:58.3     175   -399     -8    436    437 156.3  -1.2  34120  288.90 0855.12
2009/04/23 10:28:58.4     207   -471    139    515    534 156.3  15.2  34112  288.75 0855.12
2009/04/23 10:28:58.5     212   -485     80    530    537 156.4   8.6  34108  288.69 0855.12
2009/04/23 10:28:58.6     241   -695    144    736    751 160.8  11.1  34110  288.72 0855.12
2009/04/23 10:28:58.7     156   -677    114    695    705 167.0   9.3  34114  288.78 0855.12
2009/04/23 10:28:58.8     151   -552     90    573    581 164.7   9.0  34108  288.68 0855.12
2009/04/23 10:28:58.9     233   -504    104    556    566 155.2  10.6  34114  288.80 0855.12
2009/04/23 10:28:59.0     244   -538    208    591    627 155.6  19.4  34106  288.67 0855.12
2009/04/23 10:28:59.1     189   -464    236    502    554 157.8  27.1  34098  288.53 0855.12
2009/04/23 10:28:59.2     257   -509    283    571    637 153.2  28.4  34112  288.76 0855.12
2009/04/23 10:28:59.3     106   -499    327    511    606 168.0  35.6  34102  288.59 0855.12
2009/04/23 10:28:59.4     -37   -432    321    434    539 185.0  40.1  34098  288.52 0855.12
2009/04/23 10:28:59.5    -112   -301    117    322    342 200.5  20.7  34100  288.57 0855.12
2009/04/23 10:28:59.6     -50   -152     98    161    188 198.5  34.4  34108  288.70 0855.12
2009/04/23 10:28:59.7      11   -287     -5    288    289 177.8  -1.2  34114  288.80 0855.12
2009/04/23 10:28:59.8     124   -348    108    370    386 160.3  16.3  34112  288.77 0855.12
2009/04/23 10:28:59.9      11   -220    109    221    246 177.1  28.2  34104  288.61 0855.12
2009/04/23 10:29:00.0     -63   -318    125    325    348 191.2  22.2  34114  288.79 0855.12
2009/04/23 10:29:00.1     -50   -202    172    209    270 194.0  43.7  34114  288.80 0855.12
2009/04/23 10:29:00.2      32   -230    206    233    311 171.9  45.9  34120  288.90 0855.12
2009/04/23 10:29:00.3       0   -218    223    219    312 180.2  50.6  34124  288.97 0855.12
2009/04/23 10:29:00.4     -97   -130     26    163    166 216.7   9.3  34124  288.96 0855.12
2009/04/23 10:29:00.5     -42   -137     97    144    173 197.0  36.7  34118  288.86 0855.12
2009/04/23 10:29:00.6     -46    -63    126     79    148 216.1  64.7  34132  289.09 0855.12
2009/04/23 10:29:00.7      59   -136    122    149    192 156.3  43.7  34122  288.94 0855.12
2009/04/23 10:29:00.8     178   -173     68    249    259 134.2  15.3  34100  288.56 0855.12
2009/04/23 10:29:00.9      66   -279    199    287    349 166.6  38.0  34112  288.76 0855.12
2009/04/23 10:29:01.0    -156   -317    248    354    432 206.2  38.6  34114  288.78 0855.12
2009/04/23 10:29:01.1      38   -213     91    217    235 169.8  24.2  34112  288.77 0855.12
2009/04/23 10:29:01.2       3    -72    190     73    203 177.3  78.4  34122  288.92 0855.12
2009/04/23 10:29:01.3      14    -10    150     18    151 126.0  90.0  34132  289.09 0855.12
2009/04/23 10:29:01.4       2     79    146     80    166   1.8  69.1  34128  289.04 0855.12
2009/04/23 10:29:01.5     -35    129    220    134    257 344.4  65.7  34126  288.99 0855.12
2009/04/23 10:29:01.6     -24    193    146    195    243 352.9  40.6  34118  288.87 0855.12
2009/04/23 10:29:01.7    -188    200    190    275    334 316.8  38.3  34112  288.75 0855.12
2009/04/23 10:29:01.8     -90    148    268    174    319 328.8  64.1  34132  289.09 0855.12
2009/04/23 10:29:01.9    -104    163    248    194    314 327.5  58.0  34130  289.05 0855.12
2009/04/23 10:29:02.0    -377     64    194    383    429 279.7  29.2  34118  288.85 0855.12
2009/04/23 10:29:02.1    -411     22    175    412    447 273.2  24.3  34110  288.72 0855.12
2009/04/23 10:29:02.2    -320    -54    100    325    341 260.3  17.1  34110  288.71 0855.12
2009/04/23 10:29:02.3    -435    -98    157    447    473 257.2  20.2  34122  288.93 0855.13
2009/04/23 10:29:02.4    -395    -62    254    400    473 261.0  35.5  34122  288.92 0855.13
2009/04/23 10:29:02.5    -206     76    222    220    312 290.4  50.1  34122  288.93 0855.13
2009/04/23 10:29:02.6    -426   -292    290    517    592 235.5  31.7  34112  288.75 0855.13
2009/04/23 10:29:02.7    -575   -191    117    606    618 251.6  11.0  34106  288.67 0855.13
2009/04/23 10:29:02.8    -642     23     51    643    646 272.1   4.6  34106  288.67 0855.13
2009/04/23 10:29:02.9    -714     47    -46    716    718 273.8  -3.7  34104  288.64 0855.13
2009/04/23 10:29:03.0    -501   -426    245    658    702 229.6  21.4  34116  288.83 0855.13
2009/04/23 10:29:03.1    -421   -165    305    453    546 248.6  37.2  34116  288.81 0855.13
2009/04/23 10:29:03.2    -502   -330    193    601    632 236.7  17.8  34110  288.71 0855.13
2009/04/23 10:29:03.3    -649   -362    108    744    752 240.9   8.3  34122  288.92 0855.13
2009/04/23 10:29:03.4    -486   -216    219    532    575 246.0  23.6  34124  288.96 0855.13
2009/04/23 10:29:03.5    -397   -398    365    563    670 224.9  36.0  34104  288.64 0855.13
2009/04/23 10:29:03.6    -131   -313    362    340    496 202.8  52.1  34110  288.72 0855.13
2009/04/23 10:29:03.7     128   -302    285    329    435 157.0  45.5  34106  288.67 0855.13
2009/04/23 10:29:03.8    -275   -499    207    570    606 208.9  20.9  34098  288.51 0855.13
2009/04/23 10:29:03.9    -152   -290    226    328    398 207.6  37.8  34106  288.67 0855.13
2009/04/23 10:29:04.0    -213     51    147    220    264 283.5  36.7  34120  288.88 0855.13
2009/04/23 10:29:04.1    -115     63    308    132    335 298.8  75.5  34108  288.70 0855.13
2009/04/23 10:29:04.2    -212    -17    373    213    429 265.2  67.7  34102  288.59 0855.13
2009/04/23 10:29:04.3     142     15    382    143    407  83.8  78.8  34106  288.67 0855.15
2009/04/23 10:29:04.4    -173   -198    392    264    472 221.2  63.1  34116  288.82 0855.15
2009/04/23 10:29:04.5    -156      6    195    157    250 272.5  56.9  34114  288.79 0855.15
2009/04/23 10:29:04.6     -59    -60    361     85    370 224.5  86.9  34114  288.78 0855.15
2009/04/23 10:29:04.7     -69   -170    376    184    418 202.3  72.1  34106  288.66 0855.15
2009/04/23 10:29:04.8     -89   -101    359    135    383 221.4  78.5  34106  288.65 0855.15
2009/04/23 10:29:04.9      41    -37     41     56     69 132.2  39.7  34112  288.75 0855.15
2009/04/23 10:29:05.0     -63      2    -75     64     98 272.6 -59.8  34102  288.60 0855.15
2009/04/23 10:29:05.1    -139     60     13    152    153 293.5   5.0  34116  288.82 0855.15
2009/04/23 10:29:05.2     145     39    220    151    266  75.0  62.6  34114  288.78 0855.15
2009/04/23 10:29:05.3     144    -49    208    153    258 109.1  60.5  34116  288.82 0855.15
2009/04/23 10:29:05.4      -3    -57    124     58    136 183.6  73.1  34120  288.89 0855.15
2009/04/23 10:29:05.5     -91    -77     84    120    146 229.6  38.6  34104  288.64 0855.15
2009/04/23 10:29:05.6     -38   -412    390    414    568 185.4  48.0  34116  288.82 0855.15
2009/04/23 10:29:05.7    -284   -291    347    407    534 224.3  44.8  34162  289.62 0855.15
2009/04/23 10:29:05.8     -94   -245    289    263    390 201.0  53.2  34114  288.79 0855.15
2009/04/23 10:29:05.9      14   -279    257    280    380 177.1  47.5  34106  288.67 0855.15
2009/04/23 10:29:06.0     166   -407    176    440    473 157.8  23.0  34096  288.50 0855.15
2009/04/23 10:29:06.1     193   -393     45    439    442 153.8   6.0  34104  288.61 0855.15
2009/04/23 10:29:06.2     139   -392     89    417    427 160.4  12.1  34102  288.60 0855.15
2009/04/23 10:29:06.3     -25   -422     84    423    432 183.5  11.3  34106  288.65 0855.20
2009/04/23 10:29:06.4     -30   -412     74    414    421 184.2  10.2  34108  288.68 0855.20
2009/04/23 10:29:06.5     -62   -269    159    277    319 193.1  32.7  34108  288.70 0855.20
2009/04/23 10:29:06.6     -55   -328    221    333    399 189.6  36.6  34112  288.76 0855.20
2009/04/23 10:29:06.7     151   -392     27    421    422 159.0   3.7  34100  288.55 0855.20
2009/04/23 10:29:06.8     201   -345    131    400    422 149.8  18.2  34100  288.55 0855.20
2009/04/23 10:29:06.9     143   -425    134    449    469 161.3  16.6  34106  288.65 0855.20
2009/04/23 10:29:07.0      66   -434    107    440    453 171.3  13.7  34112  288.77 0855.20
2009/04/23 10:29:07.1      86   -444    185    453    489 169.0  23.5  34110  288.73 0855.20
2009/04/23 10:29:07.2     149   -491    200    514    551 163.1  22.4  34112  288.75 0855.20
2009/04/23 10:29:07.3     108   -496    152    508    531 167.7  16.7  34118  288.85 0855.20
2009/04/23 10:29:07.4      51   -411     81    415    423 172.9  11.1  34118  288.87 0855.20
2009/04/23 10:29:07.5      51   -363    100    367    381 172.0  15.3  34120  288.88 0855.20
2009/04/23 10:29:07.6     -54   -308     64    313    320 190.0  11.6  34122  288.93 0855.20
2009/04/23 10:29:07.7     -91   -239     42    256    260 200.9   9.5  34122  288.92 0855.20
2009/04/23 10:29:07.8    -168   -184     26    250    252 222.4   6.0  34126  288.98 0855.20
2009/04/23 10:29:07.9    -166   -234    128    288    315 215.4  25.6  34126  288.98 0855.20
2009/04/23 10:29:08.0    -304   -140     55    335    340 245.2   9.3  34142  289.26 0855.20
2009/04/23 10:29:08.1    -202   -142    165    247    297 234.9  37.0  34142  289.27 0855.20
2009/04/23 10:29:08.2    -169   -172    -31    242    244 224.5  -7.3  34150  289.39 0855.20
2009/04/23 10:29:08.3    -276    -68    -11    285    286 256.1  -2.2  34146  289.32 0855.17
2009/04/23 10:29:08.4    -377    -79    -67    386    392 258.1  -9.9  34134  289.13 0855.17
2009/04/23 10:29:08.5    -399   -179     33    438    440 245.8   4.3  34156  289.49 0855.17
2009/04/23 10:29:08.6    -437   -237    -54    498    502 241.5  -6.3  34146  289.35 0855.17
2009/04/23 10:29:08.7    -198   -236    -62    309    316 220.1 -11.3  34130  289.07 0855.17
2009/04/23 10:29:08.8    -291   -260     73    391    398 228.3  10.6  34120  288.91 0855.17
2009/04/23 10:29:08.9    -262   -105    -20    283    284 248.2  -4.1  34130  289.07 0855.17
2009/04/23 10:29:09.0    -347    -48    -42    351    354 262.0  -6.9  34138  289.21 0855.17
2009/04/23 10:29:09.1    -243   -176    164    301    342 234.0  30.9  34126  289.01 0855.17
2009/04/23 10:29:09.2    -201    -72     91    214    232 250.1  24.3  34146  289.35 0855.17
2009/04/23 10:29:09.3    -320   -107   -162    338    374 251.5 -31.7  34124  288.96 0855.17
2009/04/23 10:29:09.4    -211   -148    130    258    288 234.9  28.7  34136  289.15 0855.17
2009/04/23 10:29:09.5    -250   -289     -8    383    384 220.8  -1.3  34132  289.11 0855.17
2009/04/23 10:29:09.6    -293   -284      1    409    410 225.9   0.2  34136  289.16 0855.17
2009/04/23 10:29:09.7    -256   -345    -31    430    432 216.6  -4.1  34118  288.85 0855.17
2009/04/23 10:29:09.8    -254   -348    -23    431    432 216.1  -3.1  34128  289.04 0855.17
2009/04/23 10:29:09.9    -520   -379   -140    644    660 233.9 -12.3  34108  288.69 0855.17
2009/04/23 10:29:10.0    -412   -214    127    465    483 242.5  15.3  34126  289.00 0855.17
2009/04/23 10:29:10.1    -341   -264    119    432    449 232.3  15.4  34128  289.02 0855.17
2009/04/23 10:29:10.2    -398   -237      5    464    465 239.2   0.7  34126  289.00 0855.17
2009/04/23 10:29:10.3    -372    -87   -124    383    403 256.7 -18.0  34114  288.79 0855.08
2009/04/23 10:29:10.4    -372   -259     30    454    456 235.1   3.8  34126  289.00 0855.08
2009/04/23 10:29:10.5    -249   -427      3    495    496 210.3   0.4  34126  289.00 0855.08
2009/04/23 10:29:10.6    -261   -391    -56    471    475 213.7  -6.8  34124  288.95 0855.08
2009/04/23 10:29:10.7    -272   -447    -86    524    532 211.3  -9.4  34120  288.89 0855.08
2009/04/23 10:29:10.8    -176   -332     41    376    379 208.0   6.4  34122  288.93 0855.08
2009/04/23 10:29:10.9    -187   -350   -118    397    415 208.1 -16.5  34106  288.65 0855.08
2009/04/23 10:29:11.0    -409   -225   -115    467    482 241.1 -13.9  34104  288.61 0855.08
2009/04/23 10:29:11.1    -403   -123   -151    422    449 252.9 -19.7  34104  288.61 0855.08
2009/04/23 10:29:11.2    -305   -100   -140    321    350 251.8 -29.5  34098  288.52 0855.08
2009/04/23 10:29:11.3    -275    -56   -207    281    349 258.3 -44.4  34106  288.66 0855.08
2009/04/23 10:29:11.4    -167    -38   -195    172    260 257.0 -58.6  34108  288.68 0855.08
2009/04/23 10:29:11.5       8     -8   -105     12    105 133.1 -90.0  34118  288.87 0855.08
2009/04/23 10:29:11.6       0    -99   -113    100    150 180.0 -58.6  34116  288.84 0855.08
2009/04/23 10:29:11.7      45   -157   -132    164    210 164.0 -47.7  34112  288.77 0855.08
2009/04/23 10:29:11.8      55   -197   -144    205    250 164.4 -43.0  34110  288.71 0855.08
2009/04/23 10:29:11.9      37   -152   -159    157    223 166.2 -54.5  34118  288.87 0855.08
2009/04/23 10:29:12.0      64   -120   -131    137    189 151.9 -53.4  34120  288.91 0855.08
2009/04/23 10:29:12.1      63    -84    -71    106    127 143.0 -41.4  34120  288.91 0855.08
2009/04/23 10:29:12.2      67   -259    -10    268    269 165.5  -2.2  34118  288.85 0855.08
2009/04/23 10:29:12.3     -15   -200     19    201    202 184.5   5.7  34118  288.86 0855.11
2009/04/23 10:29:12.4    -159    -42    -44    165    171 255.2 -15.2  34120  288.89 0855.11
2009/04/23 10:29:12.5    -131   -322     33    348    350 202.2   5.5  34120  288.88 0855.11
2009/04/23 10:29:12.6     -28   -378     11    379    380 184.4   1.7  34120  288.88 0855.11
2009/04/23 10:29:12.7     -18   -350   -124    351    373 183.0 -19.5  34126  288.98 0855.11
2009/04/23 10:29:12.8      -4   -358    -51    359    363 180.7  -8.2  34122  288.94 0855.11
2009/04/23 10:29:12.9      24   -316      4    318    319 175.5   0.9  34122  288.92 0855.11
2009/04/23 10:29:13.0      86   -336     53    347    352 165.6   8.7  34122  288.94 0855.11
2009/04/23 10:29:13.1     191   -329     89    381    392 149.9  13.2  34122  288.93 0855.11
2009/04/23 10:29:13.2     173   -213    115    275    298 141.0  24.1  34116  288.81 0855.11
2009/04/23 10:29:13.3     130   -126    167    182    247 134.0  47.1  34122  288.92 0855.16
2009/04/23 10:29:13.4     166   -147    146    222    265 131.6  36.5  34120  288.88 0855.16
2009/04/23 10:29:13.5     238    -88    155    254    297 110.4  34.4  34118  288.87 0855.16
2009/04/23 10:29:13.6     163   -111     90    198    217 124.2  26.2  34118  288.86 0855.16
2009/04/23 10:29:13.7      93   -147     44    175    181 147.7  14.3  34114  288.80 0855.16
2009/04/23 10:29:13.8     106   -112     54    155    165 136.8  19.2  34118  288.87 0855.16
2009/04/23 10:29:13.9      88   -186     91    206    225 154.7  25.3  34116  288.82 0855.16
2009/04/23 10:29:14.0     209   -345     97    404    416 148.7  13.5  34114  288.78 0855.16
2009/04/23 10:29:14.1      96   -269    107    286    305 160.2  21.3  34114  288.78 0855.16
2009/04/23 10:29:14.2     131   -213    135    251    285 148.4  30.3  34112  288.75 0855.16
2009/04/23 10:29:14.3      18   -197    125    198    234 174.7  35.5  34116  288.82 0855.16
2009/04/23 10:29:14.4     -57   -293    104    299    317 191.1  19.2  34120  288.88 0855.16
2009/04/23 10:29:14.5    -144   -384     61    411    416 200.6   8.5  34120  288.89 0855.16
2009/04/23 10:29:14.6    -159   -273    146    317    349 210.3  26.5  34116  288.82 0855.16
2009/04/23 10:29:14.7     -84   -277    140    290    322 196.9  27.7  34118  288.85 0855.16
2009/04/23 10:29:14.8    -122   -292    136    317    344 202.7  24.8  34118  288.86 0855.16
2009/04/23 10:29:14.9     -63   -250    215    259    336 194.3  43.8  34120  288.90 0855.16
2009/04/23 10:29:15.0    -170   -360    156    399    428 205.3  22.4  34116  288.82 0855.16
2009/04/23 10:29:15.1    -175   -383    143    422    446 204.6  18.8  34112  288.75 0855.16
2009/04/23 10:29:15.2    -162   -340    177    377    416 205.5  27.1  34114  288.80 0855.16
2009/04/23 10:29:15.3    -148   -336    242    368    440 203.7  36.5  34112  288.77 0855.18
2009/04/23 10:29:15.4    -110   -364    247    381    454 196.9  36.0  34110  288.73 0855.18
2009/04/23 10:29:15.5     -34   -319    145    321    352 186.2  26.0  34112  288.76 0855.18
2009/04/23 10:29:15.6      -3   -231    254    232    344 180.9  53.0  34112  288.76 0855.18
2009/04/23 10:29:15.7      21   -276    251    277    373 175.5  46.9  34112  288.76 0855.18
2009/04/23 10:29:15.8      22   -238    250    240    346 174.7  51.3  34120  288.88 0855.18
2009/04/23 10:29:15.9      13   -146    200    147    248 174.7  60.3  34116  288.82 0855.18
2009/04/23 10:29:16.0      56   -142    258    153    299 158.2  66.7  34120  288.88 0855.18
2009/04/23 10:29:16.1     106   -112    204    155    256 136.7  59.0  34126  289.01 0855.18
2009/04/23 10:29:16.2     196   -209    170    287    333 136.8  33.3  34118  288.87 0855.18
2009/04/23 10:29:16.3     -14   -190    172    191    257 184.5  46.9  34118  288.87 0855.18
2009/04/23 10:29:16.4       3   -302     72    303    312 179.3  13.5  34114  288.80 0855.18
2009/04/23 10:29:16.5     -19   -300     -1    301    302 183.6  -0.3  34116  288.83 0855.18
2009/04/23 10:29:16.6     -16   -343    -50    344    348 182.7  -8.4  34116  288.81 0855.18
2009/04/23 10:29:16.7     -44   -371     -4    374    375 186.8  -0.7  34112  288.76 0855.18
2009/04/23 10:29:16.8    -181   -324    -66    372    378 209.1 -10.1  34116  288.84 0855.18
2009/04/23 10:29:16.9    -202   -254     48    325    329 218.5   8.5  34116  288.81 0855.18
2009/04/23 10:29:17.0    -140   -153    130    208    245 222.5  35.2  34118  288.85 0855.18
2009/04/23 10:29:17.1    -154   -253    170    297    342 211.4  32.4  34118  288.85 0855.18
2009/04/23 10:29:17.2      -7   -209    222    210    305 182.0  52.1  34126  289.00 0855.18
2009/04/23 10:29:17.3      50   -292    234    297    378 170.2  42.2  34124  288.96 0855.20
2009/04/23 10:29:17.4      95   -247    252    265    365 158.8  48.5  34122  288.93 0855.20
2009/04/23 10:29:17.5     242   -305    241    390    458 141.6  34.8  34120  288.90 0855.20
2009/04/23 10:29:17.6     272   -384    106    471    483 144.7  12.8  34110  288.73 0855.20
2009/04/23 10:29:17.7     289   -425     91    515    524 145.7  10.0  34112  288.75 0855.20
2009/04/23 10:29:17.8     208   -334    167    394    427 148.0  24.2  34110  288.73 0855.20
2009/04/23 10:29:17.9     230   -310     46    387    390 143.5   6.8  34116  288.82 0855.20
2009/04/23 10:29:18.0     211   -364     -5    421    422 149.9  -0.7  34118  288.85 0855.20
2009/04/23 10:29:18.1     243   -279     96    371    384 139.0  14.6  34112  288.76 0855.20
2009/04/23 10:29:18.2     244   -335    105    415    429 143.9  14.3  34102  288.60 0855.20
2009/04/23 10:29:18.3     117   -306     63    328    335 159.1  11.0  34108  288.69 0855.20
2009/04/23 10:29:18.4     130   -296     13    324    325 156.2   2.4  34112  288.75 0855.20
2009/04/23 10:29:18.5     127   -300     46    326    330 157.1   8.1  34112  288.76 0855.20
2009/04/23 10:29:18.6      88   -325     13    337    338 164.9   2.3  34112  288.77 0855.20
2009/04/23 10:29:18.7      62   -386     44    392    395 170.9   6.5  34118  288.86 0855.20
2009/04/23 10:29:18.8      86   -350     63    361    367 166.1  10.0  34116  288.82 0855.20
2009/04/23 10:29:18.9      93   -388     73    400    407 166.4  10.4  34116  288.82 0855.20
2009/04/23 10:29:19.0     111   -467    130    481    499 166.6  15.1  34114  288.78 0855.20
2009/04/23 10:29:19.1     135   -459    100    479    490 163.6  11.8  34110  288.71 0855.20
2009/04/23 10:29:19.2     229   -416    165    475    504 151.2  19.2  34104  288.61 0855.20
2009/04/23 10:29:19.3     153   -388    281    418    503 158.5  37.1  34108  288.69 0855.21
2009/04/23 10:29:19.4      88   -366    251    377    452 166.5  36.9  34108  288.70 0855.21
2009/04/23 10:29:19.5     322   -437    110    544    555 143.6  11.4  34104  288.63 0855.21
2009/04/23 10:29:19.6     302   -305     57    430    434 135.4   7.6  34102  288.58 0855.21
2009/04/23 10:29:19.7     192   -283    174    343    384 145.8  28.9  34110  288.71 0855.21
2009/04/23 10:29:19.8     104   -191    201    218    296 151.3  47.9  34108  288.70 0855.21
2009/04/23 10:29:19.9    -145   -227    167    270    317 212.7  34.6  34108  288.68 0855.21
2009/04/23 10:29:20.0     -65   -254     17    263    264 194.5   3.9  34108  288.70 0855.21
2009/04/23 10:29:20.1      37   -265    182    268    323 171.9  37.6  34126  288.98 0855.21
2009/04/23 10:29:20.2      28   -243    197    245    314 173.3  43.0  34128  289.03 0855.21
2009/04/23 10:29:20.3     -21   -296    215    297    366 184.2  39.5  34128  289.03 0855.21
2009/04/23 10:29:20.4     -70   -269     90    279    294 194.7  17.9  34122  288.92 0855.21
2009/04/23 10:29:20.5     -41   -226     49    230    236 190.5  12.1  34126  289.00 0855.21
2009/04/23 10:29:20.6     -37   -222     68    226    237 189.6  16.8  34120  288.90 0855.21
2009/04/23 10:29:20.7     -83   -180     66    199    210 204.7  18.4  34122  288.94 0855.21
2009/04/23 10:29:20.8     -26   -185    -27    187    189 188.0  -8.2  34120  288.91 0855.21
2009/04/23 10:29:20.9       1   -101     35    102    108 179.1  18.9  34122  288.92 0855.21
2009/04/23 10:29:21.0      36    -59     19     70     73 148.4  15.3  34122  288.92 0855.21
2009/04/23 10:29:21.1      99     42     13    108    109  66.9   6.9  34122  288.92 0855.21
2009/04/23 10:29:21.2     111     16    100    113    150  81.6  45.9  34126  288.99 0855.21
2009/04/23 10:29:21.3     128    -36    190    134    232 105.9  61.5  34132  289.11 0855.20
2009/04/23 10:29:21.4     121    -39    147    128    194 108.2  54.8  34126  289.01 0855.20
2009/04/23 10:29:21.5      14    -65    108     67    127 167.5  64.7  34132  289.09 0855.20
2009/04/23 10:29:21.6     -16    -93     69     95    117 189.8  39.7  34134  289.14 0855.20
2009/04/23 10:29:21.7     -20    -89     81     92    122 192.9  45.9  34132  289.09 0855.20
2009/04/23 10:29:21.8     -20    -37     51     43     66 209.0  55.4  34138  289.19 0855.20
2009/04/23 10:29:22.0     -66      0     30     67     73 269.2  26.2  34132  289.09 0855.20
2009/04/23 10:29:22.1     -33    -55     76     65    100 210.7  55.4  34134  289.14 0855.20
2009/04/23 10:29:22.2     -68     15     73     70    101 282.4  51.6  34142  289.28 0855.20
2009/04/23 10:29:22.3     -14     73     14     75     77 348.5  11.1  34134  289.13 0855.20
2009/04/23 10:29:22.4      33     86     82     93    123  21.4  45.9  34134  289.14 0855.20
2009/04/23 10:29:22.5      22    126     -5    129    130  10.2  -2.2  34128  289.04 0855.20
2009/04/23 10:29:22.6     -15    116   -136    118    180 352.4 -59.0  34122  288.94 0855.20
2009/04/23 10:29:22.7     -58     96    -96    113    148 328.8 -48.7  34126  289.01 0855.20
2009/04/23 10:29:22.8      -1     65   -102     66    121 359.1 -68.5  34126  289.01 0855.20
2009/04/23 10:29:22.9      66     79    -90    104    137  40.1 -50.2  34122  288.94 0855.20
2009/04/23 10:29:23.0     114     88    -56    145    155  52.3 -25.9  34122  288.94 0855.20
2009/04/23 10:29:23.1      91    125     48    155    163  36.0  17.3  34122  288.92 0855.20
2009/04/23 10:29:23.2      18    125     39    127    134   8.5  17.3  34126  288.99 0855.20
2009/04/23 10:29:23.3      -7    159     44    160    167 357.4  15.6  34120  288.91 0855.20
2009/04/23 10:29:23.4     -71    128     54    147    156 331.1  20.9  34122  288.92 0855.20
2009/04/23 10:29:23.5     -80    137    -29    159    162 329.7 -10.5  34142  289.28 0855.20
2009/04/23 10:29:23.6    -113    287     -9    309    310 338.4  -1.8  34138  289.19 0855.20
2009/04/23 10:29:23.7    -174    246     79    302    313 324.6  14.7  34128  289.02 0855.20
2009/04/23 10:29:23.8     -70     96    183    120    218 323.9  63.9  34146  289.35 0855.20
2009/04/23 10:29:23.9      -3     50    170     51    177 355.6  83.1  34136  289.16 0855.20
2009/04/23 10:29:24.0     -15    -15    107     22    109 225.0  89.1  34140  289.23 0855.20
2009/04/23 10:29:24.1      23    -25    125     35    129 136.8  83.9  34136  289.18 0855.20
2009/04/23 10:29:24.2     -32   -131    117    135    178 193.8  45.4  34122  288.92 0855.20
2009/04/23 10:29:24.3      34    -65    111     74    133 151.9  63.6  34126  289.01 0855.20
2009/04/23 10:29:24.4      60    -51    120     80    144 130.4  63.6  34128  289.04 0855.20
2009/04/23 10:29:24.5     162   -199    217    257    336 140.8  44.5  34116  288.81 0855.20
2009/04/23 10:29:24.6     302   -154    177    340    383 117.1  29.5  34122  288.93 0855.20
2009/04/23 10:29:24.7     227   -168     98    283    300 126.6  19.2  34124  288.95 0855.20
2009/04/23 10:29:24.8     279   -168     49    326    330 121.1   8.7  34126  288.99 0855.20
2009/04/23 10:29:24.9     287   -190     34    345    347 123.5   5.7  34134  289.13 0855.20
2009/04/23 10:29:25.0     251   -138     24    287    289 118.9   4.9  34134  289.12 0855.20
2009/04/23 10:29:25.1     228   -121    -10    259    260 118.0  -2.2  34134  289.12 0855.20
2009/04/23 10:29:25.2     279   -106      6    299    300 110.9   1.2  34128  289.02 0855.20
2009/04/23 10:29:25.3     298    -80    -14    309    310 105.1  -2.6  34126  288.98 0855.20
2009/04/23 10:29:25.4     206    -92     70    226    237 114.2  17.4  34120  288.88 0855.24
2009/04/23 10:29:25.5     130   -168    142    213    255 142.1  36.7  34118  288.87 0855.24
2009/04/23 10:29:25.6      33   -286    189    288    344 173.3  36.3  34112  288.75 0855.24
2009/04/23 10:29:25.7      42   -252    146    256    294 170.4  32.1  34120  288.88 0855.24
2009/04/23 10:29:25.8       5   -258    137    259    293 178.9  30.2  34118  288.85 0855.24
2009/04/23 10:29:25.9      74   -326    -73    335    344 167.2 -12.4  34120  288.88 0855.24
2009/04/23 10:29:26.0      72   -269    -61    279    286 164.9 -12.4  34120  288.90 0855.24
2009/04/23 10:29:26.1     -15   -203     12    204    205 184.5   3.6  34116  288.82 0855.24
2009/04/23 10:29:26.2    -161   -161    -18    228    229 225.0  -4.6  34112  288.75 0855.24
2009/04/23 10:29:26.3    -126   -194    -78    232    244 213.0 -23.3  34122  288.92 0855.24
2009/04/23 10:29:26.4     -72   -253    -73    264    275 196.0 -15.5  34124  288.97 0855.24
2009/04/23 10:29:26.5    -131   -147    -64    197    208 221.7 -17.9  34124  288.96 0855.24
2009/04/23 10:29:26.6    -172   -149    -63    228    237 229.1 -15.5  34120  288.90 0855.24
2009/04/23 10:29:26.7    -201   -223    -38    301    304 221.9  -7.3  34114  288.78 0855.24
2009/04/23 10:29:26.8    -286   -313    -77    425    432 222.4 -10.3  34118  288.87 0855.24
2009/04/23 10:29:26.9    -260   -260     38    369    371 225.0   5.9  34116  288.84 0855.24
2009/04/23 10:29:27.0    -236   -200      9    310    311 229.8   1.7  34112  288.76 0855.24
2009/04/23 10:29:27.1    -218    -69    121    229    259 252.3  30.2  34118  288.87 0855.24
2009/04/23 10:29:27.2    -120    -11    157    121    198 264.3  58.5  34132  289.09 0855.24
2009/04/23 10:29:27.3      33   -109    120    115    166 163.1  51.2  34134  289.13 0855.24
2009/04/23 10:29:27.4      77   -192    124    207    241 158.1  33.7  34118  288.87 0855.13
2009/04/23 10:29:27.5     121   -177     89    215    232 145.7  23.6  34122  288.92 0855.13
2009/04/23 10:29:27.6     -45   -135     28    143    146 198.7  11.1  34120  288.89 0855.13
2009/04/23 10:29:27.7     -92   -145    -33    172    176 212.5 -10.9  34118  288.86 0855.13
2009/04/23 10:29:27.8    -147   -181     15    234    235 219.2   3.8  34122  288.92 0855.13
2009/04/23 10:29:27.9     -48   -147     -7    155    156 198.3  -2.6  34120  288.91 0855.13
2009/04/23 10:29:28.0     -75   -152    -86    170    190 206.3 -33.1  34120  288.91 0855.13
2009/04/23 10:29:28.1     -29   -109    -55    113    125 195.1 -32.2  34122  288.94 0855.13
2009/04/23 10:29:28.2       4   -106    -39    107    113 177.8 -24.4  34120  288.91 0855.13
2009/04/23 10:29:28.3     -32    -68    -27     76     80 205.5 -24.4  34120  288.91 0855.13
2009/04/23 10:29:28.4      43   -210     13    215    216 168.4   3.6  34118  288.87 0855.13
2009/04/23 10:29:28.5      38   -116     62    123    137 161.7  28.7  34114  288.80 0855.13
2009/04/23 10:29:28.6       0    -76    119     77    141 180.0  64.6  34128  289.02 0855.13
2009/04/23 10:29:28.7      -7    -94    138     95    167 184.4  62.4  34126  288.99 0855.13
2009/04/23 10:29:28.8    -106    -18     29    108    112 260.3  15.3  34132  289.09 0855.13
2009/04/23 10:29:28.9     -98     50     39    111    118 297.1  19.4  34126  289.01 0855.13
2009/04/23 10:29:29.0    -127     88     11    155    156 304.6   4.4  34126  288.99 0855.13
2009/04/23 10:29:29.1    -152     81     -6    173    174 298.2  -2.2  34126  289.01 0855.13
2009/04/23 10:29:29.2    -135     64     29    150    153 295.3  11.1  34126  288.99 0855.13
2009/04/23 10:29:29.3    -112     32     61    117    131 285.9  29.3  34128  289.04 0855.13
2009/04/23 10:29:29.4    -106     54     65    120    136 297.1  30.8  34130  289.08 0855.06
2009/04/23 10:29:29.5     -91     26     73     95    119 285.9  41.7  34128  289.02 0855.06
2009/04/23 10:29:29.6     -95     25    131     99    164 285.1  59.2  34130  289.08 0855.06
2009/04/23 10:29:29.7     -91     69     93    115    147 307.3  43.7  34126  289.01 0855.06
2009/04/23 10:29:29.8     -24     47    113     53    124 332.8  73.1  34142  289.28 0855.06
2009/04/23 10:29:29.9    -117     69    111    136    175 300.6  43.7  34140  289.24 0855.06
2009/04/23 10:29:30.0    -133     21     79    135    156 279.2  33.1  34140  289.23 0855.06
2009/04/23 10:29:30.1    -105    -34     13    111    112 251.8   6.9  34134  289.14 0855.06
2009/04/23 10:29:30.2     -90    -84     61    124    138 226.9  27.3  34128  289.04 0855.06
2009/04/23 10:29:30.3     -81    -51     19     97     99 237.6  11.1  34130  289.08 0855.06
2009/04/23 10:29:30.4    -129     22     11    131    132 279.7   5.0  34132  289.09 0855.06
2009/04/23 10:29:30.5    -138      1    -12    139    140 270.8  -5.2  34132  289.11 0855.06
2009/04/23 10:29:30.6    -146     20    -41    148    154 277.9 -15.5  34132  289.09 0855.06
2009/04/23 10:29:30.7    -240     -3     -9    241    242 269.2  -2.2  34166  289.66 0855.06
2009/04/23 10:29:30.8    -172    -71    -29    187    190 247.6  -9.0  34164  289.65 0855.06
2009/04/23 10:29:30.9    -143    -70     -5    160    161 243.8  -2.1  34156  289.50 0855.06
2009/04/23 10:29:31.0    -136    -86     79    162    180 237.6  27.8  34154  289.48 0855.06
2009/04/23 10:29:31.1    -185   -157    124    243    272 229.6  29.2  34150  289.39 0855.06
2009/04/23 10:29:31.2    -127   -107     98    167    193 229.8  33.5  34146  289.35 0855.06
2009/04/23 10:29:31.3    -103     -7    121    104    159 266.1  55.0  34156  289.52 0855.06
2009/04/23 10:29:31.4    -165    -30     32    168    172 259.6  10.8  34152  289.43 0855.08
2009/04/23 10:29:31.5    -194    -11     90    195    214 266.5  26.6  34152  289.43 0855.08
2009/04/23 10:29:31.6    -121     24    152    124    196 281.4  56.4  34168  289.70 0855.08
2009/04/23 10:29:31.7     -79      1     97     80    125 270.9  56.4  34174  289.80 0855.08
2009/04/23 10:29:31.8      17     -4     72     18     74 105.1  84.9  34174  289.80 0855.08
2009/04/23 10:29:31.9     -28    -58     12     65     67 206.3  11.1  34160  289.57 0855.08
2009/04/23 10:29:32.0      40    -54      9     68     69 143.9   8.0  34158  289.53 0855.08
2009/04/23 10:29:32.1      69    -22     67     73     99 108.2  47.9  34158  289.53 0855.08
2009/04/23 10:29:32.2     100    -47     85    111    139 115.3  41.6  34148  289.36 0855.08
2009/04/23 10:29:32.3     115    -90     78    147    166 128.2  30.3  34132  289.11 0855.08
2009/04/23 10:29:32.4     110   -107     46    154    161 134.0  16.6  34128  289.02 0855.08
2009/04/23 10:29:32.5      46   -116     58    126    138 158.2  27.1  34122  288.92 0855.08
2009/04/23 10:29:32.6      27   -161     94    164    189 170.4  32.4  34124  288.97 0855.08
2009/04/23 10:29:32.7       5   -209     74    210    223 178.6  19.4  34122  288.94 0855.08
2009/04/23 10:29:32.8      24   -242    104    244    265 174.2  24.6  34122  288.93 0855.08
2009/04/23 10:29:32.9     -29   -326     80    328    338 185.2  13.8  34120  288.89 0855.08
2009/04/23 10:29:33.0      79   -345    113    354    372 167.1  17.8  34120  288.91 0855.08
2009/04/23 10:29:33.1     116   -349    210    369    424 161.5  32.3  34120  288.89 0855.08
2009/04/23 10:29:33.2      53   -336    173    341    382 171.0  29.1  34122  288.93 0855.08
2009/04/23 10:29:33.3       0   -242    251    243    349 180.0  50.9  34120  288.90 0855.08
2009/04/23 10:29:33.4      17   -226    216    227    313 175.6  48.5  34120  288.90 0855.10
2009/04/23 10:29:33.5     -51   -223    116    229    256 192.9  28.7  34122  288.92 0855.10
2009/04/23 10:29:33.6    -120   -123     45    172    178 224.3  14.7  34116  288.84 0855.10
2009/04/23 10:29:33.7    -153   -143    -58    210    217 226.9 -20.0  34116  288.82 0855.10
2009/04/23 10:29:33.8    -163   -262   -151    309    343 211.9 -32.3  34112  288.76 0855.10
2009/04/23 10:29:33.9     -35   -428    -70    430    436 184.8  -9.3  34110  288.72 0855.10
2009/04/23 10:29:34.0      37   -322     36    325    328 173.4   6.5  34092  288.43 0855.10
2009/04/23 10:29:34.1    -140   -339    -30    367    369 202.5  -4.8  34108  288.69 0855.10
2009/04/23 10:29:34.2     -58   -364   -124    369    390 189.1 -18.7  34120  288.91 0855.10
2009/04/23 10:29:34.3     -26   -386   -139    387    411 183.9 -25.0  34114  288.78 0855.10
2009/04/23 10:29:34.4    -143   -341   -111    370    387 202.8 -16.8  34110  288.71 0855.13
2009/04/23 10:29:34.5     -95   -302    -24    317    319 197.6  -4.5  34110  288.73 0855.13
2009/04/23 10:29:34.6     -99   -171     75    198    211 210.1  21.5  34112  288.77 0855.13
2009/04/23 10:29:34.7     -87   -140     72    166    180 211.9  24.9  34114  288.80 0855.13
2009/04/23 10:29:34.8      81   -301    198    312    369 164.8  35.5  34110  288.72 0855.13
2009/04/23 10:29:34.9      93   -282    132    297    325 161.7  25.7  34104  288.61 0855.13
2009/04/23 10:29:35.0      75   -400    182    408    446 169.3  25.8  34104  288.61 0855.13
2009/04/23 10:29:35.1     -15   -601    145    602    620 181.5  13.6  34104  288.64 0855.13
2009/04/23 10:29:35.2    -133   -507    130    525    541 194.7  13.9  34100  288.57 0855.13
2009/04/23 10:29:35.3    -100   -714    272    722    771 188.0  21.7  34094  288.45 0855.13
2009/04/23 10:29:35.4    -224   -710    288    745    798 197.5  22.3  34098  288.53 0855.13
2009/04/23 10:29:35.5    -184   -571    308    601    675 197.9  29.2  34096  288.50 0855.13
2009/04/23 10:29:35.6    -221   -610    269    649    702 200.0  23.8  34088  288.36 0855.13
2009/04/23 10:29:35.7     -69   -641    319    645    719 186.2  28.2  34104  288.63 0855.13
2009/04/23 10:29:35.8     -21   -593    400    594    716 182.1  37.3  34090  288.39 0855.13
2009/04/23 10:29:35.9     -60   -838    286    841    889 184.1  18.8  34088  288.34 0855.13
2009/04/23 10:29:36.0      15   -903    297    904    952 179.0  18.2  34092  288.41 0855.13
2009/04/23 10:29:36.1      88   -858    264    863    903 174.1  17.0  34100  288.57 0855.13
2009/04/23 10:29:36.2     116   -890     59    898    900 172.6   3.8  34094  288.46 0855.13
2009/04/23 10:29:36.3     328   -574    179    662    686 150.2  15.1  34098  288.53 0855.13
2009/04/23 10:29:36.4     154   -574    162    595    617 165.0  15.3  34092  288.42 0855.16
2009/04/23 10:29:36.5     203   -564    225    600    640 160.2  21.5  34104  288.62 0855.16
2009/04/23 10:29:36.6     174   -516    281    545    613 161.3  29.3  34104  288.63 0855.16
2009/04/23 10:29:36.7      17   -632    278    633    691 178.4  25.2  34092  288.41 0855.16
2009/04/23 10:29:36.8     -14   -746    382    747    839 181.1  29.2  34104  288.64 0855.16
2009/04/23 10:29:36.9     -18   -769    299    770    826 181.4  22.3  34112  288.76 0855.16
2009/04/23 10:29:37.0     -26   -746    263    747    792 182.0  19.4  34104  288.61 0855.16
2009/04/23 10:29:37.1    -147   -819      0    833    834 190.2   0.0  34108  288.69 0855.16
2009/04/23 10:29:37.2    -167   -785   -229    803    835 192.0 -20.7  34100  288.57 0855.16
2009/04/23 10:29:37.3    -371   -762   -147    848    861 206.0  -9.9  34116  288.82 0855.16
2009/04/23 10:29:37.4    -343   -686     61    768    771 206.6   4.6  34120  288.90 0855.16
2009/04/23 10:29:37.5    -297   -529      7    607    608 209.3   0.7  34114  288.78 0855.16
2009/04/23 10:29:37.6    -163   -518   -189    544    575 197.5 -24.3  34106  288.67 0855.16
2009/04/23 10:29:37.7    -173   -633   -213    657    691 195.3 -18.0  34122  288.94 0855.16
2009/04/23 10:29:37.8    -292   -617   -217    683    717 205.3 -17.7  34124  288.96 0855.16
2009/04/23 10:29:37.9    -310   -521   -193    607    638 210.8 -17.7  34126  288.99 0855.16
2009/04/23 10:29:38.0    -267   -568   -189    628    656 205.2 -16.8  34118  288.86 0855.16
2009/04/23 10:29:38.1    -308   -397   -178    503    533 217.8 -24.7  34114  288.80 0855.16
2009/04/23 10:29:38.2    -254   -366   -135    446    465 214.8 -21.8  34130  289.05 0855.16
2009/04/23 10:29:38.3    -214   -485   -179    531    561 203.8 -18.7  34110  288.74 0855.16
2009/04/23 10:29:38.4    -387   -388   -142    549    568 224.9 -14.5  34120  288.91 0855.17
2009/04/23 10:29:38.5    -464   -401   -182    614    641 229.1 -16.5  34118  288.87 0855.17
2009/04/23 10:29:38.6    -585   -481   -110    758    766 230.6  -8.3  34118  288.85 0855.17
2009/04/23 10:29:38.7    -614   -418   -237    744    781 235.7 -17.7  34114  288.80 0855.17
2009/04/23 10:29:38.8    -647   -277   -266    705    753 246.8 -26.1  34076  288.16 0855.17
2009/04/23 10:29:38.9    -515   -166   -143    542    561 252.1 -14.8  34106  288.65 0855.17
2009/04/23 10:29:39.0    -523    -65   -156    528    551 262.9 -16.5  34104  288.63 0855.17
2009/04/23 10:29:39.1    -354    -33   -163    356    391 264.6 -30.6  34112  288.76 0855.17
2009/04/23 10:29:39.2    -270    -51    -29    275    277 259.2  -6.2  34110  288.73 0855.17
2009/04/23 10:29:39.3    -254    -39    -60    257    264 261.2 -13.2  34112  288.75 0855.17
2009/04/23 10:29:39.4    -165   -299    -76    342    351 209.0 -12.6  34126  288.98 0855.17
2009/04/23 10:29:39.5     -58   -431   -154    435    462 187.7 -19.5  34122  288.92 0855.17
2009/04/23 10:29:39.6     -28   -347   -143    349    377 184.7 -27.9  34126  288.98 0855.17
2009/04/23 10:29:39.7     -62   -226   -138    235    272 195.4 -37.8  34132  289.10 0855.17
2009/04/23 10:29:39.8    -123   -169   -104    210    234 216.1 -32.6  34134  289.13 0855.17
2009/04/23 10:29:39.9      90   -259   -158    275    317 160.8 -37.0  34132  289.10 0855.17
2009/04/23 10:29:40.0      39   -168   -197    173    262 166.9 -58.6  34142  289.25 0855.17
2009/04/23 10:29:40.1      56   -239    -91    246    262 166.7 -25.4  34140  289.22 0855.17
2009/04/23 10:29:40.2     -42   -282   -232    286    368 188.5 -47.8  34130  289.08 0855.17
2009/04/23 10:29:40.3    -156   -410   -157    439    466 200.9 -24.8  34130  289.07 0855.17
2009/04/23 10:29:40.4    -172   -429   -131    463    482 201.8 -15.8  34120  288.90 0855.19
2009/04/23 10:29:40.5     -64   -316   -123    323    345 191.6 -26.2  34126  288.99 0855.19
2009/04/23 10:29:40.6    -101   -265   -101    284    301 201.0 -24.4  34124  288.95 0855.19
2009/04/23 10:29:40.7     -90   -237    -23    254    256 200.9  -5.2  34126  288.98 0855.19
2009/04/23 10:29:40.8    -246   -178    -99    304    319 234.0 -23.2  34128  289.02 0855.19
2009/04/23 10:29:40.9    -178   -184   -169    257    307 224.1 -40.9  34128  289.02 0855.19
2009/04/23 10:29:41.0    -177   -131    -95    221    240 233.4 -29.3  34128  289.03 0855.19
2009/04/23 10:29:41.1     -46   -137   -156    145    212 198.7 -56.6  34126  289.01 0855.19
2009/04/23 10:29:41.2      47   -139   -154    147    212 161.3 -55.8  34124  288.97 0855.19
2009/04/23 10:29:41.3      49   -165   -127    173    214 163.5 -44.3  34126  289.01 0855.19
2009/04/23 10:29:41.4     124   -180   -105    219    242 145.5 -31.8  34124  288.97 0855.19
2009/04/23 10:29:41.5      92   -232    -89    250    266 158.2 -19.6  34120  288.90 0855.19
2009/04/23 10:29:41.6      94   -217   -150    237    280 156.4 -39.9  34122  288.92 0855.19
2009/04/23 10:29:41.7     107   -176    -74    207    220 148.6 -19.7  34118  288.87 0855.19
2009/04/23 10:29:41.8     154   -175     14    234    235 138.6   3.6  34124  288.95 0855.19
2009/04/23 10:29:41.9     224   -365     87    429    439 148.5  11.6  34114  288.80 0855.19
2009/04/23 10:29:42.0     137   -494     21    513    514 164.4   2.4  34116  288.81 0855.19
2009/04/23 10:29:42.1     183   -532     -6    563    564 161.0  -0.7  34110  288.72 0855.19
2009/04/23 10:29:42.2     210   -576     40    614    616 160.0   3.8  34112  288.76 0855.19
2009/04/23 10:29:42.3     162   -482    -23    509    510 161.4  -2.7  34110  288.74 0855.19
2009/04/23 10:29:42.4     198   -583    -24    616    617 161.2  -2.2  34112  288.76 0855.20
2009/04/23 10:29:42.5     228   -768     42    802    804 163.5   3.0  34108  288.68 0855.20
2009/04/23 10:29:42.6     125   -546    216    561    601 167.1  22.1  34114  288.78 0855.20
2009/04/23 10:29:42.7     313   -496    104    587    597 147.8  10.1  34112  288.75 0855.20
2009/04/23 10:29:42.8     156   -329    210    365    421 154.7  32.4  34110  288.73 0855.20
2009/04/23 10:29:42.9     397   -195    280    443    524 116.2  35.5  34110  288.74 0855.20
2009/04/23 10:29:43.0     352   -292    -66    458    463 129.6  -8.2  34112  288.75 0855.20
2009/04/23 10:29:43.1     272   -216     16    348    349 128.5   2.8  34116  288.81 0855.20
2009/04/23 10:29:43.2     203   -245     30    319    321 140.3   5.4  34110  288.73 0855.20
2009/04/23 10:29:43.3     160   -240    102    289    306 146.2  20.0  34112  288.76 0855.20
2009/04/23 10:29:43.4     161   -279    174    323    366 150.1  30.7  34110  288.74 0855.20
2009/04/23 10:29:43.5      12   -495    126    496    512 178.6  14.3  34120  288.88 0855.20
2009/04/23 10:29:43.6     133   -415    180    436    471 162.2  23.7  34112  288.75 0855.20
2009/04/23 10:29:43.7      15   -350     82    351    361 177.4  13.2  34120  288.88 0855.20
2009/04/23 10:29:43.8      -9   -289    101    290    308 181.8  19.2  34122  288.93 0855.20
2009/04/23 10:29:43.9      -8   -256     89    257    273 181.8  19.2  34120  288.90 0855.20
2009/04/23 10:29:44.0     -43   -314    235    317    394 187.8  40.2  34118  288.86 0855.20
2009/04/23 10:29:44.1      14   -420    305    421    519 178.0  39.5  34122  288.93 0855.20
2009/04/23 10:29:44.2      -7   -444    217    445    495 181.0  27.9  34126  289.00 0855.20
2009/04/23 10:29:44.3     -79   -342    261    352    438 193.0  40.2  34118  288.85 0855.20
2009/04/23 10:29:44.4    -201   -439    229    483    534 204.6  27.3  34120  288.90 0855.20
2009/04/23 10:29:44.5    -113   -633    186    644    671 190.1  16.1  34118  288.85 0855.20
2009/04/23 10:29:44.6    -285   -480    252    559    613 210.7  25.9  34118  288.85 0855.20
2009/04/23 10:29:44.7    -194   -234    240    305    388 219.7  42.2  34126  289.01 0855.20
2009/04/23 10:29:44.8     293   -215    217    364    423 126.2  33.6  34118  288.85 0855.20
2009/04/23 10:29:44.9     231   -231    215    328    392 135.0  36.5  34124  288.96 0855.20
2009/04/23 10:29:45.0     281   -212    118    353    373 127.0  18.6  34120  288.88 0855.20
2009/04/23 10:29:45.1     336   -340    125    479    496 135.4  14.7  34120  288.91 0855.20
2009/04/23 10:29:45.2     135   -315     14    343    344 156.7   2.3  34120  288.88 0855.20
2009/04/23 10:29:45.3     -17   -381    149    382    410 182.7  22.4  34120  288.91 0855.20
2009/04/23 10:29:45.4     159   -416     34    446    448 159.0   4.4  34124  288.95 0855.20
2009/04/23 10:29:45.5     125   -480    132    496    514 165.4  14.9  34120  288.91 0855.20
2009/04/23 10:29:45.6     239   -525    129    577    592 155.5  12.6  34122  288.92 0855.20
2009/04/23 10:29:45.7     -40   -460     41    462    464 185.1   5.1  34124  288.97 0855.20
2009/04/23 10:29:45.8     489   -500    -34    700    701 135.7  -2.8  34114  288.79 0855.20
2009/04/23 10:29:45.9     284   -437     15    522    523 147.0   1.7  34120  288.89 0855.20
2009/04/23 10:29:46.0     147   -436     -9    461    462 161.3  -1.2  34136  289.17 0855.20
2009/04/23 10:29:46.1      86   -454     48    463    466 169.3   6.0  34128  289.03 0855.20
2009/04/23 10:29:46.2     -71   -463    177    469    501 188.7  21.6  34128  289.03 0855.20
2009/04/23 10:29:46.3      88   -315    238    328    405 164.3  39.7  34136  289.15 0855.20
2009/04/23 10:29:46.4     196   -292    -19    352    353 146.1  -3.1  34136  289.15 0855.20
2009/04/23 10:29:46.5     114   -344   -163    363    397 161.7 -30.3  34138  289.21 0855.20
2009/04/23 10:29:46.6      94   -462   -144    472    493 168.4 -21.9  34126  289.00 0855.20
2009/04/23 10:29:46.7      13   -417   -120    418    434 178.2 -20.8  34132  289.11 0855.20
2009/04/23 10:29:46.8    -145   -357   -108    386    400 202.1 -20.4  34134  289.13 0855.20
2009/04/23 10:29:46.9      28   -465    -18    466    467 176.5  -2.2  34096  288.49 0855.20
2009/04/23 10:29:47.0      18   -377     20    378    379 177.2   3.1  34096  288.49 0855.20
2009/04/23 10:29:47.1      -1   -305    -12    306    307 180.2  -2.3  34102  288.58 0855.20
2009/04/23 10:29:47.2      43   -216    -61    221    229 168.7 -20.0  34116  288.82 0855.20
2009/04/23 10:29:47.3      33   -157    -54    161    170 168.0 -18.7  34112  288.77 0855.20
2009/04/23 10:29:47.4      92   -304     23    318    319 163.1   4.2  34112  288.75 0855.20
2009/04/23 10:29:47.5     169   -268     26    318    320 147.7   4.7  34112  288.75 0855.20
2009/04/23 10:29:47.6     177   -264     10    319    320 146.2   1.9  34116  288.81 0855.20
2009/04/23 10:29:47.7     178   -253     48    310    314 144.8   8.9  34114  288.80 0855.20
2009/04/23 10:29:47.8     118   -316    156    338    372 159.4  26.6  34106  288.67 0855.20
2009/04/23 10:29:47.9      53   -286    105    291    309 169.4  20.7  34114  288.78 0855.20
2009/04/23 10:29:48.0      88   -287     98    301    317 163.0  18.1  34112  288.75 0855.20
2009/04/23 10:29:48.1      27   -189    177    191    260 171.8  47.9  34116  288.83 0855.20
2009/04/23 10:29:48.2     -14   -189    224    190    293 184.5  55.4  34114  288.78 0855.20
2009/04/23 10:29:48.3     -57   -274    244    280    371 191.8  45.7  34116  288.82 0855.20
2009/04/23 10:29:48.4    -211   -198    127    290    316 226.8  25.1  34114  288.78 0855.20
2009/04/23 10:29:48.5    -269   -142    100    305    322 242.2  18.2  34110  288.73 0855.20
2009/04/23 10:29:48.6    -173   -202     43    266    270 220.6   9.3  34114  288.78 0855.20
2009/04/23 10:29:48.7    -196   -196     -5    278    279 225.0  -1.2  34116  288.81 0855.20
2009/04/23 10:29:48.8    -236   -160    -25    286    288 235.8  -5.1  34114  288.78 0855.20
2009/04/23 10:29:48.9    -315    -82    148    326    358 255.4  26.2  34120  288.89 0855.20
2009/04/23 10:29:49.0    -369    -87     18    380    381 256.7   2.8  34132  289.10 0855.20
2009/04/23 10:29:49.1    -395    -79    -19    403    404 258.6  -2.8  34136  289.16 0855.20
2009/04/23 10:29:49.2    -382    -42    -15    385    386 263.6  -2.2  34144  289.30 0855.20
2009/04/23 10:29:49.3    -349     -4     17    350    351 269.3   2.9  34144  289.30 0855.20
2009/04/23 10:29:49.4    -384    -68    -22    391    392 259.9  -3.3  34142  289.28 0855.20
2009/04/23 10:29:49.5    -402   -143    -70    427    433 250.4  -9.3  34140  289.22 0855.20
2009/04/23 10:29:49.7    -417   -264     90    494    503 237.6  10.4  34144  289.30 0855.20
2009/04/23 10:29:49.8    -368     24   -104    369    384 273.8 -15.8  34148  289.37 0855.20
2009/04/23 10:29:49.9    -522   -118    -20    536    537 257.2  -2.2  34138  289.21 0855.20
2009/04/23 10:29:50.0    -323     51     72    328    336 279.0  12.4  34132  289.11 0855.20
2009/04/23 10:29:50.1    -419      1     12    420    421 270.3   1.7  34126  289.00 0855.20
2009/04/23 10:29:50.2    -477     55     84    481    489 276.6  10.0  34130  289.05 0855.20
2009/04/23 10:29:50.3    -554    -54    -30    557    558 264.4  -3.1  34132  289.11 0855.20
2009/04/23 10:29:50.4    -567   -153    -74    588    593 254.9  -7.2  34150  289.41 0855.20
2009/04/23 10:29:50.5    -447   -279    -10    528    529 238.0  -1.1  34134  289.13 0855.19
2009/04/23 10:29:50.6    -338    -22      0    339    340 266.3   0.1  34138  289.20 0855.19
2009/04/23 10:29:50.7    -460   -139    -18    481    482 253.2  -2.2  34142  289.27 0855.19
2009/04/23 10:29:50.8    -553   -204   -106    590    600 249.7 -10.2  34126  288.98 0855.19
2009/04/23 10:29:50.9    -480   -412    -98    633    641 229.4  -8.8  34126  289.01 0855.19
2009/04/23 10:29:51.0    -484   -502   -173    698    720 223.9 -13.9  34120  288.88 0855.19
2009/04/23 10:29:51.1    -353   -527   -108    635    645 213.8  -9.7  34114  288.79 0855.19
2009/04/23 10:29:51.2    -348   -564     27    663    664 211.7   2.3  34130  289.07 0855.19
2009/04/23 10:29:51.3    -386   -348    -79    520    526 228.0  -8.7  34100  288.57 0855.19
2009/04/23 10:29:51.4    -441   -368    -11    575    576 230.2  -1.2  34116  288.83 0855.19
2009/04/23 10:29:51.5    -378   -311    -83    490    498 230.5  -9.7  34106  288.66 0855.19
2009/04/23 10:29:51.6    -305   -323    -73    445    452 223.3  -9.4  34106  288.67 0855.19
2009/04/23 10:29:51.7    -181   -211     24    279    281 220.6   5.0  34110  288.71 0855.19
2009/04/23 10:29:51.8       8    -77     91     78    119 173.8  54.8  34114  288.80 0855.19
2009/04/23 10:29:51.9     220   -263    115    344    364 140.1  18.6  34126  288.98 0855.19
2009/04/23 10:29:52.0     354   -425     47    554    557 140.2   4.9  34120  288.89 0855.19
2009/04/23 10:29:52.1     334   -441     85    554    561 142.9   8.8  34120  288.89 0855.19
2009/04/23 10:29:52.2     390   -478    150    618    636 140.8  13.7  34104  288.62 0855.19
2009/04/23 10:29:52.3     404   -488    191    634    663 140.4  16.8  34104  288.64 0855.19
2009/04/23 10:29:52.4     406   -441    211    600    637 137.3  19.4  34108  288.69 0855.19
2009/04/23 10:29:52.5     306   -394    241    500    555 142.2  27.7  34110  288.72 0855.19
2009/04/23 10:29:52.6     397   -444    360    596    696 138.2  34.0  34104  288.61 0855.19
2009/04/23 10:29:52.7     396   -348     73    528    533 131.3   7.9  34120  288.89 0855.19
2009/04/23 10:29:52.8     144   -306    154    339    372 154.7  26.2  34120  288.89 0855.19
2009/04/23 10:29:52.9     148   -465    218    489    535 162.3  25.6  34112  288.77 0855.19
2009/04/23 10:29:53.0     128   -482     62    499    503 165.1   7.1  34126  289.00 0855.19
2009/04/23 10:29:53.1     -40   -371     49    374    378 186.2   7.5  34130  289.06 0855.19
2009/04/23 10:29:53.2    -172   -508     64    537    541 198.7   6.9  34148  289.38 0855.19
2009/04/23 10:29:53.3    -314   -439     -8    540    541 215.6  -0.9  34146  289.33 0855.19
2009/04/23 10:29:53.4    -417   -361     48    552    555 229.1   5.0  34160  289.57 0855.19
2009/04/23 10:29:53.5    -548   -280     18    616    617 242.9   1.7  34164  289.65 0855.20
2009/04/23 10:29:53.6    -569   -238      7    617    618 247.3   0.7  34142  289.26 0855.20
2009/04/23 10:29:53.7    -601   -330    -77    686    691 241.2  -6.5  34118  288.87 0855.20
2009/04/23 10:29:53.8    -585   -226    -98    628    636 248.8  -8.9  34118  288.86 0855.20
2009/04/23 10:29:53.9    -631   -334    239    715    755 242.1  18.5  34118  288.85 0855.20
2009/04/23 10:29:54.0    -468   -158    365    495    615 251.3  40.0  34120  288.90 0855.20
2009/04/23 10:29:54.1    -348     15     36    349    351 272.5   5.9  34136  289.16 0855.20
2009/04/23 10:29:54.2    -419   -113    136    435    456 254.9  17.4  34122  288.94 0855.20
2009/04/23 10:29:54.3    -149   -221    268    267    378 214.1  50.1  34132  289.11 0855.20
2009/04/23 10:29:54.4    -144   -225    239    268    359 212.6  46.3  34146  289.33 0855.20
2009/04/23 10:29:54.5     -47    -97    224    108    248 205.9  72.7  34132  289.09 0855.20
2009/04/23 10:29:54.6      61   -298    176    305    352 168.4  32.7  34128  289.03 0855.20
2009/04/23 10:29:54.7     -43   -298    241    302    386 188.2  42.7  34122  288.94 0855.20
2009/04/23 10:29:54.8       7   -235    198    236    308 178.2  43.8  34130  289.05 0855.20
2009/04/23 10:29:54.9     110   -312    154    332    365 160.5  26.9  34126  289.01 0855.20
2009/04/23 10:29:55.0     132   -363    148    387    414 160.0  22.0  34126  289.00 0855.20
2009/04/23 10:29:55.1     143   -350    226    379    441 157.7  33.5  34130  289.05 0855.20
2009/04/23 10:29:55.2     200   -203    259    286    385 135.5  46.9  34122  288.94 0855.20
2009/04/23 10:29:55.3     271   -118    231    296    375 113.6  41.9  34116  288.82 0855.20
2009/04/23 10:29:55.4     174    -31    216    177    279 100.4  56.4  34134  289.12 0855.20
2009/04/23 10:29:55.5     292   -352    159    458    485 140.4  19.2  34120  288.90 0855.22
2009/04/23 10:29:55.6     203   -366    108    419    433 151.0  14.5  34124  288.95 0855.22
2009/04/23 10:29:55.7     258   -382    197    462    502 145.9  24.5  34120  288.91 0855.22
2009/04/23 10:29:55.8     286   -257    258    385    463 132.0  37.0  34124  288.97 0855.22
2009/04/23 10:29:55.9     251   -321    254    408    480 142.0  35.0  34120  288.90 0855.22
2009/04/23 10:29:56.0     337   -316    247    463    524 133.2  30.3  34120  288.90 0855.22
2009/04/23 10:29:56.1     297   -337     91    450    460 138.6  11.5  34120  288.89 0855.22
2009/04/23 10:29:56.2     212   -333    131    395    417 147.5  18.4  34118  288.85 0855.22
2009/04/23 10:29:56.3      94   -346     53    359    363 164.7   8.5  34120  288.89 0855.22
2009/04/23 10:29:56.4     167   -231     14    286    287 144.0   2.9  34120  288.90 0855.22
2009/04/23 10:29:56.5     154   -205     88    257    272 143.1  18.9  34122  288.92 0855.22
2009/04/23 10:29:56.6     -71   -247     50    258    263 196.0  11.0  34118  288.87 0855.22
2009/04/23 10:29:56.7     -61   -302    131    309    335 191.5  24.3  34124  288.95 0855.22
2009/04/23 10:29:56.8      57   -289     77    295    305 168.7  14.7  34122  288.92 0855.22
2009/04/23 10:29:56.9       8   -266     17    267    268 178.2   3.8  34124  288.97 0855.22
2009/04/23 10:29:57.0     -33   -319     80    321    331 186.1  14.2  34110  288.73 0855.22
2009/04/23 10:29:57.1    -103   -332     -1    348    349 197.3  -0.2  34122  288.94 0855.22
2009/04/23 10:29:57.2     -74   -447    129    454    473 189.4  15.9  34130  289.08 0855.22
2009/04/23 10:29:57.3    -303   -307   -113    432    447 224.5 -14.7  34134  289.12 0855.22
2009/04/23 10:29:57.4    -134   -211    -22    251    253 212.5  -5.2  34124  288.97 0855.22
2009/04/23 10:29:57.5     118   -152    178    193    262 142.2  47.9  34134  289.14 0855.22
2009/04/23 10:29:57.6      67   -179    219    192    291 159.5  54.3  34120  288.90 0855.22
2009/04/23 10:29:57.7     181   -277     94    332    346 146.8  15.9  34136  289.15 0855.22
2009/04/23 10:29:57.8     197   -288     93    350    363 145.6  15.0  34132  289.10 0855.22
2009/04/23 10:29:57.9     196   -323      0    379    380 148.7   0.0  34132  289.10 0855.22
2009/04/23 10:29:58.0     224   -304     47    378    381 143.6   7.1  34132  289.10 0855.22
2009/04/23 10:29:58.1     108   -417     36    431    433 165.4   4.9  34128  289.04 0855.22
2009/04/23 10:29:58.2      18   -370     89    371    382 177.2  13.5  34122  288.94 0855.22
2009/04/23 10:29:58.3    -145   -164    116    220    248 221.4  30.1  34126  288.98 0855.22
2009/04/23 10:29:58.4    -399   -157    -94    429    440 248.5 -12.4  34130  289.07 0855.22
2009/04/23 10:29:58.5    -492   -187   -188    527    560 249.2 -19.7  34124  288.97 0855.22
2009/04/23 10:29:58.6    -294   -192   -245    352    428 236.8 -42.7  34110  288.73 0855.22
2009/04/23 10:29:58.7     -55   -152   -180    162    242 200.0 -57.7  34114  288.79 0855.22
2009/04/23 10:29:58.8    -157   -152   -220    219    310 226.0 -54.5  34114  288.80 0855.22
2009/04/23 10:29:58.9     -55    -97   -167    112    201 209.9 -67.2  34116  288.84 0855.22
2009/04/23 10:29:59.0     149    -92     38    176    181 121.8  12.2  34116  288.84 0855.22
2009/04/23 10:29:59.1      26     -3     12     27     29  97.9  23.0  34116  288.82 0855.22
2009/04/23 10:29:59.2     -37    -12     35     39     52 251.8  46.9  34124  288.97 0855.22
2009/04/23 10:29:59.3      -1    -28     51     29     58 182.7  66.8  34124  288.97 0855.22
2009/04/23 10:29:59.4      19    -20     40     28     48 136.6  61.5  34120  288.89 0855.22
2009/04/23 10:29:59.5     -15    -49    -10     52     54 197.8 -11.3  34120  288.89 0855.21
2009/04/23 10:29:59.6     -21    -92      2     95     96 192.9   1.2  34124  288.96 0855.21
2009/04/23 10:29:59.7     -21    -63    -57     67     87 198.7 -49.2  34122  288.94 0855.21
2009/04/23 10:29:59.8      -7    -92    -11     93     94 184.5  -7.3  34120  288.91 0855.21
2009/04/23 10:29:59.9       5   -121    -35    122    127 177.3 -16.0  34122  288.92 0855.21
2009/04/23 10:30:00.0      57   -110    -34    125    130 152.4 -15.4  34120  288.91 0855.21
2009/04/23 10:30:00.1      72   -107    -16    130    132 146.2  -7.2  34124  288.97 0855.21
2009/04/23 10:30:00.2      -8   -230     -7    231    232 182.0  -1.8  34124  288.96 0855.21
2009/04/23 10:30:00.3     -42   -340      7    343    344 187.1   1.2  34132  289.10 0855.21
2009/04/23 10:30:00.4     -17   -296     54    297    302 183.4  10.3  34138  289.20 0855.21
2009/04/23 10:30:00.5      69   -549     70    554    559 172.8   7.2  34114  288.79 0855.21
2009/04/23 10:30:00.6     189   -670    189    697    723 164.2  15.2  34110  288.73 0855.21
2009/04/23 10:30:00.7     135   -669    418    683    800 168.6  34.4  34110  288.72 0855.21
2009/04/23 10:30:00.8     332   -697    494    773    917 154.5  35.6  34114  288.79 0855.21
2009/04/23 10:30:00.9     235   -732    395    769    864 162.2  29.3  34104  288.62 0855.21
2009/04/23 10:30:01.0     324   -746    166    814    832 156.5  11.6  34106  288.67 0855.21
2009/04/23 10:30:01.1     244   -513    139    569    586 154.5  13.8  34108  288.68 0855.21
2009/04/23 10:30:01.2     502   -384    225    633    673 127.4  19.6  34102  288.58 0855.21
2009/04/23 10:30:01.3     427   -183    323    465    566 113.2  38.3  34110  288.72 0855.21
2009/04/23 10:30:01.4     405   -115    113    422    437 105.9  15.0  34110  288.73 0855.21
2009/04/23 10:30:01.5     469   -282    147    548    568 121.0  15.0  34116  288.84 0855.20
2009/04/23 10:30:01.6     450   -558     36    717    718 141.1   2.9  34114  288.78 0855.20
2009/04/23 10:30:01.7     491   -520    -12    716    717 136.7  -1.0  34114  288.78 0855.20
2009/04/23 10:30:01.8     468   -654    -53    805    807 144.4  -3.8  34110  288.72 0855.20
2009/04/23 10:30:01.9     563   -521    135    768    781 132.8  10.0  34104  288.63 0855.20
2009/04/23 10:30:02.0     605   -372    269    711    760 121.6  21.8  34094  288.46 0855.20
2009/04/23 10:30:02.1     467   -727     -5    865    866 147.3  -0.4  34090  288.38 0855.20
2009/04/23 10:30:02.2     398   -616    147    734    749 147.1  11.3  34108  288.68 0855.20
2009/04/23 10:30:02.3      48   -624    144    627    644 175.5  13.0  34108  288.69 0855.20
2009/04/23 10:30:02.4      68   -531    236    536    585 172.7  25.2  34102  288.58 0855.20
2009/04/23 10:30:02.5     247   -578    228    629    669 156.8  20.8  34106  288.65 0855.20
2009/04/23 10:30:02.6     263   -535    171    597    622 153.8  16.0  34112  288.75 0855.20
2009/04/23 10:30:02.7     608   -558    -57    826    828 132.6  -4.0  34116  288.84 0855.20
2009/04/23 10:30:02.8     191   -628    233    657    697 163.1  20.3  34110  288.73 0855.20
2009/04/23 10:30:02.9     116   -582     81    594    600 168.7   7.8  34114  288.78 0855.20
2009/04/23 10:30:03.0     224   -376   -200    438    481 149.2 -30.7  34116  288.83 0855.20
2009/04/23 10:30:03.1     161   -304   -194    345    395 152.0 -36.3  34114  288.79 0855.20
2009/04/23 10:30:03.2     193   -329   -108    382    398 149.5 -15.8  34120  288.89 0855.20
2009/04/23 10:30:03.3     182   -261    -24    319    320 145.0  -4.4  34124  288.95 0855.20
2009/04/23 10:30:03.4     212   -261     49    337    341 140.9   8.3  34126  288.99 0855.20
2009/04/23 10:30:03.5     236    -71    140    247    283 106.9  31.9  34120  288.90 0855.24
2009/04/23 10:30:03.6     155     21    258    157    302  82.1  65.7  34112  288.75 0855.24
2009/04/23 10:30:03.7     206    -21    177    208    273  95.9  44.5  34120  288.90 0855.24
2009/04/23 10:30:03.8     272   -165     82    319    330 121.3  14.5  34124  288.95 0855.24
2009/04/23 10:30:03.9      41   -173    211    178    276 166.4  55.6  34122  288.93 0855.24
2009/04/23 10:30:04.0     118    -60    232    133    267 117.1  67.7  34116  288.82 0855.24
2009/04/23 10:30:04.1     358   -169    317    397    508 115.3  42.7  34116  288.81 0855.24
2009/04/23 10:30:04.2     287   -141    385    320    500 116.2  56.3  34122  288.94 0855.24
2009/04/23 10:30:04.3      22     44    213     50    218  27.2  87.0  34128  289.04 0855.24
2009/04/23 10:30:04.4      31    -55    220     64    229 151.0  83.3  34132  289.09 0855.24
2009/04/23 10:30:04.5      39    -97    225    105    248 158.2  73.1  34114  288.79 0855.24
2009/04/23 10:30:04.6     216    -45    301    221    373 101.9  60.3  34120  288.91 0855.24
2009/04/23 10:30:04.7     158     49    286    166    330  72.5  67.2  34120  288.90 0855.24
2009/04/23 10:30:04.8     228    130    354    263    441  60.2  59.8  34126  288.99 0855.24
2009/04/23 10:30:04.9     235    213    237    318    396  47.8  40.6  34116  288.84 0855.24
2009/04/23 10:30:05.0     474    206    213    517    559  66.5  23.8  34182  289.94 0855.24
2009/04/23 10:30:05.1     251     62    244    259    355  76.1  48.0  34174  289.80 0855.24
2009/04/23 10:30:05.2     255   -141    210    292    359 118.9  39.3  34138  289.20 0855.24
2009/04/23 10:30:05.3    -114   -242    315    268    413 205.2  55.4  34178  289.87 0855.24
2009/04/23 10:30:05.4     -29   -167    248    170    300 190.0  62.6  34138  289.19 0855.24
2009/04/23 10:30:05.5      -7    -98    128     99    161 184.4  58.5  34122  288.94 0855.25
2009/04/23 10:30:05.6      43   -120    140    128    189 159.9  52.7  34124  288.96 0855.25
2009/04/23 10:30:05.7     191   -104    149    218    264 118.6  37.6  34124  288.97 0855.25
2009/04/23 10:30:05.8      94   -130     99    161    189 143.9  35.0  34118  288.87 0855.25
2009/04/23 10:30:05.9     -47   -210    149    216    262 192.7  37.8  34126  289.00 0855.25
2009/04/23 10:30:06.0      59   -177    131    187    228 161.5  38.6  34128  289.02 0855.25
2009/04/23 10:30:06.1     117   -158     81    197    213 143.5  23.4  34122  288.94 0855.25
2009/04/23 10:30:06.2     145     20     34    147    151  82.0  13.1  34124  288.96 0855.25
2009/04/23 10:30:06.3     273     51    180    278    331  79.4  35.9  34122  288.93 0855.25
2009/04/23 10:30:06.4     265     80    194    277    338  73.2  38.5  34128  289.02 0855.25
2009/04/23 10:30:06.5     177     56    193    186    268  72.5  51.2  34132  289.10 0855.25
2009/04/23 10:30:06.6     180     65    164    192    252  70.0  44.9  34130  289.07 0855.25
2009/04/23 10:30:06.7     149     76    102    168    196  62.9  34.2  34136  289.18 0855.25
2009/04/23 10:30:06.8     -17     18    111     25    113 316.6  88.0  34140  289.23 0855.25
2009/04/23 10:30:06.9     126   -153     87    199    217 140.4  25.1  34124  288.97 0855.25
2009/04/23 10:30:07.0       9   -177     70    178    191 176.9  22.8  34124  288.97 0855.25
2009/04/23 10:30:07.1      -8    -14     37     17     40 209.0  74.0  34128  289.04 0855.25
2009/04/23 10:30:07.2      19     23    -10     30     32  39.7 -19.7  34130  289.06 0855.25
2009/04/23 10:30:07.3      21   -100     86    103    134 168.0  43.8  34126  288.99 0855.25
2009/04/23 10:30:07.4     122   -129     25    178    180 136.6   8.2  34126  288.99 0855.25
2009/04/23 10:30:07.5     106   -167    -54    199    207 147.5 -15.2  34130  289.06 0855.26
2009/04/23 10:30:07.6     263   -263    156    372    403 135.0  24.2  34132  289.10 0855.26
2009/04/23 10:30:07.7     247   -167    108    299    319 124.1  19.9  34132  289.10 0855.26
2009/04/23 10:30:07.8     351   -267     27    442    443 127.3   3.6  34132  289.09 0855.26
2009/04/23 10:30:07.9     192   -614    312    644    715 162.6  27.8  34122  288.94 0855.26
2009/04/23 10:30:08.0     420   -512    -12    663    664 140.6  -1.1  34128  289.02 0855.26
2009/04/23 10:30:08.1     343   -488     77    597    603 144.9   7.4  34120  288.90 0855.26
2009/04/23 10:30:08.2     262   -381      5    463    464 145.4   0.7  34120  288.89 0855.26
2009/04/23 10:30:08.3     104   -473    213    485    529 167.5  25.2  34122  288.93 0855.26
2009/04/23 10:30:08.4    -112   -490    278    503    574 192.9  31.4  34124  288.97 0855.26
2009/04/23 10:30:08.5     248   -396    313    468    563 148.0  37.0  34126  289.01 0855.26
2009/04/23 10:30:08.6     134   -438    226    459    511 163.0  28.2  34130  289.05 0855.26
2009/04/23 10:30:08.7      14   -448    168    449    479 178.2  21.5  34130  289.06 0855.26
2009/04/23 10:30:08.8     -93   -424      6    435    436 192.4   0.8  34132  289.09 0855.26
2009/04/23 10:30:08.9     -94   -489   -130    499    516 190.9 -14.7  34136  289.18 0855.26
2009/04/23 10:30:09.0    -146   -541    -49    561    564 195.2  -5.1  34138  289.21 0855.26
2009/04/23 10:30:09.1    -102   -440    -62    452    457 193.1  -7.9  34128  289.02 0855.26
2009/04/23 10:30:09.2    -307   -402   -154    507    531 217.4 -17.0  34126  288.99 0855.26
2009/04/23 10:30:09.3    -109   -352   -223    369    431 197.2 -38.2  34124  288.95 0855.26
2009/04/23 10:30:09.4     -65   -102    -67    122    139 212.5 -35.7  34124  288.96 0855.26
2009/04/23 10:30:09.5      26   -343    121    344    365 175.6  19.4  34126  289.01 0855.26
2009/04/23 10:30:09.6     101   -373    140    387    411 164.8  20.8  34122  288.94 0855.26
2009/04/23 10:30:09.7      76   -433     58    440    444 170.0   7.6  34126  288.99 0855.26
2009/04/23 10:30:09.8     290   -485     53    566    569 149.1   5.4  34130  289.07 0855.26
2009/04/23 10:30:09.9     232   -549     29    597    598 157.1   2.8  34124  288.97 0855.26
2009/04/23 10:30:10.0      98   -479    -59    490    494 168.4  -6.9  34124  288.96 0855.26
2009/04/23 10:30:10.1     157   -581    -23    602    603 164.9  -2.2  34122  288.93 0855.26
2009/04/23 10:30:10.2     221   -550     71    593    598 158.1   6.9  34120  288.90 0855.26
2009/04/23 10:30:10.3     367   -474    100    600    609 142.3   9.5  34126  288.98 0855.26
2009/04/23 10:30:10.4     359   -448    140    575    592 141.3  13.7  34122  288.93 0855.26
2009/04/23 10:30:10.5     333   -523     25    621    622 147.5   2.4  34120  288.89 0855.26
2009/04/23 10:30:10.6     375   -399     15    548    549 136.8   1.6  34118  288.85 0855.26
2009/04/23 10:30:10.7     215   -447    -14    497    498 154.2  -1.7  34124  288.96 0855.26
2009/04/23 10:30:10.8     168   -434    -32    466    468 158.8  -4.0  34124  288.95 0855.26
2009/04/23 10:30:10.9     300   -408     26    507    508 143.6   3.0  34114  288.79 0855.26
2009/04/23 10:30:11.0     268   -394     78    477    484 145.7   9.3  34120  288.88 0855.26
2009/04/23 10:30:11.1     169   -312    116    356    375 151.5  18.0  34116  288.84 0855.26
2009/04/23 10:30:11.2     300   -327     69    445    451 137.5   8.9  34112  288.77 0855.26
2009/04/23 10:30:11.3     239   -264     77    357    366 137.9  12.2  34110  288.71 0855.26
2009/04/23 10:30:11.4     211   -301    100    368    382 144.9  15.3  34112  288.77 0855.26
2009/04/23 10:30:11.5     241   -249    145    347    376 136.0  23.9  34120  288.88 0855.24
2009/04/23 10:30:11.6     245   -233    141    339    367 133.5  23.9  34116  288.82 0855.24
2009/04/23 10:30:11.7     261   -212    204    337    393 129.0  34.1  34110  288.71 0855.24
2009/04/23 10:30:11.8     244   -189    173    309    354 127.8  31.7  34112  288.76 0855.24
2009/04/23 10:30:11.9     218   -258    144    338    367 139.8  24.6  34110  288.74 0855.24
2009/04/23 10:30:12.0     256   -359    176    442    475 144.5  23.0  34114  288.78 0855.24
2009/04/23 10:30:12.1     329   -405    249    523    579 140.9  27.3  34104  288.63 0855.24
2009/04/23 10:30:12.2     236   -429    177    490    522 151.1  19.9  34118  288.86 0855.24
2009/04/23 10:30:12.3     274   -315    157    418    446 139.0  21.4  34108  288.70 0855.24
2009/04/23 10:30:12.5     283   -312    171    422    455 137.8  23.1  34110  288.72 0855.24
2009/04/23 10:30:12.5     202   -315    217    375    433 147.4  32.8  34106  288.67 0855.24
2009/04/23 10:30:12.6     252   -311    178    401    438 141.0  25.3  34110  288.73 0855.24
2009/04/23 10:30:12.7     181   -262    198    319    375 145.3  34.9  34112  288.76 0855.24
2009/04/23 10:30:12.8     103   -256    243    277    368 158.1  45.8  34112  288.76 0855.24
2009/04/23 10:30:12.9     168    -63    258    180    314 110.8  61.8  34122  288.93 0855.24
2009/04/23 10:30:13.0     169   -248    329    301    445 145.7  53.0  34122  288.92 0855.24
2009/04/23 10:30:13.1     227     49    252    233    343  77.8  52.5  34120  288.88 0855.24
2009/04/23 10:30:13.2      57    -58    218     82    232 135.9  78.9  34098  288.52 0855.24
2009/04/23 10:30:13.3      77     -5    120     78    143  94.4  64.6  34124  288.97 0855.24
2009/04/23 10:30:13.4     237    174     -5    295    296  53.6  -1.2  34118  288.87 0855.24
2009/04/23 10:30:13.5     124    161    -65    204    214  37.6 -23.0  34120  288.89 0855.24
2009/04/23 10:30:13.6     176    212    -54    276    282  39.6 -11.1  34138  289.20 0855.24
2009/04/23 10:30:13.7     191    163    -13    252    253  49.6  -3.1  34170  289.73 0855.24
2009/04/23 10:30:13.8     146    252    -87    292    305  30.1 -16.6  34156  289.51 0855.24
2009/04/23 10:30:13.9     216    168    -97    274    291  52.2 -19.6  34160  289.56 0855.24
2009/04/23 10:30:14.0     233    230   -157    328    363  45.4 -31.7  34172  289.79 0855.24
2009/04/23 10:30:14.1     227    188   -132    296    324  50.4 -30.2  34196  290.17 0855.24
2009/04/23 10:30:14.2     175    194   -150    262    301  41.9 -36.8  34188  290.03 0855.24
2009/04/23 10:30:14.3     358    176    -42    400    403  63.8  -6.1  34188  290.06 0855.24
2009/04/23 10:30:14.4     257    310   -104    404    418  39.7 -14.5  34192  290.12 0855.24
2009/04/23 10:30:14.5     280    195   -101    342    356  55.2 -21.2  34188  290.03 0855.23
2009/04/23 10:30:14.6     121    107   -213    162    267  48.6 -63.6  34168  289.71 0855.23
2009/04/23 10:30:14.7     172    170   -202    243    315  45.3 -48.5  34170  289.75 0855.23
2009/04/23 10:30:14.8      72    243   -241    254    350  16.5 -52.9  34160  289.56 0855.23
2009/04/23 10:30:14.9     159    221   -218    273    349  35.8 -47.3  34186  290.02 0855.23
2009/04/23 10:30:15.0     156    134   -183    207    276  49.3 -50.3  34200  290.24 0855.23
2009/04/23 10:30:15.1     170    105     26    200    202  58.2   7.5  34168  289.72 0855.23
2009/04/23 10:30:15.2     152     50      2    161    162  71.8   1.0  34152  289.45 0855.23
2009/04/23 10:30:15.3     157     62     11    170    171  68.3   3.8  34154  289.48 0855.23
2009/04/23 10:30:15.4     158     39     65    163    175  75.8  23.0  34144  289.31 0855.23
2009/04/23 10:30:15.5     150     42     55    156    166  74.3  19.4  34148  289.38 0855.23
2009/04/23 10:30:15.7     162     67     75    176    191  67.4  24.3  34240  290.92 0855.23
2009/04/23 10:30:15.7     170     34     75    174    189  78.6  24.9  34228  290.72 0855.23
2009/04/23 10:30:15.8     102     27     33    106    112  74.9  17.3  34208  290.38 0855.23
2009/04/23 10:30:15.9      83    -10    -13     84     86  97.0  -9.3  34230  290.75 0855.23
2009/04/23 10:30:16.0      15     81    -60     83    102  10.7 -44.1  34222  290.62 0855.23
2009/04/23 10:30:16.1     -27     51    -23     58     62 331.9 -27.4  34220  290.58 0855.23
2009/04/23 10:30:16.2     -94     -7    -48     95    106 265.6 -33.1  34224  290.67 0855.23
2009/04/23 10:30:16.3    -104     -7    -65    105    123 265.7 -39.9  34220  290.60 0855.23
2009/04/23 10:30:16.4    -125    -64    -45    141    148 242.9 -23.3  34176  289.84 0855.23
2009/04/23 10:30:16.6    -217   -108      2    243    244 243.6   0.5  34148  289.36 0855.23
2009/04/23 10:30:16.6    -287    -44     14    291    292 261.2   2.9  34136  289.17 0855.23
2009/04/23 10:30:16.8    -198    -45     -7    204    205 257.0  -2.2  34138  289.21 0855.23
2009/04/23 10:30:16.9     -69    -34    -87     77    116 243.8 -58.1  34144  289.30 0855.23
2009/04/23 10:30:17.0      32    106   -107    111    154  16.9 -53.8  34182  289.96 0855.23
2009/04/23 10:30:17.1      30    126    -91    130    158  13.4 -42.8  34196  290.18 0855.23
2009/04/23 10:30:17.2      42    117    -84    125    150  20.1 -41.4  34190  290.09 0855.23
2009/04/23 10:30:17.3     -40    100    -21    108    111 338.2 -11.3  34168  289.70 0855.23
2009/04/23 10:30:17.4    -104     88    -94    137    166 310.4 -42.0  34160  289.58 0855.23
2009/04/23 10:30:17.5    -207     98   -131    230    264 295.4 -36.5  34130  289.05 0855.23
2009/04/23 10:30:17.6    -303     13   -125    304    328 272.6 -28.0  34120  288.88 0855.23
2009/04/23 10:30:17.7    -351    -88   -160    362    395 255.8 -29.7  34120  288.91 0855.23
2009/04/23 10:30:17.8    -154    -37   -107    159    191 256.3 -41.1  34118  288.86 0855.23
2009/04/23 10:30:17.9    -143    107    -20    179    181 306.9  -6.5  34122  288.94 0855.23
2009/04/23 10:30:18.0     -90     90    -35    128    133 314.9 -15.5  34126  288.99 0855.23
2009/04/23 10:30:18.1     -81    223    -61    238    246 340.0 -14.5  34148  289.37 0855.23
2009/04/23 10:30:18.2    -139    133   -118    193    226 313.8 -38.8  34130  289.06 0855.23
2009/04/23 10:30:18.3    -223    156    -82    273    285 305.1 -21.7  34132  289.10 0855.23
2009/04/23 10:30:18.4    -187    129    -99    228    248 304.6 -29.5  34140  289.22 0855.23
2009/04/23 10:30:18.5    -242    138    -99    279    296 299.8 -24.6  34146  289.34 0855.23
2009/04/23 10:30:18.6    -234    164   -129    286    313 305.1 -30.3  34160  289.56 0855.22
2009/04/23 10:30:18.7    -214     89     -9    232    233 292.6  -2.2  34148  289.36 0855.22
2009/04/23 10:30:18.8    -285    161     54    328    333 299.5   9.5  34148  289.38 0855.22
2009/04/23 10:30:18.9    -227     76    108    240    263 288.6  26.2  34154  289.46 0855.22
2009/04/23 10:30:19.0    -176     51    110    184    214 286.4  33.7  34154  289.48 0855.22
2009/04/23 10:30:19.1    -169    -37     63    174    185 257.4  20.2  34156  289.50 0855.22
2009/04/23 10:30:19.2    -108    -71     24    130    133 236.7  10.6  34158  289.55 0855.22
2009/04/23 10:30:19.3     -58   -111     44    126    134 207.6  19.4  34158  289.53 0855.22
2009/04/23 10:30:19.4     -37    -99     75    106    129 200.9  38.6  34162  289.62 0855.22
2009/04/23 10:30:19.5     -33   -118     62    123    137 196.0  28.7  34158  289.55 0855.22
2009/04/23 10:30:19.6     -37   -138     86    143    166 195.1  34.0  34152  289.45 0855.22
2009/04/23 10:30:19.7      -8   -131     73    132    150 183.6  31.4  34150  289.41 0855.22
2009/04/23 10:30:19.8      30   -183     50    186    193 170.7  15.2  34150  289.40 0855.22
2009/04/23 10:30:19.9      41   -200     17    205    206 168.4   4.9  34146  289.35 0855.22
2009/04/23 10:30:20.0      21   -179     51    181    189 173.3  15.8  34150  289.40 0855.22
2009/04/23 10:30:20.1      16   -214     25    215    217 175.6   6.7  34148  289.38 0855.22
2009/04/23 10:30:20.2      22   -159     57    161    170 171.9  20.0  34136  289.18 0855.22
2009/04/23 10:30:20.3     -23   -176     38    178    183 187.6  12.2  34130  289.08 0855.22
2009/04/23 10:30:20.4      53   -103     39    116    123 152.8  18.9  34132  289.11 0855.22
2009/04/23 10:30:20.5      50    -60    104     79    130 140.3  58.5  34142  289.28 0855.22
2009/04/23 10:30:20.6     -35   -117     57    123    135 196.9  27.1  34134  289.14 0855.21
2009/04/23 10:30:20.7     -53    -83     58     99    114 212.6  33.5  34140  289.24 0855.21
2009/04/23 10:30:20.8     -76    -81     -4    112    113 223.3  -2.2  34136  289.18 0855.21
2009/04/23 10:30:20.9     -95    -69    -42    118    126 234.0 -19.6  34138  289.21 0855.21
2009/04/23 10:30:21.0     -84   -102    -46    133    140 219.6 -23.3  34134  289.14 0855.21
2009/04/23 10:30:21.1     -77   -120    -64    143    156 212.6 -30.1  34138  289.21 0855.21
2009/04/23 10:30:21.2     -70   -111    -70    132    149 212.5 -34.7  34130  289.08 0855.21
2009/04/23 10:30:21.3    -102   -133    -54    168    176 217.6 -23.3  34132  289.09 0855.21
2009/04/23 10:30:21.4     -48    -89    -90    102    136 208.1 -50.3  34140  289.23 0855.21
2009/04/23 10:30:21.5    -113      0    -36    114    120 270.0 -17.6  34134  289.14 0855.21
2009/04/23 10:30:21.6     -91    -25    -68     95    116 254.5 -43.5  34134  289.13 0855.21
2009/04/23 10:30:21.7    -135   -114      4    177    178 229.8   1.6  34142  289.28 0855.21
2009/04/23 10:30:21.8    -115   -137    -24    180    182 220.1  -7.7  34158  289.55 0855.21
2009/04/23 10:30:21.9     -50   -212    -19    218    219 193.4  -5.2  34140  289.24 0855.21
2009/04/23 10:30:22.0     -82   -211     26    227    229 201.4   6.7  34138  289.19 0855.21
2009/04/23 10:30:22.1     -30   -218    -12    221    222 188.0  -3.1  34136  289.16 0855.21
2009/04/23 10:30:22.2     -12   -282     29    283    285 182.6   5.9  34132  289.09 0855.21
2009/04/23 10:30:22.3      26   -247    -17    249    250 173.8  -3.9  34136  289.15 0855.21
2009/04/23 10:30:22.4       0   -244     25    245    247 180.0   5.9  34136  289.15 0855.21
2009/04/23 10:30:22.5      13   -285     24    286    288 177.3   4.9  34136  289.15 0855.21
2009/04/23 10:30:22.6       1   -373      9    374    375 179.8   1.5  34128  289.04 0855.22
2009/04/23 10:30:22.7      97   -422    -42    434    437 167.0  -5.6  34132  289.09 0855.22
2009/04/23 10:30:22.8     125   -417    -56    436    440 163.3  -7.3  34132  289.11 0855.22
2009/04/23 10:30:22.9      81   -574    -35    580    582 171.9  -3.5  34130  289.07 0855.22
2009/04/23 10:30:23.0     275   -559    112    623    634 153.8  10.2  34128  289.03 0855.22
2009/04/23 10:30:23.1     194   -563     78    596    601 161.0   7.5  34126  288.98 0855.22
2009/04/23 10:30:23.2     383   -329    180    506    537 130.7  20.4  34126  288.99 0855.22
2009/04/23 10:30:23.3     291   -511   -135    589    605 150.4 -12.9  34130  289.07 0855.22
2009/04/23 10:30:23.4     132   -511    -95    528    537 165.5 -10.3  34132  289.09 0855.22
2009/04/23 10:30:23.5     149   -567    -76    587    592 165.2  -7.5  34128  289.03 0855.22
2009/04/23 10:30:23.6     166   -544    -62    570    574 163.0  -6.2  34122  288.93 0855.22
2009/04/23 10:30:23.7     195   -562    -23    596    597 160.8  -2.2  34122  288.93 0855.22
2009/04/23 10:30:23.8     143   -569     28    587    588 165.8   2.8  34128  289.03 0855.22
2009/04/23 10:30:23.9     180   -588    109    615    625 163.0  10.1  34126  288.98 0855.22
2009/04/23 10:30:24.0     179   -579     75    607    612 162.8   7.1  34126  289.00 0855.22
2009/04/23 10:30:24.1     148   -567     51    587    590 165.3   5.0  34130  289.05 0855.22
2009/04/23 10:30:24.2     158   -486    -11    512    513 162.0  -1.3  34134  289.12 0855.22
2009/04/23 10:30:24.3     177   -406    109    444    458 156.4  13.8  34130  289.05 0855.22
2009/04/23 10:30:24.4     137   -227    -19    266    267 149.0  -4.1  34138  289.20 0855.22
2009/04/23 10:30:24.5     106   -311    -92    329    342 161.2 -15.7  34132  289.11 0855.22
2009/04/23 10:30:24.6       0   -352    -97    353    366 180.0 -20.0  34132  289.11 0855.19
2009/04/23 10:30:24.7      57   -473   -131    477    495 173.0 -15.4  34134  289.12 0855.19
2009/04/23 10:30:24.8     -45   -487    -63    490    495 185.3  -7.3  34136  289.17 0855.19
2009/04/23 10:30:24.9    -125   -429    -17    447    448 196.3  -2.2  34128  289.04 0855.19
2009/04/23 10:30:25.0    -104   -505     40    516    518 191.7   4.5  34134  289.13 0855.19
2009/04/23 10:30:25.1    -167   -582    -29    606    607 196.1  -2.8  34142  289.27 0855.19
2009/04/23 10:30:25.2     -88   -565    -37    572    574 188.9  -3.8  34144  289.30 0855.19
2009/04/23 10:30:25.3     -34   -528    -57    530    534 183.7  -6.2  34146  289.33 0855.19
2009/04/23 10:30:25.4       8   -444    -57    445    449 178.9  -7.3  34142  289.26 0855.19
2009/04/23 10:30:25.5      46   -412    -23    415    416 173.5  -3.3  34142  289.27 0855.19
2009/04/23 10:30:25.6      77   -343    -48    352    356 167.3  -7.9  34146  289.32 0855.19
2009/04/23 10:30:25.7      92   -298   -111    312    332 162.8 -19.7  34144  289.29 0855.19
2009/04/23 10:30:25.8     209   -377     16    432    433 151.0   2.2  34144  289.31 0855.19
2009/04/23 10:30:25.9     314   -431     10    534    535 143.9   1.1  34146  289.35 0855.19
2009/04/23 10:30:26.0     299   -385     14    488    489 142.2   1.7  34148  289.37 0855.19
2009/04/23 10:30:26.1     155   -609     -4    629    630 165.7  -0.4  34146  289.33 0855.19
2009/04/23 10:30:26.2     205   -616     16    650    651 161.5   1.5  34144  289.31 0855.19
2009/04/23 10:30:26.3     138   -530      4    548    549 165.3   0.5  34146  289.35 0855.19
2009/04/23 10:30:26.4     180   -664     -2    689    690 164.8  -0.2  34142  289.26 0855.19
2009/04/23 10:30:26.5      31   -448   -132    450    468 176.0 -21.2  34142  289.26 0855.19
2009/04/23 10:30:26.6     123   -417    -17    436    437 163.5  -2.2  34146  289.33 0855.19
2009/04/23 10:30:26.7     291   -598    -70    666    670 154.0  -6.1  34150  289.39 0855.19
2009/04/23 10:30:26.8     418   -453    -22    617    618 137.3  -2.1  34142  289.28 0855.19
2009/04/23 10:30:26.9     381   -322     44    500    503 130.2   5.1  34140  289.22 0855.19
2009/04/23 10:30:27.0     266   -204    -50    336    340 127.5  -8.6  34152  289.43 0855.19
2009/04/23 10:30:27.1     191   -198    -93    276    291 136.1 -23.3  34150  289.39 0855.19
2009/04/23 10:30:27.2     165   -171    -11    238    239 136.1  -2.8  34150  289.39 0855.19
2009/04/23 10:30:27.3     193   -195    -22    275    276 135.2  -4.6  34152  289.42 0855.19
2009/04/23 10:30:27.4      26   -190    184    192    265 172.2  48.7  34152  289.44 0855.19
2009/04/23 10:30:27.5     114   -157    163    195    254 143.9  44.1  34152  289.42 0855.19
2009/04/23 10:30:27.6     132   -149    191    200    276 138.6  48.7  34142  289.27 0855.19
2009/04/23 10:30:27.7      88   -182    215    203    295 154.1  52.1  34142  289.25 0855.19
2009/04/23 10:30:27.8     112   -176    169    209    268 147.5  43.5  34146  289.32 0855.19
2009/04/23 10:30:27.9     118   -194    198    228    301 148.6  45.8  34146  289.34 0855.19
2009/04/23 10:30:28.0      41   -125    187    132    228 161.7  61.3  34148  289.38 0855.19
2009/04/23 10:30:28.1     -21    -26    121     34    125 219.6  84.4  34152  289.43 0855.19
2009/04/23 10:30:28.2      -2     27    139     28    141 355.5  89.1  34152  289.45 0855.19
2009/04/23 10:30:28.3      89    -36    183     97    207 112.2  69.8  34152  289.45 0855.19
2009/04/23 10:30:28.4      14     69    143     71    159  11.5  71.7  34160  289.57 0855.19
2009/04/23 10:30:28.5      57     68    144     89    169  40.1  65.4  34156  289.52 0855.19
2009/04/23 10:30:28.6      15   -349    152    159    219 360.0  48.7  34164  289.64 0855.15
2009/04/23 10:30:28.7       0     25    140     26    142   0.9  90.0  34166  289.69 0855.15
2009/04/23 10:30:28.8       4     27    101     28    104   9.8  84.4  34164  289.63 0855.15
2009/04/23 10:30:28.9     153    -21    201    155    253  98.0  58.5  34152  289.45 0855.15
2009/04/23 10:30:29.0     137    108    222    175    282  51.6  58.2  34154  289.46 0855.15
2009/04/23 10:30:29.1      51     46    197     69    208  47.8  80.2  34158  289.53 0855.15
2009/04/23 10:30:29.2    -154    -63    168    167    236 247.8  50.1  34156  289.50 0855.15
2009/04/23 10:30:29.3     101   -100    168    143    220 134.9  55.4  34154  289.46 0855.15
2009/04/23 10:30:29.4     122    -54    170    134    216 114.0  57.7  34146  289.35 0855.15
2009/04/23 10:30:29.5      18   -122    164    124    205 171.5  59.0  34148  289.38 0855.15
2009/04/23 10:30:29.6     204     73    212    217    303  70.3  49.8  34160  289.56 0855.15
2009/04/23 10:30:29.7     177    149    327    232    400  50.0  61.3  34156  289.52 0855.15
2009/04/23 10:30:29.8     -68     87    234    111    258 322.2  72.9  34158  289.55 0855.15
2009/04/23 10:30:29.9     -92     79    259    122    286 310.9  73.1  34158  289.53 0855.15
2009/04/23 10:30:30.0     -17    116    384    118    401 351.5  82.4  34140  289.23 0855.15
2009/04/23 10:30:30.1      33    267    426    270    504   7.1  64.7  34120  288.89 0855.15
2009/04/23 10:30:30.2     437     88     61    446    451  78.6   7.8  34132  289.09 0855.15
2009/04/23 10:30:30.3     139     42    323    146    354  73.2  74.2  34146  289.32 0855.15
2009/04/23 10:30:30.4     700   -426    420    820    921 121.3  29.2  34134  289.13 0855.15
2009/04/23 10:30:30.5     230   -728     -6    764    765 162.5  -0.5  34142  289.26 0855.15
2009/04/23 10:30:30.6     302   -592    236    665    707 152.9  19.6  34130  289.07 0855.11
2009/04/23 10:30:30.7      23   -525    285    526    598 177.4  30.8  34142  289.25 0855.11
2009/04/23 10:30:30.8     -88   -246    309    262    405 199.8  55.5  34170  289.74 0855.11
2009/04/23 10:30:30.9       5   -191    395    192    439 178.4  72.6  34156  289.50 0855.11
2009/04/23 10:30:31.0      14   -318    475    319    572 177.3  63.1  34156  289.50 0855.11
2009/04/23 10:30:31.1     -34   -426    523    428    675 184.6  56.5  34150  289.39 0855.11
2009/04/23 10:30:31.2     -73   -152    414    169    447 205.6  76.8  34156  289.50 0855.11
2009/04/23 10:30:31.3     -71   -607    467    612    769 186.7  41.2  34152  289.45 0855.11
2009/04/23 10:30:31.4    -121   -629    509    641    818 190.9  42.4  34152  289.45 0855.11
2009/04/23 10:30:31.5      23   -273    488    275    560 175.1  68.3  34140  289.23 0855.11
2009/04/23 10:30:31.6     264     15    583    265    640  86.7  73.9  34132  289.09 0855.11
2009/04/23 10:30:31.7     189     83    608    207    642  66.3  80.6  34120  288.91 0855.11
2009/04/23 10:30:31.8      97   -246    432    265    506 158.4  65.7  34122  288.94 0855.11
2009/04/23 10:30:31.9     363   -498    418    617    745 143.9  37.4  34130  289.08 0855.11
2009/04/23 10:30:32.0     561   -374    123    675    687 123.7  10.3  34148  289.38 0855.11
2009/04/23 10:30:32.1     294   -266    -82    397    406 132.2 -11.8  34128  289.04 0855.11
2009/04/23 10:30:32.2      17   -379    307    380    488 177.3  43.1  34148  289.38 0855.11
2009/04/23 10:30:32.3     -38   -421    346    423    546 185.2  43.5  34124  288.95 0855.11
2009/04/23 10:30:32.4     420    -27    390    421    573  93.8  47.8  34142  289.26 0855.11
2009/04/23 10:30:32.5     353   -116    325    372    493 108.2  45.6  34136  289.17 0855.11
2009/04/23 10:30:32.6     262   -190    344    324    472 126.0  52.0  34138  289.19 0855.12
2009/04/23 10:30:32.7    -195   -337    149    390    417 210.1  22.0  34134  289.14 0855.12
2009/04/23 10:30:32.8     -43   -178    -53    184    192 193.8 -16.0  34128  289.02 0855.12
2009/04/23 10:30:32.9     115   -181    -30    215    218 147.4  -8.0  34138  289.21 0855.12
2009/04/23 10:30:33.0      84   -108    -42    137    143 142.2 -21.8  34142  289.28 0855.12
2009/04/23 10:30:33.1      60     23   -160     65    172  69.2 -81.5  34146  289.33 0855.12
2009/04/23 10:30:33.2     331    -88     35    343    345 104.9   5.9  34146  289.32 0855.12
2009/04/23 10:30:33.3     159     -6     81    160    179  92.5  28.7  34158  289.53 0855.12
2009/04/23 10:30:33.4     204     27     80    206    220  82.3  22.5  34162  289.62 0855.12
2009/04/23 10:30:33.5     223    -23    147    225    268  95.9  36.3  34158  289.53 0855.12
2009/04/23 10:30:33.6     206    -48     90    212    230 103.3  24.6  34158  289.53 0855.15
2009/04/23 10:30:33.7      77    -99     10    126    127 142.1   4.9  34156  289.52 0855.15
2009/04/23 10:30:33.8    -121    -43     82    129    152 250.1  35.5  34154  289.48 0855.15
2009/04/23 10:30:33.9    -153   -142    -79    209    223 227.1 -25.9  34160  289.57 0855.15
2009/04/23 10:30:34.0    -154   -203    -42    255    259 217.2  -9.3  34144  289.29 0855.15
2009/04/23 10:30:34.1    -193   -193     32    274    276 225.0   6.7  34136  289.17 0855.15
2009/04/23 10:30:34.2    -152   -208    141    258    294 216.1  31.3  34144  289.29 0855.15
2009/04/23 10:30:34.3    -274    -91    -68    289    297 251.6 -13.3  34142  289.25 0855.15
2009/04/23 10:30:34.4    -217   -168    -81    275    286 232.2 -21.5  34142  289.27 0855.15
2009/04/23 10:30:34.5    -187   -128   -101    227    248 235.6 -30.3  34140  289.24 0855.15
2009/04/23 10:30:34.6     -70   -126    -98    145    175 209.0 -41.4  34140  289.24 0855.15
2009/04/23 10:30:34.7    -161     -3     14    162    163 268.7   5.2  34140  289.23 0855.15
2009/04/23 10:30:34.8    -268     14     37    269    272 273.0   8.0  34144  289.29 0855.15
2009/04/23 10:30:34.9    -235    104    210    258    332 294.0  43.4  34156  289.51 0855.15
2009/04/23 10:30:35.0    -175    168    247    243    346 313.8  50.6  34162  289.59 0855.15
2009/04/23 10:30:35.1     -66     -1    208     67    218 268.3  81.6  34164  289.65 0855.15
2009/04/23 10:30:35.2       0    -41    196     42    200 180.9  88.5  34170  289.74 0855.15
2009/04/23 10:30:35.3       4     12    171     13    171  18.7  90.0  34166  289.69 0855.15
2009/04/23 10:30:35.4    -103   -360    173    375    412 196.0  26.5  34146  289.33 0855.15
2009/04/23 10:30:35.5    -124   -432     36    450    452 196.0   4.6  34146  289.33 0855.15
2009/04/23 10:30:35.6       4   -273     64    274    282 179.1  13.2  34142  289.27 0855.18
2009/04/23 10:30:35.7    -124   -275    241    302    386 204.3  42.7  34152  289.45 0855.18
2009/04/23 10:30:35.8     -65   -360    199    366    416 190.3  30.9  34146  289.33 0855.18
2009/04/23 10:30:35.9     -25   -349    224    350    415 184.2  35.6  34144  289.30 0855.18
2009/04/23 10:30:36.0    -116   -316     -2    337    338 200.2  -0.4  34146  289.32 0855.18
2009/04/23 10:30:36.1    -116   -348     31    368    370 198.5   4.9  34138  289.20 0855.18
2009/04/23 10:30:36.2       0   -230     71    231    242 180.0  17.3  34140  289.24 0855.18
2009/04/23 10:30:36.3      34   -102     93    108    142 161.3  45.4  34146  289.35 0855.18
2009/04/23 10:30:36.4       4     -5    136      7    136 136.6  90.0  34150  289.40 0855.18
2009/04/23 10:30:36.5     -63    -35     91     73    116 241.1  56.4  34148  289.38 0855.18
2009/04/23 10:30:36.6      -1   -126    189    127    227 180.5  62.8  34142  289.26 0855.18
2009/04/23 10:30:36.7     -44   -147    220    154    268 196.9  61.5  34138  289.20 0855.18
2009/04/23 10:30:36.8     -97   -121    152    156    217 218.7  49.4  34134  289.13 0855.18
2009/04/23 10:30:36.9    -103     47     61    114    129 294.4  30.3  34130  289.06 0855.18
2009/04/23 10:30:37.0    -245    -59     25    253    255 256.3   5.7  34118  288.87 0855.18
2009/04/23 10:30:37.1    -419    -68   -121    425    441 260.8 -20.7  34114  288.78 0855.18
2009/04/23 10:30:37.2    -403    108   -132    418    439 285.0 -17.6  34110  288.72 0855.18
2009/04/23 10:30:37.3    -247   -211   -208    326    386 229.5 -40.0  34116  288.81 0855.18
2009/04/23 10:30:37.4    -164    -14   -137    165    214 264.8 -48.2  34120  288.91 0855.18
2009/04/23 10:30:37.5    -262     40    -37    266    269 278.8  -8.0  34134  289.14 0855.18
2009/04/23 10:30:37.6    -491     36   -159    493    518 274.3 -23.0  34124  288.95 0855.20
2009/04/23 10:30:37.7    -326      2   -213    327    390 270.5 -40.7  34134  289.13 0855.20
2009/04/23 10:30:37.8    -394      4    -97    395    407 270.6 -13.9  34132  289.09 0855.20
2009/04/23 10:30:37.9    -511     34   -102    513    524 273.9 -11.3  34138  289.19 0855.20
2009/04/23 10:30:38.0    -242     32    109    245    268 277.7  25.9  34142  289.27 0855.20
2009/04/23 10:30:38.1    -265     44     94    269    284 279.6  20.0  34126  289.00 0855.20
2009/04/23 10:30:38.2    -154    128     96    201    222 309.8  27.2  34136  289.18 0855.20
2009/04/23 10:30:38.3     -59     63     41     87     96 317.2  27.2  34146  289.35 0855.20
2009/04/23 10:30:38.4     105     32    136    110    174  72.7  56.6  34140  289.23 0855.20
2009/04/23 10:30:38.5     136    -98     90    168    190 125.9  30.6  34136  289.16 0855.20
2009/04/23 10:30:38.6     180   -140    -65    229    239 128.0 -15.8  34136  289.17 0855.20
2009/04/23 10:30:38.7      27   -197    111    199    227 172.2  31.4  34136  289.16 0855.20
2009/04/23 10:30:38.8      61   -141    168    154    227 156.4  52.5  34136  289.16 0855.20
2009/04/23 10:30:38.9     354   -432    116    559    572 140.7  11.8  34130  289.06 0855.20
2009/04/23 10:30:39.0     457   -496    192    675    702 137.3  15.9  34116  288.82 0855.20
2009/04/23 10:30:39.1     279   -355     90    452    461 141.8  11.3  34122  288.94 0855.20
2009/04/23 10:30:39.2     233   -374     62    441    446 148.0   8.0  34106  288.67 0855.20
2009/04/23 10:30:39.3     182   -454    219    490    536 158.2  25.7  34120  288.91 0855.20
2009/04/23 10:30:39.4     -32   -828    355    829    901 182.2  24.6  34118  288.86 0855.20
2009/04/23 10:30:39.5     -75   -804    261    808    850 185.4  17.9  34116  288.82 0855.20
2009/04/23 10:30:39.6     200   -787    354    813    886 165.7  25.1  34122  288.93 0855.17
2009/04/23 10:30:39.7     351   -676    271    762    809 152.5  19.6  34120  288.91 0855.17
2009/04/23 10:30:39.8     117   -576    247    588    637 168.5  24.2  34110  288.72 0855.17
2009/04/23 10:30:39.9     185   -642     93    669    676 163.9   7.9  34108  288.68 0855.17
2009/04/23 10:30:40.0     -24   -515    158    516    540 182.7  17.0  34110  288.72 0855.17
2009/04/23 10:30:40.1    -191   -898      0    919    920 192.1   0.0  34104  288.63 0855.17
2009/04/23 10:30:40.2    -346   -816    -83    887    892 203.0  -5.4  34100  288.54 0855.17
2009/04/23 10:30:40.3    -517   -887   -157   1027   1039 210.2  -8.7  34094  288.47 0855.17
2009/04/23 10:30:40.4    -579   -765   -138    960    971 217.1  -8.2  34090  288.37 0855.17
2009/04/23 10:30:40.5    -219   -429    151    482    506 207.1  17.4  34106  288.66 0855.17
2009/04/23 10:30:40.6    -134   -389    185    412    451 199.1  25.8  34100  288.55 0855.17
2009/04/23 10:30:40.7    -281   -734     32    787    788 201.0   2.3  34100  288.56 0855.17
2009/04/23 10:30:40.8    -376   -718   -102    811    818 207.7  -7.2  34092  288.43 0855.17
2009/04/23 10:30:40.9    -267   -587   -153    645    664 204.5 -13.4  34092  288.41 0855.17
2009/04/23 10:30:41.0    -193   -231    -14    302    303 219.9  -2.8  34102  288.58 0855.17
2009/04/23 10:30:41.1     120   -481    165    496    524 166.0  18.5  34100  288.56 0855.17
2009/04/23 10:30:41.2     157   -312    263    350    437 153.3  40.7  34104  288.63 0855.17
2009/04/23 10:30:41.3     420   -285    296    508    587 124.2  32.9  34104  288.63 0855.17
2009/04/23 10:30:41.4     282   -107    370    302    477 110.8  56.6  34108  288.68 0855.17
2009/04/23 10:30:41.5      42    -64    243     77    254 146.6  81.8  34100  288.57 0855.17
2009/04/23 10:30:41.6     248    131    191    281    339  62.0  37.4  34108  288.68 0855.20
2009/04/23 10:30:41.7     340    182    154    386    415  61.8  23.0  34106  288.67 0855.20
2009/04/23 10:30:41.8     457    199    171    499    528  66.5  18.9  34098  288.51 0855.20
2009/04/23 10:30:41.9     312    218    236    381    448  55.0  34.9  34112  288.77 0855.20
2009/04/23 10:30:42.0     201    176    187    268    326  48.9  38.4  34114  288.80 0855.20
2009/04/23 10:30:42.1     172    195    148    261    300  41.4  31.9  34104  288.61 0855.20
2009/04/23 10:30:42.2     318     49    321    322    454  81.2  50.0  34110  288.72 0855.20
2009/04/23 10:30:42.3     463    144     50    485    488  72.7   6.0  34088  288.35 0855.20
2009/04/23 10:30:42.5     382    126    254    403    476  71.7  35.2  34112  288.77 0855.20
2009/04/23 10:30:42.5     275      3    226    276    356  89.2  43.6  34110  288.72 0855.20
2009/04/23 10:30:42.6     246    -38     85    249    264  98.8  18.9  34108  288.68 0855.20
2009/04/23 10:30:42.8     136     -3    192    137    235  91.3  61.1  34104  288.64 0855.20
2009/04/23 10:30:42.8      42     73    187     85    205  30.3  73.8  34122  288.92 0855.20
2009/04/23 10:30:42.9     -53   -132     99    143    173 201.9  37.8  34112  288.77 0855.20
2009/04/23 10:30:43.1     184    -62    217    195    291 108.6  53.3  34112  288.76 0855.20
2009/04/23 10:30:43.2      45   -169    230    176    289 164.9  58.5  34116  288.81 0855.20
2009/04/23 10:30:43.3     173   -285    233    334    407 148.7  38.4  34104  288.64 0855.20
2009/04/23 10:30:43.4      40   -101    250    109    272 158.2  75.0  34110  288.74 0855.20
2009/04/23 10:30:43.5     270   -579   -149    640    658 155.0 -13.1  34104  288.64 0855.20
2009/04/23 10:30:43.6    -116   -434   -117    450    466 195.1 -14.6  34108  288.70 0855.20
2009/04/23 10:30:43.7    -143   -153   -178    210    275 223.0 -49.2  34118  288.85 0855.16
2009/04/23 10:30:43.8    -218   -133    -86    256    271 238.7 -18.6  34110  288.71 0855.16
2009/04/23 10:30:43.9     -84    -66     17    107    109 231.8   9.0  34110  288.72 0855.16
2009/04/23 10:30:44.0       0   -243    -82    244    257 180.0 -23.3  34112  288.75 0855.16
2009/04/23 10:30:44.1     -59   -209     -4    218    219 195.8  -1.3  34112  288.75 0855.16
2009/04/23 10:30:44.2      56     31    173     65    184  61.1  78.9  34114  288.80 0855.16
2009/04/23 10:30:44.3      22    -59    206     64    215 159.1  82.0  34108  288.70 0855.16
2009/04/23 10:30:44.4       6   -214    148    215    261 178.4  37.6  34098  288.51 0855.16
2009/04/23 10:30:44.5      41   -108    -54    116    127 159.1 -31.5  34094  288.47 0855.16
2009/04/23 10:30:44.6     207    -75     60    221    230 110.0  15.3  34108  288.70 0855.16
2009/04/23 10:30:44.7     223   -138     91    263    279 121.8  19.2  34104  288.63 0855.16
2009/04/23 10:30:44.8     222    -33    105    225    248  98.6  27.1  34112  288.75 0855.16
2009/04/23 10:30:44.9      98   -271    148    289    324 160.0  29.2  34112  288.75 0855.16
2009/04/23 10:30:45.0     -19   -362    221    363    424 183.0  34.4  34086  288.31 0855.16
2009/04/23 10:30:45.1    -136   -515     96    533    542 194.8  10.2  34096  288.48 0855.16
2009/04/23 10:30:45.2      51   -509   -181    512    543 174.2 -24.6  34102  288.58 0855.16
2009/04/23 10:30:45.3     286   -222    -43    363    366 127.9  -6.8  34094  288.44 0855.16
2009/04/23 10:30:45.4     203   -386    -47    437    440 152.3  -6.3  34108  288.70 0855.16
2009/04/23 10:30:45.5     112   -454    -48    468    471 166.1  -6.0  34108  288.68 0855.16
2009/04/23 10:30:45.6     176   -136    111    223    249 127.8  28.2  34100  288.56 0855.16
2009/04/23 10:30:45.7     133    -53    -45    144    152 111.8 -17.6  34104  288.62 0855.18
2009/04/23 10:30:45.8     283     48     34    288    291  80.4   6.9  34102  288.59 0855.18
2009/04/23 10:30:45.9      98   -255    173    274    324 158.8  35.3  34096  288.48 0855.18
2009/04/23 10:30:46.0     -96   -327     66    341    348 196.4  11.0  34102  288.59 0855.18
2009/04/23 10:30:46.1    -111   -432     47    447    450 194.5   6.1  34104  288.63 0855.18
2009/04/23 10:30:46.2       0   -214    196    215    290 180.2  47.0  34086  288.31 0855.18
2009/04/23 10:30:46.3       8     96    175     97    200   4.9  68.8  34106  288.67 0855.18
2009/04/23 10:30:46.4    -138     50    217    147    262 290.0  62.7  34114  288.79 0855.18
2009/04/23 10:30:46.5      17   -340     56    341    346 177.1   9.4  34102  288.60 0855.18
2009/04/23 10:30:46.6      93   -514    -81    523    530 169.7  -8.8  34088  288.36 0855.18
2009/04/23 10:30:46.7      42     50   -189     66    200  40.5 -84.9  34082  288.25 0855.18
2009/04/23 10:30:46.8     165    138   -195    216    291  50.0 -51.3  34092  288.41 0855.18
2009/04/23 10:30:46.9     243    129    -98    276    294  62.0 -19.6  34090  288.37 0855.18
2009/04/23 10:30:47.0     116     89     28    147    150  52.7  11.1  34098  288.52 0855.18
2009/04/23 10:30:47.1     227    176    -26    288    290  52.3  -5.2  34090  288.37 0855.18
2009/04/23 10:30:47.2     299    141     48    331    335  64.6   8.3  34090  288.38 0855.18
2009/04/23 10:30:47.3     239     58    159    246    292  76.3  35.6  34092  288.41 0855.18
2009/04/23 10:30:47.4      49     92    214    105    238  28.1  71.9  34096  288.48 0855.18
2009/04/23 10:30:47.5       3   -223    294    224    369 179.1  59.0  34076  288.14 0855.18
2009/04/23 10:30:47.6      46   -203    248    209    324 167.1  55.8  34076  288.15 0855.18
2009/04/23 10:30:47.7     -16   -240    164    241    291 184.0  37.4  34082  288.24 0855.17
2009/04/23 10:30:47.8     154   -103    168    186    250 124.0  46.9  34066  287.98 0855.17
2009/04/23 10:30:47.9     313     87    161    325    362  74.4  28.2  34084  288.28 0855.17
2009/04/23 10:30:48.0     227     27    191    229    298  83.0  43.8  34078  288.17 0855.17
2009/04/23 10:30:48.1      70    109    190    130    230  32.6  62.6  34094  288.47 0855.17
2009/04/23 10:30:48.2     252    199    154    322    356  51.6  27.3  34090  288.38 0855.17
2009/04/23 10:30:48.3     239    216    195    323    377  47.8  34.0  34084  288.28 0855.17
2009/04/23 10:30:48.4     150     94    242    178    300  58.0  60.5  34086  288.31 0855.17
2009/04/23 10:30:48.5     -74   -116    376    138    400 212.6  79.2  34074  288.11 0855.17
2009/04/23 10:30:48.6     272    208    248    343    423  52.6  39.5  34074  288.10 0855.17
2009/04/23 10:30:48.7     289    110    238    310    390  69.1  41.4  34080  288.22 0855.17
2009/04/23 10:30:48.8     169     35     78    173    189  78.1  26.2  34084  288.30 0855.17
2009/04/23 10:30:48.9     208    136      3    249    250  56.7   0.8  34080  288.22 0855.17
2009/04/23 10:30:49.0     266    175     96    319    334  56.7  16.8  34078  288.18 0855.17
2009/04/23 10:30:49.1     277     38    228    280    361  82.1  43.5  34084  288.27 0855.17
2009/04/23 10:30:49.2     171    -39    328    176    372 103.0  69.6  34092  288.43 0855.17
2009/04/23 10:30:49.3     120    -76    252    143    289 122.4  68.1  34084  288.29 0855.17
2009/04/23 10:30:49.4      26    -99    104    103    146 164.8  50.1  34092  288.43 0855.17
2009/04/23 10:30:49.5    -171     94     69    196    207 298.9  20.0  34088  288.35 0855.17
2009/04/23 10:30:49.6     -89    -64     73    110    132 234.0  36.5  34096  288.48 0855.17
2009/04/23 10:30:49.7     -84     77    123    115    168 312.7  52.0  34096  288.48 0855.12
2009/04/23 10:30:49.8    -186    121     -1    223    224 303.1  -0.5  34086  288.31 0855.12
2009/04/23 10:30:49.9     -66    196    141    207    250 341.3  37.4  34094  288.46 0855.12
2009/04/23 10:30:50.0    -177    120    -72    214    226 304.2 -18.7  34092  288.42 0855.12
2009/04/23 10:30:50.1    -320    128     35    345    347 291.8   5.8  34090  288.37 0855.12
2009/04/23 10:30:50.2    -370     13    176    371    410 272.1  27.1  34094  288.44 0855.12
2009/04/23 10:30:50.3    -138    -23    165    141    217 260.3  55.0  34098  288.53 0855.12
2009/04/23 10:30:50.4    -238    130    141    272    306 298.6  29.3  34094  288.44 0855.12
2009/04/23 10:30:50.5    -437    198     90    480    489 294.4  10.7  34094  288.46 0855.12
2009/04/23 10:30:50.6    -329    -29    203    331    388 264.9  34.8  34096  288.50 0855.12
2009/04/23 10:30:50.7     -59    -60    268     85    281 224.5  81.8  34098  288.53 0855.12
2009/04/23 10:30:50.8    -112   -391    215    407    460 196.0  30.2  34090  288.38 0855.12
2009/04/23 10:30:50.9     -37   -347    182    350    394 186.2  29.6  34094  288.45 0855.12
2009/04/23 10:30:51.0     -99   -287    315    304    437 199.2  51.2  34100  288.54 0855.12
2009/04/23 10:30:51.1    -170   -202    263    265    373 220.1  49.9  34098  288.52 0855.12
2009/04/23 10:30:51.2    -159   -309    197    348    399 207.3  32.1  34100  288.54 0855.12
2009/04/23 10:30:51.3     -81   -506    185    513    545 189.1  20.8  34094  288.47 0855.12
2009/04/23 10:30:51.4    -123   -614    257    627    677 191.4  23.6  34096  288.48 0855.12
2009/04/23 10:30:51.5    -125   -549    237    564    611 192.9  24.1  34092  288.42 0855.12
2009/04/23 10:30:51.6    -122   -695    156    706    724 190.0  12.5  34094  288.47 0855.12
2009/04/23 10:30:51.7    -117   -476    -26    491    492 193.8  -3.1  34088  288.35 0855.09
2009/04/23 10:30:51.8       5   -413    221    414    469 179.2  30.3  34096  288.50 0855.09
2009/04/23 10:30:51.9     -63   -339    108    345    362 190.6  17.4  34096  288.50 0855.09
2009/04/23 10:30:52.0    -152   -425    144    452    475 199.7  17.7  34098  288.51 0855.09
2009/04/23 10:30:52.1    -171   -387    192    424    465 203.9  26.2  34098  288.53 0855.09
2009/04/23 10:30:52.2       0   -389    129    390    411 180.1  18.4  34096  288.50 0855.09
2009/04/23 10:30:52.3     172   -316    160    361    394 151.4  25.3  34098  288.52 0855.09
2009/04/23 10:30:52.4     178   -108    181    209    276 121.1  45.6  34102  288.58 0855.09
2009/04/23 10:30:52.5     -52     -4     78     53     94 265.7  63.2  34104  288.62 0855.09
2009/04/23 10:30:52.6     -89   -147    234    172    290 211.2  60.5  34106  288.66 0855.09
2009/04/23 10:30:52.7     -41   -216    129    220    255 190.9  33.1  34096  288.49 0855.09
2009/04/23 10:30:52.8    -128   -154    158    201    255 219.6  42.2  34102  288.58 0855.09
2009/04/23 10:30:52.9    -119   -114     78    165    182 226.2  27.1  34102  288.58 0855.09
2009/04/23 10:30:53.0     -73    -46     94     87    128 237.6  52.2  34108  288.69 0855.09
2009/04/23 10:30:53.1     -17    -17     50     25     55 225.0  71.9  34100  288.55 0855.09
2009/04/23 10:30:53.2     -13    -88     72     90    115 188.9  43.7  34106  288.65 0855.09
2009/04/23 10:30:53.3      10   -138    146    139    201 175.6  51.6  34094  288.47 0855.09
2009/04/23 10:30:53.4    -202    -28    118    204    235 262.1  32.4  34106  288.65 0855.09
2009/04/23 10:30:53.5    -287     11    -16    288    289 272.4  -3.2  34102  288.58 0855.09
2009/04/23 10:30:53.6    -335      4    155    336    370 270.8  26.5  34100  288.57 0855.09
2009/04/23 10:30:53.7    -262     -3    169    263    312 269.2  35.9  34118  288.87 0855.08
2009/04/23 10:30:53.8     -19    -88    216     91    234 192.5  76.0  34126  288.99 0855.08
2009/04/23 10:30:53.9     -94    -67    239    116    265 234.5  72.8  34120  288.91 0855.08
2009/04/23 10:30:54.0     -73    -24    227     77    239 251.8  80.7  34132  289.09 0855.08
2009/04/23 10:30:54.1     -79     57    161     98    188 306.0  65.7  34128  289.02 0855.08
2009/04/23 10:30:54.2     -11    154    120    155    196 355.6  41.7  34114  288.80 0855.08
2009/04/23 10:30:54.3     111    120     78    164    181  42.8  27.2  34106  288.67 0855.08
2009/04/23 10:30:54.4      43     32    171     54    179  53.1  82.0  34112  288.75 0855.08
2009/04/23 10:30:54.5      11    -41     86     43     96 164.9  71.9  34120  288.89 0855.08
2009/04/23 10:30:54.6     -40   -133     38    140    146 196.9  15.3  34108  288.69 0855.08
2009/04/23 10:30:54.7    -166     17     74    167    182 275.9  25.3  34100  288.55 0855.08
2009/04/23 10:30:54.8     -90      6    120     91    150 274.4  59.0  34112  288.77 0855.08
2009/04/23 10:30:54.9      -2    -38    132     39    137 184.4  83.3  34104  288.62 0855.08
2009/04/23 10:30:55.0     -37    164    243    169    295 347.3  61.8  34112  288.76 0855.08
2009/04/23 10:30:55.1    -230     -2    201    231    306 269.4  45.8  34118  288.87 0855.08
2009/04/23 10:30:55.2    -342    -82    178    352    394 256.4  28.9  34126  288.98 0855.08
2009/04/23 10:30:55.3    -318    -78    118    328    349 256.1  19.9  34128  289.03 0855.08
2009/04/23 10:30:55.4    -287    -59     60    294    301 258.3  11.6  34120  288.88 0855.08
2009/04/23 10:30:55.5    -234   -182    174    297    344 232.2  33.0  34106  288.67 0855.08
2009/04/23 10:30:55.6    -290   -160    105    332    349 241.1  17.5  34110  288.72 0855.08
2009/04/23 10:30:55.7    -266   -186    152    325    358 235.0  27.0  34104  288.64 0855.08
2009/04/23 10:30:55.8    -359    -45     22    362    363 262.8   3.5  34102  288.59 0855.08
2009/04/23 10:30:55.9    -332   -156     12    367    368 244.8   1.9  34110  288.74 0855.08
2009/04/23 10:30:56.0    -213   -265     72    341    349 218.8  12.0  34102  288.59 0855.08
2009/04/23 10:30:56.1    -168   -234    225    289    366 215.6  41.9  34110  288.74 0855.08
2009/04/23 10:30:56.2    -186   -150     57    240    247 231.1  13.5  34114  288.80 0855.08
2009/04/23 10:30:56.3    -148   -192     29    243    245 217.8   6.9  34120  288.90 0855.08
2009/04/23 10:30:56.4    -134   -256    -18    290    291 207.6  -3.7  34122  288.92 0855.08
2009/04/23 10:30:56.5    -156   -268     -6    311    312 210.3  -1.1  34118  288.85 0855.08
2009/04/23 10:30:56.6    -110   -452    145    466    489 193.7  17.3  34108  288.69 0855.08
2009/04/23 10:30:56.7     -40   -372    278    375    466 186.3  40.1  34122  288.92 0855.09
2009/04/23 10:30:56.8    -104   -399    173    413    447 194.6  24.1  34132  289.09 0855.09
2009/04/23 10:30:56.9    -105   -476    206    488    529 192.5  24.3  34110  288.71 0855.09
2009/04/23 10:30:57.0       6   -524    393    525    655 179.3  40.6  34102  288.59 0855.09
2009/04/23 10:30:57.1      94   -471    382    481    614 168.7  42.6  34102  288.58 0855.09
2009/04/23 10:30:57.2     276   -284    274    397    482 135.8  37.9  34106  288.67 0855.09
2009/04/23 10:30:57.3     231   -256    184    346    391 137.9  30.3  34104  288.64 0855.09
2009/04/23 10:30:57.4     223   -245    118    332    352 137.6  20.3  34102  288.60 0855.09
2009/04/23 10:30:57.5     119   -263    161    289    330 155.7  31.7  34100  288.54 0855.09
2009/04/23 10:30:57.6     237   -224    252    327    412 133.3  41.5  34102  288.59 0855.09
2009/04/23 10:30:57.7     125   -297    104    323    340 157.2  17.8  34100  288.57 0855.09
2009/04/23 10:30:57.8     189   -254    197    317    373 143.3  35.0  34094  288.44 0855.09
2009/04/23 10:30:57.9      23   -295    168    296    340 175.5  32.1  34100  288.54 0855.09
2009/04/23 10:30:58.0      21   -277    165    278    323 175.6  33.5  34100  288.54 0855.09
2009/04/23 10:30:58.1    -135   -218    197    257    323 211.9  41.4  34106  288.65 0855.09
2009/04/23 10:30:58.2      21   -371    356    372    514 176.8  48.7  34088  288.35 0855.09
2009/04/23 10:30:58.3      38   -402    355    404    537 174.6  45.8  34104  288.64 0855.09
2009/04/23 10:30:58.4     114   -390    364    407    546 163.7  46.4  34098  288.52 0855.09
2009/04/23 10:30:58.5     122   -447    335    464    572 164.7  39.5  34100  288.57 0855.09
2009/04/23 10:30:58.6      -5   -228    214    229    313 181.4  47.9  34104  288.61 0855.09
2009/04/23 10:30:58.7      61   -194     53    204    211 162.4  14.7  34094  288.47 0855.08
2009/04/23 10:30:58.8     -28   -137    264    140    298 191.6  69.8  34106  288.65 0855.08
2009/04/23 10:30:58.9    -123   -208    254    242    350 210.7  51.5  34110  288.73 0855.08
2009/04/23 10:30:59.0    -130   -243    202    276    342 208.1  39.9  34102  288.59 0855.08
2009/04/23 10:30:59.1     -18     10    173     21    174 300.7  90.0  34128  289.04 0855.08
2009/04/23 10:30:59.2    -208   -116    115    239    265 240.7  27.3  34138  289.19 0855.08
2009/04/23 10:30:59.3       0   -158     99    159    187 180.0  35.2  34128  289.02 0855.08
2009/04/23 10:30:59.4     -48   -211    201    217    295 192.9  47.9  34120  288.90 0855.08
2009/04/23 10:30:59.5    -123   -189    183    226    290 213.0  43.5  34118  288.85 0855.08
2009/04/23 10:30:59.6    -180    -62     26    191    193 250.9   8.0  34122  288.94 0855.08
2009/04/23 10:30:59.7    -329   -212    125    392    412 237.2  17.7  34124  288.95 0855.08
2009/04/23 10:30:59.8    -421   -300    -56    518    522 234.5  -6.3  34112  288.77 0855.08
2009/04/23 10:30:59.9    -482   -355   -114    599    610 233.6 -10.8  34102  288.59 0855.08
2009/04/23 10:31:00.0    -505   -102    -56    516    520 258.6  -6.2  34092  288.42 0855.08
2009/04/23 10:31:00.1    -349   -372    178    511    542 223.2  19.2  34112  288.75 0855.08
2009/04/23 10:31:00.2    -169   -265    224    315    386 212.6  39.0  34090  288.38 0855.08
2009/04/23 10:31:00.3    -358   -192     57    407    412 241.7   8.0  34106  288.67 0855.08
2009/04/23 10:31:00.4    -398   -237    -30    464    465 239.3  -3.7  34110  288.71 0855.08
2009/04/23 10:31:00.5    -124   -252    -15    282    283 206.3  -3.2  34110  288.73 0855.08
2009/04/23 10:31:00.6      75    -90    190    118    223 140.4  64.9  34114  288.79 0855.08
2009/04/23 10:31:00.7      -5     46    355     47    358 353.8  90.0  34126  288.98 0855.07
2009/04/23 10:31:00.8       0    -50    263     51    267 180.0  89.4  34112  288.77 0855.07
2009/04/23 10:31:00.9     -50    -83    237     98    256 211.2  76.6  34112  288.77 0855.07
2009/04/23 10:31:01.0      -3   -224    256    225    340 181.0  54.3  34094  288.46 0855.07
2009/04/23 10:31:01.1       1   -269    321    270    419 179.8  56.0  34104  288.64 0855.07
2009/04/23 10:31:01.2     367     16    432    368    567  87.4  55.4  34094  288.46 0855.07
2009/04/23 10:31:01.3      44     48    328     66    334  42.3  89.1  34094  288.46 0855.07
2009/04/23 10:31:01.4     114   -153    387    191    431 143.3  71.9  34100  288.57 0855.07
2009/04/23 10:31:01.5      17    -36    329     40    331 154.6  90.0  34118  288.87 0855.07
2009/04/23 10:31:01.6     -26   -185    319    187    369 188.1  66.9  34104  288.61 0855.07
2009/04/23 10:31:01.7     360     83    354    370    512  77.0  48.6  34106  288.66 0855.07
2009/04/23 10:31:01.8     -19     -7    341     21    341 250.0  90.0  34118  288.85 0855.07
2009/04/23 10:31:01.9     187     48    318    194    372  75.4  66.0  34116  288.81 0855.07
2009/04/23 10:31:02.0     327    370    250    495    554  41.5  28.9  34110  288.74 0855.07
2009/04/23 10:31:02.1     286    238    130    373    396  50.2  19.3  34112  288.76 0855.07
2009/04/23 10:31:02.2     320     14    136    321    348  87.4  24.2  34110  288.72 0855.07
2009/04/23 10:31:02.3     403   -169    102    438    450 112.7  13.1  34104  288.61 0855.07
2009/04/23 10:31:02.4     498    -32    106    499    511  93.7  12.0  34108  288.69 0855.07
2009/04/23 10:31:02.5     469    -72    165    475    504  98.8  19.2  34106  288.66 0855.07
2009/04/23 10:31:02.6     528    -36    190    530    563  93.9  20.4  34098  288.53 0855.07
2009/04/23 10:31:02.7     575   -187    215    605    642 108.1  20.3  34076  288.15 0855.07
2009/04/23 10:31:02.8     593   -116    370    605    709 101.1  34.3  34086  288.31 0855.07
2009/04/23 10:31:02.9     840     -3    423    841    941  90.3  28.7  34098  288.51 0855.07
2009/04/23 10:31:03.0     628    -12    356    629    722  91.2  32.0  34088  288.34 0855.07
2009/04/23 10:31:03.1     636     27    170    637    660  87.5  15.0  34100  288.57 0855.07
2009/04/23 10:31:03.2     537     26    350    538    641  87.2  36.2  34084  288.27 0855.07
2009/04/23 10:31:03.3     560   -178    415    588    719 107.7  38.6  34096  288.48 0855.07
2009/04/23 10:31:03.4     583    -81    260    589    643  97.9  25.3  34096  288.50 0855.07
2009/04/23 10:31:03.5     680     65    276    684    737  84.5  23.1  34102  288.59 0855.07
2009/04/23 10:31:03.6     623    204    379    656    757  71.9  32.7  34106  288.66 0855.07
2009/04/23 10:31:03.7     666    261    288    716    771  68.6  23.1  34098  288.52 0855.07
2009/04/23 10:31:03.8     272    123    340    299    452  65.6  54.3  34096  288.48 0855.07
2009/04/23 10:31:03.9     343     89    392    355    528  75.3  53.3  34098  288.52 0855.07
2009/04/23 10:31:04.0     301      0    384    302    488  90.0  57.9  34100  288.55 0855.07
2009/04/23 10:31:04.1     351     42    350    354    497  83.1  49.9  34094  288.45 0855.07
2009/04/23 10:31:04.2     309     35    346    312    465  83.4  53.3  34096  288.50 0855.07
2009/04/23 10:31:04.3     216     50    446    222    498  76.7  71.9  34106  288.67 0855.07
2009/04/23 10:31:04.4      34   -103    268    109    289 161.3  77.0  34114  288.78 0855.07
2009/04/23 10:31:04.5      63      6    276     64    283  83.9  87.3  34110  288.71 0855.07
2009/04/23 10:31:04.6     242     73    369    253    447  73.2  62.6  34120  288.88 0855.07
2009/04/23 10:31:04.7     451    128    236    469    525  74.1  28.7  34098  288.52 0855.09
2009/04/23 10:31:04.8     383     -3    432    384    577  90.5  54.0  34114  288.80 0855.09
2009/04/23 10:31:04.9      24   -141    355    144    383 170.3  77.0  34122  288.92 0855.09
2009/04/23 10:31:05.0      -3   -242    346    243    422 180.9  61.5  34116  288.84 0855.09
2009/04/23 10:31:05.1     110   -405    349    420    546 164.8  43.8  34104  288.62 0855.09
2009/04/23 10:31:05.2     -27   -350    193    352    401 184.5  31.0  34128  289.03 0855.09
2009/04/23 10:31:05.3     -94   -309    283    324    430 196.9  45.8  34140  289.23 0855.09
2009/04/23 10:31:05.4    -196   -225    353    299    462 221.2  55.6  34132  289.09 0855.09
2009/04/23 10:31:05.5    -210   -104    351    235    422 243.6  63.3  34116  288.82 0855.09
2009/04/23 10:31:05.6     -94     41    124    103    161 294.0  56.1  34122  288.92 0855.09
2009/04/23 10:31:05.7    -114     73    112    136    176 302.5  43.7  34110  288.74 0855.09
2009/04/23 10:31:05.8    -154    -50    190    163    250 251.8  55.3  34118  288.86 0855.09
2009/04/23 10:31:05.9     -82   -109    155    137    206 217.0  54.2  34120  288.89 0855.09
2009/04/23 10:31:06.0      41    -37    133     56    144 132.2  76.6  34122  288.92 0855.09
2009/04/23 10:31:06.1      82    -25     99     86    131 107.3  54.3  34120  288.89 0855.09
2009/04/23 10:31:06.2       4    -81    121     82    146 176.9  62.7  34122  288.94 0855.09
2009/04/23 10:31:06.3     -31   -210    112    213    240 188.5  30.1  34114  288.79 0855.09
2009/04/23 10:31:06.4      58   -275    227    282    362 168.0  43.0  34114  288.79 0855.09
2009/04/23 10:31:06.5     -34   -320    286    322    430 186.2  46.2  34120  288.91 0855.09
2009/04/23 10:31:06.6    -203   -429    245    475    534 205.3  29.4  34136  289.17 0855.09
2009/04/23 10:31:06.7    -147   -340    291    371    471 203.4  42.2  34134  289.14 0855.10
2009/04/23 10:31:06.8    -236   -291    285    375    471 219.1  41.2  34140  289.24 0855.10
2009/04/23 10:31:06.9    -356    -93     79    368    377 255.3  12.2  34148  289.37 0855.10
2009/04/23 10:31:07.0    -398   -119    -52    416    420 253.4  -7.2  34136  289.17 0855.10
2009/04/23 10:31:07.1    -341    -53    -41    346    349 261.1  -6.9  34132  289.10 0855.10
2009/04/23 10:31:07.2    -180   -159     90    241    257 228.6  21.5  34126  289.00 0855.10
2009/04/23 10:31:07.3    -170   -234    189    290    346 216.1  36.0  34122  288.93 0855.10
2009/04/23 10:31:07.4    -146   -285    125    321    344 207.2  22.4  34130  289.06 0855.10
2009/04/23 10:31:07.5    -200   -165    114    260    283 230.5  25.2  34126  289.00 0855.10
2009/04/23 10:31:07.6    -202   -167     95    263    279 230.4  20.9  34134  289.14 0855.10
2009/04/23 10:31:07.8    -277   -221     87    355    366 231.4  13.9  34130  289.06 0855.10
2009/04/23 10:31:07.8    -257    -63     33    265    268 256.1   7.1  34148  289.37 0855.10
2009/04/23 10:31:07.9    -202    103    -90    227    244 297.1 -26.9  34136  289.17 0855.10
2009/04/23 10:31:08.0    -241    153    -74    286    296 302.4 -14.5  34130  289.05 0855.10
2009/04/23 10:31:08.1    -302     72   -100    311    327 283.6 -17.9  34118  288.87 0855.10
2009/04/23 10:31:08.2    -309     85   -109    321    340 285.4 -18.8  34110  288.71 0855.10
2009/04/23 10:31:08.3    -338    162      4    375    376 295.7   0.7  34104  288.64 0855.10
2009/04/23 10:31:08.4    -443     89     35    452    454 281.4   4.5  34116  288.82 0855.10
2009/04/23 10:31:08.5    -338    -85     14    349    350 255.8   2.4  34128  289.03 0855.10
2009/04/23 10:31:08.6    -316    -54     -3    321    322 260.3  -0.6  34126  288.98 0855.10
2009/04/23 10:31:08.8    -342    -22    -44    343    346 266.2  -7.3  34126  289.01 0855.11
2009/04/23 10:31:08.9    -296     -4    -17    297    298 269.2  -3.3  34126  288.98 0855.11
2009/04/23 10:31:08.9    -354    148    -59    384    389 292.7  -8.8  34110  288.74 0855.11
2009/04/23 10:31:09.1    -233     50    -23    239    241 282.2  -5.6  34124  288.95 0855.11
2009/04/23 10:31:09.2     -59   -138    114    151    189 203.2  40.9  34134  289.13 0855.11
2009/04/23 10:31:09.2    -111   -200     72    229    241 209.0  17.4  34132  289.10 0855.11
2009/04/23 10:31:09.4    -114   -169     77    205    218 214.1  21.5  34130  289.06 0855.11
2009/04/23 10:31:09.5    -135   -235     25    272    274 209.9   5.4  34146  289.32 0855.11
2009/04/23 10:31:09.6    -160   -172    -51    236    242 223.0 -12.4  34146  289.34 0855.11
2009/04/23 10:31:09.7    -116    -91    -31    148    152 231.8 -11.9  34140  289.23 0855.11
2009/04/23 10:31:09.8     -81   -115     71    141    157 215.2  29.1  34144  289.30 0855.11
2009/04/23 10:31:09.9     204   -192     23    281    283 133.2   4.9  34124  288.95 0855.11
2009/04/23 10:31:10.0     253   -253      4    358    359 135.0   0.7  34116  288.84 0855.11
2009/04/23 10:31:10.1     228   -228     54    323    328 135.1   9.5  34112  288.75 0855.11
2009/04/23 10:31:10.2     149   -180    -34    235    238 140.4  -8.2  34112  288.76 0855.11
2009/04/23 10:31:10.3     198   -184    -63    271    279 132.9 -13.2  34108  288.70 0855.11
2009/04/23 10:31:10.4     -29   -275   -112    277    298 186.2 -27.5  34106  288.65 0855.11
2009/04/23 10:31:10.5    -157   -240   -114    288    309 213.2 -27.4  34110  288.71 0855.11
2009/04/23 10:31:10.6    -299   -284   -155    413    441 226.5 -25.9  34102  288.58 0855.11
2009/04/23 10:31:10.7    -228   -195   -172    301    346 229.5 -36.7  34100  288.57 0855.11
2009/04/23 10:31:10.8    -180    -25    -40    182    187 262.0 -12.4  34118  288.87 0855.12
2009/04/23 10:31:10.9     -75     36     90     84    123 295.8  52.1  34120  288.89 0855.12
2009/04/23 10:31:11.0    -103    -47     99    114    150 245.2  45.4  34118  288.86 0855.12
2009/04/23 10:31:11.1    -166   -302    167    345    383 208.8  27.4  34114  288.79 0855.12
2009/04/23 10:31:11.2    -213   -232     84    316    327 222.5  14.9  34110  288.71 0855.12
2009/04/23 10:31:11.3     -34   -295    231    298    377 186.7  41.7  34112  288.77 0855.12
2009/04/23 10:31:11.4    -152   -223    118    271    295 214.3  25.1  34130  289.07 0855.12
2009/04/23 10:31:11.5     111   -134     -9    175    176 140.4  -3.1  34114  288.80 0855.12
2009/04/23 10:31:11.6     -13   -220     -8    221    222 183.4  -2.2  34108  288.70 0855.12
2009/04/23 10:31:11.7       0   -313    111    314    333 180.0  20.2  34120  288.88 0855.12
2009/04/23 10:31:11.8     -61   -326    192    332    383 190.7  32.8  34114  288.79 0855.12
2009/04/23 10:31:11.9     -27   -370    192    371    417 184.3  29.4  34108  288.70 0855.12
2009/04/23 10:31:12.0      21   -416    204    417    464 177.1  27.9  34110  288.72 0855.12
2009/04/23 10:31:12.1      -9   -332    222    333    400 181.7  36.7  34104  288.62 0855.12
2009/04/23 10:31:12.2     -44   -286    126    290    316 188.9  25.0  34106  288.65 0855.12
2009/04/23 10:31:12.3    -136   -128     -3    187    188 226.7  -1.1  34128  289.02 0855.12
2009/04/23 10:31:12.4    -143   -118     -2    186    187 230.5  -0.7  34134  289.14 0855.12
2009/04/23 10:31:12.5     -54    -97     69    112    131 209.0  35.0  34136  289.18 0855.12
2009/04/23 10:31:12.6       0   -260    161    261    306 180.0  34.8  34120  288.88 0855.12
2009/04/23 10:31:12.7    -114   -206     83    236    250 208.9  20.0  34126  289.00 0855.12
2009/04/23 10:31:12.8     -26   -282    157    284    324 185.4  31.3  34106  288.65 0855.15
2009/04/23 10:31:12.9     -22   -292    152    293    330 184.4  29.5  34106  288.65 0855.15
2009/04/23 10:31:13.0     -31   -224    -12    227    228 188.0  -3.1  34114  288.79 0855.15
2009/04/23 10:31:13.1    -140   -126    -24    189    191 227.8  -7.3  34112  288.77 0855.15
2009/04/23 10:31:13.2    -184    -17    -68    185    197 264.5 -25.4  34110  288.72 0855.15
2009/04/23 10:31:13.3    -181    -29      9    184    185 260.8   2.9  34122  288.94 0855.15
2009/04/23 10:31:13.4    -141   -110    -15    179    180 232.0  -4.9  34116  288.84 0855.15
2009/04/23 10:31:13.5    -146    -69    -44    162    167 244.8 -20.0  34132  289.11 0855.15
2009/04/23 10:31:13.6    -128   -131    -16    184    185 224.3  -5.2  34126  289.01 0855.15
2009/04/23 10:31:13.7     -75   -146    -72    165    180 207.2 -29.5  34142  289.28 0855.15
2009/04/23 10:31:13.8      -2   -147    -73    148    165 180.9 -32.6  34138  289.21 0855.15
2009/04/23 10:31:13.9      23   -211    -74    213    225 173.8 -23.6  34120  288.89 0855.15
2009/04/23 10:31:14.0     258   -164     71    306    315 122.4  13.1  34118  288.87 0855.15
2009/04/23 10:31:14.1     259   -196    117    325    345 127.1  20.6  34106  288.66 0855.15
2009/04/23 10:31:14.2     183   -236    124    299    323 142.2  23.8  34104  288.61 0855.15
2009/04/23 10:31:14.3     140   -284    109    317    336 153.7  19.1  34106  288.67 0855.15
2009/04/23 10:31:14.4     115   -264    140    289    321 156.4  27.8  34110  288.71 0855.15
2009/04/23 10:31:14.5     143   -179    113    230    256 141.3  28.0  34108  288.68 0855.15
2009/04/23 10:31:14.6     121   -122     60    172    183 135.2  19.2  34106  288.67 0855.15
2009/04/23 10:31:14.7      65   -183    174    195    261 160.4  46.6  34112  288.76 0855.15
2009/04/23 10:31:14.8      27    -86    148     91    173 162.2  65.1  34116  288.82 0855.15
2009/04/23 10:31:14.9      27   -132    180    135    225 168.4  59.4  34114  288.80 0855.15
2009/04/23 10:31:15.0      28    -83    125     88    152 161.3  61.5  34118  288.87 0855.15
2009/04/23 10:31:15.1     -14   -140    132    141    193 185.8  48.0  34118  288.86 0855.15
2009/04/23 10:31:15.2     -52   -178    173    186    254 196.3  47.9  34118  288.87 0855.15
2009/04/23 10:31:15.3     -56   -176    176    185    255 197.8  48.5  34116  288.81 0855.15
2009/04/23 10:31:15.4    -115   -176     85    211    227 213.2  23.1  34126  289.01 0855.15
2009/04/23 10:31:15.5     -37   -141     51    146    155 194.7  19.4  34128  289.02 0855.15
2009/04/23 10:31:15.6    -209   -115     20    239    240 241.1   4.9  34132  289.09 0855.15
2009/04/23 10:31:15.7    -159   -186    -42    246    250 220.5  -9.8  34134  289.14 0855.15
2009/04/23 10:31:15.8    -118   -255    152    282    320 204.9  30.8  34132  289.09 0855.16
2009/04/23 10:31:15.9      80   -259    253    272    371 162.8  47.9  34128  289.03 0855.16
2009/04/23 10:31:16.0      38   -236    326    240    404 170.7  60.1  34114  288.79 0855.16
2009/04/23 10:31:16.1      42   -296    293    300    419 171.9  49.3  34110  288.72 0855.16
2009/04/23 10:31:16.2     109   -230    245    255    353 154.5  48.8  34118  288.87 0855.16
2009/04/23 10:31:16.3      50   -125    287    135    317 158.2  73.1  34116  288.81 0855.16
2009/04/23 10:31:16.4     117   -241    230    268    353 154.1  45.1  34118  288.87 0855.16
2009/04/23 10:31:16.5     151   -106    147    185    236 125.1  42.7  34114  288.79 0855.16
2009/04/23 10:31:16.6     100   -147    140    178    226 145.7  42.4  34118  288.87 0855.16
2009/04/23 10:31:16.7      79   -294    156    305    342 164.9  29.2  34118  288.86 0855.16
2009/04/23 10:31:16.8     -50   -264     95    269    286 190.7  19.6  34140  289.22 0855.16
2009/04/23 10:31:16.9      -8   -275     75    276    287 181.8  15.3  34124  288.97 0855.16
2009/04/23 10:31:17.0     118   -363    110    382    398 161.9  16.1  34120  288.89 0855.16
2009/04/23 10:31:17.1      14   -317    148    318    350 177.4  27.0  34128  289.04 0855.16
2009/04/23 10:31:17.2     -37   -260     85    263    277 188.1  17.9  34120  288.90 0855.16
2009/04/23 10:31:17.3     -35   -159      8    163    164 192.5   2.9  34130  289.06 0855.16
2009/04/23 10:31:17.4       7    -37      6     38     39 168.4  10.1  34124  288.96 0855.16
2009/04/23 10:31:17.5      95    -49     60    108    123 117.5  31.4  34130  289.06 0855.16
2009/04/23 10:31:17.6      10    -55     61     56     82 169.3  52.2  34126  288.99 0855.16
2009/04/23 10:31:17.7      28    -31     73     43     84 137.7  66.2  34132  289.09 0855.16
2009/04/23 10:31:17.8      47    -14     95     50    107 106.8  69.8  34132  289.11 0855.17
2009/04/23 10:31:17.9      73     -4     48     74     88  93.5  36.0  34134  289.13 0855.17
2009/04/23 10:31:18.0      51    -46     30     69     75 132.2  25.1  34134  289.13 0855.17
2009/04/23 10:31:18.1      58    -70     65     92    112 140.4  39.1  34134  289.13 0855.17
2009/04/23 10:31:18.2      47   -143     57    151    161 161.7  21.7  34124  288.96 0855.17
2009/04/23 10:31:18.3      76   -191    168    206    265 158.2  43.7  34132  289.10 0855.17
2009/04/23 10:31:18.4     -48   -149    114    157    194 197.8  39.5  34140  289.24 0855.17
2009/04/23 10:31:18.5     -16     65    117     68    135 345.7  66.8  34146  289.33 0855.17
2009/04/23 10:31:18.6     -74     74    108    105    150 315.0  50.2  34146  289.33 0855.17
2009/04/23 10:31:18.7     -38     85    164     94    189 335.5  67.7  34144  289.30 0855.17
2009/04/23 10:31:18.8      18    -29    210     35    212 147.4  90.0  34144  289.30 0855.17
2009/04/23 10:31:18.9      24    -15    249     29    250 122.4  90.0  34138  289.19 0855.17
2009/04/23 10:31:19.0     -29      2    161     30    163 274.4  90.0  34146  289.33 0855.17
2009/04/23 10:31:19.1       7    -75    140     76    159 174.7  69.3  34142  289.28 0855.17
2009/04/23 10:31:19.2       5   -173    273    174    323 178.2  64.7  34142  289.25 0855.17
2009/04/23 10:31:19.3       8   -150    195    151    246 176.9  58.5  34144  289.30 0855.17
2009/04/23 10:31:19.4    -138   -259    134    294    323 208.0  26.3  34148  289.37 0855.17
2009/04/23 10:31:19.5    -109   -177    119    209    240 211.6  32.3  34142  289.26 0855.17
2009/04/23 10:31:19.6    -155   -138     83    208    223 228.2  23.0  34148  289.36 0855.17
2009/04/23 10:31:19.7      -3   -172    195    173    260 181.1  53.7  34140  289.22 0855.17
2009/04/23 10:31:19.8      60   -203    200    212    291 163.5  48.2  34130  289.07 0855.12
2009/04/23 10:31:19.9       6   -235    144    236    276 178.4  34.4  34136  289.15 0855.12
2009/04/23 10:31:20.0      82   -234    215    249    328 160.6  45.2  34138  289.19 0855.12
2009/04/23 10:31:20.1     157   -286    228    327    398 151.1  38.3  34130  289.08 0855.12
2009/04/23 10:31:20.2      55   -251    206    258    330 167.6  42.9  34132  289.10 0855.12
2009/04/23 10:31:20.3     -76   -318    157    328    363 193.6  27.3  34126  288.98 0855.12
2009/04/23 10:31:20.4      58   -345    138    350    376 170.4  22.9  34126  288.98 0855.12
2009/04/23 10:31:20.5      14   -346    149    347    377 177.7  24.8  34134  289.13 0855.12
2009/04/23 10:31:20.6      41   -293     58    297    303 171.9  11.1  34124  288.95 0855.12
2009/04/23 10:31:20.7      15   -196    208    197    286 175.6  52.0  34132  289.09 0855.12
2009/04/23 10:31:20.8    -140    -83    175    164    239 239.3  52.1  34134  289.14 0855.12
2009/04/23 10:31:20.9     -46    -97    121    108    162 205.3  53.5  34142  289.28 0855.12
2009/04/23 10:31:21.0      37   -185    158    189    246 168.4  44.1  34126  289.01 0855.12
2009/04/23 10:31:21.1      28   -190    192    193    272 171.5  50.0  34126  288.98 0855.12
2009/04/23 10:31:21.2      45      0    116     46    124  90.0  77.6  34134  289.13 0855.12
2009/04/23 10:31:21.3     -19      8    116     21    117 293.5  90.0  34142  289.26 0855.12
2009/04/23 10:31:21.4      14      6    152     16    152  64.7  90.0  34136  289.18 0855.12
2009/04/23 10:31:21.5     145    -49    211    154    261 108.6  60.5  34130  289.06 0855.12
2009/04/23 10:31:21.6     202    -51    180    209    275 104.2  45.4  34126  289.00 0855.12
2009/04/23 10:31:21.7     204    -91    160    224    275 114.2  39.1  34126  289.00 0855.12
2009/04/23 10:31:21.8     111   -164     90    199    218 145.9  25.9  34128  289.02 0855.10
2009/04/23 10:31:21.9      95   -244    139    263    297 158.6  30.2  34120  288.88 0855.10
2009/04/23 10:31:22.0      87   -256    128    271    299 161.1  27.1  34124  288.95 0855.10
2009/04/23 10:31:22.1      32   -417    214    419    470 175.5  29.2  34130  289.05 0855.10
2009/04/23 10:31:22.2      63   -310    216    317    383 168.4  37.6  34126  288.98 0855.10
2009/04/23 10:31:22.3     -45   -371    121    374    394 187.0  17.9  34122  288.93 0855.10
2009/04/23 10:31:22.4      46   -350    263    354    441 172.4  40.4  34130  289.05 0855.10
2009/04/23 10:31:22.5     116   -569    191    582    613 168.4  18.2  34124  288.95 0855.10
2009/04/23 10:31:22.6     179   -751    352    772    848 166.6  26.3  34116  288.81 0855.10
2009/04/23 10:31:22.7     229   -686    149    724    740 161.5  11.7  34102  288.60 0855.10
2009/04/23 10:31:22.8      61   -678    -28    681    682 174.8  -2.4  34114  288.80 0855.10
2009/04/23 10:31:22.9     296   -633    181    700    724 154.9  14.5  34114  288.79 0855.10
2009/04/23 10:31:23.0     328   -599    194    683    711 151.3  15.9  34104  288.61 0855.10
2009/04/23 10:31:23.1     336   -582    115    673    683 150.0   9.7  34116  288.82 0855.10
2009/04/23 10:31:23.2     300   -656    188    722    747 155.4  14.6  34110  288.74 0855.10
2009/04/23 10:31:23.3     291   -536    143    610    627 151.5  13.2  34116  288.81 0855.10
2009/04/23 10:31:23.4     251   -450      1    516    517 150.8   0.2  34116  288.81 0855.10
2009/04/23 10:31:23.5     124   -444     93    462    472 164.4  11.4  34116  288.84 0855.10
2009/04/23 10:31:23.6     171   -582    -43    607    609 163.6  -4.1  34112  288.76 0855.10
2009/04/23 10:31:23.7      45   -539     30    542    543 175.1   3.2  34108  288.70 0855.10
2009/04/23 10:31:23.8     147   -530     77    551    557 164.4   8.0  34106  288.65 0855.16
2009/04/23 10:31:23.9     113   -511     63    524    528 167.5   6.9  34110  288.74 0855.16
2009/04/23 10:31:24.1      31   -490     45    491    494 176.4   5.3  34108  288.68 0855.16
2009/04/23 10:31:24.1     -85   -379      6    389    390 192.7   1.0  34118  288.86 0855.16
2009/04/23 10:31:24.2     -42   -212   -158    217    268 191.3 -44.1  34118  288.87 0855.16
2009/04/23 10:31:24.3     -47   -238    -34    243    246 191.3  -8.0  34116  288.83 0855.16
2009/04/23 10:31:24.4      36   -484    108    486    499 175.7  12.6  34108  288.68 0855.16
2009/04/23 10:31:24.5      24   -678    105    679    687 177.9   8.8  34114  288.78 0855.16
2009/04/23 10:31:24.6     -29   -681     71    682    686 182.5   6.0  34114  288.80 0855.16
2009/04/23 10:31:24.7     -26   -596     17    597    598 182.5   1.7  34110  288.73 0855.16
2009/04/23 10:31:24.8     -93   -423     45    434    437 192.4   6.0  34114  288.78 0855.16
2009/04/23 10:31:24.9    -156   -450    182    477    510 199.2  22.0  34116  288.83 0855.16
2009/04/23 10:31:25.0     -97   -296    117    312    333 198.3  21.6  34112  288.76 0855.16
2009/04/23 10:31:25.1    -269   -305    -55    408    412 221.4  -7.7  34128  289.02 0855.16
2009/04/23 10:31:25.2    -287   -201    -40    351    354 235.0  -6.6  34114  288.79 0855.16
2009/04/23 10:31:25.3     -11   -124    -56    125    136 185.3 -30.1  34114  288.79 0855.16
2009/04/23 10:31:25.4     222   -193    115    295    316 130.9  22.4  34120  288.90 0855.16
2009/04/23 10:31:25.5      11   -443     89    444    453 178.5  11.3  34114  288.80 0855.16
2009/04/23 10:31:25.6    -124   -339     87    362    373 200.2  13.6  34116  288.81 0855.16
2009/04/23 10:31:25.7    -112   -469    -92    483    492 193.4 -10.8  34118  288.86 0855.16
2009/04/23 10:31:25.8    -218   -343    232    407    468 212.5  32.3  34122  288.94 0855.23
2009/04/23 10:31:25.9    -173   -465     94    497    506 200.5  10.7  34136  289.17 0855.23
2009/04/23 10:31:26.0    -290   -348     97    454    465 219.8  12.2  34128  289.02 0855.23
2009/04/23 10:31:26.1    -174   -243    161    300    340 215.6  30.7  34132  289.09 0855.23
2009/04/23 10:31:26.2     150   -533    240    554    603 164.2  25.1  34118  288.85 0855.23
2009/04/23 10:31:26.3      80   -649    261    655    705 172.9  23.0  34116  288.82 0855.23
2009/04/23 10:31:26.5     119   -508    295    522    599 166.8  32.0  34114  288.80 0855.23
2009/04/23 10:31:26.5      88   -366    321    377    495 166.5  44.8  34110  288.72 0855.23
2009/04/23 10:31:26.6    -200   -274    226    340    408 216.1  36.6  34132  289.10 0855.23
2009/04/23 10:31:26.7    -184   -404    197    445    486 204.5  25.6  34134  289.12 0855.23
2009/04/23 10:31:26.8    -238   -238    203    337    393 225.0  34.0  34120  288.91 0855.23
2009/04/23 10:31:26.9    -316   -379     61    494    498 219.8   7.1  34128  289.03 0855.23
2009/04/23 10:31:27.0     -54   -307    -49    312    316 190.0  -9.0  34122  288.92 0855.23
2009/04/23 10:31:27.1    -136   -425   -231    447    503 197.8 -33.9  34112  288.76 0855.23
2009/04/23 10:31:27.2     134   -661    -47    675    677 168.5  -4.0  34106  288.66 0855.23
2009/04/23 10:31:27.3     192   -649    -47    678    680 163.5  -4.0  34108  288.70 0855.23
2009/04/23 10:31:27.4     149   -482   -151    505    527 162.8 -21.7  34116  288.82 0855.23
2009/04/23 10:31:27.5     -10   -350   -120    351    370 181.8 -23.8  34110  288.74 0855.23
2009/04/23 10:31:27.6    -159   -235   -173    284    332 214.1 -38.6  34106  288.65 0855.23
2009/04/23 10:31:27.7    -176   -176     -9    249    250 225.0  -2.2  34116  288.83 0855.23
2009/04/23 10:31:27.8     -78   -114     48    139    148 214.3  19.2  34124  288.96 0855.19
2009/04/23 10:31:27.9      28   -140     83    143    165 168.4  32.9  34128  289.04 0855.19
2009/04/23 10:31:28.0      11   -217     96    218    238 176.9  25.2  34118  288.87 0855.19
2009/04/23 10:31:28.1      -2   -450    -30    451    452 180.3  -3.9  34124  288.97 0855.19
2009/04/23 10:31:28.2      37   -341    120    344    365 173.7  19.3  34110  288.72 0855.19
2009/04/23 10:31:28.3     221   -365     51    427    431 148.8   6.9  34114  288.80 0855.19
2009/04/23 10:31:28.4      52   -254     71    260    270 168.4  15.3  34114  288.80 0855.19
2009/04/23 10:31:28.5      52   -140     69    150    165 159.5  26.4  34112  288.77 0855.19
2009/04/23 10:31:28.6      15    -98    107    100    146 171.1  52.1  34116  288.82 0855.19
2009/04/23 10:31:28.7     -21    -49    115     54    127 203.6  73.1  34134  289.13 0855.19
2009/04/23 10:31:28.8       5   -214    159    215    267 178.6  40.1  34118  288.87 0855.19
2009/04/23 10:31:28.9      53   -311    164    316    356 170.3  29.5  34120  288.89 0855.19
2009/04/23 10:31:29.0      95   -346    230    359    426 164.6  35.6  34116  288.83 0855.19
2009/04/23 10:31:29.1       5   -398    141    399    423 179.2  20.2  34124  288.97 0855.19
2009/04/23 10:31:29.2      34   -328    131    330    355 174.0  22.8  34112  288.76 0855.19
2009/04/23 10:31:29.3      82   -336     33    346    348 166.2   5.5  34120  288.88 0855.19
2009/04/23 10:31:29.4     -80   -346      0    356    357 193.1   0.1  34120  288.88 0855.19
2009/04/23 10:31:29.5    -171   -409    -98    444    455 202.7 -12.5  34122  288.92 0855.19
2009/04/23 10:31:29.6     -95   -264    -11    281    282 200.0  -2.3  34128  289.02 0855.19
2009/04/23 10:31:29.7    -315   -316     -5    447    448 224.9  -0.7  34144  289.29 0855.19
2009/04/23 10:31:29.8     -22   -333    164    334    372 183.9  28.1  34120  288.88 0855.22
2009/04/23 10:31:29.9    -208   -340    122    399    418 211.5  17.0  34134  289.14 0855.22
2009/04/23 10:31:30.0    -129   -322     67    348    355 201.9  11.0  34136  289.18 0855.22
2009/04/23 10:31:30.1      52    -86    120    101    156 148.8  55.6  34124  288.96 0855.22
2009/04/23 10:31:30.2     205    -68    160    217    269 108.4  39.9  34124  288.97 0855.22
2009/04/23 10:31:30.3     248   -184    174    309    354 126.6  31.9  34136  289.15 0855.22
2009/04/23 10:31:30.4     162   -101   -290    192    347 122.0 -67.9  34138  289.20 0855.22
2009/04/23 10:31:30.5     360   -216   -261    421    495 121.0 -39.3  34144  289.30 0855.22
2009/04/23 10:31:30.6      27    -54   -193     61    202 152.8 -86.2  34124  288.97 0855.22
2009/04/23 10:31:30.7    -102   -190   -298    216    368 208.3 -64.9  34130  289.07 0855.22
2009/04/23 10:31:30.8    -162   -229   -126    281    307 215.2 -30.3  34118  288.85 0855.22
2009/04/23 10:31:30.9      37    -51    -89     64    109 143.9 -65.0  34128  289.04 0855.22
2009/04/23 10:31:31.0      40     42    -99     59    115  43.2 -70.1  34130  289.08 0855.22
2009/04/23 10:31:31.1     -39   -167    -11    172    173 193.1  -3.7  34130  289.06 0855.22
2009/04/23 10:31:31.2      89   -204     88    223    239 156.4  22.5  34134  289.12 0855.22
2009/04/23 10:31:31.3     132   -237    188    272    330 150.8  37.9  34128  289.02 0855.22
2009/04/23 10:31:31.4     134   -420    228    441    496 162.3  29.5  34136  289.15 0855.22
2009/04/23 10:31:31.5      93   -283    252    299    391 161.7  44.5  34130  289.08 0855.22
2009/04/23 10:31:31.6     164   -194    317    255    406 139.7  57.1  34136  289.15 0855.22
2009/04/23 10:31:31.7      75    -91    213    119    243 140.4  68.3  34136  289.18 0855.22
2009/04/23 10:31:31.8     197     -6    283    198    345  91.9  61.7  34130  289.07 0855.16
2009/04/23 10:31:31.9      76     48    120     90    150  57.6  59.4  34124  288.97 0855.16
2009/04/23 10:31:32.0       4     97    233     98    252   2.7  76.1  34134  289.14 0855.16
2009/04/23 10:31:32.1     224    183     74    290    300  50.7  14.3  34130  289.07 0855.16
2009/04/23 10:31:32.2     193    -54    288    201    351 105.7  62.0  34130  289.05 0855.16
2009/04/23 10:31:32.3      98      7    173     99    199  85.7  67.7  34132  289.11 0855.16
2009/04/23 10:31:32.4     -74     61    247     97    265 309.5  77.1  34150  289.41 0855.16
2009/04/23 10:31:32.5     -26    -31    178     41    182 220.5  87.5  34140  289.23 0855.16
2009/04/23 10:31:32.6     -71   -201    192    214    287 199.6  46.6  34128  289.02 0855.16
2009/04/23 10:31:32.7     -28   -229    251    231    341 187.1  52.6  34122  288.93 0855.16
2009/04/23 10:31:32.8      76    -33    322     83    332 113.5  85.5  34126  289.00 0855.16
2009/04/23 10:31:32.9     301   -214    274    370    460 125.4  40.1  34126  289.00 0855.16
2009/04/23 10:31:33.0     447   -197     40    489    491 113.9   4.7  34126  288.98 0855.16
2009/04/23 10:31:33.1     534   -296    143    611    628 119.0  13.2  34126  288.99 0855.16
2009/04/23 10:31:33.2     563   -370    150    674    691 123.3  12.6  34116  288.82 0855.16
2009/04/23 10:31:33.3     499   -235    111    552    564 115.2  11.4  34120  288.89 0855.16
2009/04/23 10:31:33.4     340   -215     91    403    414 122.2  12.8  34128  289.02 0855.16
2009/04/23 10:31:33.5     247   -125    -27    277    279 116.9  -5.6  34120  288.90 0855.16
2009/04/23 10:31:33.6     305    -73    185    314    364 103.5  33.4  34122  288.93 0855.16
2009/04/23 10:31:33.7     170     50      6    178    179  73.6   2.1  34124  288.97 0855.16
2009/04/23 10:31:33.8      28    -23     35     37     50 129.5  49.0  34128  289.04 0855.17
2009/04/23 10:31:33.9     -36     12     28     38     47 288.6  40.7  34132  289.11 0855.17
2009/04/23 10:31:34.0     -24    -37     12     45     47 212.5  15.3  34134  289.14 0855.17
2009/04/23 10:31:34.1      17    -51     54     54     76 161.5  50.1  34136  289.18 0855.17
2009/04/23 10:31:34.2      53    -24     82     59    101 114.4  60.6  34136  289.18 0855.17
2009/04/23 10:31:34.3      10    -49     72     51     88 168.4  61.5  34140  289.23 0855.17
2009/04/23 10:31:34.4      62    -53     57     82     99 130.4  38.6  34134  289.13 0855.17
2009/04/23 10:31:34.5     146    -49     57    155    165 108.6  20.7  34130  289.08 0855.17
2009/04/23 10:31:34.6     148    -35     43    153    160 103.3  15.8  34132  289.09 0855.17
2009/04/23 10:31:34.7      76      0    115     77    138  90.0  62.7  34128  289.04 0855.17
2009/04/23 10:31:34.8     -59      4    104     60    120 274.3  67.2  34148  289.36 0855.17
2009/04/23 10:31:34.9     -29     29     60     42     73 315.0  60.6  34144  289.30 0855.17
2009/04/23 10:31:35.0     -76    -54     79     94    122 234.5  44.3  34138  289.21 0855.17
2009/04/23 10:31:35.1    -160      7     41    161    167 272.5  14.3  34136  289.18 0855.17
2009/04/23 10:31:35.2    -254     52    -80    260    272 281.7 -22.3  34138  289.20 0855.17
2009/04/23 10:31:35.4    -317    -59    -70    323    331 259.4 -12.3  34152  289.42 0855.17
2009/04/23 10:31:35.5    -392   -168    -45    427    430 246.8  -6.1  34142  289.26 0855.17
2009/04/23 10:31:35.6    -406    -44    -15    409    410 263.7  -2.2  34142  289.26 0855.17
2009/04/23 10:31:35.7    -264    -66    -65    273    281 255.8 -13.4  34150  289.41 0855.17
2009/04/23 10:31:35.8    -151   -151    208    214    298 225.1  49.2  34144  289.29 0855.17
2009/04/23 10:31:35.9    -172   -134    131    219    255 232.2  33.5  34148  289.36 0855.16
2009/04/23 10:31:36.0    -341    -39    122    344    366 263.4  19.6  34144  289.30 0855.16
2009/04/23 10:31:36.1    -480      0    -66    481    486 270.0  -7.9  34144  289.30 0855.16
2009/04/23 10:31:36.2    -468     27     -5    469    470 273.4  -0.7  34146  289.32 0855.16
2009/04/23 10:31:36.3    -636     48   -139    638    654 274.4 -12.3  34124  288.96 0855.16
2009/04/23 10:31:36.4    -398    209   -142    450    472 297.8 -17.5  34126  289.00 0855.16
2009/04/23 10:31:36.5    -625    168   -166    648    670 285.1 -14.4  34120  288.88 0855.16
2009/04/23 10:31:36.6    -626    276    -86    685    691 293.8  -7.2  34134  289.12 0855.16
2009/04/23 10:31:36.7    -302    211   -120    369    389 304.9 -18.1  34116  288.81 0855.16
2009/04/23 10:31:36.8    -371    230     13    437    438 301.8   1.8  34116  288.82 0855.16
2009/04/23 10:31:36.9    -455    132     93    474    484 286.2  11.1  34142  289.27 0855.15
2009/04/23 10:31:37.0    -373    -99    149    386    413 255.1  22.2  34158  289.55 0855.15
2009/04/23 10:31:37.1    -284    -64    207    292    357 257.2  38.8  34152  289.43 0855.15
2009/04/23 10:31:37.2    -331     85    126    342    364 284.5  21.0  34152  289.42 0855.15
2009/04/23 10:31:37.3    -328      7    176    329    373 271.3  30.5  34138  289.21 0855.15
2009/04/23 10:31:37.4    -449    195     -6    490    491 293.5  -0.7  34142  289.28 0855.15
2009/04/23 10:31:37.5    -393    316    -40    505    507 308.8  -4.6  34150  289.39 0855.15
2009/04/23 10:31:37.6    -430    283     10    516    517 303.4   1.2  34134  289.12 0855.15
2009/04/23 10:31:37.7    -376    273    -67    465    470 306.0  -8.3  34134  289.12 0855.15
2009/04/23 10:31:37.8    -324    246    -12    408    409 307.2  -1.7  34140  289.24 0855.15
2009/04/23 10:31:37.9    -353    240     70    427    433 304.2   9.3  34162  289.60 0855.15
2009/04/23 10:31:38.0    -309    354    -26    471    472 318.9  -3.2  34156  289.50 0855.15
2009/04/23 10:31:38.1    -403    379   -108    554    565 313.2 -11.1  34128  289.04 0855.15
2009/04/23 10:31:38.2    -345    249     37    426    428 305.9   5.0  34142  289.26 0855.15
2009/04/23 10:31:38.3    -184    161    217    245    327 311.3  46.2  34160  289.56 0855.15
2009/04/23 10:31:38.4    -360     32    180    362    404 275.2  28.2  34156  289.50 0855.15
2009/04/23 10:31:38.5    -272     59    281    279    395 282.4  50.1  34148  289.38 0855.15
2009/04/23 10:31:38.6    -245    115    197    271    335 295.3  39.7  34142  289.27 0855.15
2009/04/23 10:31:38.7    -298     55    171    304    348 280.6  31.7  34150  289.40 0855.15
2009/04/23 10:31:38.8     -84     30    186     90    206 290.0  72.8  34164  289.65 0855.15
2009/04/23 10:31:38.9     -79    -21    188     82    205 254.5  74.9  34166  289.67 0855.18
2009/04/23 10:31:39.0     -67   -114    189    133    231 210.7  61.5  34166  289.69 0855.18
2009/04/23 10:31:39.1     -57    -63    194     86    212 221.9  74.8  34168  289.70 0855.18
2009/04/23 10:31:39.2    -102   -161    181    191    263 212.5  48.5  34178  289.86 0855.18
2009/04/23 10:31:39.3    -197   -242     99    313    329 219.2  17.5  34172  289.78 0855.18
2009/04/23 10:31:39.4    -195   -124    110    232    256 237.6  27.2  34180  289.92 0855.18
2009/04/23 10:31:39.5    -149   -332     31    365    367 204.2   4.9  34164  289.65 0855.18
2009/04/23 10:31:39.6      45   -383     46    386    389 173.2   6.9  34138  289.21 0855.18
2009/04/23 10:31:39.7     -28   -423     77    424    431 183.9  10.4  34162  289.61 0855.18
2009/04/23 10:31:39.8      61   -157     93    169    192 158.6  31.4  34176  289.85 0855.18
2009/04/23 10:31:39.9     -40   -109    201    117    232 200.5  67.0  34180  289.92 0855.18
2009/04/23 10:31:40.0     -74   -117    173    139    221 212.5  56.9  34180  289.91 0855.18
2009/04/23 10:31:40.1     -89   -157    235    181    296 209.6  58.5  34176  289.85 0855.18
2009/04/23 10:31:40.2    -124   -111    184    167    248 228.0  53.2  34172  289.77 0855.18
2009/04/23 10:31:40.3    -179    -71     83    193    210 248.3  25.1  34166  289.69 0855.18
2009/04/23 10:31:40.4    -355    -67    -24    362    363 259.3  -3.9  34144  289.30 0855.18
2009/04/23 10:31:40.5    -362    -80    -67    371    378 257.5 -10.2  34136  289.15 0855.18
2009/04/23 10:31:40.6    -274   -175    -41    326    329 237.5  -7.3  34142  289.25 0855.18
2009/04/23 10:31:40.7    -358   -167    -61    396    401 245.0  -8.8  34140  289.23 0855.18
2009/04/23 10:31:40.8    -274   -118    -49    299    304 246.7  -9.3  34134  289.14 0855.18
2009/04/23 10:31:40.9    -323   -214    -53    388    392 236.4  -7.9  34138  289.20 0855.22
2009/04/23 10:31:41.0    -301   -129     -7    328    329 246.7  -1.3  34138  289.19 0855.22
2009/04/23 10:31:41.1     -38   -143    146    149    208 195.1  49.8  34140  289.24 0855.22
2009/04/23 10:31:41.2     -53   -302    -32    307    309 190.0  -6.1  34142  289.25 0855.22
2009/04/23 10:31:41.3       0   -173     34    174    178 180.2  11.1  34148  289.38 0855.22
2009/04/23 10:31:41.4     -63    -40    156     75    173 237.6  72.8  34158  289.55 0855.22
2009/04/23 10:31:41.5      41     32    137     53    146  52.2  78.2  34166  289.67 0855.22
2009/04/23 10:31:41.6      84     11     82     85    118  82.5  49.0  34160  289.58 0855.22
2009/04/23 10:31:41.7     104   -213    -75    238    250 153.9 -17.6  34146  289.32 0855.22
2009/04/23 10:31:41.8     142   -301   -107    334    350 154.7 -23.0  34138  289.20 0855.22
2009/04/23 10:31:41.9     181   -219    101    285    302 140.4  20.2  34134  289.12 0855.22
2009/04/23 10:31:42.0     124   -103    124    162    204 129.6  41.4  34142  289.28 0855.22
2009/04/23 10:31:42.1     276   -141    106    311    329 117.1  18.8  34138  289.20 0855.22
2009/04/23 10:31:42.2     177   -130    140    220    260 126.4  35.5  34140  289.24 0855.22
2009/04/23 10:31:42.3      11   -208     74    209    222 176.9  19.6  34138  289.21 0855.22
2009/04/23 10:31:42.4      31   -285    176    287    336 173.8  34.4  34140  289.24 0855.22
2009/04/23 10:31:42.5      93   -221    212    240    320 157.1  46.2  34148  289.37 0855.22
2009/04/23 10:31:42.6    -220   -185    137    288    318 230.0  27.2  34156  289.49 0855.22
2009/04/23 10:31:42.7    -211   -195    130    288    315 227.3  25.9  34154  289.47 0855.22
2009/04/23 10:31:42.8    -192   -185    125    267    294 226.0  27.1  34152  289.44 0855.22
2009/04/23 10:31:42.9    -288    -94     15    304    305 251.8   2.9  34152  289.44 0855.25
2009/04/23 10:31:43.0    -179    -31     86    182    201 259.9  27.1  34156  289.50 0855.25
2009/04/23 10:31:43.1    -267    -32    -14    269    270 263.0  -3.1  34148  289.36 0855.25
2009/04/23 10:31:43.2    -253   -195   -146    320    351 232.3 -30.6  34146  289.32 0855.25
2009/04/23 10:31:43.3     -76   -191     25    206    208 201.8   7.1  34138  289.19 0855.25
2009/04/23 10:31:43.4    -151    -11    134    152    202 265.6  46.2  34158  289.53 0855.25
2009/04/23 10:31:43.5      13   -168    129    169    212 175.5  41.4  34154  289.48 0855.25
2009/04/23 10:31:43.6     -68   -207    132    218    254 198.3  34.0  34150  289.39 0855.25
2009/04/23 10:31:43.7     -81   -242    231    256    344 198.5  46.8  34152  289.42 0855.25
2009/04/23 10:31:43.8     -48   -240    231    245    336 191.3  48.2  34140  289.22 0855.25
2009/04/23 10:31:43.9       0   -301    255    302    395 180.0  44.5  34138  289.20 0855.25
2009/04/23 10:31:44.0      23   -311    242    312    394 175.6  41.7  34150  289.40 0855.25
2009/04/23 10:31:44.1     -22   -164    212    166    269 187.8  57.9  34160  289.58 0855.25
2009/04/23 10:31:44.2      -5   -303    169    304    347 181.0  31.4  34146  289.33 0855.25
2009/04/23 10:31:44.3       8   -188    213    189    284 177.5  54.2  34144  289.31 0855.25
2009/04/23 10:31:44.4     -56   -208    136    216    255 195.1  35.5  34148  289.36 0855.25
2009/04/23 10:31:44.5     -71   -159    187    175    256 204.1  52.2  34158  289.55 0855.25
2009/04/23 10:31:44.6       7      0    138      8    138  94.4  90.0  34158  289.53 0855.25
2009/04/23 10:31:44.7      -2    -87    156     88    179 181.4  68.3  34156  289.50 0855.25
2009/04/23 10:31:44.8       4     50    148     51    156   5.3  81.2  34158  289.53 0855.25
2009/04/23 10:31:44.9      -3   -119    194    120    228 181.8  64.9  34142  289.26 0855.27
2009/04/23 10:31:45.0     -34   -188    219    192    291 190.5  54.3  34144  289.29 0855.27
2009/04/23 10:31:45.1    -138   -142    228    199    302 224.1  54.3  34168  289.70 0855.27
2009/04/23 10:31:45.2    -197   -190    203    274    341 226.0  40.0  34146  289.32 0855.27
2009/04/23 10:31:45.3    -223   -139    269    264    376 238.0  50.6  34166  289.67 0855.27
2009/04/23 10:31:45.4    -244   -179    154    303    339 233.8  29.1  34162  289.61 0855.27
2009/04/23 10:31:45.5    -121   -176    214    214    302 214.5  50.1  34148  289.37 0855.27
2009/04/23 10:31:45.6    -139      2     27    140    143 270.9  11.1  34160  289.58 0855.27
2009/04/23 10:31:45.7     -43     41     88     60    106 314.1  62.6  34160  289.57 0855.27
2009/04/23 10:31:45.8    -199    104    242    225    330 297.8  52.3  34152  289.42 0855.27
2009/04/23 10:31:45.9    -184    152    156    239    285 309.5  36.0  34144  289.31 0855.27
2009/04/23 10:31:46.0    -349     71    143    357    384 281.5  23.1  34142  289.28 0855.27
2009/04/23 10:31:46.1    -243     36    183    246    306 278.6  40.1  34146  289.32 0855.27
2009/04/23 10:31:46.2    -317    155    148    353    382 296.1  24.1  34142  289.26 0855.27
2009/04/23 10:31:46.3    -169    128    246    213    325 307.1  54.8  34148  289.36 0855.27
2009/04/23 10:31:46.4    -165      6    180    166    244 272.4  52.7  34154  289.46 0855.27
2009/04/23 10:31:46.5      22   -156    138    158    209 171.9  45.8  34144  289.31 0855.27
2009/04/23 10:31:46.6     -97   -145    229    175    288 213.8  58.5  34144  289.31 0855.27
2009/04/23 10:31:46.7     -25    -29    199     39    202 221.4  89.6  34160  289.57 0855.27
2009/04/23 10:31:46.8      47   -171    263    178    317 164.4  62.7  34146  289.34 0855.27
2009/04/23 10:31:46.9     190   -152    237    244    340 128.6  49.2  34148  289.37 0855.23
2009/04/23 10:31:47.0     180   -175    180    252    309 134.2  39.1  34144  289.31 0855.23
2009/04/23 10:31:47.1     127   -173    187    215    284 143.7  45.6  34142  289.25 0855.23
2009/04/23 10:31:47.2      68   -242    222    252    335 164.2  46.1  34142  289.27 0855.23
2009/04/23 10:31:47.3      46   -115    173    124    212 158.1  61.1  34144  289.30 0855.23
2009/04/23 10:31:47.4      -1    -12    160     13    160 188.0  90.0  34152  289.43 0855.23
2009/04/23 10:31:47.5     -17      0    190     18    190 270.0  90.0  34154  289.46 0855.23
2009/04/23 10:31:47.6      26     15    140     31    143  59.3  88.0  34156  289.52 0855.23
2009/04/23 10:31:47.7     -31   -152    194    156    248 191.5  57.1  34146  289.35 0855.23
2009/04/23 10:31:47.8      25   -105    233    108    256 166.6  73.5  34146  289.35 0855.23
2009/04/23 10:31:47.9    -170   -340    291    381    479 206.6  41.2  34164  289.65 0855.23
2009/04/23 10:31:48.0    -164   -298    137    341    367 208.8  23.0  34156  289.52 0855.23
2009/04/23 10:31:48.1     -73   -259    178    270    323 195.8  36.6  34150  289.39 0855.23
2009/04/23 10:31:48.2     -74   -153    129    171    214 205.9  40.9  34154  289.46 0855.23
2009/04/23 10:31:48.3     -23   -196    192    198    275 186.9  49.0  34140  289.24 0855.23
2009/04/23 10:31:48.4    -229    -73    145    241    281 252.3  34.0  34172  289.76 0855.23
2009/04/23 10:31:48.5      35    106    179    112    211  18.7  64.9  34150  289.40 0855.23
2009/04/23 10:31:48.6      82    -22    174     86    194 105.5  72.1  34158  289.53 0855.23
2009/04/23 10:31:48.7       0     38    149     39    154 359.1  84.9  34154  289.46 0855.23
2009/04/23 10:31:48.8    -241   -134    211    277    348 240.9  41.2  34140  289.24 0855.23
2009/04/23 10:31:48.9    -269   -182    114    325    345 235.9  19.4  34140  289.23 0855.21
2009/04/23 10:31:49.0      25     -2    127     26    129  96.1  89.1  34148  289.38 0855.21
2009/04/23 10:31:49.1    -221    -65    176    231    290 253.6  41.4  34154  289.47 0855.21
2009/04/23 10:31:49.2    -207    -85    166    224    278 247.6  40.4  34154  289.47 0855.21
2009/04/23 10:31:49.3    -153    -31    213    157    264 258.5  60.0  34168  289.71 0855.21
2009/04/23 10:31:49.4    -155      7    144    156    212 272.6  47.9  34172  289.79 0855.21
2009/04/23 10:31:49.5     -88   -114    183    145    233 217.8  57.5  34162  289.60 0855.21
2009/04/23 10:31:49.6    -275     -8    103    276    294 268.3  21.3  34168  289.71 0855.21
2009/04/23 10:31:49.7    -268    -15     42    269    273 266.7   9.0  34156  289.49 0855.21
2009/04/23 10:31:49.8    -235      3    146    236    277 270.8  34.8  34160  289.58 0855.21
2009/04/23 10:31:49.9    -281     35    164    284    327 277.2  32.7  34148  289.36 0855.21
2009/04/23 10:31:50.0    -210    178    144    276    311 310.4  29.8  34156  289.49 0855.21
2009/04/23 10:31:50.1    -130    125    131    181    223 314.0  39.5  34156  289.52 0855.21
2009/04/23 10:31:50.2     -65    181    129    193    232 340.2  36.7  34146  289.35 0855.21
2009/04/23 10:31:50.3     -96    188    176    212    275 332.8  43.8  34146  289.32 0855.21
2009/04/23 10:31:50.4    -178    -65     18    190    191 249.8   5.7  34150  289.41 0855.21
2009/04/23 10:31:50.5    -256     21     92    257    272 274.8  20.2  34150  289.39 0855.21
2009/04/23 10:31:50.6    -206     98    105    229    251 295.5  26.2  34148  289.37 0855.21
2009/04/23 10:31:50.7     -68     70    128     98    161 315.9  58.7  34156  289.52 0855.21
2009/04/23 10:31:50.8     159    131    136    207    247  50.5  36.5  34158  289.54 0855.21
2009/04/23 10:31:50.9     -45    218    232    223    321 348.2  51.2  34158  289.54 0855.12
2009/04/23 10:31:51.0      -9    123    213    124    246 355.6  67.2  34162  289.60 0855.12
2009/04/23 10:31:51.1     124     68    313    142    343  61.2  74.0  34160  289.56 0855.12
2009/04/23 10:31:51.2      78     40    312     88    324  62.5  84.0  34152  289.42 0855.12
2009/04/23 10:31:51.3     -95   -287    295    303    422 198.3  49.2  34164  289.65 0855.12
2009/04/23 10:31:51.4    -200   -263    191    331    382 217.3  32.6  34158  289.55 0855.12
2009/04/23 10:31:51.5     -72   -131    197    150    247 209.0  59.0  34146  289.35 0855.12
2009/04/23 10:31:51.6     241    -52    337    247    417 102.3  60.4  34154  289.47 0855.12
2009/04/23 10:31:51.7     242     -3    370    243    442  90.8  63.7  34142  289.28 0855.12
2009/04/23 10:31:51.8     248    -39    322    252    408  99.0  58.2  34148  289.38 0855.12
2009/04/23 10:31:51.9     381   -225    339    443    557 120.7  41.3  34136  289.16 0855.12
2009/04/23 10:31:52.0       2   -406    243    407    474 179.7  33.6  34160  289.56 0855.12
2009/04/23 10:31:52.1     -19   -248    219    249    331 184.4  46.1  34166  289.66 0855.12
2009/04/23 10:31:52.2     -77   -352    136    361    385 192.4  21.5  34190  290.08 0855.12
2009/04/23 10:31:52.3      31   -371    115    373    391 175.1  17.2  34176  289.84 0855.12
2009/04/23 10:31:52.4      34   -321    116    323    343 173.8  20.6  34152  289.42 0855.12
2009/04/23 10:31:52.5      53   -281    242    287    375 169.3  44.4  34154  289.47 0855.12
2009/04/23 10:31:52.6      54   -262    240    268    359 168.2  46.5  34158  289.54 0855.12
2009/04/23 10:31:52.7    -133   -262     76    295    305 207.0  14.6  34184  289.97 0855.12
2009/04/23 10:31:52.8    -216   -296    178    367    407 216.1  27.8  34186  290.01 0855.12
2009/04/23 10:31:52.9    -216   -177    193    280    340 230.7  37.8  34194  290.14 0855.06
2009/04/23 10:31:53.0    -278   -141    183    312    361 243.1  33.3  34198  290.20 0855.06
2009/04/23 10:31:53.1    -272   -161    195    317    372 239.4  34.6  34202  290.27 0855.06
2009/04/23 10:31:53.2    -276   -108    174    297    344 248.5  33.0  34208  290.37 0855.06
2009/04/23 10:31:53.3    -220    -80    176    235    293 250.0  40.6  34206  290.36 0855.06
2009/04/23 10:31:53.4    -134     -1    184    135    228 269.2  60.5  34194  290.16 0855.06
2009/04/23 10:31:53.5     -82   -100    117    130    174 219.6  46.6  34176  289.84 0855.06
2009/04/23 10:31:53.6     -13     13    119     19    120 316.6  90.0  34184  289.97 0855.06
2009/04/23 10:31:53.7      32    -25    131     41    137 127.8  82.3  34164  289.63 0855.06
2009/04/23 10:31:53.8     -41    -11     48     43     64 254.9  52.2  34180  289.92 0855.06
2009/04/23 10:31:53.9     -86    -64    168    108    199 233.1  64.4  34160  289.58 0855.06
2009/04/23 10:31:54.0      57     36    141     68    156  57.6  72.8  34152  289.45 0855.06
2009/04/23 10:31:54.1     -85   -103    108    134    172 219.6  43.5  34146  289.35 0855.06
2009/04/23 10:31:54.2    -137    -62     35    151    156 245.6  13.2  34166  289.67 0855.06
2009/04/23 10:31:54.3    -180    -74     70    195    207 247.6  20.7  34184  289.97 0855.06
2009/04/23 10:31:54.4    -102   -109    167    150    224 223.2  53.5  34156  289.50 0855.06
2009/04/23 10:31:54.5    -162    -50      6    170    171 252.7   2.3  34172  289.79 0855.06
2009/04/23 10:31:54.6     -91   -167     87    191    209 208.7  26.4  34166  289.69 0855.06
2009/04/23 10:31:54.7    -144    -85    -15    168    169 239.4  -5.2  34168  289.70 0855.06
2009/04/23 10:31:54.8    -222    -87     13    239    240 248.5   3.1  34174  289.81 0855.06
2009/04/23 10:31:54.9     -83   -226    140    242    279 200.3  32.7  34168  289.70 0855.06
2009/04/23 10:31:55.0    -133   -180    164    225    278 216.5  39.7  34174  289.80 0855.06
2009/04/23 10:31:55.1    -220    -73    124    232    263 251.6  30.6  34180  289.90 0855.06
2009/04/23 10:31:55.2    -178   -115     96    213    233 237.1  26.2  34176  289.85 0855.06
2009/04/23 10:31:55.3     -46   -110    111    120    163 202.7  47.9  34174  289.80 0855.06
2009/04/23 10:31:55.4     130   -253    219    285    359 152.8  41.5  34148  289.38 0855.06
2009/04/23 10:31:55.5      50   -106    151    118    191 154.6  57.9  34150  289.40 0855.06
2009/04/23 10:31:55.6    -190   -166    161    253    299 228.7  35.5  34132  289.09 0855.06
2009/04/23 10:31:55.7      57   -349    121    354    375 170.7  18.9  34128  289.04 0855.06
2009/04/23 10:31:55.8    -145   -312    180    345    389 205.0  29.6  34128  289.04 0855.06
2009/04/23 10:31:55.9      10   -362    292    363    465 178.3  43.0  34120  288.89 0855.06
2009/04/23 10:31:56.0     141   -270    289    305    420 152.4  48.2  34132  289.11 0855.06
2009/04/23 10:31:56.1      93   -306    240    320    400 163.1  40.7  34122  288.93 0855.06
2009/04/23 10:31:56.2     203   -124    194    239    307 121.5  43.7  34146  289.32 0855.06
2009/04/23 10:31:56.3     188   -293    110    349    366 147.4  17.5  34130  289.08 0855.06
2009/04/23 10:31:56.4      24   -400     56    401    406 176.5   8.0  34130  289.05 0855.06
2009/04/23 10:31:56.5      51   -250    143    256    293 168.4  31.4  34132  289.09 0855.06
2009/04/23 10:31:56.6     -70   -175     33    189    193 201.8  10.1  34138  289.19 0855.06
2009/04/23 10:31:56.7      -7   -183     37    184    188 182.2  11.6  34136  289.16 0855.06
2009/04/23 10:31:56.8     -10   -140     38    141    147 184.5  15.3  34126  289.01 0855.06
2009/04/23 10:31:56.9       8   -104    -15    105    107 175.5  -8.2  34124  288.97 0855.10
2009/04/23 10:31:57.0     -18   -235    -47    236    241 184.5 -11.3  34126  289.00 0855.10
2009/04/23 10:31:57.1     -14   -308    -80    309    320 182.6 -14.5  34122  288.92 0855.10
2009/04/23 10:31:57.2      74   -348   -183    356    400 167.9 -33.7  34114  288.79 0855.10
2009/04/23 10:31:57.3    -143   -154    -58    211    220 222.8 -15.5  34120  288.89 0855.10
2009/04/23 10:31:57.4     -62   -203    -11    213    214 197.2  -3.1  34120  288.89 0855.10
2009/04/23 10:31:57.5      55   -157     97    167    193 160.6  33.1  34122  288.92 0855.10
2009/04/23 10:31:57.6     -36   -123     67    129    145 196.5  29.8  34128  289.02 0855.10
2009/04/23 10:31:57.7    -101    -76     62    127    141 233.1  27.3  34134  289.13 0855.10
2009/04/23 10:31:57.8     -58     28     74     65     98 296.2  53.7  34130  289.08 0855.10
2009/04/23 10:31:57.9     -90   -162    195    186    269 209.2  51.4  34146  289.34 0855.12
2009/04/23 10:31:58.0    -230   -256    120    345    366 222.0  19.3  34126  288.99 0855.12
2009/04/23 10:31:58.1     -72   -152     59    169    180 205.5  19.4  34136  289.18 0855.12
2009/04/23 10:31:58.2     -61    -86    123    106    162 215.6  54.8  34140  289.24 0855.12
2009/04/23 10:31:58.3       5    -72    101     73    124 175.5  60.6  34136  289.18 0855.12
2009/04/23 10:31:58.4     150    -24    111    152    188  99.2  39.7  34120  288.89 0855.12
2009/04/23 10:31:58.5      55    -62    132     84    156 138.6  64.7  34124  288.96 0855.12
2009/04/23 10:31:58.6      18   -214     84    215    230 175.1  22.5  34108  288.70 0855.12
2009/04/23 10:31:58.7     174   -272    -12    324    325 147.4  -2.2  34108  288.68 0855.12
2009/04/23 10:31:58.8     173   -238     76    295    305 144.0  14.5  34110  288.71 0855.12
2009/04/23 10:31:58.9     182   -261    143    319    349 145.0  25.9  34106  288.66 0855.12
2009/04/23 10:31:59.0     161   -258    131    305    331 148.1  24.8  34110  288.73 0855.12
2009/04/23 10:31:59.1     149   -339    186    371    415 156.3  28.6  34102  288.60 0855.12
2009/04/23 10:31:59.2      72   -329    227    337    406 167.6  37.3  34110  288.74 0855.12
2009/04/23 10:31:59.3      -5   -225    221    226    316 181.4  49.4  34104  288.63 0855.12
2009/04/23 10:31:59.4     -21   -150    268    152    308 188.0  68.1  34100  288.54 0855.12
2009/04/23 10:31:59.5      81   -289    318    301    437 164.2  51.9  34104  288.64 0855.12
2009/04/23 10:31:59.6      53   -299    253    304    395 169.8  44.1  34112  288.76 0855.12
2009/04/23 10:31:59.7     237   -150    210    281    350 122.4  40.4  34112  288.76 0855.12
2009/04/23 10:31:59.8     111   -150    208    187    279 143.5  53.5  34124  288.97 0855.12
2009/04/23 10:31:59.9     157   -124    185    201    273 128.4  47.9  34122  288.92 0855.12
2009/04/23 10:32:00.0     172    -93    138    196    239 118.4  38.6  34118  288.86 0855.12
2009/04/23 10:32:00.1     174    -41    134    179    223 103.5  40.4  34112  288.75 0855.12
2009/04/23 10:32:00.2      74    -50    133     90    160 124.2  62.8  34122  288.94 0855.12
2009/04/23 10:32:00.3     146    -74    169    164    235 117.1  50.9  34126  288.99 0855.12
2009/04/23 10:32:00.4     206   -172    219    269    346 130.0  43.5  34098  288.53 0855.12
2009/04/23 10:32:00.5     138   -320    288    349    452 156.6  43.7  34092  288.43 0855.12
2009/04/23 10:32:00.6     245   -255    132    354    377 136.2  21.4  34104  288.64 0855.12
2009/04/23 10:32:00.7     145   -318    148    350    380 155.5  24.3  34100  288.55 0855.12
2009/04/23 10:32:00.8      10   -296    126    297    322 178.0  24.3  34080  288.21 0855.12
2009/04/23 10:32:00.9     127   -229    179    262    317 151.0  37.7  34092  288.43 0855.12
2009/04/23 10:32:01.0      40   -271    140    275    308 171.5  29.2  34094  288.44 0855.12
2009/04/23 10:32:01.1     243   -256    123    354    375 136.5  19.2  34084  288.30 0855.12
2009/04/23 10:32:01.2     177   -450    236    484    538 158.4  27.8  34078  288.18 0855.12
2009/04/23 10:32:01.4     173   -502    341    532    631 161.0  35.7  34082  288.26 0855.12
2009/04/23 10:32:01.4      74   -316    280    325    428 166.7  45.1  34094  288.45 0855.12
2009/04/23 10:32:01.5    -119   -374    150    393    420 197.7  22.0  34094  288.46 0855.12
2009/04/23 10:32:01.6      64   -315     92    322    336 168.4  16.0  34090  288.38 0855.12
2009/04/23 10:32:01.7     133   -373     25    397    398 160.3   3.6  34086  288.33 0855.12
2009/04/23 10:32:01.9     177   -256    -20    312    313 145.3  -3.8  34094  288.44 0855.12
2009/04/23 10:32:02.0     139   -263     22    298    299 152.0   4.4  34096  288.48 0855.12
2009/04/23 10:32:02.1     121   -275     20    301    302 156.2   3.9  34092  288.43 0855.12
2009/04/23 10:32:02.2      43   -348     43    351    354 172.9   7.1  34094  288.44 0855.12
2009/04/23 10:32:02.3      99   -339    -15    354    355 163.6  -2.5  34092  288.42 0855.12
2009/04/23 10:32:02.4      97   -296    -63    312    319 161.7 -11.6  34092  288.41 0855.12
2009/04/23 10:32:02.5     138   -288     39    320    323 154.4   7.1  34088  288.34 0855.12
2009/04/23 10:32:02.6     128   -223     45    258    263 150.1  10.0  34092  288.41 0855.12
2009/04/23 10:32:02.7      14   -191     76    192    206 175.6  23.0  34100  288.55 0855.12
2009/04/23 10:32:02.8     150   -264    143    304    335 150.4  27.1  34088  288.34 0855.12
2009/04/23 10:32:02.9      91   -226     18    244    245 157.9   4.2  34092  288.41 0855.12
2009/04/23 10:32:03.0     -29   -238     17    240    241 187.1   4.2  34100  288.56 0855.12
2009/04/23 10:32:03.1    -195   -189   -112    272    294 226.0 -28.0  34096  288.48 0855.12
2009/04/23 10:32:03.2    -227   -125     47    260    265 241.1  10.3  34094  288.46 0855.12
2009/04/23 10:32:03.3    -138   -167     38    217    221 219.6  10.1  34092  288.43 0855.12
2009/04/23 10:32:03.4     -47   -125    -63    134    148 200.9 -31.5  34098  288.52 0855.12
2009/04/23 10:32:03.5     -52    -82    102     98    141 212.5  51.2  34108  288.69 0855.12
2009/04/23 10:32:03.6     -79    -79    173    112    206 225.1  64.4  34108  288.69 0855.12
2009/04/23 10:32:03.7    -176    -48     78    183    198 254.7  24.3  34098  288.53 0855.12
2009/04/23 10:32:03.8    -183    -36     -7    187    188 258.8  -2.2  34100  288.57 0855.12
2009/04/23 10:32:03.9    -129    -77     51    151    160 239.3  18.9  34106  288.67 0855.12
2009/04/23 10:32:04.0     -91    -30     -3     97     98 251.4  -2.2  34106  288.67 0855.12
2009/04/23 10:32:04.1     -69      1    -24     70     74 270.9 -23.3  34108  288.70 0855.12
2009/04/23 10:32:04.2     -45    -45     -3     64     65 225.1  -3.2  34106  288.65 0855.12
2009/04/23 10:32:04.3     -68    -49    -27     85     89 234.0 -23.3  34106  288.67 0855.12
2009/04/23 10:32:04.4     -81    -54    -33     98    103 236.3 -23.6  34104  288.62 0855.12
2009/04/23 10:32:04.5     -39    -55    -87     68    110 215.2 -62.3  34102  288.60 0855.12
2009/04/23 10:32:04.6     -29    -29   -123     42    129 225.1 -85.6  34106  288.65 0855.12
2009/04/23 10:32:04.7     -15    -75   -115     77    138 191.6 -67.1  34108  288.70 0855.12
2009/04/23 10:32:04.8       9    -38    -72     40     82 166.6 -73.2  34108  288.70 0855.12
2009/04/23 10:32:04.9     -13     18    -30     23     37 323.9 -62.9  34110  288.72 0855.12
2009/04/23 10:32:05.0     -14    -36     21     39     44 201.8  31.4  34108  288.69 0855.12
2009/04/23 10:32:05.1     -18    -71     36     74     82 194.3  27.8  34106  288.65 0855.12
2009/04/23 10:32:05.2     -32    -55     20     64     68 210.7  17.3  34104  288.62 0855.12
2009/04/23 10:32:05.3     -58   -105      6    121    122 209.0   2.9  34106  288.67 0855.12
2009/04/23 10:32:05.4     -41   -115     42    123    131 200.0  18.9  34104  288.64 0855.12
2009/04/23 10:32:05.5     -11   -130     62    131    144 184.9  27.2  34102  288.58 0855.12
2009/04/23 10:32:05.6       4   -166     98    167    193 178.6  33.5  34102  288.60 0855.12
2009/04/23 10:32:05.7     123   -241    161    271    315 153.0  33.6  34100  288.56 0855.12
2009/04/23 10:32:05.8      21   -255    213    256    333 175.1  44.0  34108  288.68 0855.12
2009/04/23 10:32:05.9     112   -329     96    348    362 161.2  15.4  34120  288.88 0855.12
2009/04/23 10:32:06.0     -36   -256     99    259    277 188.0  22.0  34112  288.75 0855.14
2009/04/23 10:32:06.1     -17   -321    165    322    361 183.1  29.2  34104  288.62 0855.14
2009/04/23 10:32:06.2     -21   -281    214    282    354 184.4  41.2  34108  288.69 0855.14
2009/04/23 10:32:06.3    -124   -282     67    309    317 203.8  12.3  34100  288.56 0855.14
2009/04/23 10:32:06.4      14   -181    128    182    222 175.5  38.6  34114  288.80 0855.14
2009/04/23 10:32:06.5     -64   -411     48    417    420 188.9   6.6  34100  288.56 0855.14
2009/04/23 10:32:06.6       0   -367    -38    368    370 179.9  -5.9  34098  288.52 0855.14
2009/04/23 10:32:06.7      43   -370    -54    373    377 173.3  -8.4  34096  288.50 0855.14
2009/04/23 10:32:06.8      96   -307   -105    322    339 162.5 -18.1  34096  288.49 0855.14
2009/04/23 10:32:06.9      70   -259    -85    269    283 164.9 -17.5  34110  288.71 0855.14
2009/04/23 10:32:07.0     252   -209     50    328    332 129.6   8.7  34104  288.64 0855.14
2009/04/23 10:32:07.1     134   -185    120    229    258 144.2  30.1  34104  288.61 0855.14
2009/04/23 10:32:07.2     184   -271    -42    328    331 145.7  -7.4  34094  288.47 0855.14
2009/04/23 10:32:07.3      38   -322    -91    325    337 173.1 -20.3  34106  288.67 0855.14
2009/04/23 10:32:07.4    -153   -225    -97    273    290 214.2 -19.7  34106  288.65 0855.14
2009/04/23 10:32:07.5    -160   -169     68    233    243 223.4  16.3  34106  288.65 0855.14
2009/04/23 10:32:07.6      58   -192    -35    201    205 163.0 -10.1  34106  288.67 0855.14
2009/04/23 10:32:07.7      76   -183    -96    199    220 157.3 -31.7  34106  288.65 0855.14
2009/04/23 10:32:07.8      95   -157    -59    184    194 148.8 -17.9  34104  288.64 0855.14
2009/04/23 10:32:07.9      33   -196   -129    199    237 170.4 -40.7  34098  288.53 0855.14
2009/04/23 10:32:08.0      37   -219    -77    223    237 170.4 -19.1  34106  288.65 0855.14
2009/04/23 10:32:08.1     118   -292    -47    316    320 157.9  -8.6  34106  288.65 0855.14
2009/04/23 10:32:08.2     165   -228     24    282    284 144.2   4.9  34104  288.63 0855.14
2009/04/23 10:32:08.3     167   -165     67    236    246 134.7  16.0  34104  288.63 0855.14
2009/04/23 10:32:08.4     188   -247     99    311    327 142.6  17.7  34104  288.63 0855.14
2009/04/23 10:32:08.5     186   -234    164    300    341 141.5  31.0  34104  288.61 0855.14
2009/04/23 10:32:08.6     204   -205     96    290    306 135.2  18.4  34110  288.71 0855.14
2009/04/23 10:32:08.7     140   -349     59    377    382 158.2   9.0  34108  288.69 0855.14
2009/04/23 10:32:08.8     141   -419    194    443    483 161.4  25.2  34110  288.73 0855.14
2009/04/23 10:32:08.9      92   -400    211    411    461 167.0  29.3  34104  288.63 0855.14
2009/04/23 10:32:09.0      52   -224     66    231    241 166.9  16.0  34110  288.71 0855.14
2009/04/23 10:32:09.1     -53   -382    -21    386    387 188.0  -3.2  34110  288.74 0855.14
2009/04/23 10:32:09.2      72   -419     59    426    430 170.2   7.9  34112  288.75 0855.14
2009/04/23 10:32:09.3       1   -332     19    333    334 179.7   3.3  34112  288.76 0855.14
2009/04/23 10:32:09.4     -38   -415   -117    417    434 185.3 -15.7  34112  288.77 0855.14
2009/04/23 10:32:09.5      42   -512    -69    514    519 175.3  -7.7  34120  288.90 0855.14
2009/04/23 10:32:09.6      20   -432     49    433    436 177.3   6.5  34110  288.72 0855.14
2009/04/23 10:32:09.7     -26   -431    -39    432    434 183.5  -5.2  34112  288.77 0855.14
2009/04/23 10:32:09.8    -178   -449   -149    484    507 201.7 -17.2  34114  288.79 0855.14
2009/04/23 10:32:09.9     107   -473     75    486    492 167.2   8.8  34112  288.76 0855.14
2009/04/23 10:32:10.0     -28   -361    257    363    444 184.5  38.7  34102  288.60 0855.17
2009/04/23 10:32:10.1     -52   -252    263    258    368 191.8  50.4  34106  288.66 0855.17
2009/04/23 10:32:10.2    -155   -314     98    351    365 206.3  15.7  34104  288.64 0855.17
2009/04/23 10:32:10.3     -35   -191    172    195    260 190.5  45.9  34118  288.85 0855.17
2009/04/23 10:32:10.4      -8   -177    158    178    238 182.7  46.4  34110  288.74 0855.17
2009/04/23 10:32:10.5     -10   -227    225    228    320 182.7  49.9  34116  288.83 0855.17
2009/04/23 10:32:10.6      19   -153    223    155    271 172.9  62.1  34118  288.85 0855.17
2009/04/23 10:32:10.7      10   -329    176    330    374 178.1  30.5  34110  288.74 0855.17
2009/04/23 10:32:10.8     122   -427    -40    445    447 164.0  -5.2  34112  288.77 0855.17
2009/04/23 10:32:10.9     188   -242    -48    307    311 142.1  -9.0  34114  288.80 0855.17
2009/04/23 10:32:11.0     181   -188     46    261    266 136.1  10.0  34110  288.73 0855.17
2009/04/23 10:32:11.1     165   -291     -4    335    336 150.5  -0.7  34112  288.77 0855.17
2009/04/23 10:32:11.2     125   -197    -90    234    250 147.5 -26.4  34116  288.83 0855.17
2009/04/23 10:32:11.3     144   -112    -57    183    191 127.8 -22.5  34114  288.80 0855.17
2009/04/23 10:32:11.4      63    -63    -42     90     99 135.0 -31.5  34120  288.91 0855.17
2009/04/23 10:32:11.5      29    -42     -6     52     53 145.7  -7.2  34120  288.91 0855.17
2009/04/23 10:32:11.6      24    -36     31     44     53 145.7  38.6  34120  288.91 0855.17
2009/04/23 10:32:11.7       9    -62     34     63     71 171.1  31.3  34120  288.91 0855.17
2009/04/23 10:32:11.8     -54    -50     14     74     76 226.9  11.1  34116  288.84 0855.17
2009/04/23 10:32:11.9    -105    -53     23    118    121 242.9  11.1  34118  288.87 0855.17
2009/04/23 10:32:12.0    -201    -68     -8    213    214 251.2  -2.2  34124  288.96 0855.21
2009/04/23 10:32:12.1    -259    -24    -33    261    264 264.5  -7.3  34136  289.15 0855.21
2009/04/23 10:32:12.2    -175   -225     36    286    289 217.9   7.2  34116  288.81 0855.21
2009/04/23 10:32:12.3    -190    -93   -202    212    292 243.8 -53.1  34118  288.87 0855.21
2009/04/23 10:32:12.4      54   -250    174    256    309 167.7  37.4  34118  288.87 0855.21
2009/04/23 10:32:12.5    -150   -340    192    372    418 203.9  29.4  34124  288.97 0855.21
2009/04/23 10:32:12.6     -84   -221     45    237    242 200.9  10.8  34134  289.12 0855.21
2009/04/23 10:32:12.7      35   -192     59    196    205 169.5  16.8  34130  289.06 0855.21
2009/04/23 10:32:12.8       1   -154    117    155    194 179.5  40.9  34122  288.94 0855.21
2009/04/23 10:32:12.9       0   -154    101    155    185 180.4  36.0  34134  289.13 0855.21
2009/04/23 10:32:13.0      28   -118     88    122    150 166.6  39.7  34128  289.02 0855.21
2009/04/23 10:32:13.1      69    -47     83     84    118 124.2  50.0  34126  289.01 0855.21
2009/04/23 10:32:13.2     148   -144     82    207    222 134.2  23.0  34118  288.87 0855.21
2009/04/23 10:32:13.3     145   -217    137    262    295 146.2  29.5  34118  288.85 0855.21
2009/04/23 10:32:13.4      73   -271    159    281    322 164.9  32.0  34118  288.87 0855.21
2009/04/23 10:32:13.5     265   -335    -48    428    431 141.7  -6.5  34120  288.89 0855.21
2009/04/23 10:32:13.6     280   -471     42    548    550 149.3   4.4  34116  288.82 0855.21
2009/04/23 10:32:13.7     326   -486     91    586    594 146.2   8.9  34116  288.81 0855.21
2009/04/23 10:32:13.8     220   -535    165    579    603 157.6  15.9  34116  288.83 0855.21
2009/04/23 10:32:13.9     159   -536    136    560    577 163.5  13.7  34118  288.86 0855.21
2009/04/23 10:32:14.0     164   -499     63    526    530 161.8   6.9  34116  288.82 0855.22
2009/04/23 10:32:14.1     222   -499     55    547    550 156.0   5.8  34110  288.72 0855.22
2009/04/23 10:32:14.2     221   -484     55    533    536 155.4   5.9  34114  288.80 0855.22
2009/04/23 10:32:14.3     225   -473     16    524    525 154.5   1.8  34118  288.85 0855.22
2009/04/23 10:32:14.4     298   -466    -30    554    555 147.4  -3.2  34118  288.85 0855.22
2009/04/23 10:32:14.5     288   -410    -57    502    506 144.9  -6.6  34116  288.83 0855.22
2009/04/23 10:32:14.6     161   -354    106    390    405 155.5  15.3  34126  288.98 0855.22
2009/04/23 10:32:14.7     171   -264     35    315    318 147.0   6.5  34118  288.85 0855.22
2009/04/23 10:32:14.8      -8   -275    123    276    302 181.8  25.3  34138  289.19 0855.22
2009/04/23 10:32:14.9    -229   -295     30    374    376 217.8   4.6  34132  289.10 0855.22
2009/04/23 10:32:15.0    -139   -353      1    380    381 201.6   0.2  34126  288.99 0855.22
2009/04/23 10:32:15.1     -27   -378    -11    379    380 184.2  -1.7  34132  289.11 0855.22
2009/04/23 10:32:15.2      26   -347     16    348    349 175.7   2.8  34128  289.03 0855.22
2009/04/23 10:32:15.3      25   -351    -13    352    353 175.8  -2.2  34126  288.98 0855.22
2009/04/23 10:32:15.4      47   -238    -29    243    245 168.7  -6.9  34122  288.92 0855.22
2009/04/23 10:32:15.5      12   -151      7    152    153 175.1   2.8  34120  288.91 0855.22
2009/04/23 10:32:15.6     -13   -231    143    232    272 183.4  35.0  34124  288.95 0855.22
2009/04/23 10:32:15.7    -103   -214     57    238    245 205.9  13.7  34132  289.09 0855.22
2009/04/23 10:32:15.8     -66   -347    -50    354    358 190.8  -8.1  34132  289.11 0855.22
2009/04/23 10:32:15.9       5   -335    -22    336    337 179.0  -3.9  34126  288.99 0855.22
2009/04/23 10:32:16.0     106   -195     62    223    232 151.5  15.6  34128  289.04 0855.18
2009/04/23 10:32:16.1      55   -275     96    281    298 168.5  18.9  34128  289.02 0855.18
2009/04/23 10:32:16.2       9   -390     34    391    393 178.6   5.0  34124  288.96 0855.18
2009/04/23 10:32:16.3      49   -331    -30    335    337 171.5  -5.2  34126  288.98 0855.18
2009/04/23 10:32:16.4      64   -353    127    359    382 169.7  19.6  34126  288.99 0855.18
2009/04/23 10:32:16.5     138   -277    178    310    357 153.5  32.6  34124  288.96 0855.18
2009/04/23 10:32:16.6     157   -331    242    367    439 154.6  36.5  34124  288.97 0855.18
2009/04/23 10:32:16.7     127   -397    248    417    485 162.2  33.5  34118  288.85 0855.18
2009/04/23 10:32:16.8     146   -377    235    405    468 158.8  32.9  34118  288.85 0855.18
2009/04/23 10:32:16.9     177   -450    304    484    571 158.4  35.2  34114  288.80 0855.18
2009/04/23 10:32:17.0     202   -307    203    368    420 146.7  31.3  34122  288.92 0855.18
2009/04/23 10:32:17.1     280   -478    185    555    586 149.6  18.5  34116  288.81 0855.18
2009/04/23 10:32:17.2      55   -445    241    449    509 172.9  30.6  34116  288.81 0855.18
2009/04/23 10:32:17.3      84   -452    284    460    540 169.4  34.8  34116  288.83 0855.18
2009/04/23 10:32:17.4      28   -447    231    448    504 176.4  29.4  34118  288.86 0855.18
2009/04/23 10:32:17.5    -112   -280    123    302    326 201.8  23.5  34130  289.05 0855.18
2009/04/23 10:32:17.6      -9   -116    168    117    204 184.5  62.1  34120  288.91 0855.18
2009/04/23 10:32:17.7      15    -79    119     81    143 169.3  62.6  34124  288.96 0855.18
2009/04/23 10:32:17.8      50    -55    140     75    158 137.7  69.6  34128  289.02 0855.18
2009/04/23 10:32:17.9      12    -92    122     93    153 172.0  59.0  34124  288.97 0855.18
2009/04/23 10:32:18.0      66   -180    150    192    243 159.7  42.0  34124  288.96 0855.15
2009/04/23 10:32:18.1      39   -104     87    112    141 159.1  41.7  34124  288.96 0855.15
2009/04/23 10:32:18.2      83    -68     38    108    115 129.1  19.4  34122  288.92 0855.15
2009/04/23 10:32:18.3      84    -84     57    119    131 135.0  27.3  34120  288.91 0855.15
2009/04/23 10:32:18.4      67    -56    102     88    134 130.0  54.8  34122  288.92 0855.15
2009/04/23 10:32:18.5      12   -158    236    159    284 175.6  62.7  34120  288.90 0855.15
2009/04/23 10:32:18.6    -104   -388    358    402    538 195.0  46.3  34130  289.08 0855.15
2009/04/23 10:32:18.7     -24   -156    295    158    334 188.9  69.7  34124  288.97 0855.15
2009/04/23 10:32:18.8    -153   -143    115    210    239 226.9  31.0  34134  289.14 0855.15
2009/04/23 10:32:18.9     -22   -384    137    385    409 183.4  19.6  34120  288.91 0855.15
2009/04/23 10:32:19.0     -20   -305     26    306    308 183.8   4.9  34126  288.98 0855.11
2009/04/23 10:32:19.1    -146   -155     94    214    233 223.2  25.2  34122  288.94 0855.11
2009/04/23 10:32:19.2     -18   -271    200    272    337 183.8  39.9  34122  288.93 0855.11
2009/04/23 10:32:19.3      49   -378     77    382    390 172.6  11.5  34112  288.76 0855.11
2009/04/23 10:32:19.4      95   -338    127    352    375 164.3  19.9  34116  288.81 0855.11
2009/04/23 10:32:19.5      63   -189     40    200    205 161.5  11.4  34114  288.79 0855.11
2009/04/23 10:32:19.6      65    -77     25    101    105 139.9  14.3  34116  288.82 0855.11
2009/04/23 10:32:19.7     135    -61     12    149    150 114.4   4.9  34116  288.82 0855.11
2009/04/23 10:32:19.8     127    -70     81    146    166 118.8  31.4  34116  288.84 0855.11
2009/04/23 10:32:19.9     114   -125    -14    170    171 137.5  -4.9  34116  288.84 0855.11
2009/04/23 10:32:20.0      33   -129     76    134    154 165.3  32.4  34120  288.89 0855.11
2009/04/23 10:32:20.1      16    -29     90     34     96 151.0  79.2  34128  289.02 0855.11
2009/04/23 10:32:20.2     -20      4     74     21     76 281.5  83.9  34138  289.21 0855.11
2009/04/23 10:32:20.3     -11     34     57     36     67 341.7  64.7  34138  289.19 0855.11
2009/04/23 10:32:20.4      41     38     80     57     98  46.9  60.6  34128  289.04 0855.11
2009/04/23 10:32:20.5      63    -34     78     72    106 118.8  52.2  34130  289.06 0855.11
2009/04/23 10:32:20.6      97    -74     24    123    126 127.3  11.1  34120  288.91 0855.11
2009/04/23 10:32:20.7     104    -97     22    143    145 133.1   9.0  34126  288.99 0855.11
2009/04/23 10:32:20.8     -18   -164     70    166    180 186.5  24.1  34118  288.86 0855.11
2009/04/23 10:32:20.9     203   -236    144    312    343 139.2  26.6  34118  288.86 0855.11
2009/04/23 10:32:21.0     197   -238    174    310    355 140.4  31.7  34112  288.77 0855.11
2009/04/23 10:32:21.1     129   -219    191    255    318 149.5  40.7  34120  288.88 0855.11
2009/04/23 10:32:21.2     130   -238    202    272    338 151.3  40.2  34122  288.93 0855.11
2009/04/23 10:32:21.3     165   -273    174    320    364 148.8  31.0  34122  288.93 0855.11
2009/04/23 10:32:21.4      80   -199    186    215    284 158.1  45.4  34120  288.90 0855.11
2009/04/23 10:32:21.5      73   -254    215    265    341 164.0  43.4  34122  288.92 0855.11
2009/04/23 10:32:21.6     115   -175    147    210    256 146.6  38.5  34118  288.87 0855.11
2009/04/23 10:32:21.7      51   -301    143    306    337 170.2  27.0  34120  288.90 0855.11
2009/04/23 10:32:21.8     -23   -313    156    314    350 184.4  28.4  34120  288.91 0855.11
2009/04/23 10:32:21.9      -6   -245     27    246    248 181.6   6.5  34120  288.90 0855.11
2009/04/23 10:32:22.0     160   -189    122    248    276 139.7  28.2  34124  288.97 0855.11
2009/04/23 10:32:22.1       0   -212    202    213    293 179.8  48.0  34124  288.95 0855.11
2009/04/23 10:32:22.2     -10   -165    173    166    239 183.8  51.2  34128  289.02 0855.11
2009/04/23 10:32:22.3    -162     12    142    163    216 274.4  45.8  34150  289.40 0855.11
2009/04/23 10:32:22.4    -116    -31      0    121    122 255.0  -0.3  34144  289.30 0855.11
2009/04/23 10:32:22.5      29   -110    114    114    161 164.8  50.1  34134  289.14 0855.11
2009/04/23 10:32:22.6      57   -142    122    154    196 158.2  42.4  34124  288.96 0855.11
2009/04/23 10:32:22.7      33    -80     77     87    116 157.7  46.4  34124  288.96 0855.11
2009/04/23 10:32:22.8      54    -31     70     63     94 119.8  53.3  34126  288.99 0855.11
2009/04/23 10:32:22.9      -6    -53     74     54     91 187.1  60.0  34128  289.04 0855.11
2009/04/23 10:32:23.0      26    -87     82     91    122 163.1  46.9  34122  288.92 0855.14
2009/04/23 10:32:23.1       0    -97    177     98    202 180.0  68.8  34130  289.06 0855.14
2009/04/23 10:32:23.2       0   -157    232    158    280 180.0  62.6  34120  288.90 0855.14
2009/04/23 10:32:23.3     -69   -174    228    188    295 201.6  56.4  34122  288.92 0855.14
2009/04/23 10:32:23.4     -35    -34     53     49     72 225.9  52.2  34124  288.97 0855.14
2009/04/23 10:32:23.5      33    -42     93     54    107 141.3  67.2  34124  288.97 0855.14
2009/04/23 10:32:23.6     -21    -55    145     59    156 200.9  76.6  34126  289.01 0855.14
2009/04/23 10:32:23.7     -45     10    139     47    146 282.4  81.2  34142  289.28 0855.14
2009/04/23 10:32:23.8     -70     33    128     78    149 295.4  65.1  34140  289.24 0855.14
2009/04/23 10:32:23.9    -179     26    106    181    209 278.4  33.1  34130  289.08 0855.14
2009/04/23 10:32:24.0     -14   -132    154    133    203 186.3  54.6  34132  289.09 0855.14
2009/04/23 10:32:24.1     -43   -138    159    145    215 197.4  52.7  34142  289.28 0855.14
2009/04/23 10:32:24.2     -49   -209    128    215    250 193.4  33.5  34142  289.25 0855.14
2009/04/23 10:32:24.3    -102    -71     62    125    139 234.9  28.2  34142  289.28 0855.14
2009/04/23 10:32:24.4     -93      0     73     94    119 270.0  41.7  34152  289.45 0855.14
2009/04/23 10:32:24.5    -107    -53     23    120    123 243.4  11.0  34138  289.21 0855.14
2009/04/23 10:32:24.6    -121   -139     19    185    187 221.2   6.1  34140  289.23 0855.14
2009/04/23 10:32:24.7     -88    -73    110    115    159 230.5  49.0  34158  289.55 0855.14
2009/04/23 10:32:24.8     -14   -101    135    103    169 188.0  58.7  34156  289.50 0855.14
2009/04/23 10:32:24.9    -123    -61    107    138    174 243.4  41.7  34166  289.67 0855.14
2009/04/23 10:32:25.0     -77    -76     54    109    121 225.4  28.2  34160  289.58 0855.17
2009/04/23 10:32:25.1     -11   -150    126    151    196 184.4  44.1  34156  289.50 0855.17
2009/04/23 10:32:25.2     -41   -152    153    158    219 195.2  49.2  34158  289.55 0855.17
2009/04/23 10:32:25.3     -52   -159    165    168    235 198.3  49.8  34154  289.48 0855.17
2009/04/23 10:32:25.4     -79   -142    177    163    240 209.0  52.5  34136  289.18 0855.17
2009/04/23 10:32:25.5    -132   -132    144    187    236 224.9  41.6  34156  289.50 0855.17
2009/04/23 10:32:25.6     -73   -114    120    136    181 212.5  46.2  34144  289.30 0855.17
2009/04/23 10:32:25.7     -45    -79     42     92    101 209.9  26.6  34138  289.19 0855.17
2009/04/23 10:32:25.8     -48   -146    101    154    184 198.3  36.0  34146  289.35 0855.17
2009/04/23 10:32:25.9     -44   -109     52    118    128 202.3  25.2  34150  289.41 0855.17
2009/04/23 10:32:26.0     -65   -125    101    142    174 207.6  38.8  34150  289.40 0855.17
2009/04/23 10:32:26.1     -73    -92     52    118    128 218.7  25.2  34150  289.41 0855.17
2009/04/23 10:32:26.2     -58   -110    114    125    169 208.1  47.1  34162  289.60 0855.17
2009/04/23 10:32:26.3     -51   -223    181    229    291 193.1  42.4  34126  288.98 0855.17
2009/04/23 10:32:26.4     -69   -259    190    269    329 195.1  38.7  34122  288.93 0855.17
2009/04/23 10:32:26.5     -40   -291    117    294    316 188.0  22.9  34120  288.88 0855.17
2009/04/23 10:32:26.6    -135   -199     18    241    242 214.2   4.4  34120  288.88 0855.17
2009/04/23 10:32:26.7     -16   -322     46    323    327 182.9   8.1  34118  288.87 0855.17
2009/04/23 10:32:26.8      14   -386     63    387    393 177.9   9.3  34122  288.94 0855.17
2009/04/23 10:32:26.9      75   -334     73    343    351 167.2  12.2  34118  288.86 0855.17
2009/04/23 10:32:27.0     174   -362     34    402    404 154.3   4.9  34120  288.89 0855.20
2009/04/23 10:32:27.1     131   -335     94    360    373 158.6  14.6  34118  288.86 0855.20
2009/04/23 10:32:27.2     130   -322    169    348    386 157.9  27.7  34116  288.82 0855.20
2009/04/23 10:32:27.3      13   -373    160    374    406 178.0  24.6  34116  288.81 0855.20
2009/04/23 10:32:27.4       0   -370    189    371    416 180.0  29.2  34122  288.93 0855.20
2009/04/23 10:32:27.5     -77   -315    230    325    398 193.8  38.7  34120  288.89 0855.20
2009/04/23 10:32:27.6     -28   -321    272    323    422 185.1  44.2  34118  288.86 0855.20
2009/04/23 10:32:27.7      26   -326    281    328    431 175.4  44.9  34126  289.01 0855.20
2009/04/23 10:32:27.8     -10   -328    361    329    488 181.9  53.2  34142  289.27 0855.20
2009/04/23 10:32:27.9     -29   -246    209    248    324 186.9  44.3  34126  288.98 0855.20
2009/04/23 10:32:28.0      60    -84    159    104    189 144.4  64.1  34132  289.11 0855.20
2009/04/23 10:32:28.1      46   -285    202    289    352 170.7  38.5  34120  288.89 0855.20
2009/04/23 10:32:28.2      23   -245    170    247    299 174.6  37.8  34114  288.78 0855.20
2009/04/23 10:32:28.3      43   -301    197    305    363 171.9  35.7  34122  288.93 0855.20
2009/04/23 10:32:28.4      76   -301    191    311    364 165.8  34.6  34122  288.94 0855.20
2009/04/23 10:32:28.5     131   -300    251    328    413 156.3  41.3  34126  288.98 0855.20
2009/04/23 10:32:28.6     110   -157    244    192    310 145.0  57.7  34134  289.12 0855.20
2009/04/23 10:32:28.7      92     34    213     99    234  69.6  73.5  34136  289.18 0855.20
2009/04/23 10:32:28.8     -58     -6    173     59    182 263.9  81.0  34132  289.11 0855.20
2009/04/23 10:32:28.9    -135   -137    183    193    265 224.5  48.2  34132  289.10 0855.20
2009/04/23 10:32:29.0     -57   -382    143    387    412 188.6  21.3  34124  288.97 0855.26
2009/04/23 10:32:29.1    -101   -294    153    312    347 199.1  27.9  34124  288.96 0855.26
2009/04/23 10:32:29.2       0   -252     96    253    270 180.0  21.7  34126  288.98 0855.26
2009/04/23 10:32:29.3      63   -233    117    242    268 164.9  27.3  34120  288.90 0855.26
2009/04/23 10:32:29.4     119   -134    172    180    248 138.3  49.0  34124  288.96 0855.26
2009/04/23 10:32:29.5     -31   -221    214    224    309 188.1  49.0  34128  289.03 0855.26
2009/04/23 10:32:29.6     -12   -222     77    223    237 183.1  19.2  34124  288.97 0855.26
2009/04/23 10:32:29.8      38   -209     82    213    228 169.5  22.0  34126  288.99 0855.26
2009/04/23 10:32:29.9      51    -80    118     96    152 147.4  56.4  34132  289.09 0855.26
2009/04/23 10:32:30.0      49    -23    117     55    129 115.4  72.9  34138  289.21 0855.26
2009/04/23 10:32:30.1      86    -92    116    127    172 136.8  47.1  34134  289.14 0855.26
2009/04/23 10:32:30.2      80    -85     70    117    136 136.8  34.0  34136  289.18 0855.26
2009/04/23 10:32:30.3     -26   -111     96    115    149 193.4  43.8  34132  289.11 0855.26
2009/04/23 10:32:30.4       8    -85    114     86    142 174.2  59.4  34134  289.14 0855.26
2009/04/23 10:32:30.5     -35   -116     81    122    146 197.0  36.5  34130  289.08 0855.26
2009/04/23 10:32:30.6     -77   -268     77    279    290 196.0  15.6  34134  289.12 0855.26
2009/04/23 10:32:30.7     -26   -296    175    298    345 185.1  33.1  34140  289.23 0855.26
2009/04/23 10:32:30.8      47   -232     84    237    251 168.5  20.0  34134  289.14 0855.26
2009/04/23 10:32:30.9      94   -202    181    223    287 155.1  43.5  34140  289.22 0855.26
2009/04/23 10:32:31.0     124   -215    211    249    326 150.1  44.7  34140  289.22 0855.26
2009/04/23 10:32:31.1      68   -178    134    191    233 159.1  38.4  34140  289.23 0855.29
2009/04/23 10:32:31.2      19    -94    121     97    155 168.4  56.4  34136  289.16 0855.29
2009/04/23 10:32:31.3      65     -9     76     66    100  97.9  54.3  34132  289.09 0855.29
2009/04/23 10:32:31.4     116     46     32    125    130  68.3  14.7  34134  289.13 0855.29
2009/04/23 10:32:31.5     105     94     54    142    151  48.2  21.5  34132  289.09 0855.29
2009/04/23 10:32:31.6     169     45    -64    176    187  74.9 -25.1  34134  289.14 0855.29
2009/04/23 10:32:31.7      34    -26    -65     43     77 127.8 -69.0  34142  289.28 0855.29
2009/04/23 10:32:31.8      34     83     -6     90     91  22.3  -4.1  34138  289.19 0855.29
2009/04/23 10:32:31.9     -88     18     58     90    107 281.9  35.6  34142  289.26 0855.29
2009/04/23 10:32:32.0    -170    -54     99    179    204 252.3  31.4  34140  289.23 0855.29
2009/04/23 10:32:32.1    -212    -16     10    213    214 265.7   2.9  34140  289.24 0855.29
2009/04/23 10:32:32.2    -182    -79    -39    199    203 246.5 -11.3  34134  289.13 0855.29
2009/04/23 10:32:32.3    -184   -152    -57    239    246 230.5 -13.4  34148  289.36 0855.29
2009/04/23 10:32:32.4    -118   -118     -7    168    169 225.0  -2.6  34150  289.41 0855.29
2009/04/23 10:32:32.5     -76    -31     77     83    113 247.4  48.0  34152  289.45 0855.29
2009/04/23 10:32:32.6     -28    -73     36     79     86 200.9  25.7  34154  289.46 0855.29
2009/04/23 10:32:32.7      52   -204     65    211    221 165.5  17.3  34138  289.21 0855.29
2009/04/23 10:32:32.8     122   -107     80    163    181 131.3  27.8  34134  289.14 0855.29
2009/04/23 10:32:32.9     103     54    112    117    161  62.5  49.0  34142  289.26 0855.29
2009/04/23 10:32:33.0     102     97     87    142    166  46.4  34.4  34142  289.26 0855.29
2009/04/23 10:32:33.1      96     96     -8    136    137  45.1  -3.7  34136  289.16 0855.30
2009/04/23 10:32:33.2     135    -73    -82    154    174 118.4 -34.7  34146  289.33 0855.30
2009/04/23 10:32:33.3      68   -144    165    160    229 154.7  50.7  34142  289.28 0855.30
2009/04/23 10:32:33.4    -146   -225    151    269    308 213.0  31.6  34156  289.49 0855.30
2009/04/23 10:32:33.5    -248    -88     56    264    271 250.5  12.1  34156  289.49 0855.30
2009/04/23 10:32:33.6    -324     24    -87    325    337 274.3 -15.1  34136  289.18 0855.30
2009/04/23 10:32:33.7    -288     96    -90    304    318 288.6 -16.5  34142  289.25 0855.30
2009/04/23 10:32:33.8    -433     90     35    443    445 281.8   4.6  34146  289.33 0855.30
2009/04/23 10:32:33.9    -427     23    -79    428    436 273.2 -10.5  34136  289.16 0855.30
2009/04/23 10:32:34.0    -471     73    -42    477    479 278.8  -5.1  34138  289.20 0855.30
2009/04/23 10:32:34.1    -488    -99    -98    499    509 258.4 -11.1  34144  289.30 0855.30
2009/04/23 10:32:34.2    -446   -243    -83    508    515 241.4  -9.4  34150  289.39 0855.30
2009/04/23 10:32:34.3    -423   -252     20    493    494 239.2   2.4  34154  289.47 0855.30
2009/04/23 10:32:34.4    -339   -114    -16    358    359 251.4  -2.6  34152  289.45 0855.30
2009/04/23 10:32:34.5    -258    -62      3    266    267 256.5   0.7  34144  289.31 0855.30
2009/04/23 10:32:34.6    -523    -76     16    529    530 261.7   1.8  34132  289.09 0855.30
2009/04/23 10:32:34.7    -787   -187   -264    810    852 256.6 -18.1  34124  288.97 0855.30
2009/04/23 10:32:34.8    -766    -61    -83    769    774 265.4  -6.2  34146  289.34 0855.30
2009/04/23 10:32:34.9    -620   -281   -100    681    689 245.6  -8.4  34146  289.32 0855.30
2009/04/23 10:32:35.0    -669   -200   -184    699    723 253.3 -14.8  34142  289.28 0855.30
2009/04/23 10:32:35.1    -675   -231   -183    714    738 251.1 -14.4  34136  289.17 0855.31
2009/04/23 10:32:35.2    -631   -228   -195    672    699 250.1 -21.0  34136  289.16 0855.31
2009/04/23 10:32:35.3    -533   -230   -185    581    609 246.6 -22.8  34138  289.19 0855.31
2009/04/23 10:32:35.4    -563   -235   -182    611    638 247.3 -16.6  34142  289.28 0855.31
2009/04/23 10:32:35.5    -462   -303     28    553    554 236.7   2.9  34158  289.55 0855.31
2009/04/23 10:32:35.6    -282   -287     38    403    405 224.4   5.4  34158  289.55 0855.31
2009/04/23 10:32:35.7       0   -298    259    299    395 180.0  45.5  34152  289.43 0855.31
2009/04/23 10:32:35.8     -73   -409    157    416    444 190.2  21.6  34158  289.53 0855.31
2009/04/23 10:32:35.9    -158   -302    -72    341    349 207.6 -12.0  34158  289.54 0855.31
2009/04/23 10:32:36.0    -346   -608   -258    700    746 209.7 -25.5  34142  289.28 0855.31
2009/04/23 10:32:36.1    -397   -332   -143    518    537 230.1 -20.1  34130  289.07 0855.31
2009/04/23 10:32:36.2    -493   -282   -137    568    585 240.2 -13.6  34152  289.42 0855.31
2009/04/23 10:32:36.3    -347   -461   -121    578    591 217.0 -11.9  34130  289.07 0855.31
2009/04/23 10:32:36.4    -337   -427   -301    544    621 218.3 -35.8  34134  289.14 0855.31
2009/04/23 10:32:36.5    -287   -485   -315    564    646 210.7 -36.0  34132  289.11 0855.31
2009/04/23 10:32:36.6    -452   -587   -247    742    782 217.6 -23.6  34138  289.21 0855.31
2009/04/23 10:32:36.7    -373   -558   -238    672    712 213.8 -24.7  34140  289.23 0855.31
2009/04/23 10:32:36.8    -334   -561   -214    654    688 210.8 -23.3  34130  289.05 0855.31
2009/04/23 10:32:36.9    -111   -497   -117    510    524 192.6 -13.0  34132  289.10 0855.31
2009/04/23 10:32:37.0     -49   -314    150    318    351 188.9  27.1  34142  289.28 0855.31
2009/04/23 10:32:37.1      61   -246    102    254    273 166.0  23.0  34140  289.22 0855.28
2009/04/23 10:32:37.2      57   -343   -111    348    366 170.6 -17.7  34142  289.28 0855.28
2009/04/23 10:32:37.3     121   -399   -167    418    450 163.1 -27.4  34138  289.19 0855.28
2009/04/23 10:32:37.4      77   -404   -173    412    446 169.2 -28.5  34142  289.26 0855.28
2009/04/23 10:32:37.5     -80   -392   -129    401    421 191.6 -23.0  34146  289.34 0855.28
2009/04/23 10:32:37.6     -75   -328   -168    337    376 192.9 -32.9  34142  289.28 0855.28
2009/04/23 10:32:37.7     -24   -346   -145    347    376 184.1 -28.3  34144  289.30 0855.28
2009/04/23 10:32:37.8     164   -377   -198    412    457 156.5 -31.7  34138  289.19 0855.28
2009/04/23 10:32:37.9      86   -330   -182    341    386 165.4 -34.9  34138  289.21 0855.28
2009/04/23 10:32:38.0     -97   -339   -231    353    421 196.1 -40.8  34138  289.21 0855.28
2009/04/23 10:32:38.1    -109   -308   -248    327    410 199.6 -45.3  34138  289.20 0855.28
2009/04/23 10:32:38.2    -106   -478   -182    490    522 192.6 -25.8  34136  289.18 0855.28
2009/04/23 10:32:38.3    -376   -454   -220    590    629 219.6 -25.9  34140  289.23 0855.28
2009/04/23 10:32:38.4    -396   -564   -172    690    712 215.1 -14.0  34152  289.44 0855.28
2009/04/23 10:32:38.5    -278   -468   -143    545    564 210.7 -14.8  34152  289.45 0855.28
2009/04/23 10:32:38.6    -268   -415   -138    495    513 212.9 -20.2  34140  289.23 0855.28
2009/04/23 10:32:38.7    -230   -416   -144    476    497 209.0 -21.8  34146  289.34 0855.28
2009/04/23 10:32:38.8    -145   -433    -54    457    461 198.6  -6.8  34146  289.34 0855.28
2009/04/23 10:32:38.9    -253   -317   -120    406    424 218.6 -16.5  34146  289.33 0855.28
2009/04/23 10:32:39.0    -323   -300   -137    441    461 227.1 -22.3  34152  289.44 0855.28
2009/04/23 10:32:39.1    -309   -294   -135    427    447 226.4 -22.8  34160  289.56 0855.27
2009/04/23 10:32:39.2    -218   -258   -125    339    361 220.2 -25.4  34166  289.69 0855.27
2009/04/23 10:32:39.3    -241   -266   -144    360    387 222.2 -27.4  34150  289.40 0855.27
2009/04/23 10:32:39.4    -200   -174   -212    266    340 228.9 -47.1  34144  289.31 0855.27
2009/04/23 10:32:39.5    -116   -265   -121    290    314 203.7 -28.5  34154  289.46 0855.27
2009/04/23 10:32:39.6       0   -343   -118    344    364 179.9 -19.0  34140  289.23 0855.27
2009/04/23 10:32:39.7      22   -382    -55    383    388 176.6  -8.2  34144  289.30 0855.27
2009/04/23 10:32:39.8     -53   -315      9    320    321 189.7   1.7  34144  289.31 0855.27
2009/04/23 10:32:39.9     -13   -190     64    191    202 184.0  18.6  34150  289.41 0855.27
2009/04/23 10:32:40.0     117   -226     90    255    271 152.6  19.4  34146  289.32 0855.27
2009/04/23 10:32:40.1     147   -265     14    304    305 151.0   2.8  34144  289.31 0855.26
2009/04/23 10:32:40.2     156   -331     18    367    368 154.7   2.9  34146  289.35 0855.26
2009/04/23 10:32:40.3     134   -359     62    384    390 159.4   9.2  34146  289.35 0855.26
2009/04/23 10:32:40.4      95   -297     17    312    313 162.2   3.1  34146  289.32 0855.26
2009/04/23 10:32:40.5     115   -228    127    256    285 153.3  28.2  34142  289.25 0855.26
2009/04/23 10:32:40.6     125   -252    173    282    330 153.5  34.6  34138  289.20 0855.26
2009/04/23 10:32:40.7     214   -242    152    324    357 138.5  27.1  34144  289.30 0855.26
2009/04/23 10:32:40.8     140   -191    151    237    281 143.7  35.6  34144  289.31 0855.26
2009/04/23 10:32:40.9     170   -242    121    296    319 144.9  23.5  34142  289.25 0855.26
2009/04/23 10:32:41.0     176   -185    120    256    282 136.3  27.1  34138  289.20 0855.26
2009/04/23 10:32:41.1     121   -255     99    283    299 154.7  20.0  34140  289.22 0855.26
2009/04/23 10:32:41.2      70   -209    114    221    248 161.3  29.3  34140  289.24 0855.26
2009/04/23 10:32:41.3      41   -189    129    194    232 167.5  36.5  34144  289.30 0855.26
2009/04/23 10:32:41.4      -3   -137    105    138    173 181.4  41.2  34146  289.33 0855.26
2009/04/23 10:32:41.5     -57    -40     96     70    118 234.9  60.5  34146  289.33 0855.26
2009/04/23 10:32:41.6     -84     97     23    129    132 319.0  10.1  34148  289.38 0855.26
2009/04/23 10:32:41.7     -54     20    -45     58     73 290.8 -47.1  34146  289.33 0855.26
2009/04/23 10:32:41.8     -37    -92    -14    100    102 201.8  -8.2  34148  289.36 0855.26
2009/04/23 10:32:41.9     -16   -114     15    116    117 188.0   7.5  34144  289.30 0855.26
2009/04/23 10:32:42.0     -48   -124    -22    134    136 201.4  -9.4  34144  289.31 0855.26
2009/04/23 10:32:42.1     -18    -93    -86     95    128 191.5 -51.3  34150  289.41 0855.27
2009/04/23 10:32:42.2     -96   -151    -62    180    190 212.6 -23.6  34144  289.31 0855.27
2009/04/23 10:32:42.3    -127   -170    -50    213    219 216.7 -13.3  34144  289.30 0855.27
2009/04/23 10:32:42.4      77   -145    -40    165    170 152.1 -13.9  34144  289.30 0855.27
2009/04/23 10:32:42.5     151   -312     92    347    360 154.1  14.9  34148  289.37 0855.27
2009/04/23 10:32:42.6      50   -212    -44    218    223 166.6 -11.5  34140  289.23 0855.27
2009/04/23 10:32:42.7      66   -160      1    174    175 157.7   0.5  34126  289.01 0855.27
2009/04/23 10:32:42.8      12   -191      9    192    193 176.4   2.9  34122  288.92 0855.27
2009/04/23 10:32:42.9       8   -312     28    313    315 178.4   5.2  34128  289.03 0855.27
2009/04/23 10:32:43.0      77   -456      3    463    464 170.4   0.5  34120  288.89 0855.27
2009/04/23 10:32:43.1     118   -441     55    457    461 165.0   6.9  34114  288.78 0855.27
2009/04/23 10:32:43.2     -43   -458    -18    461    462 185.4  -2.3  34122  288.92 0855.27
2009/04/23 10:32:43.3     -52   -443     93    447    457 186.7  11.8  34126  289.00 0855.27
2009/04/23 10:32:43.4      87   -463     61    472    476 169.3   7.5  34138  289.20 0855.27
2009/04/23 10:32:43.5     122   -452     59    469    473 164.9   7.2  34140  289.22 0855.27
2009/04/23 10:32:43.6      63   -448     88    453    462 172.0  11.0  34138  289.19 0855.27
2009/04/23 10:32:43.7     122   -473    -10    489    490 165.5  -1.3  34136  289.15 0855.27
2009/04/23 10:32:43.8     101   -431    -20    443    444 166.8  -2.7  34136  289.17 0855.27
2009/04/23 10:32:43.9     177   -316     34    363    365 150.8   5.5  34138  289.20 0855.27
2009/04/23 10:32:44.0     170   -318     17    361    362 151.9   2.8  34140  289.23 0855.27
2009/04/23 10:32:44.1     144   -392     27    418    419 159.8   3.8  34136  289.16 0855.26
2009/04/23 10:32:44.2       1   -428    134    429    450 179.8  17.4  34138  289.21 0855.26
2009/04/23 10:32:44.3      -6   -452     18    453    454 180.8   2.4  34138  289.21 0855.26
2009/04/23 10:32:44.4     -98   -311     43    327    330 197.6   7.6  34146  289.33 0855.26
2009/04/23 10:32:44.5       7   -411    144    412    436 179.0  20.0  34142  289.26 0855.26
2009/04/23 10:32:44.6      34   -476    209    478    521 175.9  25.1  34140  289.22 0855.26
2009/04/23 10:32:44.7      82   -484    171    491    519 170.3  20.0  34138  289.20 0855.26
2009/04/23 10:32:44.8      52   -483    156    486    511 173.8  17.8  34136  289.18 0855.26
2009/04/23 10:32:44.9      85   -464    228    472    524 169.5  27.7  34138  289.20 0855.26
2009/04/23 10:32:45.0      64   -485    234    490    543 172.4  27.3  34142  289.26 0855.26
2009/04/23 10:32:45.1      97   -460    131    471    489 168.0  15.6  34142  289.25 0855.26
2009/04/23 10:32:45.2      73   -403    176    410    446 169.7  24.9  34140  289.24 0855.26
2009/04/23 10:32:45.3      63   -403    157    408    437 171.1  22.1  34152  289.44 0855.26
2009/04/23 10:32:45.4      22   -373    150    374    402 176.6  23.0  34168  289.72 0855.26
2009/04/23 10:32:45.5     -53   -424    190    428    468 187.2  25.6  34146  289.33 0855.26
2009/04/23 10:32:45.6     -49   -456    229    459    512 186.2  28.6  34156  289.52 0855.26
2009/04/23 10:32:45.7     -32   -539    302    540    618 183.5  31.5  34146  289.32 0855.26
2009/04/23 10:32:45.8     -22   -477    292    478    560 182.7  34.4  34146  289.33 0855.26
2009/04/23 10:32:46.0      29   -343    273    345    439 175.1  42.4  34148  289.36 0855.26
2009/04/23 10:32:46.0       0   -436    155    437    463 180.0  20.3  34144  289.31 0855.26
2009/04/23 10:32:46.1     -31   -367    116    369    387 185.0  17.5  34150  289.40 0855.27
2009/04/23 10:32:46.2      38   -323     70    326    334 173.3  12.1  34148  289.38 0855.27
2009/04/23 10:32:46.3     -23   -335    103    336    352 184.0  17.0  34152  289.45 0855.27
2009/04/23 10:32:46.4     -15   -264    117    265    289 183.4  25.2  34148  289.37 0855.27
2009/04/23 10:32:46.5     -57   -207     93    215    234 195.6  25.1  34154  289.48 0855.27
2009/04/23 10:32:46.6     -17   -182    121    183    219 185.6  36.7  34154  289.48 0855.27
2009/04/23 10:32:46.7    -140   -434    155    457    483 197.9  18.8  34152  289.42 0855.27
2009/04/23 10:32:46.8     -80   -383    165    392    425 191.8  24.2  34150  289.41 0855.27
2009/04/23 10:32:46.9     -15   -497    170    498    527 181.8  18.9  34156  289.49 0855.27
2009/04/23 10:32:47.0     -12   -447    144    448    471 181.6  17.9  34154  289.46 0855.27
2009/04/23 10:32:47.1      35   -453    165    455    483 175.5  20.8  34150  289.40 0855.27
2009/04/23 10:32:47.2      96   -441    164    452    480 167.6  20.8  34146  289.35 0855.27
2009/04/23 10:32:47.3     265   -607    357    663    753 156.4  30.7  34140  289.22 0855.27
2009/04/23 10:32:47.4     107   -783    278    791    839 172.2  19.4  34138  289.21 0855.27
2009/04/23 10:32:47.5     248   -895    327    929    985 164.5  19.4  34134  289.13 0855.27
2009/04/23 10:32:47.6     366   -845    145    921    933 156.6   9.0  34124  288.96 0855.27
2009/04/23 10:32:47.7     286   -746     22    800    801 159.0   1.6  34126  289.00 0855.27
2009/04/23 10:32:47.8     255   -874    164    911    926 163.7  10.2  34110  288.72 0855.27
2009/04/23 10:32:47.9     213   -731    142    762    776 163.7  10.6  34114  288.78 0855.27
2009/04/23 10:32:48.0     309   -768    199    828    852 158.1  13.6  34124  288.97 0855.27
2009/04/23 10:32:48.1     237   -833    173    867    885 164.1  11.3  34126  288.98 0855.26
2009/04/23 10:32:48.2     -33   -832     55    833    835 182.3   3.8  34126  289.01 0855.26
2009/04/23 10:32:48.3      89   -634    201    641    672 172.0  17.4  34120  288.90 0855.26
2009/04/23 10:32:48.4     142   -644    191    660    688 167.5  16.1  34134  289.14 0855.26
2009/04/23 10:32:48.5      34   -789    201    790    816 177.5  14.3  34132  289.11 0855.26
2009/04/23 10:32:48.6     -97   -753    185    760    783 187.4  13.7  34136  289.17 0855.26
2009/04/23 10:32:48.7    -316   -686    106    756    764 204.7   8.0  34144  289.31 0855.26
2009/04/23 10:32:48.8    -349   -571     84    670    676 211.4   7.2  34146  289.32 0855.26
2009/04/23 10:32:48.9    -473   -768   -217    902    928 211.6 -13.6  34132  289.11 0855.26
2009/04/23 10:32:49.0    -488   -653   -258    816    856 216.8 -17.6  34136  289.17 0855.26
2009/04/23 10:32:49.1    -221   -376   -155    437    464 210.4 -19.6  34138  289.19 0855.26
2009/04/23 10:32:49.2    -375   -539   -224    657    694 214.9 -23.8  34136  289.16 0855.26
2009/04/23 10:32:49.3    -295   -356   -122    463    479 219.6 -14.8  34134  289.12 0855.26
2009/04/23 10:32:49.4    -285   -337   -216    442    491 220.3 -32.4  34136  289.18 0855.26
2009/04/23 10:32:49.5     -80   -388   -208    397    448 191.7 -34.2  34122  288.92 0855.26
2009/04/23 10:32:49.6     139   -480   -130    500    517 163.9 -14.6  34124  288.96 0855.26
2009/04/23 10:32:49.7    -191   -177   -163    261    307 227.1 -39.9  34124  288.95 0855.26
2009/04/23 10:32:49.8    -315   -413   -184    520    551 217.4 -24.7  34134  289.14 0855.26
2009/04/23 10:32:49.9    -196   -306   -148    364    392 212.6 -27.8  34120  288.91 0855.26
2009/04/23 10:32:50.0    -197   -193   -132    276    305 225.6 -31.7  34136  289.15 0855.26
2009/04/23 10:32:50.1    -325   -187   -104    375    389 240.1 -20.1  34136  289.15 0855.25
2009/04/23 10:32:50.2    -461   -161   -158    489    513 250.7 -23.0  34134  289.12 0855.25
2009/04/23 10:32:50.3    -217   -175   -188    279    336 231.1 -41.6  34140  289.24 0855.25
2009/04/23 10:32:50.4      48   -342   -135    346    371 172.0 -26.9  34128  289.03 0855.25
2009/04/23 10:32:50.5    -110   -271    -68    293    301 202.1 -13.2  34130  289.05 0855.25
2009/04/23 10:32:50.6    -190   -169    -73    255    266 228.2 -16.0  34142  289.27 0855.25
2009/04/23 10:32:50.7    -183   -151    -80    238    251 230.5 -23.3  34130  289.07 0855.25
2009/04/23 10:32:50.8    -172   -139   -101    222    243 231.1 -30.6  34128  289.03 0855.25
2009/04/23 10:32:50.9    -244   -150   -168    287    332 238.4 -37.4  34122  288.92 0855.25
2009/04/23 10:32:51.0    -252   -308   -143    399    425 219.3 -19.8  34124  288.95 0855.25
2009/04/23 10:32:51.1     -90   -257   -101    273    291 199.4 -25.4  34128  289.03 0855.25
2009/04/23 10:32:51.2     210   -210   -154    297    334 135.0 -33.9  34128  289.02 0855.25
2009/04/23 10:32:51.3     277   -314   -150    420    447 138.6 -19.7  34114  288.80 0855.25
2009/04/23 10:32:51.4     360   -321     45    483    486 131.8   5.4  34120  288.90 0855.25
2009/04/23 10:32:51.5     243   -254    114    352    371 136.2  18.0  34120  288.88 0855.25
2009/04/23 10:32:51.6     244   -235    158    339    374 133.9  27.0  34126  288.98 0855.25
2009/04/23 10:32:51.7     191   -210    122    284    309 137.7  25.1  34120  288.90 0855.25
2009/04/23 10:32:51.8     252   -152    102    295    313 121.1  19.2  34120  288.90 0855.25
2009/04/23 10:32:51.9     247    -74     70    259    269 106.8  15.3  34130  289.05 0855.25
2009/04/23 10:32:52.0      92   -197    -52    218    225 154.8 -13.4  34122  288.92 0855.25
2009/04/23 10:32:52.1     274      3    126    275    302  89.2  26.2  34114  288.80 0855.25
2009/04/23 10:32:52.2     324    106    -44    341    344  71.9  -7.4  34120  288.88 0855.25
2009/04/23 10:32:52.3     217    -60    131    226    261 105.5  32.7  34128  289.02 0855.25
2009/04/23 10:32:52.4     177     -2    330    178    374  90.8  69.3  34124  288.97 0855.25
2009/04/23 10:32:52.5     180    -88    243    201    315 116.0  56.2  34128  289.02 0855.25
2009/04/23 10:32:52.6     -92      0    115     93    147 270.4  56.4  34140  289.24 0855.25
2009/04/23 10:32:52.7    -129   -183    188    224    292 215.2  44.1  34134  289.12 0855.25
2009/04/23 10:32:52.8    -218   -193    104    292    311 228.4  19.6  34128  289.03 0855.25
2009/04/23 10:32:52.9      62    187    -96    198    220  18.5 -31.8  34126  288.99 0855.25
2009/04/23 10:32:53.0     227    141   -189    268    327  58.2 -43.0  34124  288.95 0855.25
2009/04/23 10:32:53.1     194     64    -90    205    223  71.6 -29.5  34124  288.96 0855.25
2009/04/23 10:32:53.2     145     -2    117    146    187  90.8  43.3  34126  288.99 0855.25
2009/04/23 10:32:53.3     -28    -23    141     37    145 230.4  84.9  34136  289.16 0855.25
2009/04/23 10:32:53.4    -275   -111    211    297    364 248.0  39.0  34122  288.94 0855.25
2009/04/23 10:32:53.5    -447   -304    207    541    579 235.8  22.1  34148  289.38 0855.25
2009/04/23 10:32:53.6    -462   -292    -73    547    552 237.7  -7.7  34134  289.13 0855.25
2009/04/23 10:32:53.7    -571   -265      5    630    631 245.1   0.5  34130  289.08 0855.25
2009/04/23 10:32:53.8    -565   -316    -36    648    650 240.8  -3.2  34148  289.38 0855.25
2009/04/23 10:32:53.9    -459   -204    -45    503    506 246.0  -5.2  34134  289.13 0855.25
2009/04/23 10:32:54.0    -626    -50    -96    629    637 265.4  -8.7  34132  289.09 0855.25
2009/04/23 10:32:54.1    -529     -3    -36    530    532 269.6  -3.9  34124  288.97 0855.24
2009/04/23 10:32:54.2    -602   -405    121    726    737 236.1   9.5  34142  289.25 0855.24
2009/04/23 10:32:54.3    -380   -783     57    871    873 205.9   3.8  34136  289.16 0855.24
2009/04/23 10:32:54.4    -441   -686   -155    816    831 212.8 -10.8  34152  289.42 0855.24
2009/04/23 10:32:54.5    -552   -660   -150    861    875 219.9  -9.9  34094  288.47 0855.24
2009/04/23 10:32:54.6    -432   -537    199    690    719 218.8  16.1  34130  289.08 0855.24
2009/04/23 10:32:54.7    -339   -557    292    653    715 211.3  25.8  34130  289.05 0855.24
2009/04/23 10:32:54.8    -249   -345    227    426    482 215.8  30.2  34136  289.17 0855.24
2009/04/23 10:32:54.9    -207   -458    243    503    558 204.3  27.7  34126  289.01 0855.24
2009/04/23 10:32:55.0    -271   -569    141    631    647 205.5  12.6  34130  289.06 0855.24
2009/04/23 10:32:55.1    -257   -634    123    685    697 202.1  10.2  34132  289.09 0855.24
2009/04/23 10:32:55.2     -26   -715     23    716    717 182.1   1.9  34126  289.00 0855.24
2009/04/23 10:32:55.3     107   -708    156    717    734 171.4  12.3  34126  289.00 0855.24
2009/04/23 10:32:55.4      55   -689    289    692    749 175.4  24.1  34130  289.06 0855.24
2009/04/23 10:32:55.5     132   -601    401    616    735 167.6  36.0  34130  289.06 0855.24
2009/04/23 10:32:55.6     330   -538    269    632    686 148.5  24.5  34122  288.92 0855.24
2009/04/23 10:32:55.7     325   -565    214    652    687 150.1  18.2  34118  288.87 0855.24
2009/04/23 10:32:55.8     175   -473     63    505    510 159.7   7.2  34118  288.86 0855.24
2009/04/23 10:32:55.9     447   -554     11    713    714 141.1   0.9  34120  288.88 0855.24
2009/04/23 10:32:56.0     423   -526     54    676    679 141.2   4.6  34122  288.94 0855.24
2009/04/23 10:32:56.1     478   -319    -30    575    576 123.7  -3.0  34130  289.05 0855.23
2009/04/23 10:32:56.2     517   -157     89    541    549 106.9   9.3  34124  288.96 0855.23
2009/04/23 10:32:56.3     364   -127    -73    386    393 109.3 -10.8  34130  289.06 0855.23
2009/04/23 10:32:56.4     252    -92    135    269    300 110.2  29.1  34126  289.00 0855.23
2009/04/23 10:32:56.5     -16   -219    260    220    340 184.4  55.6  34126  289.00 0855.23
2009/04/23 10:32:56.6       7   -433    307    434    531 179.0  38.7  34120  288.91 0855.23
2009/04/23 10:32:56.7     -22   -339    244    340    418 183.7  39.2  34126  288.98 0855.23
2009/04/23 10:32:56.8    -128   -557    169    572    597 193.0  16.5  34120  288.90 0855.23
2009/04/23 10:32:56.9     -66   -464    375    469    600 188.1  42.8  34120  288.91 0855.23
2009/04/23 10:32:57.0     -59   -494    449    498    670 186.9  46.8  34100  288.54 0855.23
2009/04/23 10:32:57.1      -3   -274    312    275    415 180.7  54.2  34130  289.08 0855.23
2009/04/23 10:32:57.2     -20   -318    334    319    461 183.6  51.6  34132  289.11 0855.23
2009/04/23 10:32:57.3      74   -427    372    434    571 170.1  44.9  34124  288.96 0855.23
2009/04/23 10:32:57.4     -94   -498    309    507    593 190.7  34.3  34122  288.94 0855.23
2009/04/23 10:32:57.6    -207   -390    191    442    481 208.0  24.9  34122  288.93 0855.23
2009/04/23 10:32:57.7     120   -326    199    348    400 159.7  32.4  34120  288.91 0855.23
2009/04/23 10:32:57.8     416   -523     -5    669    670 141.5  -0.5  34124  288.97 0855.23
2009/04/23 10:32:57.9     236   -640     27    683    684 159.7   2.3  34132  289.09 0855.23
2009/04/23 10:32:58.0     103   -598    169    607    631 170.2  15.6  34136  289.18 0855.23
2009/04/23 10:32:58.1     192   -500    173    536    564 159.0  17.9  34132  289.11 0855.23
2009/04/23 10:32:58.2      68   -321    201    329    385 168.0  34.4  34130  289.08 0855.23
2009/04/23 10:32:58.3      32   -203    116    206    236 170.9  32.1  34134  289.13 0855.23
2009/04/23 10:32:58.4     -93   -214    169    234    288 203.4  39.5  34132  289.09 0855.23
2009/04/23 10:32:58.5    -269   -394     60    478    482 214.4   7.2  34120  288.88 0855.23
2009/04/23 10:32:58.6      52   -166    317    175    362 162.4  68.8  34130  289.05 0855.23
2009/04/23 10:32:58.7     127   -401    147    421    447 162.3  19.3  34116  288.83 0855.23
2009/04/23 10:32:58.8     167   -233     40    287    290 144.4   8.0  34118  288.87 0855.23
2009/04/23 10:32:58.9      63   -372   -139    378    402 170.3 -25.4  34122  288.94 0855.23
2009/04/23 10:32:59.0     -13   -267   -253    268    368 182.9 -52.6  34114  288.79 0855.23
2009/04/23 10:32:59.1      80   -334   -101    344    358 166.4 -21.2  34118  288.86 0855.23
2009/04/23 10:32:59.2     256   -365    -97    447    458 144.9 -12.3  34104  288.63 0855.23
2009/04/23 10:32:59.3     304   -161    152    345    377 118.0  25.2  34110  288.72 0855.23
2009/04/23 10:32:59.4     107   -146    195    182    266 143.7  52.2  34116  288.81 0855.23
2009/04/23 10:32:59.5      20   -290     85    291    304 176.0  16.4  34120  288.88 0855.23
2009/04/23 10:32:59.6      54   -161    -74    171    186 161.3 -29.3  34116  288.84 0855.23
2009/04/23 10:32:59.7     144     11    -26    145    148  85.6 -10.3  34118  288.87 0855.23
2009/04/23 10:32:59.8     -28    105     70    109    129 344.8  35.6  34116  288.84 0855.23
2009/04/23 10:32:59.9     -32     15     90     36     96 295.3  77.6  34126  289.01 0855.23
2009/04/23 10:33:00.0      95   -128    138    160    211 143.5  45.4  34122  288.94 0855.23
2009/04/23 10:33:00.1     -12   -159    115    160    197 184.5  39.3  34122  288.94 0855.23
2009/04/23 10:33:00.2       4   -275     56    276    282 179.0  11.6  34124  288.95 0855.24
2009/04/23 10:33:00.3    -103   -361    125    376    397 196.0  18.4  34120  288.88 0855.24
2009/04/23 10:33:00.4       0   -413    181    414    451 180.0  25.1  34114  288.80 0855.24
2009/04/23 10:33:00.5     -51   -303    -41    308    311 189.7  -7.7  34110  288.73 0855.24
2009/04/23 10:33:00.6     -53   -426     68    430    436 187.2   9.0  34112  288.77 0855.24
2009/04/23 10:33:00.7    -132   -295    -45    324    328 204.1  -7.9  34098  288.51 0855.24
2009/04/23 10:33:00.8      73   -460     78    466    473 170.9   9.6  34110  288.74 0855.24
2009/04/23 10:33:00.9     109   -606     37    616    618 169.8   3.5  34116  288.84 0855.24
2009/04/23 10:33:01.0     187   -508    146    542    562 159.8  15.1  34110  288.74 0855.24
2009/04/23 10:33:01.1     333   -531    129    627    641 147.9  11.7  34112  288.77 0855.24
2009/04/23 10:33:01.2     357   -556    236    661    703 147.3  19.7  34120  288.90 0855.22
2009/04/23 10:33:01.3     303   -652    175    720    741 155.1  13.7  34114  288.78 0855.22
2009/04/23 10:33:01.4     381   -725     -7    820    821 152.3  -0.5  34106  288.67 0855.22
2009/04/23 10:33:01.5     421   -707    -14    823    824 149.2  -1.0  34112  288.76 0855.22
2009/04/23 10:33:01.6     413   -542     64    682    686 142.7   5.4  34104  288.63 0855.22
2009/04/23 10:33:01.7     300   -525     80    605    611 150.3   7.6  34116  288.81 0855.22
2009/04/23 10:33:01.8     344   -660     27    745    746 152.5   2.1  34104  288.62 0855.22
2009/04/23 10:33:01.9     159   -662    -33    681    682 166.5  -2.8  34112  288.75 0855.22
2009/04/23 10:33:02.0     300   -470   -127    558    573 147.4 -12.9  34112  288.75 0855.22
2009/04/23 10:33:02.1     289   -502   -148    580    599 150.1 -14.4  34108  288.70 0855.22
2009/04/23 10:33:02.2     487   -239     96    543    552 116.2  10.1  34116  288.84 0855.22
2009/04/23 10:33:02.3     257   -508     65    570    574 153.2   6.6  34112  288.76 0855.22
2009/04/23 10:33:02.4      -7   -617    216    618    655 180.7  19.3  34118  288.86 0855.22
2009/04/23 10:33:02.5     135   -557    186    574    604 166.3  18.0  34106  288.66 0855.22
2009/04/23 10:33:02.6     311   -509     77    597    603 148.6   7.4  34108  288.70 0855.22
2009/04/23 10:33:02.7     367   -424    187    561    592 139.1  18.5  34112  288.76 0855.22
2009/04/23 10:33:02.8     245   -361    116    437    453 145.8  14.9  34116  288.82 0855.22
2009/04/23 10:33:02.9     199   -347    133    401    423 150.1  18.4  34116  288.83 0855.22
2009/04/23 10:33:03.0     135   -576     33    592    593 166.7   3.3  34102  288.59 0855.22
2009/04/23 10:33:03.1     120   -326    -10    348    349 159.7  -1.8  34102  288.60 0855.22
2009/04/23 10:33:03.2      69   -637    314    641    713 173.8  28.0  34118  288.85 0855.23
2009/04/23 10:33:03.3      98   -481    171    492    521 168.4  19.2  34116  288.84 0855.23
2009/04/23 10:33:03.4     104   -523     95    534    543 168.7  10.1  34120  288.89 0855.23
2009/04/23 10:33:03.5       5   -359     50    360    364 179.2   8.0  34120  288.91 0855.23
2009/04/23 10:33:03.6     104   -342     37    358    360 163.0   6.0  34120  288.91 0855.23
2009/04/23 10:33:03.7     375   -453    102    589    598 140.4   9.9  34120  288.88 0855.23
2009/04/23 10:33:03.8     447   -502    162    673    693 138.3  13.6  34120  288.88 0855.23
2009/04/23 10:33:03.9     291   -651    -43    714    716 155.9  -3.5  34122  288.93 0855.23
2009/04/23 10:33:04.0     315   -486    -65    580    584 147.0  -6.5  34116  288.83 0855.23
2009/04/23 10:33:04.1     144   -283    -20    318    319 152.9  -3.7  34128  289.02 0855.23
2009/04/23 10:33:04.2     222   -366     70    429    435 148.7   9.3  34134  289.12 0855.23
2009/04/23 10:33:04.3     196   -326    272    381    468 149.0  39.1  34134  289.12 0855.23
2009/04/23 10:33:04.4     177   -229    228    290    368 142.4  42.2  34138  289.20 0855.23
2009/04/23 10:33:04.5     150   -614    235    633    675 166.2  21.4  34138  289.19 0855.23
2009/04/23 10:33:04.6     191   -785     71    808    812 166.3   5.1  34126  288.99 0855.23
2009/04/23 10:33:04.7      18   -601     61    602    606 178.2   5.8  34128  289.03 0855.23
2009/04/23 10:33:04.8     465   -758     54    890    892 148.5   3.5  34130  289.06 0855.23
2009/04/23 10:33:04.9     563   -679    249    883    918 140.3  15.8  34114  288.79 0855.23
2009/04/23 10:33:05.0     599   -587    299    839    890 134.4  20.4  34126  289.01 0855.23
2009/04/23 10:33:05.1     445   -599    121    747    757 143.4   9.2  34130  289.06 0855.23
2009/04/23 10:33:05.2     362   -621    -33    719    720 149.8  -2.7  34130  289.08 0855.23
2009/04/23 10:33:05.3     527   -550    -58    762    764 136.2  -4.4  34132  289.11 0855.23
2009/04/23 10:33:05.4     492   -278    206    566    602 119.4  20.9  34128  289.02 0855.23
2009/04/23 10:33:05.5     466   -666    458    814    934 145.0  32.0  34120  288.88 0855.23
2009/04/23 10:33:05.6     119   -360    401    380    552 161.7  51.8  34116  288.83 0855.23
2009/04/23 10:33:05.7     124   -260    311    289    424 154.4  52.2  34120  288.88 0855.23
2009/04/23 10:33:05.8     143   -419    243    444    506 161.1  31.3  34130  289.08 0855.23
2009/04/23 10:33:05.9      68   -625    248    629    676 173.8  22.8  34124  288.95 0855.23
2009/04/23 10:33:06.0     -75   -569    270    575    635 187.6  27.0  34128  289.04 0855.23
2009/04/23 10:33:06.1     -70   -448    248    454    517 188.9  31.0  34110  288.71 0855.23
2009/04/23 10:33:06.2     -60   -587     -7    591    592 185.9  -0.7  34112  288.76 0855.23
2009/04/23 10:33:06.3      21   -657     86    658    664 178.1   7.5  34114  288.78 0855.23
2009/04/23 10:33:06.4    -131   -755    358    767    846 189.9  26.9  34118  288.87 0855.23
2009/04/23 10:33:06.5    -254   -653    327    701    773 201.3  27.0  34102  288.60 0855.23
2009/04/23 10:33:06.6    -183   -421    297    460    547 203.5  35.9  34110  288.74 0855.23
2009/04/23 10:33:06.7    -140   -434    289    457    540 197.9  35.5  34116  288.81 0855.23
2009/04/23 10:33:06.8    -117   -360    357    379    520 198.1  48.0  34116  288.84 0855.23
2009/04/23 10:33:06.9    -205   -548    195    586    618 200.6  18.4  34112  288.76 0855.23
2009/04/23 10:33:07.0     122   -302    197    327    381 157.9  34.0  34110  288.72 0855.23
2009/04/23 10:33:07.1     -72   -286      9    295    296 194.2   1.8  34110  288.73 0855.23
2009/04/23 10:33:07.2     -10   -140     34    141    146 184.4  13.7  34108  288.69 0855.24
2009/04/23 10:33:07.3       5    -80     28     81     86 176.0  19.4  34114  288.80 0855.24
2009/04/23 10:33:07.4       3    -26     82     27     86 172.0  80.7  34108  288.69 0855.24
2009/04/23 10:33:07.5     187    -38    191    191    270 101.7  50.1  34112  288.76 0855.24
2009/04/23 10:33:07.6      64     -4    120     65    136  94.4  69.3  34112  288.75 0855.24
2009/04/23 10:33:07.7     134   -269    128    301    327 153.5  24.5  34104  288.61 0855.24
2009/04/23 10:33:07.8      86   -264    189    278    336 162.0  37.6  34104  288.61 0855.24
2009/04/23 10:33:07.9     142   -171    123    223    254 140.3  31.3  34108  288.68 0855.24
2009/04/23 10:33:08.0     360   -128    219    383    441 109.6  32.3  34104  288.61 0855.24
2009/04/23 10:33:08.1     315   -142    280    346    445 114.3  43.3  34106  288.67 0855.24
2009/04/23 10:33:08.2     279    -89    238    294    378 107.8  43.3  34106  288.67 0855.24
2009/04/23 10:33:08.3     281   -178    220    333    399 122.4  36.5  34104  288.62 0855.24
2009/04/23 10:33:08.4     274   -226    224    356    420 129.5  35.5  34112  288.77 0855.24
2009/04/23 10:33:08.5     278   -319    272    424    503 138.9  35.6  34100  288.56 0855.24
2009/04/23 10:33:08.6     385   -278    299    476    562 125.9  35.2  34102  288.60 0855.24
2009/04/23 10:33:08.7     401   -245    223    471    521 121.4  27.2  34106  288.66 0855.24
2009/04/23 10:33:08.8     327   -186    222    377    437 119.7  33.4  34102  288.60 0855.24
2009/04/23 10:33:08.9     365   -227    234    430    489 121.9  30.9  34100  288.57 0855.24
2009/04/23 10:33:09.0     207   -241    242    318    399 139.4  41.1  34100  288.54 0855.24
2009/04/23 10:33:09.1     274   -244    280    367    461 131.7  41.3  34096  288.48 0855.24
2009/04/23 10:33:09.2     152   -367    322    398    511 157.5  43.1  34096  288.49 0855.23
2009/04/23 10:33:09.3      47   -205    311    211    375 166.9  62.7  34102  288.59 0855.23
2009/04/23 10:33:09.4     197   -245    320    315    449 141.3  50.4  34100  288.56 0855.23
2009/04/23 10:33:09.5     211   -392    293    446    533 151.7  36.5  34100  288.57 0855.23
2009/04/23 10:33:09.6     111   -452     83    466    474 166.1  10.1  34094  288.44 0855.23
2009/04/23 10:33:09.7     178   -308    179    356    398 150.0  28.7  34090  288.38 0855.23
2009/04/23 10:33:09.8     -57   -360    302    365    473 189.1  43.8  34096  288.48 0855.23
2009/04/23 10:33:09.9     -35   -462    121    464    480 184.4  14.7  34080  288.22 0855.23
2009/04/23 10:33:10.0     -71   -411     89    418    428 189.9  12.1  34090  288.38 0855.23
2009/04/23 10:33:10.1    -197   -497     -6    535    536 201.7  -0.7  34092  288.41 0855.23
2009/04/23 10:33:10.2     -63   -405    -52    411    415 188.9  -7.2  34096  288.50 0855.23
2009/04/23 10:33:10.3      83   -314    -35    325    327 165.1  -6.3  34096  288.49 0855.23
2009/04/23 10:33:10.4      21   -327    -65    328    335 176.2 -11.2  34094  288.45 0855.23
2009/04/23 10:33:10.5     118   -559     37    572    574 168.0   3.8  34088  288.34 0855.23
2009/04/23 10:33:10.6     150   -562     29    582    583 165.0   2.9  34090  288.39 0855.23
2009/04/23 10:33:10.7      67   -443    -88    449    458 171.4 -11.1  34088  288.36 0855.23
2009/04/23 10:33:10.8       8   -344    -50    345    349 178.6  -8.4  34090  288.38 0855.23
2009/04/23 10:33:10.9     -26   -229    -42    231    235 186.7 -10.4  34090  288.39 0855.23
2009/04/23 10:33:11.0     -22   -124    -30    127    131 190.2 -13.4  34090  288.40 0855.23
2009/04/23 10:33:11.1      16   -114     -2    116    117 172.0  -1.3  34092  288.42 0855.23
2009/04/23 10:33:11.2      93   -133     83    163    182 145.0  29.3  34092  288.43 0855.24
2009/04/23 10:33:11.3     148   -130     80    197    212 131.3  23.1  34092  288.42 0855.24
2009/04/23 10:33:11.4     412   -176     25    449    450 113.2   3.2  34092  288.43 0855.24
2009/04/23 10:33:11.5     395   -307    101    501    512 127.9  11.4  34090  288.37 0855.24
2009/04/23 10:33:11.6     381   -250     63    457    462 123.3   7.9  34088  288.36 0855.24
2009/04/23 10:33:11.7     318   -126     62    343    349 111.6  10.3  34096  288.49 0855.24
2009/04/23 10:33:11.8     179   -254    108    311    330 144.8  19.2  34096  288.49 0855.24
2009/04/23 10:33:11.9     143   -181     98    231    250 141.7  24.3  34098  288.53 0855.24
2009/04/23 10:33:12.0     181   -233    152    296    332 142.2  29.3  34096  288.49 0855.24
2009/04/23 10:33:12.1     260   -349    201    436    480 143.3  26.5  34084  288.30 0855.24
2009/04/23 10:33:12.2     196   -612    205    643    675 162.2  17.7  34088  288.36 0855.24
2009/04/23 10:33:12.3     137   -586    155    602    622 166.8  14.5  34086  288.32 0855.24
2009/04/23 10:33:12.4     111   -463     56    477    481 166.5   6.7  34090  288.39 0855.24
2009/04/23 10:33:12.5     294   -294    179    416    452 135.0  24.9  34080  288.23 0855.24
2009/04/23 10:33:12.6     326   -377    195    499    535 139.1  22.5  34086  288.33 0855.24
2009/04/23 10:33:12.7     231   -468    135    522    540 153.7  14.5  34094  288.47 0855.24
2009/04/23 10:33:12.8     230   -584    133    628    643 158.5  12.0  34086  288.33 0855.24
2009/04/23 10:33:12.9     295   -449    -48    538    541 146.6  -5.2  34084  288.28 0855.24
2009/04/23 10:33:13.0     122   -290    -69    315    323 157.2 -12.5  34088  288.36 0855.24
2009/04/23 10:33:13.1      62   -168     -3    180    181 159.5  -1.3  34088  288.35 0855.24
2009/04/23 10:33:13.2      40   -150     83    156    176 164.9  30.3  34094  288.47 0855.23
2009/04/23 10:33:13.3     128   -140     37    190    194 137.5  11.1  34090  288.40 0855.23
2009/04/23 10:33:13.4     357    -86     38    368    371 103.5   6.0  34094  288.44 0855.23
2009/04/23 10:33:13.5     390   -111     97    406    418 105.9  13.5  34092  288.41 0855.23
2009/04/23 10:33:13.6     429   -241    158    493    518 119.3  17.8  34094  288.47 0855.23
2009/04/23 10:33:13.7     350   -253     43    433    436 125.9   5.7  34086  288.33 0855.23
2009/04/23 10:33:13.8     159   -303    228    343    411 152.3  36.6  34086  288.33 0855.23
2009/04/23 10:33:13.9     295    -97    303    311    434 108.2  49.3  34094  288.44 0855.23
2009/04/23 10:33:14.0     269   -344    165    437    467 142.0  21.7  34082  288.26 0855.23
2009/04/23 10:33:14.1     198   -321     88    378    389 148.4  13.1  34084  288.28 0855.23
2009/04/23 10:33:14.2     118   -249   -129    276    304 154.7 -31.5  34090  288.37 0855.23
2009/04/23 10:33:14.3     205   -122    -94    239    256 120.9 -27.2  34096  288.48 0855.23
2009/04/23 10:33:14.4     150   -153    -43    215    220 135.5 -11.5  34094  288.47 0855.23
2009/04/23 10:33:14.5     219   -218     -3    310    311 134.8  -0.7  34094  288.44 0855.23
2009/04/23 10:33:14.6     210   -133    -65    249    258 122.4 -14.7  34092  288.43 0855.23
2009/04/23 10:33:14.7     151   -109   -124    187    224 126.0 -40.9  34092  288.42 0855.23
2009/04/23 10:33:14.8     185    -11    -86    186    204  93.5 -31.4  34096  288.48 0855.23
2009/04/23 10:33:14.9     169    -90    -66    192    204 118.2 -19.1  34092  288.43 0855.23
2009/04/23 10:33:15.0     251   -205     33    325    327 129.3   5.8  34090  288.39 0855.23
2009/04/23 10:33:15.1     168   -130    -64    213    223 127.8 -16.8  34092  288.42 0855.23
2009/04/23 10:33:15.2     395   -302    122    498    513 127.4  13.8  34094  288.47 0855.25
2009/04/23 10:33:15.3     244   -336     97    416    428 144.0  13.1  34092  288.41 0855.25
2009/04/23 10:33:15.4      78   -394    299    402    501 168.8  40.2  34100  288.57 0855.25
2009/04/23 10:33:15.5     -26   -342    204    344    399 184.5  33.5  34094  288.47 0855.25
2009/04/23 10:33:15.6     -16   -260    139    261    295 183.6  30.3  34100  288.56 0855.25
2009/04/23 10:33:15.7      51   -339    120    343    364 171.3  19.3  34094  288.47 0855.25
2009/04/23 10:33:15.8       4   -319      3    320    321 179.2   0.7  34098  288.53 0855.25
2009/04/23 10:33:15.9    -155   -139   -122    209    242 228.2 -37.5  34096  288.48 0855.25
2009/04/23 10:33:16.0      73   -177   -170    192    256 157.5 -50.6  34102  288.58 0855.25
2009/04/23 10:33:16.1      61    -68   -109     92    142 137.7 -60.2  34096  288.50 0855.25
2009/04/23 10:33:16.2     221    -73    -86    233    248 108.4 -25.4  34102  288.59 0855.25
2009/04/23 10:33:16.3     237    -32     51    240    246  97.7  12.1  34096  288.48 0855.25
2009/04/23 10:33:16.4      97    198    151    221    267  26.1  37.6  34098  288.53 0855.25
2009/04/23 10:33:16.5     138    126     89    187    207  47.6  27.2  34102  288.58 0855.25
2009/04/23 10:33:16.6      25    255    -14    257    258   5.8  -3.3  34102  288.59 0855.25
2009/04/23 10:33:16.7      70    234    -20    245    246  16.7  -4.9  34102  288.58 0855.25
2009/04/23 10:33:16.8      65    214     17    224    225  16.9   4.6  34100  288.57 0855.25
2009/04/23 10:33:16.9     117    315     -8    337    338  20.4  -1.4  34110  288.71 0855.25
2009/04/23 10:33:17.0     225   -143    367    267    453 122.5  60.5  34112  288.77 0855.25
2009/04/23 10:33:17.1      55   -194     70    202    214 164.0  19.2  34106  288.65 0855.25
2009/04/23 10:33:17.2     358   -262     51    444    447 126.2   6.6  34102  288.60 0855.26
2009/04/23 10:33:17.3     388   -425   -124    576    590 137.6 -12.2  34104  288.64 0855.26
2009/04/23 10:33:17.4     379   -317   -100    495    505 129.9 -11.5  34100  288.57 0855.26
2009/04/23 10:33:17.5     214   -281    -23    354    355 142.8  -3.8  34104  288.64 0855.26
2009/04/23 10:33:17.6     397   -219    164    454    483 118.9  19.9  34104  288.64 0855.26
2009/04/23 10:33:17.7     438   -243    201    501    539 119.0  23.1  34108  288.69 0855.26
2009/04/23 10:33:17.8     348   -160   -121    384    402 114.7 -22.6  34094  288.45 0855.26
2009/04/23 10:33:17.9     266   -250    -63    366    372 133.2  -9.8  34110  288.71 0855.26
2009/04/23 10:33:18.0     274   -474     51    548    551 150.0   5.3  34098  288.52 0855.26
2009/04/23 10:33:18.1      28   -497    114    498    511 176.8  12.9  34100  288.56 0855.26
2009/04/23 10:33:18.2      90   -436    167    446    476 168.3  21.5  34108  288.68 0855.26
2009/04/23 10:33:18.3     -48   -440     -9    443    444 186.3  -1.3  34106  288.67 0855.26
2009/04/23 10:33:18.4     100   -301   -133    318    344 161.5 -28.5  34106  288.67 0855.26
2009/04/23 10:33:18.5     132   -323    -82    350    360 157.7 -13.3  34106  288.66 0855.26
2009/04/23 10:33:18.6     266   -488     78    556    562 151.4   8.0  34104  288.63 0855.26
2009/04/23 10:33:18.7     407   -538     96    675    682 142.9   8.1  34106  288.66 0855.26
2009/04/23 10:33:18.8     292   -479    143    562    581 148.6  14.3  34104  288.64 0855.26
2009/04/23 10:33:18.9     200   -479    106    520    531 157.3  11.6  34110  288.72 0855.26
2009/04/23 10:33:19.0      59   -469    -35    473    475 172.8  -4.2  34110  288.71 0855.26
2009/04/23 10:33:19.1    -118   -415     26    432    433 195.9   3.5  34102  288.58 0855.26
2009/04/23 10:33:19.2     -15   -432    152    433    458 182.0  20.0  34102  288.60 0855.25
2009/04/23 10:33:19.3       3   -125    263    126    291 178.2  72.8  34104  288.63 0855.25
2009/04/23 10:33:19.4     -69   -241    -59    251    258 196.0 -13.3  34122  288.92 0855.25
2009/04/23 10:33:19.5       9   -596      7    597    598 179.1   0.7  34116  288.83 0855.25
2009/04/23 10:33:19.6     279   -495     90    569    577 150.6   9.0  34114  288.78 0855.25
2009/04/23 10:33:19.7     133   -461   -171    480    509 163.9 -24.8  34118  288.86 0855.25
2009/04/23 10:33:19.8       7   -640   -242    641    685 179.3 -26.1  34120  288.90 0855.25
2009/04/23 10:33:19.9    -123   -555   -230    569    613 192.5 -27.5  34116  288.83 0855.25
2009/04/23 10:33:20.0    -165   -542    -17    567    568 197.0  -1.8  34100  288.57 0855.25
2009/04/23 10:33:20.1     -56   -441    105    445    458 187.3  13.3  34110  288.72 0855.25
2009/04/23 10:33:20.2     -88   -428   -139    438    459 191.7 -22.8  34110  288.73 0855.25
2009/04/23 10:33:20.3    -145   -221   -217    265    342 213.4 -48.1  34128  289.02 0855.25
2009/04/23 10:33:20.4     -25   -243   -322    245    404 186.0 -63.5  34138  289.20 0855.25
2009/04/23 10:33:20.5      53   -310   -310    315    441 170.3 -54.3  34128  289.04 0855.25
2009/04/23 10:33:20.6      -6    -87   -236     88    251 184.5 -83.3  34126  289.01 0855.25
2009/04/23 10:33:20.7     148   -244   -216    286    358 148.8 -45.3  34130  289.08 0855.25
2009/04/23 10:33:20.8     321   -521   -199    613    644 148.4 -23.1  34130  289.08 0855.25
2009/04/23 10:33:20.9     357   -508   -136    622    637 144.9 -12.4  34126  288.98 0855.25
2009/04/23 10:33:21.0     212   -423   -216    474    520 153.4 -30.7  34126  289.00 0855.25
2009/04/23 10:33:21.1     236   -613   -221    657    693 158.9 -23.6  34128  289.02 0855.25
2009/04/23 10:33:21.2     312   -525   -210    611    646 149.3 -24.0  34132  289.09 0855.29
2009/04/23 10:33:21.3     331   -362   -140    491    511 137.6 -15.9  34120  288.88 0855.29
2009/04/23 10:33:21.4     307   -336    -70    456    462 137.6  -8.8  34126  289.00 0855.29
2009/04/23 10:33:21.5     404   -404    -41    572    574 135.0  -4.1  34124  288.95 0855.29
2009/04/23 10:33:21.6     375   -491     59    619    622 142.6   5.5  34130  289.08 0855.29
2009/04/23 10:33:21.7     315   -539     59    625    628 149.7   5.5  34124  288.96 0855.29
2009/04/23 10:33:21.8     320   -557    192    643    672 150.1  16.7  34124  288.97 0855.29
2009/04/23 10:33:21.9     280   -500    215    574    612 150.7  21.5  34122  288.93 0855.29
2009/04/23 10:33:22.0     161   -530    262    555    613 163.1  27.1  34118  288.85 0855.29
2009/04/23 10:33:22.1     153   -561    263    582    638 164.7  25.9  34120  288.91 0855.29
2009/04/23 10:33:22.2     156   -647    322    666    739 166.4  27.7  34120  288.91 0855.31
2009/04/23 10:33:22.3     141   -589    288    606    670 166.5  27.3  34118  288.86 0855.31
2009/04/23 10:33:22.4     132   -567    395    583    704 166.9  37.4  34116  288.82 0855.31
2009/04/23 10:33:22.5     254   -627    371    677    771 157.9  31.3  34120  288.89 0855.31
2009/04/23 10:33:22.6     148   -586    337    605    692 165.8  31.5  34122  288.92 0855.31
2009/04/23 10:33:22.7     145   -655    274    671    724 167.5  23.5  34116  288.81 0855.31
2009/04/23 10:33:22.8      69   -434    192    440    480 170.9  25.1  34120  288.88 0855.31
2009/04/23 10:33:22.9     -91   -341     37    354    356 195.1   6.0  34132  289.11 0855.31
2009/04/23 10:33:23.0    -345   -552   -101    652    660 212.0  -8.8  34126  288.99 0855.31
2009/04/23 10:33:23.1    -215   -206   -200    298    358 226.2 -41.6  34122  288.93 0855.31
2009/04/23 10:33:23.2    -421   -296    100    515    525 234.9  11.0  34126  289.01 0855.31
2009/04/23 10:33:23.3    -143   -199     98    246    264 215.8  23.0  34120  288.88 0855.31
2009/04/23 10:33:23.4     -51   -260    -10    266    267 191.1  -2.2  34124  288.97 0855.31
2009/04/23 10:33:23.5     -47   -557    -24    560    561 184.9  -2.5  34116  288.82 0855.31
2009/04/23 10:33:23.6      15   -396     31    397    399 177.8   4.6  34116  288.82 0855.31
2009/04/23 10:33:23.7    -158   -203     90    258    273 217.9  20.0  34128  289.02 0855.31
2009/04/23 10:33:23.8     -94   -399     -8    410    411 193.3  -1.2  34126  288.99 0855.31
2009/04/23 10:33:23.9      43   -482     78    484    491 174.8   9.2  34124  288.96 0855.31
2009/04/23 10:33:24.0      35   -457     90    459    468 175.5  11.1  34120  288.91 0855.31
2009/04/23 10:33:24.1       9   -532    175    533    561 179.0  18.2  34132  289.11 0855.31
2009/04/23 10:33:24.2      12   -535    139    536    554 178.6  14.6  34134  289.13 0855.25
2009/04/23 10:33:24.3      42   -542     -2    544    545 175.5  -0.3  34124  288.96 0855.25
2009/04/23 10:33:24.4       8   -528     -6    529    530 179.1  -0.7  34120  288.89 0855.25
2009/04/23 10:33:24.5      76   -489    -62    496    500 171.1  -7.2  34118  288.86 0855.25
2009/04/23 10:33:24.6     128   -351    -33    374    376 160.0  -5.2  34120  288.89 0855.25
2009/04/23 10:33:24.8     -21   -347   -112    348    365 183.5 -23.0  34110  288.71 0855.25
2009/04/23 10:33:24.8      81   -499     -4    506    507 170.8  -0.5  34116  288.81 0855.25
2009/04/23 10:33:25.0     146   -403    -77    429    436 160.1 -10.3  34116  288.82 0855.25
2009/04/23 10:33:25.1     190   -486   -167    523    549 158.6 -22.9  34122  288.92 0855.25
2009/04/23 10:33:25.1     363   -495   -189    615    643 143.7 -22.1  34120  288.91 0855.25
2009/04/23 10:33:25.3     391   -438   -174    588    613 138.2 -21.4  34112  288.76 0855.25
2009/04/23 10:33:25.4     346   -374   -152    510    533 137.2 -16.6  34114  288.80 0855.25
2009/04/23 10:33:25.5     434   -329   -150    545    566 127.2 -15.4  34114  288.79 0855.25
2009/04/23 10:33:25.6     301   -341    -91    456    466 138.6 -11.3  34110  288.73 0855.25
2009/04/23 10:33:25.7     331   -476     47    581    584 145.2   4.7  34112  288.76 0855.25
2009/04/23 10:33:25.8     337   -351     72    487    493 136.2   8.5  34114  288.78 0855.25
2009/04/23 10:33:25.9     279   -246    159    373    405 131.4  24.6  34112  288.76 0855.25
2009/04/23 10:33:26.0     100   -327    165    343    380 163.0  27.3  34106  288.66 0855.25
2009/04/23 10:33:26.1     159   -359    199    393    440 156.1  29.1  34110  288.72 0855.25
2009/04/23 10:33:26.2     -29   -413    181    414    451 184.1  25.1  34112  288.77 0855.25
2009/04/23 10:33:26.3      64   -322    163    329    367 168.7  28.4  34116  288.84 0855.18
2009/04/23 10:33:26.4     181   -197    158    268    311 137.5  33.5  34114  288.80 0855.18
2009/04/23 10:33:26.5      19   -259     90    260    276 175.6  19.2  34116  288.83 0855.18
2009/04/23 10:33:26.6     -15   -250    131    251    283 183.5  29.8  34114  288.80 0855.18
2009/04/23 10:33:26.7      11   -264     93    265    280 177.5  20.0  34116  288.81 0855.18
2009/04/23 10:33:26.8     -24   -329     81    330    340 184.3  13.9  34116  288.81 0855.18
2009/04/23 10:33:26.9    -115   -347     86    366    377 198.4  13.3  34110  288.71 0855.18
2009/04/23 10:33:27.0     -63   -264    197    272    335 193.4  39.5  34116  288.81 0855.18
2009/04/23 10:33:27.1       0   -227    287    228    366 179.8  57.7  34118  288.85 0855.18
2009/04/23 10:33:27.2      84   -440    368    449    580 169.1  43.7  34108  288.70 0855.18
2009/04/23 10:33:27.3     312   -377    314    490    581 140.4  35.6  34110  288.74 0855.18
2009/04/23 10:33:27.4     201   -391    317    440    542 152.8  39.5  34116  288.83 0855.18
2009/04/23 10:33:27.5     352   -255    203    435    480 126.0  26.9  34114  288.78 0855.18
2009/04/23 10:33:27.6     316   -277    181    421    458 131.3  24.9  34110  288.72 0855.18
2009/04/23 10:33:27.7     213   -134    220    252    334 122.2  45.6  34112  288.75 0855.18
2009/04/23 10:33:27.8     187   -255    141    317    346 143.7  25.7  34116  288.81 0855.18
2009/04/23 10:33:27.9     151   -274    164    313    353 151.1  29.8  34110  288.74 0855.18
2009/04/23 10:33:28.0      58   -259    -33    266    269 167.3  -7.2  34110  288.71 0855.18
2009/04/23 10:33:28.1     223   -180    120    287    311 128.9  24.1  34112  288.75 0855.18
2009/04/23 10:33:28.2     179   -358    -28    401    402 153.4  -4.1  34110  288.74 0855.18
2009/04/23 10:33:28.3     288   -438    112    525    538 146.6  12.1  34116  288.82 0855.19
2009/04/23 10:33:28.4     242   -462    184    522    554 152.4  19.4  34102  288.58 0855.19
2009/04/23 10:33:28.5     270   -364    109    454    468 143.5  13.6  34112  288.77 0855.19
2009/04/23 10:33:28.6     277   -358     77    453    460 142.3   9.7  34116  288.82 0855.19
2009/04/23 10:33:28.7     277   -314    113    420    436 138.6  15.1  34114  288.80 0855.19
2009/04/23 10:33:28.8     163   -305    126    346    368 151.9  20.9  34116  288.84 0855.19
2009/04/23 10:33:28.9     122   -293    141    318    347 157.3  25.7  34120  288.88 0855.19
2009/04/23 10:33:29.0      89   -187    160    208    262 154.5  41.4  34126  288.98 0855.19
2009/04/23 10:33:29.1      59   -147    121    159    199 158.2  41.4  34118  288.87 0855.19
2009/04/23 10:33:29.2       7   -255     90    256    272 178.2  19.4  34124  288.95 0855.19
2009/04/23 10:33:29.3       0   -191     96    192    214 180.2  28.5  34120  288.91 0855.19
2009/04/23 10:33:29.4       8    -85    108     86    138 174.2  56.9  34124  288.97 0855.19
2009/04/23 10:33:29.5    -198      5   -121    199    232 271.7 -39.2  34140  289.23 0855.19
2009/04/23 10:33:29.6    -121   -147    -25    191    193 219.6  -7.5  34128  289.02 0855.19
2009/04/23 10:33:29.7     -54   -222    -91    229    246 193.8 -27.4  34122  288.93 0855.19
2009/04/23 10:33:29.8     -52   -258   -133    264    295 191.6 -33.1  34132  289.09 0855.19
2009/04/23 10:33:29.9      43   -284    -92    288    302 171.3 -23.0  34128  289.03 0855.19
2009/04/23 10:33:30.0     120   -333   -198    355    406 160.2 -36.0  34140  289.23 0855.19
2009/04/23 10:33:30.1     149   -314   -229    348    416 154.5 -40.9  34140  289.23 0855.19
2009/04/23 10:33:30.2      59   -216   -192    225    295 164.6 -49.2  34146  289.34 0855.19
2009/04/23 10:33:30.3      64   -173   -108    185    214 159.7 -37.8  34132  289.11 0855.21
2009/04/23 10:33:30.4     184   -153   -118    240    267 129.8 -32.6  34136  289.15 0855.21
2009/04/23 10:33:30.5     159    -89    -90    183    203 119.1 -32.6  34136  289.18 0855.21
2009/04/23 10:33:30.6      94    -59    -63    112    128 122.0 -36.3  34134  289.14 0855.21
2009/04/23 10:33:30.7      28   -110     61    114    129 165.3  30.3  34126  288.99 0855.21
2009/04/23 10:33:30.8       0   -117     33    118    123 180.0  15.8  34130  289.08 0855.21
2009/04/23 10:33:30.9     -66    -76     19    101    103 221.0  11.1  34130  289.08 0855.21
2009/04/23 10:33:31.0     -23   -104     58    107    121 192.9  30.8  34130  289.08 0855.21
2009/04/23 10:33:31.1      32    -94    -12    100    101 161.3  -7.3  34130  289.06 0855.21
2009/04/23 10:33:31.2      -4    -86    -38     87     94 182.7 -29.5  34132  289.09 0855.21
2009/04/23 10:33:31.3      -5   -108    -14    109    110 183.1  -7.3  34130  289.08 0855.21
2009/04/23 10:33:31.4     -62   -193    137    203    244 197.8  37.4  34124  288.97 0855.21
2009/04/23 10:33:31.5     -53   -201     98    209    230 194.9  27.1  34134  289.13 0855.21
2009/04/23 10:33:31.6      29   -144     96    147    175 168.5  35.7  34132  289.11 0855.21
2009/04/23 10:33:31.7      25   -127     91    130    158 168.9  38.4  34134  289.14 0855.21
2009/04/23 10:33:31.8      46   -229    114    234    260 168.4  27.8  34126  288.98 0855.21
2009/04/23 10:33:31.9      13   -294    120    295    318 177.3  23.4  34128  289.03 0855.21
2009/04/23 10:33:32.0      23   -291     -1    293    294 175.3  -0.3  34118  288.85 0855.21
2009/04/23 10:33:32.1     172   -395     23    431    432 156.5   3.1  34128  289.02 0855.21
2009/04/23 10:33:32.2     101   -323     16    339    340 162.6   2.8  34126  288.99 0855.21
2009/04/23 10:33:32.3     146   -421    -31    446    448 160.8  -4.0  34130  289.05 0855.22
2009/04/23 10:33:32.4     221   -504    -65    551    555 156.3  -6.8  34132  289.09 0855.22
2009/04/23 10:33:32.5     177   -405    -93    443    453 156.4 -11.9  34128  289.04 0855.22
2009/04/23 10:33:32.6     169   -515     43    543    545 161.8   4.6  34126  289.01 0855.22
2009/04/23 10:33:32.7     321   -561    157    647    666 150.2  13.7  34130  289.07 0855.22
2009/04/23 10:33:32.8     189   -496    -70    532    537 159.1  -7.6  34124  288.97 0855.22
2009/04/23 10:33:32.9     269   -571     -5    632    633 154.8  -0.5  34128  289.04 0855.22
2009/04/23 10:33:33.0     295   -605     38    674    676 154.0   3.2  34128  289.04 0855.22
2009/04/23 10:33:33.1     231   -613    -61    656    660 159.3  -5.3  34122  288.92 0855.22
2009/04/23 10:33:33.2     246   -507    -25    564    565 154.1  -2.6  34122  288.94 0855.22
2009/04/23 10:33:33.3     243   -485    -98    543    552 153.4 -10.3  34128  289.02 0855.22
2009/04/23 10:33:33.4     223   -486    -88    535    543 155.3  -9.3  34124  288.96 0855.22
2009/04/23 10:33:33.5     214   -448   -100    497    507 154.4 -11.5  34126  288.98 0855.22
2009/04/23 10:33:33.6     254   -478    -98    542    551 152.0 -10.3  34126  288.99 0855.22
2009/04/23 10:33:33.7     195   -535   -104    570    580 160.0 -10.4  34134  289.14 0855.22
2009/04/23 10:33:33.8     202   -506    -86    546    553 158.2  -9.0  34124  288.97 0855.22
2009/04/23 10:33:33.9     189   -473    -92    510    519 158.2 -10.3  34130  289.05 0855.22
2009/04/23 10:33:34.0     199   -450    -48    493    496 156.2  -5.6  34128  289.03 0855.22
2009/04/23 10:33:34.1     212   -432    -74    482    488 153.9  -8.8  34128  289.03 0855.22
2009/04/23 10:33:34.2     240   -453    -18    513    514 152.0  -2.1  34128  289.03 0855.22
2009/04/23 10:33:34.3     252   -448    -17    515    516 150.6  -1.9  34128  289.03 0855.21
2009/04/23 10:33:34.4     238   -445     -3    505    506 151.9  -0.4  34126  289.00 0855.21
2009/04/23 10:33:34.5     261   -440      1    512    513 149.3   0.2  34126  289.00 0855.21
2009/04/23 10:33:34.6     275   -378     58    468    472 143.9   7.1  34126  288.98 0855.21
2009/04/23 10:33:34.7     247   -390     23    462    463 147.6   2.9  34126  289.00 0855.21
2009/04/23 10:33:34.8     211   -336     11    397    398 147.9   1.7  34130  289.08 0855.21
2009/04/23 10:33:34.9     211   -337     66    398    404 148.0   9.5  34130  289.08 0855.21
2009/04/23 10:33:35.0      81   -398     47    407    410 168.5   6.7  34130  289.05 0855.21
2009/04/23 10:33:35.1     167   -353    125    391    411 154.7  17.8  34126  289.00 0855.21
2009/04/23 10:33:35.2     195   -338    217    391    447 150.0  31.4  34126  289.00 0855.21
2009/04/23 10:33:35.3     203   -347    203    403    451 149.6  28.9  34126  288.99 0855.21
2009/04/23 10:33:35.4     203   -306    192    368    415 146.4  29.8  34126  288.99 0855.21
2009/04/23 10:33:35.5     306   -326    121    448    465 136.8  15.2  34128  289.04 0855.21
2009/04/23 10:33:35.6     286   -284     87    404    414 134.8  12.2  34128  289.02 0855.21
2009/04/23 10:33:35.7     306   -290    131    422    442 133.5  17.3  34126  289.00 0855.21
2009/04/23 10:33:35.8     167   -318    193    360    408 152.3  30.3  34134  289.13 0855.21
2009/04/23 10:33:35.9     188   -411    116    452    467 155.4  14.4  34136  289.17 0855.21
2009/04/23 10:33:36.0     141   -472     78    493    500 163.4   9.0  34126  288.98 0855.21
2009/04/23 10:33:36.1     217   -425    109    478    491 152.9  12.9  34128  289.03 0855.21
2009/04/23 10:33:36.2      28   -373    225    374    436 175.6  33.7  34130  289.05 0855.21
2009/04/23 10:33:36.3     210   -382    168    436    467 151.2  22.2  34128  289.04 0855.22
2009/04/23 10:33:36.4     200   -358    234    411    472 150.8  32.3  34132  289.11 0855.22
2009/04/23 10:33:36.5     213   -317    204    383    433 146.1  30.3  34128  289.04 0855.22
2009/04/23 10:33:36.6     172   -308    191    353    401 150.8  30.7  34130  289.06 0855.22
2009/04/23 10:33:36.7     188   -325    188    376    420 150.0  28.5  34128  289.02 0855.22
2009/04/23 10:33:36.8     157   -331    220    367    427 154.5  33.8  34130  289.05 0855.22
2009/04/23 10:33:36.9     154   -381    206    412    460 157.9  28.5  34130  289.05 0855.22
2009/04/23 10:33:37.0     134   -399    194    422    464 161.4  26.5  34126  289.00 0855.22
2009/04/23 10:33:37.1     154   -398    167    427    458 158.8  22.5  34130  289.05 0855.22
2009/04/23 10:33:37.2     134   -364    177    389    427 159.7  26.2  34128  289.02 0855.22
2009/04/23 10:33:37.3     102   -340    199    356    407 163.2  31.6  34128  289.04 0855.22
2009/04/23 10:33:37.4      14   -288    232    289    370 177.1  43.0  34134  289.13 0855.22
2009/04/23 10:33:37.5      52   -260    152    266    306 168.5  32.4  34138  289.19 0855.22
2009/04/23 10:33:37.6      20   -266     91    267    283 175.6  18.9  34134  289.12 0855.22
2009/04/23 10:33:37.7      -2   -224     79    225    238 180.7  20.0  34132  289.10 0855.22
2009/04/23 10:33:37.8     -23   -256    124    258    286 185.3  27.3  34132  289.09 0855.22
2009/04/23 10:33:37.9     -57   -280    108    286    305 191.6  21.7  34132  289.09 0855.22
2009/04/23 10:33:38.0     -50   -323    122    328    349 188.9  21.3  34130  289.06 0855.22
2009/04/23 10:33:38.1     -33   -238    183    241    302 188.0  41.2  34134  289.12 0855.22
2009/04/23 10:33:38.2     -46   -268    238    273    362 189.8  45.6  34136  289.16 0855.22
2009/04/23 10:33:38.3    -168   -340    150    380    408 206.4  22.7  34130  289.08 0855.25
2009/04/23 10:33:38.4     -65   -228    192    238    305 196.0  43.5  34130  289.07 0855.25
2009/04/23 10:33:38.5    -111   -251    191    275    334 203.8  38.3  34134  289.14 0855.25
2009/04/23 10:33:38.6     -80   -197    193    213    287 202.1  46.9  34136  289.15 0855.25
2009/04/23 10:33:38.7     -64   -214     91    224    241 196.7  23.1  34138  289.20 0855.25
2009/04/23 10:33:38.8       2   -139    143    140    200 179.1  50.4  34148  289.36 0855.25
2009/04/23 10:33:39.0     -51      6     38     52     64 277.0  39.7  34150  289.41 0855.25
2009/04/23 10:33:39.0    -212     43    148    217    262 281.5  37.6  34144  289.31 0855.25
2009/04/23 10:33:39.1     -15      0     65     16     66 270.0  85.9  34148  289.38 0855.25
2009/04/23 10:33:39.2       7    -21     51     23     55 161.5  74.0  34142  289.28 0855.25
2009/04/23 10:33:39.3       2     32     37     33     49   4.5  53.3  34142  289.26 0855.25
2009/04/23 10:33:39.4     -54     37     62     66     90 304.2  48.5  34150  289.40 0855.25
2009/04/23 10:33:39.5     -22    -68     68     72     99 198.3  48.5  34150  289.41 0855.25
2009/04/23 10:33:39.6     -46    125     34    134    139 339.9  14.3  34144  289.30 0855.25
2009/04/23 10:33:39.7    -104    -28    -32    108    113 254.5 -16.6  34144  289.31 0855.25
2009/04/23 10:33:39.8    -122     58     45    136    144 295.3  18.4  34144  289.30 0855.25
2009/04/23 10:33:39.9    -102     80     35    130    135 308.2  15.2  34144  289.31 0855.25
2009/04/23 10:33:40.0    -107     54    -11    121    122 297.0  -5.2  34154  289.48 0855.25
2009/04/23 10:33:40.1     -23     45    -23     51     55 332.8 -30.6  34150  289.40 0855.25
2009/04/23 10:33:40.2      29    121      6    125    126  13.8   2.8  34142  289.28 0855.22
2009/04/23 10:33:40.3      14     98     24    100    103   8.5  13.7  34142  289.26 0855.22
2009/04/23 10:33:40.4     -51     54     45     75     87 316.8  34.4  34136  289.18 0855.22
2009/04/23 10:33:40.5     -25     -4     -1     26     27 260.3  -2.2  34138  289.21 0855.22
2009/04/23 10:33:40.6       5    -24    -21     25     32 168.4 -48.2  34140  289.23 0855.22
2009/04/23 10:33:40.7     -68     -5    -32     69     76 265.6 -31.5  34142  289.26 0855.22
2009/04/23 10:33:40.8    -102      0      5    103    104 270.0   2.9  34144  289.30 0855.22
2009/04/23 10:33:40.9     -63     80     20    103    106 321.7  11.1  34142  289.28 0855.22
2009/04/23 10:33:41.0     -77    187    -23    203    205 337.5  -6.5  34144  289.30 0855.22
2009/04/23 10:33:41.1     -40    197     24    202    204 348.4   6.9  34148  289.36 0855.22
2009/04/23 10:33:41.2    -111    234     31    260    262 334.6   6.9  34148  289.37 0855.22
2009/04/23 10:33:41.3    -213    257    -43    335    338 320.4  -7.3  34144  289.30 0855.22
2009/04/23 10:33:41.4    -234    212    -28    316    318 312.2  -5.1  34142  289.25 0855.22
2009/04/23 10:33:41.5    -202    100    -45    226    231 296.4 -11.5  34128  289.02 0855.22
2009/04/23 10:33:41.6    -208     53     50    215    221 284.4  13.2  34134  289.13 0855.22
2009/04/23 10:33:41.7     -68   -253    -75    262    272 195.1 -20.7  34138  289.20 0855.22
2009/04/23 10:33:41.8     -84   -275     78    288    299 197.0  15.2  34140  289.24 0855.22
2009/04/23 10:33:41.9     -77   -162    144    180    230 205.4  43.3  34156  289.52 0855.22
2009/04/23 10:33:42.0     -63    -70     99     95    137 221.9  51.6  34158  289.53 0855.22
2009/04/23 10:33:42.1    -221    -37    101    225    246 260.3  25.9  34156  289.49 0855.22
2009/04/23 10:33:42.2    -337    -20     75    338    347 266.6  12.5  34162  289.62 0855.22
2009/04/23 10:33:42.3    -355     39    106    358    374 276.4  16.5  34164  289.65 0855.21
2009/04/23 10:33:42.4    -333     63    121    339    359 280.7  20.4  34178  289.87 0855.21
2009/04/23 10:33:42.5    -383      4    224    384    444 270.7  33.0  34162  289.60 0855.21
2009/04/23 10:33:42.6    -353    -54    176    358    398 261.2  28.2  34158  289.55 0855.21
2009/04/23 10:33:42.7    -310     56    112    316    336 280.4  19.6  34136  289.15 0855.21
2009/04/23 10:33:42.8    -354     18      9    355    356 273.0   1.6  34140  289.23 0855.21
2009/04/23 10:33:42.9    -412    -43    112    415    431 264.0  15.2  34158  289.53 0855.21
2009/04/23 10:33:43.0    -427     40     78    430    438 275.5  10.3  34152  289.44 0855.21
2009/04/23 10:33:43.1    -447     20     63    448    453 272.6   8.1  34150  289.39 0855.21
2009/04/23 10:33:43.2    -409     -7     60    410    415 269.0   8.3  34146  289.33 0855.21
2009/04/23 10:33:43.3    -388    -75     60    396    401 259.0   8.7  34138  289.20 0855.19
2009/04/23 10:33:43.4    -343    -72     70    351    359 258.1  11.3  34154  289.47 0855.19
2009/04/23 10:33:43.5    -297   -158     68    337    344 242.0  11.4  34152  289.42 0855.19
2009/04/23 10:33:43.6    -284    -21    107    285    304 265.6  21.5  34140  289.24 0855.19
2009/04/23 10:33:43.7    -381   -139      5    406    407 250.0   0.8  34132  289.11 0855.19
2009/04/23 10:33:43.8    -353   -166    -42    391    394 244.8  -6.3  34156  289.52 0855.19
2009/04/23 10:33:43.9    -261   -260     18    369    370 225.1   2.8  34138  289.21 0855.19
2009/04/23 10:33:44.0     -45    -39   -108     60    123 228.7 -73.2  34150  289.40 0855.19
2009/04/23 10:33:44.1     -22    -56     66     61     89 201.9  52.2  34148  289.38 0855.19
2009/04/23 10:33:44.2    -233   -219    -43    320    323 226.8  -7.7  34146  289.32 0855.19
2009/04/23 10:33:44.3    -247   -230     -7    338    339 227.1  -1.3  34164  289.64 0855.19
2009/04/23 10:33:44.4    -310   -138     12    340    341 246.0   2.1  34168  289.71 0855.19
2009/04/23 10:33:44.5    -283     25    -57    285    291 275.2 -11.3  34166  289.68 0855.19
2009/04/23 10:33:44.6    -304    -42    -35    308    311 262.0  -6.6  34168  289.71 0855.19
2009/04/23 10:33:44.7    -306    -62    -21    313    314 258.5  -3.9  34174  289.81 0855.19
2009/04/23 10:33:44.8    -265    135   -129    298    324 297.0 -29.4  34140  289.22 0855.19
2009/04/23 10:33:44.9    -224    236    -97    326    340 316.6 -21.5  34136  289.15 0855.19
2009/04/23 10:33:45.0    -248    192    -93    314    327 307.8 -21.4  34144  289.29 0855.19
2009/04/23 10:33:45.1    -183   -100    -73    209    221 241.4 -24.0  34152  289.45 0855.19
2009/04/23 10:33:45.2    -278     -9    -40    279    282 268.1  -8.2  34174  289.81 0855.19
2009/04/23 10:33:45.3    -400    -39    -94    402    413 264.3 -13.3  34168  289.70 0855.19
2009/04/23 10:33:45.4    -461   -143    -52    483    486 252.7  -6.2  34182  289.95 0855.19
2009/04/23 10:33:45.5    -424      2    -37    425    427 270.4  -5.1  34152  289.43 0855.19
2009/04/23 10:33:45.6    -273   -144    110    309    327 242.1  20.3  34164  289.63 0855.19
2009/04/23 10:33:45.7     -13   -281      4    282    283 182.7   0.8  34162  289.61 0855.19
2009/04/23 10:33:45.8    -140   -321    142    351    378 203.6  23.1  34148  289.37 0855.19
2009/04/23 10:33:45.9    -163   -294    122    337    359 209.0  19.9  34136  289.15 0855.19
2009/04/23 10:33:46.0    -215   -360     28    420    421 210.8   3.9  34148  289.36 0855.19
2009/04/23 10:33:46.1    -208   -363     55    419    423 209.8   7.6  34156  289.51 0855.19
2009/04/23 10:33:46.2     -81   -406    -77    415    423 191.3 -10.5  34154  289.48 0855.19
2009/04/23 10:33:46.3     -75   -297     51    307    312 194.2   9.5  34154  289.46 0855.19
2009/04/23 10:33:46.4    -103   -255      4    276    277 202.1   1.0  34146  289.32 0855.19
2009/04/23 10:33:46.5     -36   -287     45    290    294 187.2   9.0  34140  289.24 0855.19
2009/04/23 10:33:46.6     -16   -273    -34    274    277 183.5  -7.2  34138  289.19 0855.19
2009/04/23 10:33:46.7      33    -98    -74    104    127 161.3 -43.9  34120  288.91 0855.19
2009/04/23 10:33:46.8     -53   -148     81    158    177 200.0  29.1  34138  289.19 0855.19
2009/04/23 10:33:46.9     -79   -163     93    182    204 205.9  29.3  34140  289.24 0855.19
2009/04/23 10:33:47.0    -101   -181    100    208    230 209.2  27.3  34146  289.35 0855.19
2009/04/23 10:33:47.1    -113   -176     88    210    227 212.6  24.1  34144  289.30 0855.19
2009/04/23 10:33:47.2    -167   -103     95    197    218 238.2  27.4  34148  289.36 0855.19
2009/04/23 10:33:47.3    -125    -98     18    160    162 231.8   6.7  34148  289.36 0855.17
2009/04/23 10:33:47.4    -243    -35    -32    246    249 261.6  -7.5  34140  289.24 0855.17
2009/04/23 10:33:47.5    -203    -96    -53    225    232 244.5 -13.3  34136  289.16 0855.17
2009/04/23 10:33:47.6    -236   -121      8    266    267 242.7   1.8  34140  289.24 0855.17
2009/04/23 10:33:47.7    -293   -117    -29    316    318 248.2  -5.4  34144  289.29 0855.17
2009/04/23 10:33:47.8    -399    -30   -123    401    419 265.6 -22.1  34124  288.95 0855.17
2009/04/23 10:33:47.9    -221   -178    -52    285    290 231.1 -10.5  34140  289.24 0855.17
2009/04/23 10:33:48.0    -206   -284    -61    352    358 216.0  -9.9  34136  289.16 0855.17
2009/04/23 10:33:48.1    -216   -357    -44    418    421 211.2  -6.1  34138  289.19 0855.17
2009/04/23 10:33:48.2    -228   -352     20    420    421 213.0   2.8  34124  288.95 0855.17
2009/04/23 10:33:48.3    -132   -435    -38    455    457 196.9  -4.9  34132  289.09 0855.17
2009/04/23 10:33:48.4     -32   -401     63    403    408 184.6   8.9  34126  289.00 0855.17
2009/04/23 10:33:48.5    -277   -373    -68    465    470 216.6  -8.4  34112  288.76 0855.17
2009/04/23 10:33:48.6    -214   -386    -64    442    447 209.0  -8.3  34116  288.82 0855.17
2009/04/23 10:33:48.7    -119   -403   -100    421    433 196.5 -13.4  34118  288.85 0855.17
2009/04/23 10:33:48.8    -201   -406    -68    454    460 206.4  -8.6  34120  288.89 0855.17
2009/04/23 10:33:48.9    -185   -448    -18    485    486 202.5  -2.2  34108  288.68 0855.17
2009/04/23 10:33:49.0    -150   -449     55    474    478 198.5   6.7  34116  288.81 0855.17
2009/04/23 10:33:49.1    -123   -372     58    392    397 198.3   8.5  34110  288.71 0855.17
2009/04/23 10:33:49.2      76   -537    132    543    559 171.9  13.7  34108  288.69 0855.17
2009/04/23 10:33:49.3     -20   -515    -11    516    517 182.3  -1.3  34116  288.83 0855.12
2009/04/23 10:33:49.4     -31   -413     28    415    416 184.4   3.9  34116  288.82 0855.12
2009/04/23 10:33:49.5    -146   -485   -114    507    520 196.8 -12.7  34114  288.79 0855.12
2009/04/23 10:33:49.6    -100   -559    156    569    591 190.2  15.4  34126  288.98 0855.12
2009/04/23 10:33:49.7    -112   -415    -31    431    433 195.2  -4.1  34118  288.87 0855.12
2009/04/23 10:33:49.8     -69   -240    -39    250    254 196.0  -9.0  34114  288.78 0855.12
2009/04/23 10:33:49.9      40   -100     29    108    112 158.1  15.3  34118  288.87 0855.12
2009/04/23 10:33:50.0      21   -128      2    130    131 170.3   1.2  34122  288.94 0855.12
2009/04/23 10:33:50.1      30   -179      9    182    183 170.2   2.9  34120  288.89 0855.12
2009/04/23 10:33:50.2     108    -89    -67    141    156 129.5 -31.6  34120  288.91 0855.12
2009/04/23 10:33:50.3      11    -54    -63     56     84 168.4 -57.7  34118  288.86 0855.12
2009/04/23 10:33:50.4      71     43    -41     84     93  58.5 -31.7  34122  288.94 0855.12
2009/04/23 10:33:50.5     149     10     -8    150    151  86.1  -3.1  34124  288.96 0855.12
2009/04/23 10:33:50.6     100     72     65    124    140  54.1  29.8  34116  288.84 0855.12
2009/04/23 10:33:50.7      51     64     90     83    122  38.7  52.2  34122  288.92 0855.12
2009/04/23 10:33:50.8     -27    -43    103     51    114 212.5  72.4  34140  289.24 0855.12
2009/04/23 10:33:50.9     -52    -13    131     54    141 255.8  77.0  34142  289.28 0855.12
2009/04/23 10:33:51.0     -10    -42    156     44    162 194.3  83.9  34134  289.13 0855.12
2009/04/23 10:33:51.1     -47    -93    181    105    209 207.2  67.2  34124  288.97 0855.12
2009/04/23 10:33:51.2    -121   -160    197    201    281 217.2  49.8  34124  288.97 0855.12
2009/04/23 10:33:51.3    -121   -120     86    171    191 225.2  28.5  34124  288.96 0855.12
2009/04/23 10:33:51.4       0    -38    179     39    183 180.9  88.0  34144  289.30 0855.12
2009/04/23 10:33:51.5     -96    148    189    177    258 326.8  52.1  34122  288.93 0855.12
2009/04/23 10:33:51.7     -10     30    202     32    204 341.5  90.0  34132  289.11 0855.12
2009/04/23 10:33:51.7     -96    -21    117     99    153 257.2  55.8  34124  288.97 0855.12
2009/04/23 10:33:51.8    -105    285     75    304    314 339.7  13.9  34120  288.88 0855.12
2009/04/23 10:33:52.0     -57    302    189    308    361 349.3  34.4  34120  288.88 0855.12
2009/04/23 10:33:52.1     -27    221    181    223    287 352.9  43.5  34126  288.98 0855.12
2009/04/23 10:33:52.2     -51    189    145    196    243 344.9  40.1  34120  288.89 0855.12
2009/04/23 10:33:52.3     -77    163    176    181    252 334.5  49.4  34114  288.79 0855.12
2009/04/23 10:33:52.4     -85    223    183    239    301 339.1  41.4  34118  288.85 0855.12
2009/04/23 10:33:52.5    -390   -134     21    413    414 251.0   3.0  34124  288.95 0855.12
2009/04/23 10:33:52.6    -339    -19    -33    340    342 266.8  -5.6  34118  288.86 0855.12
2009/04/23 10:33:52.7    -376    -23    181    377    418 266.4  27.3  34118  288.87 0855.12
2009/04/23 10:33:52.8    -315   -196    206    372    425 238.1  31.4  34124  288.95 0855.12
2009/04/23 10:33:52.9    -338    -13     68    339    346 267.7  11.4  34136  289.15 0855.12
2009/04/23 10:33:53.0    -362     -7    158    363    395 268.8  25.1  34134  289.13 0855.12
2009/04/23 10:33:53.1    -288    143    138    322    350 296.5  24.6  34132  289.10 0855.12
2009/04/23 10:33:53.2    -217    182    153    284    322 310.0  30.7  34124  288.95 0855.12
2009/04/23 10:33:53.3    -264    105    210    285    354 291.7  40.0  34130  289.08 0855.12
2009/04/23 10:33:53.4    -305    196     52    363    367 302.8   8.2  34122  288.94 0855.11
2009/04/23 10:33:53.5    -267    158    165    311    352 300.7  30.2  34144  289.30 0855.11
2009/04/23 10:33:53.6    -301    218    171    372    409 306.0  26.4  34142  289.25 0855.11
2009/04/23 10:33:53.7    -197     52    144    204    249 284.8  38.6  34140  289.24 0855.11
2009/04/23 10:33:53.8      33     28    154     44    160  49.6  83.5  34130  289.08 0855.11
2009/04/23 10:33:53.9       0    144    170    145    223 359.6  55.4  34130  289.06 0855.11
2009/04/23 10:33:54.0     -32     77    192     84    209 337.3  74.9  34136  289.18 0855.11
2009/04/23 10:33:54.1     -82   -139    169    162    234 210.7  51.2  34158  289.55 0855.11
2009/04/23 10:33:54.2    -120   -100    206    157    259 230.4  59.0  34160  289.57 0855.11
2009/04/23 10:33:54.3    -179    -21    213    181    279 263.0  55.4  34152  289.44 0855.11
2009/04/23 10:33:54.4    -198    -69    196    210    287 250.7  47.9  34144  289.29 0855.11
2009/04/23 10:33:54.5    -278    249    131    374    396 311.8  20.0  34138  289.20 0855.11
2009/04/23 10:33:54.6    -330    177     35    375    377 298.3   5.4  34162  289.62 0855.11
2009/04/23 10:33:54.7    -365    217     22    425    426 300.8   3.0  34146  289.34 0855.11
2009/04/23 10:33:54.8    -123    176    236    216    319 325.0  52.9  34148  289.37 0855.11
2009/04/23 10:33:54.9    -203    190     62    279    286 313.1  12.6  34154  289.46 0855.11
2009/04/23 10:33:55.0     -88     92     74    128    147 316.3  32.9  34152  289.43 0855.11
2009/04/23 10:33:55.1    -109    115    -16    159    160 316.7  -6.0  34132  289.11 0855.11
2009/04/23 10:33:55.2    -112    154     94    191    212 323.9  28.0  34126  288.99 0855.11
2009/04/23 10:33:55.3    -189    142    135    237    272 307.1  32.4  34136  289.15 0855.11
2009/04/23 10:33:55.4    -286     52    110    291    311 280.5  21.5  34144  289.31 0855.11
2009/04/23 10:33:55.5    -327   -121     93    349    362 249.6  15.0  34142  289.28 0855.11
2009/04/23 10:33:55.6    -303   -121     79    327    337 248.2  13.6  34132  289.11 0855.11
2009/04/23 10:33:55.7    -211    -11    158    212    264 267.0  40.6  34134  289.14 0855.11
2009/04/23 10:33:55.8    -177   -131    184    221    287 233.6  43.8  34132  289.10 0855.11
2009/04/23 10:33:55.9      42     65    244     78    256  33.4  81.7  34136  289.16 0855.11
2009/04/23 10:33:56.0     -28      4    176     29    178 279.7  90.0  34138  289.21 0855.11
2009/04/23 10:33:56.1     -53    162     71    171    185 341.7  23.6  34126  288.99 0855.11
2009/04/23 10:33:56.2     -69    206     42    218    223 341.5  11.0  34130  289.06 0855.11
2009/04/23 10:33:56.3    -209    203     79    292    303 314.2  15.3  34138  289.19 0855.11
2009/04/23 10:33:56.4    -233     70     47    244    249 286.8  11.0  34130  289.07 0855.11
2009/04/23 10:33:56.5    -258     54    -33    264    267 281.9  -7.2  34134  289.14 0855.11
2009/04/23 10:33:56.6    -281     12    140    282    314 272.6  28.4  34138  289.20 0855.11
2009/04/23 10:33:56.7    -206    -65     98    217    238 252.5  25.9  34136  289.18 0855.11
2009/04/23 10:33:56.8    -132   -157     65    206    217 220.1  17.7  34136  289.16 0855.11
2009/04/23 10:33:56.9    -233   -248     32    341    343 223.3   5.5  34136  289.16 0855.11
2009/04/23 10:33:57.0    -260   -298    127    396    416 221.1  17.8  34130  289.05 0855.11
2009/04/23 10:33:57.1    -273   -304    122    409    428 221.9  16.7  34132  289.11 0855.11
2009/04/23 10:33:57.2    -235   -250     -3    344    345 223.2  -0.6  34148  289.38 0855.11
2009/04/23 10:33:57.3    -348   -183    -20    394    395 242.3  -3.0  34142  289.26 0855.11
2009/04/23 10:33:57.4    -319    -75     74    328    337 256.8  12.8  34164  289.64 0855.06
2009/04/23 10:33:57.5    -353    -36    102    355    370 264.0  16.1  34164  289.65 0855.06
2009/04/23 10:33:57.6    -322    -69    115    330    350 257.8  19.3  34152  289.43 0855.06
2009/04/23 10:33:57.7    -336    -65    125    343    365 259.0  20.9  34166  289.69 0855.06
2009/04/23 10:33:57.8    -295   -162    194    337    388 241.2  32.7  34146  289.32 0855.06
2009/04/23 10:33:57.9    -236   -150    171    280    328 237.6  34.3  34150  289.41 0855.06
2009/04/23 10:33:58.0     -78   -448    182    455    490 189.9  23.0  34134  289.13 0855.06
2009/04/23 10:33:58.1     -47   -438    242    441    503 186.2  31.3  34124  288.95 0855.06
2009/04/23 10:33:58.2     191   -641    277    669    724 163.4  23.9  34110  288.74 0855.06
2009/04/23 10:33:58.3     228   -625    246    666    709 160.0  21.3  34118  288.85 0855.06
2009/04/23 10:33:58.4    -155   -469    378    494    622 198.3  41.3  34122  288.92 0855.06
2009/04/23 10:33:58.5      45   -389    430    392    581 173.3  53.2  34126  288.99 0855.06
2009/04/23 10:33:58.6     224   -286    355    364    508 142.0  49.4  34122  288.93 0855.06
2009/04/23 10:33:58.7      -6   -384    330    385    507 180.9  45.0  34102  288.59 0855.06
2009/04/23 10:33:58.8     -95   -562    127    570    585 189.6  12.6  34116  288.83 0855.06
2009/04/23 10:33:58.9      91   -400    -73    411    418 167.1 -10.1  34114  288.80 0855.06
2009/04/23 10:33:59.0     198   -367    -90    418    428 151.6 -12.2  34112  288.75 0855.06
2009/04/23 10:33:59.1      75   -327   -131    336    360 167.0 -26.8  34112  288.77 0855.06
2009/04/23 10:33:59.2     129   -274    -61    304    311 154.7 -11.5  34114  288.78 0855.06
2009/04/23 10:33:59.3     128   -176     13    218    219 143.9   3.6  34116  288.84 0855.06
2009/04/23 10:33:59.4      85   -110    -49    140    148 142.2 -23.8  34118  288.87 0855.09
2009/04/23 10:33:59.5      96    -78     43    124    132 129.1  19.4  34120  288.91 0855.09
2009/04/23 10:33:59.6      18   -408    353    409    540 177.4  45.2  34106  288.66 0855.09
2009/04/23 10:33:59.7    -177   -376    354    416    546 205.2  44.8  34104  288.61 0855.09
2009/04/23 10:33:59.8       0   -528    411    529    669 180.1  41.7  34110  288.72 0855.09
2009/04/23 10:33:59.9      32   -525    448    526    690 176.5  44.8  34116  288.81 0855.09
2009/04/23 10:34:00.0      93   -385    266    397    477 166.4  37.0  34118  288.87 0855.09
2009/04/23 10:34:00.1      59   -318     91    324    337 169.4  15.8  34112  288.77 0855.09
2009/04/23 10:34:00.2    -134   -415    -42    437    440 197.9  -5.6  34114  288.78 0855.09
2009/04/23 10:34:00.3     -25   -245    -76    247    258 186.0 -22.1  34118  288.87 0855.09
2009/04/23 10:34:00.4      -4   -229     -8    230    231 181.0  -2.1  34116  288.82 0855.09
2009/04/23 10:34:00.5     185   -185    138    263    297 135.0  30.1  34112  288.75 0855.09
2009/04/23 10:34:00.6     223    -92    133    242    276 112.4  31.3  34112  288.76 0855.09
2009/04/23 10:34:00.7     236     13    158    237    284  86.7  37.0  34120  288.88 0855.09
2009/04/23 10:34:00.8     253    -63     19    261    262 104.2   4.2  34122  288.92 0855.09
2009/04/23 10:34:00.9     147      0     70    148    163  90.4  27.2  34116  288.82 0855.09
2009/04/23 10:34:01.0     221    -82    202    236    310 110.4  44.9  34124  288.97 0855.09
2009/04/23 10:34:01.1       0      7    155      8    155 355.5  90.0  34134  289.13 0855.09
2009/04/23 10:34:01.2     119      6    202    120    234  87.0  66.7  34122  288.92 0855.09
2009/04/23 10:34:01.3     125     -9    165    126    207  94.3  58.7  34118  288.87 0855.09
2009/04/23 10:34:01.4     113    -23     66    116    133 101.5  32.9  34120  288.89 0855.10
2009/04/23 10:34:01.5     151   -127    -25    198    200 130.2  -7.2  34118  288.86 0855.10
2009/04/23 10:34:01.6     111   -188    -65    219    228 149.3 -21.7  34118  288.86 0855.10
2009/04/23 10:34:01.7      34   -156    -42    160    166 167.5 -15.0  34116  288.84 0855.10
2009/04/23 10:34:01.8      77   -162      3    180    181 154.6   1.2  34116  288.84 0855.10
2009/04/23 10:34:01.9     148    -98     82    178    195 123.5  26.4  34114  288.80 0855.10
2009/04/23 10:34:02.0      57   -106    174    121    211 151.5  62.4  34124  288.96 0855.10
2009/04/23 10:34:02.1       6    -20    206     21    207 163.1  90.0  34146  289.33 0855.10
2009/04/23 10:34:02.2       0     62    157     63    169 359.1  77.1  34130  289.08 0855.10
2009/04/23 10:34:02.3      29    -53    137     61    149 151.0  74.5  34128  289.02 0855.10
2009/04/23 10:34:02.4     -14    -71     67     73     99 191.6  47.9  34124  288.97 0855.10
2009/04/23 10:34:02.5      22   -113     55    116    128 168.9  27.1  34130  289.06 0855.10
2009/04/23 10:34:02.6      93   -244    -14    262    263 159.1  -3.1  34122  288.93 0855.10
2009/04/23 10:34:02.7      65   -319    -12    326    327 168.3  -2.1  34116  288.81 0855.10
2009/04/23 10:34:02.8      56   -119      4    132    133 154.6   1.8  34116  288.82 0855.10
2009/04/23 10:34:02.9    -109   -147    -57    184    193 216.5 -17.3  34116  288.84 0855.10
2009/04/23 10:34:03.0     -88   -195    -91    214    232 204.3 -28.7  34118  288.86 0855.10
2009/04/23 10:34:03.1     -77   -163    -91    181    202 205.2 -33.5  34110  288.74 0855.10
2009/04/23 10:34:03.2     -66   -120    -44    138    144 209.0 -23.8  34118  288.87 0855.10
2009/04/23 10:34:03.3     -57     75     14     95     97 323.0   8.5  34116  288.84 0855.10
2009/04/23 10:34:03.4     -93    205     -8    226    227 335.5  -2.2  34124  288.96 0855.12
2009/04/23 10:34:03.5     -58    157    -46    168    174 339.7 -20.2  34136  289.18 0855.12
2009/04/23 10:34:03.6     -19     95    144     98    174 348.4  62.8  34140  289.24 0855.12
2009/04/23 10:34:03.7      68     99    156    121    197  34.7  58.4  34130  289.06 0855.12
2009/04/23 10:34:03.8     -29     59    120     66    136 333.7  68.8  34132  289.11 0855.12
2009/04/23 10:34:03.9     -36     61     99     72    122 329.3  60.5  34130  289.08 0855.12
2009/04/23 10:34:04.0     -56     64     18     86     88 318.6  12.2  34124  288.97 0855.12
2009/04/23 10:34:04.1    -146     72    126    163    206 296.4  41.7  34120  288.91 0855.12
2009/04/23 10:34:04.2    -148     90    109    174    205 301.3  35.5  34124  288.96 0855.12
2009/04/23 10:34:04.3     -62   -111    179    128    220 209.0  60.8  34132  289.09 0855.12
2009/04/23 10:34:04.4     -48     50    197     70    209 315.8  79.9  34138  289.21 0855.12
2009/04/23 10:34:04.5     -15     44    176     47    182 341.3  84.9  34136  289.18 0855.12
2009/04/23 10:34:04.6     -15    -49    168     52    175 197.8  81.8  34142  289.26 0855.12
2009/04/23 10:34:04.7      72    -34     79     80    112 115.4  50.5  34136  289.18 0855.12
2009/04/23 10:34:04.8     157     57    145    168    221  69.8  45.4  34126  288.99 0855.12
2009/04/23 10:34:04.9     298    108    159    318    355  70.0  28.5  34134  289.13 0855.12
2009/04/23 10:34:05.0     191    142    148    239    281  53.4  34.8  34134  289.12 0855.12
2009/04/23 10:34:05.1     133    201    149    242    284  33.6  34.5  34138  289.19 0855.12
2009/04/23 10:34:05.2     -72    167    188    183    262 336.6  50.9  34136  289.17 0855.12
2009/04/23 10:34:05.3    -320    118     86    342    353 290.2  14.2  34138  289.20 0855.12
2009/04/23 10:34:05.4    -169    -56    141    179    227 251.6  42.4  34142  289.26 0855.12
2009/04/23 10:34:05.5    -255     42    117    259    284 279.5  26.2  34134  289.12 0855.12
2009/04/23 10:34:05.6    -185   -159    157    244    290 229.3  35.6  34128  289.02 0855.12
2009/04/23 10:34:05.7     -71    -59    166     93    190 230.4  68.5  34134  289.13 0855.12
2009/04/23 10:34:05.8    -226    -24     53    228    235 263.8  13.2  34128  289.04 0855.12
2009/04/23 10:34:05.9    -235   -113    -82    261    274 244.2 -17.6  34122  288.93 0855.12
2009/04/23 10:34:06.0    -200   -105     11    227    228 242.2   2.9  34118  288.86 0855.12
2009/04/23 10:34:06.1    -229   -286    131    367    389 218.6  20.4  34116  288.82 0855.12
2009/04/23 10:34:06.2     -38   -147    142    152    208 194.7  48.0  34132  289.09 0855.12
2009/04/23 10:34:06.3     -45   -172    153    178    234 194.9  45.1  34132  289.11 0855.12
2009/04/23 10:34:06.4     -64    -26    148     70    163 248.2  72.9  34138  289.21 0855.09
2009/04/23 10:34:06.5     -51   -217    214    224    309 193.4  49.0  34116  288.83 0855.09
2009/04/23 10:34:06.6     -65   -195     56    206    214 198.5  15.3  34114  288.79 0855.09
2009/04/23 10:34:06.7     -93   -197     81    219    233 205.3  21.0  34112  288.75 0855.09
2009/04/23 10:34:06.8     -96   -142     94    172    196 214.1  31.0  34110  288.74 0855.09
2009/04/23 10:34:06.9    -369   -296    100    474    485 231.3  12.0  34102  288.59 0855.09
2009/04/23 10:34:07.0    -360   -334    232    492    543 227.2  27.1  34126  288.99 0855.09
2009/04/23 10:34:07.1    -242    -71    137    253    287 253.6  30.8  34118  288.87 0855.09
2009/04/23 10:34:07.2    -215    -81    105    230    252 249.2  26.2  34116  288.81 0855.09
2009/04/23 10:34:07.3    -262    -90     92    278    293 251.0  18.4  34118  288.85 0855.09
2009/04/23 10:34:07.4    -208   -171     92    270    286 230.5  18.9  34122  288.93 0855.09
2009/04/23 10:34:07.5    -137   -194    131    238    271 215.2  31.4  34114  288.78 0855.09
2009/04/23 10:34:07.6    -381    -77     54    389    393 258.5   8.0  34122  288.94 0855.09
2009/04/23 10:34:07.7    -497    -18     -7    498    499 267.9  -0.9  34126  288.98 0855.09
2009/04/23 10:34:07.8    -517    -88   -177    525    554 260.3 -23.7  34132  289.11 0855.09
2009/04/23 10:34:07.9    -343   -121   -206    364    418 250.5 -36.5  34126  289.01 0855.09
2009/04/23 10:34:08.0    -176     13   -199    177    266 274.4 -58.1  34126  289.00 0855.09
2009/04/23 10:34:08.1    -319    -64   -142    326    355 258.6 -29.5  34120  288.91 0855.09
2009/04/23 10:34:08.2    -587    -61   -209    591    626 264.0 -24.7  34134  289.13 0855.09
2009/04/23 10:34:08.3    -476     58   -202    480    520 277.0 -28.6  34124  288.95 0855.09
2009/04/23 10:34:08.4    -324     93   -157    338    372 286.1 -31.3  34116  288.82 0855.10
2009/04/23 10:34:08.5    -169    -44    -63    175    185 255.4 -24.6  34132  289.11 0855.10
2009/04/23 10:34:08.6     -18   -236    -25    237    239 184.5  -6.2  34130  289.07 0855.10
2009/04/23 10:34:08.7     -59   -332   -106    338    354 190.2 -22.4  34130  289.06 0855.10
2009/04/23 10:34:08.8    -192   -263    -84    326    337 216.1 -14.5  34142  289.28 0855.10
2009/04/23 10:34:08.9    -418   -123   -163    436    465 253.6 -25.8  34142  289.26 0855.10
2009/04/23 10:34:09.0    -339   -192   -124    390    409 240.5 -22.8  34124  288.95 0855.10
2009/04/23 10:34:09.1    -260    -44   -102    264    283 260.3 -26.5  34138  289.19 0855.10
2009/04/23 10:34:09.2    -275     85   -111    289    309 287.3 -26.4  34114  288.78 0855.10
2009/04/23 10:34:09.3    -244    125    -84    275    288 297.1 -17.0  34122  288.92 0855.10
2009/04/23 10:34:09.4    -359     38   -144    362    389 276.1 -27.4  34126  288.99 0855.10
2009/04/23 10:34:09.5    -171     52   -183    179    255 287.1 -55.3  34126  288.98 0855.10
2009/04/23 10:34:09.6     -54     39   -101     67    121 305.9 -67.6  34124  288.96 0855.10
2009/04/23 10:34:09.7      11     87   -100     88    133   7.6 -58.6  34128  289.02 0855.10
2009/04/23 10:34:09.8      78     87   -129    117    174  41.9 -57.4  34122  288.94 0855.10
2009/04/23 10:34:09.9     -85     85    -49    121    130 315.1 -27.5  34134  289.14 0855.10
2009/04/23 10:34:10.0    -161    109    -58    195    203 304.2 -21.7  34142  289.26 0855.10
2009/04/23 10:34:10.1     -72    -24   -186     77    201 251.4 -81.0  34152  289.43 0855.10
2009/04/23 10:34:10.2    -235      0   -167    236    289 270.1 -43.0  34152  289.42 0855.10
2009/04/23 10:34:10.3    -282   -107    -90    302    315 249.2 -21.5  34142  289.27 0855.10
2009/04/23 10:34:10.4    -339     25      6    340    341 274.4   1.1  34152  289.42 0855.06
2009/04/23 10:34:10.5    -374    -51    -62    378    384 262.2  -9.3  34132  289.11 0855.06
2009/04/23 10:34:10.6    -495   -127   -174    512    541 255.6 -18.8  34150  289.41 0855.06
2009/04/23 10:34:10.7    -423    -37   -156    425    452 264.9 -25.4  34140  289.24 0855.06
2009/04/23 10:34:10.8    -434    157    -55    462    466 290.0  -6.8  34146  289.35 0855.06
2009/04/23 10:34:10.9    -431     96   -107    442    455 282.7 -13.7  34146  289.34 0855.06
2009/04/23 10:34:11.0    -351     42    -97    354    368 276.9 -15.4  34166  289.67 0855.06
2009/04/23 10:34:11.1    -247     85    -97    262    279 289.0 -25.4  34150  289.39 0855.06
2009/04/23 10:34:11.2    -198     51    -55    205    213 284.6 -15.2  34154  289.46 0855.06
2009/04/23 10:34:11.3    -167     10    -51    168    175 273.7 -22.3  34146  289.33 0855.06
2009/04/23 10:34:11.4    -141    -90      6    168    169 237.6   2.3  34150  289.41 0855.06
2009/04/23 10:34:11.5     -93    -46    177    104    205 243.4  66.8  34156  289.50 0855.06
2009/04/23 10:34:11.6    -214    230    104    315    332 317.1  18.4  34132  289.09 0855.06
2009/04/23 10:34:11.7    -242    175    197    299    358 305.9  36.6  34132  289.11 0855.06
2009/04/23 10:34:11.8    -224    225    146    318    349 315.1  26.5  34136  289.16 0855.06
2009/04/23 10:34:11.9    -282    200    133    347    371 305.4  22.3  34128  289.04 0855.06
2009/04/23 10:34:12.0    -180     90    199    202    283 296.6  49.9  34136  289.15 0855.06
2009/04/23 10:34:12.1    -186    -50    128    193    231 254.9  36.3  34138  289.21 0855.06
2009/04/23 10:34:12.2    -196    -82    140    213    254 247.2  36.5  34138  289.19 0855.06
2009/04/23 10:34:12.3     -79     31    210     86    226 291.7  76.8  34144  289.30 0855.06
2009/04/23 10:34:12.4     -56    121    143    134    195 335.1  52.2  34146  289.35 0855.11
2009/04/23 10:34:12.5     126      7    173    127    214  86.5  60.3  34144  289.31 0855.11
2009/04/23 10:34:12.6     121    116    177    168    244  46.2  51.4  34154  289.46 0855.11
2009/04/23 10:34:12.7      30    212    195    215    290   8.2  46.9  34158  289.54 0855.11
2009/04/23 10:34:12.8     -11    388    207    389    440 358.3  30.3  34200  290.26 0855.11
2009/04/23 10:34:12.9     103    306    155    324    359  18.7  27.3  34188  290.06 0855.11
2009/04/23 10:34:13.0     126    415    157    434    461  16.9  20.8  34212  290.46 0855.11
2009/04/23 10:34:13.1      78    302    164    312    352  14.5  30.0  34194  290.15 0855.11
2009/04/23 10:34:13.2     -33    252    187    255    316 352.4  39.9  34194  290.14 0855.11
2009/04/23 10:34:13.3     -35    324    120    326    347 353.8  21.1  34208  290.38 0855.11
2009/04/23 10:34:13.4     -23    359     78    360    369 356.3  12.3  34182  289.96 0855.11
2009/04/23 10:34:13.5    -444    378     82    584    590 310.4   8.0  34136  289.15 0855.11
2009/04/23 10:34:13.6    -598    328   -130    683    696 298.8 -10.8  34122  288.92 0855.11
2009/04/23 10:34:13.7    -429    301     46    525    528 305.1   5.1  34128  289.02 0855.11
2009/04/23 10:34:13.8    -166    176    244    243    344 316.7  50.0  34180  289.92 0855.11
2009/04/23 10:34:13.9    -126    108    233    167    286 310.7  60.8  34218  290.54 0855.11
2009/04/23 10:34:14.0      12    251    299    252    391   2.9  55.6  34184  289.99 0855.11
2009/04/23 10:34:14.1     283    228    436    364    567  51.1  56.1  34192  290.13 0855.11
2009/04/23 10:34:14.2     211    266    239    340    415  38.5  38.6  34194  290.15 0855.11
2009/04/23 10:34:14.3     -74    323    254    332    418 347.0  41.3  34232  290.81 0855.11
2009/04/23 10:34:14.4     184    290    191    344    393  32.5  31.4  34202  290.27 0855.12
2009/04/23 10:34:14.5     393    175    360    431    561  66.0  44.1  34224  290.67 0855.12
2009/04/23 10:34:14.6     126     89    313    155    349  54.5  71.9  34212  290.46 0855.12
2009/04/23 10:34:14.8     166    -41    298    172    344 103.9  67.5  34200  290.24 0855.12
2009/04/23 10:34:14.8      83    -88    249    121    276 136.7  72.1  34198  290.20 0855.12
2009/04/23 10:34:14.9     338    -30    144    340    369  95.2  24.5  34166  289.69 0855.12
2009/04/23 10:34:15.0     200    108     71    228    239  61.6  17.3  34184  289.97 0855.12
2009/04/23 10:34:15.1      34    212    -61    215    224   9.3 -16.0  34174  289.80 0855.12
2009/04/23 10:34:15.2     -24    117     62    120    135 348.4  29.3  34170  289.75 0855.12
2009/04/23 10:34:15.3    -154     31    -74    158    174 281.4 -31.5  34174  289.80 0855.12
2009/04/23 10:34:15.4     -40    -81    -13     91     92 206.3  -8.2  34174  289.80 0855.12
2009/04/23 10:34:15.5     -44   -100    -67    110    128 204.1 -38.8  34172  289.79 0855.12
2009/04/23 10:34:15.6     233    -26     60    235    243  96.6  14.5  34158  289.53 0855.12
2009/04/23 10:34:15.7     316    -97     75    331    340 107.1  12.8  34164  289.65 0855.12
2009/04/23 10:34:15.8     441   -148   -205    466    509 108.6 -29.6  34158  289.54 0855.12
2009/04/23 10:34:15.9     314     33    287    316    426  83.9  47.0  34130  289.08 0855.12
2009/04/23 10:34:16.0     446    240    528    507    732  61.7  51.4  34120  288.90 0855.12
2009/04/23 10:34:16.1     481    -26    345    482    592  93.2  39.2  34128  289.02 0855.12
2009/04/23 10:34:16.2     445    -29    351    446    567  93.8  42.2  34134  289.13 0855.12
2009/04/23 10:34:16.3     314    176     -3    361    362  60.7  -0.5  34138  289.20 0855.12
2009/04/23 10:34:16.4     402    425    186    586    615  43.4  17.7  34114  288.78 0855.15
2009/04/23 10:34:16.5     330    430    130    543    559  37.5  13.5  34138  289.19 0855.15
2009/04/23 10:34:16.6     571    357    182    674    699  58.0  15.1  34154  289.48 0855.15
2009/04/23 10:34:16.7     505    258    116    568    581  62.9  11.6  34148  289.36 0855.15
2009/04/23 10:34:16.8     348    421    212    547    586  39.6  22.4  34144  289.30 0855.15
2009/04/23 10:34:16.9     397    587     98    709    716  34.1   7.9  34138  289.20 0855.15
2009/04/23 10:34:17.0     373    423    -15    565    566  41.4  -1.6  34142  289.28 0855.15
2009/04/23 10:34:17.1     511    378     52    636    639  53.5   4.7  34138  289.20 0855.15
2009/04/23 10:34:17.2     538    320    119    626    638  59.3  10.8  34146  289.35 0855.15
2009/04/23 10:34:17.3     501    249    134    560    576  63.5  13.5  34150  289.41 0855.15
2009/04/23 10:34:17.5     430    160    156    460    487  69.5  18.8  34150  289.40 0855.15
2009/04/23 10:34:17.5     351    578    288    677    735  31.3  24.5  34222  290.61 0855.15
2009/04/23 10:34:17.7     322    442    161    548    572  36.1  16.4  34192  290.11 0855.15
2009/04/23 10:34:17.8     127    371    301    393    495  19.0  41.2  34184  289.99 0855.15
2009/04/23 10:34:17.8     288    331    290    439    526  41.0  36.5  34166  289.69 0855.15
2009/04/23 10:34:18.0     485    472    216    677    711  45.8  17.7  34182  289.94 0855.15
2009/04/23 10:34:18.1     214    219    197    307    364  44.3  35.6  34162  289.59 0855.15
2009/04/23 10:34:18.2     258    245    199    356    407  46.5  31.6  34192  290.11 0855.15
2009/04/23 10:34:18.3     422    251    174    491    520  59.3  20.4  34186  290.01 0855.15
2009/04/23 10:34:18.4     451    321    100    554    564  54.5  10.2  34172  289.79 0855.15
2009/04/23 10:34:18.5     352    324    233    479    532  47.3  27.8  34176  289.84 0855.18
2009/04/23 10:34:18.6     433    303    276    529    596  55.0  29.8  34208  290.37 0855.18
2009/04/23 10:34:18.7     681    375    208    778    806  61.2  15.0  34192  290.12 0855.18
2009/04/23 10:34:18.8     565    466    157    733    750  50.5  12.2  34198  290.21 0855.18
2009/04/23 10:34:18.9     413    304    109    514    526  53.6  12.0  34180  289.90 0855.18
2009/04/23 10:34:19.0     372    324     99    494    504  48.9  11.3  34188  290.05 0855.18
2009/04/23 10:34:19.1     369    331    135    496    515  48.1  15.3  34198  290.22 0855.18
2009/04/23 10:34:19.2     467    270     -3    540    541  60.0  -0.4  34168  289.70 0855.18
2009/04/23 10:34:19.3     578    358     50    681    683  58.2   4.2  34160  289.56 0855.18
2009/04/23 10:34:19.4     505    345     65    612    616  55.6   6.1  34196  290.18 0855.18
2009/04/23 10:34:19.5     515    460     65    691    695  48.2   5.4  34208  290.38 0855.18
2009/04/23 10:34:19.6     570    355    147    672    689  58.1  12.4  34196  290.17 0855.18
2009/04/23 10:34:19.7     222    208    172    305    350  46.9  32.0  34204  290.32 0855.18
2009/04/23 10:34:19.8     336    239    190    413    454  54.5  26.4  34212  290.46 0855.18
2009/04/23 10:34:19.9     633    211    170    668    690  71.5  14.3  34200  290.24 0855.18
2009/04/23 10:34:20.0     683    327      9    758    759  64.4   0.7  34178  289.89 0855.18
2009/04/23 10:34:20.1     911    339    117    973    981  69.6   6.9  34136  289.18 0855.18
2009/04/23 10:34:20.2     765    380    221    855    884  63.6  14.5  34132  289.10 0855.18
2009/04/23 10:34:20.3     675    350    105    761    769  62.6   7.9  34132  289.09 0855.18
2009/04/23 10:34:20.4     717    294    160    775    792  67.7  11.7  34140  289.22 0855.18
2009/04/23 10:34:20.5     565    236    144    613    630  67.3  13.3  34146  289.35 0855.17
2009/04/23 10:34:20.6     632    308    125    704    716  64.0  10.1  34134  289.13 0855.17
2009/04/23 10:34:20.7     522    240     23    575    576  65.3   2.3  34154  289.47 0855.17
2009/04/23 10:34:20.8     545    300     -2    623    624  61.1  -0.2  34166  289.67 0855.17
2009/04/23 10:34:20.9     713    302    -52    775    777  67.1  -3.9  34184  289.98 0855.17
2009/04/23 10:34:21.0     512    -61    160    516    541  96.9  17.3  34158  289.55 0855.17
2009/04/23 10:34:21.1     336    -74    183    345    390 102.5  30.2  34156  289.52 0855.17
2009/04/23 10:34:21.2     399   -174    146    436    461 113.5  18.6  34170  289.73 0855.17
2009/04/23 10:34:21.3     436    -75     87    443    452  99.8  11.1  34166  289.68 0855.17
2009/04/23 10:34:21.4     277     -8     81    278    290  91.7  16.3  34174  289.81 0855.17
2009/04/23 10:34:21.5     257    -92    116    274    297 109.7  24.2  34166  289.66 0855.17
2009/04/23 10:34:21.6     249    -79    193    262    325 107.7  40.0  34166  289.68 0855.17
2009/04/23 10:34:21.7      55     78    173     96    197  35.6  68.8  34176  289.84 0855.17
2009/04/23 10:34:21.8     217     32    117    220    249  81.4  30.2  34164  289.64 0855.17
2009/04/23 10:34:21.9      60     56    -16     83     85  46.9 -11.3  34164  289.65 0855.17
2009/04/23 10:34:22.0     -56      6    -91     57    107 277.0 -69.1  34166  289.67 0855.17
2009/04/23 10:34:22.1     -41     28    -55     50     74 304.2 -56.6  34152  289.43 0855.17
2009/04/23 10:34:22.2     -95    -83   -104    127    164 228.7 -47.9  34132  289.11 0855.17
2009/04/23 10:34:22.3     -95    -44   -156    105    188 245.2 -67.6  34114  288.79 0855.17
2009/04/23 10:34:22.4    -155   -178   -192    237    305 221.0 -48.1  34116  288.83 0855.17
2009/04/23 10:34:22.5    -153   -205   -182    256    314 216.7 -43.5  34112  288.75 0855.18
2009/04/23 10:34:22.6    -252   -272   -181    371    412 222.8 -32.4  34110  288.71 0855.18
2009/04/23 10:34:22.7    -243   -320   -243    403    470 217.2 -38.4  34112  288.75 0855.18
2009/04/23 10:34:22.8    -196   -285   -216    347    408 214.5 -39.4  34116  288.84 0855.18
2009/04/23 10:34:22.9    -334   -184   -147    382    409 241.2 -26.5  34138  289.21 0855.18
2009/04/23 10:34:23.0    -296   -248   -182    387    427 230.0 -31.5  34124  288.95 0855.18
2009/04/23 10:34:23.1    -455   -201   -140    498    517 246.1 -20.4  34136  289.15 0855.18
2009/04/23 10:34:23.2    -445   -251   -160    511    535 240.6 -22.3  34124  288.97 0855.18
2009/04/23 10:34:23.3    -352   -273   -129    446    464 232.2 -20.9  34118  288.87 0855.18
2009/04/23 10:34:23.4    -347   -265   -130    437    455 232.6 -21.6  34116  288.83 0855.18
2009/04/23 10:34:23.5    -270   -319   -125    419    438 220.3 -16.7  34112  288.77 0855.18
2009/04/23 10:34:23.6    -288   -433   -175    521    550 213.6 -18.6  34116  288.82 0855.18
2009/04/23 10:34:23.7    -356   -357   -102    505    516 224.9 -11.5  34126  289.01 0855.18
2009/04/23 10:34:23.8    -387   -490   -169    625    648 218.3 -15.2  34132  289.11 0855.18
2009/04/23 10:34:23.9    -235   -412   -138    475    495 209.7 -16.2  34136  289.18 0855.18
2009/04/23 10:34:24.0    -156   -451   -137    478    498 199.1 -16.0  34140  289.22 0855.18
2009/04/23 10:34:24.1    -144   -544   -107    563    574 194.9 -10.8  34132  289.10 0855.18
2009/04/23 10:34:24.2    -160   -544    -22    567    568 196.4  -2.3  34132  289.11 0855.18
2009/04/23 10:34:24.3    -103   -428     -8    441    442 193.6  -1.2  34120  288.90 0855.18
2009/04/23 10:34:24.4    -129   -390     95    411    422 198.4  13.1  34134  289.12 0855.18
2009/04/23 10:34:24.5    -219   -427   -172    481    511 207.2 -19.7  34126  289.01 0855.19
2009/04/23 10:34:24.6     -59   -497   -163    501    527 186.9 -18.0  34132  289.10 0855.19
2009/04/23 10:34:24.7     -75   -435   -241    442    503 189.9 -35.4  34118  288.86 0855.19
2009/04/23 10:34:24.8     -39   -396   -116    398    414 185.7 -21.0  34128  289.04 0855.19
2009/04/23 10:34:24.9    -245   -129   -113    277    299 242.2 -27.5  34138  289.19 0855.19
2009/04/23 10:34:25.0    -352   -246    -55    430    434 235.0  -7.3  34140  289.24 0855.19
2009/04/23 10:34:25.1    -304   -240    115    388    405 231.6  16.5  34138  289.20 0855.19
2009/04/23 10:34:25.2    -296   -276    182    405    444 227.0  25.9  34144  289.29 0855.19
2009/04/23 10:34:25.3    -428   -312    -29    531    532 233.9  -3.1  34128  289.04 0855.19
2009/04/23 10:34:25.4    -446   -269    -94    521    530 238.9 -10.3  34130  289.07 0855.19
2009/04/23 10:34:25.5    -325   -449    -95    555    564 216.0  -9.7  34144  289.31 0855.20
2009/04/23 10:34:25.6    -245   -388      5    459    460 212.3   0.7  34134  289.14 0855.20
2009/04/23 10:34:25.7    -281   -268   -164    389    422 226.3 -28.6  34128  289.02 0855.20
2009/04/23 10:34:25.8    -148    -68    164    164    231 245.2  50.1  34136  289.18 0855.20
2009/04/23 10:34:25.9     -81     76    127    112    169 313.1  54.3  34140  289.24 0855.20
2009/04/23 10:34:26.0    -202   -181    -23    272    274 228.2  -4.9  34142  289.25 0855.20
2009/04/23 10:34:26.1    -320   -106   -102    338    354 251.6 -16.8  34142  289.25 0855.20
2009/04/23 10:34:26.2    -188   -131   -113    230    256 235.1 -32.4  34132  289.10 0855.20
2009/04/23 10:34:26.3    -214    -33   -147    217    262 261.2 -41.8  34136  289.15 0855.20
2009/04/23 10:34:26.4    -137    233    111    271    292 329.5  23.1  34140  289.24 0855.20
2009/04/23 10:34:26.5    -175    274     78    326    336 327.4  13.6  34136  289.16 0855.20
2009/04/23 10:34:26.6    -233    171    -13    290    291 306.2  -2.6  34134  289.12 0855.20
2009/04/23 10:34:26.7    -255    137     36    290    293 298.2   7.1  34136  289.15 0855.20
2009/04/23 10:34:26.8    -280     16     17    281    282 273.3   3.6  34146  289.34 0855.20
2009/04/23 10:34:26.9    -243   -270    119    364    384 222.1  18.1  34158  289.55 0855.20
2009/04/23 10:34:27.0    -213   -261    -49    338    342 219.2  -8.4  34160  289.57 0855.20
2009/04/23 10:34:27.1    -293   -291      5    414    415 225.2   0.8  34164  289.65 0855.20
2009/04/23 10:34:27.2    -248   -248     17    352    353 225.0   2.8  34164  289.65 0855.20
2009/04/23 10:34:27.3    -280    -98     86    297    310 250.7  16.3  34172  289.76 0855.20
2009/04/23 10:34:27.4    -268    -21      7    269    270 265.4   1.6  34178  289.86 0855.20
2009/04/23 10:34:27.5    -141    -78     57    162    172 241.2  19.6  34180  289.91 0855.23
2009/04/23 10:34:27.6    -269    -25     28    271    273 264.7   6.0  34162  289.59 0855.23
2009/04/23 10:34:27.7    -241    -80    -84    254    268 251.6 -18.3  34162  289.61 0855.23
2009/04/23 10:34:27.8    -192   -153   -102    246    266 231.4 -28.2  34152  289.44 0855.23
2009/04/23 10:34:27.9     -38   -224    -69    228    239 189.7 -16.8  34144  289.31 0855.23
2009/04/23 10:34:28.0     -89   -234    -78    251    263 200.9 -17.3  34138  289.19 0855.23
2009/04/23 10:34:28.1    -138   -229    -36    268    271 211.2  -7.7  34136  289.15 0855.23
2009/04/23 10:34:28.2     -81   -183     64    201    211 203.8  17.7  34138  289.19 0855.23
2009/04/23 10:34:28.3     -51   -222     40    228    232 193.1  10.0  34138  289.19 0855.23
2009/04/23 10:34:28.4      17   -219     -4    220    221 175.5  -1.1  34134  289.13 0855.23
2009/04/23 10:34:28.5     -92   -240     44    258    262 200.9   9.9  34136  289.17 0855.23
2009/04/23 10:34:28.6     -69   -233     87    244    260 196.5  19.6  34138  289.20 0855.23
2009/04/23 10:34:28.7     -17   -373     44    374    377 182.7   6.8  34142  289.28 0855.23
2009/04/23 10:34:28.8    -132   -391    -44    413    416 198.7  -6.1  34146  289.33 0855.23
2009/04/23 10:34:28.9     -58   -371     19    376    377 188.9   2.9  34138  289.21 0855.23
2009/04/23 10:34:29.0     -99   -317     33    333    335 197.3   5.8  34142  289.25 0855.23
2009/04/23 10:34:29.1      -4   -238    137    239    275 181.1  32.4  34138  289.20 0855.23
2009/04/23 10:34:29.2      32   -182    147    185    236 170.0  42.7  34140  289.24 0855.23
2009/04/23 10:34:29.3      53   -265    211    271    343 168.5  42.0  34136  289.15 0855.23
2009/04/23 10:34:29.4     -11   -306    223    307    379 182.2  39.5  34136  289.18 0855.23
2009/04/23 10:34:29.5      15   -196    242    197    312 175.5  56.4  34142  289.27 0855.26
2009/04/23 10:34:29.6      55   -291    298    297    420 169.3  50.0  34146  289.33 0855.26
2009/04/23 10:34:29.7      65   -188    221    200    298 160.8  53.2  34144  289.29 0855.26
2009/04/23 10:34:29.8     233   -215    229    318    391 132.7  39.5  34138  289.20 0855.26
2009/04/23 10:34:29.9     246   -106    233    268    355 113.3  45.6  34136  289.16 0855.26
2009/04/23 10:34:30.0     214    -89    234    232    329 112.6  50.0  34136  289.17 0855.26
2009/04/23 10:34:30.1     210   -122    215    243    324 120.2  46.1  34140  289.24 0855.26
2009/04/23 10:34:30.2     302   -166    190    345    393 118.9  31.3  34140  289.23 0855.26
2009/04/23 10:34:30.3     200    -98    126    223    256 116.2  31.9  34142  289.27 0855.26
2009/04/23 10:34:30.4     265   -209     51    338    342 128.3   8.7  34140  289.23 0855.26
2009/04/23 10:34:30.5     169   -318     77    361    370 152.0  12.2  34136  289.16 0855.26
2009/04/23 10:34:30.6     132   -306    163    334    371 156.7  27.9  34136  289.18 0855.26
2009/04/23 10:34:30.7      71   -261    158    271    313 164.8  32.8  34138  289.19 0855.26
2009/04/23 10:34:30.8     218   -265    188    344    392 140.5  31.0  34142  289.26 0855.26
2009/04/23 10:34:30.9     220   -278    179    355    397 141.6  28.9  34136  289.18 0855.26
2009/04/23 10:34:31.0     148   -258    189    298    352 150.1  35.5  34136  289.16 0855.26
2009/04/23 10:34:31.1     216   -349    206    411    459 148.3  28.6  34134  289.12 0855.26
2009/04/23 10:34:31.2     165   -327    185    367    410 153.2  28.9  34132  289.10 0855.26
2009/04/23 10:34:31.3     120   -308    244    331    411 158.7  40.0  34142  289.25 0855.26
2009/04/23 10:34:31.4      52   -265    149    271    309 168.9  31.3  34142  289.25 0855.26
2009/04/23 10:34:31.5     -13   -188     51    189    196 184.0  15.3  34140  289.24 0855.27
2009/04/23 10:34:31.6     -76   -156     45    174    180 206.1  14.5  34136  289.18 0855.27
2009/04/23 10:34:31.7    -101   -247    168    267    315 202.3  35.1  34142  289.27 0855.27
2009/04/23 10:34:31.8    -198   -251     95    320    334 218.3  16.6  34156  289.50 0855.27
2009/04/23 10:34:31.9    -240   -146     35    281    284 238.7   7.1  34152  289.42 0855.27
2009/04/23 10:34:32.0    -215   -186    101    285    303 229.1  19.6  34144  289.29 0855.27
2009/04/23 10:34:32.1    -235   -220    -40    322    325 226.9  -7.2  34152  289.42 0855.27
2009/04/23 10:34:32.2      64    -46    118     79    142 125.9  63.2  34158  289.53 0855.27
2009/04/23 10:34:32.3     -16    -47     88     50    101 198.7  68.3  34160  289.58 0855.27
2009/04/23 10:34:32.4     -49     24     80     55     97 296.2  62.6  34164  289.63 0855.27
2009/04/23 10:34:32.5     -45    -43     93     63    112 226.9  62.6  34158  289.55 0855.27
2009/04/23 10:34:32.6    -112    -80     61    138    150 234.5  25.2  34150  289.40 0855.27
2009/04/23 10:34:32.7      -2   -173    203    174    267 180.9  55.3  34146  289.34 0855.27
2009/04/23 10:34:32.8      16   -114    238    116    264 172.0  72.4  34156  289.50 0855.27
2009/04/23 10:34:32.9     -26   -141    129    144    193 190.7  46.6  34146  289.35 0855.27
2009/04/23 10:34:33.0      37    -50    118     63    133 143.0  69.8  34164  289.63 0855.27
2009/04/23 10:34:33.1      59    -35    105     69    125 120.7  64.1  34170  289.75 0855.27
2009/04/23 10:34:33.2     -43    -79    164     91    187 208.5  68.8  34158  289.53 0855.27
2009/04/23 10:34:33.3      12    -63    100     65    119 169.3  64.1  34158  289.55 0855.27
2009/04/23 10:34:33.4       4    -57    108     58    122 175.6  69.3  34156  289.50 0855.27
2009/04/23 10:34:33.5       0    -44    108     45    117 180.9  77.0  34164  289.63 0855.25
2009/04/23 10:34:33.6     -67    -49     84     84    118 234.0  50.1  34156  289.50 0855.25
2009/04/23 10:34:33.7     -85      0     47     86     98 270.0  30.8  34158  289.53 0855.25
2009/04/23 10:34:33.8     -58     23     42     63     75 291.7  35.6  34160  289.58 0855.25
2009/04/23 10:34:33.9      -1     24     20     25     32 357.3  43.7  34158  289.53 0855.25
2009/04/23 10:34:34.0     -38     43     37     58     68 318.6  35.5  34158  289.53 0855.25
2009/04/23 10:34:34.1     -12     51     35     53     63 346.6  36.5  34158  289.55 0855.25
2009/04/23 10:34:34.2     -13     23     40     27     48 329.3  63.6  34162  289.60 0855.25
2009/04/23 10:34:34.3     -63     45     40     78     87 305.9  29.3  34166  289.69 0855.25
2009/04/23 10:34:34.4    -130     10     84    131    155 274.4  35.6  34172  289.77 0855.25
2009/04/23 10:34:34.5    -132     48     93    141    168 290.0  36.5  34170  289.75 0855.25
2009/04/23 10:34:34.6    -134     14     98    135    166 276.2  39.9  34174  289.82 0855.25
2009/04/23 10:34:34.7    -130     26     48    133    141 281.5  20.9  34178  289.89 0855.25
2009/04/23 10:34:34.8     -99     39     17    107    109 291.8   9.0  34182  289.96 0855.25
2009/04/23 10:34:34.9    -103     72     99    126    160 305.1  42.2  34176  289.84 0855.25
2009/04/23 10:34:35.0     -70     70    116    100    153 315.0  54.8  34180  289.91 0855.25
2009/04/23 10:34:35.1     -76    128     62    150    162 329.2  23.6  34182  289.94 0855.25
2009/04/23 10:34:35.2      20     42    129     47    137  26.3  79.2  34192  290.13 0855.25
2009/04/23 10:34:35.3      11     11     97     16     98  45.0  90.0  34194  290.14 0855.25
2009/04/23 10:34:35.4       3    -45    120     46    128 175.5  78.2  34182  289.96 0855.25
2009/04/23 10:34:35.5     -62    -93    150    112    187 213.8  59.8  34160  289.57 0855.24
2009/04/23 10:34:35.6     -97   -117     95    153    180 219.6  35.0  34148  289.36 0855.24
2009/04/23 10:34:35.7     -61    -84     93    104    139 216.1  46.9  34150  289.41 0855.24
2009/04/23 10:34:35.8      -3    -84    122     85    148 182.2  62.1  34156  289.52 0855.24
2009/04/23 10:34:35.9     -20    -73    113     76    136 196.0  63.2  34156  289.52 0855.24
2009/04/23 10:34:36.0     -13    -64     88     66    110 191.6  59.4  34154  289.48 0855.24
2009/04/23 10:34:36.1     -42    -80    100     91    135 208.1  52.7  34156  289.52 0855.24
2009/04/23 10:34:36.2    -108    -69     44    129    137 237.5  18.9  34152  289.45 0855.24
2009/04/23 10:34:36.4      -8    -12     32     15     35 212.5  72.9  34152  289.45 0855.24
2009/04/23 10:34:36.5      69     -4     65     70     95  93.5  47.9  34162  289.62 0855.24
2009/04/23 10:34:36.5       3   -104     52    105    117 178.2  27.8  34148  289.38 0855.24
2009/04/23 10:34:36.6      10   -137     53    138    147 175.5  22.0  34146  289.33 0855.24
2009/04/23 10:34:36.7      27   -184    182    187    260 171.5  49.4  34148  289.37 0855.24
2009/04/23 10:34:36.8      16   -132    136    134    190 172.9  50.1  34150  289.41 0855.24
2009/04/23 10:34:36.9      10   -105    178    106    207 174.2  66.7  34156  289.50 0855.24
2009/04/23 10:34:37.0     -42    -70    156     82    176 211.2  70.0  34158  289.53 0855.24
2009/04/23 10:34:37.1      -1   -117    106    118    158 180.9  46.9  34152  289.43 0855.24
2009/04/23 10:34:37.2      35   -134     95    139    168 165.3  37.6  34148  289.36 0855.24
2009/04/23 10:34:37.3      87   -143    110    168    200 148.6  36.5  34144  289.31 0855.24
2009/04/23 10:34:37.4     105   -126    111    165    198 140.1  37.4  34142  289.28 0855.24
2009/04/23 10:34:37.5      -2    -83     84     84    118 181.8  50.1  34144  289.31 0855.22
2009/04/23 10:34:37.6      10    -54     98     55    112 169.3  68.8  34148  289.38 0855.22
2009/04/23 10:34:37.7      11   -107     67    108    127 173.8  35.5  34142  289.28 0855.22
2009/04/23 10:34:37.8      10    -82     44     83     93 172.9  30.3  34144  289.30 0855.22
2009/04/23 10:34:37.9     -21    -34     41     41     57 211.6  50.1  34144  289.30 0855.22
2009/04/23 10:34:38.0     -14    -72     42     74     85 191.6  32.4  34140  289.23 0855.22
2009/04/23 10:34:38.1     -66   -103    133    123    181 212.6  52.2  34142  289.26 0855.22
2009/04/23 10:34:38.2     -83   -169     98    189    212 206.3  29.3  34140  289.24 0855.22
2009/04/23 10:34:38.3     -66   -218    116    228    255 197.0  29.1  34144  289.31 0855.22
2009/04/23 10:34:38.4     -66   -229    108    239    262 196.0  25.9  34144  289.31 0855.22
2009/04/23 10:34:38.5     -43   -248    132    252    284 190.0  29.5  34154  289.46 0855.22
2009/04/23 10:34:38.6     -55   -271     93    277    293 191.5  18.6  34146  289.34 0855.22
2009/04/23 10:34:38.7     -32   -351    122    353    374 185.3  19.2  34146  289.32 0855.22
2009/04/23 10:34:38.8     -46   -296      8    300    301 188.9   1.7  34148  289.37 0855.22
2009/04/23 10:34:38.9     -64   -227    -25    236    238 195.8  -6.1  34148  289.36 0855.22
2009/04/23 10:34:39.0     -35   -210     22    213    215 189.6   6.1  34148  289.36 0855.22
2009/04/23 10:34:39.1      -7   -239      7    240    241 181.8   1.8  34150  289.41 0855.22
2009/04/23 10:34:39.2       2   -229    -59    230    238 179.3 -14.5  34150  289.39 0855.22
2009/04/23 10:34:39.3       3   -216    -47    217    223 179.0 -12.4  34148  289.36 0855.22
2009/04/23 10:34:39.4       8   -192    -70    193    205 177.5 -24.8  34148  289.38 0855.22
2009/04/23 10:34:39.5     -46   -189    -51    195    202 193.8 -14.7  34148  289.38 0855.22
2009/04/23 10:34:39.6     -84   -276    -31    289    291 196.9  -6.2  34154  289.46 0855.22
2009/04/23 10:34:39.7     -72   -317    -14    326    327 192.9  -2.5  34152  289.44 0855.22
2009/04/23 10:34:39.8     -31   -293    -11    295    296 186.2  -2.3  34148  289.36 0855.22
2009/04/23 10:34:39.9     -46   -311     41    315    318 188.5   7.5  34150  289.39 0855.22
2009/04/23 10:34:40.0     -42   -300     37    304    307 188.1   7.1  34146  289.34 0855.22
2009/04/23 10:34:40.1     -47   -277     35    282    285 189.7   7.2  34146  289.32 0855.22
2009/04/23 10:34:40.2     -24   -271     -5    273    274 185.1  -1.2  34148  289.36 0855.22
2009/04/23 10:34:40.3     -91   -239     57    256    263 200.9  12.6  34146  289.34 0855.22
2009/04/23 10:34:40.4      -7   -185     93    186    207 182.2  28.5  34152  289.43 0855.22
2009/04/23 10:34:40.5      48   -177     84    184    202 164.6  26.2  34148  289.36 0855.22
2009/04/23 10:34:40.6     129   -164    114    209    238 141.9  31.0  34146  289.33 0855.22
2009/04/23 10:34:40.7     113   -113     67    161    174 135.0  24.1  34148  289.36 0855.22
2009/04/23 10:34:40.8      81    -50     82     96    126 122.0  45.4  34150  289.41 0855.22
2009/04/23 10:34:40.9     122    -41     77    129    150 108.6  33.5  34150  289.41 0855.22
2009/04/23 10:34:41.0     161    -24     60    163    173  98.8  20.7  34148  289.36 0855.22
2009/04/23 10:34:41.1     105    -67     43    125    133 122.5  18.9  34152  289.43 0855.22
2009/04/23 10:34:41.2      82   -113      7    140    141 143.9   2.9  34148  289.38 0855.22
2009/04/23 10:34:41.3     -42   -171     67    177    189 193.8  21.7  34150  289.41 0855.22
2009/04/23 10:34:41.4     -69   -224     73    235    247 197.2  17.3  34148  289.37 0855.22
2009/04/23 10:34:41.5     -15   -280    100    281    298 183.1  20.4  34144  289.31 0855.18
2009/04/23 10:34:41.6      -6   -259    134    260    292 181.4  29.3  34142  289.27 0855.18
2009/04/23 10:34:41.7      56   -292    128    298    324 169.1  24.9  34144  289.29 0855.18
2009/04/23 10:34:41.8     131   -231    206    266    336 150.4  41.7  34142  289.27 0855.18
2009/04/23 10:34:41.9      50    -97    142    110    179 152.8  58.5  34152  289.43 0855.18
2009/04/23 10:34:42.0     136   -118    103    181    208 130.9  32.4  34150  289.40 0855.18
2009/04/23 10:34:42.1     147   -112     68    185    197 127.3  21.0  34144  289.30 0855.18
2009/04/23 10:34:42.2     107   -160     90    193    212 146.2  27.0  34144  289.30 0855.18
2009/04/23 10:34:42.3     108   -134     81    173    191 141.0  27.1  34144  289.30 0855.18
2009/04/23 10:34:42.4      85   -118     63    146    159 144.4  24.6  34146  289.33 0855.18
2009/04/23 10:34:42.5      85   -110     75    140    158 142.2  30.6  34146  289.33 0855.18
2009/04/23 10:34:42.6      28   -101     45    105    114 164.4  24.1  34144  289.31 0855.18
2009/04/23 10:34:42.7      41    -74     46     85     96 151.0  30.8  34148  289.36 0855.18
2009/04/23 10:34:42.8      29    -78     29     84     90 159.5  19.2  34144  289.31 0855.18
2009/04/23 10:34:42.9      40   -100     -1    108    109 158.2  -0.7  34142  289.28 0855.18
2009/04/23 10:34:43.0     120   -104    -12    159    160 130.9  -4.6  34144  289.30 0855.18
2009/04/23 10:34:43.1     -68   -132     -8    149    150 207.2  -3.2  34140  289.24 0855.18
2009/04/23 10:34:43.2     -43   -171    -22    177    179 194.3  -7.3  34142  289.26 0855.18
2009/04/23 10:34:43.4       0   -158     25    159    161 180.0   9.0  34140  289.23 0855.18
2009/04/23 10:34:43.4     -10   -222     37    223    227 182.7   9.5  34142  289.28 0855.18
2009/04/23 10:34:43.5       2   -163     13    164    165 179.3   4.9  34144  289.30 0855.17
2009/04/23 10:34:43.7      72    -82     42    110    117 139.0  22.0  34144  289.30 0855.17
2009/04/23 10:34:43.7      41   -173     38    178    183 166.6  12.0  34142  289.28 0855.17
2009/04/23 10:34:43.8       3   -177    146    178    230 178.9  43.7  34152  289.45 0855.17
2009/04/23 10:34:43.9      97   -117    126    153    198 140.4  43.7  34154  289.48 0855.17
2009/04/23 10:34:44.1      74    -87    120    115    166 139.5  51.2  34158  289.53 0855.17
2009/04/23 10:34:44.1     115   -182    112    216    243 147.7  29.5  34160  289.58 0855.17
2009/04/23 10:34:44.2      81   -151    106    172    202 151.7  35.0  34164  289.63 0855.17
2009/04/23 10:34:44.3      74   -125    124    146    191 149.3  44.5  34170  289.74 0855.17
2009/04/23 10:34:44.5     103   -141    121    175    212 143.7  37.8  34164  289.65 0855.17
2009/04/23 10:34:44.6     207   -118    140    239    276 119.8  33.1  34166  289.68 0855.17
2009/04/23 10:34:44.7     221   -144     77    265    277 123.1  16.3  34158  289.54 0855.17
2009/04/23 10:34:44.8     209   -253    -15    329    330 140.4  -2.7  34152  289.43 0855.17
2009/04/23 10:34:44.9     226   -242     -9    332    333 137.0  -1.6  34148  289.37 0855.17
2009/04/23 10:34:45.0     184   -237      6    301    302 142.2   1.2  34148  289.37 0855.17
2009/04/23 10:34:45.1     101   -230    -41    252    256 156.2  -9.3  34150  289.39 0855.17
2009/04/23 10:34:45.2     102   -232    -75    254    265 156.3 -16.5  34150  289.41 0855.17
2009/04/23 10:34:45.3      96   -290   -128    306    331 161.5 -28.3  34152  289.44 0855.17
2009/04/23 10:34:45.4      58   -221    -99    229    249 165.1 -29.5  34148  289.36 0855.17
2009/04/23 10:34:45.5      95   -293   -108    309    328 162.0 -19.4  34150  289.41 0855.17
2009/04/23 10:34:45.6     197   -238    -35    310    312 140.4  -6.5  34146  289.32 0855.17
2009/04/23 10:34:45.7     107   -245    -61    268    275 156.4 -12.9  34144  289.31 0855.17
2009/04/23 10:34:45.8      72   -243    -68    254    263 163.3 -15.0  34148  289.36 0855.17
2009/04/23 10:34:45.9     120   -243    -34    272    275 153.7  -7.2  34138  289.20 0855.17
2009/04/23 10:34:46.0      46   -319     -7    323    324 171.8  -1.4  34140  289.24 0855.17
2009/04/23 10:34:46.1      73   -335     13    344    345 167.6   2.2  34136  289.18 0855.17
2009/04/23 10:34:46.2      84   -310    112    322    342 164.9  19.2  34142  289.28 0855.17
2009/04/23 10:34:46.3      70   -266     54    276    282 165.1  11.1  34142  289.25 0855.17
2009/04/23 10:34:46.4     178   -452    -38    486    488 158.5  -4.5  34146  289.32 0855.17
2009/04/23 10:34:46.5     140   -539     52    557    560 165.4   5.4  34134  289.13 0855.17
2009/04/23 10:34:46.6     105   -388    168    402    435 164.9  24.1  34132  289.09 0855.16
2009/04/23 10:34:46.7     275   -447    103    526    537 148.4  11.1  34136  289.18 0855.16
2009/04/23 10:34:46.8     150   -372    -13    402    403 158.1  -1.9  34148  289.38 0855.16
2009/04/23 10:34:46.9     153   -339     11    372    373 155.7   1.7  34162  289.59 0855.16
2009/04/23 10:34:47.0     120   -243     13    271    272 153.7   2.9  34156  289.51 0855.16
2009/04/23 10:34:47.1      74   -177    -24    192    194 157.3  -7.3  34158  289.55 0855.16
2009/04/23 10:34:47.2      71   -350     11    358    359 168.4   1.8  34162  289.59 0855.16
2009/04/23 10:34:47.3     124   -329     74    352    360 159.3  12.0  34162  289.60 0855.16
2009/04/23 10:34:47.4     166   -320     72    361    369 152.5  11.3  34162  289.60 0855.16
2009/04/23 10:34:47.5     210   -323    206    386    437 147.0  30.3  34140  289.24 0855.16
2009/04/23 10:34:47.6     170   -337    251    378    453 153.2  36.6  34132  289.09 0855.16
2009/04/23 10:34:47.7      97   -293    185    309    360 161.5  33.7  34132  289.11 0855.16
2009/04/23 10:34:47.8      57   -210    200    218    295 164.6  47.7  34136  289.15 0855.16
2009/04/23 10:34:47.9      93   -169    197    193    275 151.1  50.4  34144  289.29 0855.16
2009/04/23 10:34:48.0      59   -292    133    299    327 168.4  25.7  34144  289.29 0855.16
2009/04/23 10:34:48.1      58   -304    175    310    355 169.1  31.9  34142  289.25 0855.16
2009/04/23 10:34:48.2      84   -367    227    377    440 167.1  34.0  34144  289.29 0855.16
2009/04/23 10:34:48.3      41   -381    203    384    434 173.8  30.2  34152  289.44 0855.16
2009/04/23 10:34:48.4      18   -387    152    388    416 177.2  22.7  34148  289.36 0855.16
2009/04/23 10:34:48.5     -21   -358    130    359    381 183.4  20.7  34148  289.37 0855.16
2009/04/23 10:34:48.6      -9   -361     71    362    369 181.5  11.1  34148  289.37 0855.15
2009/04/23 10:34:48.7     -12   -277     93    278    294 182.6  18.6  34138  289.20 0855.15
2009/04/23 10:34:48.8      17   -270     74    271    281 176.4  15.3  34142  289.27 0855.15
2009/04/23 10:34:48.9       0   -288     77    289    300 179.9  15.0  34144  289.29 0855.15
2009/04/23 10:34:49.0      12   -320     90    321    334 177.8  15.8  34136  289.16 0855.15
2009/04/23 10:34:49.1      29   -342    119    344    365 175.0  19.2  34140  289.23 0855.15
2009/04/23 10:34:49.2      48   -285     35    290    293 170.3   6.9  34138  289.19 0855.15
2009/04/23 10:34:49.3      86   -210    171    227    284 157.7  40.9  34140  289.22 0855.15
2009/04/23 10:34:49.4      17   -174    155    175    233 174.4  45.9  34140  289.23 0855.15
2009/04/23 10:34:49.5      72   -180    144    195    242 158.2  39.9  34146  289.33 0855.15
2009/04/23 10:34:49.6     133   -235    180    271    325 150.4  36.6  34142  289.25 0855.15
2009/04/23 10:34:49.7      58   -256     92    263    279 167.1  19.4  34162  289.61 0855.15
2009/04/23 10:34:49.8      22   -291    102    292    310 175.6  19.4  34162  289.61 0855.15
2009/04/23 10:34:49.9      91   -294    135    308    336 162.8  25.1  34138  289.20 0855.15
2009/04/23 10:34:50.0      53   -281    181    287    339 169.3  35.5  34146  289.32 0855.15
2009/04/23 10:34:50.1      81   -299    188    310    362 164.8  34.2  34136  289.16 0855.15
2009/04/23 10:34:50.2      53   -307    187    312    363 170.2  33.7  34136  289.16 0855.15
2009/04/23 10:34:50.3     123   -295    196    320    375 157.3  34.4  34136  289.16 0855.15
2009/04/23 10:34:50.4     100   -311    190    327    378 162.2  32.8  34136  289.15 0855.15
2009/04/23 10:34:50.5     112   -304    204    325    383 159.7  35.3  34136  289.15 0855.15
2009/04/23 10:34:50.6     120   -306    212    329    391 158.5  35.9  34136  289.15 0855.15
2009/04/23 10:34:50.7     127   -259    160    289    330 153.7  31.5  34134  289.14 0855.15
2009/04/23 10:34:50.8     117   -292    164    315    355 158.1  29.6  34136  289.18 0855.15
2009/04/23 10:34:50.9      79   -294    214    305    372 164.9  38.6  34136  289.16 0855.15
2009/04/23 10:34:51.0     148   -242    164    284    327 148.6  32.7  34138  289.20 0855.15
2009/04/23 10:34:51.1     170   -262    148    313    346 147.0  27.1  34132  289.11 0855.15
2009/04/23 10:34:51.2     175   -256    108    311    330 145.7  19.2  34138  289.20 0855.15
2009/04/23 10:34:51.3      81   -242    189    256    318 161.5  40.1  34136  289.17 0855.15
2009/04/23 10:34:51.4     147   -191    140    242    279 142.4  32.7  34138  289.19 0855.15
2009/04/23 10:34:51.5     114   -176     63    211    221 147.0  16.6  34134  289.14 0855.15
2009/04/23 10:34:51.6     -58   -164    152    175    231 199.6  45.6  34138  289.19 0855.15
2009/04/23 10:34:51.7      43   -140     68    147    161 163.0  26.4  34144  289.30 0855.15
2009/04/23 10:34:51.8     149   -218      3    265    266 145.7   0.8  34142  289.27 0855.15
2009/04/23 10:34:51.9     178   -243      3    302    303 143.7   0.7  34140  289.24 0855.15
2009/04/23 10:34:52.0     213   -300    -20    368    369 144.6  -3.1  34138  289.21 0855.15
2009/04/23 10:34:52.1     226   -262     21    347    348 139.2   3.5  34138  289.21 0855.15
2009/04/23 10:34:52.2     180   -216     77    282    293 140.3  15.3  34140  289.22 0855.15
2009/04/23 10:34:52.3     189   -243    -28    308    310 142.1  -5.4  34140  289.24 0855.15
2009/04/23 10:34:52.4      40   -136    -50    142    151 163.5 -19.6  34144  289.30 0855.15
2009/04/23 10:34:52.5     -16   -183    -65    184    195 185.1 -24.4  34146  289.33 0855.15
2009/04/23 10:34:52.6       1   -103    -56    104    118 179.1 -35.2  34146  289.33 0855.16
2009/04/23 10:34:52.7      53   -185    -58    193    201 164.0 -21.7  34150  289.41 0855.16
2009/04/23 10:34:52.8      32   -227    -41    230    234 171.9 -10.3  34146  289.33 0855.16
2009/04/23 10:34:52.9      35   -226     26    229    231 171.1   6.5  34144  289.30 0855.16
2009/04/23 10:34:53.0     -35   -185      2    189    190 190.9   0.8  34144  289.30 0855.16
2009/04/23 10:34:53.1    -118   -200    -55    233    240 210.7 -13.4  34154  289.46 0855.16
2009/04/23 10:34:53.2    -204   -335   -118    393    411 211.4 -16.7  34136  289.17 0855.16
2009/04/23 10:34:53.3     -79   -353   -162    362    396 192.7 -30.1  34092  288.42 0855.16
2009/04/23 10:34:53.4     -24   -357   -180    358    400 183.9 -33.1  34106  288.66 0855.16
2009/04/23 10:34:53.5      42   -371    -47    374    377 173.4  -7.2  34128  289.04 0855.16
2009/04/23 10:34:53.6     -30   -388     33    390    392 184.5   5.0  34128  289.03 0855.16
2009/04/23 10:34:53.7     -49   -309    -23    314    315 189.1  -4.2  34130  289.05 0855.16
2009/04/23 10:34:53.8     -31   -247     -9    250    251 187.3  -2.3  34130  289.07 0855.16
2009/04/23 10:34:53.9     -29   -278    -10    280    281 186.0  -2.1  34122  288.92 0855.16
2009/04/23 10:34:54.0    -102   -309    -71    326    334 198.3 -12.3  34118  288.86 0855.16
2009/04/23 10:34:54.1    -165   -340    -68    378    385 205.9 -10.2  34120  288.88 0855.16
2009/04/23 10:34:54.2    -130   -361     19    384    385 199.9   2.9  34136  289.18 0855.16
2009/04/23 10:34:54.3    -209   -353   -101    411    424 210.6 -13.9  34134  289.12 0855.16
2009/04/23 10:34:54.4    -244   -254   -155    353    385 223.8 -29.6  34106  288.66 0855.16
2009/04/23 10:34:54.5    -244   -183   -174    306    352 233.1 -36.5  34116  288.82 0855.16
2009/04/23 10:34:54.6    -228   -248   -164    338    375 222.6 -32.2  34136  289.16 0855.17
2009/04/23 10:34:54.7    -214   -228   -101    313    329 223.2 -17.9  34136  289.15 0855.17
2009/04/23 10:34:54.8    -220   -187    -96    289    304 229.6 -23.8  34134  289.12 0855.17
2009/04/23 10:34:54.9    -153   -128   -168    200    261 230.0 -48.7  34108  288.70 0855.17
2009/04/23 10:34:55.0    -170    -98   -127    197    234 240.0 -40.4  34130  289.06 0855.17
2009/04/23 10:34:55.1    -182    -78   -149    199    248 246.7 -45.1  34136  289.15 0855.17
2009/04/23 10:34:55.2     -83    -77   -124    114    168 226.9 -56.9  34134  289.14 0855.17
2009/04/23 10:34:55.3     -61   -129    -70    144    160 205.5 -32.4  34124  288.97 0855.17
2009/04/23 10:34:55.4     -60   -143    -24    156    158 202.7  -9.0  34132  289.11 0855.17
2009/04/23 10:34:55.5     -60   -116      0    131    132 207.6   0.2  34148  289.36 0855.17
2009/04/23 10:34:55.6     -41   -119      1    127    128 199.2   0.8  34142  289.26 0855.17
2009/04/23 10:34:55.7    -110    -32    -34    115    119 253.6 -21.7  34154  289.46 0855.17
2009/04/23 10:34:55.8    -119    -14    -19    120    122 263.0  -9.3  34158  289.53 0855.17
2009/04/23 10:34:55.9     -32      8    -57     34     66 285.1 -70.1  34152  289.45 0855.17
2009/04/23 10:34:56.0      33    -15    -43     37     56 115.3 -58.7  34154  289.48 0855.17
2009/04/23 10:34:56.1      55     -9      0     56     57  99.7  -0.3  34146  289.35 0855.17
2009/04/23 10:34:56.2     135     14     52    136    145  83.9  22.0  34136  289.16 0855.17
2009/04/23 10:34:56.3     175     13     81    176    193  85.7  26.6  34140  289.24 0855.17
2009/04/23 10:34:56.4      94     75     78    121    143  51.4  35.6  34142  289.26 0855.17
2009/04/23 10:34:56.5      82     77    114    113    160  46.9  49.9  34140  289.24 0855.17
2009/04/23 10:34:56.6      89     65     96    111    146  53.6  45.4  34150  289.41 0855.18
2009/04/23 10:34:56.7      69     58    105     91    138  50.0  54.3  34144  289.31 0855.18
2009/04/23 10:34:56.8      65     52    104     84    133  50.9  56.4  34142  289.26 0855.18
2009/04/23 10:34:56.9     -41    -40    131     58    143 225.1  75.0  34150  289.41 0855.18
2009/04/23 10:34:57.0      -4   -158    141    159    212 181.8  46.2  34152  289.43 0855.18
2009/04/23 10:34:57.1     -57   -181     88    190    209 197.6  27.0  34152  289.43 0855.18
2009/04/23 10:34:57.2      15   -101     28    103    107 171.1  15.3  34150  289.40 0855.18
2009/04/23 10:34:57.3      -6    -69    -10     70     71 185.3  -8.2  34150  289.40 0855.18
2009/04/23 10:34:57.4     -10    -95    -38     96    103 186.2 -27.4  34154  289.46 0855.18
2009/04/23 10:34:57.5       1    -62    -85     63    105 178.2 -64.4  34154  289.46 0855.18
2009/04/23 10:34:57.6      53     -6    -39     54     66  97.0 -43.9  34156  289.52 0855.18
2009/04/23 10:34:57.7      45     10    -52     47     70  77.6 -57.7  34146  289.35 0855.18
2009/04/23 10:34:57.8     -14     22    -42     27     49 327.5 -69.1  34154  289.46 0855.18
2009/04/23 10:34:57.9    -107     60    -38    123    128 299.3 -21.8  34148  289.38 0855.18
2009/04/23 10:34:58.0     -72     72    -24    102    105 315.0 -13.4  34150  289.40 0855.18
2009/04/23 10:34:58.1     -90     26    -26     94     97 286.4 -20.7  34152  289.45 0855.18
2009/04/23 10:34:58.2     -84      7    -60     85    104 274.8 -43.0  34154  289.48 0855.18
2009/04/23 10:34:58.3    -104    -20    -41    106    113 259.0 -26.4  34162  289.62 0855.18
2009/04/23 10:34:58.4     -79    -42    -44     90    100 241.6 -32.2  34166  289.67 0855.18
2009/04/23 10:34:58.5     -33    -45    -53     56     77 216.1 -53.4  34164  289.65 0855.18
2009/04/23 10:34:58.6     -38    -84    -58     93    109 204.5 -39.9  34166  289.67 0855.14
2009/04/23 10:34:58.7     -42   -105    -55    114    126 201.8 -31.7  34172  289.77 0855.14
2009/04/23 10:34:58.8       9    -98    -12     99    100 174.2  -7.3  34170  289.75 0855.14
2009/04/23 10:34:58.9      12   -175     39    176    181 176.0  12.6  34158  289.55 0855.14
2009/04/23 10:34:59.0     -23   -309      8    310    311 184.4   1.6  34142  289.25 0855.14
2009/04/23 10:34:59.1     -17   -330     -8    331    332 183.0  -1.4  34142  289.28 0855.14
2009/04/23 10:34:59.2     -89   -291    -52    305    310 197.0  -9.8  34142  289.27 0855.14
2009/04/23 10:34:59.3    -128   -283    -45    311    315 204.3  -8.3  34148  289.36 0855.14
2009/04/23 10:34:59.4    -138   -270    -66    304    312 207.1 -12.4  34156  289.51 0855.14
2009/04/23 10:34:59.5    -130   -233    -87    267    281 209.2 -18.1  34152  289.44 0855.14
2009/04/23 10:34:59.6    -160   -184   -127    245    275 221.0 -33.9  34146  289.32 0855.14
2009/04/23 10:34:59.7    -147   -168   -161    224    275 221.2 -43.7  34144  289.29 0855.14
2009/04/23 10:34:59.8    -128   -130   -148    183    235 224.5 -47.4  34148  289.38 0855.14
2009/04/23 10:34:59.9     -73   -132   -118    152    192 209.0 -46.4  34154  289.46 0855.14
2009/04/23 10:35:00.0    -106   -170    -65    201    211 211.9 -23.6  34160  289.58 0855.14
2009/04/23 10:35:00.1     -79   -163   -104    182    209 205.9 -36.8  34158  289.55 0855.14
2009/04/23 10:35:00.2     -68   -172    -68    185    197 201.6 -25.4  34152  289.43 0855.14
2009/04/23 10:35:00.3     -47   -203     -8    209    210 193.3  -2.2  34146  289.35 0855.14
2009/04/23 10:35:00.4     -60   -182    -24    192    194 198.5  -7.3  34150  289.41 0855.14
2009/04/23 10:35:00.5     -60   -187    -67    197    209 198.0 -18.9  34154  289.48 0855.14
2009/04/23 10:35:00.6     -51   -216    -40    223    227 193.4 -10.3  34146  289.35 0855.14
2009/04/23 10:35:00.7     -35   -196    -55    200    208 190.2 -15.5  34154  289.46 0855.14
2009/04/23 10:35:00.8     -42   -210    -64    215    224 191.3 -21.7  34152  289.45 0855.14
2009/04/23 10:35:00.9     -39   -225    -76    229    242 190.0 -18.3  34144  289.31 0855.14
2009/04/23 10:35:01.0     -85   -262    -13    276    277 198.0  -2.8  34146  289.32 0855.14
2009/04/23 10:35:01.1    -171   -278    -30    327    329 211.7  -5.4  34142  289.27 0855.14
2009/04/23 10:35:01.2    -124   -263     -6    292    293 205.3  -1.3  34142  289.27 0855.14
2009/04/23 10:35:01.3    -160   -193    -21    252    253 219.7  -4.9  34146  289.32 0855.14
2009/04/23 10:35:01.4     -37   -145   -197    150    247 194.3 -63.4  34158  289.55 0855.14
2009/04/23 10:35:01.5    -122   -258     98    286    303 205.3  18.9  34148  289.37 0855.14
2009/04/23 10:35:01.6     -73   -326    -39    335    338 192.7  -6.7  34152  289.43 0855.14
2009/04/23 10:35:01.7    -148   -304    -25    339    340 206.0  -4.2  34136  289.18 0855.14
2009/04/23 10:35:01.8    -182   -142     44    231    236 232.0  10.8  34158  289.53 0855.14
2009/04/23 10:35:01.9    -136   -145     94    200    220 223.2  27.1  34152  289.45 0855.14
2009/04/23 10:35:02.0     -50   -125    142    135    195 201.8  51.6  34150  289.41 0855.14
2009/04/23 10:35:02.1       1   -113    155    114    192 179.1  60.5  34148  289.38 0855.14
2009/04/23 10:35:02.2      49     21    116     54    127  66.5  73.1  34166  289.69 0855.14
2009/04/23 10:35:02.3      47      3    149     48    156  85.6  80.7  34166  289.69 0855.14
2009/04/23 10:35:02.4      79    -38    148     88    172 115.8  66.2  34160  289.58 0855.14
2009/04/23 10:35:02.5     189   -108    122    218    249 119.8  31.6  34148  289.36 0855.14
2009/04/23 10:35:02.6      92   -158    174    183    252 149.7  48.7  34138  289.19 0855.14
2009/04/23 10:35:02.7       6   -114    133    115    175 176.9  54.8  34140  289.23 0855.14
2009/04/23 10:35:02.8      75   -166    108    183    212 155.5  33.5  34138  289.21 0855.14
2009/04/23 10:35:02.9      69   -146    128    162    206 154.7  42.7  34138  289.21 0855.14
2009/04/23 10:35:03.0      88   -104    119    137    181 139.9  45.6  34146  289.33 0855.14
2009/04/23 10:35:03.1     113   -147     89    186    206 142.4  27.3  34144  289.30 0855.14
2009/04/23 10:35:03.2      69   -277    111    286    306 165.8  22.3  34136  289.17 0855.14
2009/04/23 10:35:03.3      -1   -218    127    219    253 180.5  32.7  34130  289.07 0855.14
2009/04/23 10:35:03.4       8   -171    133    172    217 177.3  41.6  34132  289.09 0855.14
2009/04/23 10:35:03.5       7   -124    158    125    201 176.4  57.7  34136  289.16 0855.14
2009/04/23 10:35:03.6       0    -22    128     23    130 180.9  90.0  34146  289.33 0855.14
2009/04/23 10:35:03.7      15    -19     97     25    100 140.4  85.4  34152  289.45 0855.14
2009/04/23 10:35:03.8     -24    -36    137     44    143 214.3  81.2  34150  289.41 0855.14
2009/04/23 10:35:03.9      14     27    117     31    121  27.2  84.9  34160  289.57 0855.14
2009/04/23 10:35:04.0      86    -74     82    114    140 130.9  39.5  34148  289.36 0855.14
2009/04/23 10:35:04.1     120   -117     61    168    178 134.4  20.7  34142  289.28 0855.14
2009/04/23 10:35:04.2      56   -116    102    130    165 154.1  42.2  34146  289.33 0855.14
2009/04/23 10:35:04.3      12   -152     94    153    179 175.1  34.4  34144  289.31 0855.14
2009/04/23 10:35:04.4      34   -146    119    150    191 166.7  42.7  34140  289.24 0855.14
2009/04/23 10:35:04.5     -13   -166     36    167    172 184.7  12.4  34140  289.24 0855.14
2009/04/23 10:35:04.6      20   -173     95    175    199 173.3  31.0  34130  289.08 0855.20
2009/04/23 10:35:04.7      53   -181     71    189    201 163.7  21.5  34120  288.91 0855.20
2009/04/23 10:35:04.8      36   -209     96    213    233 170.2  26.2  34116  288.84 0855.20
2009/04/23 10:35:04.9      49   -177     69    184    196 164.4  21.5  34120  288.91 0855.20
2009/04/23 10:35:05.0      21   -179     63    181    192 173.1  19.4  34120  288.91 0855.20
2009/04/23 10:35:05.1       3   -150     87    151    174 178.6  32.9  34122  288.92 0855.20
2009/04/23 10:35:05.2      -9   -123     71    124    142 184.5  32.4  34128  289.02 0855.20
2009/04/23 10:35:05.3      -8   -104     48    105    115 184.5  26.6  34122  288.92 0855.20
2009/04/23 10:35:05.4      17   -119     23    121    124 171.9  11.0  34120  288.89 0855.20
2009/04/23 10:35:05.5      22   -131     15    133    134 170.2   6.5  34118  288.86 0855.20
2009/04/23 10:35:05.6       0   -122    -28    123    127 180.4 -12.9  34120  288.89 0855.20
2009/04/23 10:35:05.7      -3   -131    -17    132    134 181.4  -7.3  34120  288.89 0855.20
2009/04/23 10:35:05.8     -32   -156    -11    160    161 191.6  -4.1  34122  288.94 0855.20
2009/04/23 10:35:05.9     -69   -166    -70    180    193 202.7 -26.7  34130  289.08 0855.20
2009/04/23 10:35:06.0     -76   -206   -131    220    256 200.3 -37.9  34136  289.15 0855.20
2009/04/23 10:35:06.1       0   -179   -212    180    278 180.2 -59.8  34140  289.22 0855.20
2009/04/23 10:35:06.2     123   -168   -268    209    339 143.9 -62.6  34142  289.27 0855.20
2009/04/23 10:35:06.3     128   -125   -155    180    237 134.4 -49.8  34148  289.38 0855.20
2009/04/23 10:35:06.4     246   -217   -132    329    354 131.4 -27.4  34140  289.23 0855.20
2009/04/23 10:35:06.5     385   -196     21    433    434 117.0   2.8  34124  288.97 0855.20
2009/04/23 10:35:06.6     270   -142    153    306    342 117.8  28.5  34128  289.03 0855.15
2009/04/23 10:35:06.7     232    -54    141    239    277 103.3  33.4  34138  289.19 0855.15
2009/04/23 10:35:06.8     342     47    125    346    369  82.1  19.9  34132  289.10 0855.15
2009/04/23 10:35:06.9     184    -14     64    185    196  94.6  19.2  34138  289.19 0855.15
2009/04/23 10:35:07.0     188     38     86    192    210  78.5  25.9  34138  289.21 0855.15
2009/04/23 10:35:07.1     198     20    160    200    256  84.1  42.8  34140  289.24 0855.15
2009/04/23 10:35:07.2     127     -7    127    128    180  93.5  50.2  34150  289.40 0855.15
2009/04/23 10:35:07.3       0    -55     90     56    106 179.1  64.7  34158  289.55 0855.15
2009/04/23 10:35:07.4      31     -5     82     32     88  99.7  78.2  34148  289.36 0855.15
2009/04/23 10:35:07.5      -8     23     65     25     69 340.0  78.2  34160  289.58 0855.15
2009/04/23 10:35:07.6      -3     31     77     32     83 353.8  76.6  34166  289.67 0855.15
2009/04/23 10:35:07.7     -20     59     93     63    112 341.3  62.6  34164  289.63 0855.15
2009/04/23 10:35:07.8     -48     43     43     65     77 312.2  35.6  34158  289.53 0855.15
2009/04/23 10:35:07.9    -118     51     55    129    140 293.5  24.6  34162  289.60 0855.15
2009/04/23 10:35:08.0    -128     70     80    147    167 298.8  30.6  34142  289.26 0855.15
2009/04/23 10:35:08.1    -115     73     72    137    154 302.4  29.8  34152  289.43 0855.15
2009/04/23 10:35:08.2    -138     36     20    143    145 284.6   8.0  34172  289.79 0855.15
2009/04/23 10:35:08.3    -106      1     68    107    126 270.9  35.5  34166  289.67 0855.15
2009/04/23 10:35:08.4     -82    -10     76     83    112 262.5  47.9  34156  289.50 0855.15
2009/04/23 10:35:08.5     -23    -68    109     73    131 199.2  63.2  34138  289.21 0855.15
2009/04/23 10:35:08.6     -58      0    102     59    117 270.0  67.7  34164  289.63 0855.15
2009/04/23 10:35:08.7     -23    -23     85     33     91 225.1  78.2  34166  289.67 0855.15
2009/04/23 10:35:08.8     -42    -26     89     50    102 238.5  68.8  34168  289.72 0855.15
2009/04/23 10:35:08.9     -69      4    124     70    142 273.5  68.8  34166  289.67 0855.15
2009/04/23 10:35:09.0     -54     49    112     74    134 312.2  64.1  34164  289.65 0855.15
2009/04/23 10:35:09.1     -67    -32     77     75    107 244.6  50.1  34174  289.80 0855.15
2009/04/23 10:35:09.2     -95     -7     92     96    132 265.6  49.4  34174  289.80 0855.15
2009/04/23 10:35:09.3     -67    -32     79     75    108 244.7  51.6  34180  289.92 0855.15
2009/04/23 10:35:09.4     -30    -39     75     50     90 217.0  63.6  34182  289.96 0855.15
2009/04/23 10:35:09.5     -25    -63    107     68    126 201.8  64.7  34182  289.94 0855.15
2009/04/23 10:35:09.6       2      7    143      8    143  18.5  90.0  34180  289.91 0855.16
2009/04/23 10:35:09.7     143     78    138    163    213  61.4  44.3  34170  289.75 0855.16
2009/04/23 10:35:09.8     153     86     78    176    192  60.7  25.7  34184  289.99 0855.16
2009/04/23 10:35:09.9     195    141    110    241    264  54.1  26.2  34206  290.36 0855.16
2009/04/23 10:35:10.0     220     16     60    221    230  85.7  15.3  34192  290.11 0855.16
2009/04/23 10:35:10.1     275    163     88    320    332  59.3  15.4  34182  289.93 0855.16
2009/04/23 10:35:10.3     177     80    149    195    245  65.6  41.6  34212  290.45 0855.16
2009/04/23 10:35:10.3     187    105    156    215    265  60.7  39.7  34234  290.82 0855.16
2009/04/23 10:35:10.4     271     90     29    286    288  71.6   5.9  34176  289.85 0855.16
2009/04/23 10:35:10.5     153    120    151    195    246  51.8  41.7  34204  290.33 0855.16
2009/04/23 10:35:10.6     151    134    139    203    246  48.4  37.6  34194  290.14 0855.16
2009/04/23 10:35:10.8     178    242    117    301    322  36.3  22.4  34174  289.81 0855.16
2009/04/23 10:35:10.8     253    206     69    327    335  50.9  12.0  34168  289.71 0855.16
2009/04/23 10:35:11.0     300    206     60    365    371  55.5   9.4  34172  289.77 0855.16
2009/04/23 10:35:11.1     305    170     80    350    360  60.9  12.9  34172  289.77 0855.16
2009/04/23 10:35:11.2     360    208     73    416    423  60.0  10.0  34212  290.44 0855.16
2009/04/23 10:35:11.3     378    283     91    473    482  53.1  11.0  34232  290.78 0855.16
2009/04/23 10:35:11.4     426    298    152    520    542  55.0  16.3  34188  290.06 0855.16
2009/04/23 10:35:11.5     355    141    121    383    402  68.3  17.5  34174  289.81 0855.16
2009/04/23 10:35:11.6     201    201    179    285    336  45.1  35.2  34228  290.73 0855.16
2009/04/23 10:35:11.7     184     77    193    200    277  67.2  49.0  34232  290.80 0855.20
2009/04/23 10:35:11.8     170    158    225    233    323  47.1  49.1  34198  290.20 0855.20
2009/04/23 10:35:11.9     287     81     66    299    307  74.1  12.6  34164  289.64 0855.20
2009/04/23 10:35:12.0     171    172    115    243    268  44.9  27.2  34156  289.51 0855.20
2009/04/23 10:35:12.1     282    249     76    377    385  48.6  11.4  34178  289.86 0855.20
2009/04/23 10:35:12.2     299    204     84    363    373  55.6  13.1  34188  290.03 0855.20
2009/04/23 10:35:12.3     229     75     33    242    245  71.8   7.8  34160  289.56 0855.20
2009/04/23 10:35:12.4     176     89    -49    198    204  63.1 -13.9  34156  289.50 0855.20
2009/04/23 10:35:12.5     123     15     38    124    130  83.0  17.3  34158  289.55 0855.20
2009/04/23 10:35:12.6      80     -2     44     81     92  91.7  30.8  34154  289.48 0855.20
2009/04/23 10:35:12.7      85     15     72     87    112  79.4  43.8  34156  289.50 0855.20
2009/04/23 10:35:12.8     130     60     94    144    171  65.2  36.0  34156  289.50 0855.20
2009/04/23 10:35:12.9      99    140     58    172    182  35.2  18.9  34172  289.79 0855.20
2009/04/23 10:35:13.0      96     86     49    130    138  48.2  21.5  34192  290.11 0855.20
2009/04/23 10:35:13.1      32     88     92     94    131  20.0  50.0  34176  289.85 0855.20
2009/04/23 10:35:13.2     109    120     63    163    174  42.3  21.7  34188  290.04 0855.20
2009/04/23 10:35:13.3     118    182     17    218    219  33.0   4.6  34220  290.60 0855.20
2009/04/23 10:35:13.4     324    228   -133    397    418  54.8 -23.3  34206  290.34 0855.20
2009/04/23 10:35:13.5     279    297   -134    408    429  43.2 -23.5  34190  290.09 0855.20
2009/04/23 10:35:13.6     278    253   -128    377    399  47.7 -18.8  34210  290.43 0855.20
2009/04/23 10:35:13.7     295    214    -71    365    373  54.1 -11.1  34226  290.69 0855.19
2009/04/23 10:35:13.8     274    228    -70    357    364  50.2 -11.1  34206  290.35 0855.19
2009/04/23 10:35:13.9     409    225    -73    467    473  61.1  -8.9  34226  290.68 0855.19
2009/04/23 10:35:14.0     426    155     88    454    463  69.9  11.0  34172  289.77 0855.19
2009/04/23 10:35:14.1     560    175     32    587    588  72.6   3.1  34214  290.49 0855.19
2009/04/23 10:35:14.2     637    148     85    655    661  76.9   7.5  34210  290.43 0855.19
2009/04/23 10:35:14.3     479    217     50    527    530  65.6   5.4  34222  290.63 0855.19
2009/04/23 10:35:14.4     519    282    146    591    609  61.5  13.9  34256  291.19 0855.19
2009/04/23 10:35:14.5     482    385    194    617    647  51.4  17.5  34268  291.42 0855.19
2009/04/23 10:35:14.6     470    112    197    484    522  76.6  23.4  34270  291.44 0855.19
2009/04/23 10:35:14.7     350     97    105    364    379  74.5  16.1  34252  291.13 0855.19
2009/04/23 10:35:14.8     170    -14    287    171    334  94.8  66.5  34194  290.14 0855.19
2009/04/23 10:35:14.9     305      0    316    306    439  90.0  51.1  34240  290.94 0855.19
2009/04/23 10:35:15.0     178    156    250    237    344  48.7  51.9  34240  290.93 0855.19
2009/04/23 10:35:15.1     417    216    146    470    493  62.6  17.3  34228  290.74 0855.19
2009/04/23 10:35:15.2     322    141    271    352    444  66.3  41.6  34238  290.89 0855.19
2009/04/23 10:35:15.3     347    143    262    376    458  67.5  38.4  34190  290.07 0855.19
2009/04/23 10:35:15.4     289    146    234    324    399  63.2  39.5  34194  290.16 0855.19
2009/04/23 10:35:15.5     451     91    237    461    518  78.5  29.3  34170  289.73 0855.19
2009/04/23 10:35:15.6     438    228    207    494    535  62.5  24.1  34156  289.51 0855.19
2009/04/23 10:35:15.7     419    265    117    496    510  57.7  13.3  34160  289.56 0855.20
2009/04/23 10:35:15.8     325     97     14    340    341  73.3   2.5  34160  289.57 0855.20
2009/04/23 10:35:15.9     389    179    -23    429    430  65.3  -3.1  34164  289.65 0855.20
2009/04/23 10:35:16.0     342    305    -10    459    460  48.2  -1.3  34172  289.77 0855.20
2009/04/23 10:35:16.1     330    234    -38    405    407  54.7  -5.4  34170  289.75 0855.20
2009/04/23 10:35:16.2     415    228     77    474    481  61.1   9.2  34158  289.54 0855.20
2009/04/23 10:35:16.3     357    189    129    404    425  62.1  17.7  34158  289.55 0855.20
2009/04/23 10:35:16.4     291     40    167    294    338  82.1  32.0  34160  289.58 0855.20
2009/04/23 10:35:16.5     228    145    143    271    306  57.5  30.2  34168  289.70 0855.20
2009/04/23 10:35:16.6     303     71      8    312    313  76.7   1.6  34160  289.56 0855.20
2009/04/23 10:35:16.7     289     22     -5    290    291  85.6  -1.2  34162  289.61 0855.20
2009/04/23 10:35:16.8     300    156    -43    339    342  62.5  -7.3  34160  289.57 0855.20
2009/04/23 10:35:16.9     445    125    -45    463    466  74.3  -5.6  34156  289.52 0855.20
2009/04/23 10:35:17.0     561    170    -48    587    590  73.1  -4.7  34120  288.90 0855.20
2009/04/23 10:35:17.1     651    201     10    682    683  72.8   0.9  34128  289.04 0855.20
2009/04/23 10:35:17.2     474    175    -78    506    512  69.7  -8.8  34126  289.00 0855.20
2009/04/23 10:35:17.3     351     26     -1    352    353  85.6  -0.3  34148  289.37 0855.20
2009/04/23 10:35:17.4     211     43    116    216    245  78.3  30.3  34156  289.49 0855.20
2009/04/23 10:35:17.5     302    -99    232    318    393 108.2  39.7  34152  289.45 0855.20
2009/04/23 10:35:17.6     338     44    447    341    562  82.6  59.0  34140  289.23 0855.20
2009/04/23 10:35:17.7     310    104    320    328    458  71.4  49.3  34142  289.27 0855.19
2009/04/23 10:35:17.8     284    -66    184    292    345 103.2  35.5  34158  289.54 0855.19
2009/04/23 10:35:17.9     234    -27    228    236    328  96.8  49.1  34152  289.44 0855.19
2009/04/23 10:35:18.0     181    -60    177    191    260 108.4  47.9  34156  289.51 0855.19
2009/04/23 10:35:18.1     164    -12    230    165    283  94.4  60.8  34158  289.53 0855.19
2009/04/23 10:35:18.2     384     40    375    387    538  83.9  49.0  34130  289.08 0855.19
2009/04/23 10:35:18.3     195    -39    294    199    355 101.4  62.7  34148  289.36 0855.19
2009/04/23 10:35:18.4     198   -126    193    235    304 122.5  43.7  34154  289.46 0855.19
2009/04/23 10:35:18.5     291    -76    219    301    372 104.8  39.7  34158  289.55 0855.19
2009/04/23 10:35:18.6     273    -64    333    281    435 103.2  55.6  34158  289.54 0855.19
2009/04/23 10:35:18.7     211    -49    293    217    364 103.2  60.0  34156  289.49 0855.19
2009/04/23 10:35:18.8     299     17    313    300    433  86.7  51.3  34152  289.42 0855.19
2009/04/23 10:35:18.9     235    191    280    303    412  50.9  47.7  34152  289.42 0855.19
2009/04/23 10:35:19.0     113     75    270    136    302  56.3  71.4  34154  289.46 0855.19
2009/04/23 10:35:19.1     181     -4    334    182    380  91.5  69.0  34146  289.34 0855.19
2009/04/23 10:35:19.2     230     17    307    231    384  85.6  59.4  34146  289.35 0855.19
2009/04/23 10:35:19.3     241     47    300    246    387  78.8  56.4  34144  289.30 0855.19
2009/04/23 10:35:19.4     256     96    220    274    351  69.4  42.9  34148  289.37 0855.19
2009/04/23 10:35:19.5      61     15    224     63    232  75.8  84.4  34158  289.53 0855.19
2009/04/23 10:35:19.6     127    106    266    166    313  50.2  65.1  34144  289.31 0855.19
2009/04/23 10:35:19.7     175    101    199    203    284  60.0  49.8  34146  289.32 0855.20
2009/04/23 10:35:19.8     202     95    239    224    327  64.8  52.1  34146  289.34 0855.20
2009/04/23 10:35:19.9     151      5    220    152    267  87.9  62.1  34158  289.53 0855.20
2009/04/23 10:35:20.0     250    -83    294    264    395 108.4  53.5  34158  289.55 0855.20
2009/04/23 10:35:20.1      45     -3    222     46    226  94.4  89.0  34170  289.75 0855.20
2009/04/23 10:35:20.2     113     75    270    136    302  56.3  71.4  34164  289.63 0855.20
2009/04/23 10:35:20.3     -18     -6    219     19    219 251.4  90.0  34168  289.70 0855.20
2009/04/23 10:35:20.4     109    -51    240    121    268 115.4  71.7  34172  289.77 0855.20
2009/04/23 10:35:20.5     240     18    341    241    417  85.7  61.4  34172  289.77 0855.20
2009/04/23 10:35:20.6     334    167    380    374    533  63.4  50.6  34156  289.50 0855.20
2009/04/23 10:35:20.7     335    112    335    354    487  71.4  48.4  34158  289.55 0855.20
2009/04/23 10:35:20.8     350    142    305    378    485  67.8  43.1  34148  289.38 0855.20
2009/04/23 10:35:20.9     377    119    292    396    492  72.4  40.0  34142  289.26 0855.20
2009/04/23 10:35:21.0     317     44    176    320    365  82.1  31.3  34142  289.26 0855.20
2009/04/23 10:35:21.1     432    112    173    447    479  75.4  22.3  34140  289.23 0855.20
2009/04/23 10:35:21.2     393     41    306    396    500  84.0  41.7  34144  289.30 0855.20
2009/04/23 10:35:21.3     312    118    239    334    410  69.3  39.1  34146  289.32 0855.20
2009/04/23 10:35:21.4     355     89    260    367    449  75.8  38.7  34136  289.17 0855.20
2009/04/23 10:35:21.5     432    169    252    465    528  68.6  30.9  34142  289.25 0855.20
2009/04/23 10:35:21.6     413    256     79    487    494  58.2   9.2  34124  288.95 0855.20
2009/04/23 10:35:21.7     266    146    233    304    383  61.2  41.4  34126  289.01 0855.21
2009/04/23 10:35:21.8     412    142    148    436    461  70.9  18.8  34132  289.09 0855.21
2009/04/23 10:35:21.9     441     80    179    449    483  79.7  23.0  34126  289.01 0855.21
2009/04/23 10:35:22.0     428     54    156    432    459  82.8  20.8  34132  289.09 0855.21
2009/04/23 10:35:22.1     434     84    152    443    469  79.0  18.9  34140  289.24 0855.21
2009/04/23 10:35:22.2     399    112    124    415    434  74.2  16.7  34142  289.26 0855.21
2009/04/23 10:35:22.3     396    160    152    428    454  67.9  20.4  34138  289.19 0855.21
2009/04/23 10:35:22.4     366    129    204    389    439  70.5  30.0  34142  289.26 0855.21
2009/04/23 10:35:22.5     412    117    200    429    473  74.1  26.7  34140  289.22 0855.21
2009/04/23 10:35:22.6     360    142    199    388    436  68.4  29.3  34150  289.39 0855.21
2009/04/23 10:35:22.7     334    235    231    409    469  54.8  32.0  34158  289.55 0855.21
2009/04/23 10:35:22.8     364    186     39    409    411  62.9   5.5  34154  289.48 0855.21
2009/04/23 10:35:22.9     288    250    172    382    418  49.0  26.0  34164  289.65 0855.21
2009/04/23 10:35:23.0     232    364     79    432    440  32.5  10.4  34158  289.55 0855.21
2009/04/23 10:35:23.1     290    273    -15    399    400  46.8  -2.2  34152  289.42 0855.21
2009/04/23 10:35:23.2     231    275    -15    360    361  40.0  -2.5  34164  289.65 0855.21
2009/04/23 10:35:23.3     371    233    -24    439    440  57.9  -3.2  34184  289.99 0855.21
2009/04/23 10:35:23.4     309    236     12    390    391  52.6   1.8  34186  290.01 0855.21
2009/04/23 10:35:23.5     363    260    122    447    464  54.4  15.3  34210  290.41 0855.21
2009/04/23 10:35:23.6     430    219     60    483    487  63.0   7.1  34192  290.10 0855.21
2009/04/23 10:35:23.7     432    185    -15    471    472  66.8  -1.9  34190  290.08 0855.23
2009/04/23 10:35:23.8     268    230     42    354    357  49.4   6.9  34220  290.59 0855.23
2009/04/23 10:35:23.9     370    109     64    386    392  73.6   9.4  34210  290.43 0855.23
2009/04/23 10:35:24.0     317    107    284    335    439  71.3  44.5  34194  290.16 0855.23
2009/04/23 10:35:24.1     290    162    222    333    400  60.7  36.7  34164  289.64 0855.23
2009/04/23 10:35:24.2     330    193    137    383    406  59.6  20.4  34152  289.43 0855.23
2009/04/23 10:35:24.3     279    178    121    332    353  57.5  21.0  34162  289.59 0855.23
2009/04/23 10:35:24.4     291    232    161    373    406  51.4  24.9  34228  290.72 0855.23
2009/04/23 10:35:24.5     274    199    209    339    398  54.0  34.6  34242  290.98 0855.23
2009/04/23 10:35:24.6     218    215    145    307    339  45.3  27.1  34228  290.72 0855.23
2009/04/23 10:35:24.7     269    203    235    338    411  52.9  38.4  34266  291.37 0855.23
2009/04/23 10:35:24.8     309    195     88    366    377  57.8  13.5  34240  290.93 0855.23
2009/04/23 10:35:24.9     150    135    162    203    259  48.0  42.7  34258  291.22 0855.23
2009/04/23 10:35:25.0     157     99    190    186    265  57.6  50.7  34228  290.71 0855.23
2009/04/23 10:35:25.1     231     60    174    239    295  75.4  39.7  34206  290.36 0855.23
2009/04/23 10:35:25.2     202     54    250    210    326  74.9  55.8  34192  290.10 0855.23
2009/04/23 10:35:25.3     263     54    235    269    357  78.3  45.8  34194  290.15 0855.23
2009/04/23 10:35:25.4     191    236    150    304    338  39.0  28.2  34244  290.99 0855.23
2009/04/23 10:35:25.5     340    323    215    469    515  46.5  26.4  34212  290.45 0855.23
2009/04/23 10:35:25.6     378    401    219    552    593  43.3  22.9  34206  290.34 0855.23
2009/04/23 10:35:25.7     367    366    220    519    563  45.1  24.3  34202  290.30 0855.23
2009/04/23 10:35:25.8     380    230    137    445    466  58.8  17.2  34230  290.75 0855.23
2009/04/23 10:35:25.9     489    206    197    531    566  67.2  21.4  34216  290.53 0855.23
2009/04/23 10:35:26.0     488    217    192    534    567  66.0  20.6  34212  290.46 0855.23
2009/04/23 10:35:26.1     435    305    231    532    579  54.9  25.1  34268  291.42 0855.23
2009/04/23 10:35:26.2     238    281    212    369    425  40.2  32.4  34240  290.92 0855.23
2009/04/23 10:35:26.3      35    365    181    367    409   5.6  28.2  34198  290.23 0855.23
2009/04/23 10:35:26.4    -121    158     -7    200    201 322.6  -2.2  34206  290.35 0855.23
2009/04/23 10:35:26.5    -106    158     85    191    209 326.2  25.7  34182  289.96 0855.23
2009/04/23 10:35:26.6    -128    -25      8    131    132 258.6   3.8  34172  289.79 0855.23
2009/04/23 10:35:26.7    -129     41    -19    136    138 287.7  -8.2  34126  288.99 0855.23
2009/04/23 10:35:26.8    -103     81      1    132    133 308.2   0.8  34144  289.30 0855.23
2009/04/23 10:35:26.9    -105    150     10    184    185 325.0   3.1  34158  289.55 0855.23
2009/04/23 10:35:27.0      -6    227     11    228    229 358.4   2.9  34154  289.48 0855.23
2009/04/23 10:35:27.1      89    118     74    148    165  37.0  28.7  34160  289.57 0855.23
2009/04/23 10:35:27.2      70     95     89    119    148  36.5  40.7  34162  289.60 0855.23
2009/04/23 10:35:27.3      88     95     77    130    151  42.8  33.5  34158  289.55 0855.23
2009/04/23 10:35:27.4     222     73     50    234    240  71.8  12.2  34154  289.47 0855.23
2009/04/23 10:35:27.5     316    137    133    345    369  66.5  22.0  34226  290.69 0855.23
2009/04/23 10:35:27.6     387    229    -70    450    456  59.4  -8.9  34182  289.94 0855.23
2009/04/23 10:35:27.7     172    152     43    230    234  48.6  10.6  34210  290.41 0855.22
2009/04/23 10:35:27.8     590    100    231    599    641  80.3  22.2  34162  289.60 0855.22
2009/04/23 10:35:27.9     542    -88    187    550    582  99.2  18.8  34166  289.69 0855.22
2009/04/23 10:35:28.0     362     -5    203    363    415  90.8  31.6  34146  289.35 0855.22
2009/04/23 10:35:28.1     389   -217   -167    446    476 119.1 -25.9  34138  289.20 0855.22
2009/04/23 10:35:28.2     325     24     93    326    340  85.7  16.0  34128  289.04 0855.22
2009/04/23 10:35:28.3     390     66   -125    396    415  80.3 -22.6  34134  289.14 0855.22
2009/04/23 10:35:28.4     429    128   -156    448    475  73.4 -19.3  34154  289.47 0855.22
2009/04/23 10:35:28.5     423     78   -137    431    452  79.5 -22.8  34154  289.48 0855.22
2009/04/23 10:35:28.6     326    202    -74    384    392  58.3 -11.0  34154  289.47 0855.22
2009/04/23 10:35:28.7     374     80    -45    383    386  77.9  -6.8  34146  289.32 0855.21
2009/04/23 10:35:28.8     403     56    -42    407    410  82.1  -6.0  34146  289.33 0855.21
2009/04/23 10:35:28.9     466     65    -24    471    472  82.0  -3.0  34122  288.93 0855.21
2009/04/23 10:35:29.0     418     44     99    421    433  83.9  13.2  34114  288.78 0855.21
2009/04/23 10:35:29.1     455     73    177    461    493  80.9  22.1  34120  288.88 0855.21
2009/04/23 10:35:29.2     459     93     32    469    471  78.5   3.9  34120  288.88 0855.21
2009/04/23 10:35:29.3     447     13     79    448    456  88.3  10.0  34140  289.22 0855.21
2009/04/23 10:35:29.4     228     13     50    229    235  86.5  12.4  34156  289.51 0855.21
2009/04/23 10:35:29.5     194     76    -63    209    218  68.5 -21.7  34170  289.74 0855.21
2009/04/23 10:35:29.6     223     73     72    235    246  71.8  17.1  34170  289.73 0855.21
2009/04/23 10:35:29.7     314      0     70    315    323  90.0  12.6  34164  289.64 0855.21
2009/04/23 10:35:29.8     399     34     63    401    407  85.1   9.0  34160  289.58 0855.21
2009/04/23 10:35:29.9     318     81    101    329    345  75.7  17.0  34162  289.62 0855.21
2009/04/23 10:35:30.0     254     22     50    255    260  85.0  11.1  34142  289.25 0855.21
2009/04/23 10:35:30.1     240     59    -42    248    252  76.1  -9.6  34142  289.25 0855.21
2009/04/23 10:35:30.2     146     69      8    162    163  64.5   2.9  34144  289.30 0855.21
2009/04/23 10:35:30.3     234    106     55    257    263  65.6  12.1  34144  289.31 0855.21
2009/04/23 10:35:30.4     304     91     58    318    324  73.2  10.3  34152  289.42 0855.21
2009/04/23 10:35:30.5     282     81     82    294    306  74.0  15.6  34140  289.24 0855.21
2009/04/23 10:35:30.6     279    239    114    368    386  49.4  17.3  34156  289.50 0855.21
2009/04/23 10:35:30.7     369     74    164    377    411  78.6  25.1  34166  289.67 0855.19
2009/04/23 10:35:30.8     310    100    357    326    483  72.1  53.0  34174  289.82 0855.19
2009/04/23 10:35:30.9      97     91    247    134    281  46.9  69.1  34182  289.95 0855.19
2009/04/23 10:35:31.0     158    305    206    344    400  27.4  33.8  34182  289.93 0855.19
2009/04/23 10:35:31.1     167    245    152    297    333  34.3  29.2  34188  290.03 0855.19
2009/04/23 10:35:31.2     241    186    101    305    322  52.3  18.5  34182  289.95 0855.19
2009/04/23 10:35:31.3    -253     20     18    254    255 274.6   4.2  34186  290.00 0855.19
2009/04/23 10:35:31.4    -192     91    -20    213    215 295.4  -5.4  34190  290.08 0855.19
2009/04/23 10:35:31.5    -166    165     39    235    239 314.9   9.5  34200  290.24 0855.19
2009/04/23 10:35:31.6    -198    130     -5    238    239 303.3  -1.3  34186  290.02 0855.19
2009/04/23 10:35:31.7    -190    207    -15    282    283 317.5  -3.2  34184  289.97 0855.19
2009/04/23 10:35:31.8    -231    185      6    297    298 308.7   1.2  34184  289.98 0855.19
2009/04/23 10:35:31.9    -186     61    -27    196    198 288.2  -8.0  34190  290.09 0855.19
2009/04/23 10:35:32.0    -166    166    132    235    269 315.0  31.6  34198  290.22 0855.19
2009/04/23 10:35:32.1    -199    357     68    409    415 330.9   9.4  34210  290.41 0855.19
2009/04/23 10:35:32.2    -196    267    -26    332    334 323.6  -4.5  34216  290.52 0855.19
2009/04/23 10:35:32.3    -192    129     17    232    233 304.0   4.4  34216  290.52 0855.19
2009/04/23 10:35:32.4    -234    106      8    257    258 294.4   1.8  34214  290.49 0855.19
2009/04/23 10:35:32.5    -219     68    -18    230    231 287.3  -4.6  34178  289.87 0855.19
2009/04/23 10:35:32.6    -255     87     19    270    271 289.0   4.2  34208  290.37 0855.19
2009/04/23 10:35:32.7    -205    184     14    276    277 312.0   2.9  34204  290.31 0855.19
2009/04/23 10:35:32.8    -317    105     53    335    340 288.4   9.0  34244  291.00 0855.19
2009/04/23 10:35:32.9    -288     40    -75    291    301 277.9 -14.5  34246  291.04 0855.19
2009/04/23 10:35:33.0    -258     69    -91    268    284 285.1 -18.7  34202  290.29 0855.19
2009/04/23 10:35:33.1    -178    117     14    214    215 303.3   3.8  34232  290.79 0855.19
2009/04/23 10:35:33.2    -146    186    -18    237    238 321.9  -4.4  34224  290.65 0855.19
2009/04/23 10:35:33.3     162    132     40    210    214  50.9  10.8  34184  289.97 0855.19
2009/04/23 10:35:33.4     255    162    105    303    321  57.6  19.2  34160  289.56 0855.19
2009/04/23 10:35:33.5      62    216    159    225    275  16.0  38.6  34176  289.83 0855.19
2009/04/23 10:35:33.6     208    131    209    246    322  57.8  44.5  34168  289.71 0855.19
2009/04/23 10:35:33.7     369    348    -15    508    509  46.7  -1.8  34170  289.74 0855.19
2009/04/23 10:35:33.8     426    343     56    547    550  51.2   5.9  34172  289.77 0855.19
2009/04/23 10:35:33.9     348    247    -29    428    429  54.6  -3.9  34184  289.99 0855.19
2009/04/23 10:35:34.0     232    236    -66    332    339  44.5 -11.3  34182  289.94 0855.19
2009/04/23 10:35:34.1     210    314    -33    378    380  33.8  -5.1  34166  289.69 0855.19
2009/04/23 10:35:34.2     422    308    102    523    534  53.9  11.1  34168  289.70 0855.19
2009/04/23 10:35:34.3     328    -89    199    340    393 105.2  33.0  34172  289.76 0855.19
2009/04/23 10:35:34.4     279   -159     84    322    333 119.8  14.6  34164  289.65 0855.19
2009/04/23 10:35:34.5     210   -355     12    413    414 149.4   1.8  34172  289.77 0855.19
2009/04/23 10:35:34.6     160   -297    118    338    358 151.7  20.1  34178  289.89 0855.19
2009/04/23 10:35:34.7     323   -214    -42    388    391 123.6  -6.2  34172  289.79 0855.19
2009/04/23 10:35:34.8     337   -224     33    405    407 123.6   4.7  34178  289.87 0855.19
2009/04/23 10:35:34.9     261   -357     28    443    444 143.8   3.7  34180  289.92 0855.19
2009/04/23 10:35:35.0     196   -328     74    383    391 149.1  11.0  34182  289.96 0855.19
2009/04/23 10:35:35.1      68   -365    110    372    389 169.4  16.5  34184  289.98 0855.19
2009/04/23 10:35:35.2     182   -436     96    473    483 157.3  11.6  34182  289.93 0855.19
2009/04/23 10:35:35.3      64   -351     20    357    358 169.7   3.3  34188  290.06 0855.19
2009/04/23 10:35:35.4       0   -486     86    487    495 180.0  10.1  34188  290.06 0855.19
2009/04/23 10:35:35.5     -57   -496     60    500    504 186.6   6.9  34196  290.18 0855.19
2009/04/23 10:35:35.6     -28   -449   -126    450    468 183.6 -15.7  34138  289.19 0855.19
2009/04/23 10:35:35.7    -175   -368   -146    408    433 205.5 -25.1  34164  289.63 0855.19
2009/04/23 10:35:35.8     -68   -357   -143    364    391 190.9 -27.1  34156  289.52 0855.19
2009/04/23 10:35:35.9    -164   -367   -173    402    437 204.1 -29.2  34140  289.24 0855.19
2009/04/23 10:35:36.0    -297   -363   -239    470    527 219.3 -33.5  34160  289.57 0855.19
2009/04/23 10:35:36.1    -424   -343   -176    546    573 231.0 -22.9  34158  289.53 0855.19
2009/04/23 10:35:36.2    -331   -322   -203    463    505 225.8 -29.6  34152  289.42 0855.19
2009/04/23 10:35:36.3    -470   -440   -193    645    673 226.9 -21.6  34162  289.61 0855.19
2009/04/23 10:35:36.5    -315   -372     94    488    498 220.3  11.0  34202  290.27 0855.19
2009/04/23 10:35:36.5    -337   -262    -51    427    431 232.2  -6.8  34198  290.22 0855.19
2009/04/23 10:35:36.6    -324   -172    -62    367    373 242.0  -9.6  34186  290.01 0855.19
2009/04/23 10:35:36.7    -469   -140   -139    490    509 253.4 -20.5  34176  289.83 0855.20
2009/04/23 10:35:36.8    -436   -129   -134    455    475 253.5 -16.4  34142  289.28 0855.20
2009/04/23 10:35:36.9    -470   -110   -133    483    502 256.8 -15.4  34146  289.35 0855.20
2009/04/23 10:35:37.0    -521     21   -155    522    545 272.4 -16.6  34158  289.55 0855.20
2009/04/23 10:35:37.1    -451    -55   -157    455    482 263.0 -19.1  34144  289.30 0855.20
2009/04/23 10:35:37.2    -369    -75   -128    377    398 258.4 -23.7  34146  289.33 0855.20
2009/04/23 10:35:37.3    -298   -182    -21    350    351 238.6  -3.5  34188  290.04 0855.20
2009/04/23 10:35:37.5    -257   -121    -15    285    286 244.8  -3.1  34220  290.59 0855.20
2009/04/23 10:35:37.6    -247   -117    -18    274    275 244.6  -3.9  34214  290.49 0855.20
2009/04/23 10:35:37.7    -339    -35   -102    341    355 264.0 -21.6  34152  289.45 0855.20
2009/04/23 10:35:37.8    -262   -124    -89    290    303 244.7 -21.8  34168  289.71 0855.20
2009/04/23 10:35:37.9    -246     18    -81    247    261 274.3 -18.3  34156  289.51 0855.20
2009/04/23 10:35:38.0    -249    -82    -33    263    266 251.8  -7.3  34188  290.03 0855.20
2009/04/23 10:35:38.1    -212    -84    -72    229    240 248.3 -22.5  34172  289.78 0855.20
2009/04/23 10:35:38.2    -237    -88    -83    253    266 249.6 -23.8  34172  289.78 0855.20
2009/04/23 10:35:38.3    -192   -152    -69    246    255 231.6 -20.0  34174  289.81 0855.20
2009/04/23 10:35:38.4    -185      0   -152    186    240 270.0 -48.1  34150  289.41 0855.20
2009/04/23 10:35:38.5    -312     82   -157    323    359 284.8 -32.3  34162  289.62 0855.20
2009/04/23 10:35:38.6    -371      2   -142    372    398 270.4 -26.4  34158  289.54 0855.20
2009/04/23 10:35:38.7    -358     27   -201    359    411 274.4 -36.0  34138  289.21 0855.20
2009/04/23 10:35:38.8    -298     22    -88    299    312 274.3 -16.4  34174  289.81 0855.22
2009/04/23 10:35:38.9    -243     36   -107    246    268 278.6 -29.5  34162  289.61 0855.22
2009/04/23 10:35:39.0    -147      2   -134    148    199 270.9 -51.3  34164  289.65 0855.22
2009/04/23 10:35:39.1    -149    -50   -145    158    214 251.4 -52.1  34166  289.67 0855.22
2009/04/23 10:35:39.2    -304    -36   -206    307    369 263.2 -41.4  34146  289.32 0855.22
2009/04/23 10:35:39.3    -249     74   -255    260    364 286.6 -54.1  34152  289.42 0855.22
2009/04/23 10:35:39.4    -215      3   -174    216    277 270.9 -47.4  34168  289.70 0855.22
2009/04/23 10:35:39.5    -202    -36   -211    206    294 259.9 -55.1  34150  289.39 0855.22
2009/04/23 10:35:39.6    -110     70   -193    131    233 302.4 -67.1  34148  289.38 0855.22
2009/04/23 10:35:39.7     -78    -46   -125     91    154 239.3 -64.9  34154  289.48 0855.22
2009/04/23 10:35:39.8     -39    -62   -137     74    155 212.5 -73.3  34172  289.79 0855.22
2009/04/23 10:35:39.9     -34   -116   -128    121    176 196.5 -56.4  34182  289.96 0855.22
2009/04/23 10:35:40.0     -49   -117   -103    127    163 202.7 -47.7  34200  290.25 0855.22
2009/04/23 10:35:40.1     -44   -217   -141    222    262 191.5 -39.9  34202  290.27 0855.22
2009/04/23 10:35:40.2     -30   -239   -112    241    265 187.3 -31.4  34176  289.85 0855.22
2009/04/23 10:35:40.3     -17   -226   -122    227    257 184.5 -35.0  34176  289.83 0855.22
2009/04/23 10:35:40.4     -17   -380    -87    381    391 182.6 -12.9  34170  289.74 0855.22
2009/04/23 10:35:40.5     -60   -349   -129    355    377 189.9 -25.3  34172  289.77 0855.22
2009/04/23 10:35:40.6     -76   -366   -122    374    393 191.8 -23.2  34162  289.60 0855.22
2009/04/23 10:35:40.7    -151   -284   -109    322    339 208.1 -23.6  34172  289.77 0855.22
2009/04/23 10:35:40.8    -103   -473      6    485    486 192.4   0.7  34170  289.73 0855.26
2009/04/23 10:35:40.9     -68   -402    -67    408    414 189.6  -9.3  34164  289.63 0855.26
2009/04/23 10:35:41.0     -50   -285   -107    290    309 190.0 -25.4  34152  289.44 0855.26
2009/04/23 10:35:41.1      10   -223    -78    224    237 177.4 -24.4  34154  289.47 0855.26
2009/04/23 10:35:41.2     -92   -320    -22    334    335 196.1  -3.8  34152  289.42 0855.26
2009/04/23 10:35:41.3       0   -336    -35    337    339 180.0  -6.1  34152  289.42 0855.26
2009/04/23 10:35:41.4      96   -316     62    331    337 163.1  10.7  34154  289.48 0855.26
2009/04/23 10:35:41.5     143   -346     55    375    380 157.6   8.3  34152  289.42 0855.26
2009/04/23 10:35:41.6     110   -305    124    325    347 160.2  21.8  34154  289.47 0855.26
2009/04/23 10:35:41.7      57   -309    167    315    356 169.5  30.2  34154  289.48 0855.26
2009/04/23 10:35:41.8      38   -304    238    307    388 172.8  41.7  34148  289.38 0855.26
2009/04/23 10:35:41.9     -15   -341    189    342    390 182.6  31.4  34148  289.38 0855.26
2009/04/23 10:35:42.0      -4   -354    114    355    373 180.7  17.8  34150  289.40 0855.26
2009/04/23 10:35:42.1      -6   -348    126    349    371 181.0  20.7  34152  289.45 0855.26
2009/04/23 10:35:42.2      66   -334    121    341    361 168.8  20.2  34152  289.42 0855.26
2009/04/23 10:35:42.3     129   -284    158    313    350 155.5  28.7  34152  289.42 0855.26
2009/04/23 10:35:42.4     182   -284    137    338    364 147.4  23.4  34150  289.40 0855.26
2009/04/23 10:35:42.5     182   -332    110    379    395 151.2  16.3  34152  289.42 0855.26
2009/04/23 10:35:42.6     185   -277    119    334    354 146.2  20.4  34148  289.37 0855.26
2009/04/23 10:35:42.7     148   -242    255    284    381 148.6  46.5  34152  289.42 0855.26
2009/04/23 10:35:42.8     106   -237    163    260    306 155.9  35.5  34142  289.27 0855.27
2009/04/23 10:35:42.9      57   -232    163    239    289 166.2  37.6  34146  289.32 0855.27
2009/04/23 10:35:43.0      16   -237    145    238    278 176.0  34.2  34142  289.25 0855.27
2009/04/23 10:35:43.1      94   -133     90    163    186 144.8  31.3  34154  289.46 0855.27
2009/04/23 10:35:43.2      15   -163    110    164    197 174.7  37.3  34154  289.46 0855.27
2009/04/23 10:35:43.3     103    -18    141    105    175 100.1  59.8  34154  289.46 0855.27
2009/04/23 10:35:43.4      29     -9    104     31    108 108.4  83.3  34154  289.48 0855.27
2009/04/23 10:35:43.5      -2   -150    146    151    210 180.9  49.4  34144  289.31 0855.27
2009/04/23 10:35:43.6      11   -145     91    146    172 175.6  35.0  34144  289.31 0855.27
2009/04/23 10:35:43.7       1   -281    132    282    311 179.8  27.1  34140  289.24 0855.27
2009/04/23 10:35:43.8    -200   -272    124    338    360 216.3  21.0  34174  289.82 0855.27
2009/04/23 10:35:43.9    -231   -270    188    356    402 220.5  30.1  34178  289.86 0855.27
2009/04/23 10:35:44.0    -405   -117    183    422    459 253.9  25.1  34178  289.88 0855.27
2009/04/23 10:35:44.1    -272   -344    150    439    465 218.3  18.9  34166  289.66 0855.27
2009/04/23 10:35:44.2    -354   -223     20    419    420 237.8   2.8  34178  289.88 0855.27
2009/04/23 10:35:44.3    -127   -375    172    397    432 198.8  25.0  34166  289.68 0855.27
2009/04/23 10:35:44.4    -176   -282     55    333    338 211.9   9.4  34168  289.71 0855.27
2009/04/23 10:35:44.5    -109   -213      6    240    241 207.2   1.6  34168  289.70 0855.27
2009/04/23 10:35:44.6    -196   -383     37    431    433 207.1   5.0  34164  289.63 0855.27
2009/04/23 10:35:44.7    -272   -428    149    508    530 212.5  16.4  34158  289.55 0855.27
2009/04/23 10:35:44.8    -151   -411    184    439    476 200.2  24.1  34152  289.43 0855.27
2009/04/23 10:35:44.9     -44   -404    146    407    432 186.3  20.7  34154  289.46 0855.27
2009/04/23 10:35:45.0     -84   -382    235    392    457 192.4  33.7  34160  289.58 0855.27
2009/04/23 10:35:45.1     -23   -347    182    348    392 183.9  29.8  34150  289.40 0855.27
2009/04/23 10:35:45.2     -40   -312    166    315    356 187.3  30.1  34154  289.47 0855.27
2009/04/23 10:35:45.3    -172   -270    207    321    381 212.6  35.6  34154  289.48 0855.27
2009/04/23 10:35:45.4     -25   -207    255    209    329 187.1  56.4  34150  289.41 0855.27
2009/04/23 10:35:45.5      31   -117    221    122    252 164.9  68.8  34152  289.45 0855.27
2009/04/23 10:35:45.6     -18   -214    178    215    279 184.9  43.8  34152  289.44 0855.27
2009/04/23 10:35:45.7      69   -178    158    191    247 158.8  43.7  34152  289.45 0855.27
2009/04/23 10:35:45.8     200    -77    116    215    244 111.1  30.6  34154  289.46 0855.27
2009/04/23 10:35:45.9     168   -143     94    221    240 130.4  24.3  34156  289.49 0855.27
2009/04/23 10:35:46.0     149   -250    173    292    339 149.3  33.5  34150  289.39 0855.27
2009/04/23 10:35:46.1      12   -224    189    225    293 176.9  44.1  34146  289.34 0855.27
2009/04/23 10:35:46.2     -21   -271    100    272    289 184.5  21.0  34140  289.24 0855.27
2009/04/23 10:35:46.3     -35   -345     94    347    360 185.9  15.1  34146  289.35 0855.27
2009/04/23 10:35:46.4     193   -440    121    481    497 156.3  14.2  34138  289.20 0855.27
2009/04/23 10:35:46.5     243   -389    162    459    488 148.0  19.5  34126  289.00 0855.27
2009/04/23 10:35:46.6     135   -344    139    370    395 158.5  21.5  34132  289.10 0855.27
2009/04/23 10:35:46.7     228   -345    121    414    432 146.5  16.4  34136  289.17 0855.27
2009/04/23 10:35:46.8     160   -390    148    422    448 157.6  19.3  34134  289.14 0855.26
2009/04/23 10:35:46.9     123   -344    139    366    391 160.2  22.0  34136  289.16 0855.26
2009/04/23 10:35:47.0     104   -315    109    332    350 161.7  18.2  34136  289.16 0855.26
2009/04/23 10:35:47.1      69   -240    110    250    273 164.0  25.2  34138  289.19 0855.26
2009/04/23 10:35:47.2      79   -187      8    204    205 157.1   2.5  34136  289.18 0855.26
2009/04/23 10:35:47.3     106   -225    -67    249    259 154.7 -15.2  34142  289.25 0855.26
2009/04/23 10:35:47.4     172   -221    -23    281    283 142.1  -4.9  34144  289.29 0855.26
2009/04/23 10:35:47.5     168   -200    -67    262    271 139.9 -14.4  34148  289.36 0855.26
2009/04/23 10:35:47.6      40   -278     50    281    286 171.8  10.1  34146  289.34 0855.26
2009/04/23 10:35:47.7     -53   -280     18    286    287 190.7   3.8  34144  289.31 0855.26
2009/04/23 10:35:47.8      70   -309     45    318    322 167.1   8.1  34144  289.31 0855.26
2009/04/23 10:35:47.9     145   -282     77    318    328 152.8  13.7  34146  289.32 0855.26
2009/04/23 10:35:48.0     233   -293    145    375    402 141.5  22.3  34134  289.13 0855.26
2009/04/23 10:35:48.1     222   -311    112    383    400 144.5  16.3  34142  289.28 0855.26
2009/04/23 10:35:48.2     231   -300    132    379    402 142.4  19.2  34136  289.15 0855.26
2009/04/23 10:35:48.3     178   -234    102    295    313 142.8  19.2  34132  289.10 0855.26
2009/04/23 10:35:48.4     112   -269    189    292    347 157.3  35.7  34136  289.16 0855.26
2009/04/23 10:35:48.5      55   -251    159    258    303 167.6  34.8  34134  289.14 0855.26
2009/04/23 10:35:48.6      18   -183    151    184    238 174.2  43.7  34134  289.14 0855.26
2009/04/23 10:35:48.7     -39   -170    134    175    220 193.1  41.4  34142  289.28 0855.26
2009/04/23 10:35:48.8     -58   -178    142    188    235 198.0  40.9  34146  289.35 0855.25
2009/04/23 10:35:48.9     -75   -160    115    177    211 205.2  35.7  34148  289.36 0855.25
2009/04/23 10:35:49.0     -59   -218    189    226    294 195.2  43.8  34142  289.25 0855.25
2009/04/23 10:35:49.1     -72   -355    219    363    423 191.6  34.1  34142  289.26 0855.25
2009/04/23 10:35:49.2    -273    -99    119    291    314 250.1  23.6  34156  289.49 0855.25
2009/04/23 10:35:49.3    -169   -266    130    316    341 212.5  23.7  34146  289.32 0855.25
2009/04/23 10:35:49.4     -87   -303     62    316    323 196.0  11.1  34144  289.31 0855.25
2009/04/23 10:35:49.5     -68   -238     50    248    253 196.0  11.4  34142  289.25 0855.25
2009/04/23 10:35:49.6     -25   -259    -34    261    264 185.6  -7.5  34144  289.31 0855.25
2009/04/23 10:35:49.7    -106   -242    -77    265    275 203.6 -21.0  34140  289.22 0855.25
2009/04/23 10:35:49.8    -296    -71     26    305    307 256.5   4.9  34142  289.25 0855.24
2009/04/23 10:35:49.9    -197    124     43    233    237 302.2  10.6  34148  289.37 0855.24
2009/04/23 10:35:50.0    -152    214    -28    263    265 324.6  -6.1  34140  289.24 0855.24
2009/04/23 10:35:50.1    -131    149    -43    199    204 318.6 -12.4  34138  289.19 0855.24
2009/04/23 10:35:50.2    -237    -65   -196    246    314 254.5 -47.1  34138  289.19 0855.24
2009/04/23 10:35:50.3    -156     -7   -195    157    250 267.4 -61.3  34140  289.24 0855.24
2009/04/23 10:35:50.4    -251    -50   -222    257    339 258.6 -49.6  34144  289.31 0855.24
2009/04/23 10:35:50.5    -230   -112   -216    256    334 244.0 -48.8  34150  289.39 0855.24
2009/04/23 10:35:50.6    -219    -65   -234    229    327 253.4 -55.1  34152  289.42 0855.24
2009/04/23 10:35:50.7     -90    -23   -179     93    201 255.4 -75.0  34152  289.45 0855.24
2009/04/23 10:35:50.8    -124    -57   -156    137    207 245.2 -58.7  34160  289.57 0855.24
2009/04/23 10:35:50.9     -86    -49   -156    100    185 240.2 -69.0  34156  289.52 0855.24
2009/04/23 10:35:51.0      31    -49   -144     59    155 147.4 -81.4  34160  289.57 0855.24
2009/04/23 10:35:51.1      60     52   -119     80    143  48.7 -67.6  34166  289.67 0855.24
2009/04/23 10:35:51.2      67     58   -135     89    161  49.1 -67.8  34164  289.65 0855.24
2009/04/23 10:35:51.3     104      7   -115    105    155  85.7 -56.6  34162  289.60 0855.24
2009/04/23 10:35:51.4     163    -48    -79    170    187 106.4 -31.4  34154  289.48 0855.24
2009/04/23 10:35:51.5     210    -36   -104    214    237  99.7 -32.4  34154  289.46 0855.24
2009/04/23 10:35:51.6     313     54    -96    318    332  80.1 -21.7  34144  289.31 0855.24
2009/04/23 10:35:51.7     261    -57     30    268    270 102.4   6.5  34140  289.22 0855.24
2009/04/23 10:35:51.8     256    -36     84    259    273  98.0  17.9  34136  289.17 0855.24
2009/04/23 10:35:51.9     323   -157     62    360    366 115.9   9.9  34144  289.30 0855.24
2009/04/23 10:35:52.0     231   -197    110    304    323 130.4  20.8  34144  289.31 0855.24
2009/04/23 10:35:52.1     145   -284    118    320    341 152.9  21.1  34142  289.28 0855.24
2009/04/23 10:35:52.2     135   -198     80    240    254 145.7  18.5  34146  289.34 0855.24
2009/04/23 10:35:52.3     159   -173     61    236    244 137.5  14.7  34146  289.34 0855.24
2009/04/23 10:35:52.4     109   -171     70    203    215 147.5  19.2  34146  289.33 0855.24
2009/04/23 10:35:52.5      54   -182     37    191    195 163.3  11.1  34144  289.30 0855.24
2009/04/23 10:35:52.6      57   -345    252    350    431 170.6  39.5  34146  289.33 0855.24
2009/04/23 10:35:52.7      39   -234    252    238    346 170.4  52.0  34154  289.46 0855.24
2009/04/23 10:35:52.8     -29   -197    188    200    274 188.5  48.0  34154  289.46 0855.24
2009/04/23 10:35:52.9     -82   -221    117    237    264 200.5  28.2  34150  289.41 0855.24
2009/04/23 10:35:53.0     -49   -172     56    180    189 196.0  17.3  34152  289.45 0855.24
2009/04/23 10:35:53.1      13   -120     48    121    130 173.7  22.5  34150  289.41 0855.24
2009/04/23 10:35:53.2     -33    -83     41     90     98 201.8  26.2  34158  289.55 0855.24
2009/04/23 10:35:53.3     -71    -69     45    100    109 226.0  26.2  34158  289.55 0855.24
2009/04/23 10:35:53.4     -79    -74    -14    109    110 226.8  -7.3  34158  289.53 0855.24
2009/04/23 10:35:53.5     -52   -119     75    131    150 203.7  32.4  34156  289.52 0855.24
2009/04/23 10:35:53.6    -170   -132     79    216    229 232.0  20.9  34160  289.57 0855.24
2009/04/23 10:35:53.7    -208   -229    117    310    331 222.3  21.6  34152  289.44 0855.24
2009/04/23 10:35:53.8    -213   -194     80    289    301 227.6  15.6  34152  289.42 0855.25
2009/04/23 10:35:53.9    -242   -241    182    342    387 225.1  30.3  34154  289.47 0855.25
2009/04/23 10:35:54.0    -242   -371     92    444    454 213.1  11.8  34142  289.26 0855.25
2009/04/23 10:35:54.1       4   -241    161    242    290 179.0  36.5  34154  289.47 0855.25
2009/04/23 10:35:54.2      36   -209    137    213    253 170.2  35.6  34146  289.34 0855.25
2009/04/23 10:35:54.3    -145   -153    173    212    273 223.4  43.5  34150  289.41 0855.25
2009/04/23 10:35:54.4    -171   -269    175    320    364 212.5  31.3  34152  289.43 0855.25
2009/04/23 10:35:54.5     -13   -282    197    283    344 182.7  38.4  34162  289.59 0855.25
2009/04/23 10:35:54.6     193   -492    180    529    559 158.5  18.8  34138  289.21 0855.25
2009/04/23 10:35:54.7     385   -543    103    666    674 144.7   8.8  34128  289.04 0855.25
2009/04/23 10:35:54.8     210   -610    146    646    663 161.0  12.8  34140  289.22 0855.25
2009/04/23 10:35:54.9     235   -622    120    666    677 159.3  10.2  34122  288.94 0855.25
2009/04/23 10:35:55.0     337   -622    158    708    726 151.5  12.6  34116  288.81 0855.25
2009/04/23 10:35:55.1     326   -579    166    665    686 150.6  14.0  34126  289.00 0855.25
2009/04/23 10:35:55.3     317   -499    315    592    670 147.5  30.3  34126  288.98 0855.25
2009/04/23 10:35:55.3     474   -591    434    758    873 141.3  32.4  34128  289.04 0855.25
2009/04/23 10:35:55.4     398   -636      4    751    752 148.0   0.4  34130  289.06 0855.25
2009/04/23 10:35:55.5     174   -572    -26    599    600 163.1  -2.5  34136  289.15 0855.25
2009/04/23 10:35:55.6     125   -577     61    591    595 167.7   5.9  34128  289.03 0855.25
2009/04/23 10:35:55.7     228   -374     -8    439    440 148.6  -1.2  34134  289.14 0855.25
2009/04/23 10:35:55.8     237   -398    126    464    481 149.2  15.2  34124  288.96 0855.25
2009/04/23 10:35:55.9      72   -260    167    270    317 164.4  34.6  34134  289.14 0855.25
2009/04/23 10:35:56.0      75   -244     45    256    261 162.8  10.0  34142  289.25 0855.25
2009/04/23 10:35:56.1      22   -289     12    290    291 175.6   2.5  34138  289.19 0855.25
2009/04/23 10:35:56.3     155   -346    -48    380    384 155.8  -7.2  34144  289.30 0855.25
2009/04/23 10:35:56.4      64   -364    -20    370    371 169.9  -3.1  34146  289.32 0855.25
2009/04/23 10:35:56.4    -112   -320    -15    340    341 199.3  -2.6  34150  289.40 0855.25
2009/04/23 10:35:56.5     -27   -238    -52    240    246 186.7 -12.4  34154  289.47 0855.25
2009/04/23 10:35:56.6    -154   -313     67    349    356 206.2  11.0  34162  289.59 0855.25
2009/04/23 10:35:56.7      39   -366     31    369    371 173.8   4.9  34152  289.43 0855.25
2009/04/23 10:35:56.8     129   -479     -2    497    498 164.9  -0.3  34142  289.25 0855.25
2009/04/23 10:35:56.9     130   -462    -18    481    482 164.2  -2.2  34146  289.34 0855.25
2009/04/23 10:35:57.0     113   -472     94    486    496 166.5  11.0  34136  289.15 0855.25
2009/04/23 10:35:57.1    -119   -176   -181    213    279 214.3 -49.2  34154  289.46 0855.25
2009/04/23 10:35:57.2    -169   -225   -220    282    357 217.0 -46.3  34174  289.82 0855.25
2009/04/23 10:35:57.3     -17   -227   -128    228    261 184.5 -36.3  34172  289.76 0855.25
2009/04/23 10:35:57.4     -40   -137   -121    143    187 196.5 -48.9  34176  289.85 0855.25
2009/04/23 10:35:57.5       6   -174   -133    175    219 178.0 -45.6  34166  289.67 0855.25
2009/04/23 10:35:57.6      60   -340   -160    346    381 169.9 -31.3  34164  289.65 0855.25
2009/04/23 10:35:57.7      97   -345   -186    359    404 164.3 -33.8  34162  289.62 0855.25
2009/04/23 10:35:57.8     170   -351    -79    391    399 154.1 -11.5  34152  289.42 0855.25
2009/04/23 10:35:57.9     148   -230    -91    274    288 147.3 -23.8  34150  289.41 0855.25
2009/04/23 10:35:58.0     132   -215    -88    253    267 148.4 -24.3  34156  289.51 0855.25
2009/04/23 10:35:58.1     117   -291    -55    314    319 158.1 -10.1  34156  289.51 0855.25
2009/04/23 10:35:58.2     204   -356    -79    411    419 150.2 -10.9  34156  289.49 0855.25
2009/04/23 10:35:58.3     136   -390   -139    414    437 160.7 -18.6  34160  289.56 0855.25
2009/04/23 10:35:58.4     221   -372    -85    433    442 149.3 -11.1  34134  289.12 0855.25
2009/04/23 10:35:58.5     235   -369      3    438    439 147.5   0.5  34140  289.22 0855.25
2009/04/23 10:35:58.6     181   -331    -59    378    383 151.4  -9.0  34142  289.25 0855.25
2009/04/23 10:35:58.7     142   -410     61    435    440 160.8   8.0  34138  289.19 0855.25
2009/04/23 10:35:58.8     278   -290    -53    403    407 136.2  -7.6  34144  289.31 0855.25
2009/04/23 10:35:58.9     218   -335    -97    401    413 146.9 -13.7  34140  289.22 0855.25
2009/04/23 10:35:59.0     192   -378     26    425    426 153.0   3.6  34144  289.31 0855.25
2009/04/23 10:35:59.1     198   -322     89    379    390 148.4  13.2  34142  289.25 0855.25
2009/04/23 10:35:59.2     135   -224    114    262    285 149.0  25.1  34142  289.27 0855.25
2009/04/23 10:35:59.3     107   -217    151    242    285 153.7  35.2  34144  289.29 0855.25
2009/04/23 10:35:59.4     222   -194     53    295    300 131.1  10.3  34142  289.27 0855.25
2009/04/23 10:35:59.5     149   -144     10    208    209 134.0   2.8  34146  289.33 0855.25
2009/04/23 10:35:59.6      87   -152     46    176    182 150.1  14.7  34138  289.21 0855.25
2009/04/23 10:35:59.7      35   -149     48    154    162 166.7  17.3  34148  289.36 0855.25
2009/04/23 10:35:59.8      50    -91     28    105    109 151.1  15.3  34146  289.33 0855.27
2009/04/23 10:35:59.9      61    -68     -2     92     93 138.1  -1.8  34148  289.38 0855.27
2009/04/23 10:36:00.0      62    -59    -28     86     90 133.6 -23.8  34152  289.45 0855.27
2009/04/23 10:36:00.1      77    -55    -37     95    101 125.5 -26.9  34158  289.53 0855.27
2009/04/23 10:36:00.2      81    -44    -38     93    100 118.9 -27.5  34154  289.48 0855.27
2009/04/23 10:36:00.3      96    -29      0    101    102 106.8   0.2  34150  289.41 0855.27
2009/04/23 10:36:00.4      65   -102     41    122    129 147.5  18.9  34146  289.35 0855.27
2009/04/23 10:36:00.5     135   -254    -27    288    290 151.9  -5.4  34152  289.42 0855.27
2009/04/23 10:36:00.6     113   -211    -78    240    253 151.9 -18.1  34158  289.53 0855.27
2009/04/23 10:36:00.7     184   -165   -103    248    268 131.8 -28.2  34156  289.49 0855.27
2009/04/23 10:36:00.8     217   -184    -36    285    288 130.4  -7.2  34156  289.51 0855.27
2009/04/23 10:36:00.9     147    -92    -66    174    186 122.2 -26.4  34164  289.63 0855.27
2009/04/23 10:36:01.0      96    -41   -105    105    148 113.5 -54.5  34166  289.69 0855.27
2009/04/23 10:36:01.1     120     16    -66    122    138  82.1 -35.7  34152  289.45 0855.27
2009/04/23 10:36:01.2      40    115    -35    122    126  19.2 -21.2  34156  289.50 0855.27
2009/04/23 10:36:01.3      74      7    -26     75     80  83.9 -19.6  34154  289.46 0855.27
2009/04/23 10:36:01.4      48     17    -40     52     65  70.0 -46.1  34156  289.52 0855.27
2009/04/23 10:36:01.5      74   -203   -162    217    270 160.0 -45.0  34156  289.49 0855.27
2009/04/23 10:36:01.6     -12   -236   -100    237    257 183.1 -28.5  34148  289.36 0855.27
2009/04/23 10:36:01.7     -60   -218    114    227    254 195.6  28.5  34156  289.49 0855.27
2009/04/23 10:36:01.8      -9   -165    176    166    241 183.1  51.6  34158  289.53 0855.28
2009/04/23 10:36:01.9       0   -117    184    118    218 180.0  64.6  34158  289.55 0855.28
2009/04/23 10:36:02.0     141   -286    176    320    365 153.7  31.3  34148  289.38 0855.28
2009/04/23 10:36:02.1     165   -346    146    384    410 154.5  21.8  34148  289.38 0855.28
2009/04/23 10:36:02.2     144   -395     77    421    428 160.0  10.4  34146  289.34 0855.28
2009/04/23 10:36:02.3     139   -372    179    398    436 159.5  25.8  34148  289.36 0855.28
2009/04/23 10:36:02.4      90   -381    168    392    426 166.6  24.6  34148  289.38 0855.28
2009/04/23 10:36:02.5     124   -353    141    375    400 160.6  21.5  34146  289.35 0855.28
2009/04/23 10:36:02.6      42   -407     88    410    420 174.0  12.1  34150  289.39 0855.28
2009/04/23 10:36:02.7      26   -395     61    396    401 176.2   8.8  34152  289.43 0855.28
2009/04/23 10:36:02.8      69   -355     45    362    365 169.0   7.2  34144  289.30 0855.28
2009/04/23 10:36:02.9       5   -312     45    313    317 179.0   8.2  34152  289.42 0855.28
2009/04/23 10:36:03.0     -51   -302     34    307    309 189.7   6.5  34144  289.29 0855.28
2009/04/23 10:36:03.1       5   -289     12    290    291 179.0   2.5  34150  289.41 0855.28
2009/04/23 10:36:03.2     -53   -219     54    226    233 193.6  13.5  34150  289.41 0855.28
2009/04/23 10:36:03.3      10   -164     72    165    180 176.2  25.1  34150  289.41 0855.28
2009/04/23 10:36:03.4      12   -168     38    169    174 175.6  12.9  34152  289.43 0855.28
2009/04/23 10:36:03.5      20   -174     -9    176    177 173.3  -3.1  34152  289.45 0855.28
2009/04/23 10:36:03.6      68   -144     20    160    162 154.7   7.2  34152  289.43 0855.28
2009/04/23 10:36:03.7     162   -151     19    222    223 132.9   5.0  34148  289.38 0855.28
2009/04/23 10:36:03.8     214    -58     72    222    234 105.3  18.1  34146  289.35 0855.28
2009/04/23 10:36:03.9     176    -80     91    194    214 114.6  27.1  34148  289.38 0855.28
2009/04/23 10:36:04.0     153   -104    134    186    229 124.2  39.5  34150  289.40 0855.28
2009/04/23 10:36:04.1      99   -113     78    151    169 138.6  29.3  34146  289.35 0855.28
2009/04/23 10:36:04.2      78   -101     47    128    136 142.2  20.9  34152  289.43 0855.28
2009/04/23 10:36:04.3      15   -146     34    147    152 173.8  13.2  34146  289.35 0855.28
2009/04/23 10:36:04.4      83   -176     44    195    201 154.7  12.9  34138  289.21 0855.28
2009/04/23 10:36:04.5     208   -269     13    341    342 142.3   2.3  34140  289.23 0855.28
2009/04/23 10:36:04.6     141   -342    119    371    390 157.5  17.8  34138  289.21 0855.28
2009/04/23 10:36:04.7     182   -268    113    325    345 145.8  19.3  34146  289.32 0855.28
2009/04/23 10:36:04.8     128   -242    196    274    336 152.1  39.2  34142  289.27 0855.28
2009/04/23 10:36:04.9     237   -168    206    291    356 125.3  38.8  34136  289.16 0855.28
2009/04/23 10:36:05.0     273    -64    263    281    384 103.2  47.9  34144  289.30 0855.28
2009/04/23 10:36:05.1     100   -121     55    158    168 140.4  19.2  34150  289.40 0855.28
2009/04/23 10:36:05.2     163    -95    -84    189    206 120.4 -29.7  34144  289.31 0855.28
2009/04/23 10:36:05.4     160   -156   -173    224    283 134.4 -46.0  34146  289.34 0855.28
2009/04/23 10:36:05.5     187   -212   -154    284    323 138.6 -35.2  34146  289.34 0855.28
2009/04/23 10:36:05.6     171   -172   -115    243    268 135.1 -31.6  34144  289.29 0855.28
2009/04/23 10:36:05.7     118     -4   -122    119    170  92.1 -54.8  34148  289.38 0855.28
2009/04/23 10:36:05.8     -10    -85    -59     86    104 187.1 -42.0  34154  289.48 0855.28
2009/04/23 10:36:05.9     102   -119    -50    157    164 139.5 -23.0  34154  289.48 0855.28
2009/04/23 10:36:06.0     184   -128    -37    225    229 124.9  -9.3  34154  289.48 0855.28
2009/04/23 10:36:06.1     121   -172     -2    211    212 145.0  -0.7  34152  289.45 0855.28
2009/04/23 10:36:06.2      52   -255     92    261    277 168.4  19.4  34150  289.41 0855.28
2009/04/23 10:36:06.3     122   -304     72    328    337 158.1  12.5  34142  289.26 0855.28
2009/04/23 10:36:06.4     143   -319     68    350    357 155.8  11.1  34136  289.18 0855.28
2009/04/23 10:36:06.5     211   -353      3    412    413 149.2   0.5  34140  289.22 0855.28
2009/04/23 10:36:06.6     171   -281     -4    330    331 148.6  -0.7  34142  289.26 0855.28
2009/04/23 10:36:06.7     329   -359    109    488    501 137.5  12.6  34136  289.15 0855.28
2009/04/23 10:36:06.8     245   -486     22    545    546 153.2   2.3  34136  289.16 0855.28
2009/04/23 10:36:06.9     204   -484    113    526    539 157.1  12.2  34134  289.14 0855.28
2009/04/23 10:36:07.0     276   -485    176    559    587 150.4  17.5  34138  289.19 0855.28
2009/04/23 10:36:07.1     238   -449    321    509    601 152.0  35.5  34136  289.17 0855.28
2009/04/23 10:36:07.2     315   -448    -90    548    556 144.9  -9.3  34130  289.07 0855.28
2009/04/23 10:36:07.3     126   -537     79    552    558 166.7   8.2  34144  289.29 0855.28
2009/04/23 10:36:07.4      89   -466     -4    475    476 169.2  -0.5  34146  289.35 0855.28
2009/04/23 10:36:07.5      33   -497    -69    499    504 176.2  -7.9  34142  289.28 0855.28
2009/04/23 10:36:07.6      26   -346     -2    347    348 175.7  -0.5  34146  289.33 0855.28
2009/04/23 10:36:07.7      97   -445     82    456    464 167.6  10.2  34146  289.33 0855.28
2009/04/23 10:36:07.8     184   -452    -94    489    499 157.8 -10.9  34146  289.34 0855.28
2009/04/23 10:36:07.9     268   -367    -58    455    459 143.9  -7.3  34138  289.19 0855.27
2009/04/23 10:36:08.0     231   -361      8    429    430 147.4   1.1  34136  289.16 0855.27
2009/04/23 10:36:08.1     225   -292    -13    369    370 142.4  -2.1  34138  289.20 0855.27
2009/04/23 10:36:08.2     227   -188   -102    296    314 129.6 -19.1  34144  289.31 0855.27
2009/04/23 10:36:08.3     203   -134   -132    244    277 123.5 -35.2  34148  289.36 0855.27
2009/04/23 10:36:08.4     151   -131   -131    201    239 130.9 -40.9  34144  289.30 0855.27
2009/04/23 10:36:08.5     130   -244   -101    277    294 152.0 -25.4  34140  289.24 0855.27
2009/04/23 10:36:08.6     121   -290    -42    315    318 157.3  -7.7  34148  289.36 0855.27
2009/04/23 10:36:08.7     169   -288    -29    335    337 149.6  -5.1  34148  289.38 0855.27
2009/04/23 10:36:08.8     164   -344    -90    382    393 154.5 -13.3  34146  289.32 0855.27
2009/04/23 10:36:08.9      56   -421     21    425    426 172.3   2.9  34144  289.29 0855.27
2009/04/23 10:36:09.0     113   -526    115    539    552 167.9  12.1  34142  289.26 0855.27
2009/04/23 10:36:09.1     135   -455    130    475    493 163.5  15.3  34146  289.34 0855.27
2009/04/23 10:36:09.2      99   -292    105    309    327 161.3  18.8  34146  289.32 0855.27
2009/04/23 10:36:09.3      21   -289     96    290    306 175.8  18.4  34142  289.25 0855.27
2009/04/23 10:36:09.4      66   -246     97    255    272 164.8  22.0  34146  289.32 0855.27
2009/04/23 10:36:09.5     113   -246    125    271    298 155.3  26.6  34146  289.32 0855.27
2009/04/23 10:36:09.6     227   -187    145    295    328 129.5  28.1  34144  289.31 0855.27
2009/04/23 10:36:09.7     249   -204     97    323    338 129.3  16.7  34144  289.30 0855.27
2009/04/23 10:36:09.8     218   -184    133    286    315 130.2  26.6  34146  289.32 0855.27
2009/04/23 10:36:09.9     111   -395     35    411    413 164.2   4.9  34140  289.24 0855.25
2009/04/23 10:36:10.0     134   -376     49    400    404 160.3   7.1  34146  289.32 0855.25
2009/04/23 10:36:10.1      47   -276    -71    281    290 170.2 -14.3  34144  289.31 0855.25
2009/04/23 10:36:10.2     109   -202    -50    230    236 151.5 -12.4  34148  289.37 0855.25
2009/04/23 10:36:10.3     110   -206     17    234    235 151.9   4.4  34144  289.31 0855.25
2009/04/23 10:36:10.4     230   -286    -40    368    371 141.2  -6.3  34140  289.23 0855.25
2009/04/23 10:36:10.5     229   -292     53    372    376 141.9   8.1  34146  289.33 0855.25
2009/04/23 10:36:10.6     219   -331     24    397    398 146.5   3.5  34144  289.30 0855.25
2009/04/23 10:36:10.7     180   -333     54    379    383 151.6   8.1  34138  289.21 0855.25
2009/04/23 10:36:10.8     228   -321     52    394    398 144.6   7.6  34140  289.23 0855.25
2009/04/23 10:36:10.9     279   -315     88    421    431 138.5  11.8  34138  289.19 0855.24
2009/04/23 10:36:11.0     257   -290     60    388    393 138.5   8.9  34146  289.33 0855.24
2009/04/23 10:36:11.1     199   -306     -7    366    367 147.0  -1.1  34146  289.35 0855.24
2009/04/23 10:36:11.2     233   -219     88    321    333 133.2  15.4  34132  289.09 0855.24
2009/04/23 10:36:11.3     274   -230      6    359    360 130.0   1.0  34132  289.11 0855.24
2009/04/23 10:36:11.4     290   -207     -5    357    358 125.5  -0.9  34136  289.15 0855.24
2009/04/23 10:36:11.5     230   -181     41    294    297 128.2   8.0  34136  289.17 0855.24
2009/04/23 10:36:11.6     170   -221    107    279    298 142.4  22.0  34144  289.29 0855.24
2009/04/23 10:36:11.7     157   -277     83    319    330 150.4  14.7  34138  289.19 0855.24
2009/04/23 10:36:11.8     176    -97    -33    202    205 118.9  -9.3  34140  289.24 0855.24
2009/04/23 10:36:11.9     117   -110     97    161    187 133.1  34.2  34144  289.31 0855.24
2009/04/23 10:36:12.0      65   -106    138    125    186 148.4  53.3  34148  289.36 0855.24
2009/04/23 10:36:12.1      31    -66    137     74    155 154.5  68.9  34148  289.38 0855.24
2009/04/23 10:36:12.2     155   -241    232    287    369 147.3  43.3  34146  289.32 0855.24
2009/04/23 10:36:12.3     185   -217    122    286    310 139.5  24.6  34144  289.29 0855.24
2009/04/23 10:36:12.4     184   -195     73    269    279 136.7  15.2  34148  289.36 0855.24
2009/04/23 10:36:12.5     172   -272     58    322    328 147.7  10.3  34146  289.34 0855.24
2009/04/23 10:36:12.6      65   -214     67    224    234 163.0  16.8  34140  289.24 0855.24
2009/04/23 10:36:12.7      83   -152     60    174    185 151.5  19.2  34146  289.33 0855.24
2009/04/23 10:36:12.8     154   -201    120    254    280 142.6  27.1  34134  289.14 0855.24
2009/04/23 10:36:12.9      98   -328    188    343    391 163.4  31.0  34130  289.06 0855.24
2009/04/23 10:36:13.0      80   -387    252    396    469 168.3  35.5  34138  289.19 0855.24
2009/04/23 10:36:13.1      49   -351    266    355    443 172.0  40.6  34146  289.33 0855.24
2009/04/23 10:36:13.2      51   -384    296    388    488 172.4  41.2  34148  289.38 0855.24
2009/04/23 10:36:13.3     116   -431    328    447    554 164.9  39.9  34144  289.31 0855.24
2009/04/23 10:36:13.4      84   -440    321    448    551 169.2  39.1  34140  289.23 0855.24
2009/04/23 10:36:13.5      50   -425    243    428    492 173.2  32.1  34146  289.32 0855.24
2009/04/23 10:36:13.6     200   -467    165    509    536 156.8  18.0  34142  289.26 0855.24
2009/04/23 10:36:13.7      99   -553    197    562    595 169.8  20.0  34134  289.14 0855.24
2009/04/23 10:36:13.8     192   -515    248    550    603 159.5  26.0  34142  289.27 0855.24
2009/04/23 10:36:13.9      85   -462    228    470    522 169.5  27.8  34140  289.23 0855.24
2009/04/23 10:36:14.0     118   -542    154    555    577 167.6  15.6  34148  289.36 0855.24
2009/04/23 10:36:14.1      87   -528    189    536    568 170.6  20.1  34150  289.40 0855.24
2009/04/23 10:36:14.2     140   -585    287    602    666 166.5  27.3  34142  289.25 0855.24
2009/04/23 10:36:14.3     286   -520    203    594    629 151.1  18.9  34138  289.20 0855.24
2009/04/23 10:36:14.4     105   -553    223    563    605 169.2  23.0  34142  289.25 0855.24
2009/04/23 10:36:14.5     118   -517     11    531    532 167.1   1.2  34142  289.26 0855.24
2009/04/23 10:36:14.6     136   -464   -133    484    503 163.6 -15.4  34146  289.32 0855.24
2009/04/23 10:36:14.7     102   -364   -102    379    393 164.3 -15.2  34142  289.26 0855.24
2009/04/23 10:36:14.8     140   -348    135    376    399 158.1  20.6  34136  289.15 0855.24
2009/04/23 10:36:14.9     173   -404    206    440    485 156.8  27.1  34134  289.13 0855.24
2009/04/23 10:36:15.0      71   -502    158    508    533 171.9  17.3  34138  289.21 0855.24
2009/04/23 10:36:15.1     132   -490    169    508    536 164.9  18.5  34142  289.26 0855.24
2009/04/23 10:36:15.2     120   -472    209    488    530 165.7  24.6  34146  289.35 0855.24
2009/04/23 10:36:15.3      61   -476    230    480    532 172.7  27.3  34146  289.32 0855.24
2009/04/23 10:36:15.4     -41   -437    163    440    469 185.4  21.3  34144  289.31 0855.24
2009/04/23 10:36:15.5    -117   -474    119    489    504 193.9  13.7  34146  289.34 0855.24
2009/04/23 10:36:15.6    -217   -431    -31    483    484 206.7  -3.7  34152  289.44 0855.24
2009/04/23 10:36:15.7     -74   -395    -51    403    407 190.7  -7.2  34154  289.48 0855.24
2009/04/23 10:36:15.8      97   -341    -37    355    357 164.1  -6.0  34152  289.42 0855.24
2009/04/23 10:36:15.9     218   -294    -26    367    368 143.4  -4.1  34154  289.47 0855.24
2009/04/23 10:36:16.0     163   -240    -85    291    303 145.7 -21.2  34140  289.22 0855.24
2009/04/23 10:36:16.1     138   -210    -31    252    255 146.6  -7.2  34152  289.44 0855.24
2009/04/23 10:36:16.2      49   -175     -8    182    183 164.2  -2.8  34156  289.50 0855.24
2009/04/23 10:36:16.3      64   -151    -46    165    171 157.1 -20.2  34158  289.53 0855.24
2009/04/23 10:36:16.4      81   -156     -9    176    177 152.6  -3.1  34152  289.45 0855.24
2009/04/23 10:36:16.5     216   -252      2    333    334 139.4   0.5  34154  289.47 0855.24
2009/04/23 10:36:16.6      71   -258     10    268    269 164.6   2.3  34160  289.56 0855.24
2009/04/23 10:36:16.7      20   -182     33    184    188 173.5  10.3  34158  289.55 0855.24
2009/04/23 10:36:16.8     -12   -117    -14    118    119 186.2  -7.2  34162  289.60 0855.24
2009/04/23 10:36:16.9     -43    -56    -51     71     87 217.8 -43.5  34162  289.60 0855.24
2009/04/23 10:36:17.0     -76      0    -64     77    100 270.0 -48.2  34156  289.52 0855.24
2009/04/23 10:36:17.1    -108      8    -70    109    129 274.4 -40.0  34158  289.55 0855.24
2009/04/23 10:36:17.2    -181    -43    -78    187    202 256.5 -28.2  34160  289.57 0855.24
2009/04/23 10:36:17.3    -221   -207    -31    303    305 226.9  -6.0  34152  289.44 0855.24
2009/04/23 10:36:17.4    -194   -131      9    235    236 236.0   2.3  34162  289.61 0855.24
2009/04/23 10:36:17.5    -113   -105     12    155    156 226.9   4.6  34170  289.74 0855.24
2009/04/23 10:36:17.6      21    -78     42     81     91 164.4  29.3  34162  289.62 0855.24
2009/04/23 10:36:17.7      93    -82     49    125    134 131.3  22.0  34158  289.53 0855.24
2009/04/23 10:36:17.8     136   -112     45    177    183 129.5  14.3  34160  289.57 0855.24
2009/04/23 10:36:17.9      32   -217     91    220    238 171.5  23.8  34154  289.48 0855.24
2009/04/23 10:36:18.0     -49   -142     66    151    164 199.2  25.1  34156  289.50 0855.24
2009/04/23 10:36:18.1     -23    -78     69     82    107 196.5  44.3  34162  289.60 0855.24
2009/04/23 10:36:18.2     -75    -36     52     84     98 244.6  35.0  34162  289.60 0855.24
2009/04/23 10:36:18.3     -63    -40     96     75    121 237.5  58.4  34160  289.58 0855.24
2009/04/23 10:36:18.4      45     37     82     59    101  50.5  60.6  34172  289.79 0855.24
2009/04/23 10:36:18.5      42    125     96    133    164  18.7  39.3  34166  289.69 0855.24
2009/04/23 10:36:18.6      32     41    140     53    149  37.8  79.1  34164  289.63 0855.24
2009/04/23 10:36:18.7      -1      0    107      2    107 251.6  90.0  34170  289.75 0855.24
2009/04/23 10:36:18.8     -16     12     74     21     76 307.8  83.9  34162  289.62 0855.24
2009/04/23 10:36:18.9     -22     14    105     27    108 302.5  85.4  34172  289.79 0855.22
2009/04/23 10:36:19.0     -20     20    108     29    111 315.0  84.9  34170  289.74 0855.22
2009/04/23 10:36:19.1     -97    -70    121    120    170 234.1  49.9  34168  289.72 0855.22
2009/04/23 10:36:19.2     -50    -22     61     55     82 245.6  52.7  34170  289.74 0855.22
2009/04/23 10:36:19.3    -105      7     12    106    107 274.3   6.5  34162  289.60 0855.22
2009/04/23 10:36:19.4     -43    -43     57     61     83 225.0  48.5  34166  289.69 0855.22
2009/04/23 10:36:19.5     -71    -82     73    109    131 221.0  37.0  34170  289.75 0855.22
2009/04/23 10:36:19.6    -176    -29     63    179    190 260.5  19.4  34162  289.60 0855.22
2009/04/23 10:36:19.7     -75    -59     64     96    115 231.4  36.0  34168  289.72 0855.22
2009/04/23 10:36:19.8     -21   -104    -20    107    109 191.5 -10.9  34168  289.70 0855.22
2009/04/23 10:36:19.9       6   -147      2    148    149 177.3   0.8  34164  289.65 0855.22
2009/04/23 10:36:20.0     -15   -121     59    122    135 187.1  27.3  34164  289.63 0855.22
2009/04/23 10:36:20.1     -80   -168     66    187    199 205.5  19.4  34156  289.52 0855.22
2009/04/23 10:36:20.2    -132   -155     50    204    211 220.5  13.9  34148  289.38 0855.22
2009/04/23 10:36:20.3    -110   -112     87    158    180 224.5  31.3  34152  289.45 0855.22
2009/04/23 10:36:20.4     -34    -23     96     42    104 235.8  75.0  34172  289.77 0855.22
2009/04/23 10:36:20.5     -12     38    110     40    117 342.2  79.2  34180  289.92 0855.22
2009/04/23 10:36:20.6     -17    162    115    163    199 353.8  38.8  34160  289.57 0855.22
2009/04/23 10:36:20.7    -224    168    230    281    363 306.9  43.6  34162  289.62 0855.22
2009/04/23 10:36:20.8    -290    -54    118    295    317 259.4  22.9  34162  289.59 0855.22
2009/04/23 10:36:20.9    -309   -128     43    335    338 247.4   7.4  34158  289.55 0855.21
2009/04/23 10:36:21.0    -312   -197     65    370    376 237.7  10.0  34154  289.47 0855.21
2009/04/23 10:36:21.1    -391    -45     32    394    396 263.3   4.7  34152  289.45 0855.21
2009/04/23 10:36:21.2    -251    -91    115    268    291 250.0  24.9  34158  289.54 0855.21
2009/04/23 10:36:21.3    -179   -212    190    278    336 220.3  37.7  34166  289.66 0855.21
2009/04/23 10:36:21.4    -333   -266    246    427    492 231.4  32.6  34176  289.83 0855.21
2009/04/23 10:36:21.5    -236   -341    275    415    497 214.7  36.5  34152  289.44 0855.21
2009/04/23 10:36:21.6    -214   -323    295    388    487 213.5  41.1  34150  289.41 0855.21
2009/04/23 10:36:21.7    -215   -396    199    451    492 208.6  25.3  34156  289.50 0855.21
2009/04/23 10:36:21.8    -119   -215    243    247    346 209.0  49.7  34154  289.46 0855.21
2009/04/23 10:36:21.9    -156   -294    212    333    394 208.0  35.5  34152  289.45 0855.21
2009/04/23 10:36:22.0    -161   -326    131    364    386 206.4  20.6  34156  289.50 0855.21
2009/04/23 10:36:22.1     -74   -358    147    366    394 191.7  23.0  34156  289.50 0855.21
2009/04/23 10:36:22.2    -133   -323    172    350    389 202.4  28.0  34156  289.52 0855.21
2009/04/23 10:36:22.3     -82   -265    214    278    350 197.2  41.4  34152  289.42 0855.21
2009/04/23 10:36:22.4     -64   -213    231    223    321 196.9  51.1  34156  289.51 0855.21
2009/04/23 10:36:22.5     -64   -125    229    141    268 207.1  65.4  34166  289.66 0855.21
2009/04/23 10:36:22.6     -37   -207    150    211    258 190.2  39.1  34160  289.56 0855.21
2009/04/23 10:36:22.7     -90   -255    120    271    296 199.4  25.2  34158  289.54 0855.21
2009/04/23 10:36:22.8     -98   -255    130    274    303 201.2  27.2  34156  289.51 0855.21
2009/04/23 10:36:22.9    -115   -261     96    286    302 203.7  18.6  34156  289.51 0855.19
2009/04/23 10:36:23.0     -83   -232    115    247    272 199.8  27.1  34156  289.49 0855.19
2009/04/23 10:36:23.1    -104   -166     94    196    217 212.1  27.3  34150  289.41 0855.19
2009/04/23 10:36:23.2     -69   -205    192    217    289 198.7  45.9  34162  289.61 0855.19
2009/04/23 10:36:23.3      -9   -169    126    170    211 183.1  40.1  34162  289.60 0855.19
2009/04/23 10:36:23.4     -12   -145     12    146    147 184.9   4.9  34158  289.55 0855.19
2009/04/23 10:36:23.5     -57   -153     10    164    165 200.7   3.8  34162  289.62 0855.19
2009/04/23 10:36:23.6    -125   -178     14    218    219 215.2   3.8  34166  289.69 0855.19
2009/04/23 10:36:23.7    -146   -335     -8    366    367 203.6  -1.3  34168  289.71 0855.19
2009/04/23 10:36:23.8    -162   -330     -5    368    369 206.2  -0.9  34162  289.60 0855.19
2009/04/23 10:36:23.9    -168   -253    -39    304    307 213.6  -7.3  34168  289.71 0855.19
2009/04/23 10:36:24.0    -150   -177    -82    233    247 220.3 -24.4  34172  289.76 0855.19
2009/04/23 10:36:24.1     -81   -128    -48    152    160 212.5 -17.6  34172  289.77 0855.19
2009/04/23 10:36:24.2      54      1     56     55     78  88.3  48.2  34166  289.67 0855.19
2009/04/23 10:36:24.3      22    -92    160     95    186 166.2  66.4  34162  289.60 0855.19
2009/04/23 10:36:24.4    -170   -150    151    227    272 228.6  36.5  34162  289.61 0855.19
2009/04/23 10:36:24.5    -172   -136    203    220    299 231.6  47.9  34168  289.70 0855.19
2009/04/23 10:36:24.6     -86   -230    213    246    325 200.5  45.4  34160  289.56 0855.19
2009/04/23 10:36:24.7     -79   -340    188    350    397 193.2  30.6  34158  289.54 0855.19
2009/04/23 10:36:24.8    -166   -288    165    333    371 210.0  28.4  34158  289.54 0855.19
2009/04/23 10:36:24.9     -75   -236     82    248    262 197.8  18.4  34158  289.53 0855.20
2009/04/23 10:36:25.0     -17   -228    210    229    310 184.4  47.5  34156  289.51 0855.20
2009/04/23 10:36:25.1     -56   -238    138    245    281 193.4  31.9  34160  289.58 0855.20
2009/04/23 10:36:25.2    -100   -232    217    253    333 203.4  45.0  34166  289.68 0855.20
2009/04/23 10:36:25.3    -178   -226     45    288    292 218.3   8.9  34162  289.59 0855.20
2009/04/23 10:36:25.4    -207   -230     65    310    317 222.1  12.0  34160  289.58 0855.20
2009/04/23 10:36:25.5    -170   -232     89    288    302 216.3  17.3  34162  289.61 0855.20
2009/04/23 10:36:25.6    -179   -245     62    304    311 216.1  11.6  34166  289.68 0855.20
2009/04/23 10:36:25.7    -143   -232     74    273    284 211.6  15.3  34160  289.56 0855.20
2009/04/23 10:36:25.8    -118   -200     44    233    238 210.5  10.8  34162  289.59 0855.20
2009/04/23 10:36:25.9    -144   -151     25    209    211 223.7   6.9  34160  289.58 0855.20
2009/04/23 10:36:26.0    -100   -137     89    170    191 216.1  29.8  34170  289.74 0855.20
2009/04/23 10:36:26.1     -97    -62    165    116    201 237.1  61.5  34182  289.94 0855.20
2009/04/23 10:36:26.2     -84    -37    125     93    155 246.0  60.0  34184  289.99 0855.20
2009/04/23 10:36:26.3     -45    -15     92     48    103 250.9  69.8  34186  290.01 0855.20
2009/04/23 10:36:26.4     -10    -21    111     24    113 207.2  89.0  34192  290.11 0855.20
2009/04/23 10:36:26.5      -8      6     91     11     91 309.5  90.0  34186  290.02 0855.20
2009/04/23 10:36:26.6     -56     77     95     96    135 323.9  50.5  34174  289.80 0855.20
2009/04/23 10:36:26.7     -30     68    108     75    131 336.4  62.1  34172  289.77 0855.20
2009/04/23 10:36:26.8      -9     92    125     93    155 354.2  60.0  34182  289.94 0855.20
2009/04/23 10:36:26.9     -86     91    145    126    192 316.7  54.8  34174  289.80 0855.21
2009/04/23 10:36:27.0     -89     44    133    100    166 296.2  59.4  34178  289.87 0855.21
2009/04/23 10:36:27.1    -105     60     92    122    152 299.8  40.7  34174  289.80 0855.21
2009/04/23 10:36:27.2     -81     30     66     87    109 290.8  41.2  34172  289.77 0855.21
2009/04/23 10:36:27.3     -15     -4     58     16     60 254.9  84.9  34178  289.87 0855.21
2009/04/23 10:36:27.4     103    -22    114    106    155 102.4  52.2  34176  289.84 0855.21
2009/04/23 10:36:27.5     143     97    174    174    246  55.8  50.1  34170  289.75 0855.21
2009/04/23 10:36:27.6     310     69    201    318    376  77.4  35.5  34166  289.67 0855.21
2009/04/23 10:36:27.7     349     49    178    353    395  81.9  28.9  34168  289.71 0855.21
2009/04/23 10:36:27.8     351     17    219    352    414  87.1  34.9  34168  289.72 0855.21
2009/04/23 10:36:27.9     438     13    176    439    472  88.2  23.0  34146  289.33 0855.21
2009/04/23 10:36:28.0     395     11    244    396    465  88.4  34.6  34158  289.53 0855.21
2009/04/23 10:36:28.1     147    -25    263    150    302  99.6  67.8  34158  289.53 0855.21
2009/04/23 10:36:28.2      38     60    166     72    180  32.5  75.3  34164  289.65 0855.21
2009/04/23 10:36:28.3     226     94     93    245    262  67.4  22.0  34148  289.37 0855.21
2009/04/23 10:36:28.4      19    233    204    234    310   4.9  45.8  34172  289.76 0855.21
2009/04/23 10:36:28.5    -195    109    112    224    250 299.1  28.2  34156  289.49 0855.21
2009/04/23 10:36:28.6     -79   -133    179    155    236 210.8  54.6  34152  289.45 0855.21
2009/04/23 10:36:28.7     -44     65     94     79    122 325.7  55.8  34164  289.65 0855.21
2009/04/23 10:36:28.8    -276    -83      8    289    290 253.2   1.6  34164  289.64 0855.21
2009/04/23 10:36:28.9    -244    -41     48    248    253 260.3  11.0  34152  289.42 0855.20
2009/04/23 10:36:29.0    -248     85     66    263    272 289.1  14.2  34158  289.54 0855.20
2009/04/23 10:36:29.1    -354    -54    -99    359    373 261.2 -15.5  34142  289.26 0855.20
2009/04/23 10:36:29.2    -291   -171   -109    338    355 239.6 -22.9  34144  289.30 0855.20
2009/04/23 10:36:29.3    -185    -83    -34    203    206 245.8  -9.6  34144  289.30 0855.20
2009/04/23 10:36:29.4    -197     16    -58    198    207 274.8 -16.4  34144  289.30 0855.20
2009/04/23 10:36:29.5    -161    -70     16    176    177 246.3   5.4  34142  289.28 0855.20
2009/04/23 10:36:29.6    -168   -142     40    221    225 229.8  10.3  34150  289.40 0855.20
2009/04/23 10:36:29.8      38   -125    142    131    193 163.0  52.2  34146  289.35 0855.20
2009/04/23 10:36:29.8      -7   -226    128    227    260 181.8  31.6  34142  289.25 0855.20
2009/04/23 10:36:29.9      20   -205     78    207    221 174.2  21.5  34140  289.24 0855.20
2009/04/23 10:36:30.0      13   -166     80    167    185 175.5  27.3  34140  289.23 0855.20
2009/04/23 10:36:30.1     -11   -106    106    107    150 186.2  50.0  34144  289.31 0855.20
2009/04/23 10:36:30.2    -113    -65     59    131    143 240.2  25.7  34144  289.31 0855.20
2009/04/23 10:36:30.3    -225    -45    -12    230    231 258.5  -3.2  34140  289.24 0855.20
2009/04/23 10:36:30.4    -238     -3    -75    239    251 269.2 -17.5  34146  289.32 0855.20
2009/04/23 10:36:30.5    -347     83   -170    357    395 283.5 -31.6  34148  289.37 0855.20
2009/04/23 10:36:30.6    -265   -151   -267    306    406 240.3 -50.0  34144  289.30 0855.20
2009/04/23 10:36:30.7    -228   -200    -92    304    318 228.7 -16.9  34150  289.39 0855.20
2009/04/23 10:36:30.8    -413   -142   -165    437    467 250.9 -26.1  34148  289.38 0855.20
2009/04/23 10:36:30.9    -214     30    -43    217    222 278.0 -11.3  34138  289.21 0855.17
2009/04/23 10:36:31.0    -350   -171   -131    390    411 243.9 -23.5  34164  289.65 0855.17
2009/04/23 10:36:31.1    -497    -17   -161    498    523 268.0 -23.0  34170  289.73 0855.17
2009/04/23 10:36:31.2    -508    -24   -121    509    524 267.2 -13.4  34170  289.73 0855.17
2009/04/23 10:36:31.3    -594      8   -166    595    617 270.8 -20.2  34128  289.02 0855.17
2009/04/23 10:36:31.4    -558     18   -145    559    578 271.9 -14.6  34136  289.15 0855.17
2009/04/23 10:36:31.5    -378     21    -35    379    381 273.2  -5.4  34156  289.50 0855.17
2009/04/23 10:36:31.6    -311   -141    -45    342    346 245.5  -7.6  34160  289.57 0855.17
2009/04/23 10:36:31.7    -595     17   -267    596    653 271.7 -30.2  34142  289.26 0855.17
2009/04/23 10:36:31.8    -564     79   -157    570    592 278.0 -15.4  34148  289.37 0855.17
2009/04/23 10:36:31.9    -543    211   -122    583    596 291.3 -11.9  34132  289.10 0855.17
2009/04/23 10:36:32.0    -688     19   -237    689    728 271.6 -24.1  34136  289.18 0855.17
2009/04/23 10:36:32.2    -770     37   -300    772    828 272.8 -26.8  34106  288.67 0855.17
2009/04/23 10:36:32.2    -797     72   -381    801    886 275.2 -31.7  34110  288.73 0855.17
2009/04/23 10:36:32.3    -599    185   -177    628    652 287.2 -20.4  34128  289.04 0855.17
2009/04/23 10:36:32.4    -454     92   -222    464    514 281.5 -31.8  34134  289.13 0855.17
2009/04/23 10:36:32.5    -410    160   -126    441    458 291.4 -20.7  34116  288.83 0855.17
2009/04/23 10:36:32.6    -379     54   -241    383    452 278.1 -39.9  34116  288.83 0855.17
2009/04/23 10:36:32.7    -318     49   -294    322    436 278.8 -51.5  34116  288.84 0855.17
2009/04/23 10:36:32.8    -462    193   -268    501    568 292.7 -34.7  34112  288.75 0855.17
2009/04/23 10:36:32.9    -342     33   -354    344    493 275.6 -55.3  34118  288.85 0855.17
2009/04/23 10:36:33.0    -253     29   -363    255    443 276.6 -66.1  34122  288.94 0855.17
2009/04/23 10:36:33.2    -256    106   -161    278    321 292.6 -37.2  34146  289.32 0855.17
2009/04/23 10:36:33.3     -36    139   -247    144    285 345.3 -71.4  34140  289.22 0855.17
2009/04/23 10:36:33.4       5     75   -258     76    268   4.5 -87.5  34140  289.23 0855.17
2009/04/23 10:36:33.5    -101    137   -172    171    242 323.5 -54.5  34136  289.18 0855.17
2009/04/23 10:36:33.6    -171    -13   -266    172    316 265.4 -68.5  34142  289.27 0855.17
2009/04/23 10:36:33.7    -136      0   -247    137    282 270.4 -73.2  34130  289.05 0855.17
2009/04/23 10:36:33.8    -144    -55   -277    155    317 249.2 -72.8  34118  288.85 0855.17
2009/04/23 10:36:33.9    -381    222   -280    442    523 300.3 -39.9  34130  289.08 0855.17
2009/04/23 10:36:34.0    -604    314   -342    681    762 297.5 -33.1  34134  289.14 0855.15
2009/04/23 10:36:34.1    -446    321   -440    550    704 305.7 -47.1  34128  289.04 0855.15
2009/04/23 10:36:34.2    -414     25   -364    415    552 273.5 -50.2  34134  289.12 0855.15
2009/04/23 10:36:34.3    -178      1   -268    179    322 270.4 -67.7  34136  289.15 0855.15
2009/04/23 10:36:34.4      43    205   -164    210    266  12.0 -46.4  34140  289.22 0855.15
2009/04/23 10:36:34.5     115    373   -182    391    431  17.2 -31.3  34124  288.95 0855.15
2009/04/23 10:36:34.6      46    550   -288    553    623   4.9 -34.2  34130  289.08 0855.15
2009/04/23 10:36:34.7     -43    420   -163    423    453 354.1 -26.6  34132  289.11 0855.15
2009/04/23 10:36:34.8      39    440   -127    442    459   5.1 -20.8  34138  289.21 0855.15
2009/04/23 10:36:34.9     157    320   -177    357    398  26.1 -32.6  34126  289.01 0855.15
2009/04/23 10:36:35.0     199    336   -162    391    423  30.7 -28.2  34124  288.97 0855.15
2009/04/23 10:36:35.1     204    243   -139    318    347  40.1 -29.5  34126  289.01 0855.15
2009/04/23 10:36:35.2       0      0   -220      1    220  90.0 -90.0  34138  289.21 0855.15
2009/04/23 10:36:35.3      31     92   -147     98    176  18.7 -67.8  34138  289.21 0855.15
2009/04/23 10:36:35.4     106    187   -191    216    288  29.6 -50.3  34140  289.22 0855.15
2009/04/23 10:36:35.5     101    292   -239    310    391  19.2 -45.9  34132  289.10 0855.15
2009/04/23 10:36:35.6     113      2   -316    114    335  88.7 -83.9  34138  289.19 0855.15
2009/04/23 10:36:35.7     112   -246   -311    271    412 155.5 -59.0  34138  289.21 0855.15
2009/04/23 10:36:35.8      24     41   -245     48    249  30.7 -90.0  34140  289.23 0855.15
2009/04/23 10:36:35.9      66     55   -163     87    184  50.0 -74.0  34136  289.16 0855.15
2009/04/23 10:36:36.0     122    153   -123    196    231  38.5 -39.9  34128  289.04 0855.19
2009/04/23 10:36:36.1     130    216   -198    253    321  31.0 -46.4  34132  289.09 0855.19
2009/04/23 10:36:36.2     161    253   -100    301    317  32.5 -23.6  34136  289.15 0855.19
2009/04/23 10:36:36.3     137    259    -79    294    305  27.9 -15.2  34136  289.15 0855.19
2009/04/23 10:36:36.4     131    205   -112    244    268  32.6 -31.0  34138  289.19 0855.19
2009/04/23 10:36:36.5     224    263    -15    346    347  40.4  -2.6  34132  289.11 0855.19
2009/04/23 10:36:36.6     293    204    -31    358    360  55.1  -5.1  34136  289.16 0855.19
2009/04/23 10:36:36.7     328    101    -81    344    354  72.8 -13.3  34136  289.18 0855.19
2009/04/23 10:36:36.8     345    256    -38    430    432  53.4  -5.1  34138  289.21 0855.19
2009/04/23 10:36:36.9     457    248    150    521    543  61.5  16.1  34126  289.01 0855.19
2009/04/23 10:36:37.0     431    228    331    488    589  62.1  37.4  34128  289.04 0855.19
2009/04/23 10:36:37.1     416    170    373    450    584  67.8  43.8  34132  289.09 0855.19
2009/04/23 10:36:37.2     419    147    371    445    579  70.6  43.8  34130  289.06 0855.19
2009/04/23 10:36:37.3     349     80    355    359    504  77.1  49.9  34134  289.12 0855.19
2009/04/23 10:36:37.4     343     73    313    351    470  77.8  46.4  34140  289.22 0855.19
2009/04/23 10:36:37.5     264    130    264    295    395  63.8  46.5  34146  289.32 0855.19
2009/04/23 10:36:37.6     275    135    196    307    364  63.8  35.6  34140  289.23 0855.19
2009/04/23 10:36:37.7     261    120    123    288    313  65.2  24.5  34140  289.22 0855.19
2009/04/23 10:36:37.8     145    120    114    189    220  50.4  33.7  34144  289.31 0855.19
2009/04/23 10:36:37.9     105     50    137    117    180  64.2  55.4  34148  289.36 0855.19
2009/04/23 10:36:38.0      36     27     91     46    101  53.1  71.4  34154  289.48 0855.22
2009/04/23 10:36:38.1     123     73     87    144    168  59.3  34.2  34148  289.36 0855.22
2009/04/23 10:36:38.2      79     35     98     87    131  66.0  54.2  34148  289.38 0855.22
2009/04/23 10:36:38.3     -28      2     99     29    103 274.3  83.3  34166  289.69 0855.22
2009/04/23 10:36:38.4      19     31     90     37     97  32.5  77.1  34176  289.84 0855.22
2009/04/23 10:36:38.5     -44    111    126    120    174 338.1  51.2  34194  290.14 0855.22
2009/04/23 10:36:38.6      67     47    175     83    193  54.9  72.9  34176  289.85 0855.22
2009/04/23 10:36:38.7     108     49    160    119    199  65.2  59.8  34160  289.58 0855.22
2009/04/23 10:36:38.8     -19     68    107     71    128 344.0  63.6  34170  289.75 0855.22
2009/04/23 10:36:38.9     -84     14     49     86     98 279.7  31.9  34190  290.09 0855.22
2009/04/23 10:36:39.0      23    -18    145     30    148 127.8  89.0  34164  289.65 0855.22
2009/04/23 10:36:39.1     -11    -35     96     37    102 198.3  78.2  34168  289.70 0855.22
2009/04/23 10:36:39.2     -86   -103    102    135    169 219.6  40.9  34188  290.04 0855.22
2009/04/23 10:36:39.3    -204    -75    120    218    248 249.8  31.4  34180  289.92 0855.22
2009/04/23 10:36:39.4    -155   -102    131    186    227 236.7  38.6  34186  290.01 0855.22
2009/04/23 10:36:39.5    -125   -280    227    307    381 204.1  40.1  34168  289.71 0855.22
2009/04/23 10:36:39.6    -157   -331    232    367    434 205.5  35.5  34158  289.53 0855.22
2009/04/23 10:36:39.7    -201   -404    138    452    473 206.5  17.0  34178  289.88 0855.22
2009/04/23 10:36:39.8     -95   -398     63    410    415 193.5   8.8  34146  289.34 0855.22
2009/04/23 10:36:39.9    -156   -355    119    388    406 203.7  17.1  34136  289.16 0855.22
2009/04/23 10:36:40.0    -131   -300    176    328    372 203.7  30.6  34152  289.43 0855.25
2009/04/23 10:36:40.1    -113   -221    123    249    277 207.1  28.2  34150  289.39 0855.25
2009/04/23 10:36:40.2     -26   -281    189    283    340 185.3  36.9  34148  289.36 0855.25
2009/04/23 10:36:40.3     -14   -244    123    245    274 183.5  28.7  34142  289.27 0855.25
2009/04/23 10:36:40.4     -52   -220    126    227    259 193.3  31.4  34144  289.31 0855.25
2009/04/23 10:36:40.5     -58   -234    189    242    307 194.0  41.7  34148  289.36 0855.25
2009/04/23 10:36:40.6      -9   -209    184    210    279 182.5  45.8  34144  289.31 0855.25
2009/04/23 10:36:40.7     197   -185    192    271    332 133.1  38.8  34148  289.36 0855.25
2009/04/23 10:36:40.8     133   -148    202    200    284 138.1  50.1  34150  289.41 0855.25
2009/04/23 10:36:40.9     -45   -289    159    293    333 188.9  30.9  34142  289.27 0855.25
2009/04/23 10:36:41.0    -110   -397    174    413    448 195.5  24.1  34160  289.56 0855.25
2009/04/23 10:36:41.1     -33   -443    216    445    494 184.3  27.8  34146  289.34 0855.25
2009/04/23 10:36:41.2     -53   -413    236    417    479 187.4  32.0  34142  289.26 0855.25
2009/04/23 10:36:41.3     -45   -352    290    355    458 187.3  43.7  34144  289.31 0855.25
2009/04/23 10:36:41.4       3   -297    282    298    410 179.3  48.2  34142  289.28 0855.25
2009/04/23 10:36:41.5     -24   -314    275    316    418 184.5  45.6  34142  289.25 0855.25
2009/04/23 10:36:41.6     100   -226    246    248    349 156.2  50.1  34156  289.51 0855.25
2009/04/23 10:36:41.7     -28   -380    200    381    430 184.3  30.0  34144  289.29 0855.25
2009/04/23 10:36:41.8       1   -494    346    495    603 179.8  38.5  34150  289.39 0855.25
2009/04/23 10:36:41.9     101   -537    224    547    591 169.3  23.5  34146  289.32 0855.25
2009/04/23 10:36:42.0     -80   -540    143    547    566 188.5  14.7  34146  289.33 0855.24
2009/04/23 10:36:42.1     -67   -585    215    589    627 186.6  21.0  34142  289.26 0855.24
2009/04/23 10:36:42.2    -142   -453    216    475    521 197.4  26.2  34142  289.28 0855.24
2009/04/23 10:36:42.3    -139   -457    179    478    510 196.9  21.5  34142  289.25 0855.24
2009/04/23 10:36:42.4    -152   -409    182    437    473 200.4  23.9  34144  289.31 0855.24
2009/04/23 10:36:42.5      84   -417    149    426    451 168.5  20.0  34146  289.34 0855.24
2009/04/23 10:36:42.6      57   -422     86    426    435 172.2  11.4  34146  289.33 0855.24
2009/04/23 10:36:42.7     -78   -433    123    441    458 190.2  15.6  34148  289.36 0855.24
2009/04/23 10:36:42.8     -21   -363    237    364    434 183.4  36.2  34150  289.39 0855.24
2009/04/23 10:36:42.9     294   -128    156    322    357 113.6  27.8  34148  289.37 0855.24
2009/04/23 10:36:43.0     189   -162    179    250    307 130.7  39.3  34152  289.42 0855.24
2009/04/23 10:36:43.1     152   -251    200    294    355 148.8  37.6  34142  289.28 0855.24
2009/04/23 10:36:43.2      26   -157    185    160    244 170.3  55.0  34146  289.35 0855.24
2009/04/23 10:36:43.3     -85   -155    132    177    220 208.7  40.4  34142  289.28 0855.24
2009/04/23 10:36:43.4      59   -148    160    160    226 158.1  50.1  34144  289.30 0855.24
2009/04/23 10:36:43.5      29    -49    106     58    120 149.3  68.9  34140  289.24 0855.24
2009/04/23 10:36:43.6     -62   -174    187    186    263 199.8  50.1  34146  289.34 0855.24
2009/04/23 10:36:43.7     -74   -298    163    308    348 194.0  30.2  34144  289.30 0855.24
2009/04/23 10:36:43.8    -126   -264     62    293    300 205.5  12.0  34142  289.27 0855.24
2009/04/23 10:36:43.9    -146   -285      0    321    322 207.2   0.0  34140  289.24 0855.24
2009/04/23 10:36:44.0    -120   -363    142    383    408 198.3  21.1  34140  289.23 0855.26
2009/04/23 10:36:44.1      42   -446     71    449    455 174.6   9.0  34142  289.27 0855.26
2009/04/23 10:36:44.2     -48   -455    110    458    472 186.1  13.5  34146  289.35 0855.26
2009/04/23 10:36:44.3    -121   -459     39    475    477 194.8   4.7  34146  289.34 0855.26
2009/04/23 10:36:44.4    -139   -418    -17    441    442 198.5  -2.2  34140  289.22 0855.26
2009/04/23 10:36:44.5       4   -312     11    313    314 179.1   2.1  34132  289.10 0855.26
2009/04/23 10:36:44.6      25   -353    -37    354    356 175.9  -6.0  34138  289.21 0855.26
2009/04/23 10:36:44.7     165   -413    -10    446    447 158.2  -1.4  34144  289.29 0855.26
2009/04/23 10:36:44.8     217   -459    -19    508    509 154.7  -2.2  34136  289.17 0855.26
2009/04/23 10:36:44.9       0   -531    134    532    549 180.1  14.2  34126  289.01 0855.26
2009/04/23 10:36:45.0     -37   -446     51    448    451 184.8   6.6  34116  288.82 0855.26
2009/04/23 10:36:45.1      60   -515    -31    519    520 173.3  -3.5  34120  288.89 0855.26
2009/04/23 10:36:45.2      34   -556     23    558    559 176.5   2.4  34114  288.80 0855.26
2009/04/23 10:36:45.3      98   -659    -68    667    671 171.5  -5.9  34114  288.80 0855.26
2009/04/23 10:36:45.4      25   -555   -156    556    577 177.4 -20.3  34114  288.80 0855.26
2009/04/23 10:36:45.5     208   -491   -119    534    548 157.1 -12.6  34108  288.69 0855.26
2009/04/23 10:36:45.6      14   -595    -76    596    601 178.6  -7.3  34122  288.92 0855.26
2009/04/23 10:36:45.7     118   -679     55    690    693 170.1   4.6  34118  288.85 0855.26
2009/04/23 10:36:45.8    -165   -825    -91    842    848 191.3  -6.2  34130  289.05 0855.26
2009/04/23 10:36:45.9       5   -974   -168    975    990 179.7  -9.8  34114  288.80 0855.26
2009/04/23 10:36:46.0      22   -643   -119    644    655 178.0 -10.5  34116  288.82 0855.27
2009/04/23 10:36:46.1      82   -743   -164    748    766 173.7 -12.4  34118  288.87 0855.27
2009/04/23 10:36:46.2     -64   -821   -135    824    836 184.5  -9.3  34116  288.82 0855.27
2009/04/23 10:36:46.3     -32   -658   -195    659    688 182.8 -16.5  34116  288.83 0855.27
2009/04/23 10:36:46.4    -122   -604   -119    617    629 191.5 -11.0  34120  288.91 0855.27
2009/04/23 10:36:46.5     154   -622    -89    641    648 166.1  -7.9  34118  288.86 0855.27
2009/04/23 10:36:46.6      92   -522    -71    531    536 170.0  -7.7  34126  289.01 0855.27
2009/04/23 10:36:46.7      89   -340   -129    352    374 165.3 -25.4  34120  288.88 0855.27
2009/04/23 10:36:46.8     190   -521    -41    555    557 159.9  -4.2  34122  288.94 0855.27
2009/04/23 10:36:46.9     200   -456     77    499    505 156.3   8.8  34120  288.88 0855.27
2009/04/23 10:36:47.0     301   -527    171    607    631 150.3  15.8  34118  288.87 0855.27
2009/04/23 10:36:47.1     326   -457     47    562    565 144.5   4.9  34118  288.85 0855.27
2009/04/23 10:36:47.2     299   -466    -21    555    556 147.3  -2.2  34126  288.99 0855.27
2009/04/23 10:36:47.3     308   -454    -23    549    550 145.8  -2.5  34132  289.11 0855.27
2009/04/23 10:36:47.4     313   -441     38    542    544 144.6   4.0  34094  288.47 0855.27
2009/04/23 10:36:47.5     305   -477     36    567    569 147.4   3.7  34102  288.60 0855.27
2009/04/23 10:36:47.6     282   -426     34    512    514 146.5   3.8  34110  288.74 0855.27
2009/04/23 10:36:47.7     240   -484     96    541    550 153.6  10.1  34110  288.74 0855.27
2009/04/23 10:36:47.8     124   -381    178    401    438 161.9  25.3  34118  288.87 0855.27
2009/04/23 10:36:47.9     158   -434    172    463    493 160.0  21.4  34128  289.03 0855.27
2009/04/23 10:36:48.0     108   -631     71    641    646 170.3   6.4  34126  288.98 0855.26
2009/04/23 10:36:48.1      44   -678    133    680    694 176.3  11.1  34126  289.00 0855.26
2009/04/23 10:36:48.2      31   -621    114    622    633 177.1  10.4  34122  288.93 0855.26
2009/04/23 10:36:48.3     157   -600     55    621    624 165.3   5.1  34116  288.84 0855.26
2009/04/23 10:36:48.4     144   -491    125    512    528 163.6  13.8  34124  288.96 0855.26
2009/04/23 10:36:48.5      50   -484    177    487    518 174.0  20.9  34120  288.91 0855.26
2009/04/23 10:36:48.6     -31   -607    234    608    651 183.0  22.2  34124  288.96 0855.26
2009/04/23 10:36:48.7     -32   -596    237    597    642 183.1  22.9  34124  288.96 0855.26
2009/04/23 10:36:48.8     -25   -543    154    544    566 182.7  15.8  34130  289.06 0855.26
2009/04/23 10:36:48.9      10   -578    146    579    598 179.0  14.2  34126  288.98 0855.26
2009/04/23 10:36:49.0     -27   -579    267    580    638 182.7  26.5  34124  288.96 0855.26
2009/04/23 10:36:49.1     -25   -550    253    551    606 182.7  26.4  34130  289.08 0855.26
2009/04/23 10:36:49.2     159   -552    223    575    616 163.9  22.4  34128  289.03 0855.26
2009/04/23 10:36:49.3     -89   -690    136    696    710 187.4  11.1  34124  288.96 0855.26
2009/04/23 10:36:49.4     -77   -541    133    547    563 188.1  13.7  34122  288.94 0855.26
2009/04/23 10:36:49.5      53   -623    113    626    637 175.1  10.2  34112  288.77 0855.26
2009/04/23 10:36:49.6     -34   -661   -110    662    672 183.0  -9.5  34126  288.99 0855.26
2009/04/23 10:36:49.7     -20   -514   -181    515    547 182.3 -19.4  34122  288.92 0855.26
2009/04/23 10:36:49.8       2   -447    -63    448    453 179.7  -8.0  34118  288.85 0855.26
2009/04/23 10:36:49.9     -68   -538   -114    543    555 187.2 -11.9  34132  289.09 0855.26
2009/04/23 10:36:50.0    -112   -506    -41    519    521 192.5  -4.6  34126  288.99 0855.25
2009/04/23 10:36:50.1    -107   -344   -132    361    384 197.3 -25.4  34152  289.42 0855.25
2009/04/23 10:36:50.2    -237   -227   -283    329    433 226.2 -49.6  34142  289.26 0855.25
2009/04/23 10:36:50.3    -302   -132   -163    330    368 246.3 -32.5  34166  289.67 0855.25
2009/04/23 10:36:50.4    -180   -323    -44    371    374 209.2  -6.8  34164  289.64 0855.25
2009/04/23 10:36:50.5    -182   -277     80    332    342 213.4  13.6  34142  289.28 0855.25
2009/04/23 10:36:50.6    -183   -167     51    249    255 227.6  11.6  34146  289.34 0855.25
2009/04/23 10:36:50.7    -130   -273     28    303    305 205.5   5.4  34132  289.10 0855.25
2009/04/23 10:36:50.8     -92   -387     29    398    400 193.4   4.2  34132  289.11 0855.25
2009/04/23 10:36:50.9      25   -390    156    391    420 176.2  23.0  34130  289.05 0855.25
2009/04/23 10:36:51.0    -153   -266    205    307    369 209.9  36.9  34132  289.10 0855.25
2009/04/23 10:36:51.1      76   -240    -70    252    262 162.4 -15.5  34132  289.10 0855.25
2009/04/23 10:36:51.2     -13   -476     35    477    479 181.6   4.2  34136  289.15 0855.25
2009/04/23 10:36:51.3    -195   -297     -1    356    357 213.3  -0.2  34136  289.18 0855.25
2009/04/23 10:36:51.4    -250   -244    -91    350    362 225.6 -14.6  34136  289.16 0855.25
2009/04/23 10:36:51.5    -191   -125    -22    229    231 236.7  -5.6  34132  289.11 0855.25
2009/04/23 10:36:51.6     -39   -167    204    172    266 193.1  55.8  34128  289.03 0855.25
2009/04/23 10:36:51.7      30   -194    157    197    251 171.1  42.7  34134  289.12 0855.25
2009/04/23 10:36:51.8      95   -124    172    157    232 142.6  52.7  34138  289.19 0855.25
2009/04/23 10:36:51.9     148      3    128    149    196  88.7  45.4  34140  289.23 0855.25
2009/04/23 10:36:52.0      32      3     94     33     99  83.9  80.7  34150  289.40 0855.24
2009/04/23 10:36:52.1      68      3    131     69    148  87.4  69.8  34142  289.28 0855.24
2009/04/23 10:36:52.2     193    -21     42    195    200  96.4  12.4  34140  289.24 0855.24
2009/04/23 10:36:52.3     187     14     62    188    199  85.6  18.4  34136  289.18 0855.24
2009/04/23 10:36:52.4     284     66     88    292    306  76.8  16.8  34136  289.15 0855.24
2009/04/23 10:36:52.5     330     -5    115    331    351  90.9  19.2  34138  289.21 0855.24
2009/04/23 10:36:52.6     362     10    132    363    386  88.3  20.8  34126  288.99 0855.24
2009/04/23 10:36:52.7     317     25    177    319    364  85.4  31.5  34140  289.23 0855.24
2009/04/23 10:36:52.8     228    130    257    263    367  60.3  49.7  34206  290.35 0855.24
2009/04/23 10:36:52.9      93    275    334    291    442  18.7  54.6  34238  290.88 0855.24
2009/04/23 10:36:53.0     235    220    291    322    434  46.9  46.8  34296  291.88 0855.26
2009/04/23 10:36:53.1     269    192    365    331    492  54.4  53.2  34270  291.43 0855.26
2009/04/23 10:36:53.2     332    190    321    383    499  60.2  44.3  34252  291.13 0855.26
2009/04/23 10:36:53.3     276    474    262    549    608  30.3  27.3  34216  290.51 0855.26
2009/04/23 10:36:53.4     406    482     92    631    638  40.1   8.3  34196  290.18 0855.26
2009/04/23 10:36:53.5     277    461     56    538    541  31.0   6.0  34162  289.62 0855.26
2009/04/23 10:36:53.6     140    442    123    464    481  17.6  14.9  34188  290.05 0855.26
2009/04/23 10:36:53.7     386    355     74    525    531  47.4   8.1  34178  289.89 0855.26
2009/04/23 10:36:53.8     347    464    129    580    595  36.8  12.6  34150  289.39 0855.26
2009/04/23 10:36:53.9     215    391     87    447    456  28.9  11.1  34134  289.14 0855.26
2009/04/23 10:36:54.0      83    174    131    194    234  25.6  37.0  34140  289.24 0855.26
2009/04/23 10:36:54.1    -259    337    194    426    468 322.5  26.2  34146  289.33 0855.26
2009/04/23 10:36:54.2    -133    382    120    405    423 340.8  16.5  34150  289.41 0855.26
2009/04/23 10:36:54.3    -152    422     91    449    459 340.1  11.5  34146  289.34 0855.26
2009/04/23 10:36:54.4    -250    525    223    582    623 334.5  22.0  34118  288.85 0855.26
2009/04/23 10:36:54.5     -45    483    264    486    553 354.6  30.9  34138  289.19 0855.26
2009/04/23 10:36:54.6      70    403    223    410    466   9.9  31.0  34168  289.72 0855.26
2009/04/23 10:36:54.7     -28    507    222    508    554 356.8  25.1  34288  291.76 0855.26
2009/04/23 10:36:54.8     107    320    197    338    391  18.6  32.9  34266  291.37 0855.26
2009/04/23 10:36:54.9     122    207    197    241    311  30.5  43.7  34266  291.36 0855.26
2009/04/23 10:36:55.0     202    168    131    263    293  50.2  28.2  34256  291.19 0855.26
2009/04/23 10:36:55.1     322    181     72    370    378  60.6  11.1  34244  291.00 0855.26
2009/04/23 10:36:55.2     394    295    169    493    522  53.1  18.9  34272  291.49 0855.26
2009/04/23 10:36:55.3     502    330    194    601    632  56.7  17.9  34248  291.05 0855.26
2009/04/23 10:36:55.4     527    254    150    586    605  64.2  14.4  34212  290.44 0855.26
2009/04/23 10:36:55.5     561    184    210    591    627  71.8  20.3  34208  290.40 0855.26
2009/04/23 10:36:55.6     277    127    313    305    437  65.4  50.8  34230  290.77 0855.26
2009/04/23 10:36:55.7     237    335    253    411    482  35.3  34.6  34170  289.75 0855.26
2009/04/23 10:36:55.8     283    417    241    505    559  34.2  27.3  34140  289.24 0855.26
2009/04/23 10:36:55.9     251    324    150    410    436  37.8  21.0  34142  289.26 0855.26
2009/04/23 10:36:56.0     204    356     90    411    421  29.9  12.4  34160  289.58 0855.26
2009/04/23 10:36:56.1     268    266    131    378    401  45.2  19.2  34192  290.10 0855.26
2009/04/23 10:36:56.2     132    207     27    246    248  32.6   6.5  34180  289.92 0855.26
2009/04/23 10:36:56.3     159    221     92    273    289  35.8  18.6  34210  290.41 0855.26
2009/04/23 10:36:56.4     147    233     78    276    287  32.3  15.8  34204  290.32 0855.26
2009/04/23 10:36:56.5     377    196    119    426    443  62.5  15.7  34210  290.43 0855.26
2009/04/23 10:36:56.6     340    174     97    382    395  62.9  14.3  34262  291.32 0855.26
2009/04/23 10:36:56.7     190    254    193    318    371  36.9  34.1  34244  291.00 0855.26
2009/04/23 10:36:56.8     215    190    216    288    360  48.6  40.6  34242  290.98 0855.26
2009/04/23 10:36:56.9     232    294      1    375    376  38.2   0.2  34218  290.55 0855.26
2009/04/23 10:36:57.0     343    194    189    395    437  60.5  27.3  34280  291.62 0855.25
2009/04/23 10:36:57.1     237    155    288    284    404  56.9  50.2  34280  291.62 0855.25
2009/04/23 10:36:57.2     240    197    285    311    421  50.5  47.3  34274  291.51 0855.25
2009/04/23 10:36:57.3     292     93    279    307    414  72.3  47.0  34264  291.35 0855.25
2009/04/23 10:36:57.4     308    150    167    343    381  63.9  27.8  34242  290.96 0855.25
2009/04/23 10:36:57.5     310    157    228    348    416  63.1  36.4  34238  290.89 0855.25
2009/04/23 10:36:57.6     300    248    106    390    405  50.4  15.3  34202  290.28 0855.25
2009/04/23 10:36:57.7     408    192    161    451    478  64.8  20.4  34180  289.91 0855.25
2009/04/23 10:36:57.8     286    396    294    489    570  35.9  33.8  34250  291.11 0855.25
2009/04/23 10:36:57.9     100    383    190    396    439  14.7  27.3  34240  290.92 0855.25
2009/04/23 10:36:58.0     277    436    190    517    550  32.4  21.0  34132  289.11 0855.25
2009/04/23 10:36:58.1     386    432    165    580    604  41.8  15.9  34148  289.36 0855.25
2009/04/23 10:36:58.2     476    356    172    595    620  53.2  16.1  34154  289.46 0855.25
2009/04/23 10:36:58.3     535    250    150    591    610  65.0  14.3  34180  289.91 0855.25
2009/04/23 10:36:58.4     455    268    176    529    558  59.5  18.5  34142  289.28 0855.25
2009/04/23 10:36:58.5     374    383    195    536    570  44.3  20.9  34146  289.35 0855.25
2009/04/23 10:36:58.6     432    292    152    522    544  55.9  16.3  34194  290.14 0855.25
2009/04/23 10:36:58.7     392    250    203    466    508  57.5  25.1  34216  290.52 0855.25
2009/04/23 10:36:58.8     483    287    205    563    599  59.3  21.0  34162  289.59 0855.25
2009/04/23 10:36:58.9     415    388    292    569    639  47.0  29.3  34208  290.40 0855.25
2009/04/23 10:36:59.0     548    218    218    590    628  68.3  21.3  34228  290.71 0855.26
2009/04/23 10:36:59.1     500    223     37    548    550  65.9   3.9  34190  290.07 0855.26
2009/04/23 10:36:59.2     530    235    135    580    596  66.1  13.1  34218  290.54 0855.26
2009/04/23 10:36:59.3     609    187     65    638    642  72.9   5.9  34198  290.20 0855.26
2009/04/23 10:36:59.4     649    153    212    667    700  76.7  17.7  34250  291.09 0855.26
2009/04/23 10:36:59.5     477    243    219    536    579  63.0  23.5  34206  290.35 0855.26
2009/04/23 10:36:59.6     512    181    225    544    588  70.5  23.8  34188  290.05 0855.26
2009/04/23 10:36:59.8     373    197    142    422    446  62.1  18.6  34144  289.29 0855.26
2009/04/23 10:36:59.9     336    183    133    383    406  61.4  19.2  34132  289.11 0855.26
2009/04/23 10:37:00.0     301    179    151    351    382  59.3  24.9  34136  289.15 0855.26
2009/04/23 10:37:00.0     356    194     95    406    418  61.4  13.3  34136  289.17 0855.26
2009/04/23 10:37:00.2     238    209    163    317    356  48.7  29.3  34138  289.20 0855.26
2009/04/23 10:37:00.2     335    235    125    410    429  54.9  17.0  34216  290.53 0855.26
2009/04/23 10:37:00.4     371    208     59    426    431  60.7   7.9  34186  290.02 0855.26
2009/04/23 10:37:00.5     392    216     38    448    450  61.2   4.9  34178  289.88 0855.26
2009/04/23 10:37:00.6     436    173     48    470    473  68.3   5.9  34188  290.06 0855.26
2009/04/23 10:37:00.7     451    152     77    477    484  71.3   9.2  34206  290.34 0855.26
2009/04/23 10:37:00.8     313     80    106    324    341  75.6  18.1  34172  289.79 0855.26
2009/04/23 10:37:00.9     357    180      1    400    401  63.2   0.2  34172  289.77 0855.26
2009/04/23 10:37:01.0     282     26     81    284    296  84.7  16.0  34180  289.90 0855.26
2009/04/23 10:37:01.1     197      0    115    198    228  90.0  32.9  34202  290.28 0855.26
2009/04/23 10:37:01.2     207     11    135    208    247  86.7  36.0  34214  290.49 0855.26
2009/04/23 10:37:01.3      48    -16    143     51    151 109.1  80.2  34212  290.45 0855.26
2009/04/23 10:37:01.4      24     74    122     78    144  18.3  64.6  34216  290.53 0855.26
2009/04/23 10:37:01.5      43     68    172     81    190  32.6  73.1  34206  290.35 0855.26
2009/04/23 10:37:01.6    -155    -14     83    156    176 264.8  30.3  34212  290.47 0855.26
2009/04/23 10:37:01.7    -194     92    -53    215    222 295.4 -13.9  34218  290.57 0855.26
2009/04/23 10:37:01.8    -270    115   -148    294    329 293.1 -33.1  34198  290.20 0855.26
2009/04/23 10:37:01.9    -319    336   -191    464    501 316.5 -28.0  34160  289.56 0855.26
2009/04/23 10:37:02.0    -318     82   -460    329    565 284.5 -65.4  34170  289.73 0855.26
2009/04/23 10:37:02.1    -587   -354   -176    686    709 238.9 -14.4  34156  289.49 0855.26
2009/04/23 10:37:02.2    -505   -107    165    517    543 258.0  17.7  34194  290.16 0855.26
2009/04/23 10:37:02.3    -622     66   -105    626    635 276.1  -9.6  34144  289.30 0855.26
2009/04/23 10:37:02.4    -531    -25   -148    532    552 267.2 -20.2  34128  289.02 0855.26
2009/04/23 10:37:02.5    -464     56   -180    468    501 277.0 -26.6  34134  289.12 0855.26
2009/04/23 10:37:02.6    -473     79   -185    480    514 279.5 -26.5  34146  289.34 0855.26
2009/04/23 10:37:02.7    -499     46   -162    502    528 275.4 -17.9  34172  289.76 0855.26
2009/04/23 10:37:02.8    -459    -96   -132    470    489 258.1 -15.7  34172  289.79 0855.26
2009/04/23 10:37:02.9    -284    -39    156    287    326 262.1  30.8  34170  289.73 0855.26
2009/04/23 10:37:03.0    -415     86     92    424    434 281.8  12.3  34174  289.82 0855.26
2009/04/23 10:37:03.1    -429     18     38    430    432 272.5   5.1  34178  289.87 0855.27
2009/04/23 10:37:03.2    -364    -47    134    368    391 262.6  21.0  34160  289.57 0855.27
2009/04/23 10:37:03.3    -321   -125     19    345    346 248.7   3.2  34154  289.47 0855.27
2009/04/23 10:37:03.4    -260    193    104    325    342 306.6  17.8  34162  289.59 0855.27
2009/04/23 10:37:03.5    -257     66    131    266    296 284.4  28.0  34166  289.68 0855.27
2009/04/23 10:37:03.6     -86      8     24     87     91 275.7  15.3  34170  289.75 0855.27
2009/04/23 10:37:03.7    -396     58   -126    401    420 278.4 -22.6  34164  289.65 0855.27
2009/04/23 10:37:03.8    -322     24     -4    323    324 274.4  -0.7  34172  289.76 0855.27
2009/04/23 10:37:03.9    -268     -8    -34    269    272 268.3  -7.2  34170  289.73 0855.27
2009/04/23 10:37:04.0    -344    -65    -96    351    365 259.2 -15.4  34164  289.64 0855.27
2009/04/23 10:37:04.1    -367    -88    -64    378    384 256.4  -9.6  34174  289.81 0855.27
2009/04/23 10:37:04.2    -408    -23   -116    409    426 266.8 -15.9  34170  289.75 0855.27
2009/04/23 10:37:04.3    -320   -154    -23    356    357 244.3  -3.8  34164  289.65 0855.27
2009/04/23 10:37:04.4    -412   -193   -153    455    481 244.9 -18.6  34186  290.01 0855.27
2009/04/23 10:37:04.5    -327   -446   -174    554    581 216.2 -17.5  34182  289.95 0855.27
2009/04/23 10:37:04.6    -306   -517    -86    601    608 210.7  -8.2  34190  290.08 0855.27
2009/04/23 10:37:04.7    -321   -420    -95    529    538 217.4 -10.3  34166  289.68 0855.27
2009/04/23 10:37:04.8    -366   -381      7    529    530 223.8   0.8  34176  289.84 0855.27
2009/04/23 10:37:04.9    -242   -351      8    427    428 214.6   1.1  34170  289.73 0855.27
2009/04/23 10:37:05.0       0   -506    427    507    662 180.0  44.4  34164  289.64 0855.27
2009/04/23 10:37:05.1    -215   -430    400    481    625 206.6  44.0  34174  289.80 0855.28
2009/04/23 10:37:05.2    -219    -40    294    223    369 259.6  59.1  34164  289.64 0855.28
2009/04/23 10:37:05.3     -70     60    245     93    262 310.9  78.2  34176  289.84 0855.28
2009/04/23 10:37:05.4    -119    -43    188    127    226 250.0  62.8  34174  289.80 0855.28
2009/04/23 10:37:05.5    -144   -137    133    199    239 226.4  37.0  34168  289.70 0855.28
2009/04/23 10:37:05.6    -345      4    187    346    393 270.8  30.6  34164  289.65 0855.28
2009/04/23 10:37:05.7    -197    109    117    226    254 298.9  29.3  34168  289.71 0855.28
2009/04/23 10:37:05.8    -195     27    109    197    225 277.9  31.4  34164  289.65 0855.28
2009/04/23 10:37:05.9    -141    -17    129    143    192 263.0  47.1  34166  289.69 0855.28
2009/04/23 10:37:06.0    -168   -105     94    199    220 238.0  27.1  34166  289.69 0855.28
2009/04/23 10:37:06.1     -59   -115    125    130    180 207.2  49.0  34162  289.60 0855.28
2009/04/23 10:37:06.2      43    -54     73     70    101 141.3  51.6  34158  289.55 0855.28
2009/04/23 10:37:06.3      -5   -233    303    234    382 181.4  58.5  34156  289.52 0855.28
2009/04/23 10:37:06.4     -13   -287    201    288    351 182.7  38.3  34160  289.57 0855.28
2009/04/23 10:37:06.5      47   -112    202    122    235 157.3  66.2  34152  289.43 0855.28
2009/04/23 10:37:06.6      81    -49    255     95    272 121.1  78.9  34158  289.55 0855.28
2009/04/23 10:37:06.7     344    -26    308    345    462  94.4  46.4  34160  289.58 0855.28
2009/04/23 10:37:06.8     253    133    175    287    336  62.2  34.3  34134  289.14 0855.28
2009/04/23 10:37:06.9     229     69    287    240    374  73.2  56.1  34138  289.21 0855.28
2009/04/23 10:37:07.0     337     72     44    345    348  77.8   7.4  34136  289.15 0855.28
2009/04/23 10:37:07.1     326    146     17    358    359  65.9   2.8  34158  289.55 0855.29
2009/04/23 10:37:07.2     271    144     -1    307    308  62.0  -0.3  34156  289.51 0855.29
2009/04/23 10:37:07.3     279    132     88    309    322  64.6  15.9  34152  289.42 0855.29
2009/04/23 10:37:07.4     429    188     78    469    476  66.3   9.5  34124  288.96 0855.29
2009/04/23 10:37:07.5     403    160     22    434    435  68.3   3.0  34132  289.11 0855.29
2009/04/23 10:37:07.6     340    183     46    387    390  61.7   6.8  34132  289.10 0855.29
2009/04/23 10:37:07.7     433    269    118    510    524  58.1  13.1  34130  289.07 0855.29
2009/04/23 10:37:07.8     419    298     89    515    523  54.5   9.9  34136  289.16 0855.29
2009/04/23 10:37:07.9     380    285     20    476    477  53.1   2.5  34140  289.23 0855.29
2009/04/23 10:37:08.0     369    329    188    495    529  48.2  21.8  34124  288.96 0855.29
2009/04/23 10:37:08.1     380    301    104    485    497  51.6  12.2  34130  289.06 0855.29
2009/04/23 10:37:08.2     345    288     99    450    461  50.1  12.5  34138  289.21 0855.29
2009/04/23 10:37:08.3     389    315    124    501    517  51.0  13.9  34120  288.90 0855.29
2009/04/23 10:37:08.4     346    247    130    426    446  54.5  17.1  34118  288.87 0855.29
2009/04/23 10:37:08.5     319    349    170    474    503  42.4  20.4  34196  290.17 0855.29
2009/04/23 10:37:08.6     401    272    111    485    498  55.8  12.9  34132  289.10 0855.29
2009/04/23 10:37:08.7     349    350     67    495    500  44.9   7.8  34138  289.20 0855.29
2009/04/23 10:37:08.8     427    310    120    528    542  54.0  12.9  34142  289.26 0855.29
2009/04/23 10:37:08.9     548    369    -26    662    663  56.0  -2.3  34138  289.21 0855.29
2009/04/23 10:37:09.0     551    380      4    670    671  55.4   0.4  34136  289.17 0855.29
2009/04/23 10:37:09.1     557    312     58    639    642  60.7   5.2  34156  289.52 0855.28
2009/04/23 10:37:09.2     474    256     70    539    544  61.6   7.4  34156  289.50 0855.28
2009/04/23 10:37:09.3     752    316    106    816    823  67.2   7.5  34142  289.25 0855.28
2009/04/23 10:37:09.4     805    277    142    852    864  71.0   9.5  34146  289.32 0855.28
2009/04/23 10:37:09.5     840    341    118    907    915  67.9   7.5  34152  289.45 0855.28
2009/04/23 10:37:09.6     873    234    148    904    917  75.0   9.3  34140  289.24 0855.28
2009/04/23 10:37:09.7     798    279    309    846    900  70.7  21.0  34154  289.47 0855.28
2009/04/23 10:37:09.8     740    198    255    766    808  75.0  18.5  34148  289.37 0855.28
2009/04/23 10:37:09.9     637    251    185    685    710  68.5  15.1  34140  289.23 0855.28
2009/04/23 10:37:10.0     572    404    180    701    724  54.8  14.4  34136  289.18 0855.28
2009/04/23 10:37:10.1     678    390    268    783    828  60.1  18.9  34218  290.55 0855.28
2009/04/23 10:37:10.2     591    329    299    677    740  60.9  25.3  34188  290.06 0855.28
2009/04/23 10:37:10.3     499    254     70    560    565  63.0   7.2  34136  289.16 0855.28
2009/04/23 10:37:10.4     454    289    196    539    573  57.5  20.9  34228  290.74 0855.28
2009/04/23 10:37:10.5     420    371     93    561    569  48.6   9.5  34168  289.72 0855.28
2009/04/23 10:37:10.6     409    303    120    510    524  53.5  13.3  34148  289.38 0855.28
2009/04/23 10:37:10.7     560    333     49    652    654  59.3   4.3  34164  289.64 0855.28
2009/04/23 10:37:10.8     591    198     78    624    629  71.4   7.2  34148  289.38 0855.28
2009/04/23 10:37:10.9     703    334     15    779    780  64.6   1.1  34142  289.25 0855.28
2009/04/23 10:37:11.0     529    354    -73    637    642  56.2  -6.6  34146  289.33 0855.28
2009/04/23 10:37:11.1     678    359    -68    768    772  62.1  -5.1  34146  289.34 0855.31
2009/04/23 10:37:11.2     620     56     25    623    624  84.8   2.4  34152  289.43 0855.31
2009/04/23 10:37:11.3     633    -48     44    635    637  94.4   4.0  34150  289.40 0855.31
2009/04/23 10:37:11.4     594    149   -117    613    625  75.9 -10.8  34144  289.30 0855.31
2009/04/23 10:37:11.5     420    224    -73    477    483  61.9  -8.7  34150  289.39 0855.31
2009/04/23 10:37:11.6     294    281    -93    407    418  46.3 -12.9  34160  289.58 0855.31
2009/04/23 10:37:11.7     489    164    162    517    542  71.4  17.4  34182  289.94 0855.31
2009/04/23 10:37:11.8     523    267     90    588    595  62.9   8.7  34154  289.47 0855.31
2009/04/23 10:37:11.9     646    223    115    684    694  70.9   9.6  34162  289.60 0855.31
2009/04/23 10:37:12.0     522    249    147    579    598  64.5  14.3  34148  289.37 0855.31
2009/04/23 10:37:12.1     545    189      1    578    579  70.8   0.1  34164  289.63 0855.31
2009/04/23 10:37:12.2     640    175     -2    664    665  74.7  -0.2  34172  289.77 0855.31
2009/04/23 10:37:12.3     619    273    -26    677    678  66.2  -2.2  34146  289.34 0855.31
2009/04/23 10:37:12.4     441    206    -32    487    489  65.0  -3.8  34136  289.18 0855.31
2009/04/23 10:37:12.5     384    198      5    433    434  62.7   0.7  34154  289.48 0855.31
2009/04/23 10:37:12.6     371    -21    -26    372    373  93.3  -4.0  34156  289.50 0855.31
2009/04/23 10:37:12.7     351     21     79    352    361  86.5  12.8  34152  289.43 0855.31
2009/04/23 10:37:12.8     406    157    105    436    449  68.8  13.6  34172  289.77 0855.31
2009/04/23 10:37:12.9     468    156     80    494    501  71.6   9.2  34162  289.62 0855.31
2009/04/23 10:37:13.0     515    195    172    551    578  69.2  17.4  34156  289.49 0855.31
2009/04/23 10:37:13.1     290    -14    325    291    436  92.8  53.6  34162  289.59 0855.30
2009/04/23 10:37:13.2     223    -89    169    241    294 111.8  38.6  34158  289.53 0855.30
2009/04/23 10:37:13.3     118   -105     84    159    179 131.8  30.1  34160  289.57 0855.30
2009/04/23 10:37:13.4     124    -37    106    130    167 106.8  43.7  34158  289.53 0855.30
2009/04/23 10:37:13.5     211     57     78    219    233  74.9  19.6  34162  289.60 0855.30
2009/04/23 10:37:13.6      13    -21   -174     26    175 147.5 -90.0  34168  289.70 0855.30
2009/04/23 10:37:13.7    -128     -9   -170    129    213 265.6 -63.4  34166  289.67 0855.30
2009/04/23 10:37:13.8     -93     87   -144    128    192 313.2 -58.1  34160  289.57 0855.30
2009/04/23 10:37:13.9    -185     19   -203    186    275 275.9 -57.4  34142  289.27 0855.30
2009/04/23 10:37:14.0    -155     57   -203    166    262 290.4 -60.8  34126  289.00 0855.30
2009/04/23 10:37:14.1    -140    -11   -224    141    264 265.2 -69.1  34130  289.08 0855.33
2009/04/23 10:37:14.2    -345    -17   -148    346    376 267.1 -29.0  34124  288.96 0855.33
2009/04/23 10:37:14.3    -116   -105    -64    157    169 227.8 -27.8  34122  288.92 0855.33
2009/04/23 10:37:14.4    -155     -7   -130    156    203 267.4 -48.5  34124  288.96 0855.33
2009/04/23 10:37:14.5    -157    -25   -189    160    247 260.8 -59.8  34130  289.08 0855.33
2009/04/23 10:37:14.6    -185    -23   -188    187    265 262.8 -54.5  34132  289.09 0855.33
2009/04/23 10:37:14.7    -148   -102    -79    180    196 235.4 -29.5  34134  289.13 0855.33
2009/04/23 10:37:14.8    -194   -105   -115    221    249 241.4 -33.9  34150  289.41 0855.33
2009/04/23 10:37:14.9    -120    -29    -29    124    128 256.3 -13.4  34168  289.70 0855.33
2009/04/23 10:37:15.0     -98    -85     89    130    157 229.1  37.8  34162  289.62 0855.33
2009/04/23 10:37:15.1    -144    -27     73    147    164 259.4  28.5  34162  289.60 0855.33
2009/04/23 10:37:15.2     -92     28     61     97    114 286.8  35.5  34148  289.36 0855.33
2009/04/23 10:37:15.3    -160    -33   -101    164    192 258.1 -39.4  34150  289.41 0855.33
2009/04/23 10:37:15.4     -46     29    -73     55     91 302.4 -63.4  34150  289.40 0855.33
2009/04/23 10:37:15.5      71    -62     75     95    121 130.9  42.2  34154  289.48 0855.33
2009/04/23 10:37:15.6     -22    -17    106     29    109 232.2  84.8  34160  289.58 0855.33
2009/04/23 10:37:15.7     -26     23     66     35     74 311.3  69.8  34164  289.63 0855.33
2009/04/23 10:37:15.8     -96     27     82    100    129 285.9  43.7  34164  289.65 0855.33
2009/04/23 10:37:15.9    -118     64     59    135    147 298.4  25.1  34156  289.50 0855.33
2009/04/23 10:37:16.0    -138    114     39    180    185 309.5  12.4  34144  289.31 0855.33
2009/04/23 10:37:16.1     -95    171      9    196    197 331.0   2.9  34150  289.40 0855.36
2009/04/23 10:37:16.2     -54    164     -9    173    174 341.7  -3.3  34146  289.33 0855.36
2009/04/23 10:37:16.3     -56    139      6    150    151 338.1   2.3  34142  289.26 0855.36
2009/04/23 10:37:16.4     -85    106     49    136    144 321.3  20.0  34142  289.26 0855.36
2009/04/23 10:37:16.5    -123     57     56    136    147 295.2  23.1  34146  289.35 0855.36
2009/04/23 10:37:16.6    -116     55     65    129    144 295.4  29.2  34146  289.33 0855.36
2009/04/23 10:37:16.7     -76     85     99    115    151 318.1  45.4  34150  289.40 0855.36
2009/04/23 10:37:16.8     -53      5    115     54    127 276.1  73.1  34158  289.53 0855.36
2009/04/23 10:37:16.9     -69     -1     89     70    113 269.1  57.5  34158  289.55 0855.36
2009/04/23 10:37:17.0    -118    -23    100    121    156 258.6  44.1  34162  289.62 0855.36
2009/04/23 10:37:17.1     -71    -14    162     73    177 258.5  74.2  34172  289.79 0855.36
2009/04/23 10:37:17.2      21   -102    148    105    181 168.4  61.1  34162  289.62 0855.36
2009/04/23 10:37:17.3       6   -146    167    147    222 177.3  54.2  34152  289.43 0855.36
2009/04/23 10:37:17.4     -68   -145    140    161    213 205.3  45.8  34152  289.43 0855.36
2009/04/23 10:37:17.5     -44   -111    156    120    196 201.9  58.5  34152  289.45 0855.36
2009/04/23 10:37:17.6     -19   -133    171    135    217 188.1  57.9  34158  289.55 0855.36
2009/04/23 10:37:17.7     -41    -65    102     78    128 212.5  58.5  34158  289.55 0855.36
2009/04/23 10:37:17.8     -62    -38     99     73    123 238.5  60.5  34162  289.60 0855.36
2009/04/23 10:37:17.9     -83     -2     59     84    102 268.3  39.1  34162  289.60 0855.36
2009/04/23 10:37:18.0    -104     13     21    105    108 277.5  11.6  34178  289.87 0855.36
2009/04/23 10:37:18.1    -156    -80     75    176    191 242.9  24.3  34164  289.65 0855.41
2009/04/23 10:37:18.2    -220    -64     -9    230    231 253.6  -2.3  34182  289.94 0855.41
2009/04/23 10:37:18.3    -298    -60    -47    305    309 258.5  -8.8  34182  289.93 0855.41
2009/04/23 10:37:18.4    -296    -59     -5    302    303 258.6  -1.1  34178  289.86 0855.41
2009/04/23 10:37:18.5    -153     91     17    179    180 300.9   5.7  34166  289.69 0855.41
2009/04/23 10:37:18.6    -189     39    113    194    224 281.7  33.1  34162  289.60 0855.41
2009/04/23 10:37:18.7     -96     57     32    112    117 300.7  16.3  34164  289.65 0855.41
2009/04/23 10:37:18.8     -98     70     28    121    125 305.9  13.2  34166  289.67 0855.41
2009/04/23 10:37:18.9     -40    121     41    128    135 341.7  17.9  34196  290.19 0855.41
2009/04/23 10:37:19.0      24    121     14    124    125  11.6   6.9  34206  290.36 0855.41
2009/04/23 10:37:19.1      -7     76     15     77     79 354.7  11.1  34178  289.89 0855.41
2009/04/23 10:37:19.2    -135    155     44    206    211 319.0  12.2  34170  289.74 0855.41
2009/04/23 10:37:19.3    -160    143      3    215    216 311.8   0.8  34192  290.11 0855.41
2009/04/23 10:37:19.4    -102    123    -14    161    162 320.4  -5.2  34188  290.06 0855.41
2009/04/23 10:37:19.5    -128    122     34    177    181 313.6  11.1  34190  290.08 0855.41
2009/04/23 10:37:19.6    -136     84     49    161    169 301.8  17.1  34192  290.13 0855.41
2009/04/23 10:37:19.7    -131     46     -3    139    140 289.5  -1.3  34192  290.13 0855.41
2009/04/23 10:37:19.8    -114     72     49    136    144 302.4  20.0  34188  290.06 0855.41
2009/04/23 10:37:19.9    -163     80     50    182    189 296.2  15.6  34184  289.99 0855.41
2009/04/23 10:37:20.0    -234    110     51    259    265 295.3  11.1  34194  290.14 0855.41
2009/04/23 10:37:20.1    -297    126     38    323    326 293.1   6.8  34198  290.22 0855.44
2009/04/23 10:37:20.2    -266    152     78    307    317 299.8  14.4  34194  290.14 0855.44
2009/04/23 10:37:20.3    -223    253    -20    338    339 318.6  -3.5  34194  290.15 0855.44
2009/04/23 10:37:20.4    -247    204     -5    321    322 309.6  -0.9  34194  290.15 0855.44
2009/04/23 10:37:20.5    -235    289     37    373    375 320.8   5.7  34210  290.43 0855.44
2009/04/23 10:37:20.6    -204    274     19    342    343 323.3   3.3  34198  290.21 0855.44
2009/04/23 10:37:20.7    -176    259     17    314    315 325.7   3.2  34178  289.88 0855.44
2009/04/23 10:37:20.8    -101    251     49    271    276 338.1  10.3  34186  290.00 0855.44
2009/04/23 10:37:20.9    -283    205    124    350    372 306.0  19.6  34202  290.27 0855.44
2009/04/23 10:37:21.0    -235    153    136    281    312 303.1  27.3  34174  289.81 0855.44
2009/04/23 10:37:21.1    -317     45     87    321    333 278.1  15.3  34178  289.87 0855.44
2009/04/23 10:37:21.2    -309    -78      6    319    320 255.8   1.1  34162  289.59 0855.44
2009/04/23 10:37:21.3    -435     86    156    444    471 281.2  19.4  34150  289.41 0855.44
2009/04/23 10:37:21.4    -536     93     96    545    554 279.9  10.0  34158  289.53 0855.44
2009/04/23 10:37:21.5    -367   -205    140    421    444 240.8  18.4  34148  289.38 0855.44
2009/04/23 10:37:21.6      -5   -132    272    133    302 182.2  72.1  34152  289.44 0855.44
2009/04/23 10:37:21.7     -17   -230    259    231    347 184.4  53.7  34158  289.54 0855.44
2009/04/23 10:37:21.8      27   -162    206    165    263 170.4  57.1  34164  289.64 0855.44
2009/04/23 10:37:21.9     -13   -209    253    210    328 183.6  56.3  34148  289.37 0855.44
2009/04/23 10:37:22.0     -18   -235    265    236    354 184.5  53.9  34158  289.53 0855.44
2009/04/23 10:37:22.1     -44   -228    300    233    379 191.1  58.4  34158  289.55 0855.40
2009/04/23 10:37:22.2     -65   -187    279    199    342 199.2  61.0  34160  289.58 0855.40
2009/04/23 10:37:22.3     -14     -5    244     16    244 248.3  90.0  34170  289.74 0855.40
2009/04/23 10:37:22.4     -20     45    203     50    209 335.5  86.4  34160  289.58 0855.40
2009/04/23 10:37:22.5       4      0    175      5    175  90.0  90.0  34156  289.52 0855.40
2009/04/23 10:37:22.6      -9    -41    188     42    192 192.5  88.0  34170  289.74 0855.40
2009/04/23 10:37:22.7     -16     24    189     30    191 325.7  90.0  34176  289.84 0855.40
2009/04/23 10:37:22.8     -27     57    112     64    128 334.5  67.7  34186  290.01 0855.40
2009/04/23 10:37:22.9     103     18    114    105    154  79.9  52.2  34172  289.77 0855.40
2009/04/23 10:37:23.0      77     63    122    100    157  50.5  56.4  34170  289.75 0855.40
2009/04/23 10:37:23.1    -101   -101    168    144    221 224.9  55.0  34152  289.45 0855.40
2009/04/23 10:37:23.2     -86    -63    125    107    164 233.6  55.0  34160  289.58 0855.40
2009/04/23 10:37:23.3      23    112    165    115    201  11.6  61.8  34168  289.72 0855.40
2009/04/23 10:37:23.4      30   -150     97    154    182 168.5  35.5  34162  289.62 0855.40
2009/04/23 10:37:23.5     285   -418     85    507    515 145.7   9.6  34160  289.56 0855.40
2009/04/23 10:37:23.6     419   -435     79    605    611 136.1   7.5  34152  289.44 0855.40
2009/04/23 10:37:23.7     408   -653     54    770    772 148.0   4.0  34144  289.30 0855.40
2009/04/23 10:37:23.8     413   -330    -73    529    534 128.6  -7.9  34142  289.26 0855.40
2009/04/23 10:37:23.9     267   -326    -64    422    427 140.7  -8.7  34146  289.34 0855.40
2009/04/23 10:37:24.0     111   -202   -160    231    281 151.3 -42.2  34146  289.34 0855.40
2009/04/23 10:37:24.1     286      4     -6    287    288  89.2  -1.3  34148  289.36 0855.35
2009/04/23 10:37:24.2     280   -164     41    325    328 120.4   7.2  34152  289.44 0855.35
2009/04/23 10:37:24.3     250   -302   -113    393    408 140.3 -20.9  34152  289.43 0855.35
2009/04/23 10:37:24.4     326   -204   -202    385    434 122.1 -34.4  34142  289.27 0855.35
2009/04/23 10:37:24.5     421    -19   -133    422    443  92.6 -17.5  34132  289.11 0855.35
2009/04/23 10:37:24.6     443     20     53    444    448  87.3   6.8  34124  288.97 0855.35
2009/04/23 10:37:24.7     504    233     57    556    559  65.2   5.9  34130  289.07 0855.35
2009/04/23 10:37:24.8     388    148     69    416    422  69.1   9.4  34134  289.14 0855.35
2009/04/23 10:37:24.9     546   -128    175    561    588 103.3  17.4  34134  289.14 0855.35
2009/04/23 10:37:25.0     309    -89     59    322    328 106.1  10.4  34134  289.12 0855.35
2009/04/23 10:37:25.1     295     54    218    300    370  79.6  39.7  34136  289.18 0855.35
2009/04/23 10:37:25.2      52    201    -73    208    220  14.5 -24.0  34126  289.01 0855.35
2009/04/23 10:37:25.3      59    250    -36    257    260  13.4  -8.0  34142  289.25 0855.35
2009/04/23 10:37:25.4      38    276     13    279    280   8.0   2.8  34140  289.22 0855.35
2009/04/23 10:37:25.5     247    172    233    302    381  55.1  41.6  34142  289.28 0855.35
2009/04/23 10:37:25.6     212     57     66    220    230  74.9  16.8  34142  289.26 0855.35
2009/04/23 10:37:25.7     123      7    -40    124    130  86.5 -23.8  34140  289.23 0855.35
2009/04/23 10:37:25.8      54    -78    -38     95    102 145.3 -27.4  34140  289.24 0855.35
2009/04/23 10:37:25.9      96   -194     87    217    233 153.5  23.0  34140  289.24 0855.35
2009/04/23 10:37:26.0      19   -248      3    249    250 175.6   0.8  34136  289.17 0855.35
2009/04/23 10:37:26.1      65   -127     26    143    146 152.9  10.6  34138  289.21 0855.30
2009/04/23 10:37:26.3     155   -155    -27    220    222 135.0  -7.2  34140  289.23 0855.30
2009/04/23 10:37:26.4     159    -50     43    167    173 107.7  14.5  34134  289.13 0855.30
2009/04/23 10:37:26.4     227     32    181    230    292  81.9  42.2  34136  289.17 0855.30
2009/04/23 10:37:26.5     200    -15      0    201    202  94.4  -0.3  34138  289.21 0855.30
2009/04/23 10:37:26.7     182   -124    123    221    252 124.2  31.6  34134  289.14 0855.30
2009/04/23 10:37:26.8     223   -172    159    282    323 127.8  31.9  34138  289.20 0855.30
2009/04/23 10:37:26.9     301   -117    188    324    374 111.3  32.8  34136  289.16 0855.30
2009/04/23 10:37:27.0     379    -87    159    389    420 103.0  23.6  34140  289.22 0855.30
2009/04/23 10:37:27.1     392    128     53    413    417  71.9   7.4  34168  289.70 0855.30
2009/04/23 10:37:27.2     313    203     51    374    378  57.0   7.8  34192  290.10 0855.30
2009/04/23 10:37:27.3     289    170    138    336    363  59.5  23.6  34226  290.69 0855.30
2009/04/23 10:37:27.4     329    181     32    376    378  61.2   4.9  34226  290.69 0855.30
2009/04/23 10:37:27.5     249     79     13    262    263  72.3   2.9  34200  290.24 0855.30
2009/04/23 10:37:27.6     226    174     54    286    292  52.3  10.8  34202  290.29 0855.30
2009/04/23 10:37:27.7     204     48    -40    210    214  76.7 -10.9  34184  289.99 0855.30
2009/04/23 10:37:27.8     233    101     61    255    263  66.5  13.5  34206  290.36 0855.30
2009/04/23 10:37:27.9     244     91     66    261    270  69.6  14.2  34212  290.44 0855.30
2009/04/23 10:37:28.0     -39    163     98    168    194 346.4  33.1  34216  290.53 0855.30
2009/04/23 10:37:28.1     -50    164     60    172    183 342.8  19.4  34214  290.48 0855.30
2009/04/23 10:37:28.2      37    276    132    279    308   7.8  27.1  34200  290.24 0855.27
2009/04/23 10:37:28.3     282    127    135    310    338  65.8  24.9  34182  289.94 0855.27
2009/04/23 10:37:28.4     435    209    355    483    599  64.3  40.0  34184  289.99 0855.27
2009/04/23 10:37:28.5     507    171    383    536    658  71.3  39.2  34174  289.82 0855.27
2009/04/23 10:37:28.6     759    316    270    823    867  67.4  18.2  34162  289.59 0855.27
2009/04/23 10:37:28.7     819    464    129    942    951  60.5   7.8  34146  289.34 0855.27
2009/04/23 10:37:28.8     749     39    191    750    775  87.0  14.3  34148  289.38 0855.27
2009/04/23 10:37:28.9     871     12    197    872    895  89.2  12.8  34146  289.33 0855.27
2009/04/23 10:37:29.0     880    235    147    911    923  75.0   9.2  34168  289.70 0855.27
2009/04/23 10:37:29.1     734     20    129    735    747  88.4  10.0  34158  289.55 0855.27
2009/04/23 10:37:29.2     719    201     33    747    748  74.3   2.6  34166  289.68 0855.27
2009/04/23 10:37:29.3     563    187    101    594    603  71.6   9.7  34164  289.64 0855.27
2009/04/23 10:37:29.4     583    184    188    612    641  72.5  17.1  34162  289.59 0855.27
2009/04/23 10:37:29.5     610    305    148    683    700  63.4  12.3  34154  289.48 0855.27
2009/04/23 10:37:29.6     523    361    -59    636    640  55.4  -5.3  34158  289.55 0855.27
2009/04/23 10:37:29.7     657    182   -112    682    692  74.5  -9.3  34158  289.54 0855.27
2009/04/23 10:37:29.8     520     36   -164    522    547  86.0 -22.5  34160  289.58 0855.27
2009/04/23 10:37:29.9     675    -37     41    677    679  93.2   3.5  34186  290.02 0855.27
2009/04/23 10:37:30.0     549     27     99    550    559  87.1  10.2  34214  290.50 0855.27
2009/04/23 10:37:30.1     592    195     23    624    625  71.7   2.1  34142  289.28 0855.27
2009/04/23 10:37:30.2     643    344     14    730    731  61.9   1.1  34152  289.45 0855.28
2009/04/23 10:37:30.3     470   -113     75    484    490 103.5   8.9  34166  289.66 0855.28
2009/04/23 10:37:30.4     541    183    -12    572    573  71.3  -1.3  34136  289.15 0855.28
2009/04/23 10:37:30.5     673    276    -33    728    729  67.7  -2.6  34122  288.93 0855.28
2009/04/23 10:37:30.6     495    -10    -22    496    497  91.3  -2.6  34156  289.52 0855.28
2009/04/23 10:37:30.7     491   -223    190    540    573 114.4  19.4  34158  289.53 0855.28
2009/04/23 10:37:30.8     417   -207     84    466    474 116.5  10.3  34168  289.71 0855.28
2009/04/23 10:37:30.9     668     75    122    673    685  83.5  10.3  34174  289.82 0855.28
2009/04/23 10:37:31.0     926    218    408    952   1035  76.7  24.6  34188  290.05 0855.28
2009/04/23 10:37:31.1     720    147    402    736    838  78.4  31.2  34210  290.42 0855.28
2009/04/23 10:37:31.2     951    204    233    973   1001  77.9  13.5  34168  289.70 0855.28
2009/04/23 10:37:31.3     928    254    383    963   1036  74.7  23.0  34156  289.49 0855.28
2009/04/23 10:37:31.4     850    258    287    889    935  73.1  17.9  34114  288.80 0855.28
2009/04/23 10:37:31.5     889    171    198    906    928  79.1  12.4  34128  289.04 0855.28
2009/04/23 10:37:31.6     839    176    162    858    874  78.1  10.7  34116  288.84 0855.28
2009/04/23 10:37:31.7     797     45    216    799    828  86.7  15.2  34152  289.45 0855.28
2009/04/23 10:37:31.8     544    187    180    576    604  71.0  17.4  34160  289.56 0855.28
2009/04/23 10:37:31.9     492    165     74    520    526  71.4   8.1  34132  289.09 0855.28
2009/04/23 10:37:32.0     509    119     75    523    529  76.8   8.2  34142  289.28 0855.28
2009/04/23 10:37:32.1     494    176     33    525    527  70.3   3.6  34148  289.38 0855.28
2009/04/23 10:37:32.2     518    107    -16    530    531  78.3  -1.8  34182  289.96 0855.29
2009/04/23 10:37:32.3     192    -39    138    197    240 101.7  38.5  34174  289.80 0855.29
2009/04/23 10:37:32.4     115   -287    184    310    360 158.2  33.5  34192  290.10 0855.29
2009/04/23 10:37:32.5     298    -32    231    300    378  96.2  41.5  34160  289.57 0855.29
2009/04/23 10:37:32.6     347    -45     65    350    356  97.5  10.6  34148  289.37 0855.29
2009/04/23 10:37:32.7     216   -116     79    246    259 118.4  17.9  34156  289.51 0855.29
2009/04/23 10:37:32.8     245   -120    252    274    372 116.2  47.6  34166  289.69 0855.29
2009/04/23 10:37:32.9     287   -107    280    307    415 110.4  47.0  34176  289.84 0855.29
2009/04/23 10:37:33.0      20   -302    179    303    351 176.2  33.4  34182  289.93 0855.29
2009/04/23 10:37:33.1     144   -206    223    252    336 144.9  46.2  34186  290.02 0855.29
2009/04/23 10:37:33.2     -97   -104    121    143    187 223.2  44.5  34188  290.06 0855.29
2009/04/23 10:37:33.3    -328    -33    -93    330    342 264.2 -20.3  34172  289.79 0855.29
2009/04/23 10:37:33.4    -436    -31   -253    438    505 265.9 -37.1  34130  289.06 0855.29
2009/04/23 10:37:33.5    -415     45   -317    418    524 276.3 -45.5  34132  289.10 0855.29
2009/04/23 10:37:33.6    -228   -121   -104    259    279 242.0 -27.4  34118  288.85 0855.29
2009/04/23 10:37:33.7     -50   -241     64    247    256 191.8  14.5  34140  289.22 0855.29
2009/04/23 10:37:33.8       7   -216    186    217    285 178.0  44.9  34142  289.25 0855.29
2009/04/23 10:37:33.9     162   -276    167    321    361 149.5  29.5  34132  289.11 0855.29
2009/04/23 10:37:34.0     105   -265    185    286    340 158.4  35.7  34136  289.17 0855.29
2009/04/23 10:37:34.1     118   -270    181    295    346 156.4  34.6  34130  289.06 0855.29
2009/04/23 10:37:34.2      58   -221    195    229    300 165.1  44.8  34134  289.14 0855.30
2009/04/23 10:37:34.3     -27   -186    193    189    270 188.5  50.4  34140  289.24 0855.30
2009/04/23 10:37:34.4     -12   -175    154    176    233 184.0  45.8  34134  289.14 0855.30
2009/04/23 10:37:34.5     -69   -273    168    282    328 194.3  33.7  34140  289.22 0855.30
2009/04/23 10:37:34.6     -32   -254    162    257    303 187.3  35.5  34140  289.24 0855.30
2009/04/23 10:37:34.7     -79   -334    133    344    368 193.4  22.2  34142  289.25 0855.30
2009/04/23 10:37:34.8    -148   -312     56    346    351 205.5   9.2  34152  289.42 0855.30
2009/04/23 10:37:34.9    -112   -337     53    356    360 198.4   8.5  34156  289.50 0855.30
2009/04/23 10:37:35.0    -101   -277     76    296    306 200.1  14.4  34152  289.42 0855.30
2009/04/23 10:37:35.1    -136   -303     87    333    345 204.2  14.7  34142  289.25 0855.30
2009/04/23 10:37:35.2    -148   -353    112    383    400 202.8  16.4  34142  289.25 0855.28
2009/04/23 10:37:35.3    -142   -317     95    348    361 204.2  15.4  34138  289.21 0855.28
2009/04/23 10:37:35.4    -171   -331     86    373    383 207.3  13.1  34130  289.06 0855.28
2009/04/23 10:37:35.5    -212   -361     90    419    429 210.4  12.2  34132  289.11 0855.28
2009/04/23 10:37:35.6    -231   -387     38    451    453 210.9   4.9  34126  288.99 0855.28
2009/04/23 10:37:35.7    -251   -474     61    537    541 207.9   6.6  34136  289.18 0855.28
2009/04/23 10:37:35.8    -252   -443     71    510    516 209.6   8.0  34130  289.08 0855.28
2009/04/23 10:37:35.9    -121   -245     45    274    278 206.3   9.3  34138  289.19 0855.28
2009/04/23 10:37:36.0    -279   -306    -45    415    418 222.3  -6.3  34138  289.19 0855.28
2009/04/23 10:37:36.1    -292   -275    -50    402    406 226.8  -7.2  34140  289.24 0855.28
2009/04/23 10:37:36.2    -272   -260      4    377    378 226.2   0.7  34130  289.06 0855.28
2009/04/23 10:37:36.3    -251   -213     43    330    333 229.7   7.6  34130  289.08 0855.28
2009/04/23 10:37:36.4    -131    -44     65    139    153 251.4  27.1  34124  288.96 0855.28
2009/04/23 10:37:36.5    -269     90    102    284    301 288.6  20.4  34138  289.19 0855.28
2009/04/23 10:37:36.6    -320    -47     21    324    325 261.6   3.8  34146  289.34 0855.28
2009/04/23 10:37:36.7    -243     18    -87    244    260 274.3 -19.6  34132  289.10 0855.28
2009/04/23 10:37:36.8    -336      4    -96    337    351 270.7 -15.9  34138  289.21 0855.28
2009/04/23 10:37:36.9    -333   -171   -131    375    397 242.8 -24.4  34152  289.45 0855.28
2009/04/23 10:37:37.0    -342   -118   -186    362    406 250.9 -33.7  34146  289.35 0855.28
2009/04/23 10:37:37.1    -292   -101   -173    310    355 250.9 -36.0  34136  289.16 0855.28
2009/04/23 10:37:37.2    -386    -76   -174    394    430 258.8 -29.6  34154  289.48 0855.26
2009/04/23 10:37:37.3    -275   -169    -95    324    337 238.4 -21.1  34162  289.62 0855.26
2009/04/23 10:37:37.4    -281    -53   -195    287    346 259.2 -41.8  34142  289.27 0855.26
2009/04/23 10:37:37.5    -396    -76   -239    404    469 259.1 -37.8  34154  289.46 0855.26
2009/04/23 10:37:37.6    -292    -39   -239    295    379 262.3 -47.8  34134  289.13 0855.26
2009/04/23 10:37:37.7    -422      4   -396    423    579 270.6 -52.3  34134  289.13 0855.26
2009/04/23 10:37:37.8    -132    -16   -276    133    306 263.0 -77.2  34126  288.98 0855.26
2009/04/23 10:37:37.9    -304   -160   -219    344    407 242.1 -39.9  34146  289.35 0855.26
2009/04/23 10:37:38.0    -232      3   -168    233    287 270.9 -43.9  34172  289.78 0855.26
2009/04/23 10:37:38.1    -226    -90   -164    244    293 248.3 -41.8  34164  289.63 0855.26
2009/04/23 10:37:38.2    -268    -54    -86    274    287 258.5 -22.5  34160  289.58 0855.26
2009/04/23 10:37:38.3    -372    -44   -206    375    427 263.1 -35.7  34124  288.97 0855.26
2009/04/23 10:37:38.4    -381     24   -265    382    464 273.6 -42.4  34118  288.85 0855.26
2009/04/23 10:37:38.5    -482    -27   -279    483    557 266.7 -37.0  34126  288.99 0855.26
2009/04/23 10:37:38.6    -408     27   -264    409    486 273.8 -40.1  34114  288.80 0855.26
2009/04/23 10:37:38.7    -421    -83   -210    430    478 258.8 -32.3  34116  288.82 0855.26
2009/04/23 10:37:38.8    -382    -15   -274    383    470 267.7 -43.6  34116  288.82 0855.26
2009/04/23 10:37:38.9    -453    -30   -311    455    551 266.1 -42.0  34110  288.74 0855.26
2009/04/23 10:37:39.0    -358    -44   -275    361    453 262.9 -45.6  34102  288.58 0855.26
2009/04/23 10:37:39.1    -352    -19   -241    353    427 266.8 -42.0  34112  288.77 0855.26
2009/04/23 10:37:39.2    -464    -49   -168    467    496 263.9 -24.8  34118  288.86 0855.26
2009/04/23 10:37:39.3    -375   -152   -177    405    441 247.9 -29.5  34118  288.85 0855.26
2009/04/23 10:37:39.4    -454     32   -162    456    485 274.1 -19.6  34120  288.88 0855.26
2009/04/23 10:37:39.5    -382      3   -261    383    463 270.6 -42.0  34110  288.73 0855.26
2009/04/23 10:37:39.6    -319     67   -196    327    381 281.9 -38.1  34110  288.72 0855.26
2009/04/23 10:37:39.7    -274     78   -198    285    347 285.9 -42.7  34110  288.71 0855.26
2009/04/23 10:37:39.8    -326    -10   -196    327    381 268.2 -38.1  34110  288.74 0855.26
2009/04/23 10:37:39.9    -363     56   -228    368    432 278.8 -39.2  34118  288.85 0855.26
2009/04/23 10:37:40.0    -329    -60   -133    335    360 259.7 -27.3  34128  289.03 0855.26
2009/04/23 10:37:40.1    -416    -12   -115    417    432 268.3 -20.0  34130  289.05 0855.26
2009/04/23 10:37:40.2    -474     82   -210    482    525 279.9 -29.5  34120  288.88 0855.26
2009/04/23 10:37:40.3    -383     -5    -98    384    397 269.1 -14.4  34136  289.16 0855.26
2009/04/23 10:37:40.4    -418     -7    -82    419    428 269.0 -11.1  34144  289.29 0855.26
2009/04/23 10:37:40.5    -422   -127   -145    441    464 253.2 -23.7  34152  289.44 0855.26
2009/04/23 10:37:40.6    -314    -89   -131    327    352 254.2 -27.4  34136  289.18 0855.26
2009/04/23 10:37:40.7    -240    -87   -122    256    283 250.0 -31.7  34142  289.27 0855.26
2009/04/23 10:37:40.8    -253    -19   -137    254    288 265.6 -35.0  34122  288.93 0855.26
2009/04/23 10:37:40.9    -172     14     -9    173    174 275.0  -3.3  34130  289.06 0855.26
2009/04/23 10:37:41.0    -129   -109    -15    169    170 229.8  -5.2  34146  289.35 0855.26
2009/04/23 10:37:41.1    -177   -112    -64    210    220 237.8 -17.0  34160  289.58 0855.26
2009/04/23 10:37:41.2    -104   -333    -25    350    351 197.4  -4.2  34152  289.45 0855.25
2009/04/23 10:37:41.3    -102   -279   -106    298    317 200.1 -19.7  34148  289.36 0855.25
2009/04/23 10:37:41.4     -14   -355    -42    356    359 182.3  -6.9  34136  289.15 0855.25
2009/04/23 10:37:41.5      58   -389    -40    394    397 171.4  -5.9  34126  288.98 0855.25
2009/04/23 10:37:41.6     173   -319   -153    364    394 151.5 -28.6  34126  289.01 0855.25
2009/04/23 10:37:41.7     180   -339   -120    385    403 152.0 -22.3  34128  289.03 0855.25
2009/04/23 10:37:41.8     108   -300   -107    320    338 160.1 -18.6  34126  289.01 0855.25
2009/04/23 10:37:41.9      93   -333    -21    346    347 164.3  -3.5  34112  288.77 0855.25
2009/04/23 10:37:42.0     165   -298    -43    341    344 151.0  -7.3  34120  288.89 0855.25
2009/04/23 10:37:42.1     120   -315    -10    338    339 159.2  -1.7  34120  288.89 0855.25
2009/04/23 10:37:42.2     139   -246   -101    283    301 150.6 -19.7  34120  288.88 0855.25
2009/04/23 10:37:42.3     169   -204    -85    265    278 140.4 -22.9  34124  288.95 0855.25
2009/04/23 10:37:42.4     -44   -313    120    317    338 188.1  21.7  34120  288.89 0855.25
2009/04/23 10:37:42.5      78   -268    136    280    311 163.7  27.4  34124  288.95 0855.25
2009/04/23 10:37:42.6     230   -276    104    360    375 140.2  16.1  34120  288.88 0855.25
2009/04/23 10:37:42.7     234   -251    124    344    365 137.0  20.7  34122  288.93 0855.25
2009/04/23 10:37:42.8     257   -247    149    357    386 133.8  23.9  34124  288.96 0855.25
2009/04/23 10:37:42.9     311   -203    146    372    399 123.2  22.5  34130  289.06 0855.25
2009/04/23 10:37:43.0     321   -260    167    414    446 129.0  23.1  34130  289.05 0855.25
2009/04/23 10:37:43.1     359   -182     85    403    413 117.0  12.0  34126  289.00 0855.25
2009/04/23 10:37:43.2     288   -152    111    326    345 117.9  18.8  34130  289.06 0855.26
2009/04/23 10:37:43.3     289   -148    109    325    343 117.1  18.6  34132  289.11 0855.26
2009/04/23 10:37:43.4     294   -117    185    317    367 111.7  33.0  34128  289.04 0855.26
2009/04/23 10:37:43.5     164    -99    136    192    235 121.1  38.8  34132  289.09 0855.26
2009/04/23 10:37:43.6     101   -170    -49    198    204 149.3 -13.9  34130  289.08 0855.26
2009/04/23 10:37:43.7     106   -182     50    211    217 149.7  13.5  34130  289.08 0855.26
2009/04/23 10:37:43.8     118   -142     86    185    204 140.3  26.6  34136  289.16 0855.26
2009/04/23 10:37:43.9      38   -224     58    228    236 170.3  14.3  34136  289.17 0855.26
2009/04/23 10:37:44.0      35   -193      1    197    198 169.5   0.5  34134  289.13 0855.26
2009/04/23 10:37:44.1     -51   -251     36    257    260 191.6   8.0  34132  289.10 0855.26
2009/04/23 10:37:44.2     -81   -233      9    247    248 199.2   2.1  34130  289.07 0855.26
2009/04/23 10:37:44.3    -125   -160     40    204    208 218.1  11.1  34132  289.11 0855.26
2009/04/23 10:37:44.4    -118    -71    -27    139    142 238.9 -11.3  34132  289.09 0855.26
2009/04/23 10:37:44.5     -23   -198     78    200    214 186.7  22.5  34132  289.11 0855.26
2009/04/23 10:37:44.6      41   -204    109    209    235 168.4  29.5  34136  289.16 0855.26
2009/04/23 10:37:44.7       5   -117    111    118    162 177.3  48.2  34140  289.23 0855.26
2009/04/23 10:37:44.8      82   -190     10    208    209 156.6   2.9  34136  289.16 0855.26
2009/04/23 10:37:44.9     112   -164    -52    199    206 145.7 -14.7  34140  289.23 0855.26
2009/04/23 10:37:45.0     143   -103    -43    177    183 125.7 -13.9  34134  289.14 0855.26
2009/04/23 10:37:45.1     192   -114    -26    224    226 120.7  -6.7  34138  289.21 0855.26
2009/04/23 10:37:45.2     211   -134    -79    250    263 122.4 -17.6  34136  289.17 0855.25
2009/04/23 10:37:45.3     140    -55     64    151    164 111.7  24.1  34138  289.19 0855.25
2009/04/23 10:37:45.4      -6    -87    -24     88     92 184.5 -15.4  34140  289.24 0855.25
2009/04/23 10:37:45.5      43   -160     44    166    172 164.9  15.0  34138  289.21 0855.25
2009/04/23 10:37:45.6     122   -101     48    159    167 129.6  16.8  34138  289.21 0855.25
2009/04/23 10:37:45.7     124    -79      7    148    149 122.4   2.9  34142  289.28 0855.25
2009/04/23 10:37:45.8     113   -261    -37    285    288 156.6  -7.5  34140  289.22 0855.25
2009/04/23 10:37:45.9      82   -261    -86    274    288 162.6 -17.5  34142  289.25 0855.25
2009/04/23 10:37:46.0     121   -255     39    283    286 154.5   8.0  34136  289.15 0855.25
2009/04/23 10:37:46.1     157   -296     51    336    340 152.1   8.7  34134  289.13 0855.25
2009/04/23 10:37:46.2     209   -213     69    299    307 135.5  13.1  34134  289.12 0855.25
2009/04/23 10:37:46.3     235   -214     90    319    332 132.3  15.8  34138  289.19 0855.25
2009/04/23 10:37:46.4     248   -206     29    323    325 129.6   5.2  34132  289.09 0855.25
2009/04/23 10:37:46.5     215   -201    132    295    323 133.1  25.8  34140  289.22 0855.25
2009/04/23 10:37:46.6     255   -248    150    357    387 134.2  24.1  34132  289.11 0855.25
2009/04/23 10:37:46.7     263   -149     65    303    311 119.5  12.2  34138  289.20 0855.25
2009/04/23 10:37:46.8     323   -200     60    380    385 121.8   9.0  34136  289.18 0855.25
2009/04/23 10:37:46.9     252   -221     57    336    341 131.2   9.7  34136  289.18 0855.25
2009/04/23 10:37:47.0     251   -199     28    321    323 128.4   5.1  34134  289.14 0855.25
2009/04/23 10:37:47.1     261   -232     33    350    352 131.7   5.5  34138  289.21 0855.25
2009/04/23 10:37:47.2     217   -171    105    277    296 128.2  22.0  34138  289.19 0855.25
2009/04/23 10:37:47.3     187   -130    125    228    260 124.9  31.3  34134  289.14 0855.25
2009/04/23 10:37:47.4     262   -237     82    354    364 132.2  13.1  34136  289.16 0855.25
2009/04/23 10:37:47.5     198   -336    170    391    426 149.5  25.1  34128  289.02 0855.25
2009/04/23 10:37:47.6      88   -395    228    405    464 167.4  31.7  34136  289.17 0855.25
2009/04/23 10:37:47.7      42   -300    170    304    348 172.0  31.6  34136  289.16 0855.25
2009/04/23 10:37:47.8     -23   -212    246    214    326 186.2  54.7  34144  289.29 0855.25
2009/04/23 10:37:47.9     225      0    126    226    258  90.0  31.4  34142  289.27 0855.25
2009/04/23 10:37:48.0     311   -109    166    330    369 109.4  28.7  34142  289.25 0855.25
2009/04/23 10:37:48.1     200   -218    136    297    326 137.5  26.3  34140  289.24 0855.25
2009/04/23 10:37:48.2     229   -195    226    301    376 130.4  40.6  34140  289.23 0855.25
2009/04/23 10:37:48.3     260   -223    225    343    410 130.7  36.5  34140  289.23 0855.25
2009/04/23 10:37:48.4     111   -305    167    325    365 159.9  29.3  34138  289.21 0855.25
2009/04/23 10:37:48.5       0   -244    140    245    282 180.2  32.4  34140  289.22 0855.25
2009/04/23 10:37:48.6     -62   -230    182    239    300 195.2  41.2  34146  289.34 0855.25
2009/04/23 10:37:48.7      38   -103    106    111    153 159.5  49.0  34150  289.40 0855.25
2009/04/23 10:37:48.8      82    -30    112     88    142 110.4  57.9  34152  289.43 0855.25
2009/04/23 10:37:48.9      20     -2     89     21     91  97.9  86.9  34154  289.48 0855.25
2009/04/23 10:37:49.0      16     95     21     97    100   9.8  12.2  34156  289.52 0855.25
2009/04/23 10:37:49.1     107     78    117    133    177  53.6  46.2  34148  289.36 0855.25
2009/04/23 10:37:49.2     122    101     53    159    168  50.5  18.6  34146  289.35 0855.25
2009/04/23 10:37:49.3     182    116      8    217    218  57.4   2.3  34144  289.30 0855.25
2009/04/23 10:37:49.4     184    135     27    229    231  53.6   6.9  34148  289.36 0855.25
2009/04/23 10:37:49.5     193    109     -8    222    223  60.5  -2.2  34148  289.36 0855.25
2009/04/23 10:37:49.6     171    142     18    223    224  50.2   4.9  34152  289.43 0855.25
2009/04/23 10:37:49.7     119     60     74    134    153  63.0  31.4  34150  289.41 0855.25
2009/04/23 10:37:49.8     123     36    110    129    169  73.6  44.5  34152  289.43 0855.25
2009/04/23 10:37:49.9      54     -4    107     55    120  94.3  70.8  34160  289.58 0855.25
2009/04/23 10:37:50.0      60    -38    123     72    142 122.4  67.2  34164  289.65 0855.25
2009/04/23 10:37:50.1      25     -8    121     27    123 108.6  88.0  34166  289.67 0855.25
2009/04/23 10:37:50.2      61    -18    107     64    124 106.8  66.7  34160  289.57 0855.25
2009/04/23 10:37:50.3     116    121     37    168    173  43.9  12.6  34152  289.45 0855.25
2009/04/23 10:37:50.4      64     77     88    101    133  39.6  45.8  34154  289.46 0855.25
2009/04/23 10:37:50.5     104     67     67    124    140  57.1  31.3  34150  289.40 0855.25
2009/04/23 10:37:50.6     103     75     86    128    154  54.0  37.0  34152  289.43 0855.25
2009/04/23 10:37:50.7      83     33    122     90    151  68.3  60.5  34158  289.53 0855.25
2009/04/23 10:37:50.8      82    114    109    141    178  35.6  41.7  34150  289.41 0855.25
2009/04/23 10:37:50.9     112     72    119    134    179  57.1  46.4  34156  289.52 0855.25
2009/04/23 10:37:51.0     104     67    130    125    180  57.1  51.2  34166  289.67 0855.25
2009/04/23 10:37:51.1     129     74    153    149    213  60.2  50.4  34188  290.04 0855.25
2009/04/23 10:37:51.2      93    168    161    193    251  29.0  44.1  34230  290.75 0855.24
2009/04/23 10:37:51.3     111    188    116    219    247  30.7  30.2  34208  290.37 0855.24
2009/04/23 10:37:51.4     -78    177    152    194    246 336.2  42.4  34184  289.97 0855.24
2009/04/23 10:37:51.5     -17    175     65    176    187 354.2  21.0  34190  290.09 0855.24
2009/04/23 10:37:51.6     -40    216     42    220    224 349.5  10.8  34186  290.01 0855.24
2009/04/23 10:37:51.7       7    201     70    202    214   2.0  19.2  34194  290.16 0855.24
2009/04/23 10:37:51.8      84    215     36    232    235  21.4   8.9  34200  290.24 0855.24
2009/04/23 10:37:51.9      98    178     15    204    205  28.7   4.2  34182  289.96 0855.24
2009/04/23 10:37:52.0      35    165    -33    169    173  12.3 -11.3  34202  290.28 0855.24
2009/04/23 10:37:52.1     165    176    -41    242    246  43.0  -9.6  34166  289.68 0855.24
2009/04/23 10:37:52.2     130    158    -75    205    218  39.4 -25.4  34166  289.69 0855.24
2009/04/23 10:37:52.3     191    169      7    256    257  48.4   1.7  34178  289.86 0855.24
2009/04/23 10:37:52.4     143    203    -17    249    250  35.2  -4.1  34176  289.83 0855.24
2009/04/23 10:37:52.6     150    208     57    257    264  36.0  12.6  34200  290.26 0855.24
2009/04/23 10:37:52.7     155    170     67    231    241  42.3  16.3  34178  289.86 0855.24
2009/04/23 10:37:52.8     219    183     29    286    288  50.0   5.9  34150  289.39 0855.24
2009/04/23 10:37:52.9     197    191     59    275    282  46.0  12.2  34156  289.51 0855.24
2009/04/23 10:37:53.0     186    180     50    259    264  46.0  11.1  34152  289.44 0855.24
2009/04/23 10:37:53.1     163    275    202    320    378  30.7  35.5  34150  289.40 0855.24
2009/04/23 10:37:53.2       2    171    179    172    248   0.9  51.2  34158  289.55 0855.24
2009/04/23 10:37:53.3      30     91     96     96    135  18.3  50.1  34162  289.62 0855.29
2009/04/23 10:37:53.4     138    114     21    180    182  50.4   6.7  34154  289.46 0855.29
2009/04/23 10:37:53.5     242     83    169    257    307  70.9  36.5  34148  289.36 0855.29
2009/04/23 10:37:53.6     139    158    118    211    241  41.4  31.9  34160  289.58 0855.29
2009/04/23 10:37:53.7     117    202     47    234    239  30.1  11.4  34172  289.78 0855.29
2009/04/23 10:37:53.8       0     60    -43     61     74 359.1 -43.0  34172  289.77 0855.29
2009/04/23 10:37:53.9      45     25    -91     52    104  61.1 -72.1  34180  289.92 0855.29
2009/04/23 10:37:54.0      88    154    -55    178    186  29.9 -22.5  34232  290.81 0855.29
2009/04/23 10:37:54.1       0    191    -47    192    198   0.0 -13.9  34190  290.09 0855.29
2009/04/23 10:37:54.2     -12    236    -74    237    249 356.9 -17.3  34176  289.83 0855.29
2009/04/23 10:37:54.3     -30    197   -104    200    225 351.3 -33.7  34172  289.79 0855.29
2009/04/23 10:37:54.4      31    165    -97    168    193  10.7 -37.1  34198  290.21 0855.29
2009/04/23 10:37:54.5      57    121    -75    134    153  25.3 -35.8  34206  290.36 0855.29
2009/04/23 10:37:54.6       8      3   -129      9    129  64.7 -90.0  34202  290.28 0855.29
2009/04/23 10:37:54.7      26    -77    -57     82     99 161.3 -43.0  34186  290.02 0855.29
2009/04/23 10:37:54.8      72    -77    -27    106    110 137.2 -14.5  34178  289.89 0855.29
2009/04/23 10:37:54.9     114   -114    -81    162    181 135.0 -32.9  34182  289.94 0855.29
2009/04/23 10:37:55.0      94    -77    -66    122    138 129.5 -35.7  34178  289.89 0855.29
2009/04/23 10:37:55.1     146    -48    -47    154    162 108.2 -17.0  34182  289.94 0855.29
2009/04/23 10:37:55.2     310    -43    -37    314    317  98.0  -6.9  34182  289.93 0855.29
2009/04/23 10:37:55.3     347    -10    -15    348    349  91.7  -2.5  34180  289.91 0855.27
2009/04/23 10:37:55.4     212    -36     27    216    218  99.6   7.2  34180  289.91 0855.27
2009/04/23 10:37:55.5     207     -3     83    208    223  90.9  23.0  34188  290.04 0855.27
2009/04/23 10:37:55.6     171    -17    114    172    206  95.7  36.7  34192  290.11 0855.27
2009/04/23 10:37:55.7     222   -131     -5    259    260 120.6  -1.1  34190  290.07 0855.27
2009/04/23 10:37:55.8     337    -90    -26    349    350 105.1  -4.4  34172  289.76 0855.27
2009/04/23 10:37:55.9     405   -190    -42    448    451 115.1  -5.5  34196  290.17 0855.27
2009/04/23 10:37:56.0     389   -140    -53    414    418 109.9  -7.4  34192  290.12 0855.27
2009/04/23 10:37:56.1     237   -159    -97    286    303 124.0 -18.7  34202  290.29 0855.27
2009/04/23 10:37:56.2     291      8     62    292    299  88.3  12.2  34166  289.68 0855.27
2009/04/23 10:37:56.3     352     -3     46    353    356  90.6   7.5  34164  289.64 0855.28
2009/04/23 10:37:56.4     366     24     16    367    368  86.2   2.5  34172  289.76 0855.28
2009/04/23 10:37:56.5     397     38     89    399    409  84.4  12.6  34160  289.56 0855.28
2009/04/23 10:37:56.6     370    -18      5    371    372  92.8   0.8  34168  289.72 0855.28
2009/04/23 10:37:56.7     459    167    -70    489    495  69.9  -8.2  34182  289.96 0855.28
2009/04/23 10:37:56.8     298   -185   -115    351    369 121.9 -23.6  34186  290.01 0855.28
2009/04/23 10:37:56.9     414   -176   -168    450    480 113.1 -25.9  34172  289.78 0855.28
2009/04/23 10:37:57.0     361    -28   -115    363    380  94.5 -22.8  34180  289.91 0855.28
2009/04/23 10:37:57.1     341   -191   -110    391    407 119.3 -15.7  34166  289.67 0855.28
2009/04/23 10:37:57.2     275   -275   -124    390    410 135.0 -17.7  34162  289.61 0855.28
2009/04/23 10:37:57.3     236   -243    -11    339    340 135.8  -1.9  34152  289.43 0855.28
2009/04/23 10:37:57.4     365   -154    -13    397    398 112.8  -1.9  34154  289.48 0855.28
2009/04/23 10:37:57.5     403     -5    113    404    420  90.7  15.7  34178  289.88 0855.28
2009/04/23 10:37:57.6     404    169    343    439    557  67.3  42.1  34180  289.92 0855.28
2009/04/23 10:37:57.7     470     95    204    480    521  78.5  24.5  34206  290.35 0855.28
2009/04/23 10:37:57.8     307    -82    285    318    427 105.1  46.6  34166  289.69 0855.28
2009/04/23 10:37:57.9     252    -72    139    263    297 106.0  30.2  34184  289.97 0855.28
2009/04/23 10:37:58.0     124   -194    134    231    267 147.5  32.7  34172  289.78 0855.28
2009/04/23 10:37:58.1      10   -231    142    232    272 177.3  34.8  34174  289.81 0855.28
2009/04/23 10:37:58.2       8   -273    196    274    336 178.2  39.2  34154  289.47 0855.28
2009/04/23 10:37:58.3     114   -224    197    252    319 152.9  42.0  34154  289.47 0855.29
2009/04/23 10:37:58.4     131   -171    164    216    271 142.4  40.9  34152  289.42 0855.29
2009/04/23 10:37:58.5     174    -68     78    188    203 111.5  23.6  34152  289.45 0855.29
2009/04/23 10:37:58.6     212    -65    170    222    279 107.1  41.6  34152  289.42 0855.29
2009/04/23 10:37:58.7      58     13    188     60    197  76.7  81.8  34174  289.82 0855.29
2009/04/23 10:37:58.8     253    107    177    275    327  66.9  35.7  34228  290.73 0855.29
2009/04/23 10:37:58.9     195     63    180    205    272  72.1  45.8  34244  291.00 0855.29
2009/04/23 10:37:59.0      35    -32    123     48    132 133.1  78.2  34182  289.96 0855.29
2009/04/23 10:37:59.1      20     76    102     79    129  15.1  58.5  34178  289.89 0855.29
2009/04/23 10:37:59.2     121     -3     83    122    147  91.7  37.4  34158  289.53 0855.29
2009/04/23 10:37:59.3     -15   -106    132    108    170 188.5  56.4  34156  289.52 0855.29
2009/04/23 10:37:59.4      85   -176    223    196    296 154.1  54.3  34158  289.54 0855.29
2009/04/23 10:37:59.5      21     20     75     30     80  46.7  77.1  34194  290.14 0855.29
2009/04/23 10:37:59.6     253   -155    147    297    331 121.5  28.4  34174  289.80 0855.29
2009/04/23 10:37:59.7     231    -71    191    242    308 107.1  42.4  34236  290.85 0855.29
2009/04/23 10:37:59.8     328    -49    161    332    368  98.6  27.7  34232  290.81 0855.29
2009/04/23 10:37:59.9     377    198    189    426    466  62.3  25.3  34232  290.80 0855.29
2009/04/23 10:38:00.0     343    142     85    372    382  67.5  12.9  34204  290.32 0855.29
2009/04/23 10:38:00.1     240    152    193    285    344  57.6  37.3  34270  291.43 0855.29
2009/04/23 10:38:00.2     255    223    126    339    361  48.8  21.1  34230  290.76 0855.29
2009/04/23 10:38:00.3     342    182    263    388    468  61.9  37.4  34258  291.24 0855.28
2009/04/23 10:38:00.4     388    165    246    422    488  66.9  32.9  34222  290.64 0855.28
2009/04/23 10:38:00.5     276    152    203    316    375  61.1  35.6  34208  290.37 0855.28
2009/04/23 10:38:00.6     268    238    198    359    409  48.4  31.4  34198  290.20 0855.28
2009/04/23 10:38:00.7     161    246    248    295    385  33.2  44.2  34192  290.11 0855.28
2009/04/23 10:38:00.8     153    241    302    286    415  32.5  52.0  34220  290.59 0855.28
2009/04/23 10:38:00.9     182    274    240    330    408  33.6  39.7  34212  290.45 0855.28
2009/04/23 10:38:01.0     183    289    211    343    402  32.4  34.5  34232  290.81 0855.28
2009/04/23 10:38:01.1      73    310    237    319    397  13.4  40.4  34244  291.01 0855.28
2009/04/23 10:38:01.2      52    335    186    340    387   8.9  31.3  34234  290.83 0855.28
2009/04/23 10:38:01.3    -405    417    103    582    592 315.9  10.1  34220  290.59 0855.28
2009/04/23 10:38:01.4    -348    165    150    386    414 295.4  22.4  34212  290.44 0855.28
2009/04/23 10:38:01.5     -91    221    152    240    284 337.5  35.5  34244  291.00 0855.28
2009/04/23 10:38:01.6     -78    236    167    249    299 341.5  37.0  34256  291.21 0855.28
2009/04/23 10:38:01.7    -126    231    156    264    306 331.3  33.5  34256  291.21 0855.28
2009/04/23 10:38:01.8    -207    148    101    255    274 305.5  23.0  34248  291.05 0855.28
2009/04/23 10:38:01.9    -214    126     41    249    253 300.6   9.3  34180  289.92 0855.28
2009/04/23 10:38:02.0    -242    -48    -74    247    257 258.6 -21.5  34108  288.68 0855.28
2009/04/23 10:38:02.1    -188    -89    -28    209    211 244.6  -7.7  34104  288.64 0855.28
2009/04/23 10:38:02.2    -202   -241    -80    315    326 219.9 -14.3  34092  288.43 0855.28
2009/04/23 10:38:02.3     -88   -241     -9    257    258 200.1  -2.1  34098  288.51 0855.27
2009/04/23 10:38:02.4       0   -180    108    181    210 180.0  33.5  34100  288.57 0855.27
2009/04/23 10:38:02.5      54   -142    111    153    189 159.1  39.7  34098  288.52 0855.27
2009/04/23 10:38:02.6      52   -186    156    194    248 164.4  43.0  34104  288.64 0855.27
2009/04/23 10:38:02.7      97    -58     89    114    144 121.1  41.7  34120  288.89 0855.27
2009/04/23 10:38:02.8     -10   -161    122    162    202 183.6  40.7  34118  288.86 0855.27
2009/04/23 10:38:02.9    -148   -237    107    280    299 211.9  22.0  34134  289.12 0855.27
2009/04/23 10:38:03.0    -217   -220    134    310    337 224.5  24.8  34182  289.93 0855.27
2009/04/23 10:38:03.1    -358   -247     54    435    439 235.4   7.1  34146  289.34 0855.27
2009/04/23 10:38:03.2    -420   -284    -37    508    510 235.9  -4.2  34136  289.15 0855.27
2009/04/23 10:38:03.3    -424   -288    253    513    571 235.8  28.2  34154  289.48 0855.27
2009/04/23 10:38:03.4    -638   -252    148    687    703 248.4  12.2  34152  289.42 0855.27
2009/04/23 10:38:03.5    -497    -56     53    501    504 263.5   6.1  34138  289.20 0855.27
2009/04/23 10:38:03.6    -536   -115     -2    549    550 257.9  -0.3  34176  289.85 0855.27
2009/04/23 10:38:03.7    -563   -125   -141    577    595 257.4 -13.8  34164  289.64 0855.27
2009/04/23 10:38:03.8    -687    -73   -209    691    721 263.9 -21.7  34124  288.96 0855.27
2009/04/23 10:38:03.9    -569   -152   -151    589    609 255.0 -14.4  34138  289.19 0855.27
2009/04/23 10:38:04.0    -636   -154      5    655    656 256.3   0.5  34176  289.84 0855.27
2009/04/23 10:38:04.1    -544   -308    172    626    650 240.5  15.4  34162  289.59 0855.27
2009/04/23 10:38:04.2    -304    462    179    554    583 326.6  17.9  34136  289.17 0855.27
2009/04/23 10:38:04.3    -222    287    132    364    388 322.3  19.9  34134  289.13 0855.28
2009/04/23 10:38:04.4    -185    340    -77    388    396 331.4 -11.2  34134  289.13 0855.28
2009/04/23 10:38:04.5    -258    405    -44    481    484 327.5  -5.3  34138  289.20 0855.28
2009/04/23 10:38:04.6     -27    418    147    419    445 356.3  19.3  34142  289.27 0855.28
2009/04/23 10:38:04.7      96    534    127    543    558  10.3  13.2  34154  289.48 0855.28
2009/04/23 10:38:04.8      -7    597    146    598    616 359.3  13.8  34166  289.66 0855.28
2009/04/23 10:38:04.9      65    325     -7    332    333  11.3  -1.3  34160  289.57 0855.28
2009/04/23 10:38:05.0     279    411    -15    498    499  34.2  -1.8  34156  289.49 0855.28
2009/04/23 10:38:05.1     172    412    122    447    464  22.7  15.3  34154  289.48 0855.28
2009/04/23 10:38:05.2      61    214    194    223    295  16.0  45.8  34160  289.56 0855.28
2009/04/23 10:38:05.3     274    170    174    323    366  58.2  30.7  34156  289.50 0855.28
2009/04/23 10:38:05.4     325    253    165    413    444  52.1  23.0  34150  289.39 0855.28
2009/04/23 10:38:05.5     448    209    274    495    565  64.9  31.4  34152  289.43 0855.28
2009/04/23 10:38:05.6     304    145    320    337    464  64.5  48.4  34158  289.53 0855.28
2009/04/23 10:38:05.7     103    219    236    243    338  25.3  49.2  34158  289.54 0855.28
2009/04/23 10:38:05.8     123    292    164    318    357  22.9  29.4  34142  289.26 0855.28
2009/04/23 10:38:05.9     304     74    -82    313    324  76.3 -14.7  34144  289.29 0855.28
2009/04/23 10:38:06.0     323    159   -122    361    381  63.7 -23.5  34142  289.26 0855.28
2009/04/23 10:38:06.1     384     78    -21    392    393  78.5  -3.2  34146  289.35 0855.28
2009/04/23 10:38:06.2     457    192     33    496    498  67.2   3.9  34134  289.13 0855.28
2009/04/23 10:38:06.3     448    240    -55    509    513  61.8  -6.2  34130  289.08 0855.25
2009/04/23 10:38:06.4     409    248   -190    479    515  58.8 -27.3  34130  289.08 0855.25
2009/04/23 10:38:06.5     393    194   -262    439    511  63.7 -37.9  34134  289.13 0855.25
2009/04/23 10:38:06.6     213     -7   -140    214    255  91.9 -40.9  34138  289.20 0855.25
2009/04/23 10:38:06.7     284    -71     71    293    302 104.1  13.7  34142  289.25 0855.25
2009/04/23 10:38:06.8     373     30    188    375    419  85.3  28.5  34140  289.24 0855.25
2009/04/23 10:38:06.9     376     64    166    382    416  80.3  25.0  34148  289.36 0855.25
2009/04/23 10:38:07.0     349    174    136    390    414  63.5  19.2  34162  289.61 0855.25
2009/04/23 10:38:07.1     244    306    146    392    418  38.5  21.4  34188  290.04 0855.25
2009/04/23 10:38:07.2     316    429    139    534    552  36.4  14.7  34186  290.01 0855.25
2009/04/23 10:38:07.3     250    379    158    455    482  33.4  19.2  34182  289.96 0855.25
2009/04/23 10:38:07.4      83    275    202    288    351  16.9  38.5  34190  290.08 0855.25
2009/04/23 10:38:07.5     -95    356    140    369    394 345.0  21.8  34192  290.10 0855.25
2009/04/23 10:38:07.6    -119    221    153    252    294 331.7  34.0  34192  290.12 0855.25
2009/04/23 10:38:07.7      20     60    128     64    143  18.7  71.4  34194  290.16 0855.25
2009/04/23 10:38:07.8    -125     76    -66    147    161 301.5 -30.1  34180  289.92 0855.25
2009/04/23 10:38:07.9     -21    106   -134    109    172 348.5 -60.8  34174  289.80 0855.25
2009/04/23 10:38:08.0      -8      0    -84      9     84 265.6 -90.0  34180  289.91 0855.25
2009/04/23 10:38:08.1     -39     17    -92     43    101 293.5 -77.5  34174  289.80 0855.25
2009/04/23 10:38:08.2     -93     -7    -62     94    112 265.7 -40.4  34172  289.79 0855.25
2009/04/23 10:38:08.3     -91    -30   -108     96    144 251.6 -58.1  34168  289.70 0855.25
2009/04/23 10:38:08.4      -2    162   -103    163    192 359.1 -39.9  34174  289.80 0855.25
2009/04/23 10:38:08.5      27      4   -147     28    149  80.3 -90.0  34184  289.97 0855.25
2009/04/23 10:38:08.6    -113     30   -147    117    187 285.1 -61.5  34160  289.57 0855.25
2009/04/23 10:38:08.7    -161    -38   -155    166    227 256.7 -52.3  34168  289.70 0855.25
2009/04/23 10:38:08.8    -221    -14    -76    222    234 266.3 -24.0  34168  289.72 0855.25
2009/04/23 10:38:08.9    -163   -103    -73    194    207 237.6 -25.9  34184  289.97 0855.25
2009/04/23 10:38:09.0    -155    -43    -58    162    173 254.3 -19.7  34176  289.84 0855.25
2009/04/23 10:38:09.1    -116   -131    -68    176    188 221.4 -26.7  34166  289.67 0855.25
2009/04/23 10:38:09.2     -71    -96    -57    120    132 216.5 -31.5  34164  289.65 0855.25
2009/04/23 10:38:09.3      12    -74     41     76     86 170.2  30.8  34168  289.70 0855.25
2009/04/23 10:38:09.4     -19    -82     69     85    109 193.4  43.7  34184  289.97 0855.25
2009/04/23 10:38:09.5     -70    -57     74     91    117 230.9  43.7  34214  290.50 0855.25
2009/04/23 10:38:09.6     -25     20     36     33     48 309.5  51.2  34210  290.43 0855.25
2009/04/23 10:38:09.7      -3      3     17      5     17 313.3  80.7  34212  290.47 0855.25
2009/04/23 10:38:09.8     -20     10     74     23     77 297.1  80.7  34208  290.40 0855.25
2009/04/23 10:38:09.9     -43     36    113     57    126 309.5  71.0  34218  290.57 0855.25
2009/04/23 10:38:10.0     -58     17    114     61    129 286.8  69.8  34220  290.60 0855.25
2009/04/23 10:38:10.1    -132    -26     73    135    153 258.5  31.3  34210  290.41 0855.25
2009/04/23 10:38:10.2     -97    127     46    160    167 322.6  16.3  34200  290.26 0855.25
2009/04/23 10:38:10.3    -217    141    -71    260    270 303.1 -15.4  34192  290.12 0855.27
2009/04/23 10:38:10.4    -233     94    -65    252    261 292.0 -14.5  34162  289.61 0855.27
2009/04/23 10:38:10.5    -205    132    -72    245    256 302.9 -16.4  34170  289.73 0855.27
2009/04/23 10:38:10.6    -220    104     57    244    251 295.3  13.2  34190  290.09 0855.27
2009/04/23 10:38:10.7    -315    119    118    337    358 290.8  19.3  34210  290.42 0855.27
2009/04/23 10:38:10.8    -267    179     45    322    326 303.9   8.0  34202  290.27 0855.27
2009/04/23 10:38:10.9    -276    178     -2    329    330 302.8  -0.5  34194  290.16 0855.27
2009/04/23 10:38:11.0    -259    101    -21    279    280 291.3  -4.4  34196  290.17 0855.27
2009/04/23 10:38:11.1    -326    201      0    384    385 301.7   0.0  34188  290.06 0855.27
2009/04/23 10:38:11.2    -462    236    -60    519    523 297.1  -6.7  34178  289.87 0855.27
2009/04/23 10:38:11.3    -401    258    -81    478    485 302.8  -9.7  34180  289.91 0855.27
2009/04/23 10:38:11.4    -385    218   -104    443    456 299.5 -13.3  34148  289.38 0855.27
2009/04/23 10:38:11.5    -451    148   -150    475    498 288.2 -22.6  34126  289.01 0855.27
2009/04/23 10:38:11.6    -300    244   -192    387    432 309.1 -32.6  34158  289.55 0855.27
2009/04/23 10:38:11.7    -190    343   -124    393    413 331.0 -17.6  34154  289.46 0855.27
2009/04/23 10:38:11.8    -328    147    110    360    377 294.1  17.1  34184  289.99 0855.27
2009/04/23 10:38:11.9    -408    184    -14    448    449 294.3  -1.9  34178  289.88 0855.27
2009/04/23 10:38:12.0    -323    267     40    420    422 309.6   5.5  34186  290.00 0855.27
2009/04/23 10:38:12.1    -301    261    -41    399    402 310.9  -5.9  34168  289.71 0855.27
2009/04/23 10:38:12.2    -268    262     -3    375    376 314.3  -0.6  34164  289.64 0855.27
2009/04/23 10:38:12.3    -135    174    136    221    259 322.1  34.5  34176  289.83 0855.26
2009/04/23 10:38:12.4    -214    103    166    238    290 295.8  38.0  34170  289.75 0855.26
2009/04/23 10:38:12.5    -194    137     97    238    257 305.3  23.1  34162  289.61 0855.26
2009/04/23 10:38:12.6    -163    198    124    257    285 320.6  27.3  34164  289.63 0855.26
2009/04/23 10:38:12.7     -49    210     37    216    220 346.9   9.9  34170  289.74 0855.26
2009/04/23 10:38:12.8     -68    239     14    249    250 344.0   3.3  34182  289.93 0855.26
2009/04/23 10:38:12.9    -101    250     49    270    275 337.9  10.3  34184  289.98 0855.26
2009/04/23 10:38:13.0     -41    292    -11    295    296 352.0  -2.2  34172  289.76 0855.26
2009/04/23 10:38:13.1      26    282    -11    284    285   5.3  -2.2  34174  289.81 0855.26
2009/04/23 10:38:13.2     -25    275    -13    277    278 354.7  -2.8  34178  289.86 0855.26
2009/04/23 10:38:13.3     -92    220     83    239    254 337.3  19.2  34204  290.31 0855.26
2009/04/23 10:38:13.4     -57    248     48    255    260 346.9  10.8  34198  290.20 0855.26
2009/04/23 10:38:13.5    -187    145     33    237    240 307.8   8.0  34186  290.02 0855.26
2009/04/23 10:38:13.6    -238     25     25    240    242 276.1   6.0  34210  290.42 0855.26
2009/04/23 10:38:13.7    -231    -17     -7    232    233 265.7  -1.8  34196  290.18 0855.26
2009/04/23 10:38:13.8    -179      0    -61    180    191 270.0 -18.9  34186  290.02 0855.26
2009/04/23 10:38:13.9       0    107     49    108    118   0.5  25.7  34184  289.99 0855.26
2009/04/23 10:38:14.0     -13     68     90     70    114 349.3  57.9  34178  289.89 0855.26
2009/04/23 10:38:14.1     -53     13     60     55     81 284.2  52.7  34182  289.94 0855.26
2009/04/23 10:38:14.2     -67    -67     58     95    111 225.0  35.0  34186  290.02 0855.26
2009/04/23 10:38:14.3    -182    -36     34    186    190 258.8  10.3  34182  289.96 0855.19
2009/04/23 10:38:14.4    -215    -53     48    222    228 256.1  12.2  34184  289.99 0855.19
2009/04/23 10:38:14.5    -236    -60     30    244    246 255.6   7.2  34182  289.95 0855.19
2009/04/23 10:38:14.6    -217    -95     37    238    241 246.3   9.0  34196  290.17 0855.19
2009/04/23 10:38:14.7    -167    -55     69    176    189 251.6  22.5  34196  290.19 0855.19
2009/04/23 10:38:14.8    -205    -28     18    207    208 262.1   5.2  34194  290.14 0855.19
2009/04/23 10:38:14.9    -228    -40      3    232    233 259.9   0.8  34192  290.13 0855.19
2009/04/23 10:38:15.0    -174   -139     11    223    224 231.4   2.9  34192  290.13 0855.19
2009/04/23 10:38:15.1    -202   -157     88    257    272 232.2  18.9  34202  290.29 0855.19
2009/04/23 10:38:15.2    -213    -88      9    231    232 247.4   2.3  34200  290.26 0855.19
2009/04/23 10:38:15.3    -217      3      3    218    219 270.8   1.0  34200  290.25 0855.19
2009/04/23 10:38:15.4    -179    -62     71    190    202 250.7  21.0  34200  290.26 0855.19
2009/04/23 10:38:15.5    -149    -82    117    171    207 241.1  37.6  34198  290.21 0855.19
2009/04/23 10:38:15.6    -147   -248    156    289    328 210.7  30.7  34164  289.63 0855.19
2009/04/23 10:38:15.7    -160   -278    119    321    342 209.9  21.3  34158  289.55 0855.19
2009/04/23 10:38:15.8    -148   -329    148    361    390 204.2  23.6  34154  289.47 0855.19
2009/04/23 10:38:15.9    -136   -300    179    330    375 204.5  30.9  34154  289.48 0855.19
2009/04/23 10:38:16.0    -130   -296    142    324    353 203.8  25.2  34160  289.57 0855.19
2009/04/23 10:38:16.1     -72   -339     81    347    357 192.1  13.2  34156  289.50 0855.19
2009/04/23 10:38:16.2     -29   -317    140    319    348 185.3  25.2  34162  289.62 0855.19
2009/04/23 10:38:16.3      23   -238     90    240    256 174.4  21.7  34162  289.61 0855.13
2009/04/23 10:38:16.4      23   -307     55    308    314 175.6  10.2  34164  289.63 0855.13
2009/04/23 10:38:16.5     -25   -270    127    272    300 185.3  27.1  34166  289.66 0855.13
2009/04/23 10:38:16.6     -82   -264     41    277    281 197.4   8.5  34166  289.68 0855.13
2009/04/23 10:38:16.7      -1   -214     75    215    228 180.5  19.4  34166  289.67 0855.13
2009/04/23 10:38:16.8      58   -207     47    216    222 164.2  12.4  34168  289.72 0855.13
2009/04/23 10:38:16.9     -19   -250    -22    251    253 184.4  -5.2  34170  289.75 0855.13
2009/04/23 10:38:17.0      20   -411      0    412    413 177.1   0.1  34150  289.39 0855.13
2009/04/23 10:38:17.1     134   -507     -8    525    526 165.2  -0.9  34144  289.31 0855.13
2009/04/23 10:38:17.2     127   -475     28    492    493 165.0   3.3  34142  289.27 0855.13
2009/04/23 10:38:17.3     139   -515     97    534    543 164.9  10.3  34136  289.18 0855.15
2009/04/23 10:38:17.4     245   -571    127    622    636 156.8  11.6  34144  289.30 0855.15
2009/04/23 10:38:17.5     278   -504     23    576    577 151.1   2.3  34146  289.32 0855.15
2009/04/23 10:38:17.6     273   -399     27    484    485 145.6   3.3  34148  289.37 0855.15
2009/04/23 10:38:17.7     257   -403     23    479    480 147.5   2.8  34150  289.40 0855.15
2009/04/23 10:38:17.8     277   -359     30    454    456 142.3   3.8  34152  289.44 0855.15
2009/04/23 10:38:17.9     223   -329     -1    398    399 145.8  -0.3  34144  289.30 0855.15
2009/04/23 10:38:18.0      72   -331     34    339    341 167.7   5.8  34146  289.32 0855.15
2009/04/23 10:38:18.1      23   -300     47    301    305 175.5   9.0  34142  289.27 0855.15
2009/04/23 10:38:18.2     205   -240     73    316    325 139.5  13.1  34130  289.05 0855.15
2009/04/23 10:38:18.3     114   -241    105    267    286 154.7  22.8  34140  289.22 0855.15
2009/04/23 10:38:18.4     153   -335     98    369    382 155.4  15.0  34132  289.11 0855.15
2009/04/23 10:38:18.5      79   -272    100    284    301 163.7  20.0  34136  289.15 0855.15
2009/04/23 10:38:18.6      94   -305    105    320    337 162.8  18.2  34142  289.25 0855.15
2009/04/23 10:38:18.7      46   -362     78    365    374 172.7  12.1  34146  289.35 0855.15
2009/04/23 10:38:18.9     -27   -275     15    277    278 185.8   3.1  34142  289.27 0855.15
2009/04/23 10:38:18.9      -2   -318     15    319    320 180.5   2.8  34136  289.15 0855.15
2009/04/23 10:38:19.0     106   -385    126    400    420 164.5  17.5  34134  289.12 0855.15
2009/04/23 10:38:19.2      10   -224    140    225    265 177.3  35.2  34136  289.17 0855.15
2009/04/23 10:38:19.3     107   -180    151    210    258 149.2  39.5  34146  289.34 0855.15
2009/04/23 10:38:19.4     130   -266     55    297    303 153.9  10.6  34132  289.10 0855.18
2009/04/23 10:38:19.5      81   -222     91    237    253 160.0  22.0  34136  289.17 0855.18
2009/04/23 10:38:19.6      52   -154     43    163    169 161.3  15.0  34134  289.14 0855.18
2009/04/23 10:38:19.7      12   -154     11    155    156 175.5   4.4  34136  289.18 0855.18
2009/04/23 10:38:19.8     -11    -85     75     86    114 187.6  45.8  34136  289.18 0855.18
2009/04/23 10:38:19.9      18    -47     91     51    104 158.2  68.3  34148  289.36 0855.18
2009/04/23 10:38:20.0      -1     17     94     18     95 355.6  89.6  34162  289.60 0855.18
2009/04/23 10:38:20.1     -30      9     85     32     90 288.2  78.6  34152  289.45 0855.18
2009/04/23 10:38:20.2      33     17     79     38     87  62.9  72.9  34148  289.38 0855.18
2009/04/23 10:38:20.3      50     36     74     63     97  54.0  55.4  34150  289.41 0855.18
2009/04/23 10:38:20.4     -37    -12     76     39     85 251.8  70.8  34150  289.41 0855.18
2009/04/23 10:38:20.5     -52     17     64     55     84 288.4  54.3  34156  289.50 0855.18
2009/04/23 10:38:20.6       7     32     49     33     59  13.4  62.6  34160  289.57 0855.18
2009/04/23 10:38:20.7      49     82     47     96    106  31.2  27.8  34140  289.24 0855.18
2009/04/23 10:38:20.8     -95    133    -33    164    168 324.4 -11.6  34144  289.30 0855.18
2009/04/23 10:38:20.9    -210    276   -117    348    368 322.7 -18.7  34128  289.04 0855.18
2009/04/23 10:38:21.0    -394    257    -72    471    477 303.2  -8.7  34138  289.20 0855.18
2009/04/23 10:38:21.1    -251    312   -231    401    462 321.2 -37.0  34130  289.05 0855.18
2009/04/23 10:38:21.2    -383    143   -218    409    463 290.5 -34.7  34142  289.26 0855.18
2009/04/23 10:38:21.3    -222    163   -229    276    358 306.4 -48.2  34136  289.16 0855.18
2009/04/23 10:38:21.4    -265     89   -187    280    336 288.6 -41.3  34132  289.10 0855.20
2009/04/23 10:38:21.5    -320    134   -211    348    406 292.7 -38.6  34136  289.16 0855.20
2009/04/23 10:38:21.6    -493    152   -247    517    572 287.2 -31.7  34142  289.28 0855.20
2009/04/23 10:38:21.7    -431    -48   -249    434    500 263.6 -36.8  34142  289.28 0855.20
2009/04/23 10:38:21.8    -530     -2   -185    531    562 269.7 -24.4  34138  289.21 0855.20
2009/04/23 10:38:21.9    -552     42    -84    554    561 274.4  -8.7  34144  289.31 0855.20
2009/04/23 10:38:22.0    -453    227   -291    507    584 296.6 -36.8  34138  289.21 0855.20
2009/04/23 10:38:22.1    -343    193   -346    394    524 299.4 -50.2  34152  289.44 0855.20
2009/04/23 10:38:22.2    -499    120   -418    514    662 283.5 -47.7  34148  289.38 0855.20
2009/04/23 10:38:22.3    -249     10   -320    250    406 272.5 -62.6  34144  289.30 0855.20
2009/04/23 10:38:22.4    -217    -72   -138    229    267 251.6 -38.4  34154  289.46 0855.20
2009/04/23 10:38:22.5    -131    -22     94    133    162 260.4  38.6  34148  289.38 0855.20
2009/04/23 10:38:22.6    -169    -12    116    170    205 265.6  37.6  34152  289.43 0855.20
2009/04/23 10:38:22.7    -128      9    -89    129    156 274.4 -42.8  34154  289.48 0855.20
2009/04/23 10:38:22.8    -137    -54   -180    148    233 248.2 -60.8  34156  289.52 0855.20
2009/04/23 10:38:22.9    -181     68     27    194    196 290.8   8.0  34158  289.55 0855.20
2009/04/23 10:38:23.0    -221     89    129    239    271 292.0  31.0  34158  289.54 0855.20
2009/04/23 10:38:23.1    -293      0    220    294    367 270.0  40.7  34172  289.77 0855.20
2009/04/23 10:38:23.2    -177     49    130    184    225 285.5  39.1  34176  289.84 0855.20
2009/04/23 10:38:23.3    -138    137    101    195    219 314.9  29.5  34170  289.74 0855.20
2009/04/23 10:38:23.4     120    133    164    180    243  41.9  47.1  34156  289.52 0855.23
2009/04/23 10:38:23.5      53    273    132    279    308  11.1  27.1  34162  289.59 0855.23
2009/04/23 10:38:23.6      53    213    -78    220    234  14.0 -19.6  34162  289.62 0855.23
2009/04/23 10:38:23.7     -34    306     50    308    313 353.5   9.3  34184  289.98 0855.23
2009/04/23 10:38:23.8      86    288    -26    301    303  16.7  -5.1  34254  291.16 0855.23
2009/04/23 10:38:23.9      24    314    115    316    336   4.5  20.8  34264  291.34 0855.23
2009/04/23 10:38:24.0     -32    335    197    337    390 354.4  33.0  34240  290.94 0855.23
2009/04/23 10:38:24.1       6    363    188    364    409   1.0  29.4  34224  290.66 0855.23
2009/04/23 10:38:24.2      38    377    178    379    418   5.8  27.1  34224  290.67 0855.23
2009/04/23 10:38:24.3     119    393     72    411    418  17.0  10.0  34230  290.77 0855.23
2009/04/23 10:38:24.4     192    299    104    356    371  32.8  16.3  34210  290.42 0855.23
2009/04/23 10:38:24.5     139    212     97    254    271  33.4  22.0  34226  290.68 0855.23
2009/04/23 10:38:24.6     205     47    197    211    288  77.0  48.0  34272  291.46 0855.23
2009/04/23 10:38:24.7     128    163    143    208    252  38.3  37.6  34348  292.77 0855.23
2009/04/23 10:38:24.8      77     93    177    122    214  39.6  62.6  34340  292.63 0855.23
2009/04/23 10:38:24.9     110     97    169    147    223  48.6  54.3  34308  292.08 0855.23
2009/04/23 10:38:25.0     226    220    269    316    414  45.8  44.8  34272  291.49 0855.23
2009/04/23 10:38:25.1     348    252    149    430    456  54.0  19.2  34276  291.53 0855.23
2009/04/23 10:38:25.2     504    200    164    543    568  68.3  16.8  34234  290.82 0855.23
2009/04/23 10:38:25.3     458    316    200    557    591  55.4  20.7  34204  290.32 0855.23
2009/04/23 10:38:25.4     391    346    259    523    583  48.5  28.2  34234  290.82 0855.24
2009/04/23 10:38:25.5     441    389    209    589    624  48.6  20.3  34208  290.39 0855.24
2009/04/23 10:38:25.6     309    558    264    639    691  29.0  23.7  34140  289.24 0855.24
2009/04/23 10:38:25.7     268    496    212    564    602  28.4  21.5  34148  289.36 0855.24
2009/04/23 10:38:25.8     366    415    248    554    606  41.4  25.8  34144  289.30 0855.24
2009/04/23 10:38:25.9     373    381    221    534    577  44.4  23.8  34160  289.58 0855.24
2009/04/23 10:38:26.0     416    312    189    521    554  53.1  20.9  34182  289.96 0855.24
2009/04/23 10:38:26.1     533    272     74    599    604  62.9   7.1  34150  289.39 0855.24
2009/04/23 10:38:26.2     539    157     36    562    564  73.7   3.7  34184  289.97 0855.24
2009/04/23 10:38:26.3     553     76    179    559    588  82.1  17.8  34200  290.24 0855.24
2009/04/23 10:38:26.4     564     -4    161    565    588  90.5  15.9  34184  289.98 0855.24
2009/04/23 10:38:26.5     573    -79    166    579    603  97.9  16.0  34202  290.27 0855.24
2009/04/23 10:38:26.6     626    -66    131    630    644  96.1  11.8  34168  289.70 0855.24
2009/04/23 10:38:26.7     666    -22    177    667    691  91.9  14.9  34150  289.41 0855.24
2009/04/23 10:38:26.8     631     38    204    633    666  86.5  17.9  34152  289.43 0855.24
2009/04/23 10:38:26.9     568    -47    199    570    603  94.8  20.0  34148  289.37 0855.24
2009/04/23 10:38:27.0     578    -80    114    584    596  97.9  11.1  34154  289.47 0855.24
2009/04/23 10:38:27.1     590   -143    140    608    624 103.7  13.0  34174  289.82 0855.24
2009/04/23 10:38:27.2     489   -143    124    510    525 106.3  13.7  34206  290.36 0855.24
2009/04/23 10:38:27.3     434   -145    158    458    485 108.6  19.1  34210  290.42 0855.24
2009/04/23 10:38:27.4     325   -220    201    393    441 124.1  29.2  34220  290.60 0855.23
2009/04/23 10:38:27.5     193   -417    137    460    481 155.2  16.6  34232  290.79 0855.23
2009/04/23 10:38:27.6     370   -329    262    496    560 131.7  30.2  34168  289.72 0855.23
2009/04/23 10:38:27.7     309   -343    213    462    508 138.0  26.5  34152  289.44 0855.23
2009/04/23 10:38:27.8     187   -376    186    421    460 153.5  25.2  34166  289.66 0855.23
2009/04/23 10:38:27.9     236   -374     72    443    450 147.8   9.3  34162  289.60 0855.23
2009/04/23 10:38:28.0     226   -371     13    435    436 148.6   1.8  34152  289.43 0855.23
2009/04/23 10:38:28.1     322   -310    186    448    485 133.9  23.9  34150  289.40 0855.23
2009/04/23 10:38:28.2     251   -437    302    505    588 150.1  33.5  34146  289.33 0855.23
2009/04/23 10:38:28.3     292   -365    278    468    544 141.4  33.5  34150  289.40 0855.23
2009/04/23 10:38:28.4      98   -432    224    444    497 167.2  28.7  34146  289.32 0855.23
2009/04/23 10:38:28.5      81   -445    201    453    495 169.7  25.6  34152  289.45 0855.23
2009/04/23 10:38:28.6     121   -459    165    475    503 165.2  19.2  34172  289.76 0855.23
2009/04/23 10:38:28.7     267   -303    144    405    429 138.6  20.4  34164  289.63 0855.23
2009/04/23 10:38:28.8     226   -388    159    449    476 149.8  20.3  34160  289.57 0855.23
2009/04/23 10:38:28.9     200   -462    159    504    529 156.6  17.5  34158  289.55 0855.23
2009/04/23 10:38:29.0     227   -423    180    481    513 151.8  21.5  34152  289.44 0855.23
2009/04/23 10:38:29.1      30   -405    198    407    452 175.7  27.8  34160  289.58 0855.23
2009/04/23 10:38:29.2    -117   -419     93    436    446 195.6  12.1  34166  289.66 0855.23
2009/04/23 10:38:29.3      51   -297    120    302    324 170.2  22.9  34176  289.83 0855.23
2009/04/23 10:38:29.4     108   -194     89    223    240 151.0  23.0  34154  289.46 0855.16
2009/04/23 10:38:29.5      64   -212     88    222    238 163.1  22.8  34154  289.47 0855.16
2009/04/23 10:38:29.6     -56   -258     41    265    269 192.4   8.8  34162  289.61 0855.16
2009/04/23 10:38:29.7    -138   -305     70    335    343 204.4  11.8  34182  289.93 0855.16
2009/04/23 10:38:29.8    -113   -303     97    324    339 200.6  16.8  34176  289.84 0855.16
2009/04/23 10:38:29.9      11   -174     79    175    192 176.2  26.2  34166  289.69 0855.16
2009/04/23 10:38:30.0     126   -243      3    274    275 152.6   0.8  34164  289.63 0855.16
2009/04/23 10:38:30.1     126   -247     50    278    283 152.9  10.3  34160  289.56 0855.16
2009/04/23 10:38:30.2     133   -194     83    236    251 145.5  19.4  34148  289.36 0855.16
2009/04/23 10:38:30.3     116   -235     68    263    272 153.7  14.7  34142  289.27 0855.16
2009/04/23 10:38:30.4     103   -356      3    371    372 163.9   0.5  34156  289.52 0855.16
2009/04/23 10:38:30.5      90   -379     12    390    391 166.6   1.8  34156  289.52 0855.16
2009/04/23 10:38:30.6      42   -392     16    395    396 173.8   2.4  34162  289.60 0855.16
2009/04/23 10:38:30.7     -41   -446     76    449    456 185.3   9.7  34152  289.44 0855.16
2009/04/23 10:38:30.8     -76   -361     95    370    382 192.0  14.4  34154  289.47 0855.16
2009/04/23 10:38:30.9      88   -369     16    380    381 166.5   2.5  34154  289.47 0855.16
2009/04/23 10:38:31.0     115   -415    -34    431    433 164.4  -4.6  34162  289.61 0855.16
2009/04/23 10:38:31.1     134   -367    -35    391    393 159.9  -5.2  34166  289.67 0855.16
2009/04/23 10:38:31.2     108   -338      2    355    356 162.2   0.4  34162  289.59 0855.16
2009/04/23 10:38:31.3      58   -477    -31    481    482 173.0  -3.7  34154  289.47 0855.16
2009/04/23 10:38:31.4       0   -441    -17    442    443 179.9  -2.2  34152  289.44 0855.16
2009/04/23 10:38:31.5      -7   -371     58    372    377 181.1   8.9  34152  289.43 0855.16
2009/04/23 10:38:31.6     -88   -362    -11    373    374 193.7  -1.8  34158  289.55 0855.16
2009/04/23 10:38:31.7     -83   -419    -50    428    431 191.2  -6.7  34160  289.56 0855.16
2009/04/23 10:38:31.8     -95   -435    -56    446    450 192.4  -7.2  34154  289.48 0855.16
2009/04/23 10:38:31.9     -78   -409    -23    417    418 190.8  -3.2  34136  289.17 0855.16
2009/04/23 10:38:32.0    -167   -471    -76    500    506 199.6  -8.7  34140  289.23 0855.16
2009/04/23 10:38:32.1    -234   -309   -131    388    410 217.1 -18.7  34156  289.49 0855.16
2009/04/23 10:38:32.2     -45   -342    -68    346    353 187.6 -11.2  34152  289.42 0855.16
2009/04/23 10:38:32.3     -41   -340    -65    343    350 186.9 -10.8  34140  289.23 0855.16
2009/04/23 10:38:32.4      -8   -280    -48    281    286 181.8  -9.8  34134  289.12 0855.16
2009/04/23 10:38:32.5      -4   -283    -25    284    286 180.9  -5.2  34132  289.09 0855.16
2009/04/23 10:38:32.6      60   -222    107    231    254 164.9  26.6  34126  288.98 0855.16
2009/04/23 10:38:32.7     133   -306    243    334    413 156.5  39.7  34130  289.06 0855.16
2009/04/23 10:38:32.8     270   -628    282    684    739 156.7  23.7  34130  289.05 0855.16
2009/04/23 10:38:32.9     283   -448    377    530    650 147.7  39.0  34134  289.12 0855.16
2009/04/23 10:38:33.0     166   -217    190    274    333 142.6  38.4  34128  289.03 0855.16
2009/04/23 10:38:33.1     114   -385    210    402    453 163.5  29.8  34136  289.17 0855.16
2009/04/23 10:38:33.2     409   -201    280    456    535 116.2  34.5  34138  289.20 0855.16
2009/04/23 10:38:33.3     282   -257    188    382    425 132.3  28.2  34142  289.26 0855.16
2009/04/23 10:38:33.4      75   -240    187    252    313 162.6  40.4  34142  289.25 0855.16
2009/04/23 10:38:33.5     211   -258     48    334    338 140.7   8.3  34134  289.13 0855.16
2009/04/23 10:38:33.6     105   -320     -6    337    338 161.7  -1.2  34142  289.28 0855.16
2009/04/23 10:38:33.7     165   -243     16    294    295 145.8   3.1  34142  289.27 0855.16
2009/04/23 10:38:33.8     196   -161    -83    254    267 129.5 -23.6  34142  289.27 0855.16
2009/04/23 10:38:33.9     204   -191     -6    280    281 133.2  -1.3  34142  289.25 0855.16
2009/04/23 10:38:34.0     156    -85    107    178    207 118.6  33.7  34140  289.24 0855.16
2009/04/23 10:38:34.1     200     25     96    202    223  82.8  27.3  34156  289.50 0855.16
2009/04/23 10:38:34.2     201   -110     -9    230    231 118.6  -2.2  34142  289.28 0855.16
2009/04/23 10:38:34.3      76    -62    164     99    191 129.5  66.0  34154  289.46 0855.16
2009/04/23 10:38:34.4      93   -144    110    172    204 147.0  35.6  34142  289.26 0855.16
2009/04/23 10:38:34.5      98   -225    169    246    298 156.4  37.6  34142  289.25 0855.16
2009/04/23 10:38:34.6     181   -124    207    220    302 124.4  48.0  34148  289.36 0855.16
2009/04/23 10:38:34.7      44    -91    171    102    199 154.1  66.7  34154  289.46 0855.16
2009/04/23 10:38:34.8      77    -44     77     89    117 119.8  45.8  34164  289.63 0855.16
2009/04/23 10:38:34.9      35     -2    103     36    109  94.4  81.2  34160  289.57 0855.16
2009/04/23 10:38:35.0     -35    -22     41     42     58 237.6  52.0  34150  289.40 0855.16
2009/04/23 10:38:35.1     -89    -50    -60    103    119 240.7 -37.3  34150  289.41 0855.16
2009/04/23 10:38:35.2     -35    -39    -18     53     57 221.4 -18.7  34150  289.40 0855.16
2009/04/23 10:38:35.3      20    -57      1     61     62 160.0   1.8  34152  289.43 0855.16
2009/04/23 10:38:35.4       6   -131     26    132    135 177.3  11.1  34146  289.35 0855.18
2009/04/23 10:38:35.5      78   -180     85    197    214 156.6  25.1  34142  289.26 0855.18
2009/04/23 10:38:35.6     157   -240     77    288    299 146.8  15.0  34144  289.31 0855.18
2009/04/23 10:38:35.7     160   -304    114    344    363 152.3  18.5  34146  289.32 0855.18
2009/04/23 10:38:35.8      56   -311     68    317    325 169.8  12.1  34152  289.44 0855.18
2009/04/23 10:38:35.9     -16   -267    164    268    314 183.5  34.3  34154  289.47 0855.18
2009/04/23 10:38:36.0      23    -97    118    100    154 166.6  55.8  34156  289.50 0855.18
2009/04/23 10:38:36.1     -90    -74    162    117    199 230.4  60.6  34154  289.48 0855.18
2009/04/23 10:38:36.2       2   -222    186    223    290 179.3  43.8  34148  289.37 0855.18
2009/04/23 10:38:36.3     107   -265    234    287    370 157.9  43.6  34152  289.43 0855.18
2009/04/23 10:38:36.4     -15   -405    252    406    477 182.2  34.9  34148  289.36 0855.18
2009/04/23 10:38:36.5     -26   -191    265    193    327 188.0  60.4  34156  289.49 0855.18
2009/04/23 10:38:36.6    -110   -246    245    270    364 204.1  46.9  34152  289.42 0855.18
2009/04/23 10:38:36.7    -158   -340    222    375    435 204.9  33.4  34148  289.38 0855.18
2009/04/23 10:38:36.8     -36   -152     49    157    165 193.4  17.3  34152  289.43 0855.18
2009/04/23 10:38:36.9       6    -82    -10     83     84 175.5  -7.3  34150  289.40 0855.18
2009/04/23 10:38:37.0      26    -55     -2     61     62 154.5  -2.2  34150  289.40 0855.18
2009/04/23 10:38:37.1      66    -42    -27     79     83 122.5 -23.3  34152  289.43 0855.18
2009/04/23 10:38:37.2      39     18    -56     44     71  64.7 -60.8  34160  289.58 0855.18
2009/04/23 10:38:37.3     339    249    -55    421    425  53.7  -7.5  34152  289.43 0855.18
2009/04/23 10:38:37.4     370    198    -61    420    425  61.8  -8.3  34162  289.61 0855.19
2009/04/23 10:38:37.5     265    162    100    311    327  58.5  17.9  34154  289.47 0855.19
2009/04/23 10:38:37.6      89    335    174    347    388  15.0  28.6  34156  289.52 0855.19
2009/04/23 10:38:37.7      14    312    133    313    340   2.7  24.3  34158  289.55 0855.19
2009/04/23 10:38:37.8      49    303    111    308    327   9.3  20.6  34152  289.42 0855.19
2009/04/23 10:38:37.9      52    207     56    214    222  14.3  14.7  34154  289.48 0855.19
2009/04/23 10:38:38.0     126    244     59    275    282  27.4  12.2  34160  289.56 0855.19
2009/04/23 10:38:38.1     -55    238     -9    245    246 346.9  -2.2  34158  289.53 0855.19
2009/04/23 10:38:38.2    -150    244    -36    287    290 328.4  -7.3  34170  289.73 0855.19
2009/04/23 10:38:38.3    -116    191    -79    224    237 328.8 -24.6  34178  289.86 0855.19
2009/04/23 10:38:38.4     -53    240     -3    246    247 347.5  -0.7  34168  289.70 0855.20
2009/04/23 10:38:38.5      89    241    147    257    296  20.3  32.4  34174  289.80 0855.20
2009/04/23 10:38:38.6    -140    123    120    187    222 311.3  35.6  34174  289.82 0855.20
2009/04/23 10:38:38.7    -165    196    -34    257    260 319.9  -7.7  34170  289.75 0855.20
2009/04/23 10:38:38.8     -35    148     61    153    164 346.7  22.5  34166  289.69 0855.20
2009/04/23 10:38:38.9    -197     44     75    203    216 282.8  21.3  34166  289.67 0855.20
2009/04/23 10:38:39.0    -328    112    -78    347    356 289.0 -12.7  34146  289.32 0855.20
2009/04/23 10:38:39.1    -321    162    -40    360    363 296.9  -6.5  34138  289.21 0855.20
2009/04/23 10:38:39.2    -274    209    -57    345    350 307.4  -9.5  34138  289.20 0855.20
2009/04/23 10:38:39.3    -327    105   -124    344    365 287.8 -25.1  34132  289.10 0855.20
2009/04/23 10:38:39.4    -280    177   -187    332    381 302.2 -36.3  34146  289.33 0855.20
2009/04/23 10:38:39.5    -180    -97    -40    205    209 241.6 -11.1  34148  289.36 0855.20
2009/04/23 10:38:39.6     -92    -47   -145    104    178 242.9 -65.2  34160  289.58 0855.20
2009/04/23 10:38:39.7    -139     -6     16    140    142 267.5   6.9  34120  288.91 0855.20
2009/04/23 10:38:39.8      46    -92    181    104    208 153.3  67.5  34164  289.63 0855.20
2009/04/23 10:38:39.9      -4     55    173     56    181 355.6  81.2  34172  289.79 0855.20
2009/04/23 10:38:40.0     -40     28    164     49    171 305.1  83.1  34176  289.84 0855.20
2009/04/23 10:38:40.1     -76     72    167    105    197 313.6  64.7  34168  289.72 0855.20
2009/04/23 10:38:40.2     -88    117    236    147    278 323.0  65.1  34156  289.49 0855.20
2009/04/23 10:38:40.3    -106    125    160    165    229 319.7  49.4  34154  289.46 0855.20
2009/04/23 10:38:40.4      -9    130    131    131    185 356.0  50.1  34162  289.62 0855.21
2009/04/23 10:38:40.5     -27    123     96    127    159 347.5  40.9  34158  289.53 0855.21
2009/04/23 10:38:40.6     -88    194    123    214    246 335.5  32.4  34156  289.49 0855.21
2009/04/23 10:38:40.7     -53     84    178    100    204 327.4  68.3  34168  289.72 0855.21
2009/04/23 10:38:40.8     -63     83    167    105    197 322.6  64.7  34166  289.67 0855.21
2009/04/23 10:38:40.9     -33    236    150    239    282 351.9  35.5  34162  289.59 0855.21
2009/04/23 10:38:41.0     -73     87    100    114    151 319.9  45.8  34154  289.48 0855.21
2009/04/23 10:38:41.1      85    112    119    141    184  37.4  44.5  34170  289.74 0855.21
2009/04/23 10:38:41.2       6    188     69    189    201   2.0  21.0  34166  289.69 0855.21
2009/04/23 10:38:41.3      68    217     -1    228    229  17.4  -0.5  34166  289.67 0855.21
2009/04/23 10:38:41.4      40    199    116    204    234  11.6  32.1  34160  289.57 0855.21
2009/04/23 10:38:41.5     179    293    135    344    369  31.4  22.5  34162  289.59 0855.21
2009/04/23 10:38:41.6     139    231     53    270    276  31.0  11.1  34160  289.58 0855.21
2009/04/23 10:38:41.7     154    234    118    281    304  33.4  24.1  34162  289.59 0855.21
2009/04/23 10:38:41.8     189    260    173    322    365  36.0  30.6  34178  289.86 0855.21
2009/04/23 10:38:41.9      62    363    129    369    391   9.7  19.3  34228  290.71 0855.21
2009/04/23 10:38:42.0      26    354    122    355    376   4.2  19.1  34272  291.49 0855.21
2009/04/23 10:38:42.1     -28    319    194    321    375 354.9  34.0  34230  290.77 0855.21
2009/04/23 10:38:42.2      13    267    204    268    336   2.9  41.1  34210  290.42 0855.21
2009/04/23 10:38:42.3     111    246    282    271    391  24.3  51.2  34206  290.35 0855.21
2009/04/23 10:38:42.4     303    235    394    384    550  52.2  50.8  34164  289.64 0855.24
2009/04/23 10:38:42.5     342    259    366    430    564  52.9  44.8  34136  289.18 0855.24
2009/04/23 10:38:42.6     332    300    380    448    587  47.9  44.8  34144  289.31 0855.24
2009/04/23 10:38:42.7     396    227    395    457    604  60.1  45.4  34124  288.97 0855.24
2009/04/23 10:38:42.8     464    385    364    603    704  50.3  34.0  34138  289.19 0855.24
2009/04/23 10:38:42.9     230    297    170    376    412  37.7  26.2  34146  289.35 0855.24
2009/04/23 10:38:43.0     280     77     67    291    299  74.5  13.1  34144  289.29 0855.24
2009/04/23 10:38:43.1     417     37    163    419    449  84.8  22.4  34168  289.72 0855.24
2009/04/23 10:38:43.2     461    166    329    491    591  70.2  37.1  34160  289.58 0855.24
2009/04/23 10:38:43.3     562    100    238    571    618  79.9  24.1  34166  289.68 0855.24
2009/04/23 10:38:43.4     615    181    -33    642    643  73.6  -3.0  34170  289.74 0855.24
2009/04/23 10:38:43.5     555    290    -29    627    628  62.4  -2.7  34170  289.74 0855.24
2009/04/23 10:38:43.6     443    -87   -124    452    469 101.1 -15.4  34164  289.63 0855.24
2009/04/23 10:38:43.7     477    -20    -52    478    481  92.5  -6.3  34156  289.52 0855.24
2009/04/23 10:38:43.8     527    -52    -19    530    531  95.7  -2.1  34156  289.50 0855.24
2009/04/23 10:38:43.9     569     43    -22    571    572  85.7  -2.2  34158  289.54 0855.24
2009/04/23 10:38:44.0     500     73     27    506    507  81.7   3.1  34184  289.98 0855.24
2009/04/23 10:38:44.1     364    272    216    455    503  53.2  27.2  34194  290.15 0855.24
2009/04/23 10:38:44.2     401    173    134    437    458  66.6  17.0  34176  289.83 0855.24
2009/04/23 10:38:44.3     413    319     26    522    523  52.3   2.9  34184  289.97 0855.24
2009/04/23 10:38:44.4     342    116    -46    362    365  71.3  -7.3  34168  289.71 0855.23
2009/04/23 10:38:44.5     250    127     71    281    290  63.1  14.3  34178  289.88 0855.23
2009/04/23 10:38:44.6     336    149    222    368    429  66.0  34.0  34172  289.78 0855.23
2009/04/23 10:38:44.7     420     28    119    421    438  86.1  15.8  34176  289.85 0855.23
2009/04/23 10:38:44.8     503    182    -10    535    536  70.1  -1.1  34168  289.70 0855.23
2009/04/23 10:38:44.9     513    249     43    571    573  64.1   4.3  34168  289.71 0855.23
2009/04/23 10:38:45.0     429    132    -42    450    453  72.8  -5.4  34168  289.72 0855.23
2009/04/23 10:38:45.1     281    112   -113    303    323  68.2 -25.9  34172  289.78 0855.23
2009/04/23 10:38:45.2     224    113    -89    252    268  63.1 -19.6  34168  289.71 0855.23
2009/04/23 10:38:45.3     259     49     27    264    266  79.2   5.9  34172  289.76 0855.23
2009/04/23 10:38:45.5     206   -103    146    231    273 116.6  35.5  34172  289.78 0855.23
2009/04/23 10:38:45.6     102    -89    227    136    264 130.9  66.4  34180  289.92 0855.23
2009/04/23 10:38:45.6      51     54    189     75    203  43.2  77.4  34186  290.02 0855.23
2009/04/23 10:38:45.8     168    -32    105    172    201 101.0  34.2  34174  289.82 0855.23
2009/04/23 10:38:45.9     256     35    164    259    306  82.1  35.5  34168  289.71 0855.23
2009/04/23 10:38:46.0       0   -113    218    114    246 180.4  70.6  34176  289.84 0855.23
2009/04/23 10:38:46.1    -140   -157    211    211    298 221.9  50.1  34178  289.88 0855.23
2009/04/23 10:38:46.2    -104    -87    159    136    209 230.0  55.4  34170  289.75 0855.23
2009/04/23 10:38:46.3     -95     13    118     96    152 277.9  56.4  34174  289.80 0855.23
2009/04/23 10:38:46.4       9    101    156    102    186   5.3  64.1  34172  289.77 0855.23
2009/04/23 10:38:46.5      19     79    158     82    178  13.4  70.4  34176  289.84 0855.22
2009/04/23 10:38:46.6      76     60    132     97    163  51.8  60.3  34178  289.87 0855.22
2009/04/23 10:38:46.7     -10     16     90     19     91 327.5  89.0  34190  290.09 0855.22
2009/04/23 10:38:46.8     -22     42     93     48    104 331.9  70.4  34184  289.97 0855.22
2009/04/23 10:38:46.9     -52     25     85     58    102 296.2  62.6  34188  290.06 0855.22
2009/04/23 10:38:47.0     -18    -45    106     49    116 202.7  73.1  34188  290.06 0855.22
2009/04/23 10:38:47.1     -35    -34    161     50    168 226.0  82.3  34192  290.13 0855.22
2009/04/23 10:38:47.2    -113    -92    147    146    207 230.9  50.1  34182  289.94 0855.22
2009/04/23 10:38:47.3     -31    -32    167     45    172 224.2  84.6  34186  290.02 0855.22
2009/04/23 10:38:47.4       6     65    129     66    144   5.3  70.8  34190  290.08 0855.22
2009/04/23 10:38:47.5      15     31    163     35    166  27.2  88.5  34182  289.94 0855.22
2009/04/23 10:38:47.6     -23    -80    154     84    175 196.5  68.9  34178  289.89 0855.22
2009/04/23 10:38:47.7       0     34    124     35    128   0.9  84.4  34190  290.08 0855.22
2009/04/23 10:38:47.8     206    -28    124    208    242  97.9  33.7  34174  289.80 0855.22
2009/04/23 10:38:47.9      86     41    164     96    190  64.2  67.0  34176  289.84 0855.22
2009/04/23 10:38:48.0      -2    133     75    134    153 359.0  31.4  34178  289.89 0855.22
2009/04/23 10:38:48.1      44    160     48    167    174  15.4  16.0  34182  289.94 0855.22
2009/04/23 10:38:48.2      62    142      6    156    157  23.7   2.5  34184  289.99 0855.22
2009/04/23 10:38:48.3      30     55     21     63     67  29.0  18.4  34186  290.01 0855.22
2009/04/23 10:38:48.4     200     91    107    220    244  65.4  27.8  34196  290.17 0855.22
2009/04/23 10:38:48.5     183    130    118    225    254  54.5  29.8  34206  290.36 0855.22
2009/04/23 10:38:48.6     179    177    154    252    295  45.3  34.4  34224  290.66 0855.22
2009/04/23 10:38:48.7     317    143     67    348    355  65.7  11.0  34204  290.33 0855.22
2009/04/23 10:38:48.8     303    146    118    337    358  64.3  19.3  34202  290.27 0855.22
2009/04/23 10:38:48.9     259    205    129    331    355  51.7  22.5  34208  290.37 0855.22
2009/04/23 10:38:49.0     323    130     93    349    362  68.1  14.9  34214  290.49 0855.22
2009/04/23 10:38:49.1     267     -5    189    268    327  91.3  38.6  34206  290.36 0855.22
2009/04/23 10:38:49.2     381     38    205    383    434  84.2  30.5  34230  290.77 0855.22
2009/04/23 10:38:49.3     307     76    250    317    403  76.1  42.3  34232  290.81 0855.22
2009/04/23 10:38:49.4     338    186    273    386    472  61.1  38.7  34236  290.87 0855.22
2009/04/23 10:38:49.5     466    195     85    506    514  67.3   9.6  34216  290.51 0855.22
2009/04/23 10:38:49.6     445    394    140    595    612  48.5  13.2  34200  290.24 0855.22
2009/04/23 10:38:49.7     497    326     94    595    603  56.7   9.0  34242  290.95 0855.22
2009/04/23 10:38:49.8     505    332    132    605    620  56.7  12.4  34258  291.22 0855.22
2009/04/23 10:38:49.9     525    267    116    590    602  63.0  11.1  34240  290.93 0855.22
2009/04/23 10:38:50.0     549    260    132    608    623  64.6  12.3  34224  290.67 0855.22
2009/04/23 10:38:50.1     670    169     87    691    697  75.8   7.2  34192  290.12 0855.22
2009/04/23 10:38:50.2     522     65    161    527    552  82.9  17.0  34198  290.21 0855.22
2009/04/23 10:38:50.3     519    156    239    543    593  73.2  25.2  34210  290.42 0855.22
2009/04/23 10:38:50.4     433    172    217    467    514  68.3  26.7  34208  290.39 0855.22
2009/04/23 10:38:50.5     424    229    239    483    538  61.6  28.2  34212  290.46 0855.24
2009/04/23 10:38:50.6     358    235    222    429    483  56.6  29.4  34212  290.44 0855.24
2009/04/23 10:38:50.7     361    131    178    385    424  70.1  26.6  34214  290.50 0855.24
2009/04/23 10:38:50.8     341    229    221    411    466  56.1  30.7  34206  290.34 0855.24
2009/04/23 10:38:50.9     474    161    176    501    531  71.2  20.2  34188  290.06 0855.24
2009/04/23 10:38:51.0     465    178    210    499    541  69.0  24.2  34180  289.90 0855.24
2009/04/23 10:38:51.1     379    132    222    402    459  70.7  31.4  34180  289.90 0855.24
2009/04/23 10:38:51.2     377     69    176    384    422  79.6  26.4  34184  289.97 0855.24
2009/04/23 10:38:51.3     397    -13    155    398    427  91.9  22.4  34188  290.05 0855.24
2009/04/23 10:38:51.4     350     45    131    353    376  82.5  21.4  34194  290.15 0855.24
2009/04/23 10:38:51.5     365     78    156    374    405  77.9  24.1  34192  290.11 0855.24
2009/04/23 10:38:51.6     367     58    149    372    400  80.9  23.0  34188  290.04 0855.24
2009/04/23 10:38:51.7     432     73    227    439    494  80.4  29.5  34186  290.01 0855.24
2009/04/23 10:38:51.8     456     34    241    458    517  85.6  30.0  34172  289.78 0855.24
2009/04/23 10:38:51.9     267    -71    325    277    427 105.1  55.4  34162  289.59 0855.24
2009/04/23 10:38:52.0     300    -67    289    308    422 102.6  48.0  34172  289.76 0855.24
2009/04/23 10:38:52.1     419     -5    216    420    472  90.8  29.3  34182  289.94 0855.24
2009/04/23 10:38:52.2     321     -4    281    322    427  90.8  45.6  34188  290.04 0855.24
2009/04/23 10:38:52.3     316    -97    174    331    373 107.1  30.0  34194  290.15 0855.24
2009/04/23 10:38:52.4     270    -58    250    277    373 102.2  46.8  34198  290.21 0855.24
2009/04/23 10:38:52.5     106    -10    257    107    278  95.7  76.1  34212  290.46 0855.26
2009/04/23 10:38:52.6     -33   -161    393    165    426 191.8  76.1  34224  290.67 0855.26
2009/04/23 10:38:52.7     -27   -131    248    134    281 192.0  69.1  34210  290.42 0855.26
2009/04/23 10:38:52.8     175    -41    172    180    248 103.3  49.0  34196  290.19 0855.26
2009/04/23 10:38:52.9     224   -185    -84    291    302 129.5 -20.8  34196  290.19 0855.26
2009/04/23 10:38:53.0     313   -112    130    333    357 109.8  22.4  34212  290.47 0855.26
2009/04/23 10:38:53.1     169    -61    -53    180    188 110.0 -16.4  34208  290.40 0855.26
2009/04/23 10:38:53.2     137   -154    -87    207    224 138.5 -28.5  34200  290.26 0855.26
2009/04/23 10:38:53.3      73    -96    -19    121    123 142.6  -9.3  34188  290.06 0855.26
2009/04/23 10:38:53.4      16     -2    126     17    127  97.9  90.0  34202  290.28 0855.26
2009/04/23 10:38:53.5     127     60    100    141    172  64.7  38.6  34184  289.99 0855.26
2009/04/23 10:38:53.6     279     26    -54    281    287  84.7 -10.9  34180  289.92 0855.26
2009/04/23 10:38:53.7     167     88      4    189    190  62.2   1.2  34178  289.87 0855.26
2009/04/23 10:38:53.8     176     84     61    196    206  64.5  17.3  34172  289.77 0855.26
2009/04/23 10:38:53.9     261    106     96    282    299  67.8  18.9  34186  290.00 0855.26
2009/04/23 10:38:54.0     352    220    117    416    433  58.0  15.7  34194  290.16 0855.26
2009/04/23 10:38:54.1     315    334    139    460    481  43.3  16.8  34200  290.25 0855.26
2009/04/23 10:38:54.2     125    229    109    262    283  28.7  24.1  34204  290.31 0855.26
2009/04/23 10:38:54.3     132    259    137    291    321  27.1  27.1  34206  290.36 0855.26
2009/04/23 10:38:54.4      75    248    116    260    284  16.9  25.7  34224  290.66 0855.26
2009/04/23 10:38:54.5     182    285    182    339    384  32.6  30.7  34212  290.45 0855.25
2009/04/23 10:38:54.6     151    316    198    351    402  25.5  31.9  34228  290.71 0855.25
2009/04/23 10:38:54.7     162    220    113    274    296  36.3  23.6  34244  291.00 0855.25
2009/04/23 10:38:54.8     142    -28    137    145    199 101.4  48.5  34230  290.77 0855.25
2009/04/23 10:38:54.9      69     15     74     71    102  77.6  51.2  34220  290.60 0855.25
2009/04/23 10:38:55.0      70    174     95    188    210  22.1  28.7  34268  291.40 0855.25
2009/04/23 10:38:55.1      22     92    108     95    143  13.8  54.2  34262  291.30 0855.25
2009/04/23 10:38:55.2      92    108    116    143    184  40.5  43.3  34264  291.35 0855.25
2009/04/23 10:38:55.3      51     99    123    112    166  27.6  53.0  34254  291.18 0855.25
2009/04/23 10:38:55.4      12     31    122     34    126  21.8  83.9  34256  291.20 0855.25
2009/04/23 10:38:55.5     -39     25     90     47    101 303.3  70.4  34260  291.28 0855.25
2009/04/23 10:38:55.6      -9     29     54     31     62 341.5  68.8  34254  291.16 0855.25
2009/04/23 10:38:55.7     -73   -123    100    144    175 210.7  38.0  34242  290.96 0855.25
2009/04/23 10:38:55.8      -9   -125     64    126    141 184.5  29.2  34236  290.87 0855.25
2009/04/23 10:38:55.9      29    -77     89     83    121 159.5  52.1  34228  290.74 0855.25
2009/04/23 10:38:56.0     -51   -116    114    127    170 203.7  46.6  34228  290.72 0855.25
2009/04/23 10:38:56.1     -97   -121    129    156    202 218.7  43.8  34240  290.92 0855.25
2009/04/23 10:38:56.2    -148   -139     94    204    224 226.9  27.0  34232  290.81 0855.25
2009/04/23 10:38:56.3    -135   -179     83    225    239 217.0  21.0  34236  290.87 0855.25
2009/04/23 10:38:56.4    -120   -161     40    201    206 216.7  11.4  34228  290.72 0855.25
2009/04/23 10:38:56.5    -104   -186     30    214    217 209.2   8.0  34192  290.11 0855.20
2009/04/23 10:38:56.6     -37   -181     78    185    200 191.8  24.1  34156  289.52 0855.20
2009/04/23 10:38:56.7    -102   -225    101    248    267 204.5  23.1  34158  289.53 0855.20
2009/04/23 10:38:56.8    -188   -256     58    318    324 216.3  10.3  34164  289.63 0855.20
2009/04/23 10:38:56.9     -74   -174    -67    190    201 203.2 -24.4  34184  289.97 0855.20
2009/04/23 10:38:57.0     -67   -120    -18    138    140 209.4  -7.7  34184  289.97 0855.20
2009/04/23 10:38:57.1     -31   -148    -57    152    162 192.0 -25.7  34176  289.84 0855.20
2009/04/23 10:38:57.2     -26    -46    -53     54     75 209.9 -55.5  34176  289.85 0855.20
2009/04/23 10:38:57.3     -28    -42     18     51     55 214.3  19.4  34174  289.82 0855.20
2009/04/23 10:38:57.4     -97    -53     42    111    118 241.2  21.5  34174  289.80 0855.20
2009/04/23 10:38:57.5    -127    -78     54    150    159 238.5  20.4  34172  289.79 0855.20
2009/04/23 10:38:57.6    -119   -145     66    188    200 219.4  19.4  34170  289.75 0855.20
2009/04/23 10:38:57.7     -68   -162    104    176    204 202.9  33.5  34176  289.84 0855.20
2009/04/23 10:38:57.8    -186   -186     52    264    270 225.1  11.1  34166  289.66 0855.20
2009/04/23 10:38:57.9    -218   -225     32    314    316 224.1   5.9  34166  289.68 0855.20
2009/04/23 10:38:58.0    -231   -302     39    381    383 217.4   5.9  34164  289.65 0855.20
2009/04/23 10:38:58.1    -131   -199     75    239    251 213.4  17.4  34156  289.49 0855.20
2009/04/23 10:38:58.2     -96   -148    -55    177    186 213.2 -17.3  34152  289.45 0855.20
2009/04/23 10:38:58.3     -14   -189    -41    190    195 184.4 -12.4  34142  289.28 0855.20
2009/04/23 10:38:58.4     -89   -233    -64    250    259 200.9 -14.5  34152  289.42 0855.20
2009/04/23 10:38:58.5    -150   -210    -32    259    262 215.6  -7.2  34146  289.34 0855.19
2009/04/23 10:38:58.6    -109   -249     44    272    276 203.7   9.3  34156  289.49 0855.19
2009/04/23 10:38:58.7    -109   -265     95    287    303 202.5  18.5  34154  289.47 0855.19
2009/04/23 10:38:58.8    -132   -239    102    274    292 208.9  21.3  34152  289.44 0855.19
2009/04/23 10:38:58.9    -226   -202     91    304    318 228.2  16.6  34154  289.46 0855.19
2009/04/23 10:38:59.0    -151   -214     62    263    271 215.2  13.2  34152  289.42 0855.19
2009/04/23 10:38:59.1    -150   -271    100    311    327 209.0  17.8  34146  289.32 0855.19
2009/04/23 10:38:59.2    -243   -140     14    281    282 240.0   2.9  34142  289.25 0855.19
2009/04/23 10:38:59.3    -251    -48    -42    256    260 259.0  -9.4  34134  289.12 0855.19
2009/04/23 10:38:59.4    -189    -67    120    201    234 250.3  33.7  34148  289.36 0855.19
2009/04/23 10:38:59.5    -143     19     81    145    166 277.9  31.9  34154  289.46 0855.21
2009/04/23 10:38:59.6       4   -127    -21    128    130 177.8  -9.3  34146  289.35 0855.21
2009/04/23 10:38:59.7      14   -179    -64    180    192 175.3 -19.7  34140  289.24 0855.21
2009/04/23 10:38:59.8    -130   -178    -28    221    223 216.1  -7.3  34144  289.31 0855.21
2009/04/23 10:38:59.9    -120   -185    -61    221    230 213.0 -15.5  34144  289.31 0855.21
2009/04/23 10:39:00.0      63   -163    102    175    202 158.8  33.1  34146  289.35 0855.21
2009/04/23 10:39:00.1      54   -149    118    159    198 159.9  40.1  34144  289.30 0855.21
2009/04/23 10:39:00.2      72   -155     42    172    178 155.1  13.7  34144  289.31 0855.21
2009/04/23 10:39:00.3      74   -125     74    146    163 149.2  29.1  34144  289.30 0855.21
2009/04/23 10:39:00.4     102    -91    117    137    180 131.8  44.8  34148  289.36 0855.21
2009/04/23 10:39:00.5       4     -5    131      7    131 140.4  90.0  34154  289.48 0855.21
2009/04/23 10:39:00.6       6      0    136      7    136  85.6  90.0  34160  289.57 0855.21
2009/04/23 10:39:00.7     -10      7    124     13    124 306.0  90.0  34154  289.46 0855.21
2009/04/23 10:39:00.8      12    -11    107     17    108 133.1  90.0  34152  289.43 0855.21
2009/04/23 10:39:00.9     -38     -7    104     39    111 258.5  78.6  34160  289.58 0855.21
2009/04/23 10:39:01.0     -67   -105    151    125    196 212.5  56.3  34152  289.45 0855.21
2009/04/23 10:39:01.1      38    -52    152     65    165 144.0  75.9  34144  289.30 0855.21
2009/04/23 10:39:01.2     122    -71    199    142    244 120.2  61.3  34148  289.36 0855.21
2009/04/23 10:39:01.3     251   -176    234    307    386 125.1  41.2  34142  289.26 0855.21
2009/04/23 10:39:01.4     209   -148    253    257    360 125.3  49.9  34136  289.18 0855.21
2009/04/23 10:39:01.5     284   -181    214    337    399 122.5  35.5  34122  288.93 0855.23
2009/04/23 10:39:01.7     128   -342    225    366    429 159.4  34.4  34116  288.83 0855.23
2009/04/23 10:39:01.7      65   -341    230    348    417 169.1  36.5  34124  288.96 0855.23
2009/04/23 10:39:01.8     -30   -337    218    339    403 185.1  35.6  34120  288.91 0855.23
2009/04/23 10:39:01.9      19   -344    213    345    405 176.8  34.6  34126  288.99 0855.23
2009/04/23 10:39:02.0    -101   -346    127    361    382 196.4  20.1  34130  289.08 0855.23
2009/04/23 10:39:02.1    -142   -443     65    466    471 197.8   8.0  34134  289.13 0855.23
2009/04/23 10:39:02.2    -168   -433    118    465    480 201.3  14.3  34130  289.06 0855.23
2009/04/23 10:39:02.3     -42   -271    197    275    338 188.9  39.3  34118  288.85 0855.23
2009/04/23 10:39:02.4    -179   -329    232    375    440 208.6  34.8  34126  288.99 0855.23
2009/04/23 10:39:02.5    -294   -255     98    390    403 229.0  14.2  34122  288.93 0855.23
2009/04/23 10:39:02.6    -330   -455    197    563    596 216.0  20.0  34120  288.88 0855.23
2009/04/23 10:39:02.7    -398   -270     15    482    483 235.8   1.8  34110  288.71 0855.23
2009/04/23 10:39:02.8     -48   -216    341    222    406 192.7  64.0  34132  289.11 0855.23
2009/04/23 10:39:02.9      -9   -356    197    357    407 181.6  31.4  34116  288.84 0855.23
2009/04/23 10:39:03.0      26   -286    189    288    344 174.7  36.3  34116  288.81 0855.23
2009/04/23 10:39:03.1     -47   -507    145    510    531 185.3  15.9  34122  288.92 0855.23
2009/04/23 10:39:03.2    -246   -428    209    494    536 209.9  24.2  34120  288.91 0855.23
2009/04/23 10:39:03.3      -3   -223    247    224    333 180.9  53.2  34122  288.92 0855.23
2009/04/23 10:39:03.4     213   -214    224    303    376 135.1  40.0  34120  288.89 0855.23
2009/04/23 10:39:03.5     255   -254    237    361    431 134.9  36.5  34106  288.67 0855.23
2009/04/23 10:39:03.6     249   -264    278    363    457 136.7  41.4  34104  288.61 0855.23
2009/04/23 10:39:03.7     158   -343    267    378    462 155.2  38.6  34106  288.65 0855.23
2009/04/23 10:39:03.8     380   -292    184    480    514 127.5  22.0  34110  288.74 0855.23
2009/04/23 10:39:03.9     355   -378     86    520    528 136.8   9.4  34110  288.74 0855.23
2009/04/23 10:39:04.0     529   -354    122    637    649 123.8  10.9  34096  288.50 0855.23
2009/04/23 10:39:04.1     376   -353    293    516    593 133.2  32.1  34086  288.31 0855.23
2009/04/23 10:39:04.2     197   -375     12    424    425 152.3   1.7  34112  288.77 0855.23
2009/04/23 10:39:04.3     290   -356    -47    460    463 140.8  -5.9  34112  288.75 0855.23
2009/04/23 10:39:04.4     325   -325     23    461    462 135.0   2.9  34104  288.63 0855.23
2009/04/23 10:39:04.5     217   -231    137    317    345 136.8  24.9  34104  288.62 0855.23
2009/04/23 10:39:04.6     215   -272     72    347    355 141.7  11.8  34106  288.67 0855.23
2009/04/23 10:39:04.7     156   -192     74    248    259 140.8  16.6  34116  288.81 0855.23
2009/04/23 10:39:04.8      49   -353     18    357    358 172.0   3.0  34114  288.79 0855.23
2009/04/23 10:39:04.9     -38   -178     63    183    194 192.3  19.2  34118  288.86 0855.23
2009/04/23 10:39:05.0     -16   -265    -28    266    268 183.6  -6.2  34116  288.81 0855.23
2009/04/23 10:39:05.1      69   -227    -71    238    249 163.0 -16.6  34120  288.90 0855.23
2009/04/23 10:39:05.2     103   -216    -20    240    241 154.5  -4.9  34118  288.85 0855.23
2009/04/23 10:39:05.3      65   -205    -94    216    235 162.4 -29.5  34114  288.79 0855.23
2009/04/23 10:39:05.4     130   -269    -16    300    301 154.1  -3.2  34112  288.76 0855.23
2009/04/23 10:39:05.5     159   -319     27    357    358 153.5   4.3  34110  288.74 0855.22
2009/04/23 10:39:05.6     170   -411     16    445    446 157.5   2.1  34118  288.87 0855.22
2009/04/23 10:39:05.7     232   -351     33    422    424 146.5   4.6  34114  288.80 0855.22
2009/04/23 10:39:05.8     241   -322    -71    403    410 143.2 -10.1  34100  288.56 0855.22
2009/04/23 10:39:05.9      49   -410    -90    413    423 173.1 -12.4  34114  288.80 0855.22
2009/04/23 10:39:06.0      61   -358     33    364    366 170.2   5.3  34110  288.74 0855.22
2009/04/23 10:39:06.1     159   -283    -17    325    326 150.7  -3.0  34112  288.76 0855.22
2009/04/23 10:39:06.2     148   -246    -30    288    290 149.0  -6.1  34112  288.76 0855.22
2009/04/23 10:39:06.3      82   -288     14    300    301 164.0   2.8  34126  288.98 0855.22
2009/04/23 10:39:06.4      36   -187    -34    191    195 168.9 -10.1  34130  289.06 0855.22
2009/04/23 10:39:06.5     -52   -225    -80    232    245 193.1 -24.0  34122  288.92 0855.22
2009/04/23 10:39:06.6     -26   -427    -46    428    431 183.5  -6.2  34112  288.77 0855.22
2009/04/23 10:39:06.7    -301   -576    -34    651    652 207.6  -3.0  34100  288.55 0855.22
2009/04/23 10:39:06.8    -235   -663   -148    704    720 199.6 -11.9  34114  288.79 0855.22
2009/04/23 10:39:06.9    -325   -662   -213    738    769 206.2 -16.1  34100  288.55 0855.22
2009/04/23 10:39:07.0    -269   -465   -203    538    575 210.0 -26.0  34104  288.63 0855.22
2009/04/23 10:39:07.1    -173   -281   -140    331    359 211.7 -28.7  34104  288.62 0855.22
2009/04/23 10:39:07.2      13   -268   -206    269    338 177.1 -45.7  34110  288.73 0855.22
2009/04/23 10:39:07.3       1   -324    -95    325    339 179.8 -16.4  34110  288.71 0855.22
2009/04/23 10:39:07.4     -54   -229    -47    236    241 193.4 -11.5  34104  288.63 0855.22
2009/04/23 10:39:07.5     -74   -185   -105    200    225 201.8 -33.9  34104  288.64 0855.20
2009/04/23 10:39:07.6      76   -123     93    145    172 148.4  35.6  34104  288.62 0855.20
2009/04/23 10:39:07.7     123   -236      8    267    268 152.4   1.8  34102  288.58 0855.20
2009/04/23 10:39:07.8     182   -428   -113    466    480 157.0 -13.7  34104  288.64 0855.20
2009/04/23 10:39:07.9     399   -451    -54    603    606 138.5  -5.2  34102  288.58 0855.20
2009/04/23 10:39:08.0     285   -444    -23    528    529 147.3  -2.5  34100  288.57 0855.20
2009/04/23 10:39:08.1     293   -493     -2    574    575 149.3  -0.2  34102  288.59 0855.20
2009/04/23 10:39:08.2     324   -334     26    466    467 135.9   3.3  34100  288.57 0855.20
2009/04/23 10:39:08.3     224   -172     29    283    285 127.5   5.9  34104  288.61 0855.20
2009/04/23 10:39:08.4      80   -207     11    223    224 158.8   2.9  34098  288.52 0855.20
2009/04/23 10:39:08.5     -45   -288    122    292    316 188.9  24.1  34096  288.48 0855.20
2009/04/23 10:39:08.6    -120   -254     62    281    288 205.3  12.6  34098  288.53 0855.20
2009/04/23 10:39:08.7    -164   -498     43    525    527 198.3   4.7  34102  288.58 0855.20
2009/04/23 10:39:08.8    -222   -684    119    720    730 198.0   9.4  34094  288.45 0855.20
2009/04/23 10:39:08.9    -100   -830     96    837    843 186.9   6.6  34114  288.78 0855.20
2009/04/23 10:39:09.0     -74   -600   -155    605    625 187.1 -14.4  34102  288.60 0855.20
2009/04/23 10:39:09.1    -159   -508   -158    533    557 197.4 -16.5  34102  288.58 0855.20
2009/04/23 10:39:09.2    -184   -482    -85    517    525 201.0  -9.4  34110  288.72 0855.20
2009/04/23 10:39:09.3    -237   -521    -72    573    578 204.5  -7.2  34116  288.83 0855.20
2009/04/23 10:39:09.4     -18   -622   -160    623    644 181.7 -14.4  34110  288.74 0855.20
2009/04/23 10:39:09.5     -66   -606   -219    610    649 186.3 -19.8  34100  288.54 0855.22
2009/04/23 10:39:09.6       6   -425   -117    426    442 179.1 -15.4  34104  288.61 0855.22
2009/04/23 10:39:09.7     136   -449   -165    470    499 163.1 -19.4  34108  288.68 0855.22
2009/04/23 10:39:09.8     147   -374   -127    403    423 158.5 -17.6  34110  288.73 0855.22
2009/04/23 10:39:09.9      77   -360   -102    369    382 167.9 -20.0  34104  288.64 0855.22
2009/04/23 10:39:10.0      18   -407   -137    408    431 177.4 -18.6  34106  288.67 0855.22
2009/04/23 10:39:10.1      56   -457   -138    461    481 172.9 -21.6  34114  288.79 0855.22
2009/04/23 10:39:10.2      73   -547   -178    552    581 172.3 -17.9  34108  288.68 0855.22
2009/04/23 10:39:10.3      67   -526   -179    531    560 172.7 -23.7  34100  288.57 0855.22
2009/04/23 10:39:10.4     111   -513   -217    526    569 167.7 -28.1  34110  288.72 0855.22
2009/04/23 10:39:10.5     157   -546   -162    569    591 164.0 -20.7  34108  288.68 0855.22
2009/04/23 10:39:10.6     193   -584   -117    616    628 161.7 -10.8  34100  288.57 0855.22
2009/04/23 10:39:10.7     220   -553    -86    596    603 158.3  -8.2  34100  288.54 0855.22
2009/04/23 10:39:10.8     315   -512    -64    602    606 148.4  -6.1  34098  288.53 0855.22
2009/04/23 10:39:10.9     276   -369    -37    462    464 143.2  -4.6  34098  288.53 0855.22
2009/04/23 10:39:11.0      43   -302    -93    306    319 171.8 -21.9  34104  288.61 0855.22
2009/04/23 10:39:11.1      80   -281    -85    293    306 164.0 -16.2  34102  288.58 0855.22
2009/04/23 10:39:11.2     138   -319     16    348    349 156.6   2.8  34100  288.57 0855.22
2009/04/23 10:39:11.3     204   -209     91    293    307 135.7  17.3  34104  288.63 0855.22
2009/04/23 10:39:11.4     231   -291     93    372    384 141.6  14.2  34102  288.59 0855.22
2009/04/23 10:39:11.5     171   -382    180    419    456 155.8  24.8  34112  288.77 0855.24
2009/04/23 10:39:11.6     217   -415    156    469    495 152.4  18.4  34108  288.68 0855.24
2009/04/23 10:39:11.7     199   -533    184    570    599 159.5  17.9  34102  288.58 0855.24
2009/04/23 10:39:11.8      68   -528    185    533    565 172.6  19.2  34098  288.52 0855.24
2009/04/23 10:39:11.9      67   -467     84    472    480 171.8  10.1  34098  288.51 0855.24
2009/04/23 10:39:12.0      -3   -433    124    434    452 180.5  16.0  34098  288.53 0855.24
2009/04/23 10:39:12.2      54   -393    225    397    456 172.1  32.0  34100  288.56 0855.24
2009/04/23 10:39:12.2     -22   -325    161    326    363 184.0  28.1  34102  288.59 0855.24
2009/04/23 10:39:12.3     -70   -293    174    302    348 193.4  32.6  34106  288.66 0855.24
2009/04/23 10:39:12.4      31   -213    132    216    253 171.5  34.5  34108  288.68 0855.24
2009/04/23 10:39:12.5      15    -57    169     60    179 164.9  79.9  34102  288.60 0855.24
2009/04/23 10:39:12.6     127    103    198    164    257  50.9  56.3  34106  288.67 0855.24
2009/04/23 10:39:12.7       4     52    169     53    177   4.5  82.0  34120  288.89 0855.24
2009/04/23 10:39:12.8     -31    -79    186     86    204 201.8  73.2  34120  288.91 0855.24
2009/04/23 10:39:12.9     -28   -187    222    190    292 188.5  55.3  34112  288.76 0855.24
2009/04/23 10:39:13.1       2    -31    136     32    139 175.5  86.9  34118  288.86 0855.24
2009/04/23 10:39:13.2     131    -67      7    148    149 117.1   2.8  34120  288.89 0855.24
2009/04/23 10:39:13.3      79     11   -100     80    128  82.0 -60.8  34118  288.87 0855.24
2009/04/23 10:39:13.4     114     82   -106    141    176  54.1 -45.1  34114  288.79 0855.24
2009/04/23 10:39:13.5      -3    238   -114    239    264 359.1 -31.7  34110  288.73 0855.24
2009/04/23 10:39:13.6      92    158    -62    184    194  30.3 -23.3  34112  288.75 0855.19
2009/04/23 10:39:13.7      82    105    -85    134    158  37.9 -39.9  34114  288.80 0855.19
2009/04/23 10:39:13.8      30     24   -140     39    145  50.5 -89.2  34118  288.86 0855.19
2009/04/23 10:39:13.9     -39    -82   -147     91    172 205.4 -69.3  34120  288.91 0855.19
2009/04/23 10:39:14.0     -32   -134    -85    138    162 193.8 -38.8  34116  288.84 0855.19
2009/04/23 10:39:14.1      47   -182     27    188    190 165.5   8.2  34112  288.75 0855.19
2009/04/23 10:39:14.2      61   -299    189    306    359 168.4  34.8  34116  288.84 0855.19
2009/04/23 10:39:14.3      78   -264    281    276    393 163.5  50.6  34120  288.88 0855.19
2009/04/23 10:39:14.4     -33   -317    266    319    415 186.0  44.1  34114  288.79 0855.19
2009/04/23 10:39:14.5      56   -349    247    354    431 170.9  38.5  34116  288.83 0855.19
2009/04/23 10:39:14.6      77   -227    233    240    334 161.1  49.1  34116  288.81 0855.19
2009/04/23 10:39:14.7      85   -133    267    158    310 147.4  66.7  34120  288.90 0855.19
2009/04/23 10:39:14.8     -32    -15    224     36    226 244.8  90.0  34124  288.97 0855.19
2009/04/23 10:39:14.9      78    -49    136     93    164 122.0  62.6  34122  288.92 0855.19
2009/04/23 10:39:15.0      53     25    213     59    221  64.8  84.6  34124  288.97 0855.19
2009/04/23 10:39:15.1     114     50    220    125    253  66.0  67.8  34134  289.14 0855.19
2009/04/23 10:39:15.2      -7     -6    152     10    152 226.9  90.0  34128  289.02 0855.19
2009/04/23 10:39:15.3      -2      0    182      3    182 270.0  90.0  34134  289.13 0855.19
2009/04/23 10:39:15.4      18    -55    172     58    181 161.5  81.2  34120  288.91 0855.19
2009/04/23 10:39:15.5     195    -78    225    211    308 111.8  52.1  34120  288.90 0855.19
2009/04/23 10:39:15.6     246   -183    230    307    383 126.6  40.7  34112  288.76 0855.21
2009/04/23 10:39:15.7     162   -213    247    268    364 142.8  47.5  34122  288.93 0855.21
2009/04/23 10:39:15.8     145   -155    176    213    276 136.8  43.8  34122  288.93 0855.21
2009/04/23 10:39:15.9     201   -216    206    296    360 137.0  38.3  34114  288.79 0855.21
2009/04/23 10:39:16.0     158   -192    195    249    316 140.6  42.1  34116  288.83 0855.21
2009/04/23 10:39:16.1     176   -145    196    229    301 129.5  44.9  34120  288.90 0855.21
2009/04/23 10:39:16.2     226   -131    186    262    321 120.2  38.8  34120  288.88 0855.21
2009/04/23 10:39:16.3     221   -215    116    309    330 134.2  21.4  34114  288.80 0855.21
2009/04/23 10:39:16.4     163   -197    119    257    283 140.4  27.0  34114  288.78 0855.21
2009/04/23 10:39:16.5     157   -209    119    262    287 143.0  26.2  34112  288.75 0855.21
2009/04/23 10:39:16.6     208   -131    165    246    296 122.2  37.3  34120  288.90 0855.21
2009/04/23 10:39:16.7      94   -200    172    222    280 154.7  41.7  34118  288.85 0855.21
2009/04/23 10:39:16.8     110   -236    200    261    328 155.1  41.4  34122  288.92 0855.21
2009/04/23 10:39:16.9     146   -276    124    313    336 152.0  22.9  34116  288.84 0855.21
2009/04/23 10:39:17.0     139   -292     37    324    327 154.5   6.6  34116  288.81 0855.21
2009/04/23 10:39:17.1     150   -326     10    359    360 155.3   1.7  34114  288.79 0855.21
2009/04/23 10:39:17.2      92   -361     -7    373    374 165.6  -1.2  34114  288.79 0855.21
2009/04/23 10:39:17.3      70   -287   -111    296    316 166.2 -25.9  34114  288.78 0855.21
2009/04/23 10:39:17.4      22   -157     41    159    165 172.0  14.7  34110  288.72 0855.21
2009/04/23 10:39:17.5      35   -158     58    162    172 167.5  20.2  34118  288.87 0855.21
2009/04/23 10:39:17.6      11   -168     13    169    170 176.0   4.6  34114  288.80 0855.22
2009/04/23 10:39:17.7     115   -170     58    206    215 145.7  15.8  34106  288.65 0855.22
2009/04/23 10:39:17.8     157   -187     61    245    253 140.1  14.2  34100  288.54 0855.22
2009/04/23 10:39:17.9     130   -174     42    218    223 143.3  11.1  34104  288.62 0855.22
2009/04/23 10:39:18.0     172   -165     60    239    247 133.8  14.3  34098  288.53 0855.22
2009/04/23 10:39:18.1     143   -180     45    231    236 141.5  11.0  34100  288.56 0855.22
2009/04/23 10:39:18.2      79   -199     19    215    216 158.2   5.2  34112  288.77 0855.22
2009/04/23 10:39:18.3      38   -149     44    154    161 165.7  16.0  34114  288.79 0855.22
2009/04/23 10:39:18.4      68   -158     43    173    179 156.6  13.9  34118  288.86 0855.22
2009/04/23 10:39:18.5      43   -151     26    158    161 164.0   9.3  34120  288.91 0855.22
2009/04/23 10:39:18.6      33   -144     53    148    157 166.7  20.4  34120  288.91 0855.22
2009/04/23 10:39:18.7      15   -141     40    142    148 173.7  15.8  34120  288.89 0855.22
2009/04/23 10:39:18.8      30   -146      2    150    151 168.4   0.8  34122  288.92 0855.22
2009/04/23 10:39:18.9      58   -136     17    148    150 156.8   6.9  34118  288.87 0855.22
2009/04/23 10:39:19.0      50   -131     27    141    144 159.1  11.1  34120  288.89 0855.22
2009/04/23 10:39:19.1      36   -115     10    121    122 162.6   4.9  34118  288.87 0855.22
2009/04/23 10:39:19.2      33   -112     23    117    120 163.5  11.1  34120  288.89 0855.22
2009/04/23 10:39:19.3      37   -110     30    117    121 161.3  14.7  34116  288.84 0855.22
2009/04/23 10:39:19.4      71    -97     34    121    126 143.9  15.8  34120  288.89 0855.22
2009/04/23 10:39:19.5     130    -66     37    146    151 117.1  14.3  34120  288.89 0855.22
2009/04/23 10:39:19.6     153    -31     81    157    176 101.5  29.3  34120  288.91 0855.24
2009/04/23 10:39:19.7     166    -51    138    174    222 107.1  42.4  34120  288.91 0855.24
2009/04/23 10:39:19.8      52    -28    103     60    119 118.9  67.2  34132  289.11 0855.24
2009/04/23 10:39:19.9      31      6     44     32     54  78.5  60.5  34130  289.08 0855.24
2009/04/23 10:39:20.0      35    -28     67     45     80 128.6  62.6  34124  288.96 0855.24
2009/04/23 10:39:20.1       0    -21     54     22     58 180.9  78.2  34130  289.08 0855.24
2009/04/23 10:39:20.2     -23      0     71     24     74 270.0  81.0  34136  289.16 0855.24
2009/04/23 10:39:20.3     -47    -41     74     63     97 228.7  55.4  34124  288.97 0855.24
2009/04/23 10:39:20.4     -41    -16     82     45     93 248.3  69.3  34126  289.01 0855.24
2009/04/23 10:39:20.5     -70    -30     92     77    119 246.5  56.3  34134  289.14 0855.24
2009/04/23 10:39:20.6     -21     16     66     27     71 307.8  77.1  34142  289.28 0855.24
2009/04/23 10:39:20.7     -11     43     90     45    100 344.9  71.9  34142  289.28 0855.24
2009/04/23 10:39:20.8     -22     39     65     46     79 330.1  61.5  34136  289.16 0855.24
2009/04/23 10:39:20.9       0     -8     90      9     90 175.5  90.0  34148  289.38 0855.24
2009/04/23 10:39:21.0     -79    -85     65    117    133 222.8  31.4  34144  289.31 0855.24
2009/04/23 10:39:21.1     -17    -64     58     67     88 195.1  45.4  34130  289.06 0855.24
2009/04/23 10:39:21.2     -41    -85     75     95    121 205.9  42.2  34124  288.96 0855.24
2009/04/23 10:39:21.3     -63   -142    105    156    188 204.1  37.0  34130  289.06 0855.24
2009/04/23 10:39:21.4     -38   -114     50    121    130 198.5  23.6  34146  289.35 0855.24
2009/04/23 10:39:21.5     -57    -88     80    105    132 213.0  41.6  34132  289.11 0855.24
2009/04/23 10:39:21.6    -101    -93     91    138    165 227.3  36.3  34136  289.18 0855.24
2009/04/23 10:39:21.7     -89   -122     55    152    161 216.1  20.7  34128  289.04 0855.24
2009/04/23 10:39:21.8     -63   -106    129    124    178 210.7  51.2  34158  289.53 0855.24
2009/04/23 10:39:21.9     -59    -66    119     89    148 221.9  59.4  34158  289.53 0855.24
2009/04/23 10:39:22.0     -79    -53    133     96    164 236.3  60.8  34170  289.74 0855.24
2009/04/23 10:39:22.1    -113    -87    125    143    189 232.3  45.6  34180  289.91 0855.24
2009/04/23 10:39:22.2    -104   -104    145    148    207 225.0  49.8  34168  289.72 0855.24
2009/04/23 10:39:22.3     -36   -101    164    108    196 199.6  63.6  34134  289.13 0855.24
2009/04/23 10:39:22.4     -67    -61    118     91    149 227.8  58.5  34138  289.21 0855.24
2009/04/23 10:39:22.5     -47   -156    164    164    231 196.9  50.1  34128  289.02 0855.24
2009/04/23 10:39:22.6     -34   -177    115    181    214 191.1  35.5  34130  289.08 0855.24
2009/04/23 10:39:22.7     -53   -162    123    171    210 198.3  39.5  34132  289.09 0855.24
2009/04/23 10:39:22.8    -101    -97    183    141    231 226.0  58.5  34132  289.11 0855.24
2009/04/23 10:39:22.9    -101    -67    154    122    196 236.3  57.7  34144  289.31 0855.24
2009/04/23 10:39:23.0    -132   -111    131    173    217 229.8  40.9  34134  289.14 0855.24
2009/04/23 10:39:23.1    -180    -74    123    195    230 247.4  35.5  34136  289.16 0855.24
2009/04/23 10:39:23.2    -106   -113     76    156    173 223.2  27.8  34146  289.33 0855.24
2009/04/23 10:39:23.3     -44   -135    114    143    182 198.3  43.0  34148  289.38 0855.24
2009/04/23 10:39:23.4     -96   -157    161    185    245 211.4  45.6  34140  289.23 0855.24
2009/04/23 10:39:23.5       7    -80    165     81    183 174.7  72.1  34166  289.67 0855.24
2009/04/23 10:39:23.6     -12   -127    146    128    194 185.8  54.3  34138  289.21 0855.24
2009/04/23 10:39:23.7     -59   -131    188    144    236 204.5  58.7  34140  289.24 0855.24
2009/04/23 10:39:23.8     -59   -155    156    166    227 200.9  48.0  34164  289.63 0855.24
2009/04/23 10:39:23.9     -29    -59    103     66    122 206.3  64.6  34184  289.97 0855.24
2009/04/23 10:39:24.0      -1      4     59      5     59 341.5  90.0  34192  290.11 0855.24
2009/04/23 10:39:24.1      34      0     56     35     66  89.1  64.7  34230  290.77 0855.24
2009/04/23 10:39:24.2      82     37    115     91    146  65.6  56.9  34272  291.49 0855.24
2009/04/23 10:39:24.3      80    119    103    144    177  33.8  39.5  34230  290.75 0855.24
2009/04/23 10:39:24.4      89    123    132    152    201  36.0  45.8  34200  290.25 0855.24
2009/04/23 10:39:24.5     148     56     81    159    178  69.2  29.3  34210  290.43 0855.24
2009/04/23 10:39:24.6     151     95     21    179    181  57.6   6.7  34234  290.82 0855.25
2009/04/23 10:39:24.7     139    167     51    218    224  39.6  13.2  34236  290.86 0855.25
2009/04/23 10:39:24.8     105    214    118    239    266  26.1  28.0  34198  290.20 0855.25
2009/04/23 10:39:24.9     125    204     90    240    256  31.4  21.7  34216  290.51 0855.25
2009/04/23 10:39:25.0     135    188     19    232    233  35.8   4.9  34222  290.63 0855.25
2009/04/23 10:39:25.1     114    207     48    237    243  29.0  11.6  34194  290.15 0855.25
2009/04/23 10:39:25.2      91    168     23    192    194  28.5   6.9  34194  290.14 0855.25
2009/04/23 10:39:25.3     -21    134     75    136    155 351.1  31.4  34172  289.79 0855.25
2009/04/23 10:39:25.4    -159    107     26    192    194 304.0   7.8  34170  289.75 0855.25
2009/04/23 10:39:25.5    -197     93     -4    219    220 295.4  -1.2  34182  289.94 0855.25
2009/04/23 10:39:25.6    -150    163    -36    222    226 317.5  -9.3  34178  289.87 0855.25
2009/04/23 10:39:25.7    -150    164    -20    223    224 317.5  -5.2  34176  289.85 0855.25
2009/04/23 10:39:25.8    -106    152    -23    186    188 325.0  -7.3  34172  289.79 0855.25
2009/04/23 10:39:25.9     -34    110    -59    116    130 342.6 -33.6  34166  289.69 0855.25
2009/04/23 10:39:26.0     -16     87    -45     89     99 349.3 -33.1  34162  289.62 0855.25
2009/04/23 10:39:26.1    -139     49    -52    148    156 289.5 -24.6  34176  289.85 0855.25
2009/04/23 10:39:26.2    -313     63   -103    320    337 281.4 -17.9  34144  289.30 0855.25
2009/04/23 10:39:26.3    -368     16   -126    369    389 272.5 -23.8  34142  289.25 0855.25
2009/04/23 10:39:26.4    -321    -24     10    322    323 265.7   1.9  34158  289.54 0855.25
2009/04/23 10:39:26.5    -292    -59    -93    298    313 258.6 -17.3  34144  289.29 0855.25
2009/04/23 10:39:26.6    -261    -40   -170    265    314 261.2 -40.1  34136  289.15 0855.26
2009/04/23 10:39:26.7    -241    -47   -159    246    292 258.8 -40.0  34134  289.12 0855.26
2009/04/23 10:39:26.8    -242    -39    -26    246    248 260.8  -6.2  34150  289.41 0855.26
2009/04/23 10:39:26.9    -136    -32    -32    140    144 256.7 -12.9  34154  289.46 0855.26
2009/04/23 10:39:27.0    -155    -77    -15    174    175 243.6  -5.2  34160  289.58 0855.26
2009/04/23 10:39:27.1    -147   -102    -49    180    187 235.1 -15.4  34174  289.82 0855.26
2009/04/23 10:39:27.2     -20   -120      1    122    123 189.8   0.7  34176  289.85 0855.26
2009/04/23 10:39:27.3     -61   -175     15    186    187 199.4   4.9  34170  289.74 0855.26
2009/04/23 10:39:27.4     -28   -160     95    163    188 190.0  32.9  34186  290.02 0855.26
2009/04/23 10:39:27.5     -43   -138    140    145    201 197.4  49.2  34192  290.13 0855.26
2009/04/23 10:39:27.6     -21   -154    149    156    215 188.0  48.2  34210  290.41 0855.26
2009/04/23 10:39:27.7     -33   -184    148    188    239 190.2  42.2  34192  290.11 0855.26
2009/04/23 10:39:27.8    -102   -227     89    250    265 204.3  20.2  34190  290.09 0855.26
2009/04/23 10:39:27.9     -62   -230    -17    239    240 195.1  -4.1  34178  289.88 0855.26
2009/04/23 10:39:28.0     -30   -219     27    222    224 188.0   7.1  34178  289.89 0855.26
2009/04/23 10:39:28.1      73   -217    -46    230    235 161.3 -11.5  34188  290.03 0855.26
2009/04/23 10:39:28.2      43   -213    -30    218    221 168.4  -8.0  34210  290.41 0855.26
2009/04/23 10:39:28.3      48   -223     20    229    230 167.7   5.2  34208  290.40 0855.26
2009/04/23 10:39:28.4     223   -185    -11    290    291 129.6  -2.3  34164  289.64 0855.26
2009/04/23 10:39:28.5     137   -150    -41    204    209 137.5 -11.6  34188  290.06 0855.26
2009/04/23 10:39:28.6     150   -125    -32    196    199 129.6  -9.3  34192  290.13 0855.27
2009/04/23 10:39:28.7     224   -105     -9    248    249 115.2  -2.2  34174  289.80 0855.27
2009/04/23 10:39:28.8     289     -9     45    290    294  91.9   9.0  34190  290.09 0855.27
2009/04/23 10:39:28.9     281    -18     10    282    283  93.7   2.1  34186  290.02 0855.27
2009/04/23 10:39:29.0     296     87     35    309    311  73.6   6.5  34192  290.12 0855.27
2009/04/23 10:39:29.1     284     74     16    294    295  75.4   3.1  34222  290.63 0855.27
2009/04/23 10:39:29.2     188      0     29    189    192  90.0   8.8  34214  290.50 0855.27
2009/04/23 10:39:29.3     213      3      8    214    215  89.2   2.3  34194  290.14 0855.27
2009/04/23 10:39:29.4     281     57    -22    287    288  78.5  -4.4  34212  290.44 0855.27
2009/04/23 10:39:29.5     318     64    126    325    348  78.5  22.3  34178  289.86 0855.27
2009/04/23 10:39:29.6     459    191    -48    498    501  67.4  -5.6  34172  289.76 0855.27
2009/04/23 10:39:29.7     472    338     28    581    582  54.4   2.8  34200  290.24 0855.27
2009/04/23 10:39:29.8     519    290     97    595    604  60.8   9.3  34182  289.93 0855.27
2009/04/23 10:39:29.9     476    255    134    541    558  61.8  13.9  34168  289.72 0855.27
2009/04/23 10:39:30.0     446    241    166    507    534  61.6  18.1  34176  289.85 0855.27
2009/04/23 10:39:30.1     363    200     74    415    422  61.1  10.1  34174  289.80 0855.27
2009/04/23 10:39:30.2     385     44    124    388    408  83.4  17.8  34206  290.35 0855.27
2009/04/23 10:39:30.3     464     41    139    466    487  84.9  16.7  34172  289.76 0855.27
2009/04/23 10:39:30.4     264     49    103    269    288  79.4  22.0  34144  289.31 0855.27
2009/04/23 10:39:30.5     239    -36    158    242    289  98.6  36.3  34176  289.83 0855.27
2009/04/23 10:39:30.6     217    -78      9    231    232 110.0   2.3  34204  290.33 0855.27
2009/04/23 10:39:30.7     353    -45     58    356    361  97.4   9.3  34192  290.13 0855.27
2009/04/23 10:39:30.8     531    197     65    567    571  69.6   6.6  34174  289.80 0855.27
2009/04/23 10:39:30.9     491     92    -10    500    501  79.3  -1.2  34184  289.98 0855.27
2009/04/23 10:39:31.0     115    288    114    311    331  21.9  20.8  34200  290.24 0855.27
2009/04/23 10:39:31.1     202    141    114    247    272  55.1  26.6  34212  290.46 0855.27
2009/04/23 10:39:31.2     290    126    111    317    337  66.4  19.4  34182  289.96 0855.27
2009/04/23 10:39:31.3     320    139     46    349    353  66.5   7.6  34162  289.59 0855.27
2009/04/23 10:39:31.4     318    137     28    347    349  66.7   4.7  34160  289.57 0855.27
2009/04/23 10:39:31.5     416    134    -80    438    446  72.1 -10.4  34156  289.49 0855.27
2009/04/23 10:39:31.6     366    132    -20    390    391  70.2  -3.0  34164  289.64 0855.27
2009/04/23 10:39:31.7     421     66      1    427    428  81.0   0.2  34178  289.87 0855.27
2009/04/23 10:39:31.8     381     36    -11    383    384  84.6  -1.7  34176  289.84 0855.27
2009/04/23 10:39:31.9     370    136      7    395    396  69.8   1.1  34204  290.33 0855.27
2009/04/23 10:39:32.0     417    152     96    445    456  70.0  12.3  34210  290.41 0855.27
2009/04/23 10:39:32.1     370     97     69    383    390  75.3  10.3  34196  290.18 0855.27
2009/04/23 10:39:32.2     376    101     38    390    392  74.9   5.7  34220  290.59 0855.27
2009/04/23 10:39:32.3     326    117    190    347    395  70.2  31.3  34236  290.86 0855.27
2009/04/23 10:39:32.4     403    139     74    427    434  70.9   9.9  34194  290.14 0855.27
2009/04/23 10:39:32.5     421     40    191    423    464  84.5  26.2  34214  290.50 0855.27
2009/04/23 10:39:32.6     319     34    129    321    345  83.8  23.1  34204  290.32 0855.26
2009/04/23 10:39:32.7     362     66     85    368    378  79.6  13.1  34188  290.03 0855.26
2009/04/23 10:39:32.8     335     29     66    337    344  85.0  11.1  34180  289.91 0855.26
2009/04/23 10:39:32.9     206    170     63    268    276  50.5  13.2  34176  289.83 0855.26
2009/04/23 10:39:33.0     339    236    -12    414    415  55.1  -1.7  34176  289.83 0855.26
2009/04/23 10:39:33.1     189    177     76    260    271  46.9  16.3  34176  289.83 0855.26
2009/04/23 10:39:33.2     134    166     -1    214    215  39.0  -0.5  34170  289.75 0855.26
2009/04/23 10:39:33.3     130    129     -9    184    185  45.3  -2.8  34168  289.70 0855.26
2009/04/23 10:39:33.4     226    150     13    272    273  56.5   2.9  34194  290.15 0855.26
2009/04/23 10:39:33.5     289    104    -61    308    315  70.1 -11.3  34180  289.90 0855.26
2009/04/23 10:39:33.6     262     25     -5    264    265  84.5  -1.2  34172  289.76 0855.26
2009/04/23 10:39:33.7     302     22      2    303    304  85.7   0.5  34162  289.61 0855.26
2009/04/23 10:39:33.8     158   -145     34    215    218 132.7   9.0  34140  289.24 0855.26
2009/04/23 10:39:33.9      86   -181     22    201    203 154.5   6.5  34142  289.26 0855.26
2009/04/23 10:39:34.0      86   -247     50    262    267 160.8  10.8  34158  289.54 0855.26
2009/04/23 10:39:34.1      18   -240     87    241    257 175.6  19.9  34170  289.73 0855.26
2009/04/23 10:39:34.2       8   -269    105    270    289 178.2  22.1  34160  289.56 0855.26
2009/04/23 10:39:34.3     108   -308     88    327    339 160.6  15.1  34140  289.23 0855.26
2009/04/23 10:39:34.4      75   -241    110    253    275 162.6  25.1  34142  289.27 0855.26
2009/04/23 10:39:34.5      33   -243    148    246    287 172.2  34.0  34150  289.41 0855.26
2009/04/23 10:39:34.6      31   -220    168    223    279 171.9  40.7  34160  289.58 0855.21
2009/04/23 10:39:34.7      22   -113    181    116    214 168.9  64.6  34176  289.85 0855.21
2009/04/23 10:39:34.8      36    -99    128    106    166 160.0  56.3  34172  289.79 0855.21
2009/04/23 10:39:34.9     127    -82     72    152    168 122.9  27.2  34140  289.24 0855.21
2009/04/23 10:39:35.0     154   -132     50    204    211 130.7  13.9  34134  289.14 0855.21
2009/04/23 10:39:35.1     137   -137     -6    195    196 135.0  -1.8  34138  289.21 0855.21
2009/04/23 10:39:35.2      72   -141     55    159    169 152.8  19.2  34138  289.21 0855.21
2009/04/23 10:39:35.3      -6   -142     50    143    152 182.7  19.4  34138  289.21 0855.21
2009/04/23 10:39:35.4      -1   -160     68    161    174 180.4  24.3  34138  289.21 0855.21
2009/04/23 10:39:35.5       9   -204     84    205    221 177.4  23.1  34132  289.11 0855.21
2009/04/23 10:39:35.6      91   -194    102    215    237 154.7  27.2  34130  289.06 0855.21
2009/04/23 10:39:35.7      29   -183    140    186    232 170.9  40.7  34132  289.11 0855.21
2009/04/23 10:39:35.8     111   -135    135    175    221 140.6  41.7  34138  289.21 0855.21
2009/04/23 10:39:35.9       2   -199    194    200    278 179.3  49.2  34132  289.09 0855.21
2009/04/23 10:39:36.0     -92   -245    156    262    304 200.7  33.5  34132  289.10 0855.21
2009/04/23 10:39:36.1     -81   -234    153    248    291 199.2  34.8  34132  289.09 0855.21
2009/04/23 10:39:36.2     -38   -242    189    246    310 188.9  41.6  34138  289.20 0855.21
2009/04/23 10:39:36.3     -32   -348    244    350    426 185.3  38.5  34136  289.17 0855.21
2009/04/23 10:39:36.4    -158   -340    246    375    448 204.9  36.4  34132  289.09 0855.21
2009/04/23 10:39:36.5    -117   -324    243    345    421 200.0  38.7  34138  289.20 0855.21
2009/04/23 10:39:36.6    -128   -320    214    345    405 201.8  34.8  34134  289.13 0855.19
2009/04/23 10:39:36.7     -45   -224    216    229    314 191.6  48.4  34140  289.22 0855.19
2009/04/23 10:39:36.8    -124   -254    176    283    333 206.1  34.9  34138  289.19 0855.19
2009/04/23 10:39:36.9     -71   -281    170    290    336 194.3  33.0  34138  289.19 0855.19
2009/04/23 10:39:37.0     135   -244    164    280    324 151.0  33.1  34140  289.22 0855.19
2009/04/23 10:39:37.1       1   -227    113    228    254 179.5  28.2  34146  289.32 0855.19
2009/04/23 10:39:37.2      18   -206    113    207    235 174.9  31.0  34142  289.28 0855.19
2009/04/23 10:39:37.3      12   -157    160    158    224 175.5  50.1  34146  289.33 0855.19
2009/04/23 10:39:37.4      48   -183    169    190    254 165.1  46.2  34146  289.34 0855.19
2009/04/23 10:39:37.5      18   -154     51    156    165 173.3  18.1  34144  289.30 0855.19
2009/04/23 10:39:37.6      29   -212    110    214    240 172.2  29.3  34148  289.36 0855.19
2009/04/23 10:39:37.7     -54   -356    207    361    416 188.7  32.4  34146  289.35 0855.19
2009/04/23 10:39:37.8     -89   -337    228    349    416 194.8  36.3  34152  289.42 0855.19
2009/04/23 10:39:37.9     -67   -198    151    210    258 198.7  39.5  34150  289.41 0855.19
2009/04/23 10:39:38.0     -98   -206    152    229    274 205.6  37.0  34172  289.76 0855.19
2009/04/23 10:39:38.1     -50   -292     98    297    313 189.7  18.4  34150  289.41 0855.19
2009/04/23 10:39:38.2     -56   -283    122    289    313 191.3  24.2  34148  289.36 0855.19
2009/04/23 10:39:38.3      25   -270    114    272    294 174.6  24.1  34150  289.39 0855.19
2009/04/23 10:39:38.4       3   -199    113    200    229 179.0  31.6  34154  289.48 0855.19
2009/04/23 10:39:38.5     -15   -170    106    171    201 185.3  34.8  34152  289.43 0855.19
2009/04/23 10:39:38.6     -32   -213    139    216    256 188.7  35.6  34156  289.51 0855.18
2009/04/23 10:39:38.7     -17   -257    145    258    295 183.8  31.6  34152  289.44 0855.18
2009/04/23 10:39:38.8     -55   -286    151    292    328 190.9  29.4  34152  289.44 0855.18
2009/04/23 10:39:38.9     -71   -226    159    238    286 197.6  36.7  34160  289.56 0855.18
2009/04/23 10:39:39.0     -99   -236    133    257    289 202.8  29.3  34176  289.83 0855.18
2009/04/23 10:39:39.1    -127    -92    131    158    205 234.1  43.8  34208  290.38 0855.18
2009/04/23 10:39:39.2    -108   -124     92    165    188 221.2  31.4  34204  290.33 0855.18
2009/04/23 10:39:39.3     -20    -71     14     74     76 196.0  11.1  34176  289.85 0855.18
2009/04/23 10:39:39.4      47    -90      2    102    103 152.4   1.2  34164  289.63 0855.18
2009/04/23 10:39:39.5      97    -51     11    110    111 118.0   5.9  34170  289.74 0855.18
2009/04/23 10:39:39.6      82     -2      0     83     84  91.7  -0.3  34166  289.67 0855.18
2009/04/23 10:39:39.7      45     62     67     77    102  36.0  45.8  34168  289.70 0855.18
2009/04/23 10:39:39.8      47     72     16     87     89  33.4  10.6  34172  289.77 0855.18
2009/04/23 10:39:39.9      89    -10    -33     90     95  97.0 -24.8  34166  289.67 0855.18
2009/04/23 10:39:40.0     100     13    -70    101    122  82.1 -42.4  34162  289.62 0855.18
2009/04/23 10:39:40.1      25     87    -14     91     93  16.5  -8.8  34164  289.65 0855.18
2009/04/23 10:39:40.2      22    137     59    139    151   9.3  24.6  34170  289.74 0855.18
2009/04/23 10:39:40.3      24     38     54     46     70  32.5  56.3  34176  289.85 0855.18
2009/04/23 10:39:40.4      32     15     57     36     67  64.6  64.7  34176  289.85 0855.18
2009/04/23 10:39:40.5     124    103     78    162    179  50.4  27.4  34178  289.89 0855.18
2009/04/23 10:39:40.6      59     85     49    104    114  34.7  27.1  34172  289.79 0855.23
2009/04/23 10:39:40.7     -22    109     82    112    138 348.5  39.7  34176  289.85 0855.23
2009/04/23 10:39:40.9      61    129     89    143    168  25.5  35.2  34172  289.77 0855.23
2009/04/23 10:39:41.0      77    101     52    128    138  37.4  23.1  34186  290.02 0855.23
2009/04/23 10:39:41.1     133     11      8    134    135  85.2   3.8  34180  289.91 0855.23
2009/04/23 10:39:41.2     100    -19     41    102    109 101.0  23.0  34174  289.80 0855.23
2009/04/23 10:39:41.3      71    -45     44     85     95 122.5  29.3  34182  289.94 0855.23
2009/04/23 10:39:41.4      24    -62     47     67     81 158.2  38.6  34182  289.94 0855.23
2009/04/23 10:39:41.5      84    -98    -17    130    132 139.5  -7.7  34176  289.85 0855.23
2009/04/23 10:39:41.6     110   -125    -22    167    169 138.6  -7.7  34178  289.87 0855.23
2009/04/23 10:39:41.7     113    -89    -27    144    147 128.2 -10.9  34176  289.84 0855.24
2009/04/23 10:39:41.8      86    -83     -4    120    121 134.0  -2.2  34178  289.89 0855.24
2009/04/23 10:39:41.9      82    -83     15    118    119 135.3   7.5  34182  289.94 0855.24
2009/04/23 10:39:42.0      34    -77     40     85     93 155.9  27.1  34184  289.99 0855.24
2009/04/23 10:39:42.1      18    -88     47     90    101 168.4  29.8  34180  289.91 0855.24
2009/04/23 10:39:42.2      -2   -124     78    125    147 181.0  35.5  34170  289.75 0855.24
2009/04/23 10:39:42.3      29   -142    104    146    179 168.4  39.3  34172  289.77 0855.24
2009/04/23 10:39:42.4      38   -145    110    150    186 165.3  39.9  34168  289.70 0855.24
2009/04/23 10:39:42.5      79    -88     97    119    153 138.1  43.7  34176  289.84 0855.24
2009/04/23 10:39:42.6     130    -82    111    154    189 122.4  39.5  34174  289.82 0855.24
2009/04/23 10:39:42.7     147    -53     86    157    179 110.0  31.3  34172  289.79 0855.24
2009/04/23 10:39:42.8     115    -77     49    139    148 123.7  19.4  34168  289.72 0855.24
2009/04/23 10:39:42.9      60    -63     58     88    105 136.3  36.0  34174  289.82 0855.24
2009/04/23 10:39:43.0      97    -68    104    119    158 125.1  45.8  34176  289.85 0855.24
2009/04/23 10:39:43.1      85    -38     99     94    136 114.0  51.2  34184  289.97 0855.24
2009/04/23 10:39:43.2      16    -27     95     32    100 149.3  81.0  34182  289.96 0855.24
2009/04/23 10:39:43.3      -5     -6     69      8     69 219.6  90.0  34186  290.02 0855.24
2009/04/23 10:39:43.4     -32      8     62     34     70 285.1  68.8  34196  290.19 0855.24
2009/04/23 10:39:43.5     -19    -94    130     97    162 191.6  59.4  34172  289.79 0855.24
2009/04/23 10:39:43.6     -12   -108    143    109    179 186.7  59.0  34168  289.72 0855.24
2009/04/23 10:39:43.7     -56   -161    108    171    202 199.2  35.5  34162  289.62 0855.26
2009/04/23 10:39:43.8     -63   -191     68    202    214 198.3  18.6  34154  289.46 0855.26
2009/04/23 10:39:43.9     -57   -173     82    183    200 198.3  25.7  34158  289.53 0855.26
2009/04/23 10:39:44.0     -54   -232     45    239    244 193.3  10.8  34156  289.49 0855.26
2009/04/23 10:39:44.1     -25   -200     55    202    210 187.3  15.3  34154  289.48 0855.26
2009/04/23 10:39:44.2     -48   -176     45    183    189 195.4  13.9  34152  289.43 0855.26
2009/04/23 10:39:44.3      15   -171     69    172    185 174.7  23.0  34158  289.53 0855.26
2009/04/23 10:39:44.4       8   -138     79    139    159 176.4  32.1  34160  289.58 0855.26
2009/04/23 10:39:44.5     -20   -187     67    189    200 186.2  20.2  34156  289.50 0855.26
2009/04/23 10:39:44.6     -11   -178     17    179    180 183.8   5.7  34156  289.52 0855.26
2009/04/23 10:39:44.7      -2   -163     69    164    177 180.7  23.8  34152  289.43 0855.26
2009/04/23 10:39:44.8      10   -138     99    139    170 175.6  39.1  34160  289.57 0855.26
2009/04/23 10:39:44.9     -17   -127     97    129    161 188.0  40.9  34158  289.55 0855.26
2009/04/23 10:39:45.0      17   -143     92    145    171 172.9  35.5  34158  289.53 0855.26
2009/04/23 10:39:45.1      17   -161     64    162    174 173.8  22.5  34156  289.52 0855.26
2009/04/23 10:39:45.2      -4   -177     20    178    180 181.4   6.7  34152  289.43 0855.26
2009/04/23 10:39:45.3     -33   -183     11    186    187 190.2   3.6  34152  289.45 0855.26
2009/04/23 10:39:45.4     -10   -136     87    137    162 184.5  35.5  34154  289.48 0855.26
2009/04/23 10:39:45.5      30   -153    106    156    188 168.9  37.6  34154  289.48 0855.26
2009/04/23 10:39:45.6      46   -144     91    152    177 162.2  33.7  34156  289.50 0855.26
2009/04/23 10:39:45.7      35   -126    115    131    174 164.4  45.8  34144  289.31 0855.26
2009/04/23 10:39:45.8      56   -162    127    172    213 160.8  39.9  34138  289.21 0855.26
2009/04/23 10:39:45.9      79   -145    136    166    214 151.3  43.7  34144  289.30 0855.26
2009/04/23 10:39:46.0     115   -150    144    190    238 142.4  40.9  34140  289.23 0855.26
2009/04/23 10:39:46.1     120   -112    109    165    197 132.9  36.7  34144  289.30 0855.26
2009/04/23 10:39:46.2     104   -110    125    152    196 136.8  43.7  34144  289.31 0855.26
2009/04/23 10:39:46.3     122   -167    136    207    247 143.9  36.5  34138  289.20 0855.26
2009/04/23 10:39:46.4     109   -166    105    199    225 146.6  30.1  34134  289.14 0855.26
2009/04/23 10:39:46.5      66   -139    135    154    204 154.6  45.8  34142  289.28 0855.26
2009/04/23 10:39:46.6      86   -151    141    174    223 150.4  43.5  34138  289.19 0855.26
2009/04/23 10:39:46.7      25   -184    127    186    225 172.0  37.6  34138  289.21 0855.26
2009/04/23 10:39:46.8      11   -143    148    144    206 175.5  50.7  34138  289.19 0855.26
2009/04/23 10:39:46.9     -33   -196    151    199    249 189.6  41.2  34130  289.07 0855.26
2009/04/23 10:39:47.0     -50   -196    141    203    247 194.3  38.4  34128  289.02 0855.26
2009/04/23 10:39:47.1     -33   -195    180    198    267 189.6  47.1  34132  289.09 0855.26
2009/04/23 10:39:47.2      52   -231    150    237    280 167.1  35.5  34130  289.07 0855.26
2009/04/23 10:39:47.3     -15   -235    179    236    296 183.8  40.9  34128  289.03 0855.26
2009/04/23 10:39:47.4      26   -351    162    352    387 175.6  26.6  34126  288.99 0855.26
2009/04/23 10:39:47.5      29   -285    161    287    329 174.0  31.9  34126  289.00 0855.26
2009/04/23 10:39:47.6     100   -245    191    265    326 157.7  39.3  34132  289.09 0855.26
2009/04/23 10:39:47.7      72   -260    133    270    300 164.4  28.2  34126  289.00 0855.28
2009/04/23 10:39:47.8      36   -225    103    228    250 170.9  26.2  34130  289.07 0855.28
2009/04/23 10:39:47.9      -6   -268    218    269    346 181.4  43.3  34132  289.10 0855.28
2009/04/23 10:39:48.0     -43   -316    212    319    383 187.8  36.7  34126  288.98 0855.28
2009/04/23 10:39:48.1       0   -257    -36    258    261 180.0  -8.0  34126  288.98 0855.28
2009/04/23 10:39:48.2    -110   -226     18    252    253 205.9   4.2  34124  288.95 0855.28
2009/04/23 10:39:48.3    -127   -200     -1    238    239 212.5  -0.3  34128  289.03 0855.28
2009/04/23 10:39:48.4      -7   -179    -23    180    182 182.5  -7.5  34124  288.97 0855.28
2009/04/23 10:39:48.5     120   -129     92    177    199 137.2  29.5  34126  289.01 0855.28
2009/04/23 10:39:48.6     221   -112    138    248    283 116.9  31.4  34138  289.19 0855.28
2009/04/23 10:39:48.7     123   -225     52    257    263 151.3  11.6  34130  289.07 0855.28
2009/04/23 10:39:48.8     121   -229     91    260    275 152.1  20.0  34130  289.05 0855.28
2009/04/23 10:39:48.9       8   -285    116    286    308 178.2  23.1  34134  289.12 0855.28
2009/04/23 10:39:49.0     -84   -266     13    280    281 197.6   2.8  34128  289.03 0855.28
2009/04/23 10:39:49.1    -134   -357     50    382    386 200.6   7.6  34136  289.18 0855.28
2009/04/23 10:39:49.2    -183   -336     35    383    385 208.6   5.3  34160  289.57 0855.28
2009/04/23 10:39:49.3    -189   -295     66    351    358 212.8  10.7  34146  289.35 0855.28
2009/04/23 10:39:49.4    -143   -199     82    246    260 215.8  18.6  34142  289.27 0855.28
2009/04/23 10:39:49.5    -122   -161     57    203    211 217.2  15.8  34150  289.41 0855.28
2009/04/23 10:39:49.6    -128    -58     38    141    147 245.6  15.3  34146  289.35 0855.28
2009/04/23 10:39:49.7      11    -20     76     23     79 151.0  82.8  34150  289.40 0855.28
2009/04/23 10:39:49.8      11     -7    161     14    161 122.4  90.0  34152  289.43 0855.28
2009/04/23 10:39:49.9    -173    -35     62    177    188 258.5  19.4  34142  289.26 0855.28
2009/04/23 10:39:50.0      21   -114    112    117    161 169.3  49.0  34144  289.30 0855.28
2009/04/23 10:39:50.1      68    -37    110     78    134 118.9  61.5  34154  289.46 0855.28
2009/04/23 10:39:50.2      69     57    217     90    234  50.5  76.1  34162  289.60 0855.28
2009/04/23 10:39:50.3      37     12    205     39    208  71.8  89.8  34176  289.85 0855.28
2009/04/23 10:39:50.4      23    -15    104     28    107 122.5  84.9  34162  289.62 0855.28
2009/04/23 10:39:50.5       7   -145    148    146    207 176.9  50.1  34138  289.19 0855.28
2009/04/23 10:39:50.6     -14   -140    108    141    177 185.8  41.4  34140  289.23 0855.28
2009/04/23 10:39:50.7       5   -168    102    169    197 178.2  33.7  34140  289.24 0855.28
2009/04/23 10:39:50.8    -173   -274    -34    325    327 212.3  -6.0  34140  289.24 0855.28
2009/04/23 10:39:50.9    -160   -287     57    329    335 209.2   9.9  34142  289.26 0855.28
2009/04/23 10:39:51.0    -123   -258      8    286    287 205.5   1.8  34144  289.31 0855.28
2009/04/23 10:39:51.1     -99   -172     55    199    207 209.9  15.6  34140  289.24 0855.28
2009/04/23 10:39:51.2    -128   -100     57    163    173 232.2  19.4  34148  289.38 0855.28
2009/04/23 10:39:51.3      -9    -67   -119     68    137 188.1 -72.7  34148  289.38 0855.28
2009/04/23 10:39:51.4     -53    -80     21     97    100 213.8  12.6  34142  289.26 0855.28
2009/04/23 10:39:51.5    -129    -42     81    136    158 251.8  33.5  34150  289.40 0855.28
2009/04/23 10:39:51.6     -23     15     70     28     75 302.5  77.1  34152  289.43 0855.28
2009/04/23 10:39:51.7    -165   -119     36    204    208 234.0  10.1  34140  289.23 0855.30
2009/04/23 10:39:51.8    -184    -79    135    201    242 246.7  37.0  34138  289.21 0855.30
2009/04/23 10:39:51.9    -201    -90     68    221    232 245.8  17.3  34134  289.14 0855.30
2009/04/23 10:39:52.0    -259    -38     87    262    277 261.6  18.4  34142  289.27 0855.30
2009/04/23 10:39:52.1    -257   -153    194    300    357 239.3  36.0  34150  289.40 0855.30
2009/04/23 10:39:52.2    -358   -188    -44    405    408 242.2  -6.2  34142  289.26 0855.30
2009/04/23 10:39:52.3    -277   -170    -51    326    331 238.5  -8.9  34154  289.47 0855.30
2009/04/23 10:39:52.4    -225   -186     40    293    296 230.4   7.8  34162  289.61 0855.30
2009/04/23 10:39:52.5    -303    -55     26    309    311 259.6   4.9  34168  289.71 0855.30
2009/04/23 10:39:52.6    -310     -4    -45    311    315 269.2  -8.4  34160  289.58 0855.30
2009/04/23 10:39:52.7    -304   -186    -56    357    362 238.5  -9.0  34138  289.20 0855.30
2009/04/23 10:39:52.8    -303   -251   -125    394    414 230.4 -17.6  34130  289.07 0855.30
2009/04/23 10:39:52.9    -225   -245   -111    333    351 222.5 -23.6  34124  288.96 0855.30
2009/04/23 10:39:53.0    -349   -253   -114    432    447 234.1 -14.8  34114  288.78 0855.30
2009/04/23 10:39:53.1    -415   -184    -60    455    459 246.0  -7.6  34156  289.51 0855.30
2009/04/23 10:39:53.2    -413   -153    -37    441    443 249.6  -4.9  34146  289.34 0855.30
2009/04/23 10:39:53.3    -403    -74   -100    410    423 259.5 -13.8  34146  289.34 0855.30
2009/04/23 10:39:53.4    -208    -55     83    216    231 255.2  22.0  34164  289.63 0855.30
2009/04/23 10:39:53.5    -261    -32    -79    264    276 262.9 -16.8  34154  289.47 0855.30
2009/04/23 10:39:53.6    -257    -69    -10    267    268 254.9  -2.2  34166  289.68 0855.30
2009/04/23 10:39:53.7    -240    -89     33    257    260 249.6   7.5  34170  289.75 0855.32
2009/04/23 10:39:53.8    -328   -143    -26    359    360 246.4  -4.2  34172  289.79 0855.32
2009/04/23 10:39:53.9    -214   -171    -15    275    276 231.4  -3.1  34154  289.47 0855.32
2009/04/23 10:39:54.0    -176   -124     68    216    227 234.9  17.7  34136  289.18 0855.32
2009/04/23 10:39:54.1    -119   -188     77    223    237 212.5  19.2  34156  289.50 0855.32
2009/04/23 10:39:54.2    -118   -202    112    235    260 210.3  27.2  34166  289.68 0855.32
2009/04/23 10:39:54.3     -60   -190    150    200    250 197.6  40.7  34162  289.61 0855.32
2009/04/23 10:39:54.4      19   -199    122    200    234 174.4  34.8  34152  289.45 0855.32
2009/04/23 10:39:54.5      21   -154     81    156    175 171.9  29.5  34148  289.38 0855.32
2009/04/23 10:39:54.6    -130   -195     50    235    241 213.6  12.2  34126  288.98 0855.32
2009/04/23 10:39:54.7    -146   -171     11    225    226 220.5   2.8  34134  289.13 0855.32
2009/04/23 10:39:54.8    -111   -162     18    197    198 214.5   5.4  34132  289.11 0855.32
2009/04/23 10:39:54.9    -152   -143    -26    209    211 226.7  -7.2  34130  289.08 0855.32
2009/04/23 10:39:55.0     -79   -211     84    226    241 200.5  21.3  34130  289.07 0855.32
2009/04/23 10:39:55.1     -31   -180     92    183    204 190.0  28.7  34132  289.11 0855.32
2009/04/23 10:39:55.2       6   -204     64    205    215 178.2  17.4  34134  289.13 0855.32
2009/04/23 10:39:55.3     -65   -226     83    236    250 196.0  20.0  34134  289.14 0855.32
2009/04/23 10:39:55.4     -50   -224     84    230    244 192.7  20.9  34132  289.09 0855.32
2009/04/23 10:39:55.5     -87   -314     16    327    328 195.6   2.9  34130  289.07 0855.32
2009/04/23 10:39:55.6     -61   -273     19    280    281 192.7   3.9  34126  289.00 0855.32
2009/04/23 10:39:55.7     -97   -234     96    254    271 202.5  21.7  34128  289.03 0855.32
2009/04/23 10:39:55.8     -32   -229    183    232    295 188.0  42.4  34132  289.10 0855.32
2009/04/23 10:39:55.9     -41   -222    163    226    278 190.5  39.5  34136  289.17 0855.32
2009/04/23 10:39:56.0     -47   -207    157    213    264 192.9  40.1  34134  289.12 0855.32
2009/04/23 10:39:56.1     -45   -185    195    191    272 193.8  50.4  34130  289.07 0855.32
2009/04/23 10:39:56.2      -8   -229    181    230    292 182.2  42.2  34130  289.07 0855.32
2009/04/23 10:39:56.3     -21   -276    172    277    326 184.4  34.9  34132  289.09 0855.32
2009/04/23 10:39:56.4      18   -169    210    171    270 173.8  56.4  34138  289.20 0855.32
2009/04/23 10:39:56.5      59   -228    233    236    331 165.5  49.9  34140  289.22 0855.32
2009/04/23 10:39:56.6     157   -163    274    227    355 135.9  56.3  34146  289.34 0855.32
2009/04/23 10:39:56.7     -13    -58    156     60    167 193.4  78.2  34144  289.31 0855.32
2009/04/23 10:39:56.8     -54   -226    149    233    276 193.6  35.6  34134  289.12 0855.32
2009/04/23 10:39:56.9     -98   -307    117    323    343 197.8  20.8  34138  289.20 0855.32
2009/04/23 10:39:57.0     -78   -319    170    329    370 193.8  29.4  34142  289.28 0855.32
2009/04/23 10:39:57.1     -37   -267    136    270    302 188.0  28.7  34140  289.22 0855.32
2009/04/23 10:39:57.2     -28   -255    100    257    275 186.5  22.5  34138  289.20 0855.32
2009/04/23 10:39:57.3      49   -317    219    321    388 171.1  37.6  34136  289.15 0855.32
2009/04/23 10:39:57.4      62   -334    224    340    407 169.4  36.5  34134  289.13 0855.32
2009/04/23 10:39:57.5     134   -281    235    312    390 154.5  40.7  34136  289.15 0855.32
2009/04/23 10:39:57.6     104   -365    148    380    407 164.1  22.3  34132  289.10 0855.32
2009/04/23 10:39:57.7     -23   -248    167    250    300 185.3  36.7  34134  289.14 0855.31
2009/04/23 10:39:57.8     -43   -229    135    234    270 190.7  32.4  34134  289.14 0855.31
2009/04/23 10:39:57.9     -25   -361    168    362    399 184.1  26.6  34140  289.23 0855.31
2009/04/23 10:39:58.0     -33   -327     96    329    343 185.8  16.3  34138  289.20 0855.31
2009/04/23 10:39:58.1      13   -239    155    240    285 176.9  35.6  34126  289.00 0855.31
2009/04/23 10:39:58.2     -17   -202    150    203    252 185.1  40.1  34138  289.19 0855.31
2009/04/23 10:39:58.3     -59   -206    140    215    256 196.0  36.0  34140  289.24 0855.31
2009/04/23 10:39:58.4     -70   -175     94    189    211 201.8  28.2  34140  289.24 0855.31
2009/04/23 10:39:58.5     -39   -192    120    197    230 191.6  34.4  34140  289.23 0855.31
2009/04/23 10:39:58.6     -48   -220     90    226    243 192.5  22.8  34140  289.24 0855.31
2009/04/23 10:39:58.7     -57   -302    109    308    326 190.7  20.1  34138  289.19 0855.31
2009/04/23 10:39:58.8    -270   -415     13    496    497 213.1   1.6  34142  289.25 0855.31
2009/04/23 10:39:58.9     -72   -486     93    492    501 188.5  10.7  34140  289.23 0855.31
2009/04/23 10:39:59.0     -48   -429    134    432    453 186.5  17.3  34136  289.16 0855.31
2009/04/23 10:39:59.1      79   -382    128    391    412 168.3  18.2  34130  289.05 0855.31
2009/04/23 10:39:59.2     143   -598    -22    616    617 166.5  -2.1  34132  289.11 0855.31
2009/04/23 10:39:59.3     141   -612     31    629    630 167.0   2.9  34118  288.86 0855.31
2009/04/23 10:39:59.4     308   -489    -32    578    579 147.8  -3.2  34114  288.80 0855.31
2009/04/23 10:39:59.5     279   -469     31    546    547 149.3   3.3  34106  288.67 0855.31
2009/04/23 10:39:59.6     282   -374     20    469    470 143.0   2.5  34114  288.79 0855.31
2009/04/23 10:39:59.7     216   -350    -53    412    416 148.4  -7.4  34122  288.94 0855.29
2009/04/23 10:39:59.8     130   -320     -6    346    347 157.8  -1.1  34128  289.04 0855.29
2009/04/23 10:39:59.9     -31   -356    -70    358    365 185.0 -11.1  34130  289.08 0855.29
2009/04/23 10:40:00.0       0   -328    -29    329    331 180.1  -5.2  34130  289.06 0855.29
2009/04/23 10:40:00.1      15   -386     79    387    396 177.7  11.6  34136  289.15 0855.29
2009/04/23 10:40:00.2      19   -333     18    334    335 176.6   3.1  34138  289.20 0855.29
2009/04/23 10:40:00.3       0   -305     30    306    308 180.0   5.7  34142  289.27 0855.29
2009/04/23 10:40:00.4      37   -300     43    303    307 172.9   8.2  34144  289.31 0855.29
2009/04/23 10:40:00.5      68   -275     35    284    287 166.0   7.1  34140  289.22 0855.29
2009/04/23 10:40:00.6     103   -244     15    266    267 157.1   3.3  34138  289.19 0855.29
2009/04/23 10:40:00.7     115   -242     20    269    270 154.5   4.4  34134  289.12 0855.29
2009/04/23 10:40:00.8     107   -274      4    295    296 158.6   0.8  34140  289.22 0855.29
2009/04/23 10:40:00.9      80   -299     74    310    319 164.9  13.5  34138  289.19 0855.29
2009/04/23 10:40:01.0      28   -301     59    303    309 174.6  11.1  34138  289.20 0855.29
2009/04/23 10:40:01.1      47   -342    106    346    362 172.1  17.0  34130  289.06 0855.29
2009/04/23 10:40:01.2      68   -319    177    327    371 168.0  30.9  34126  289.01 0855.29
2009/04/23 10:40:01.3     110   -256    146    279    314 156.6  29.8  34134  289.12 0855.29
2009/04/23 10:40:01.4     173   -213    124    275    301 141.0  25.9  34126  288.98 0855.29
2009/04/23 10:40:01.5      54   -243    213    250    328 167.3  44.7  34132  289.09 0855.29
2009/04/23 10:40:01.6      21   -339    126    340    362 176.4  21.3  34146  289.35 0855.29
2009/04/23 10:40:01.7     -31   -321     84    323    334 185.6  14.6  34150  289.40 0855.28
2009/04/23 10:40:01.8     -13   -291     97    292    308 182.6  18.4  34150  289.39 0855.28
2009/04/23 10:40:01.9     -31   -264     78    266    278 186.7  16.3  34154  289.47 0855.28
2009/04/23 10:40:02.0     -68   -232    182    242    302 196.5  40.7  34152  289.42 0855.28
2009/04/23 10:40:02.1     -36   -262    180    265    320 188.0  37.4  34154  289.46 0855.28
2009/04/23 10:40:02.2      -8   -242    140    243    280 182.0  32.7  34152  289.42 0855.28
2009/04/23 10:40:02.3     -24   -229    105    231    253 186.2  26.2  34148  289.37 0855.28
2009/04/23 10:40:02.4     -33   -267     96    270    287 187.1  19.6  34146  289.32 0855.28
2009/04/23 10:40:02.5      14   -199     77    200    214 176.0  21.7  34146  289.35 0855.28
2009/04/23 10:40:02.6     -33   -209     96    212    232 189.1  26.2  34134  289.13 0855.28
2009/04/23 10:40:02.7    -114   -193    115    225    252 210.5  29.3  34130  289.07 0855.25
2009/04/23 10:40:02.8    -141   -205     63    249    257 214.5  14.3  34134  289.14 0855.25
2009/04/23 10:40:02.9    -176   -233    134    293    322 217.0  26.3  34136  289.17 0855.25
2009/04/23 10:40:03.0    -153   -163     67    224    234 223.2  16.8  34144  289.31 0855.25
2009/04/23 10:40:03.1    -189   -130     58    230    238 235.4  14.2  34148  289.37 0855.25
2009/04/23 10:40:03.2    -109   -272     57    294    300 201.9  11.1  34132  289.10 0855.25
2009/04/23 10:40:03.3     -82   -237    110    252    274 199.2  25.1  34138  289.19 0855.25
2009/04/23 10:40:03.4    -101   -247    137    268    300 202.3  29.2  34142  289.27 0855.25
2009/04/23 10:40:03.5     -75   -227     95    240    258 198.3  23.0  34134  289.14 0855.25
2009/04/23 10:40:03.6    -120   -208    123    241    270 209.9  29.2  34136  289.17 0855.25
2009/04/23 10:40:03.7    -143   -247      4    286    287 210.1   0.8  34136  289.17 0855.25
2009/04/23 10:40:03.8     -41   -291     48    294    298 188.1   9.3  34138  289.19 0855.25
2009/04/23 10:40:03.9      16   -333     -1    334    335 177.1  -0.2  34136  289.16 0855.25
2009/04/23 10:40:04.0       8   -343     78    344    353 178.5  12.8  34138  289.21 0855.25
2009/04/23 10:40:04.1       2   -239    -13    240    241 179.3  -3.1  34134  289.12 0855.25
2009/04/23 10:40:04.2    -162   -105    -15    194    195 236.9  -4.6  34136  289.18 0855.25
2009/04/23 10:40:04.3    -158    -69    -32    173    176 246.3 -10.5  34138  289.21 0855.25
2009/04/23 10:40:04.4    -158   -139    106    211    236 228.7  28.5  34140  289.23 0855.25
2009/04/23 10:40:04.5    -225   -106    104    249    269 244.7  24.1  34140  289.24 0855.25
2009/04/23 10:40:04.6      21    -50    113     55    125 157.3  72.4  34142  289.26 0855.25
2009/04/23 10:40:04.7      90   -180    162    202    258 153.3  42.8  34140  289.22 0855.22
2009/04/23 10:40:04.8      80   -167    137    186    231 154.5  39.9  34134  289.14 0855.22
2009/04/23 10:40:04.9      14   -218    187    219    287 176.2  44.8  34130  289.07 0855.22
2009/04/23 10:40:05.0      18   -238    229    239    331 175.6  48.7  34124  288.95 0855.22
2009/04/23 10:40:05.1     -19   -224    233    225    323 185.1  51.1  34128  289.02 0855.22
2009/04/23 10:40:05.2     -45   -172    198    178    266 194.9  53.3  34130  289.07 0855.22
2009/04/23 10:40:05.3    -108   -208    196    235    306 207.4  43.8  34128  289.03 0855.22
2009/04/23 10:40:05.4     -72   -156    175    173    246 204.9  50.2  34130  289.08 0855.22
2009/04/23 10:40:05.5     -76   -181    207    197    285 202.9  51.6  34130  289.07 0855.22
2009/04/23 10:40:05.6    -118   -207    175    239    296 209.6  39.7  34132  289.09 0855.22
2009/04/23 10:40:05.7    -154   -221    150    270    308 215.0  31.4  34126  288.98 0855.22
2009/04/23 10:40:05.8    -121   -118    107    170    200 225.6  35.2  34126  288.99 0855.22
2009/04/23 10:40:05.9    -133    -73    103    152    183 241.2  37.3  34132  289.11 0855.22
2009/04/23 10:40:06.0     -85   -285    197    298    357 196.7  36.6  34128  289.04 0855.22
2009/04/23 10:40:06.1    -120   -233    163    263    309 207.2  35.2  34130  289.07 0855.22
2009/04/23 10:40:06.2    -127   -170    206    213    296 216.7  49.0  34132  289.10 0855.22
2009/04/23 10:40:06.3      -9    -72    173     73    187 187.1  76.1  34150  289.40 0855.22
2009/04/23 10:40:06.4      -8    -22    152     24    153 200.0  90.0  34150  289.41 0855.22
2009/04/23 10:40:06.5     -15     31     68     35     76 332.8  70.8  34154  289.46 0855.22
2009/04/23 10:40:06.6     -32     47     76     58     95 325.7  58.5  34150  289.41 0855.22
2009/04/23 10:40:06.7     -94    -36    101    101    142 248.7  50.1  34136  289.16 0855.22
2009/04/23 10:40:06.8    -145     55    137    156    207 290.8  45.8  34136  289.18 0855.22
2009/04/23 10:40:06.9    -309    154     63    346    352 296.6  10.3  34156  289.50 0855.22
2009/04/23 10:40:07.0    -261     44    108    265    286 279.7  23.4  34146  289.32 0855.22
2009/04/23 10:40:07.1    -302     96    -53    317    322 287.7  -9.6  34168  289.70 0855.22
2009/04/23 10:40:07.2    -267    139     15    301    302 297.5   2.9  34188  290.05 0855.22
2009/04/23 10:40:07.3    -174    104   -199    203    284 300.9 -54.2  34166  289.68 0855.22
2009/04/23 10:40:07.4    -128    178    -98    220    240 324.4 -30.1  34178  289.86 0855.22
2009/04/23 10:40:07.5     -85    170     56    191    200 333.3  16.3  34166  289.69 0855.22
2009/04/23 10:40:07.6     -74    131     52    151    160 330.6  19.2  34156  289.50 0855.22
2009/04/23 10:40:07.7      12    102      5    103    104   7.1   3.3  34140  289.24 0855.22
2009/04/23 10:40:07.8      21    102     18    105    107  11.6  10.1  34144  289.31 0855.22
2009/04/23 10:40:07.9      16     72     -9     74     75  12.5  -7.3  34150  289.41 0855.22
2009/04/23 10:40:08.0      47     36      8     60     61  52.2   8.0  34154  289.46 0855.22
2009/04/23 10:40:08.1      11    -50     53     52     74 167.5  49.1  34154  289.46 0855.22
2009/04/23 10:40:08.2      10      0     93     11     93  85.6  90.0  34154  289.48 0855.22
2009/04/23 10:40:08.3      43      0    121     44    128  90.0  79.2  34158  289.55 0855.22
2009/04/23 10:40:08.4      99      9    110    100    148  84.3  52.2  34144  289.30 0855.22
2009/04/23 10:40:08.5     -10     32    108     34    113 341.5  81.2  34156  289.50 0855.22
2009/04/23 10:40:08.6     147     70    163    163    230  64.5  50.1  34230  290.77 0855.22
2009/04/23 10:40:08.8     173     63    192    185    266  69.8  51.2  34240  290.92 0855.22
2009/04/23 10:40:08.9     152     51    156    161    224  71.4  49.4  34244  290.99 0855.22
2009/04/23 10:40:09.0      86    -54    106    102    147 122.4  51.2  34230  290.77 0855.22
2009/04/23 10:40:09.1      70     14    161     72    176  78.5  74.5  34266  291.37 0855.22
2009/04/23 10:40:09.2     125    -26    145    128    193 101.9  54.0  34242  290.98 0855.22
2009/04/23 10:40:09.3      92    -41     92    101    136 114.0  47.5  34240  290.92 0855.22
2009/04/23 10:40:09.4      12     16    131     21    132  36.1  90.0  34266  291.37 0855.22
2009/04/23 10:40:09.5     -36     15     78     40     87 292.6  70.8  34240  290.92 0855.22
2009/04/23 10:40:09.6    -121      9     65    122    138 274.3  30.8  34212  290.47 0855.22
2009/04/23 10:40:09.7     -56      0     61     57     83 270.0  51.6  34214  290.48 0855.22
2009/04/23 10:40:09.8    -129    -49     16    139    141 249.2   6.9  34186  290.01 0855.22
2009/04/23 10:40:09.9     -97    -57    -27    113    117 239.3 -13.4  34190  290.08 0855.22
2009/04/23 10:40:10.0     -65    -74     34     99    105 221.4  18.9  34190  290.09 0855.22
2009/04/23 10:40:10.1    -106    -37      8    113    114 250.5   4.4  34180  289.92 0855.22
2009/04/23 10:40:10.2    -173     -3      0    174    175 269.0   0.0  34168  289.72 0855.22
2009/04/23 10:40:10.3    -245     41    -17    249    250 279.7  -4.1  34180  289.92 0855.22
2009/04/23 10:40:10.4    -206    140     -9    250    251 304.2  -2.1  34180  289.90 0855.22
2009/04/23 10:40:10.5    -160    227    -23    279    281 324.8  -4.9  34178  289.88 0855.22
2009/04/23 10:40:10.6    -165    201     37    261    264 320.6   8.2  34178  289.88 0855.22
2009/04/23 10:40:10.7    -191    210     35    284    287 317.7   7.1  34174  289.81 0855.22
2009/04/23 10:40:10.8    -252    189    -36    315    318 306.9  -6.6  34196  290.17 0855.22
2009/04/23 10:40:10.9    -258    203    -62    329    335 308.2 -10.8  34156  289.50 0855.22
2009/04/23 10:40:11.0    -246    330    -11    412    413 323.3  -1.6  34200  290.26 0855.22
2009/04/23 10:40:11.1    -191    251    -12    316    317 322.8  -2.2  34184  289.98 0855.22
2009/04/23 10:40:11.2    -165    284     12    329    330 329.9   2.2  34218  290.55 0855.22
2009/04/23 10:40:11.3    -116    290     11    313    314 338.1   2.1  34234  290.83 0855.22
2009/04/23 10:40:11.4    -148    200    -37    250    253 323.5  -8.6  34198  290.22 0855.22
2009/04/23 10:40:11.5       1    151     77    152    170   0.5  28.7  34190  290.08 0855.22
2009/04/23 10:40:11.6     -29    102    135    107    172 344.0  57.5  34162  289.62 0855.22
2009/04/23 10:40:11.7      43     58     98     73    122  36.1  59.4  34172  289.79 0855.22
2009/04/23 10:40:11.8     -58     15    116     61    131 285.0  70.8  34184  289.99 0855.22
2009/04/23 10:40:11.9    -128    138     98    189    212 317.2  29.3  34184  289.97 0855.22
2009/04/23 10:40:12.0      -9     49     84     50     97 349.3  65.7  34184  289.99 0855.22
2009/04/23 10:40:12.1    -127   -229     14    263    264 209.0   3.1  34172  289.76 0855.22
2009/04/23 10:40:12.2    -150   -210    -18    259    260 215.6  -4.1  34172  289.76 0855.22
2009/04/23 10:40:12.3    -198   -224     58    299    305 221.5  11.1  34194  290.14 0855.22
2009/04/23 10:40:12.4    -172   -189      4    256    257 222.3   1.0  34196  290.17 0855.22
2009/04/23 10:40:12.5    -144   -197     43    245    249 216.1  10.1  34176  289.85 0855.22
2009/04/23 10:40:12.6     -79   -183     73    200    212 203.4  20.7  34178  289.89 0855.22
2009/04/23 10:40:12.7    -223   -167     32    279    281 233.1   6.7  34204  290.32 0855.22
2009/04/23 10:40:12.8    -195    -88     28    215    217 245.6   7.5  34230  290.75 0855.22
2009/04/23 10:40:12.9    -192    -60     59    202    211 252.5  16.3  34222  290.62 0855.22
2009/04/23 10:40:13.0    -184    -69      9    197    198 249.4   2.8  34198  290.23 0855.22
2009/04/23 10:40:13.1    -163    -54    -31    172    175 251.6 -10.3  34182  289.96 0855.22
2009/04/23 10:40:13.2    -169    -30    -47    172    179 259.6 -15.5  34190  290.08 0855.22
2009/04/23 10:40:13.3     -93   -120     26    153    156 217.9   9.9  34188  290.06 0855.22
2009/04/23 10:40:13.4     -36    -90     23     97    100 201.8  13.7  34176  289.84 0855.22
2009/04/23 10:40:13.5      -3    -48     65     49     81 184.5  59.0  34178  289.87 0855.22
2009/04/23 10:40:13.6      74     -7     76     75    106  96.1  49.7  34168  289.70 0855.22
2009/04/23 10:40:13.7     117    -48     75    127    147 112.6  33.5  34166  289.67 0855.22
2009/04/23 10:40:13.8      46   -126     59    135    147 160.0  25.1  34156  289.50 0855.22
2009/04/23 10:40:13.9     120   -158     91    199    218 142.8  26.4  34158  289.55 0855.22
2009/04/23 10:40:14.0     131   -285     69    314    322 155.3  12.5  34138  289.20 0855.22
2009/04/23 10:40:14.1     190   -289     30    347    349 146.6   5.1  34130  289.08 0855.22
2009/04/23 10:40:14.2     346   -391    266    523    586 138.5  29.2  34106  288.65 0855.22
2009/04/23 10:40:14.3     500   -500    264    708    755 135.0  21.4  34112  288.77 0855.22
2009/04/23 10:40:14.4     468   -469    208    663    695 135.1  17.4  34118  288.85 0855.22
2009/04/23 10:40:14.5     480   -509    170    700    721 136.7  13.7  34116  288.83 0855.22
2009/04/23 10:40:14.6     407   -478    168    628    651 139.6  15.0  34108  288.69 0855.22
2009/04/23 10:40:14.7     365   -427     46    563    565 139.5   4.7  34114  288.79 0855.22
2009/04/23 10:40:14.8     306   -422     48    522    525 144.0   5.3  34118  288.87 0855.22
2009/04/23 10:40:14.9     240   -364    -41    437    440 146.6  -5.4  34124  288.97 0855.22
2009/04/23 10:40:15.0      38   -349     71    352    360 173.8  11.4  34136  289.16 0855.22
2009/04/23 10:40:15.1     157   -373    228    405    464 157.2  31.7  34134  289.12 0855.22
2009/04/23 10:40:15.2      62   -381    111    387    403 170.7  16.0  34126  289.01 0855.22
2009/04/23 10:40:15.3     201   -456    -16    499    500 156.2  -1.9  34130  289.08 0855.22
2009/04/23 10:40:15.4     145   -502    -95    523    532 163.9 -10.4  34124  288.97 0855.22
2009/04/23 10:40:15.5     210   -441     -2    489    490 154.5  -0.3  34126  289.00 0855.22
2009/04/23 10:40:15.6     136   -426    -89    448    457 162.3 -11.3  34130  289.07 0855.22
2009/04/23 10:40:15.7      76   -499    -86    505    513 171.3  -9.7  34136  289.18 0855.22
2009/04/23 10:40:15.8     137   -469   -166    489    517 163.7 -18.8  34130  289.08 0855.22
2009/04/23 10:40:15.9     262   -506     58    570    573 152.6   5.9  34128  289.02 0855.22
2009/04/23 10:40:16.0     184   -521     48    553    556 160.5   5.0  34124  288.96 0855.22
2009/04/23 10:40:16.1     220   -578     30    619    620 159.1   2.8  34128  289.04 0855.22
2009/04/23 10:40:16.2     245   -491    -84    549    556 153.5  -8.7  34126  288.99 0855.22
2009/04/23 10:40:16.3     218   -397    -17    454    455 151.2  -2.2  34120  288.90 0855.22
2009/04/23 10:40:16.4     183   -539    -62    570    574 161.2  -6.2  34126  288.98 0855.22
2009/04/23 10:40:16.5     147   -535   -164    556    579 164.6 -21.2  34128  289.02 0855.22
2009/04/23 10:40:16.6     278   -630     87    689    695 156.2   7.2  34120  288.90 0855.22
2009/04/23 10:40:16.7     354   -599    -81    697    702 149.4  -6.7  34120  288.89 0855.22
2009/04/23 10:40:16.8     349   -572      9    671    672 148.6   0.8  34120  288.90 0855.22
2009/04/23 10:40:16.9     232   -608     77    651    656 159.1   6.8  34118  288.86 0855.22
2009/04/23 10:40:17.0     183   -502     80    535    542 160.0   8.6  34118  288.85 0855.22
2009/04/23 10:40:17.1     139   -373     61    399    404 159.6   8.7  34120  288.91 0855.22
2009/04/23 10:40:17.2      81   -352    139    362    387 167.0  22.0  34120  288.89 0855.22
2009/04/23 10:40:17.3       9   -333    225    334    402 178.3  37.3  34128  289.03 0855.22
2009/04/23 10:40:17.4       0   -310    218    311    379 180.0  38.5  34126  288.98 0855.22
2009/04/23 10:40:17.5     108   -310    222    329    396 160.8  37.3  34128  289.04 0855.22
2009/04/23 10:40:17.6     141   -322    138    352    378 156.3  22.7  34136  289.18 0855.22
2009/04/23 10:40:17.7     172   -431    305    465    556 158.2  36.5  34124  288.96 0855.22
2009/04/23 10:40:17.8     181   -385    172    426    459 154.8  23.1  34128  289.04 0855.22
2009/04/23 10:40:17.9     299   -440     84    533    540 145.8   9.0  34134  289.14 0855.22
2009/04/23 10:40:18.0     335   -492    107    596    606 145.7  10.2  34116  288.83 0855.22
2009/04/23 10:40:18.1     258   -406    170    482    511 147.5  20.3  34116  288.83 0855.22
2009/04/23 10:40:18.2     217   -422    -96    475    485 152.7 -11.5  34130  289.08 0855.22
2009/04/23 10:40:18.3     211   -381    -98    436    447 151.0 -12.7  34128  289.02 0855.22
2009/04/23 10:40:18.4     281   -356    -18    454    455 141.7  -2.3  34124  288.95 0855.22
2009/04/23 10:40:18.5     379   -312    -53    492    495 129.5  -6.2  34116  288.84 0855.22
2009/04/23 10:40:18.6     298   -318    -87    436    445 136.9 -11.3  34116  288.82 0855.22
2009/04/23 10:40:18.7     219   -333     -8    399    400 146.7  -1.3  34124  288.96 0855.22
2009/04/23 10:40:18.8     185   -317    -32    368    370 149.7  -5.1  34126  288.99 0855.20
2009/04/23 10:40:18.9     216   -393    122    449    466 151.2  15.2  34128  289.04 0855.20
2009/04/23 10:40:19.0     253   -358    194    439    479 144.7  25.6  34130  289.06 0855.20
2009/04/23 10:40:19.1     292   -127     90    319    332 113.5  15.9  34126  289.00 0855.20
2009/04/23 10:40:19.2     236   -121     22    266    268 117.1   4.9  34132  289.10 0855.20
2009/04/23 10:40:19.3     224   -185     38    291    294 129.5   7.5  34130  289.05 0855.20
2009/04/23 10:40:19.4     236    -89     -5    253    254 110.8  -1.3  34132  289.10 0855.20
2009/04/23 10:40:19.5     232   -105    -32    255    258 114.4  -7.3  34128  289.03 0855.20
2009/04/23 10:40:19.6     133   -108    -54    172    180 129.1 -22.8  34130  289.06 0855.20
2009/04/23 10:40:19.7     125   -108   -186    166    249 130.7 -58.1  34136  289.16 0855.20
2009/04/23 10:40:19.8     156   -117   -193    195    274 126.9 -54.3  34140  289.22 0855.20
2009/04/23 10:40:19.9     134      0    -98    135    166  90.0 -44.3  34132  289.09 0855.20
2009/04/23 10:40:20.0      88   -141   -165    167    234 148.1 -54.3  34136  289.16 0855.20
2009/04/23 10:40:20.1       0   -137    -26    138    141 180.4 -10.9  34138  289.21 0855.20
2009/04/23 10:40:20.2      85   -316     34    328    330 164.9   6.0  34130  289.08 0855.20
2009/04/23 10:40:20.3     162   -488    -31    515    516 161.6  -3.5  34130  289.05 0855.20
2009/04/23 10:40:20.4     238   -309     22    391    392 142.4   3.3  34132  289.10 0855.20
2009/04/23 10:40:20.5       9   -270    115    271    294 178.0  24.3  34134  289.12 0855.20
2009/04/23 10:40:20.6    -111   -239    -20    264    265 204.9  -4.4  34138  289.19 0855.20
2009/04/23 10:40:20.7     -19   -229     11    230    231 184.9   2.8  34136  289.16 0855.20
2009/04/23 10:40:20.8    -323   -243     11    405    406 233.0   1.6  34138  289.21 0855.19
2009/04/23 10:40:20.9    -170   -192     52    257    263 221.4  11.6  34140  289.22 0855.19
2009/04/23 10:40:21.0     -79   -238    112    252    275 198.5  25.3  34142  289.25 0855.19
2009/04/23 10:40:21.1      27   -376     45    377    380 175.8   6.9  34142  289.28 0855.19
2009/04/23 10:40:21.2      98   -334    -31    349    351 163.6  -5.2  34126  288.99 0855.19
2009/04/23 10:40:21.3      83   -287    -70    299    308 163.9 -13.3  34114  288.80 0855.19
2009/04/23 10:40:21.4      31   -274    -59    276    283 173.5 -12.2  34122  288.93 0855.19
2009/04/23 10:40:21.5     130   -276     -1    306    307 154.7  -0.3  34120  288.88 0855.19
2009/04/23 10:40:21.6      47   -391     54    394    398 173.0   7.9  34126  289.01 0855.19
2009/04/23 10:40:21.7      14   -325    -46    326    330 177.5  -8.1  34126  289.00 0855.19
2009/04/23 10:40:21.8      60   -295    -24    302    303 168.4  -4.6  34126  289.00 0855.19
2009/04/23 10:40:21.9     116   -347    -20    367    368 161.4  -3.1  34128  289.04 0855.19
2009/04/23 10:40:22.0      80   -297     -9    308    309 164.9  -1.8  34130  289.07 0855.19
2009/04/23 10:40:22.1      88   -238    -32    254    257 159.7  -7.3  34130  289.07 0855.19
2009/04/23 10:40:22.2      91   -209    -76    229    242 156.4 -18.3  34128  289.03 0855.19
2009/04/23 10:40:22.3      62   -224    -93    233    250 164.4 -27.4  34134  289.12 0855.19
2009/04/23 10:40:22.4     107   -262   -121    284    308 157.7 -28.7  34134  289.12 0855.19
2009/04/23 10:40:22.5     158   -184    -60    243    251 139.4 -13.9  34134  289.14 0855.19
2009/04/23 10:40:22.6     204   -304     18    367    368 146.2   2.9  34122  288.93 0855.19
2009/04/23 10:40:22.7     193   -317     62    372    378 148.6   9.5  34122  288.93 0855.19
2009/04/23 10:40:22.8     211   -271    121    344    365 142.2  19.5  34116  288.84 0855.18
2009/04/23 10:40:22.9     145   -207    108    253    275 145.0  24.6  34124  288.95 0855.18
2009/04/23 10:40:23.0      69   -313    128    321    345 167.5  23.0  34128  289.04 0855.18
2009/04/23 10:40:23.1      22   -295    203    296    358 175.6  37.6  34128  289.04 0855.18
2009/04/23 10:40:23.3      43   -306    260    310    404 171.9  44.3  34118  288.86 0855.18
2009/04/23 10:40:23.3      -9   -209    184    210    279 182.6  45.8  34126  289.00 0855.18
2009/04/23 10:40:23.4      34   -123     95    128    159 164.4  40.4  34136  289.16 0855.18
2009/04/23 10:40:23.5      90   -164     65    188    200 151.3  19.2  34132  289.09 0855.18
2009/04/23 10:40:23.6      96   -134     65    165    177 144.4  22.8  34132  289.11 0855.18
2009/04/23 10:40:23.7      94    -52     -5    108    109 118.9  -3.1  34132  289.09 0855.18
2009/04/23 10:40:23.8      96    -91    -46    133    141 133.6 -19.1  34134  289.13 0855.18
2009/04/23 10:40:23.9     105   -102    -88    147    171 134.0 -38.1  34138  289.21 0855.18
2009/04/23 10:40:24.0     141    -90    -47    168    174 122.4 -20.4  34138  289.19 0855.18
2009/04/23 10:40:24.1      95   -102     12    140    141 136.8   5.0  34138  289.19 0855.18
2009/04/23 10:40:24.2      36   -109      8    115    116 161.7   4.4  34130  289.08 0855.18
2009/04/23 10:40:24.3     -30   -196     92    199    219 188.9  26.6  34140  289.24 0855.18
2009/04/23 10:40:24.4       3   -192      5    193    194 179.0   1.6  34138  289.21 0855.18
2009/04/23 10:40:24.5     -69    -91   -145    115    185 217.4 -61.5  34142  289.26 0855.18
2009/04/23 10:40:24.6      14   -100    -91    102    136 171.9 -50.8  34136  289.16 0855.18
2009/04/23 10:40:24.7      15   -133   -117    134    177 173.3 -50.2  34138  289.19 0855.18
2009/04/23 10:40:24.8      64    -93    -17    114    116 145.3  -8.8  34134  289.14 0855.18
2009/04/23 10:40:24.9      94   -106    -52    142    151 138.5 -25.4  34134  289.14 0855.18
2009/04/23 10:40:25.0     -14   -131    -49    132    140 186.2 -25.4  34138  289.19 0855.18
2009/04/23 10:40:25.1     -36   -101    -77    108    132 199.6 -43.5  34142  289.26 0855.18
2009/04/23 10:40:25.2     -41   -183     -7    188    189 192.9  -2.2  34144  289.30 0855.18
2009/04/23 10:40:25.3     -22   -341    -97    342    355 183.8 -20.5  34142  289.26 0855.18
2009/04/23 10:40:25.4     -49   -432     22    435    436 186.6   2.9  34148  289.36 0855.18
2009/04/23 10:40:25.5     -54   -453    -11    457    458 186.8  -1.4  34142  289.27 0855.18
2009/04/23 10:40:25.6      96   -313    157    328    363 162.8  27.3  34152  289.43 0855.18
2009/04/23 10:40:25.7     112   -189     92    220    238 149.2  24.1  34152  289.42 0855.18
2009/04/23 10:40:25.8      99   -154    -24    184    186 147.3  -7.7  34150  289.40 0855.18
2009/04/23 10:40:25.9       0    -95    -73     96    120 179.5 -45.6  34150  289.40 0855.18
2009/04/23 10:40:26.0    -118   -131   -172    177    246 222.1 -53.6  34154  289.48 0855.18
2009/04/23 10:40:26.1     -69      0   -101     70    122 270.0 -66.5  34152  289.43 0855.18
2009/04/23 10:40:26.2     -47     32    -34     57     66 304.2 -38.8  34160  289.57 0855.18
2009/04/23 10:40:26.3    -195    -32   -108    198    225 260.5 -35.7  34158  289.53 0855.18
2009/04/23 10:40:26.4    -223   -142   -164    265    311 237.6 -39.6  34146  289.34 0855.18
2009/04/23 10:40:26.5    -148    -82   -131    170    214 241.1 -46.0  34146  289.33 0855.18
2009/04/23 10:40:26.6    -288   -239   -135    375    398 230.3 -25.1  34154  289.48 0855.18
2009/04/23 10:40:26.7     -90   -194   -131    215    251 204.9 -38.8  34150  289.41 0855.18
2009/04/23 10:40:26.8    -232    141   -149    272    310 301.3 -35.7  34152  289.42 0855.18
2009/04/23 10:40:26.9    -151    216    -73    264    274 324.9 -15.5  34156  289.51 0855.18
2009/04/23 10:40:27.0    -181    140    -45    229    234 307.8 -11.3  34172  289.79 0855.18
2009/04/23 10:40:27.1    -171    -14   -126    172    213 265.2 -44.1  34164  289.65 0855.18
2009/04/23 10:40:27.2    -324   -201    -91    382    393 238.2 -13.4  34154  289.47 0855.18
2009/04/23 10:40:27.3    -351    -22    -92    352    364 266.4 -14.7  34158  289.54 0855.18
2009/04/23 10:40:27.4    -270     79    -82    282    293 286.4 -21.0  34162  289.59 0855.18
2009/04/23 10:40:27.5    -219     39   -238    223    326 280.1 -56.6  34164  289.63 0855.18
2009/04/23 10:40:27.6    -214     44   -230    219    317 281.7 -55.9  34168  289.70 0855.18
2009/04/23 10:40:27.7    -110    180   -173    212    273 328.6 -47.9  34168  289.70 0855.18
2009/04/23 10:40:27.8     -86     46    -31     98    102 298.4 -22.8  34170  289.74 0855.20
2009/04/23 10:40:27.9    -133     63    -56    148    158 295.2 -26.1  34168  289.70 0855.20
2009/04/23 10:40:28.0    -276    -60    -20    283    284 257.7  -4.1  34174  289.80 0855.20
2009/04/23 10:40:28.1    -303    -63    -37    310    313 258.1  -6.8  34178  289.86 0855.20
2009/04/23 10:40:28.2    -232    -50   -114    238    263 257.8 -31.7  34174  289.80 0855.20
2009/04/23 10:40:28.3    -230    -88    -66    247    256 249.1 -15.0  34178  289.88 0855.20
2009/04/23 10:40:28.4    -237   -111    -89    262    277 244.9 -18.9  34178  289.86 0855.20
2009/04/23 10:40:28.5    -229    -65    -85    239    254 254.1 -19.7  34184  289.98 0855.20
2009/04/23 10:40:28.6    -209    -35   -123    213    245 260.3 -37.1  34176  289.85 0855.20
2009/04/23 10:40:28.7    -224    -55   -167    231    285 256.1 -44.1  34176  289.83 0855.20
2009/04/23 10:40:28.8    -215      9   -185    216    284 272.6 -49.2  34172  289.76 0855.20
2009/04/23 10:40:28.9    -131   -112   -104    173    201 229.3 -38.4  34176  289.85 0855.20
2009/04/23 10:40:29.0       0   -262   -133    263    294 180.1 -33.5  34174  289.80 0855.20
2009/04/23 10:40:29.1     107   -391   -133    406    427 164.7 -23.5  34168  289.70 0855.20
2009/04/23 10:40:29.2     135   -428   -135    449    468 162.5 -21.7  34170  289.73 0855.20
2009/04/23 10:40:29.3     100   -341   -108    356    373 163.6 -17.0  34166  289.69 0855.20
2009/04/23 10:40:29.4     116   -359   -114    378    394 162.1 -21.7  34162  289.62 0855.20
2009/04/23 10:40:29.5     252   -357    -52    437    441 144.8  -6.9  34152  289.44 0855.20
2009/04/23 10:40:29.6     299   -278    -80    409    417 132.9 -11.1  34160  289.58 0855.20
2009/04/23 10:40:29.7     314   -282    -50    423    426 131.9  -6.8  34156  289.51 0855.20
2009/04/23 10:40:29.8     376   -232      6    442    443 121.7   0.8  34156  289.49 0855.22
2009/04/23 10:40:29.9     375   -271      0    463    464 125.9   0.0  34156  289.49 0855.22
2009/04/23 10:40:30.0     336   -325     44    468    471 134.0   5.4  34156  289.49 0855.22
2009/04/23 10:40:30.1     268   -303    -15    405    406 138.5  -2.2  34154  289.48 0855.22
2009/04/23 10:40:30.2     223   -354     36    419    421 147.7   5.0  34152  289.44 0855.22
2009/04/23 10:40:30.3     259   -288     85    388    398 138.1  12.4  34152  289.43 0855.22
2009/04/23 10:40:30.4     245   -243    106    346    362 134.7  17.1  34152  289.43 0855.22
2009/04/23 10:40:30.5     268   -218    144    346    374 129.2  23.9  34154  289.47 0855.22
2009/04/23 10:40:30.6     285   -172    145    333    363 121.1  25.1  34156  289.52 0855.22
2009/04/23 10:40:30.7     361   -171    118    400    418 115.4  16.5  34148  289.36 0855.22
2009/04/23 10:40:30.8     434   -145    113    458    472 108.5  13.9  34138  289.20 0855.22
2009/04/23 10:40:30.9     286   -169    221    333    399 120.7  36.6  34140  289.23 0855.22
2009/04/23 10:40:31.0     388    -74    171    396    431 100.8  25.0  34138  289.19 0855.22
2009/04/23 10:40:31.1     412   -103     59    425    430 104.2   8.0  34140  289.24 0855.22
2009/04/23 10:40:31.2     326   -108    215    344    405 108.5  35.1  34136  289.18 0855.22
2009/04/23 10:40:31.3     297    -79    247    308    394 105.1  42.8  34144  289.30 0855.22
2009/04/23 10:40:31.4     275    -88    336    289    443 107.8  55.3  34142  289.26 0855.22
2009/04/23 10:40:31.5     383    -17    381    384    540  92.6  49.9  34146  289.32 0855.22
2009/04/23 10:40:31.6     432     57    272    436    513  82.4  35.0  34142  289.27 0855.22
2009/04/23 10:40:31.7     369     71    279    376    468  79.1  40.2  34140  289.24 0855.22
2009/04/23 10:40:31.8     336    -13    120    337    357  92.3  20.3  34142  289.28 0855.24
2009/04/23 10:40:31.9     106     63    223    124    255  59.3  68.8  34142  289.28 0855.24
2009/04/23 10:40:32.0     -15    -36    197     40    201 202.7  89.1  34160  289.57 0855.24
2009/04/23 10:40:32.1     170   -159    170    234    289 133.1  39.7  34146  289.34 0855.24
2009/04/23 10:40:32.2     209   -222    213    306    372 136.7  38.4  34142  289.25 0855.24
2009/04/23 10:40:32.4     300   -232    166    380    414 127.8  25.1  34150  289.39 0855.24
2009/04/23 10:40:32.4     198   -260    175    327    370 142.7  30.7  34152  289.43 0855.24
2009/04/23 10:40:32.5     114   -283    140    306    336 158.1  26.3  34154  289.46 0855.24
2009/04/23 10:40:32.6      24   -316    197    318    374 175.5  34.9  34168  289.72 0855.24
2009/04/23 10:40:32.7     -41   -293    137    296    326 188.0  26.5  34182  289.93 0855.24
2009/04/23 10:40:32.8     -73   -220    157    232    280 198.5  37.4  34170  289.75 0855.24
2009/04/23 10:40:32.9      39   -203     90    207    225 169.1  25.1  34160  289.57 0855.24
2009/04/23 10:40:33.0     155   -269    102    311    328 150.1  18.1  34146  289.32 0855.24
2009/04/23 10:40:33.1      79   -320    192    330    381 166.0  32.9  34158  289.55 0855.24
2009/04/23 10:40:33.2     106   -206    173    232    289 152.8  40.6  34154  289.47 0855.24
2009/04/23 10:40:33.3      18   -141    197    143    243 172.4  60.5  34162  289.60 0855.24
2009/04/23 10:40:33.4      25   -185    174    187    255 172.2  47.9  34156  289.51 0855.24
2009/04/23 10:40:33.5      68   -204    108    216    241 161.5  28.5  34156  289.51 0855.24
2009/04/23 10:40:33.6     145   -234    213    276    348 148.3  41.5  34170  289.73 0855.24
2009/04/23 10:40:33.7     102   -163    117    193    225 148.1  34.0  34166  289.67 0855.24
2009/04/23 10:40:33.8      91   -160    123    185    222 150.4  36.7  34164  289.63 0855.22
2009/04/23 10:40:33.9     -51    -62    120     81    144 219.6  63.2  34176  289.85 0855.22
2009/04/23 10:40:34.0     -41    -63     87     76    115 213.4  54.8  34174  289.80 0855.22
2009/04/23 10:40:34.1       4    -43     67     44     80 173.8  63.6  34182  289.94 0855.22
2009/04/23 10:40:34.2      57      4     63     58     85  85.7  52.2  34172  289.79 0855.22
2009/04/23 10:40:34.3     -27    -43     93     52    106 212.5  68.8  34170  289.75 0855.22
2009/04/23 10:40:34.4       6   -152    152    153    215 177.4  50.0  34164  289.63 0855.22
2009/04/23 10:40:34.5     -58   -157    199    168    260 200.3  55.6  34168  289.70 0855.22
2009/04/23 10:40:34.7     -91   -145    219    172    278 212.1  58.2  34168  289.70 0855.22
2009/04/23 10:40:34.7      12   -133    137    134    191 174.7  50.7  34168  289.72 0855.22
2009/04/23 10:40:34.8     -76   -191    149    206    254 201.9  39.7  34172  289.78 0855.22
2009/04/23 10:40:34.9    -137   -177    147    225    268 217.8  36.3  34174  289.80 0855.22
2009/04/23 10:40:35.1    -127   -167      9    210    211 217.2   2.5  34166  289.67 0855.22
2009/04/23 10:40:35.2      20   -156     94    158    183 172.4  33.7  34166  289.67 0855.22
2009/04/23 10:40:35.2     -89   -109    232    141    271 219.2  65.7  34174  289.81 0855.22
2009/04/23 10:40:35.4     -20   -262    204    263    332 184.4  41.7  34158  289.54 0855.22
2009/04/23 10:40:35.5      15   -268    157    269    311 176.6  33.4  34164  289.64 0855.22
2009/04/23 10:40:35.6      21   -128    228    130    262 170.7  67.7  34168  289.70 0855.22
2009/04/23 10:40:35.7      24   -120    180    123    218 168.5  62.6  34168  289.72 0855.22
2009/04/23 10:40:35.8     -17   -149    179    151    234 186.7  55.6  34158  289.53 0855.22
2009/04/23 10:40:35.9     158    -78    137    177    223 116.2  41.7  34166  289.69 0855.21
2009/04/23 10:40:36.0      68   -162    141    176    225 157.1  43.3  34164  289.65 0855.21
2009/04/23 10:40:36.1     -14   -220    173    221    280 183.8  42.0  34162  289.59 0855.21
2009/04/23 10:40:36.2      35   -173    143    177    227 168.5  43.5  34164  289.63 0855.21
2009/04/23 10:40:36.3     -16   -165     90    166    188 185.6  31.0  34162  289.60 0855.21
2009/04/23 10:40:36.4     -76   -162    151    180    234 205.3  44.3  34172  289.77 0855.21
2009/04/23 10:40:36.5      37   -152    140    157    210 166.2  46.2  34166  289.67 0855.21
2009/04/23 10:40:36.6     -75   -180    164    196    255 202.7  44.1  34160  289.56 0855.21
2009/04/23 10:40:36.7      33   -270    189    273    332 172.9  38.0  34154  289.47 0855.21
2009/04/23 10:40:36.8      12   -274    166    275    321 177.3  34.1  34154  289.46 0855.21
2009/04/23 10:40:36.9      70   -228    169    239    292 162.8  38.8  34144  289.31 0855.21
2009/04/23 10:40:37.0      74   -257    173    268    318 164.0  35.9  34148  289.36 0855.21
2009/04/23 10:40:37.1       9   -329    138    330    357 178.4  23.9  34142  289.25 0855.21
2009/04/23 10:40:37.2      59   -422    232    427    485 172.0  30.8  34152  289.42 0855.21
2009/04/23 10:40:37.3     -60   -203    239    212    319 196.7  54.0  34156  289.51 0855.21
2009/04/23 10:40:37.4     134   -252    157    286    326 151.9  31.3  34150  289.41 0855.21
2009/04/23 10:40:37.5     177   -278    108    330    348 147.5  18.1  34152  289.43 0855.21
2009/04/23 10:40:37.6     113   -296     92    317    331 159.1  16.1  34148  289.36 0855.21
2009/04/23 10:40:37.7      93   -242    -14    260    261 158.8  -3.2  34152  289.44 0855.21
2009/04/23 10:40:37.8     201   -145     13    248    249 125.9   3.1  34154  289.47 0855.21
2009/04/23 10:40:37.9     112   -105      7    154    155 133.2   2.9  34148  289.36 0855.18
2009/04/23 10:40:38.0     115   -157    -79    196    211 143.7 -27.4  34150  289.41 0855.18
2009/04/23 10:40:38.1      46   -215   -152    221    268 167.7 -42.2  34152  289.44 0855.18
2009/04/23 10:40:38.2     -55   -197    -97    205    226 195.6 -31.5  34152  289.43 0855.18
2009/04/23 10:40:38.3     -63   -250    -89    258    273 194.2 -19.1  34154  289.46 0855.18
2009/04/23 10:40:38.4     -58   -218    -85    226    241 195.1 -25.9  34154  289.46 0855.18
2009/04/23 10:40:38.5     -72   -109    -49    131    139 213.4 -25.4  34154  289.48 0855.18
2009/04/23 10:40:38.6     -14   -137    -27    138    141 186.2 -11.3  34150  289.41 0855.18
2009/04/23 10:40:38.7     -94   -130    -15    161    162 216.0  -5.6  34148  289.36 0855.18
2009/04/23 10:40:38.8     -19    -69     34     72     79 196.0  27.2  34158  289.55 0855.18
2009/04/23 10:40:38.9       3   -164    -70    165    179 178.6 -28.5  34152  289.43 0855.18
2009/04/23 10:40:39.0    -191   -169     -1    256    257 228.6  -0.3  34148  289.37 0855.18
2009/04/23 10:40:39.1     -78   -195     10    211    212 201.8   2.8  34150  289.41 0855.18
2009/04/23 10:40:39.2    -127   -214    -19    249    250 210.7  -4.4  34158  289.53 0855.18
2009/04/23 10:40:39.3    -123   -157    -32    200    203 218.1  -9.3  34156  289.52 0855.18
2009/04/23 10:40:39.4    -164    -84     47    185    191 242.9  14.3  34158  289.53 0855.18
2009/04/23 10:40:39.5    -131     -9     64    132    146 265.7  27.3  34158  289.53 0855.18
2009/04/23 10:40:39.6     -87    -39     42     96    104 245.6  25.1  34156  289.52 0855.18
2009/04/23 10:40:39.7      -4     -8     41     10     42 209.0  86.9  34158  289.55 0855.18
2009/04/23 10:40:39.8      20      5     78     21     80  74.9  85.4  34168  289.70 0855.18
2009/04/23 10:40:39.9     140    -47    131    148    197 108.6  46.2  34160  289.58 0855.18
2009/04/23 10:40:40.0     192   -104     99    219    240 118.4  26.2  34156  289.51 0855.18
2009/04/23 10:40:40.1     169   -180     87    247    262 136.8  19.4  34158  289.53 0855.18
2009/04/23 10:40:40.2     159   -169    131    233    267 136.8  31.9  34158  289.53 0855.18
2009/04/23 10:40:40.3     165   -165    181    234    295 134.9  41.7  34162  289.61 0855.18
2009/04/23 10:40:40.4     246   -142    184    285    339 120.0  35.7  34162  289.61 0855.18
2009/04/23 10:40:40.5     102   -101    133    144    196 134.8  47.7  34170  289.75 0855.18
2009/04/23 10:40:40.6     126   -104    100    164    192 129.6  34.8  34164  289.63 0855.18
2009/04/23 10:40:40.7      90    -74     78    117    140 129.6  37.0  34160  289.58 0855.18
2009/04/23 10:40:40.8      71    -91     82    116    142 141.7  39.5  34164  289.65 0855.18
2009/04/23 10:40:40.9      76   -135     73    155    171 150.6  27.1  34162  289.60 0855.18
2009/04/23 10:40:41.0      73   -155      8    172    173 154.8   2.8  34160  289.57 0855.18
2009/04/23 10:40:41.1      23   -118    -31    121    125 168.9 -14.5  34164  289.63 0855.18
2009/04/23 10:40:41.2      10   -142    -52    143    152 175.6 -24.8  34166  289.69 0855.18
2009/04/23 10:40:41.3     -31   -128     -7    132    133 193.8  -3.1  34160  289.58 0855.18
2009/04/23 10:40:41.4     -99   -133    -67    166    179 216.7 -27.4  34160  289.57 0855.18
2009/04/23 10:40:41.5     -98   -156    -69    185    197 212.1 -25.7  34160  289.57 0855.18
2009/04/23 10:40:41.6    -133   -101    -77    168    184 232.7 -30.8  34162  289.62 0855.18
2009/04/23 10:40:41.7    -124    -27    -48    127    135 257.6 -25.4  34166  289.69 0855.18
2009/04/23 10:40:41.8     -99      3    -49    100    111 272.1 -31.7  34168  289.72 0855.18
2009/04/23 10:40:41.9     -23    -59    -24     64     68 201.9 -24.4  34166  289.69 0855.16
2009/04/23 10:40:42.0    -121    -36   -109    127    167 253.2 -49.5  34164  289.65 0855.16
2009/04/23 10:40:42.1     -21   -178    -60    180    189 186.9 -23.6  34160  289.57 0855.16
2009/04/23 10:40:42.2     -48   -172     19    179    181 195.6   6.1  34168  289.72 0855.16
2009/04/23 10:40:42.3     -42   -161     -1    167    168 194.7  -0.5  34170  289.74 0855.16
2009/04/23 10:40:42.4     -16   -131     58    133    145 187.1  25.1  34172  289.79 0855.16
2009/04/23 10:40:42.5       0    -90     70     91    114 180.4  41.7  34178  289.89 0855.16
2009/04/23 10:40:42.6       2     -2     54      4     54 135.0  90.0  34178  289.87 0855.16
2009/04/23 10:40:42.7     -37    -54     38     66     76 214.3  33.5  34172  289.79 0855.16
2009/04/23 10:40:42.8      16   -118     41    120    127 172.0  18.9  34164  289.63 0855.16
2009/04/23 10:40:42.9     -37   -108      1    115    116 199.2   0.8  34166  289.69 0855.16
2009/04/23 10:40:43.0     -56    -63    -21     85     88 221.9 -13.9  34170  289.75 0855.16
2009/04/23 10:40:43.1     -82    -43      8     93     94 242.0   5.4  34170  289.74 0855.16
2009/04/23 10:40:43.2     -67     -7     37     68     77 263.9  31.3  34172  289.79 0855.16
2009/04/23 10:40:43.3    -163     68    -16    177    178 292.6  -5.2  34172  289.77 0855.16
2009/04/23 10:40:43.4    -140     61    -41    153    159 293.5 -15.0  34162  289.60 0855.16
2009/04/23 10:40:43.5     -86     71    -31    112    117 309.5 -15.5  34140  289.24 0855.16
2009/04/23 10:40:43.6     -32      3     53     33     62 276.1  64.7  34166  289.69 0855.16
2009/04/23 10:40:43.7      37   -120     85    126    151 162.6  37.4  34166  289.69 0855.16
2009/04/23 10:40:43.8     120    -99     91    156    180 129.5  32.9  34160  289.57 0855.16
2009/04/23 10:40:43.9     158    -66     90    172    194 112.6  30.1  34162  289.62 0855.15
2009/04/23 10:40:44.0     -39   -133    156    139    208 196.5  53.7  34168  289.70 0855.15
2009/04/23 10:40:44.1     104   -138    156    174    233 143.0  46.9  34168  289.70 0855.15
2009/04/23 10:40:44.2     114   -223    135    251    285 152.8  30.3  34160  289.58 0855.15
2009/04/23 10:40:44.3       7   -250    107    251    272 178.2  24.3  34160  289.58 0855.15
2009/04/23 10:40:44.4      22   -289     90    290    304 175.6  17.4  34162  289.59 0855.15
2009/04/23 10:40:44.5      49   -354     71    358    366 172.0  11.3  34162  289.59 0855.15
2009/04/23 10:40:44.6      56   -330     97    335    349 170.2  16.3  34164  289.64 0855.15
2009/04/23 10:40:44.7       2   -297    155    298    335 179.5  29.6  34162  289.61 0855.15
2009/04/23 10:40:44.8      64   -292    217    300    370 167.5  39.5  34160  289.57 0855.15
2009/04/23 10:40:44.9      47   -277    191    282    340 170.2  37.3  34158  289.53 0855.16
2009/04/23 10:40:45.0      60   -302    156    309    346 168.7  28.7  34158  289.55 0855.16
2009/04/23 10:40:45.1      49   -288    184    293    345 170.2  35.3  34162  289.59 0855.16
2009/04/23 10:40:45.2     100    -98    206    141    249 134.4  62.6  34156  289.50 0855.16
2009/04/23 10:40:45.3     136   -199    184    242    304 145.7  41.4  34160  289.56 0855.16
2009/04/23 10:40:45.4      34   -111    118    117    166 163.1  49.9  34164  289.63 0855.16
2009/04/23 10:40:45.5       3   -145    169    146    223 178.6  54.6  34162  289.60 0855.16
2009/04/23 10:40:45.6      11   -169    157    170    231 176.0  47.9  34164  289.63 0855.16
2009/04/23 10:40:45.7      22   -201    142    203    247 173.7  38.5  34162  289.61 0855.16
2009/04/23 10:40:45.8      59   -192    138    202    244 162.8  37.6  34160  289.57 0855.16
2009/04/23 10:40:45.9      75   -171     93    188    209 156.2  28.0  34162  289.62 0855.16
2009/04/23 10:40:46.0      92   -212    -42    232    236 156.6 -10.5  34162  289.59 0855.16
2009/04/23 10:40:46.1      81   -243   -101    257    276 161.5 -27.2  34160  289.56 0855.16
2009/04/23 10:40:46.2       8   -173   -100    174    200 177.3 -37.1  34160  289.57 0855.16
2009/04/23 10:40:46.3      15   -195    -68    196    207 175.5 -24.0  34160  289.57 0855.16
2009/04/23 10:40:46.4      57   -226   -122    234    263 165.7 -33.9  34162  289.61 0855.16
2009/04/23 10:40:46.5      97   -244    -80    263    274 158.2 -21.7  34160  289.58 0855.16
2009/04/23 10:40:46.6      98   -138    -72    170    184 144.8 -28.7  34160  289.57 0855.16
2009/04/23 10:40:46.7     111   -104    -19    153    155 133.2  -7.3  34160  289.58 0855.16
2009/04/23 10:40:46.8     123   -148    -17    193    194 140.4  -5.2  34160  289.58 0855.16
2009/04/23 10:40:46.9      85   -139    -49    164    172 148.6 -16.8  34164  289.63 0855.18
2009/04/23 10:40:47.0      77   -142    -38    162    167 151.5 -13.2  34162  289.60 0855.18
2009/04/23 10:40:47.1      21   -125    -50    127    136 170.2 -26.9  34156  289.50 0855.18
2009/04/23 10:40:47.2     -25   -170      8    172    173 188.5   2.9  34162  289.60 0855.18
2009/04/23 10:40:47.3     -66   -191    -31    203    206 199.2  -8.8  34164  289.65 0855.18
2009/04/23 10:40:47.4    -111   -295    -72    316    325 200.7 -12.9  34162  289.59 0855.18
2009/04/23 10:40:47.5       0   -285    -15    286    287 180.1  -3.2  34162  289.59 0855.18
2009/04/23 10:40:47.6     -60   -255    -50    263    268 193.4 -10.9  34162  289.59 0855.18
2009/04/23 10:40:47.7     -53   -264      3    270    271 191.5   0.7  34164  289.63 0855.18
2009/04/23 10:40:47.8     -54   -266     38    272    275 191.5   8.0  34162  289.61 0855.18
2009/04/23 10:40:47.9     -52   -207     62    214    223 194.3  16.3  34162  289.60 0855.18
2009/04/23 10:40:48.0    -113   -219     30    247    249 207.4   7.1  34166  289.66 0855.18
2009/04/23 10:40:48.1    -141   -274    -55    309    314 207.2 -10.1  34170  289.73 0855.18
2009/04/23 10:40:48.2    -124   -273      6    301    302 204.5   1.2  34180  289.92 0855.18
2009/04/23 10:40:48.3      -9   -280    115    281    303 182.0  23.4  34170  289.73 0855.18
2009/04/23 10:40:48.4     -37   -245    103    248    268 188.7  23.8  34158  289.53 0855.18
2009/04/23 10:40:48.5     -35   -254     48    257    262 188.0  10.6  34158  289.53 0855.18
2009/04/23 10:40:48.6       0   -189     62    190    200 180.2  18.1  34154  289.48 0855.18
2009/04/23 10:40:48.7      85   -336     79    347    356 165.7  12.9  34152  289.45 0855.18
2009/04/23 10:40:48.8     104   -413     55    426    430 165.8   7.4  34148  289.38 0855.18
2009/04/23 10:40:48.9      99   -498     15    508    509 168.7   1.7  34128  289.03 0855.19
2009/04/23 10:40:49.0     230   -560     30    606    607 157.7   2.9  34120  288.90 0855.19
2009/04/23 10:40:49.1     263   -564    116    623    634 155.0  10.6  34118  288.86 0855.19
2009/04/23 10:40:49.2      87   -499     -6    507    508 170.1  -0.7  34126  289.01 0855.19
2009/04/23 10:40:49.3     218   -371     97    431    442 149.5  12.8  34124  288.95 0855.19
2009/04/23 10:40:49.4     178   -406    -73    444    451 156.3  -9.4  34140  289.22 0855.19
2009/04/23 10:40:49.5     210   -295     -3    363    364 144.5  -0.5  34134  289.13 0855.19
2009/04/23 10:40:49.6     145   -227     37    270    273 147.5   7.8  34142  289.27 0855.19
2009/04/23 10:40:49.7     142   -268     25    304    306 152.0   4.9  34140  289.22 0855.19
2009/04/23 10:40:49.8     139   -236     33    274    276 149.5   6.9  34142  289.25 0855.19
2009/04/23 10:40:49.9     135   -279     38    311    314 154.1   7.1  34132  289.10 0855.19
2009/04/23 10:40:50.0     168   -270      6    319    320 148.1   1.2  34134  289.14 0855.19
2009/04/23 10:40:50.1      42   -252     36    256    259 170.4   8.0  34136  289.15 0855.19
2009/04/23 10:40:50.2      73   -185     13    200    201 158.4   3.8  34134  289.14 0855.19
2009/04/23 10:40:50.3      67   -237    119    247    274 164.2  27.4  34134  289.12 0855.19
2009/04/23 10:40:50.4      61   -262     80    269    281 166.9  16.6  34134  289.14 0855.19
2009/04/23 10:40:50.5      66   -261     47    270    275 165.8  10.0  34134  289.14 0855.19
2009/04/23 10:40:50.6     117   -258     29    284    286 155.5   5.9  34122  288.93 0855.19
2009/04/23 10:40:50.7      87   -275     56    289    295 162.4  11.0  34122  288.92 0855.19
2009/04/23 10:40:50.8      75   -275     67    286    294 164.6  13.2  34118  288.85 0855.19
2009/04/23 10:40:50.9      67   -264     98    273    290 165.7  20.4  34120  288.90 0855.20
2009/04/23 10:40:51.0      42   -248    115    252    277 170.3  26.2  34120  288.90 0855.20
2009/04/23 10:40:51.1     -15   -250     91    251    266 183.5  20.9  34122  288.92 0855.20
2009/04/23 10:40:51.2     -52   -220     89    227    243 193.3  22.3  34126  288.98 0855.20
2009/04/23 10:40:51.3     -82   -175     71    194    206 205.2  21.0  34124  288.97 0855.20
2009/04/23 10:40:51.4     -91   -160     69    185    197 209.6  21.3  34124  288.97 0855.20
2009/04/23 10:40:51.5    -110   -110      6    156    157 225.0   2.5  34128  289.04 0855.20
2009/04/23 10:40:51.6    -109   -102    -30    150    154 226.9 -11.3  34130  289.08 0855.20
2009/04/23 10:40:51.7    -137   -162     73    213    226 220.3  18.9  34124  288.96 0855.20
2009/04/23 10:40:51.8    -111   -188     82    219    233 210.5  21.0  34122  288.92 0855.20
2009/04/23 10:40:51.9    -122   -206     67    240    250 210.8  15.6  34126  288.98 0855.20
2009/04/23 10:40:52.0    -153   -140     -4    208    209 227.6  -1.3  34128  289.04 0855.20
2009/04/23 10:40:52.1    -199   -134    -13    241    242 236.0  -3.3  34130  289.05 0855.20
2009/04/23 10:40:52.2    -167    -52     54    175    184 252.7  17.1  34128  289.04 0855.20
2009/04/23 10:40:52.3    -134    -48     42    143    150 250.0  16.3  34132  289.09 0855.20
2009/04/23 10:40:52.4    -137    -47     -6    145    146 250.9  -2.6  34128  289.04 0855.20
2009/04/23 10:40:52.5    -129    -77    -21    151    153 239.3  -8.2  34130  289.08 0855.20
2009/04/23 10:40:52.6    -128   -100     -6    163    164 231.8  -2.1  34132  289.09 0855.20
2009/04/23 10:40:52.7    -100   -100     18    142    144 224.9   7.5  34130  289.06 0855.20
2009/04/23 10:40:52.8     -86    -72     36    113    119 230.0  17.9  34136  289.16 0855.20
2009/04/23 10:40:52.9    -110     12     56    111    124 276.6  29.2  34140  289.23 0855.20
2009/04/23 10:40:53.0    -144     94     70    173    186 303.3  23.1  34138  289.21 0855.20
2009/04/23 10:40:53.1    -157    113     -7    194    195 305.9  -2.2  34148  289.36 0855.20
2009/04/23 10:40:53.2    -158    131     32    206    209 309.5   8.8  34146  289.33 0855.20
2009/04/23 10:40:53.3    -120     99     66    156    169 309.6  24.6  34150  289.40 0855.20
2009/04/23 10:40:53.4    -105     87     72    137    154 309.5  29.8  34150  289.40 0855.20
2009/04/23 10:40:53.5     -84    116     50    144    153 324.0  19.2  34154  289.46 0855.20
2009/04/23 10:40:53.6     -71     51     52     88    102 305.5  33.5  34156  289.50 0855.20
2009/04/23 10:40:53.7    -143     98    -11    174    175 304.6  -3.7  34150  289.41 0855.20
2009/04/23 10:40:53.8    -183     63     39    194    198 289.1  11.4  34156  289.52 0855.20
2009/04/23 10:40:53.9    -125      0     30    126    130 270.0  13.7  34156  289.52 0855.20
2009/04/23 10:40:54.0    -102      4    -37    103    109 272.6 -24.4  34162  289.62 0855.20
2009/04/23 10:40:54.1     -85     21    -42     88     97 284.2 -31.6  34160  289.58 0855.20
2009/04/23 10:40:54.2    -125    100    -23    161    163 308.6  -8.2  34158  289.55 0855.20
2009/04/23 10:40:54.3    -117    141    -62    184    195 320.4 -18.7  34156  289.52 0855.20
2009/04/23 10:40:54.4    -120    153    -51    195    202 321.7 -14.7  34160  289.57 0855.20
2009/04/23 10:40:54.5    -121    131     20    179    181 317.5   6.5  34144  289.31 0855.20
2009/04/23 10:40:54.6     -41    189     -4    194    195 347.7  -1.3  34142  289.26 0855.20
2009/04/23 10:40:54.7    -190     38   -123    194    229 281.5 -39.9  34130  289.08 0855.20
2009/04/23 10:40:54.8    -377    131   -127    400    419 289.2 -22.8  34126  288.99 0855.20
2009/04/23 10:40:54.9    -447    146    -53    471    475 288.2  -6.5  34140  289.22 0855.22
2009/04/23 10:40:55.0    -194    220     51    294    299 318.5   9.9  34138  289.20 0855.22
2009/04/23 10:40:55.1    -284    152     32    323    325 298.2   5.7  34142  289.27 0855.22
2009/04/23 10:40:55.2    -335    119     64    356    362 289.6  10.2  34148  289.38 0855.22
2009/04/23 10:40:55.3    -266    136     74    299    309 297.1  13.9  34144  289.31 0855.22
2009/04/23 10:40:55.4    -224     49    112    230    255 282.4  27.8  34144  289.31 0855.22
2009/04/23 10:40:55.5    -299   -186    120    353    374 238.1  18.8  34152  289.45 0855.22
2009/04/23 10:40:55.6    -331    -93    157    345    379 254.2  26.2  34142  289.25 0855.22
2009/04/23 10:40:55.7    -321   -248    135    406    429 232.3  18.5  34140  289.24 0855.22
2009/04/23 10:40:55.8    -228   -334    142    405    430 214.3  19.3  34146  289.34 0855.22
2009/04/23 10:40:55.9    -124   -472    132    489    507 194.8  15.2  34140  289.22 0855.22
2009/04/23 10:40:56.0    -128   -540    127    556    571 193.4  12.9  34134  289.14 0855.22
2009/04/23 10:40:56.1    -237   -525     42    577    579 204.3   4.2  34136  289.15 0855.22
2009/04/23 10:40:56.2    -114   -382     71    399    406 196.6  10.1  34138  289.19 0855.22
2009/04/23 10:40:56.3     -59   -473    112    477    490 187.2  13.2  34136  289.15 0855.22
2009/04/23 10:40:56.4     -41   -442     -6    445    446 185.3  -0.9  34132  289.11 0855.22
2009/04/23 10:40:56.5      29   -371    -48    373    377 175.5  -7.3  34134  289.13 0855.22
2009/04/23 10:40:56.6     112   -475     88    488    496 166.7  10.2  34130  289.05 0855.22
2009/04/23 10:40:56.7     156   -371     56    403    408 157.2   8.0  34136  289.16 0855.22
2009/04/23 10:40:56.8     117   -258    221    284    359 155.5  41.7  34142  289.26 0855.22
2009/04/23 10:40:56.9      99   -237    217    257    336 157.3  44.5  34136  289.15 0855.23
2009/04/23 10:40:57.0     135   -425    172    447    478 162.3  22.0  34132  289.10 0855.23
2009/04/23 10:40:57.1     221   -434    263    487    553 153.0  30.8  34128  289.02 0855.23
2009/04/23 10:40:57.2     189   -556    380    588    700 161.2  35.8  34132  289.10 0855.23
2009/04/23 10:40:57.3     143   -444    348    467    582 162.1  40.4  34148  289.36 0855.23
2009/04/23 10:40:57.4     112   -442    400    457    607 165.7  45.8  34144  289.29 0855.23
2009/04/23 10:40:57.5      38   -185    334    190    384 168.2  68.1  34144  289.30 0855.23
2009/04/23 10:40:57.6     -21   -393    396    394    558 183.2  50.1  34152  289.42 0855.23
2009/04/23 10:40:57.7     -23   -213    296    215    365 186.2  60.5  34146  289.32 0855.23
2009/04/23 10:40:57.8      16   -215    284    216    356 175.6  59.0  34152  289.42 0855.23
2009/04/23 10:40:57.9     -63   -187    254    198    322 198.7  58.2  34146  289.32 0855.23
2009/04/23 10:40:58.0    -530   -218    -22    574    575 247.6  -2.2  34158  289.54 0855.23
2009/04/23 10:40:58.1    -482   -159   -103    508    519 251.7 -11.5  34166  289.67 0855.23
2009/04/23 10:40:58.2    -533   -107    -69    544    549 258.6  -7.3  34138  289.21 0855.23
2009/04/23 10:40:58.3    -356    -26   -136    357    382 265.7 -26.4  34156  289.50 0855.23
2009/04/23 10:40:58.4    -292    -35    -83    295    307 263.0 -15.8  34160  289.58 0855.23
2009/04/23 10:40:58.5    -348    -40    -67    351    358 263.3 -10.9  34158  289.54 0855.23
2009/04/23 10:40:58.6    -202    148   -105    251    272 306.4 -28.5  34166  289.66 0855.23
2009/04/23 10:40:58.7    -254    -87      3    269    270 251.0   0.8  34160  289.56 0855.23
2009/04/23 10:40:58.8    -197     29     98    200    222 278.6  28.0  34194  290.14 0855.23
2009/04/23 10:40:58.9     124    -84    -19    150    152 124.2  -7.2  34176  289.85 0855.23
2009/04/23 10:40:59.0    -220   -165     -5    275    276 233.1  -1.2  34162  289.59 0855.23
2009/04/23 10:40:59.1    -186   -153    142    242    280 230.5  33.4  34148  289.36 0855.23
2009/04/23 10:40:59.2    -434     18    217    435    486 272.5  28.5  34162  289.62 0855.23
2009/04/23 10:40:59.3     -74   -109    -72    133    151 214.3 -35.7  34162  289.62 0855.23
2009/04/23 10:40:59.4      69    -74    152    102    183 136.8  63.2  34172  289.77 0855.23
2009/04/23 10:40:59.5     380    -17    234    381    447  92.6  34.5  34152  289.44 0855.23
2009/04/23 10:40:59.6     371   -170    299    409    506 114.6  39.7  34152  289.42 0855.23
2009/04/23 10:40:59.7     246    -82    341    260    428 108.6  59.0  34148  289.37 0855.23
2009/04/23 10:40:59.8      -4    -85    197     86    214 183.1  75.0  34156  289.52 0855.23
2009/04/23 10:40:59.9     159     12    228    160    278  85.6  61.5  34150  289.39 0855.23
2009/04/23 10:41:00.0     134      5    245    135    279  87.5  68.8  34152  289.42 0855.23
2009/04/23 10:41:00.1     353     52    132    357    380  81.5  21.0  34142  289.25 0855.23
2009/04/23 10:41:00.2     237     58    157    245    290  76.1  35.6  34154  289.47 0855.23
2009/04/23 10:41:00.3     274   -217     86    350    361 128.4  13.8  34142  289.25 0855.23
2009/04/23 10:41:00.4     316   -198     35    374    376 122.1   5.4  34146  289.35 0855.23
2009/04/23 10:41:00.5     331   -112     61    350    356 108.8   9.9  34146  289.33 0855.23
2009/04/23 10:41:00.6     331    -43     74    334    343  97.5  12.6  34154  289.47 0855.23
2009/04/23 10:41:00.7     295    -41     57    298    304  97.9  11.0  34160  289.58 0855.23
2009/04/23 10:41:00.9     173   -120     57    211    219 124.9  15.2  34150  289.40 0855.23
2009/04/23 10:41:00.9     241   -229    152    333    366 133.5  26.3  34152  289.42 0855.23
2009/04/23 10:41:01.0     330    -43     93    333    346  97.5  15.7  34188  290.03 0855.23
2009/04/23 10:41:01.1     223   -109    120    249    276 116.2  27.3  34160  289.56 0855.23
2009/04/23 10:41:01.3     246    -82     86    260    275 108.4  18.4  34150  289.41 0855.23
2009/04/23 10:41:01.4     137   -313    143    342    370 156.4  23.9  34138  289.20 0855.23
2009/04/23 10:41:01.4      58   -287    103    293    311 168.5  19.4  34146  289.32 0855.23
2009/04/23 10:41:01.6     180   -146    221    232    320 129.1  48.7  34150  289.41 0855.23
2009/04/23 10:41:01.7     279    -54    213    285    355 101.0  40.6  34152  289.42 0855.23
2009/04/23 10:41:01.8     227    -83    150    242    284 110.2  35.0  34150  289.41 0855.23
2009/04/23 10:41:01.9      67    -14     80     69    105 102.4  54.8  34154  289.46 0855.23
2009/04/23 10:41:02.0     -41     65     68     78    103 327.5  46.4  34158  289.55 0855.23
2009/04/23 10:41:02.1     -85     -2     67     86    109 268.3  42.2  34158  289.53 0855.23
2009/04/23 10:41:02.2    -104    -40    -14    112    113 248.7  -7.3  34154  289.46 0855.23
2009/04/23 10:41:02.3    -127    -42    -61    135    148 251.4 -30.6  34150  289.41 0855.23
2009/04/23 10:41:02.4    -134    -61     11    148    149 245.6   4.4  34150  289.41 0855.23
2009/04/23 10:41:02.5    -214     15    -27    215    217 274.1  -7.3  34148  289.38 0855.23
2009/04/23 10:41:02.6    -304     -1    -58    305    311 269.6 -10.9  34162  289.61 0855.23
2009/04/23 10:41:02.7    -304    -44      4    308    309 261.6   0.8  34176  289.83 0855.23
2009/04/23 10:41:02.8    -281     13     72    282    292 272.8  14.3  34184  289.98 0855.23
2009/04/23 10:41:02.9    -288     92    -32    303    305 287.7  -6.1  34174  289.80 0855.23
2009/04/23 10:41:03.0    -154    128      1    201    202 309.8   0.5  34172  289.77 0855.22
2009/04/23 10:41:03.1    -217     23     28    219    221 276.1   7.5  34160  289.58 0855.22
2009/04/23 10:41:03.2    -118    143    154    186    241 320.4  43.8  34164  289.65 0855.22
2009/04/23 10:41:03.3     -18   -121    131    123    179 188.5  52.0  34160  289.58 0855.22
2009/04/23 10:41:03.4    -146   -213    202    259    328 214.5  42.0  34178  289.88 0855.22
2009/04/23 10:41:03.5    -279    -22    135    280    310 265.4  27.3  34180  289.92 0855.22
2009/04/23 10:41:03.6    -223    161     42    276    280 305.9   8.8  34166  289.68 0855.22
2009/04/23 10:41:03.7    -152    143     21    209    211 313.2   5.9  34154  289.48 0855.22
2009/04/23 10:41:03.8    -119     47    168    129    211 291.7  58.5  34174  289.80 0855.22
2009/04/23 10:41:03.9     -16    -42    226     45    230 200.9  89.1  34186  290.01 0855.22
2009/04/23 10:41:04.0     -41     -7    147     42    152 259.4  83.9  34176  289.84 0855.22
2009/04/23 10:41:04.1    -127     59    117    141    183 294.8  43.8  34166  289.67 0855.22
2009/04/23 10:41:04.2     -56    167    149    177    231 341.3  44.1  34168  289.70 0855.22
2009/04/23 10:41:04.3     -79   -100    147    128    194 218.3  54.8  34168  289.70 0855.22
2009/04/23 10:41:04.4      -2      0    124      3    124 270.0  90.0  34172  289.79 0855.22
2009/04/23 10:41:04.5     -56   -140    144    151    208 201.8  48.7  34162  289.62 0855.22
2009/04/23 10:41:04.6     -57    -98    132    114    174 210.3  54.8  34166  289.69 0855.22
2009/04/23 10:41:04.7     -67   -210    163    221    274 197.8  40.1  34156  289.49 0855.22
2009/04/23 10:41:04.8     -69   -181    131    194    234 200.9  37.0  34156  289.50 0855.22
2009/04/23 10:41:04.9     -77   -198     81    213    227 201.4  21.7  34156  289.52 0855.22
2009/04/23 10:41:05.0     -65   -157     93    170    193 202.5  31.3  34154  289.48 0855.21
2009/04/23 10:41:05.1      25   -220    115    222    250 173.3  29.3  34156  289.51 0855.21
2009/04/23 10:41:05.2      29   -100    103    105    147 163.5  49.9  34154  289.48 0855.21
2009/04/23 10:41:05.3     160   -105    111    192    221 123.5  32.9  34156  289.50 0855.21
2009/04/23 10:41:05.4      46   -173    122    179    216 165.1  37.6  34154  289.48 0855.21
2009/04/23 10:41:05.5      12   -157     83    158    178 175.6  30.1  34152  289.43 0855.21
2009/04/23 10:41:05.6      59   -106    101    122    158 151.0  44.1  34156  289.52 0855.21
2009/04/23 10:41:05.7      74   -109     75    132    151 145.8  31.9  34152  289.45 0855.21
2009/04/23 10:41:05.8       5    -65     65     66     92 175.6  50.5  34156  289.50 0855.21
2009/04/23 10:41:05.9      18    -95     54     97    111 169.3  31.4  34156  289.50 0855.21
2009/04/23 10:41:06.0      32   -112     62    117    132 164.0  29.8  34160  289.57 0855.17
2009/04/23 10:41:06.1      -9   -101     50    102    113 185.3  27.8  34156  289.50 0855.17
2009/04/23 10:41:06.2      -7   -115      2    116    117 183.6   1.2  34154  289.46 0855.17
2009/04/23 10:41:06.3     -57   -104      0    119    120 209.0  -0.3  34154  289.46 0855.17
2009/04/23 10:41:06.4     -52    -94     81    108    135 209.0  40.7  34154  289.46 0855.17
2009/04/23 10:41:06.5     -15    -44     84     47     96 198.7  68.3  34166  289.69 0855.17
2009/04/23 10:41:06.6     -27      9     85     29     89 288.4  81.2  34178  289.89 0855.17
2009/04/23 10:41:06.7     -83     83     50    118    128 315.0  24.6  34168  289.72 0855.17
2009/04/23 10:41:06.8     -68     68     35     97    103 315.0  20.4  34168  289.72 0855.17
2009/04/23 10:41:06.9     -28     43     50     52     72 326.6  50.0  34170  289.75 0855.17
2009/04/23 10:41:07.0     -83    -48     13     97     98 239.8   8.0  34174  289.80 0855.17
2009/04/23 10:41:07.1    -233   -111     36    259    262 244.5   8.0  34192  290.12 0855.17
2009/04/23 10:41:07.2    -269     -7     34    270    273 268.5   7.2  34186  290.02 0855.17
2009/04/23 10:41:07.3    -220      3     26    221    223 270.8   6.9  34180  289.92 0855.17
2009/04/23 10:41:07.4    -231    -25    -33    233    236 263.6  -8.3  34184  289.98 0855.17
2009/04/23 10:41:07.5    -250     18     21    251    252 274.1   4.9  34176  289.85 0855.17
2009/04/23 10:41:07.6    -218    -91     35    237    240 247.2   8.5  34176  289.83 0855.17
2009/04/23 10:41:07.7    -207   -161     72    263    273 232.2  15.3  34164  289.63 0855.17
2009/04/23 10:41:07.8    -103   -146     -6    179    180 215.2  -2.1  34154  289.48 0855.17
2009/04/23 10:41:07.9     -94   -151      1    179    180 211.9   0.5  34154  289.48 0855.17
2009/04/23 10:41:08.0     -20   -264     -7    265    266 184.5  -1.6  34152  289.44 0855.16
2009/04/23 10:41:08.1      96   -301     38    317    320 162.2   6.9  34144  289.31 0855.16
2009/04/23 10:41:08.2     -61   -479    229    483    534 187.4  27.3  34136  289.17 0855.16
2009/04/23 10:41:08.3     -16   -437    289    438    524 182.1  36.5  34136  289.18 0855.16
2009/04/23 10:41:08.4      29   -370    219    372    431 175.4  33.3  34118  288.87 0855.16
2009/04/23 10:41:08.5     103   -370    289    385    481 164.4  40.7  34134  289.12 0855.16
2009/04/23 10:41:08.6      -5   -231    227    232    324 181.4  49.4  34136  289.17 0855.16
2009/04/23 10:41:08.7      60   -174    226    185    292 160.8  56.4  34144  289.29 0855.16
2009/04/23 10:41:08.8     148   -280    292    317    430 152.1  47.5  34136  289.15 0855.16
2009/04/23 10:41:08.9     130    -83    207    155    258 122.4  59.6  34132  289.11 0855.16
2009/04/23 10:41:09.0      17     39    146     43    152  23.6  82.8  34160  289.57 0855.16
2009/04/23 10:41:09.1     -38     31    130     50    139 309.5  78.2  34152  289.43 0855.16
2009/04/23 10:41:09.2     -22    -46     29     52     59 205.5  31.4  34146  289.33 0855.16
2009/04/23 10:41:09.3     -77    -72     71    106    127 226.8  37.0  34142  289.26 0855.16
2009/04/23 10:41:09.4     -87   -105     93    137    165 219.6  37.3  34134  289.13 0855.16
2009/04/23 10:41:09.5    -106    -19    125    108    165 259.4  54.8  34152  289.45 0855.16
2009/04/23 10:41:09.6     -46      1     63     47     78 271.7  59.0  34154  289.48 0855.16
2009/04/23 10:41:09.7     -95   -210    132    231    266 204.5  32.3  34150  289.41 0855.16
2009/04/23 10:41:09.8    -127    -82     96    152    179 237.1  35.5  34162  289.62 0855.16
2009/04/23 10:41:09.9    -107   -132    169    171    240 219.0  50.0  34170  289.74 0855.16
2009/04/23 10:41:10.0    -278   -141    156    312    348 243.1  28.5  34164  289.65 0855.16
2009/04/23 10:41:10.1    -145   -232    199    274    338 212.1  39.7  34138  289.20 0855.16
2009/04/23 10:41:10.2    -177   -274    245    327    408 213.0  40.6  34146  289.32 0855.16
2009/04/23 10:41:10.3     -95   -167    214    193    288 209.6  53.3  34146  289.32 0855.16
2009/04/23 10:41:10.4       0    -53    151     54    160 179.1  79.9  34160  289.57 0855.16
2009/04/23 10:41:10.5    -155      2    113    156    192 270.9  39.5  34154  289.46 0855.16
2009/04/23 10:41:10.6    -151     82    206    172    268 298.6  56.3  34170  289.75 0855.16
2009/04/23 10:41:10.7    -130    -45     83    138    161 250.9  33.7  34170  289.74 0855.16
2009/04/23 10:41:10.8     -10   -122     42    123    131 184.9  18.9  34174  289.82 0855.16
2009/04/23 10:41:10.9    -249     -8    148    250    290 268.1  33.5  34158  289.54 0855.16
2009/04/23 10:41:11.0    -300     70    127    309    334 283.3  23.7  34150  289.41 0855.16
2009/04/23 10:41:11.1    -264    167    156    313    349 302.4  28.4  34188  290.03 0855.16
2009/04/23 10:41:11.2    -171   -108    186    203    275 237.6  47.1  34156  289.51 0855.16
2009/04/23 10:41:11.3    -125   -103    156    162    224 230.5  49.0  34160  289.58 0855.16
2009/04/23 10:41:11.4    -139      1    176    140    224 270.8  57.1  34160  289.58 0855.16
2009/04/23 10:41:11.5    -112    344    214    362    420 341.9  33.5  34198  290.22 0855.16
2009/04/23 10:41:11.6      19    209    246    210    323   5.3  55.4  34212  290.46 0855.16
2009/04/23 10:41:11.7     -11    181    225    182    289 356.4  56.9  34202  290.29 0855.16
2009/04/23 10:41:11.8    -101     24     84    104    133 283.7  43.7  34172  289.79 0855.16
2009/04/23 10:41:11.9    -195      8    127    196    233 272.4  35.6  34174  289.80 0855.16
2009/04/23 10:41:12.0    -175     23     -8    177    178 277.7  -2.8  34158  289.55 0855.15
2009/04/23 10:41:12.1      11    -57    175     59    184 168.5  81.2  34184  289.97 0855.15
2009/04/23 10:41:12.2     114     90    117    146    187  51.8  43.3  34180  289.91 0855.15
2009/04/23 10:41:12.3     -10     65     85     66    107 351.1  57.9  34176  289.84 0855.15
2009/04/23 10:41:12.4      58     46    222     75    234  51.4  81.2  34168  289.70 0855.15
2009/04/23 10:41:12.5     120   -156    203    198    283 142.4  50.4  34132  289.09 0855.15
2009/04/23 10:41:12.6      70   -258    274    268    383 164.8  50.7  34126  289.01 0855.15
2009/04/23 10:41:12.7      53   -208    251    215    330 165.5  55.3  34118  288.87 0855.15
2009/04/23 10:41:12.8     112   -295    297    316    433 159.1  48.0  34126  288.98 0855.15
2009/04/23 10:41:12.9     133   -298    290    327    437 155.9  46.2  34120  288.90 0855.15
2009/04/23 10:41:13.0     158   -274    252    317    404 150.1  42.7  34122  288.94 0855.15
2009/04/23 10:41:13.1     165   -257    238    306    387 147.3  41.9  34116  288.82 0855.15
2009/04/23 10:41:13.2     -89   -263    148    278    314 198.7  30.3  34120  288.88 0855.15
2009/04/23 10:41:13.3    -220   -401    242    458    518 208.8  30.1  34114  288.78 0855.15
2009/04/23 10:41:13.4    -167   -389    147    424    449 203.3  19.2  34104  288.63 0855.15
2009/04/23 10:41:13.5    -241   -405    231    472    525 210.8  28.0  34126  289.00 0855.15
2009/04/23 10:41:13.6    -184   -278    438    334    550 213.6  59.0  34142  289.28 0855.15
2009/04/23 10:41:13.7     -73   -279    234    289    371 194.7  43.3  34120  288.89 0855.15
2009/04/23 10:41:13.8     -14   -316    121    317    339 182.7  21.8  34128  289.04 0855.15
2009/04/23 10:41:13.9     155   -341     46    375    378 155.5   7.1  34126  288.98 0855.15
2009/04/23 10:41:14.0      66   -203     51    214    221 162.0  13.5  34120  288.89 0855.16
2009/04/23 10:41:14.1    -105   -223    235    247    340 205.4  48.5  34122  288.93 0855.16
2009/04/23 10:41:14.2     -51   -273    243    278    369 190.7  45.7  34130  289.08 0855.16
2009/04/23 10:41:14.3     -92   -262    217    278    352 199.4  41.9  34126  288.98 0855.16
2009/04/23 10:41:14.4      16   -242    198    243    313 176.2  43.4  34130  289.05 0855.16
2009/04/23 10:41:14.5      40   -237    195    241    310 170.3  43.7  34132  289.09 0855.16
2009/04/23 10:41:14.6      76   -219    201    232    306 160.8  45.4  34140  289.24 0855.16
2009/04/23 10:41:14.7     110   -351    127    368    390 162.6  19.1  34130  289.08 0855.16
2009/04/23 10:41:14.8      81   -339    133    349    373 166.4  22.0  34128  289.03 0855.16
2009/04/23 10:41:14.9     103   -223    181    246    305 155.1  39.7  34128  289.03 0855.16
2009/04/23 10:41:15.0     159   -404    207    435    481 158.4  27.3  34130  289.05 0855.16
2009/04/23 10:41:15.1     174   -491    195    522    557 160.4  21.4  34118  288.85 0855.16
2009/04/23 10:41:15.2      73   -413    371    420    560 169.9  45.9  34128  289.03 0855.16
2009/04/23 10:41:15.3     175   -409    334    446    557 156.8  40.6  34138  289.19 0855.16
2009/04/23 10:41:15.4     223   -321    261    392    470 145.2  37.0  34130  289.05 0855.16
2009/04/23 10:41:15.5     302   -284    251    415    485 133.2  34.0  34124  288.97 0855.16
2009/04/23 10:41:15.6     264   -230    261    351    437 131.0  40.4  34126  288.99 0855.16
2009/04/23 10:41:15.7     204   -280    308    347    463 143.9  46.1  34128  289.04 0855.16
2009/04/23 10:41:15.8     103   -176    207    205    291 149.7  50.1  34134  289.14 0855.16
2009/04/23 10:41:15.9      17    -17    140     25    142 135.0  90.0  34142  289.28 0855.16
2009/04/23 10:41:16.0       0    -22    138     23    139 179.1  90.0  34142  289.26 0855.15
2009/04/23 10:41:16.1       1    -71    176     72    190 179.0  76.8  34140  289.23 0855.15
2009/04/23 10:41:16.2      36   -291    167    294    338 172.9  32.0  34128  289.02 0855.15
2009/04/23 10:41:16.3     257   -378    128    458    476 145.8  15.7  34130  289.05 0855.15
2009/04/23 10:41:16.4     -85   -202    107    220    244 202.9  27.8  34128  289.02 0855.15
2009/04/23 10:41:16.5      -8   -277    158    278    319 181.8  32.3  34128  289.03 0855.15
2009/04/23 10:41:16.6      55   -272    266    278    384 168.4  48.7  34130  289.06 0855.15
2009/04/23 10:41:16.7      -9   -208    199    209    288 182.5  48.7  34134  289.14 0855.15
2009/04/23 10:41:16.8      -9   -131    144    132    195 184.0  52.7  34142  289.26 0855.15
2009/04/23 10:41:16.9    -110   -311    237    330    406 199.5  39.2  34136  289.15 0855.15
2009/04/23 10:41:17.0    -138   -380    224    405    462 200.0  31.4  34130  289.07 0855.15
2009/04/23 10:41:17.1      62   -206    253    216    332 163.1  55.4  34128  289.03 0855.15
2009/04/23 10:41:17.2     -92   -339    360    352    503 195.3  50.7  34138  289.21 0855.15
2009/04/23 10:41:17.3      -5   -307    340    308    458 181.1  53.3  34128  289.04 0855.15
2009/04/23 10:41:17.4     114   -289    333    311    455 158.4  52.2  34134  289.14 0855.15
2009/04/23 10:41:17.5     120   -365    284    385    478 161.7  40.1  34130  289.05 0855.15
2009/04/23 10:41:17.6      34   -344    252    346    428 174.2  39.7  34132  289.11 0855.15
2009/04/23 10:41:17.7    -110   -371    267    387    470 196.5  38.0  34136  289.16 0855.15
2009/04/23 10:41:17.8    -131   -332    173    358    397 201.6  27.8  34132  289.11 0855.15
2009/04/23 10:41:17.9     -83   -313    115    324    344 195.0  19.6  34124  288.96 0855.15
2009/04/23 10:41:18.0       7   -250    165    251    300 178.2  36.5  34130  289.05 0855.15
2009/04/23 10:41:18.1     -32   -224     90    227    244 188.1  22.5  34132  289.09 0855.15
2009/04/23 10:41:18.2     -29    -48     59     57     82 211.6  50.7  34132  289.11 0855.15
2009/04/23 10:41:18.3     -42     49     81     65    103 319.5  56.9  34154  289.46 0855.15
2009/04/23 10:41:18.4     -18     56    110     59    124 341.7  69.3  34154  289.48 0855.15
2009/04/23 10:41:18.5     -91     65     13    112    113 305.5   6.9  34140  289.23 0855.15
2009/04/23 10:41:18.6     -29     92    -22     97    100 342.2 -12.9  34138  289.21 0855.15
2009/04/23 10:41:18.7     -20    145    -50    147    156 351.9 -19.1  34134  289.14 0855.15
2009/04/23 10:41:18.8     -81     75    -89    111    142 313.1 -48.1  34136  289.18 0855.15
2009/04/23 10:41:18.9      38    115   -107    122    162  18.5 -50.2  34144  289.31 0855.15
2009/04/23 10:41:19.0      64    204   -102    215    237  17.6 -31.6  34160  289.57 0855.15
2009/04/23 10:41:19.1      96    140    -43    170    176  34.5 -14.3  34182  289.96 0855.15
2009/04/23 10:41:19.2      29     43     -2     53     54  34.3  -2.2  34180  289.91 0855.15
2009/04/23 10:41:19.3     -94    139   -131    169    213 325.9 -46.1  34162  289.62 0855.15
2009/04/23 10:41:19.4     -40     75    -77     86    115 331.9 -51.3  34166  289.69 0855.15
2009/04/23 10:41:19.5      62     39      3     74     75  57.5   2.9  34170  289.75 0855.15
2009/04/23 10:41:19.6     -10     47      9     49     50 347.5  11.1  34184  289.99 0855.15
2009/04/23 10:41:19.7     -51     54    107     75    130 316.8  61.5  34182  289.96 0855.15
2009/04/23 10:41:19.8    -172    161    133    236    270 313.1  31.9  34166  289.66 0855.15
2009/04/23 10:41:19.9    -258    104     77    279    290 292.0  15.6  34160  289.58 0855.15
2009/04/23 10:41:20.0    -271    138    176    305    352 297.1  32.7  34158  289.55 0855.14
2009/04/23 10:41:20.1    -232     -6     88    233    249 268.3  21.5  34164  289.63 0855.14
2009/04/23 10:41:20.2    -226   -224    114    319    338 225.3  20.4  34134  289.13 0855.14
2009/04/23 10:41:20.3    -247   -328    143    411    435 217.0  20.0  34134  289.14 0855.14
2009/04/23 10:41:20.4    -133   -305     61    334    340 203.6  10.4  34144  289.30 0855.14
2009/04/23 10:41:20.5    -185   -209     31    280    282 221.4   6.5  34146  289.34 0855.14
2009/04/23 10:41:20.6     -65   -181     86    193    211 200.0  25.3  34140  289.24 0855.14
2009/04/23 10:41:20.7     -28   -105    137    109    175 195.2  57.5  34148  289.38 0855.14
2009/04/23 10:41:20.8    -129   -140    121    191    226 222.5  35.5  34136  289.16 0855.14
2009/04/23 10:41:20.9    -235    -47     47    240    245 258.5  11.1  34156  289.51 0855.14
2009/04/23 10:41:21.0    -257     56   -151    264    304 282.3 -36.7  34176  289.83 0855.14
2009/04/23 10:41:21.1    -313     44    -97    317    331 278.0 -22.2  34150  289.39 0855.14
2009/04/23 10:41:21.2    -330   -224     37    400    402 235.8   5.4  34152  289.42 0855.14
2009/04/23 10:41:21.3    -347   -346     93    491    500 225.1  10.8  34142  289.25 0855.14
2009/04/23 10:41:21.4    -305   -333      6    452    453 222.5   0.8  34130  289.07 0855.14
2009/04/23 10:41:21.5    -192   -330    -49    383    387 210.2  -7.4  34136  289.15 0855.14
2009/04/23 10:41:21.6    -124   -294    -69    320    328 202.9 -12.3  34136  289.17 0855.14
2009/04/23 10:41:21.7    -124   -131    -25    181    183 223.4  -8.0  34134  289.13 0855.14
2009/04/23 10:41:21.8     147   -326   -101    358    373 155.7 -15.8  34138  289.20 0855.14
2009/04/23 10:41:21.9     -76   -391   -120    399    416 191.0 -21.7  34130  289.05 0855.14
2009/04/23 10:41:22.0     -21   -304   -129    305    331 184.0 -28.6  34128  289.02 0855.13
2009/04/23 10:41:22.1    -104   -261    -91    282    297 201.8 -17.9  34128  289.02 0855.13
2009/04/23 10:41:22.2     -32   -282     -3    284    285 186.5  -0.7  34130  289.07 0855.13
2009/04/23 10:41:22.3       0   -345    -77    346    355 179.9 -12.7  34136  289.15 0855.13
2009/04/23 10:41:22.4    -128   -379    -84    401    410 198.7 -11.9  34132  289.09 0855.13
2009/04/23 10:41:22.5     -43   -281    -92    285    299 188.7 -23.0  34130  289.05 0855.13
2009/04/23 10:41:22.6     129   -271    -26    301    303 154.5  -5.1  34136  289.15 0855.13
2009/04/23 10:41:22.7      95   -247      8    265    266 158.8   1.8  34134  289.14 0855.13
2009/04/23 10:41:22.8      80   -196    173    212    273 157.7  43.5  34132  289.09 0855.13
2009/04/23 10:41:22.9     -19   -246    157    247    292 184.5  35.5  34134  289.12 0855.13
2009/04/23 10:41:23.0    -135   -189   -113    233    258 215.6 -32.2  34124  288.97 0855.13
2009/04/23 10:41:23.1    -179    -73    117    194    226 247.6  34.0  34132  289.09 0855.13
2009/04/23 10:41:23.2    -277   -169     59    325    331 238.5  10.3  34134  289.13 0855.13
2009/04/23 10:41:23.3    -204   -186     59    277    284 227.6  12.2  34132  289.10 0855.13
2009/04/23 10:41:23.4     -99   -209    111    232    257 205.5  27.3  34120  288.90 0855.13
2009/04/23 10:41:23.5    -103   -304    117    322    342 198.7  20.7  34136  289.16 0855.13
2009/04/23 10:41:23.6    -156   -390     46    421    424 201.8   6.4  34138  289.19 0855.13
2009/04/23 10:41:23.7     -31   -338      1    340    341 185.3   0.2  34128  289.04 0855.13
2009/04/23 10:41:23.8    -190   -304    122    359    380 212.0  18.8  34142  289.25 0855.13
2009/04/23 10:41:23.9    -253   -305     17    397    398 219.6   2.5  34136  289.15 0855.13
2009/04/23 10:41:24.0    -130   -412    168    433    464 197.6  22.3  34128  289.02 0855.15
2009/04/23 10:41:24.1     -22   -380     96    381    393 183.4  14.2  34130  289.06 0855.15
2009/04/23 10:41:24.2     266   -226    255    350    433 130.3  39.7  34132  289.11 0855.15
2009/04/23 10:41:24.3     199   -282    148    346    376 144.8  24.6  34116  288.84 0855.15
2009/04/23 10:41:24.4      94   -369    283    381    474 165.7  40.2  34128  289.02 0855.15
2009/04/23 10:41:24.5     116   -303    230    325    398 159.0  38.7  34120  288.91 0855.15
2009/04/23 10:41:24.6     147   -180    194    233    303 140.6  43.8  34124  288.95 0855.15
2009/04/23 10:41:24.7     137    -69     94    154    180 117.0  34.4  34126  289.01 0855.15
2009/04/23 10:41:24.8     216    -36     20    219    221  99.5   5.4  34132  289.09 0855.15
2009/04/23 10:41:24.9     228    -57     37    236    239 104.2   9.0  34128  289.02 0855.15
2009/04/23 10:41:25.0     210   -162    199    266    332 127.8  40.6  34134  289.12 0855.15
2009/04/23 10:41:25.1     129   -259    236    290    373 153.5  43.5  34126  288.98 0855.15
2009/04/23 10:41:25.2       8   -168    181    169    247 177.1  52.2  34136  289.18 0855.15
2009/04/23 10:41:25.4      30   -310    238    312    392 174.4  41.3  34128  289.04 0855.15
2009/04/23 10:41:25.4      43    -97    169    107    200 155.9  64.7  34136  289.18 0855.15
2009/04/23 10:41:25.5      65   -322    250    329    413 168.4  41.1  34136  289.16 0855.15
2009/04/23 10:41:25.6      88   -306    181    319    366 164.0  32.1  34132  289.10 0855.15
2009/04/23 10:41:25.7     -60   -427    115    432    448 188.1  14.9  34124  288.97 0855.15
2009/04/23 10:41:25.8    -121   -385    152    404    431 197.5  21.7  34124  288.97 0855.15
2009/04/23 10:41:25.9      -6   -317    110    318    337 181.1  19.2  34132  289.11 0855.15
2009/04/23 10:41:26.0     142   -345    161    374    407 157.6  24.8  34110  288.74 0855.17
2009/04/23 10:41:26.1      62   -411    251    416    485 171.4  34.0  34112  288.77 0855.17
2009/04/23 10:41:26.2      80   -422    339    430    547 169.2  42.2  34110  288.73 0855.17
2009/04/23 10:41:26.3     166   -279    279    325    428 149.3  45.0  34126  288.98 0855.17
2009/04/23 10:41:26.4     104   -525    346    536    637 168.8  35.9  34104  288.61 0855.17
2009/04/23 10:41:26.5      30   -499    345    500    607 176.5  38.0  34100  288.56 0855.17
2009/04/23 10:41:26.6     213   -279    364    352    506 142.7  51.2  34130  289.07 0855.17
2009/04/23 10:41:26.7     133    -56    296    145    329 113.1  72.2  34134  289.12 0855.17
2009/04/23 10:41:26.8     203     41    172    208    269  78.5  43.8  34128  289.02 0855.17
2009/04/23 10:41:26.9     153   -228    188    275    333 146.2  37.8  34120  288.88 0855.17
2009/04/23 10:41:27.0      29   -527    269    528    592 176.8  29.2  34128  289.03 0855.19
2009/04/23 10:41:27.2     138   -361    238    387    454 159.0  34.5  34128  289.04 0855.19
2009/04/23 10:41:27.2     305   -208    231    370    436 124.4  35.0  34124  288.97 0855.19
2009/04/23 10:41:27.3     199   -280    224    344    410 144.6  36.2  34120  288.91 0855.19
2009/04/23 10:41:27.4     254   -260    208    364    419 135.7  32.4  34122  288.94 0855.19
2009/04/23 10:41:27.5     187   -219    247    289    380 139.5  45.0  34120  288.91 0855.19
2009/04/23 10:41:27.7     130   -234    281    268    388 151.0  51.5  34120  288.88 0855.19
2009/04/23 10:41:27.7      44   -332    301    335    450 172.4  46.6  34118  288.85 0855.19
2009/04/23 10:41:27.8      23   -344    288    345    449 176.1  44.0  34116  288.82 0855.19
2009/04/23 10:41:28.0      63   -344    248    350    428 169.5  38.7  34116  288.82 0855.19
2009/04/23 10:41:28.1       4   -196    179    197    266 178.6  47.0  34114  288.78 0855.19
2009/04/23 10:41:28.2     -47   -277    273    282    392 189.7  49.0  34106  288.67 0855.19
2009/04/23 10:41:28.3     -78   -272    268    284    390 196.0  48.0  34112  288.77 0855.19
2009/04/23 10:41:28.4     -74   -323    305    332    450 192.9  47.5  34114  288.80 0855.19
2009/04/23 10:41:28.5     -33   -262    261    265    371 187.2  49.8  34116  288.82 0855.19
2009/04/23 10:41:28.6     -95   -370    204    383    433 194.4  30.3  34114  288.78 0855.19
2009/04/23 10:41:28.7    -117   -229    197    258    324 207.0  41.3  34112  288.75 0855.19
2009/04/23 10:41:28.8    -230     17     35    231    234 274.4   8.8  34112  288.76 0855.19
2009/04/23 10:41:28.9    -269     63      3    277    278 283.2   0.7  34112  288.75 0855.19
2009/04/23 10:41:29.0    -282    207     62    350    356 306.3  10.1  34116  288.82 0855.19
2009/04/23 10:41:29.1     -62     87     -2    107    108 324.4  -1.3  34124  288.97 0855.21
2009/04/23 10:41:29.2     -30     55     82     63    103 331.0  58.5  34126  288.99 0855.21
2009/04/23 10:41:29.3     143     12    111    144    181  85.2  41.7  34128  289.04 0855.21
2009/04/23 10:41:29.4     202   -132    -28    242    244 123.1  -6.7  34124  288.95 0855.21
2009/04/23 10:41:29.5     213    -43     -4    218    219 101.4  -1.3  34122  288.92 0855.21
2009/04/23 10:41:29.6     219     40     29    223    225  79.6   7.5  34116  288.84 0855.21
2009/04/23 10:41:29.7     362    109     37    379    381  73.2   5.7  34116  288.84 0855.21
2009/04/23 10:41:29.8     291    183    122    344    366  57.8  19.5  34112  288.76 0855.21
2009/04/23 10:41:29.9     347     68    152    354    385  78.8  24.9  34112  288.77 0855.21
2009/04/23 10:41:30.0     284    -30    212    286    356  96.1  40.2  34110  288.71 0855.21
2009/04/23 10:41:30.1     174    -58    271    184    327 108.4  62.7  34112  288.76 0855.21
2009/04/23 10:41:30.2     167    -10    188    168    252  93.7  53.5  34112  288.75 0855.21
2009/04/23 10:41:30.3     221    -58    237    229    329 104.8  50.9  34112  288.76 0855.21
2009/04/23 10:41:30.4     232     25    144    234    274  83.8  34.5  34106  288.65 0855.21
2009/04/23 10:41:30.5      21      7    131     23    133  71.8  90.0  34114  288.79 0855.21
2009/04/23 10:41:30.6     -95     31    133    100    166 288.2  59.4  34118  288.87 0855.21
2009/04/23 10:41:30.7     -54     42    174     69    187 307.8  77.1  34124  288.97 0855.21
2009/04/23 10:41:30.8      33    -45    141     56    151 143.9  77.1  34118  288.87 0855.21
2009/04/23 10:41:30.9      75      5    215     76    228  85.6  80.2  34120  288.91 0855.21
2009/04/23 10:41:31.0     107     68    223    128    257  57.5  67.7  34108  288.69 0855.21
2009/04/23 10:41:31.1       0    176    240    177    298   0.0  60.5  34108  288.70 0855.21
2009/04/23 10:41:31.2      85    216    134    233    268  21.6  32.4  34102  288.58 0855.21
2009/04/23 10:41:31.3    -134    270    267    302    403 333.5  45.9  34114  288.79 0855.21
2009/04/23 10:41:31.4     -82    305    232    316    392 344.9  40.0  34126  288.98 0855.21
2009/04/23 10:41:31.5     267    100    280    286    400  69.4  49.7  34116  288.82 0855.21
2009/04/23 10:41:31.6     -27     34    157     44    163 322.2  84.1  34126  289.01 0855.21
2009/04/23 10:41:31.7      47     51    241     70    250  43.2  83.5  34124  288.96 0855.21
2009/04/23 10:41:31.8     -44    133    257    141    293 341.7  68.9  34120  288.90 0855.21
2009/04/23 10:41:31.9     192     48    285    199    347  75.8  61.7  34120  288.88 0855.21
2009/04/23 10:41:32.0     170     85    285    191    343  63.4  63.1  34114  288.78 0855.21
2009/04/23 10:41:32.1    -147     35    159    152    219 283.7  51.4  34130  289.08 0855.21
2009/04/23 10:41:32.2    -200     85    209    218    302 293.1  49.0  34124  288.95 0855.21
2009/04/23 10:41:32.3    -137    -14    142    138    198 263.8  50.7  34122  288.94 0855.21
2009/04/23 10:41:32.4    -121      9    154    122    196 274.3  57.7  34136  289.16 0855.21
2009/04/23 10:41:32.5      20     99    230    102    251  11.6  74.8  34122  288.94 0855.21
2009/04/23 10:41:32.6    -164    198    183    258    316 320.4  38.8  34128  289.02 0855.21
2009/04/23 10:41:32.7    -436     41    210    439    486 275.4  27.3  34130  289.08 0855.21
2009/04/23 10:41:32.8    -371    173    180    410    447 295.1  25.2  34120  288.89 0855.21
2009/04/23 10:41:32.9    -295     14    198    296    356 272.8  37.2  34136  289.15 0855.21
2009/04/23 10:41:33.0    -312   -122    264    336    427 248.6  42.2  34138  289.21 0855.21
2009/04/23 10:41:33.1    -245   -221    174    331    373 227.9  30.0  34142  289.26 0855.22
2009/04/23 10:41:33.2    -257   -316    321    408    519 219.2  42.2  34114  288.79 0855.22
2009/04/23 10:41:33.3    -122   -306    329    330    465 201.9  50.0  34110  288.72 0855.22
2009/04/23 10:41:33.4    -108   -371    364    387    531 196.3  48.0  34110  288.71 0855.22
2009/04/23 10:41:33.5    -184   -329    441    378    580 209.2  55.3  34114  288.80 0855.22
2009/04/23 10:41:33.6      17   -209    374    210    428 175.3  68.3  34116  288.81 0855.22
2009/04/23 10:41:33.7      -4   -280    335    281    437 180.9  55.8  34132  289.11 0855.22
2009/04/23 10:41:33.8     163   -602    271    624    680 164.8  25.0  34106  288.66 0855.22
2009/04/23 10:41:33.9     235   -687    242    727    767 161.1  18.4  34108  288.68 0855.22
2009/04/23 10:41:34.0     270   -526    182    592    620 152.8  17.1  34104  288.64 0855.22
2009/04/23 10:41:34.1     271   -536    206    601    636 153.2  18.9  34102  288.60 0855.22
2009/04/23 10:41:34.2     171   -454    252    486    547 159.3  29.6  34102  288.60 0855.22
2009/04/23 10:41:34.3       8   -356    138    357    382 178.6  22.3  34110  288.72 0855.22
2009/04/23 10:41:34.4    -111   -379    117    395    413 196.4  16.5  34116  288.82 0855.22
2009/04/23 10:41:34.5    -111   -387    173    403    438 196.0  24.9  34120  288.89 0855.22
2009/04/23 10:41:34.6     -95   -360    188    373    417 194.9  28.7  34120  288.90 0855.22
2009/04/23 10:41:34.7     -42   -327    208    330    390 187.4  35.5  34116  288.82 0855.22
2009/04/23 10:41:34.8     -78   -335    197    344    396 193.1  32.4  34120  288.89 0855.22
2009/04/23 10:41:34.9     -54   -374    135    378    401 188.2  20.3  34122  288.94 0855.22
2009/04/23 10:41:35.0      41   -395     84    398    407 174.0  12.0  34120  288.89 0855.22
2009/04/23 10:41:35.1     121   -355     30    376    378 161.2   4.7  34114  288.79 0855.23
2009/04/23 10:41:35.2     131   -257     90    289    303 153.0  17.3  34114  288.78 0855.23
2009/04/23 10:41:35.3      10   -104    106    105    149 174.2  50.1  34126  289.01 0855.23
2009/04/23 10:41:35.4      19    -89    108     92    141 167.5  55.4  34126  288.99 0855.23
2009/04/23 10:41:35.5     -59   -164    112    175    207 200.0  35.6  34118  288.87 0855.23
2009/04/23 10:41:35.6     -80   -249     46    262    267 197.9  10.1  34118  288.87 0855.23
2009/04/23 10:41:35.7     -60   -380     20    385    386 189.1   3.0  34116  288.81 0855.23
2009/04/23 10:41:35.8      79   -275     27    287    289 164.0   5.4  34118  288.85 0855.23
2009/04/23 10:41:35.9     127   -198     73    236    248 147.4  17.3  34116  288.83 0855.23
2009/04/23 10:41:36.0     118   -153     23    194    196 142.4   6.9  34112  288.77 0855.23
2009/04/23 10:41:36.1      43   -311    180    315    362 172.0  32.3  34118  288.86 0855.23
2009/04/23 10:41:36.2     -61   -275    222    282    358 192.5  42.2  34120  288.91 0855.23
2009/04/23 10:41:36.3      30    -45    184     55    192 145.7  83.1  34132  289.09 0855.23
2009/04/23 10:41:36.4     -66   -164    163    177    240 202.1  47.7  34114  288.80 0855.23
2009/04/23 10:41:36.5     -64   -165    196    178    264 201.2  53.2  34124  288.97 0855.23
2009/04/23 10:41:36.6      -2   -148    126    149    195 180.9  44.3  34120  288.91 0855.23
2009/04/23 10:41:36.7     -42   -284    203    288    352 188.5  38.7  34116  288.81 0855.23
2009/04/23 10:41:36.8      19   -311    222    312    382 176.4  39.2  34116  288.84 0855.23
2009/04/23 10:41:36.9       9   -351    100    352    366 178.4  15.9  34120  288.88 0855.23
2009/04/23 10:41:37.0      48   -467    105    470    482 174.1  12.6  34120  288.91 0855.23
2009/04/23 10:41:37.1      19   -418    161    419    448 177.4  22.1  34110  288.73 0855.23
2009/04/23 10:41:37.2      86   -357    201    368    419 166.5  31.3  34112  288.77 0855.23
2009/04/23 10:41:37.3      52   -373    333    377    503 172.0  45.9  34120  288.91 0855.23
2009/04/23 10:41:37.4     219   -329    260    396    473 146.3  36.5  34116  288.83 0855.23
2009/04/23 10:41:37.5     -19   -282    324    283    430 184.0  54.3  34120  288.89 0855.23
2009/04/23 10:41:37.6      15   -248    309    249    396 176.5  57.3  34122  288.94 0855.23
2009/04/23 10:41:37.7     129   -330    191    355    403 158.6  30.5  34114  288.79 0855.23
2009/04/23 10:41:37.8     264   -443    169    516    544 149.2  18.2  34116  288.84 0855.23
2009/04/23 10:41:37.9     221   -398     23    456    457 150.9   3.0  34116  288.83 0855.23
2009/04/23 10:41:38.0     144   -393     17    419    420 159.8   2.4  34116  288.83 0855.23
2009/04/23 10:41:38.1     118   -406     92    424    435 163.7  12.3  34114  288.80 0855.23
2009/04/23 10:41:38.2      68   -287    162    296    337 166.6  31.3  34118  288.85 0855.23
2009/04/23 10:41:38.3      39   -176    181    181    255 167.3  50.1  34120  288.90 0855.23
2009/04/23 10:41:38.4     158    -43    167    164    234 105.3  50.2  34124  288.96 0855.23
2009/04/23 10:41:38.5     266    -64    304    274    409 103.7  53.4  34122  288.94 0855.23
2009/04/23 10:41:38.6     308   -151    228    344    412 116.2  36.6  34122  288.94 0855.23
2009/04/23 10:41:38.7     223    -77    156    236    282 109.1  36.5  34118  288.87 0855.23
2009/04/23 10:41:38.8      69   -166    198    180    267 157.3  53.0  34126  289.00 0855.23
2009/04/23 10:41:38.9     178    -87     76    199    213 116.2  21.5  34124  288.97 0855.23
2009/04/23 10:41:39.0     160    -88     84    183    201 118.9  26.2  34124  288.96 0855.23
2009/04/23 10:41:39.1     141   -143     36    202    206 135.5  10.1  34120  288.91 0855.22
2009/04/23 10:41:39.2     108   -143      9    180    181 143.0   2.9  34120  288.89 0855.22
2009/04/23 10:41:39.3      73   -114     94    136    165 147.5  38.0  34126  289.01 0855.22
2009/04/23 10:41:39.4    -170   -189    157    255    299 221.9  34.8  34120  288.90 0855.22
2009/04/23 10:41:39.5    -121   -190    143    226    267 212.5  35.5  34122  288.92 0855.22
2009/04/23 10:41:39.6     -97   -318    204    333    390 197.0  34.4  34126  288.98 0855.22
2009/04/23 10:41:39.7     -62   -316    140    323    352 191.1  25.0  34122  288.93 0855.22
2009/04/23 10:41:39.8    -101   -340    180    355    398 196.7  29.1  34118  288.86 0855.22
2009/04/23 10:41:39.9    -156   -335    113    370    388 204.9  17.1  34120  288.88 0855.22
2009/04/23 10:41:40.0    -138   -334    136    362    386 202.4  21.6  34116  288.84 0855.22
2009/04/23 10:41:40.1    -129   -356    142    379    404 199.9  21.5  34120  288.88 0855.22
2009/04/23 10:41:40.2    -162   -303    110    344    362 208.1  17.7  34118  288.86 0855.22
2009/04/23 10:41:40.3    -187   -329     77    379    387 209.7  11.5  34116  288.84 0855.22
2009/04/23 10:41:40.4    -178   -361     86    403    413 206.3  12.1  34118  288.85 0855.22
2009/04/23 10:41:40.5    -134   -381     88    404    414 199.4  12.4  34120  288.89 0855.22
2009/04/23 10:41:40.6    -169   -388     20    424    425 203.5   2.8  34116  288.83 0855.22
2009/04/23 10:41:40.7    -179   -368     13    410    411 206.0   1.9  34116  288.82 0855.22
2009/04/23 10:41:40.8    -111   -301    -72    322    331 200.3 -12.7  34120  288.90 0855.22
2009/04/23 10:41:40.9    -218    -41    137    222    260 259.2  34.8  34124  288.95 0855.22
2009/04/23 10:41:41.0    -175   -307    144    354    382 209.7  23.4  34122  288.94 0855.22
2009/04/23 10:41:41.1    -181   -328     83    375    385 208.9  12.5  34126  288.98 0855.23
2009/04/23 10:41:41.2       0   -236   -111    237    261 179.8 -31.5  34126  288.98 0855.23
2009/04/23 10:41:41.3       3   -295     63    296    303 179.3  12.2  34124  288.95 0855.23
2009/04/23 10:41:41.4     -69   -450    -83    456    464 188.8 -10.4  34120  288.89 0855.23
2009/04/23 10:41:41.5    -274   -245      5    368    369 228.2   0.8  34126  288.99 0855.23
2009/04/23 10:41:41.6    -157   -260     86    304    317 211.2  15.9  34122  288.92 0855.23
2009/04/23 10:41:41.7     -68   -313    105    321    338 192.3  18.1  34120  288.88 0855.23
2009/04/23 10:41:41.8    -142   -337    128    366    388 202.8  19.3  34122  288.94 0855.23
2009/04/23 10:41:41.9    -115   -301    -17    323    324 201.0  -3.1  34120  288.88 0855.23
2009/04/23 10:41:42.0      25   -146     46    149    157 170.3  17.3  34122  288.92 0855.23
2009/04/23 10:41:42.1     101    -58     -4    117    118 119.8  -2.2  34126  288.99 0855.23
2009/04/23 10:41:42.2     108    -67     12    128    129 122.0   5.4  34126  288.99 0855.23
2009/04/23 10:41:42.3      73    -34     55     81     97 115.2  37.0  34130  289.06 0855.23
2009/04/23 10:41:42.4      33   -140     66    144    158 166.6  26.2  34132  289.11 0855.23
2009/04/23 10:41:42.5     -29   -205    120    208    240 188.2  32.4  34124  288.97 0855.23
2009/04/23 10:41:42.6      -7   -218    131    219    255 182.0  33.5  34126  289.00 0855.23
2009/04/23 10:41:42.7       4   -267    147    268    305 179.1  31.3  34120  288.90 0855.23
2009/04/23 10:41:42.8     114   -222    170    250    302 152.8  37.4  34130  289.05 0855.23
2009/04/23 10:41:42.9      26   -241    166    243    294 173.8  37.6  34122  288.93 0855.23
2009/04/23 10:41:43.0      20   -268    165    269    315 175.5  34.4  34128  289.02 0855.23
2009/04/23 10:41:43.1      10   -219    164    220    274 177.3  40.6  34128  289.02 0855.23
2009/04/23 10:41:43.2       2   -156    196    157    251 179.1  57.3  34130  289.06 0855.23
2009/04/23 10:41:43.3     -53   -193    189    201    275 195.6  48.0  34128  289.02 0855.23
2009/04/23 10:41:43.4     -16   -236    170    237    291 184.0  39.1  34126  289.00 0855.23
2009/04/23 10:41:43.5     -64   -255    156    263    305 194.2  33.5  34124  288.95 0855.23
2009/04/23 10:41:43.6      85   -319     25    331    332 165.0   4.3  34120  288.88 0855.23
2009/04/23 10:41:43.7     114   -353     42    372    375 162.1   6.6  34116  288.84 0855.23
2009/04/23 10:41:43.8     -63   -350    201    356    408 190.3  32.1  34122  288.93 0855.23
2009/04/23 10:41:43.9      28   -350     79    352    361 175.3  12.8  34122  288.93 0855.23
2009/04/23 10:41:44.0      78   -324    174    334    376 166.3  29.6  34122  288.94 0855.23
2009/04/23 10:41:44.1       0   -254     90    255    270 179.9  20.0  34120  288.88 0855.23
2009/04/23 10:41:44.2     -98   -196    119    220    250 206.7  30.6  34122  288.93 0855.23
2009/04/23 10:41:44.3    -202   -172     92    266    282 229.6  19.2  34124  288.95 0855.23
2009/04/23 10:41:44.4    -324   -159    -11    362    363 243.8  -1.8  34120  288.88 0855.23
2009/04/23 10:41:44.5    -261    -91    -15    277    278 250.7  -3.2  34122  288.93 0855.23
2009/04/23 10:41:44.6    -121   -190    143    226    267 212.5  35.5  34124  288.95 0855.23
2009/04/23 10:41:44.7     -71   -324     99    332    347 192.5  16.7  34128  289.04 0855.23
2009/04/23 10:41:44.8    -114   -396    160    413    442 196.1  22.3  34128  289.04 0855.23
2009/04/23 10:41:44.9    -106   -416    111    430    445 194.3  14.5  34130  289.05 0855.23
2009/04/23 10:41:45.0    -150   -287     15    325    326 207.6   2.8  34132  289.09 0855.23
2009/04/23 10:41:45.1     -96   -265      4    282    283 200.0   0.8  34130  289.07 0855.23
2009/04/23 10:41:45.2     -98   -205    -20    228    229 205.5  -5.2  34128  289.04 0855.23
2009/04/23 10:41:45.3     -17   -130     46    132    140 187.6  19.4  34132  289.09 0855.23
2009/04/23 10:41:45.4     183   -109    129    214    249 120.9  34.0  34134  289.14 0855.23
2009/04/23 10:41:45.5      85   -149    199    172    263 150.1  54.8  34136  289.17 0855.23
2009/04/23 10:41:45.6      22   -270    184    271    327 175.3  37.4  34134  289.12 0855.23
2009/04/23 10:41:45.7      42   -298    168    302    345 172.0  31.5  34130  289.06 0855.23
2009/04/23 10:41:45.8    -102   -502    177    513    543 191.5  19.1  34130  289.06 0855.23
2009/04/23 10:41:45.9    -111   -594     85    605    612 190.6   8.0  34124  288.97 0855.23
2009/04/23 10:41:46.0    -162   -474    157    502    527 198.9  17.4  34126  289.01 0855.23
2009/04/23 10:41:46.1    -253   -358    185    439    476 215.3  24.2  34126  289.01 0855.23
2009/04/23 10:41:46.2    -240   -278    107    368    384 220.8  16.3  34126  288.99 0855.23
2009/04/23 10:41:46.3      11   -451    270    452    526 178.5  33.6  34128  289.03 0855.23
2009/04/23 10:41:46.4     179   -446    347    481    593 158.1  39.5  34128  289.02 0855.23
2009/04/23 10:41:46.5     224   -231    280    323    427 135.9  45.2  34134  289.13 0855.23
2009/04/23 10:41:46.6     258   -267    272    372    460 135.9  39.7  34132  289.09 0855.23
2009/04/23 10:41:46.7     263   -208    295    336    447 128.3  45.8  34136  289.17 0855.23
2009/04/23 10:41:46.8     320   -107    162    338    374 108.5  27.3  34134  289.13 0855.23
2009/04/23 10:41:46.9      97   -104    211    143    254 137.2  62.6  34142  289.26 0855.23
2009/04/23 10:41:47.0     181    -68    181    194    265 110.8  47.9  34134  289.14 0855.23
2009/04/23 10:41:47.1      87   -149    171    173    243 149.7  50.0  34134  289.14 0855.21
2009/04/23 10:41:47.2     156   -199    201    254    323 141.9  42.4  34134  289.12 0855.21
2009/04/23 10:41:47.3      -4   -198    212    199    290 181.4  52.1  34128  289.02 0855.21
2009/04/23 10:41:47.4      -7   -191    169    192    255 182.2  45.8  34132  289.10 0855.21
2009/04/23 10:41:47.5     104   -151    199    184    271 145.5  52.2  34132  289.09 0855.21
2009/04/23 10:41:47.6     -29   -114    234    118    262 194.7  71.1  34130  289.08 0855.21
2009/04/23 10:41:47.7     103    -91    180    138    226 131.3  58.5  34138  289.21 0855.21
2009/04/23 10:41:47.8     150   -253    200    295    356 149.3  37.4  34132  289.11 0855.21
2009/04/23 10:41:47.9      41   -108    123    116    169 159.1  51.6  34136  289.16 0855.21
2009/04/23 10:41:48.0     -16    -99    -74    101    125 189.3 -44.1  34126  289.01 0855.21
2009/04/23 10:41:48.1      53    -52    -90     75    117 134.9 -60.7  34124  288.96 0855.21
2009/04/23 10:41:48.2     -47    -67    -80     83    115 215.2 -53.8  34134  289.13 0855.21
2009/04/23 10:41:48.3     -25   -111    -15    114    116 192.9  -7.7  34128  289.04 0855.21
2009/04/23 10:41:48.4     -76     -5     67     77    102 265.6  45.8  34136  289.18 0855.21
2009/04/23 10:41:48.5     -64     80    111    103    151 321.3  52.2  34138  289.21 0855.21
2009/04/23 10:41:48.6      16      6    101     18    102  68.3  90.0  34142  289.26 0855.21
2009/04/23 10:41:48.7      32     27    242     43    245  49.6  90.0  34136  289.18 0855.21
2009/04/23 10:41:48.8     165    -90    228    189    296 118.6  56.3  34138  289.19 0855.21
2009/04/23 10:41:48.9     138   -250    100    286    304 151.0  19.4  34126  288.98 0855.21
2009/04/23 10:41:49.0      99   -338    -91    353    365 163.6 -14.5  34128  289.04 0855.21
2009/04/23 10:41:49.1     164    -22     29    166    169  97.7  10.1  34120  288.89 0855.21
2009/04/23 10:41:49.2     326   -108    241    344    420 108.5  38.5  34122  288.93 0855.21
2009/04/23 10:41:49.3     208   -327    275    388    475 147.5  38.8  34118  288.87 0855.21
2009/04/23 10:41:49.4     403   -326    232    519    568 129.0  25.7  34122  288.92 0855.21
2009/04/23 10:41:49.5     223   -386    212    446    493 150.0  27.3  34122  288.93 0855.21
2009/04/23 10:41:49.6     126   -438    152    456    481 163.9  18.5  34130  289.06 0855.21
2009/04/23 10:41:49.7     -30   -558     53    559    562 183.1   5.4  34122  288.94 0855.21
2009/04/23 10:41:49.8    -168   -563     40    588    590 196.6   3.9  34122  288.92 0855.21
2009/04/23 10:41:49.9     117   -488     65    502    507 166.4   7.4  34126  289.00 0855.21
2009/04/23 10:41:50.0     197   -368    126    418    437 151.9  16.8  34118  288.87 0855.21
2009/04/23 10:41:50.1     155   -318    290    354    457 154.0  43.7  34128  289.02 0855.19
2009/04/23 10:41:50.2     180   -537    255    567    621 161.4  26.0  34126  289.00 0855.19
2009/04/23 10:41:50.3     103   -496    287    507    582 168.2  32.0  34122  288.92 0855.19
2009/04/23 10:41:50.4      11   -529    342    530    630 178.8  35.9  34130  289.08 0855.19
2009/04/23 10:41:50.5       9   -589    340    590    680 179.1  32.7  34132  289.09 0855.19
2009/04/23 10:41:50.6     -51   -604    300    607    677 184.9  28.2  34126  289.01 0855.19
2009/04/23 10:41:50.7     -83   -591    212    597    633 188.0  20.3  34126  288.99 0855.19
2009/04/23 10:41:50.8      -7   -506    218    507    551 180.8  24.6  34122  288.94 0855.19
2009/04/23 10:41:50.9      35   -567    385    569    687 176.4  37.4  34122  288.93 0855.19
2009/04/23 10:41:51.0     -35   -455    395    457    604 184.5  45.4  34122  288.92 0855.19
2009/04/23 10:41:51.1      -7   -453    468    454    652 181.0  51.1  34130  289.05 0855.19
2009/04/23 10:41:51.2     -46   -512    340    515    617 185.2  36.5  34132  289.10 0855.19
2009/04/23 10:41:51.3     -80   -422    432    430    609 190.8  50.1  34126  289.01 0855.19
2009/04/23 10:41:51.4      -5   -274    320    275    421 181.1  55.3  34138  289.21 0855.19
2009/04/23 10:41:51.5     -35   -344    425    346    548 186.0  56.9  34132  289.10 0855.19
2009/04/23 10:41:51.6      68   -288    288    297    413 166.6  49.0  34142  289.28 0855.19
2009/04/23 10:41:51.7       4   -405    317    406    515 179.4  41.9  34134  289.13 0855.19
2009/04/23 10:41:51.8      28   -393    380    394    547 175.9  49.0  34130  289.06 0855.19
2009/04/23 10:41:51.9       4   -392    383    393    548 179.3  49.2  34130  289.08 0855.19
2009/04/23 10:41:52.0     116   -383    369    401    544 163.1  47.5  34130  289.08 0855.19
2009/04/23 10:41:52.1     274   -369    293    461    546 143.4  35.5  34124  288.96 0855.20
2009/04/23 10:41:52.2     316   -309    288    443    528 134.3  36.0  34126  289.01 0855.20
2009/04/23 10:41:52.3     232   -276    225    361    425 139.9  35.1  34126  288.99 0855.20
2009/04/23 10:41:52.4     175   -240     47    298    302 143.9   9.0  34126  288.98 0855.20
2009/04/23 10:41:52.5     157   -181    -63    240    249 139.0 -14.7  34124  288.97 0855.20
2009/04/23 10:41:52.6      40   -235     42    239    243 170.3  10.1  34122  288.92 0855.20
2009/04/23 10:41:52.7      94   -342    189    355    402 164.6  30.3  34122  288.94 0855.20
2009/04/23 10:41:52.8     216   -556    302    597    669 158.7  28.9  34120  288.91 0855.20
2009/04/23 10:41:52.9     253   -590    329    643    722 156.8  29.2  34114  288.78 0855.20
2009/04/23 10:41:53.0     253   -581    403    634    751 156.5  35.5  34116  288.84 0855.20
2009/04/23 10:41:53.1     329   -360    445    488    660 137.6  47.1  34122  288.93 0855.20
2009/04/23 10:41:53.2     301   -594    272    666    719 153.1  23.6  34120  288.89 0855.20
2009/04/23 10:41:53.3     327   -403     53    520    523 140.9   5.9  34118  288.85 0855.20
2009/04/23 10:41:53.4     316   -450    183    550    580 144.9  18.5  34118  288.85 0855.20
2009/04/23 10:41:53.5     346   -493    273    603    661 144.9  25.9  34112  288.77 0855.20
2009/04/23 10:41:53.6     341   -352     88    491    499 135.9  10.2  34122  288.93 0855.20
2009/04/23 10:41:53.8     245   -348    241    426    489 144.8  32.0  34118  288.86 0855.20
2009/04/23 10:41:53.8      90   -407    395    417    574 167.5  48.4  34126  288.99 0855.20
2009/04/23 10:41:54.0      70   -308    333    316    459 167.1  51.9  34130  289.07 0855.20
2009/04/23 10:41:54.1    -185   -446    321    483    579 202.6  36.6  34116  288.84 0855.20
2009/04/23 10:41:54.1    -170   -345    215    385    440 206.2  31.5  34124  288.97 0855.19
2009/04/23 10:41:54.3    -162   -405    270    437    513 201.9  34.6  34124  288.95 0855.19
2009/04/23 10:41:54.4     -94   -351    252    364    442 195.1  37.9  34126  289.00 0855.19
2009/04/23 10:41:54.5    -149   -259    205    299    362 209.9  37.8  34126  289.01 0855.19
2009/04/23 10:41:54.6    -188   -366    328    412    526 207.2  42.7  34130  289.05 0855.19
2009/04/23 10:41:54.7    -122   -343    398    365    540 199.7  52.8  34134  289.13 0855.19
2009/04/23 10:41:54.8     -28   -257    329    259    418 186.2  57.8  34132  289.10 0855.19
2009/04/23 10:41:54.9     -13   -350    340    351    488 182.3  49.0  34134  289.12 0855.19
2009/04/23 10:41:55.0      55   -396    356    400    535 172.0  46.3  34136  289.17 0855.19
2009/04/23 10:41:55.1      87   -264    291    279    403 161.7  51.3  34142  289.25 0855.19
2009/04/23 10:41:55.2     195   -251    219    318    386 142.2  37.8  34136  289.18 0855.19
2009/04/23 10:41:55.3     102   -213    115    237    263 154.5  27.4  34132  289.09 0855.19
2009/04/23 10:41:55.4     204   -130     47    243    248 122.5  11.1  34134  289.14 0855.19
2009/04/23 10:41:55.5     224    -56     45    231    236 104.2  11.1  34130  289.05 0855.19
2009/04/23 10:41:55.6     146   -101     89    178    199 124.6  28.7  34134  289.13 0855.19
2009/04/23 10:41:55.7     115   -148    171    188    254 142.2  47.5  34130  289.07 0855.19
2009/04/23 10:41:55.8     211   -156    176    263    316 126.4  37.0  34134  289.12 0855.19
2009/04/23 10:41:55.9     194   -133    154    236    281 124.4  36.3  34134  289.14 0855.19
2009/04/23 10:41:56.0      41   -203    142    208    251 168.4  37.6  34134  289.12 0855.19
2009/04/23 10:41:56.1      87   -148    142    172    223 149.5  43.7  34134  289.13 0855.19
2009/04/23 10:41:56.2       1    -64    192     65    202 179.1  81.2  34144  289.30 0855.19
2009/04/23 10:41:56.3     -32   -205    224    208    305 188.9  52.2  34132  289.10 0855.19
2009/04/23 10:41:56.4      37   -185    192    189    269 168.7  50.2  34138  289.20 0855.19
2009/04/23 10:41:56.5      32   -230    176    233    292 171.9  40.7  34132  289.09 0855.19
2009/04/23 10:41:56.6      41   -292    151    295    331 172.0  29.4  34132  289.10 0855.19
2009/04/23 10:41:56.7      58   -261    195    268    331 167.3  39.7  34130  289.05 0855.19
2009/04/23 10:41:56.8       9   -165    186    166    249 176.9  53.7  34130  289.06 0855.19
2009/04/23 10:41:56.9     -90   -241    144    258    295 200.5  31.4  34130  289.07 0855.19
2009/04/23 10:41:57.0     -80   -253    115    266    289 197.6  25.1  34130  289.07 0855.19
2009/04/23 10:41:57.1      33   -272    241    275    365 172.9  45.8  34130  289.06 0855.19
2009/04/23 10:41:57.2      18   -186    230    187    296 174.2  56.4  34140  289.22 0855.19
2009/04/23 10:41:57.3      17   -171    202    172    265 174.0  55.4  34136  289.15 0855.19
2009/04/23 10:41:57.4      26   -280    181    282    335 174.6  35.6  34128  289.03 0855.19
2009/04/23 10:41:57.5      59   -294    108    300    318 168.5  20.6  34130  289.05 0855.19
2009/04/23 10:41:57.6      82   -267    116    280    303 163.0  23.8  34128  289.02 0855.19
2009/04/23 10:41:57.7      22   -182     97    184    208 172.9  29.8  34126  288.99 0855.19
2009/04/23 10:41:57.8      38   -179     92    184    205 168.0  28.5  34136  289.18 0855.19
2009/04/23 10:41:57.9      -8   -189     83    190    207 182.5  25.1  34126  289.01 0855.19
2009/04/23 10:41:58.0       0   -103    141    104    175 179.5  60.0  34138  289.19 0855.19
2009/04/23 10:41:58.1      87    -23     78     91    119 105.1  45.4  34144  289.31 0855.19
2009/04/23 10:41:58.2      63    -25     52     68     85 111.8  41.2  34140  289.23 0855.20
2009/04/23 10:41:58.3     132      0     65    133    148  90.4  27.3  34134  289.14 0855.20
2009/04/23 10:41:58.4     110      0     93    111    144  90.0  43.8  34136  289.18 0855.20
2009/04/23 10:41:58.5     210    -24    165    212    268  96.6  41.7  34134  289.14 0855.20
2009/04/23 10:41:58.6     241   -179    155    301    338 126.6  29.4  34130  289.05 0855.20
2009/04/23 10:41:58.7     217    -58     86    225    240 105.1  22.0  34128  289.03 0855.20
2009/04/23 10:41:58.8     177    -15    165    178    242  95.0  47.9  34132  289.11 0855.20
2009/04/23 10:41:58.9      -9     66     57     67     87 352.0  44.8  34138  289.21 0855.20
2009/04/23 10:41:59.0     -41   -147    164    153    224 195.6  52.1  34140  289.24 0855.20
2009/04/23 10:41:59.1      -7     21    200     23    201 340.0  90.0  34144  289.31 0855.20
2009/04/23 10:41:59.2      60    -38    164     72    179 122.4  74.8  34146  289.35 0855.20
2009/04/23 10:41:59.3      25    -25    138     36    142 135.0  84.9  34140  289.24 0855.20
2009/04/23 10:41:59.4      83   -217    135    233    269 159.1  32.7  34130  289.05 0855.20
2009/04/23 10:41:59.5     271   -267    140    381    405 134.6  21.0  34130  289.08 0855.20
2009/04/23 10:41:59.6     484   -224    130    534    550 114.8  13.7  34120  288.91 0855.20
2009/04/23 10:41:59.7     450   -334     21    561    562 126.6   2.2  34120  288.89 0855.20
2009/04/23 10:41:59.8     182   -368    -81    411    420 153.7 -11.2  34116  288.82 0855.20
2009/04/23 10:41:59.9     -88   -346    -97    358    372 194.3 -15.2  34118  288.86 0855.20
2009/04/23 10:42:00.0     -21   -336     -6    337    338 183.6  -1.2  34122  288.93 0855.20
2009/04/23 10:42:00.1     -25   -328     -7    329    330 184.4  -1.4  34122  288.94 0855.20
2009/04/23 10:42:00.2     -71   -228     79    239    252 197.4  18.4  34130  289.05 0855.19
2009/04/23 10:42:00.3     -47   -250    -75    255    265 190.7 -21.5  34130  289.05 0855.19
2009/04/23 10:42:00.4     -63   -310   -122    317    339 191.5 -26.4  34130  289.06 0855.19
2009/04/23 10:42:00.5    -106   -397   -205    412    460 195.1 -32.6  34126  288.99 0855.19
2009/04/23 10:42:00.6     -30   -394   -106    396    410 184.4 -15.1  34124  288.95 0855.19
2009/04/23 10:42:00.7      99   -307    100    323    339 162.1  17.2  34132  289.11 0855.19
2009/04/23 10:42:00.8     153   -226     38    274    277 145.9   8.0  34136  289.17 0855.19
2009/04/23 10:42:00.9      56   -233    -61    240    248 166.4 -14.3  34138  289.20 0855.19
2009/04/23 10:42:01.0       3   -243     43    244    248 179.1  10.0  34132  289.10 0855.19
2009/04/23 10:42:01.1    -241   -229    -95    333    346 226.5 -20.5  34134  289.13 0855.19
2009/04/23 10:42:01.2    -120   -286     -1    311    312 202.7  -0.2  34136  289.17 0855.19
2009/04/23 10:42:01.3     -47   -198     21    204    206 193.4   5.9  34132  289.11 0855.19
2009/04/23 10:42:01.4      72   -298     26    307    309 166.4   5.0  34140  289.22 0855.19
2009/04/23 10:42:01.5     200   -383     62    433    438 152.4   8.2  34130  289.05 0855.19
2009/04/23 10:42:01.6     313   -239    -92    395    406 127.4 -13.1  34136  289.16 0855.19
2009/04/23 10:42:01.7     268   -340    -69    434    440 141.7  -9.1  34138  289.19 0855.19
2009/04/23 10:42:01.8     408   -339     42    531    533 129.7   4.6  34134  289.13 0855.19
2009/04/23 10:42:01.9     463   -309     42    557    559 123.7   4.4  34138  289.19 0855.19
2009/04/23 10:42:02.0     441   -325     81    548    555 126.4   8.5  34136  289.16 0855.19
2009/04/23 10:42:02.1     501   -275    129    572    587 118.8  12.8  34130  289.07 0855.19
2009/04/23 10:42:02.2     501   -168    422    529    676 108.6  42.6  34128  289.03 0855.20
2009/04/23 10:42:02.3     269   -301    -15    405    406 138.2  -2.2  34134  289.14 0855.20
2009/04/23 10:42:02.4      63   -392     -1    398    399 170.8  -0.2  34136  289.16 0855.20
2009/04/23 10:42:02.5     159   -347    233    382    447 155.4  34.4  34130  289.07 0855.20
2009/04/23 10:42:02.6      68   -435    274    441    519 171.0  34.9  34128  289.03 0855.20
2009/04/23 10:42:02.7     -13   -427    320    428    534 181.8  40.6  34130  289.06 0855.20
2009/04/23 10:42:02.8      57   -324    302    330    447 169.9  47.3  34134  289.14 0855.20
2009/04/23 10:42:02.9      12   -166    265    167    313 175.6  64.9  34136  289.17 0855.20
2009/04/23 10:42:03.0     168   -311    296    354    461 151.5  44.0  34128  289.02 0855.20
2009/04/23 10:42:03.1     118   -241    304    269    405 153.9  54.2  34132  289.11 0855.20
2009/04/23 10:42:03.2      80   -148    277    169    324 151.7  65.8  34114  288.80 0855.20
2009/04/23 10:42:03.3      86   -351    263    362    447 166.1  39.7  34134  289.12 0855.20
2009/04/23 10:42:03.4      43   -368    223    371    432 173.3  33.7  34130  289.07 0855.20
2009/04/23 10:42:03.5     124   -192    163    229    281 147.0  38.8  34132  289.10 0855.20
2009/04/23 10:42:03.6     118    -35     93    124    155 106.8  40.1  34136  289.18 0855.20
2009/04/23 10:42:03.7     111      8     98    112    148  85.6  45.8  34134  289.14 0855.20
2009/04/23 10:42:03.8     118     60     50    133    142  62.9  21.0  34138  289.19 0855.20
2009/04/23 10:42:03.9      20    105    114    108    157  11.1  51.6  34142  289.28 0855.20
2009/04/23 10:42:04.0     -36    138     99    143    173 345.3  37.8  34140  289.23 0855.20
2009/04/23 10:42:04.1     -39    130     91    136    163 343.0  36.7  34136  289.18 0855.20
2009/04/23 10:42:04.2     -86     64     59    108    123 306.4  31.3  34140  289.24 0855.21
2009/04/23 10:42:04.3    -104     74    -25    128    131 305.5 -11.3  34138  289.21 0855.21
2009/04/23 10:42:04.4    -121     73     17    142    144 301.1   6.9  34136  289.16 0855.21
2009/04/23 10:42:04.5    -137     35     79    142    162 284.6  31.4  34138  289.21 0855.21
2009/04/23 10:42:04.6    -209    121     81    242    256 300.0  18.5  34148  289.36 0855.21
2009/04/23 10:42:04.7    -266      0    -41    267    271 269.9  -8.8  34154  289.47 0855.21
2009/04/23 10:42:04.8    -457    111      5    471    472 283.7   0.7  34144  289.30 0855.21
2009/04/23 10:42:04.9    -401    -43   -207    404    453 263.8 -33.7  34144  289.31 0855.21
2009/04/23 10:42:05.0    -211   -231    -32    313    315 222.4  -6.0  34150  289.39 0855.21
2009/04/23 10:42:05.1    -474    -17   -174    475    505 267.9 -25.4  34136  289.17 0855.21
2009/04/23 10:42:05.2    -272   -161   -136    317    344 239.4 -29.2  34138  289.21 0855.21
2009/04/23 10:42:05.3     -67    -89     97    112    148 217.0  45.4  34150  289.41 0855.21
2009/04/23 10:42:05.4     -81   -143    211    165    267 209.6  57.9  34148  289.37 0855.21
2009/04/23 10:42:05.5    -292   -101    116    310    330 250.9  21.4  34148  289.36 0855.21
2009/04/23 10:42:05.6    -500     33     88    502    510 273.8  10.0  34150  289.40 0855.21
2009/04/23 10:42:05.7    -294     68    262    302    399 283.2  45.4  34148  289.37 0855.21
2009/04/23 10:42:05.8    -260    155    263    303    401 300.9  45.5  34154  289.47 0855.21
2009/04/23 10:42:05.9    -190     98     58    214    222 297.3  15.3  34150  289.41 0855.21
2009/04/23 10:42:06.0     -40   -127    181    134    225 197.8  60.0  34152  289.45 0855.21
2009/04/23 10:42:06.1     -72   -195    171    208    269 200.3  43.7  34142  289.27 0855.21
2009/04/23 10:42:06.2      35   -169    137    173    220 168.0  42.4  34138  289.21 0855.21
2009/04/23 10:42:06.3      37    -76    181     85    199 153.7  73.1  34148  289.38 0855.21
2009/04/23 10:42:06.4      48    -16    176     51    183 109.1  83.5  34164  289.63 0855.21
2009/04/23 10:42:06.5     -24   -119    125    122    174 191.6  50.4  34154  289.48 0855.21
2009/04/23 10:42:06.6      47   -139     57    147    157 161.3  22.3  34140  289.23 0855.21
2009/04/23 10:42:06.7      82   -156    119    177    213 152.4  37.0  34142  289.28 0855.21
2009/04/23 10:42:06.8     207   -120    152    240    284 120.2  35.5  34134  289.14 0855.21
2009/04/23 10:42:06.9     386     62     84    392    402  80.8  12.1  34100  288.57 0855.21
2009/04/23 10:42:07.0     300     66    156    308    345  77.6  28.9  34116  288.84 0855.21
2009/04/23 10:42:07.1     140    -56    118    151    191 111.8  42.2  34118  288.87 0855.21
2009/04/23 10:42:07.2      82   -240    147    254    293 160.9  32.7  34098  288.53 0855.21
2009/04/23 10:42:07.3     -66   -271    374    280    467 193.8  59.6  34106  288.67 0855.21
2009/04/23 10:42:07.4      71    -45    254     85    267 122.5  81.0  34116  288.82 0855.21
2009/04/23 10:42:07.5     -67   -302    362    310    476 192.5  55.3  34114  288.80 0855.21
2009/04/23 10:42:07.6      31   -324    283    326    431 174.4  45.6  34116  288.82 0855.21
2009/04/23 10:42:07.7     181   -436    263    473    541 157.4  31.4  34100  288.55 0855.21
2009/04/23 10:42:07.8     175   -454    305    487    574 158.8  35.2  34100  288.57 0855.21
2009/04/23 10:42:07.9      61   -393    321    398    511 171.1  43.0  34094  288.46 0855.21
2009/04/23 10:42:08.0     -39   -420    326    422    533 185.3  41.6  34100  288.54 0855.21
2009/04/23 10:42:08.1     -18   -340    291    341    448 183.1  44.8  34098  288.51 0855.21
2009/04/23 10:42:08.2      48   -145    200    153    251 161.7  59.0  34114  288.79 0855.23
2009/04/23 10:42:08.3     -53   -312    294    317    432 189.8  47.8  34100  288.54 0855.23
2009/04/23 10:42:08.4    -113   -279    141    302    333 202.1  27.0  34102  288.59 0855.23
2009/04/23 10:42:08.5      46   -136     77    144    163 161.3  30.6  34106  288.65 0855.23
2009/04/23 10:42:08.6     145   -132     74    197    210 132.2  21.0  34106  288.65 0855.23
2009/04/23 10:42:08.7     219   -173     68    280    289 128.2  13.7  34108  288.68 0855.23
2009/04/23 10:42:08.8     186   -145     82    237    252 128.0  19.2  34096  288.48 0855.23
2009/04/23 10:42:08.9     175   -109    169    207    267 121.8  43.7  34114  288.78 0855.23
2009/04/23 10:42:09.0     112   -147    -63    186    197 142.6 -18.7  34108  288.70 0855.23
2009/04/23 10:42:09.1     171    -98    -93    198    218 119.8 -31.5  34108  288.70 0855.23
2009/04/23 10:42:09.2     123    -20    -57    125    137  99.2 -30.6  34110  288.74 0855.25
2009/04/23 10:42:09.3      67     67    -19     95     97  45.1 -11.5  34106  288.67 0855.25
2009/04/23 10:42:09.4      74     41    -11     85     86  60.7  -7.7  34110  288.72 0855.25
2009/04/23 10:42:09.5     -67    -22    -67     71     97 251.6 -53.4  34120  288.91 0855.25
2009/04/23 10:42:09.6    -115    -20     48    117    126 259.9  23.1  34130  289.06 0855.25
2009/04/23 10:42:09.7     -80     39     31     90     96 296.2  18.9  34122  288.92 0855.25
2009/04/23 10:42:09.8     -72     77    -72    106    128 317.2 -42.0  34132  289.09 0855.25
2009/04/23 10:42:09.9       0    223   -172    224    282   0.2 -46.0  34144  289.31 0855.25
2009/04/23 10:42:10.0    -222    335   -105    403    417 326.4 -14.7  34138  289.19 0855.25
2009/04/23 10:42:10.1    -108    301    -44    321    325 340.2  -7.9  34142  289.25 0855.25
2009/04/23 10:42:10.2     -79    273    -47    285    289 343.7  -9.4  34132  289.10 0855.25
2009/04/23 10:42:10.3      41    265    -48    269    274   8.9 -10.3  34140  289.22 0855.25
2009/04/23 10:42:10.4       2    169    -38    170    175   0.9 -12.6  34140  289.24 0855.25
2009/04/23 10:42:10.5     -72    249    -88    260    275 343.7 -18.7  34134  289.12 0855.25
2009/04/23 10:42:10.6      44    313    -30    317    319   8.0  -5.5  34128  289.02 0855.25
2009/04/23 10:42:10.7     111    291    -92    312    326  20.9 -16.4  34126  288.98 0855.25
2009/04/23 10:42:10.8     148    265    -76    304    314  29.2 -14.1  34124  288.97 0855.25
2009/04/23 10:42:10.9     228    289     57    369    374  38.3   8.8  34138  289.20 0855.25
2009/04/23 10:42:11.0     236    189    -56    303    309  51.3 -10.5  34112  288.76 0855.25
2009/04/23 10:42:11.1     282    112     87    304    317  68.3  16.0  34152  289.42 0855.25
2009/04/23 10:42:11.2     329    184     83    378    388  60.7  12.4  34118  288.86 0855.22
2009/04/23 10:42:11.3     433    226    -69    489    495  62.4  -8.1  34182  289.95 0855.22
2009/04/23 10:42:11.4     376    313     91    490    499  50.2  10.6  34246  291.03 0855.22
2009/04/23 10:42:11.5     364    267    261    452    521  53.7  32.7  34212  290.44 0855.22
2009/04/23 10:42:11.6     486    354    272    602    660  53.9  26.0  34144  289.31 0855.22
2009/04/23 10:42:11.7     747    378    289    838    887  63.1  19.1  34188  290.06 0855.22
2009/04/23 10:42:11.8     834    441     93    944    949  62.1   5.7  34130  289.08 0855.22
2009/04/23 10:42:11.9     821    268   -134    864    875  71.9  -8.8  34188  290.05 0855.22
2009/04/23 10:42:12.0     892    159    -72    907    911  79.9  -4.6  34150  289.41 0855.22
2009/04/23 10:42:12.1     772    159   -119    789    798  78.3  -8.6  34138  289.20 0855.22
2009/04/23 10:42:12.2     753    137     58    766    768  79.6   4.4  34144  289.31 0855.22
2009/04/23 10:42:12.3     873    152    129    887    897  80.1   8.3  34136  289.15 0855.22
2009/04/23 10:42:12.4     510   -208    294    551    624 112.2  30.3  34144  289.30 0855.22
2009/04/23 10:42:12.5     623   -395    133    738    751 122.4  10.2  34138  289.19 0855.22
2009/04/23 10:42:12.6     523   -231    133    572    588 113.9  13.1  34124  288.97 0855.22
2009/04/23 10:42:12.7     439    -21    285    440    524  92.8  35.9  34126  288.98 0855.22
2009/04/23 10:42:12.8     447   -296    100    537    547 123.5  10.6  34128  289.02 0855.22
2009/04/23 10:42:12.9     618   -192    -20    648    649 107.3  -1.8  34112  288.76 0855.22
2009/04/23 10:42:13.0     495    -70    197    501    538  98.1  22.8  34136  289.18 0855.22
2009/04/23 10:42:13.1     618      9     92    619    626  89.1   8.5  34126  288.98 0855.22
2009/04/23 10:42:13.2     709    -77    269    714    762  96.3  21.7  34140  289.23 0855.17
2009/04/23 10:42:13.3     708   -151    351    725    805 102.1  27.8  34136  289.15 0855.17
2009/04/23 10:42:13.4     663     12    444    664    798  88.9  37.0  34144  289.31 0855.17
2009/04/23 10:42:13.5     559    143    158    578    600  75.6  15.3  34164  289.64 0855.17
2009/04/23 10:42:13.6     443    155    128    470    488  70.7  15.3  34150  289.39 0855.17
2009/04/23 10:42:13.7     408    147    104    434    447  70.1  13.5  34132  289.09 0855.17
2009/04/23 10:42:13.8     395     44    171    398    433  83.6  24.9  34114  288.78 0855.17
2009/04/23 10:42:13.9     436    -13    331    437    548  91.7  40.9  34112  288.76 0855.17
2009/04/23 10:42:14.0     187    -60    348    197    399 107.9  68.1  34130  289.08 0855.17
2009/04/23 10:42:14.1     242     41    230    246    336  80.3  47.9  34126  288.98 0855.17
2009/04/23 10:42:14.2     169     80    189    188    266  64.7  50.1  34134  289.12 0855.17
2009/04/23 10:42:14.3     115    135    203    178    269  40.3  54.3  34158  289.54 0855.17
2009/04/23 10:42:14.4      89     64    164    110    197  54.1  62.8  34150  289.40 0855.17
2009/04/23 10:42:14.5     -66     43    131     80    153 303.3  65.1  34144  289.31 0855.17
2009/04/23 10:42:14.6      56      4    123     57    135  85.7  73.1  34152  289.43 0855.17
2009/04/23 10:42:14.7     -26    -79    107     84    136 198.5  57.9  34136  289.16 0855.17
2009/04/23 10:42:14.8     -77    -93     41    121    128 219.7  18.9  34120  288.91 0855.17
2009/04/23 10:42:14.9     -83   -131    103    156    186 212.5  36.3  34126  288.99 0855.17
2009/04/23 10:42:15.0     -69   -143    102    160    189 205.9  35.6  34122  288.94 0855.17
2009/04/23 10:42:15.1     -45    -94     74    105    128 205.9  38.6  34126  288.99 0855.17
2009/04/23 10:42:15.2     -64   -102     28    121    125 212.5  13.2  34128  289.04 0855.13
2009/04/23 10:42:15.3     -79   -105     39    132    138 217.0  16.8  34126  289.01 0855.13
2009/04/23 10:42:15.4     -66    -92     32    114    119 216.0  15.8  34126  288.99 0855.13
2009/04/23 10:42:15.5     -35    -34     20     50     53 225.9  22.0  34128  289.04 0855.13
2009/04/23 10:42:15.6       0     -6     14      7     15 184.5  72.9  34134  289.14 0855.13
2009/04/23 10:42:15.7     -21   -123     28    125    129 189.7  12.6  34124  288.97 0855.13
2009/04/23 10:42:15.8      41    -87     53     97    110 154.6  31.3  34126  288.99 0855.13
2009/04/23 10:42:15.9      18    -55     38     58     69 161.5  35.6  34136  289.16 0855.13
2009/04/23 10:42:16.0       0    -48    107     49    117 180.9  74.0  34142  289.26 0855.13
2009/04/23 10:42:16.1      77    -23     73     81    109 106.8  47.5  34136  289.18 0855.13
2009/04/23 10:42:16.2      93    -77     68    121    138 129.6  31.4  34126  289.01 0855.13
2009/04/23 10:42:16.3     141    -73     60    160    170 117.5  21.5  34120  288.91 0855.13
2009/04/23 10:42:16.4     144    -68     29    160    163 115.4  10.3  34126  289.01 0855.13
2009/04/23 10:42:16.5     169   -106      8    200    201 122.2   2.5  34124  288.96 0855.13
2009/04/23 10:42:16.6     157    -70     44    173    179 114.2  14.3  34124  288.97 0855.13
2009/04/23 10:42:16.7     136    -75     82    156    176 118.9  30.1  34124  288.97 0855.13
2009/04/23 10:42:16.8     110    -65     78    129    150 120.7  34.0  34130  289.06 0855.13
2009/04/23 10:42:16.9      49     -8     78     50     92  99.7  64.6  34130  289.06 0855.13
2009/04/23 10:42:17.0       8     25     27     27     38  18.7  50.1  34136  289.18 0855.13
2009/04/23 10:42:17.1     -19     55    -37     59     69 340.8 -39.9  34136  289.16 0855.13
2009/04/23 10:42:17.2     -68     90   -106    113    154 323.0 -52.4  34126  288.99 0855.13
2009/04/23 10:42:17.3      66     43     10     79     80  56.7   7.5  34126  288.99 0855.13
2009/04/23 10:42:17.4     206     27    157    208    260  82.5  40.7  34126  288.98 0855.13
2009/04/23 10:42:17.5       5    -21    186     22    187 166.6  90.0  34144  289.31 0855.13
2009/04/23 10:42:17.6     -73     14    115     75    137 281.5  64.1  34142  289.26 0855.13
2009/04/23 10:42:17.7     -61     26     79     67    103 293.5  55.4  34146  289.33 0855.13
2009/04/23 10:42:17.8     -75     15      8     77     78 281.4   5.9  34128  289.04 0855.13
2009/04/23 10:42:17.9     -14      4     25     15     29 288.4  64.7  34132  289.09 0855.13
2009/04/23 10:42:18.0     -20     84     57     87    104 346.6  36.0  34138  289.21 0855.13
2009/04/23 10:42:18.1       0      0     82      1     82 350.3  90.0  34132  289.11 0855.13
2009/04/23 10:42:18.2       0    -48    128     49    137 180.0  78.6  34136  289.16 0855.13
2009/04/23 10:42:18.3     -31   -153    195    157    250 191.5  56.9  34128  289.04 0855.13
2009/04/23 10:42:18.4    -107   -167    123    199    233 212.6  35.2  34122  288.94 0855.13
2009/04/23 10:42:18.5     -47   -134    -11    143    144 199.6  -4.6  34126  288.99 0855.13
2009/04/23 10:42:18.6     -84   -128     63    154    166 213.4  23.6  34134  289.13 0855.13
2009/04/23 10:42:18.7    -104   -141    142    176    226 216.3  43.7  34132  289.09 0855.13
2009/04/23 10:42:18.8    -263    -22     38    264    267 265.2   8.2  34138  289.20 0855.13
2009/04/23 10:42:18.9    -312   -100    -14    328    329 252.1  -2.6  34156  289.50 0855.13
2009/04/23 10:42:19.0    -218   -102     29    241    243 244.8   6.9  34148  289.37 0855.13
2009/04/23 10:42:19.1    -106   -192     25    220    222 209.0   6.5  34132  289.11 0855.13
2009/04/23 10:42:19.2    -122   -228     63    259    267 208.3  13.7  34138  289.19 0855.15
2009/04/23 10:42:19.3    -192   -232     20    302    303 219.6   3.9  34132  289.09 0855.15
2009/04/23 10:42:19.4    -179   -245    -13    304    305 216.3  -2.6  34130  289.05 0855.15
2009/04/23 10:42:19.5    -129   -229    -10    263    264 209.4  -2.2  34130  289.07 0855.15
2009/04/23 10:42:19.6    -120   -235     24    265    267 207.1   5.2  34134  289.12 0855.15
2009/04/23 10:42:19.7     -91   -239    121    257    284 201.0  27.1  34128  289.03 0855.15
2009/04/23 10:42:19.8    -153   -257    100    300    317 210.8  18.6  34136  289.17 0855.15
2009/04/23 10:42:19.9     -57   -454     66    458    463 187.2   8.2  34120  288.90 0855.15
2009/04/23 10:42:20.0      30   -456     52    458    461 176.2   6.5  34118  288.87 0855.15
2009/04/23 10:42:20.1     179   -487    178    520    550 159.8  18.9  34126  289.01 0855.15
2009/04/23 10:42:20.2     172   -506    183    535    566 161.2  18.9  34118  288.87 0855.15
2009/04/23 10:42:20.3      70   -527    187    532    563 172.4  20.0  34110  288.72 0855.15
2009/04/23 10:42:20.4      83   -491    224    498    546 170.4  25.9  34118  288.87 0855.15
2009/04/23 10:42:20.5     104   -445    211    458    504 166.8  26.5  34124  288.96 0855.15
2009/04/23 10:42:20.6      66   -385    156    391    420 170.2  23.0  34124  288.95 0855.15
2009/04/23 10:42:20.7     114   -374    120    392    411 163.1  17.0  34122  288.92 0855.15
2009/04/23 10:42:20.9     138   -292    100    323    339 154.7  17.2  34130  289.06 0855.15
2009/04/23 10:42:21.0      60   -349     61    355    361 170.1   9.9  34120  288.89 0855.15
2009/04/23 10:42:21.1     -19   -320     74    321    330 183.5  13.1  34118  288.87 0855.15
2009/04/23 10:42:21.2      -2   -315     11    316    317 180.5   2.1  34120  288.90 0855.15
2009/04/23 10:42:21.3      13   -280    -13    281    282 177.3  -2.8  34120  288.90 0855.13
2009/04/23 10:42:21.4      83   -296     48    308    312 164.2   9.0  34122  288.93 0855.13
2009/04/23 10:42:21.5     169   -307    109    351    368 151.2  17.3  34120  288.91 0855.13
2009/04/23 10:42:21.6      73   -213    167    226    281 161.1  39.9  34124  288.97 0855.13
2009/04/23 10:42:21.7     147   -311     62    345    351 154.6  10.2  34120  288.91 0855.13
2009/04/23 10:42:21.8     143   -300     88    333    345 154.5  14.9  34122  288.93 0855.13
2009/04/23 10:42:21.9     145   -295    108    329    347 153.7  18.2  34124  288.96 0855.13
2009/04/23 10:42:22.0     113   -148    164    187    248 142.6  45.8  34128  289.04 0855.13
2009/04/23 10:42:22.1      17   -163    148    164    220 174.0  46.9  34130  289.08 0855.13
2009/04/23 10:42:22.2       4   -182    148    183    235 178.6  43.0  34128  289.02 0855.13
2009/04/23 10:42:22.3      48   -185    168    192    255 165.5  45.8  34134  289.12 0855.13
2009/04/23 10:42:22.4      38   -197    155    201    253 168.9  41.7  34126  288.98 0855.13
2009/04/23 10:42:22.5      13    -90    109     92    142 171.5  55.8  34130  289.06 0855.13
2009/04/23 10:42:22.6     -10   -104    148    105    181 185.8  61.1  34134  289.14 0855.13
2009/04/23 10:42:22.7     -60   -179    231    189    298 198.7  56.4  34124  288.97 0855.13
2009/04/23 10:42:22.8     178    -78    122    195    230 113.7  35.5  34114  288.80 0855.13
2009/04/23 10:42:22.9      89   -129    202    157    255 145.3  58.4  34128  289.04 0855.13
2009/04/23 10:42:23.0       4    -40    209     41    212 173.8  89.4  34138  289.19 0855.13
2009/04/23 10:42:23.1     -55   -105    140    119    183 207.6  55.6  34120  288.91 0855.13
2009/04/23 10:42:23.2     -35   -175    132    179    222 191.5  39.7  34120  288.89 0855.13
2009/04/23 10:42:23.3     -14   -190    194    191    272 184.5  50.2  34122  288.93 0855.14
2009/04/23 10:42:23.4      -6   -239     96    240    258 181.6  23.0  34118  288.85 0855.14
2009/04/23 10:42:23.5      55   -171    113    180    212 162.0  35.5  34120  288.91 0855.14
2009/04/23 10:42:23.6      76   -174    107    190    218 156.4  31.6  34118  288.87 0855.14
2009/04/23 10:42:23.7     141   -121    131    186    227 130.7  38.6  34122  288.92 0855.14
2009/04/23 10:42:23.8     115   -130    120    174    211 138.6  37.6  34122  288.92 0855.14
2009/04/23 10:42:23.9     172   -151     96    229    248 131.3  24.1  34122  288.92 0855.14
2009/04/23 10:42:24.0     151   -136     60    204    213 132.0  16.6  34122  288.94 0855.14
2009/04/23 10:42:24.1      37   -263    -52    266    272 171.9 -11.1  34120  288.90 0855.14
2009/04/23 10:42:24.2      60   -221     -9    230    231 164.8  -2.2  34122  288.94 0855.14
2009/04/23 10:42:24.3      75   -213     27    226    228 160.6   6.9  34122  288.92 0855.14
2009/04/23 10:42:24.4      75   -192    119    207    238 158.6  32.4  34120  288.89 0855.14
2009/04/23 10:42:24.5       0   -326    244    327    408 180.0  40.6  34116  288.84 0855.14
2009/04/23 10:42:24.6     120   -382    148    401    427 162.5  21.1  34108  288.70 0855.14
2009/04/23 10:42:24.7     244   -410    230    478    530 149.3  27.4  34102  288.59 0855.14
2009/04/23 10:42:24.8     190   -337    263    388    468 150.6  37.4  34104  288.61 0855.14
2009/04/23 10:42:24.9     229   -262    262    349    436 138.8  40.7  34112  288.75 0855.14
2009/04/23 10:42:25.0     102   -522    184    533    565 168.9  19.1  34108  288.69 0855.14
2009/04/23 10:42:25.1     202   -550   -100    587    596 159.8  -9.7  34116  288.83 0855.14
2009/04/23 10:42:25.2     178   -504     40    535    537 160.5   4.3  34112  288.77 0855.14
2009/04/23 10:42:25.3     206   -529    151    568    588 158.7  14.9  34100  288.56 0855.17
2009/04/23 10:42:25.4     226   -418    230    476    528 151.6  27.7  34108  288.68 0855.17
2009/04/23 10:42:25.5     283   -452    200    534    570 148.0  21.5  34102  288.60 0855.17
2009/04/23 10:42:25.6     172   -395    274    431    510 156.5  35.5  34104  288.62 0855.17
2009/04/23 10:42:25.7      31   -375    226    377    439 175.1  33.7  34106  288.67 0855.17
2009/04/23 10:42:25.8     -10   -234    264    235    353 182.6  54.0  34114  288.78 0855.17
2009/04/23 10:42:25.9     -19    -56    209     60    217 198.7  84.1  34118  288.87 0855.17
2009/04/23 10:42:26.0      23   -296    302    297    423 175.5  50.6  34112  288.76 0855.17
2009/04/23 10:42:26.1      25   -370    242    371    442 176.1  36.2  34116  288.82 0855.17
2009/04/23 10:42:26.2     -27   -345    238    347    420 184.5  37.7  34114  288.79 0855.17
2009/04/23 10:42:26.3      54   -385    188    389    432 172.0  27.7  34118  288.87 0855.17
2009/04/23 10:42:26.4     143   -404    196    429    471 160.4  26.2  34116  288.82 0855.17
2009/04/23 10:42:26.5     202   -434    255    479    542 155.1  30.3  34120  288.89 0855.17
2009/04/23 10:42:26.6     147   -545    138    565    582 164.9  13.8  34120  288.88 0855.17
2009/04/23 10:42:26.7     156   -463    117    489    503 161.3  13.5  34110  288.74 0855.17
2009/04/23 10:42:26.8     155   -458     76    484    491 161.3   9.0  34120  288.91 0855.17
2009/04/23 10:42:26.9     158   -458    156    485    510 160.9  17.9  34118  288.86 0855.17
2009/04/23 10:42:27.0     150   -401    139    429    452 159.4  18.0  34118  288.85 0855.17
2009/04/23 10:42:27.1     185   -431    120    470    486 156.8  14.4  34110  288.73 0855.17
2009/04/23 10:42:27.2     194   -354     11    404    405 151.2   1.6  34112  288.75 0855.17
2009/04/23 10:42:27.3     232   -381     55    447    451 148.6   7.1  34106  288.67 0855.18
2009/04/23 10:42:27.4     131   -409     53    430    434 162.2   7.1  34106  288.65 0855.18
2009/04/23 10:42:27.5     125   -316    120    341    361 158.3  20.1  34102  288.59 0855.18
2009/04/23 10:42:27.6     127   -365    131    387    409 160.7  18.8  34106  288.67 0855.18
2009/04/23 10:42:27.7     180   -469     83    503    510 159.0   9.4  34104  288.64 0855.18
2009/04/23 10:42:27.8      87   -468    131    476    494 169.4  15.4  34104  288.61 0855.18
2009/04/23 10:42:27.9     215   -400    178    455    488 151.7  22.5  34094  288.46 0855.18
2009/04/23 10:42:28.0     143   -398    133    424    445 160.2  17.4  34100  288.56 0855.18
2009/04/23 10:42:28.1     157   -423    136    452    473 159.6  16.8  34100  288.56 0855.18
2009/04/23 10:42:28.2     117   -346    162    366    400 161.2  25.6  34096  288.49 0855.18
2009/04/23 10:42:28.3     135   -305    187    334    382 156.1  31.5  34098  288.52 0855.18
2009/04/23 10:42:28.4      66   -389    237    395    460 170.3  33.7  34092  288.43 0855.18
2009/04/23 10:42:28.5     -30   -344    305    346    461 185.1  45.9  34104  288.61 0855.18
2009/04/23 10:42:28.6      17   -399    299    400    499 177.5  40.6  34104  288.61 0855.18
2009/04/23 10:42:28.7     117   -346    256    366    446 161.3  38.5  34110  288.73 0855.18
2009/04/23 10:42:28.8      98   -361     95    375    388 164.7  14.3  34104  288.62 0855.18
2009/04/23 10:42:28.9      62   -298     90    305    319 168.2  16.5  34106  288.65 0855.18
2009/04/23 10:42:29.0       4   -262    127    263    292 179.0  27.4  34122  288.92 0855.18
2009/04/23 10:42:29.1     -50   -295    125    300    325 189.8  23.9  34120  288.88 0855.18
2009/04/23 10:42:29.2     -21   -406    141    407    432 183.0  19.2  34114  288.80 0855.18
2009/04/23 10:42:29.3       8   -417    113    418    434 178.8  15.2  34116  288.83 0855.19
2009/04/23 10:42:29.4      67   -359     74    366    374 169.4  11.5  34112  288.76 0855.19
2009/04/23 10:42:29.5     104   -391    110    405    420 165.0  15.3  34114  288.80 0855.19
2009/04/23 10:42:29.6      83   -402     77    411    419 168.3  10.6  34112  288.77 0855.19
2009/04/23 10:42:29.7     -20   -315    126    316    340 183.8  23.0  34100  288.57 0855.19
2009/04/23 10:42:29.8      19   -316    127    317    341 176.5  23.0  34106  288.67 0855.19
2009/04/23 10:42:29.9      79   -321    144    331    360 166.1  25.0  34104  288.62 0855.19
2009/04/23 10:42:30.0      25   -367    168    368    404 176.0  26.2  34090  288.37 0855.19
2009/04/23 10:42:30.1      65   -224    188    234    300 163.7  43.0  34096  288.49 0855.19
2009/04/23 10:42:30.2     146   -186    183    237    299 141.9  41.7  34096  288.49 0855.19
2009/04/23 10:42:30.3     218   -215     62    307    314 134.7  11.4  34094  288.44 0855.20
2009/04/23 10:42:30.4     128   -246     -1    278    279 152.4  -0.3  34098  288.53 0855.20
2009/04/23 10:42:30.5      62   -224    -12    233    234 164.4  -3.1  34100  288.56 0855.20
2009/04/23 10:42:30.6      88   -265    151    280    318 161.5  30.7  34104  288.61 0855.20
2009/04/23 10:42:30.7     -16   -208     23    209    211 184.5   6.5  34102  288.60 0855.20
2009/04/23 10:42:30.8     -12   -157     73    158    174 184.5  26.6  34102  288.60 0855.20
2009/04/23 10:42:30.9      -7   -149     87    150    173 182.7  32.9  34102  288.60 0855.20
2009/04/23 10:42:31.0     -37   -151     65    156    169 193.8  23.8  34106  288.67 0855.20
2009/04/23 10:42:31.1       0   -149      7    150    151 180.4   2.9  34100  288.57 0855.20
2009/04/23 10:42:31.2     -10   -134     50    135    143 184.4  21.0  34104  288.62 0855.20
2009/04/23 10:42:31.3     123   -152     64    196    207 141.0  18.1  34102  288.60 0855.20
2009/04/23 10:42:31.4     108   -138     96    176    200 141.9  31.0  34098  288.52 0855.20
2009/04/23 10:42:31.5      93   -251    176    268    320 159.5  36.4  34102  288.59 0855.20
2009/04/23 10:42:31.6      17   -228    187    229    295 175.6  43.7  34108  288.70 0855.20
2009/04/23 10:42:31.7     159   -115    128    197    234 125.9  36.3  34110  288.72 0855.20
2009/04/23 10:42:31.8      88    -94    205    129    242 136.8  64.7  34110  288.74 0855.20
2009/04/23 10:42:31.9     179   -109    202    210    291 121.3  49.0  34110  288.71 0855.20
2009/04/23 10:42:32.0     237    -91    201    254    323 111.1  42.4  34106  288.66 0855.20
2009/04/23 10:42:32.1     227    -68    155    238    284 106.8  36.0  34108  288.68 0855.20
2009/04/23 10:42:32.2     222    -51    157    228    276 103.2  37.6  34108  288.68 0855.20
2009/04/23 10:42:32.3     258   -103    181    279    332 111.8  36.0  34102  288.59 0855.16
2009/04/23 10:42:32.4     216    -78    213    230    313 109.9  47.7  34104  288.61 0855.16
2009/04/23 10:42:32.5     147   -127    187    195    270 130.7  49.0  34108  288.70 0855.16
2009/04/23 10:42:32.6      53    -97    126    111    167 151.1  54.3  34110  288.72 0855.16
2009/04/23 10:42:32.7      32    -98    122    104    160 161.7  55.0  34114  288.80 0855.16
2009/04/23 10:42:32.8      95    -99    105    138    173 136.3  41.2  34112  288.77 0855.16
2009/04/23 10:42:32.9     -16    -49     94     52    107 198.3  68.8  34114  288.80 0855.16
2009/04/23 10:42:33.0      13      4     78     14     79  71.6  90.0  34122  288.92 0855.16
2009/04/23 10:42:33.1      -5    -11     73     13     74 205.4  90.0  34120  288.91 0855.16
2009/04/23 10:42:33.2      21     33     95     40    103  32.5  76.6  34130  289.08 0855.16
2009/04/23 10:42:33.4     -21    -43     67     48     82 206.3  61.1  34116  288.84 0855.16
2009/04/23 10:42:33.4     -41     13     49     44     65 287.7  52.2  34120  288.91 0855.16
2009/04/23 10:42:33.5       0     23     47     24     52 359.1  71.9  34120  288.89 0855.16
2009/04/23 10:42:33.6      34     44     -7     56     57  37.8  -7.3  34116  288.82 0855.16
2009/04/23 10:42:33.7      20    -67     60     71     92 163.1  44.3  34116  288.84 0855.16
2009/04/23 10:42:33.8      40    -26     74     48     88 123.3  64.1  34122  288.92 0855.16
2009/04/23 10:42:33.9     -30      9     85     32     90 288.2  78.6  34128  289.02 0855.16
2009/04/23 10:42:34.0      -8     12     96     15     97 327.5  90.0  34134  289.13 0855.16
2009/04/23 10:42:34.1      -2      0     75      3     75 270.0  90.0  34130  289.08 0855.16
2009/04/23 10:42:34.2       9    -27     79     29     84 161.3  79.7  34122  288.94 0855.16
2009/04/23 10:42:34.3     -16    -18     51     25     56 221.4  72.8  34122  288.94 0855.16
2009/04/23 10:42:34.4      -8      3     46      9     46 295.3  90.0  34132  289.09 0855.16
2009/04/23 10:42:34.5     -39      0     28     40     48 270.8  38.6  34126  288.99 0855.16
2009/04/23 10:42:34.6     -41     77     17     88     90 331.9  11.1  34116  288.84 0855.16
2009/04/23 10:42:34.7      10     78     72     79    106   8.0  47.9  34118  288.86 0855.16
2009/04/23 10:42:34.8      14     81     74     83    111   9.8  46.4  34116  288.84 0855.16
2009/04/23 10:42:34.9     -16     59     58     62     84 344.9  48.5  34122  288.92 0855.16
2009/04/23 10:42:35.0     -55     45     27     72     76 309.6  20.0  34118  288.86 0855.16
2009/04/23 10:42:35.1     -51     77     12     93     94 326.6   7.5  34116  288.82 0855.16
2009/04/23 10:42:35.2      13    108     41    109    116   7.1  21.0  34114  288.80 0855.16
2009/04/23 10:42:35.3      43    116     45    124    131  20.5  20.4  34128  289.04 0855.16
2009/04/23 10:42:35.4     149     97     38    179    184  56.9  12.2  34190  290.08 0855.16
2009/04/23 10:42:35.5     148    178     56    232    239  39.6  13.7  34168  289.71 0855.16
2009/04/23 10:42:35.7     142    128     14    192    193  47.8   4.2  34168  289.72 0855.16
2009/04/23 10:42:35.8     113    136      7    177    178  39.7   2.3  34178  289.89 0855.16
2009/04/23 10:42:35.8     173    143     12    225    226  50.5   3.3  34146  289.35 0855.16
2009/04/23 10:42:35.9     144     57     -1    155    156  68.3  -0.5  34152  289.45 0855.16
2009/04/23 10:42:36.0     102     13    -31    103    107  82.5 -22.3  34158  289.53 0855.16
2009/04/23 10:42:36.1      93     -4    -30     94     98  93.0 -23.3  34168  289.70 0855.16
2009/04/23 10:42:36.2     131    -72     -8    150    151 118.9  -3.1  34168  289.70 0855.16
2009/04/23 10:42:36.3     125   -103    -17    163    164 129.5  -6.2  34172  289.77 0855.15
2009/04/23 10:42:36.4     141    -69     12    158    159 116.2   4.6  34170  289.74 0855.15
2009/04/23 10:42:36.5     127    -42     -9    135    136 108.6  -4.1  34174  289.82 0855.15
2009/04/23 10:42:36.6     157    -32     66    161    174 101.5  23.4  34156  289.52 0855.15
2009/04/23 10:42:36.7     224     -1     85    225    240  90.4  21.5  34154  289.46 0855.15
2009/04/23 10:42:36.8     196     20     69    198    210  83.9  19.4  34174  289.80 0855.15
2009/04/23 10:42:36.9     204    -21     68    206    218  96.1  18.4  34172  289.77 0855.15
2009/04/23 10:42:37.0     189    -14    103    190    216  94.4  30.8  34178  289.89 0855.15
2009/04/23 10:42:37.1     273    -21    101    274    292  94.6  21.0  34182  289.93 0855.15
2009/04/23 10:42:37.2     278     -8     97    279    296  91.7  19.2  34144  289.29 0855.15
2009/04/23 10:42:37.3     230    -70    107    241    263 106.9  25.9  34152  289.44 0855.15
2009/04/23 10:42:37.4     179   -168     85    246    261 133.2  19.2  34158  289.53 0855.15
2009/04/23 10:42:37.5     113   -147    106    186    214 142.4  32.4  34164  289.65 0855.15
2009/04/23 10:42:37.6     111   -170    151    204    253 146.8  39.9  34120  288.88 0855.15
2009/04/23 10:42:37.7      69   -208    140    220    260 161.5  35.5  34118  288.87 0855.15
2009/04/23 10:42:37.8      61   -200    146    210    255 163.1  38.4  34120  288.90 0855.15
2009/04/23 10:42:37.9      55   -240    121    247    275 167.1  28.2  34116  288.81 0855.15
2009/04/23 10:42:38.0      95   -193    136    216    255 153.7  35.5  34120  288.88 0855.15
2009/04/23 10:42:38.1      29   -194    121    197    231 171.3  35.0  34118  288.87 0855.15
2009/04/23 10:42:38.2       0   -202    138    203    245 180.2  37.6  34124  288.97 0855.15
2009/04/23 10:42:38.3     -34   -174    114    178    211 191.1  35.6  34166  289.67 0855.15
2009/04/23 10:42:38.4     -25   -124    140    127    189 191.6  53.0  34172  289.77 0855.15
2009/04/23 10:42:38.5       7    -82    123     83    148 175.1  62.7  34154  289.48 0855.15
2009/04/23 10:42:38.6       0   -127     95    128    159 180.4  40.4  34126  289.01 0855.15
2009/04/23 10:42:38.7      16   -123     98    125    158 172.4  42.0  34126  289.01 0855.15
2009/04/23 10:42:38.8      81    -84    105    117    157 135.9  46.6  34122  288.94 0855.15
2009/04/23 10:42:38.9      53    -79    124     96    156 146.2  58.2  34134  289.14 0855.15
2009/04/23 10:42:39.0     -34    -17    132     39    137 242.9  83.3  34148  289.36 0855.15
2009/04/23 10:42:39.1     -40    -49    122     64    137 219.7  70.4  34142  289.26 0855.15
2009/04/23 10:42:39.2     -20    -32     91     38     98 212.6  76.6  34142  289.26 0855.15
2009/04/23 10:42:39.3      58    -30    107     66    125 118.0  65.1  34148  289.36 0855.15
2009/04/23 10:42:39.4      14    -93    141     95    170 171.1  62.8  34148  289.36 0855.15
2009/04/23 10:42:39.5       1    -67    111     68    130 179.0  65.7  34148  289.38 0855.15
2009/04/23 10:42:39.6     -56     94    130    110    170 329.3  55.6  34144  289.31 0855.15
2009/04/23 10:42:39.7      -7     85    153     86    175 354.7  68.5  34142  289.28 0855.15
2009/04/23 10:42:39.8      23    198    152    200    251   6.9  40.9  34138  289.20 0855.15
2009/04/23 10:42:39.9     -87    161    126    184    223 331.5  37.6  34138  289.19 0855.15
2009/04/23 10:42:40.0     -34    177    168    181    246 349.1  47.9  34136  289.18 0855.15
2009/04/23 10:42:40.1     -14     94    172     96    196 351.1  68.5  34146  289.35 0855.15
2009/04/23 10:42:40.2      59     31    185     67    196  62.0  79.2  34146  289.35 0855.15
2009/04/23 10:42:40.3     165      0    131    166    211  90.0  42.4  34148  289.36 0855.14
2009/04/23 10:42:40.4     109    -12    123    110    165  96.6  53.5  34146  289.33 0855.14
2009/04/23 10:42:40.5      23    112     90    115    146  12.0  41.7  34186  290.01 0855.14
2009/04/23 10:42:40.6      69    112     65    132    147  31.6  27.3  34172  289.77 0855.14
2009/04/23 10:42:40.7      21    124     98    126    159   9.8  42.0  34164  289.63 0855.14
2009/04/23 10:42:40.8      76     69    115    103    154  47.8  53.7  34174  289.80 0855.14
2009/04/23 10:42:40.9      45     77     98     90    133  30.3  52.2  34186  290.02 0855.14
2009/04/23 10:42:41.0      -6    120     95    121    153 356.9  42.2  34188  290.06 0855.14
2009/04/23 10:42:41.1      23     81     96     85    128  16.0  54.2  34192  290.13 0855.14
2009/04/23 10:42:41.2       7     63    101     64    119   7.1  64.7  34188  290.06 0855.14
2009/04/23 10:42:41.3     -47     57     89     75    116 320.3  55.8  34182  289.94 0855.14
2009/04/23 10:42:41.4     -52     38     64     65     91 306.0  50.0  34186  290.01 0855.14
2009/04/23 10:42:41.5     -58    -26     68     64     93 245.6  51.2  34196  290.19 0855.14
2009/04/23 10:42:41.6     -72    -71     65    102    120 225.6  35.5  34198  290.21 0855.14
2009/04/23 10:42:41.7     -50    -79     88     94    128 212.5  48.0  34208  290.38 0855.14
2009/04/23 10:42:41.8     -53    -99    111    113    158 208.5  49.8  34208  290.38 0855.14
2009/04/23 10:42:41.9     -31    -59    106     67    125 208.1  64.7  34206  290.35 0855.14
2009/04/23 10:42:42.0     -20    -76    135     79    156 195.2  67.0  34198  290.21 0855.14
2009/04/23 10:42:42.1     -32    -64    111     72    132 207.2  64.6  34202  290.28 0855.14
2009/04/23 10:42:42.2       4    -24     62     25     66 170.2  77.1  34198  290.21 0855.14
2009/04/23 10:42:42.3    -127    -57     79    140    160 245.6  31.9  34186  290.02 0855.15
2009/04/23 10:42:42.4    -151    -35     59    156    166 256.7  21.5  34184  289.97 0855.15
2009/04/23 10:42:42.5    -129    -66     64    145    158 242.9  25.1  34220  290.58 0855.15
2009/04/23 10:42:42.6    -115    -67     80    134    156 239.8  34.0  34230  290.75 0855.15
2009/04/23 10:42:42.7    -137    -81     81    160    179 239.4  28.7  34244  290.99 0855.15
2009/04/23 10:42:42.8    -121    -84     88    148    172 235.4  34.0  34238  290.89 0855.15
2009/04/23 10:42:42.9    -143    -91    101    170    197 237.6  33.5  34242  290.98 0855.15
2009/04/23 10:42:43.0    -162    -59     85    173    192 249.8  28.0  34236  290.86 0855.15
2009/04/23 10:42:43.1    -143    -38     74    149    166 254.9  28.0  34240  290.94 0855.15
2009/04/23 10:42:43.2    -136    -38     71    142    158 254.1  28.5  34230  290.75 0855.15
2009/04/23 10:42:43.3    -126    -16     62    128    142 262.5  27.3  34234  290.82 0855.15
2009/04/23 10:42:43.4    -138    -41     58    145    156 253.2  23.0  34236  290.86 0855.15
2009/04/23 10:42:43.5    -128    -41     74    135    153 252.3  31.4  34232  290.79 0855.15
2009/04/23 10:42:43.6     -85    -22     55     88    103 255.4  35.5  34234  290.82 0855.15
2009/04/23 10:42:43.7     -99    -29     55    104    117 253.6  30.3  34238  290.91 0855.15
2009/04/23 10:42:43.8     -82    -27     43     87     97 251.8  27.8  34230  290.77 0855.15
2009/04/23 10:42:43.9     -72    -38     49     82     95 242.0  34.4  34238  290.91 0855.15
2009/04/23 10:42:44.0     -48    -50     66     70     96 224.2  49.0  34238  290.91 0855.15
2009/04/23 10:42:44.1     -60    -60     78     85    115 225.0  47.9  34244  291.01 0855.15
2009/04/23 10:42:44.2      -8   -109     47    110    119 184.5  24.1  34210  290.41 0855.15
2009/04/23 10:42:44.3     -36   -115     59    121    134 197.4  27.8  34192  290.13 0855.17
2009/04/23 10:42:44.4     -32    -63     56     71     90 207.2  42.7  34204  290.33 0855.17
2009/04/23 10:42:44.5     -54    -57     65     79    102 223.3  43.8  34228  290.72 0855.17
2009/04/23 10:42:44.6     -50    -42     69     66     95 230.4  51.2  34230  290.75 0855.17
2009/04/23 10:42:44.7      26     -8     89     28     93 108.6  81.8  34234  290.82 0855.17
2009/04/23 10:42:44.8     -27     -9     82     29     86 251.6  80.7  34210  290.41 0855.17
2009/04/23 10:42:44.9     -25    -47     94     54    108 208.1  67.7  34206  290.36 0855.17
2009/04/23 10:42:45.0      16     18     42     25     48  41.4  65.7  34210  290.43 0855.17
2009/04/23 10:42:45.1      84     28    116     89    146  71.4  58.5  34202  290.30 0855.17
2009/04/23 10:42:45.2      24     73    115     78    138  18.7  62.6  34216  290.52 0855.17
2009/04/23 10:42:45.3     -88    128    128    156    201 325.3  43.7  34238  290.89 0855.17
2009/04/23 10:42:45.4     -50    138    121    148    191 339.9  43.7  34266  291.38 0855.17
2009/04/23 10:42:45.5     -17     91    112     93    145 348.9  56.3  34242  290.96 0855.17
2009/04/23 10:42:45.6     116    -22     86    119    146 101.0  39.5  34244  290.99 0855.17
2009/04/23 10:42:45.7     158   -120     85    199    216 127.3  24.6  34246  291.04 0855.17
2009/04/23 10:42:45.8     156    -88    142    180    229 119.5  42.4  34194  290.16 0855.17
2009/04/23 10:42:45.9     278     25    222    280    357  84.8  42.4  34270  291.45 0855.17
2009/04/23 10:42:46.0     282     42    184    286    340  81.4  35.6  34292  291.80 0855.17
2009/04/23 10:42:46.1     231     71    261    242    355  72.9  52.5  34278  291.56 0855.17
2009/04/23 10:42:46.2     293     30    178    295    344  84.1  34.1  34228  290.72 0855.17
2009/04/23 10:42:46.3     306     68    177    314    360  77.4  32.0  34252  291.15 0855.20
2009/04/23 10:42:46.4     321     65    126    328    351  78.6  22.2  34218  290.55 0855.20
2009/04/23 10:42:46.5     310    128    116    336    356  67.6  19.2  34204  290.32 0855.20
2009/04/23 10:42:46.6     329     43    109    332    350  82.5  18.2  34240  290.94 0855.20
2009/04/23 10:42:46.7     308    108    189    327    377  70.7  32.7  34258  291.23 0855.20
2009/04/23 10:42:46.8     362     56    127    367    389  81.1  19.2  34204  290.33 0855.20
2009/04/23 10:42:46.9     233     -3    200    234    307  90.9  44.8  34238  290.88 0855.20
2009/04/23 10:42:47.0     152     85    183    175    253  60.9  51.2  34240  290.94 0855.20
2009/04/23 10:42:47.1     284    158    205    326    385  60.8  35.5  34198  290.20 0855.20
2009/04/23 10:42:47.2     428    266    208    505    546  58.1  23.6  34164  289.65 0855.20
2009/04/23 10:42:47.3     364    242     55    438    442  56.4   7.2  34156  289.49 0855.20
2009/04/23 10:42:47.4     384    228     70    447    453  59.3   8.9  34152  289.44 0855.20
2009/04/23 10:42:47.5     375    309     99    486    497  50.5  11.6  34138  289.20 0855.20
2009/04/23 10:42:47.6     232    183    247    296    385  51.8  44.0  34182  289.94 0855.20
2009/04/23 10:42:47.7     111     70    272    132    302  57.5  72.7  34186  290.00 0855.20
2009/04/23 10:42:47.8     362   -193    262    411    487 118.1  35.6  34146  289.34 0855.20
2009/04/23 10:42:47.9     327   -224    246    397    467 124.4  35.0  34124  288.95 0855.20
2009/04/23 10:42:48.0     264   -204    222    334    401 127.7  36.6  34128  289.04 0855.20
2009/04/23 10:42:48.1     276   -141    194    310    365 117.1  35.2  34126  289.01 0855.20
2009/04/23 10:42:48.2     250   -172    204    304    366 124.6  37.2  34134  289.13 0855.20
2009/04/23 10:42:48.3     271   -197    128    336    359 126.0  21.7  34136  289.16 0855.22
2009/04/23 10:42:48.4     198   -177    108    266    287 131.8  23.1  34142  289.27 0855.22
2009/04/23 10:42:48.5     140   -218     93    260    276 147.4  20.4  34166  289.68 0855.22
2009/04/23 10:42:48.7      94   -253    171    271    320 159.5  35.3  34176  289.83 0855.22
2009/04/23 10:42:48.8     148   -261    209    301    366 150.4  38.0  34128  289.04 0855.22
2009/04/23 10:42:48.9     116   -218    164    248    297 151.9  36.5  34128  289.02 0855.22
2009/04/23 10:42:49.0     141   -232    169    272    320 148.6  34.9  34136  289.15 0855.22
2009/04/23 10:42:49.1     142   -124    169    189    253 131.1  46.9  34152  289.44 0855.22
2009/04/23 10:42:49.2      72   -191    217    205    298 159.3  52.1  34168  289.71 0855.22
2009/04/23 10:42:49.3     -67   -265    318    274    419 194.3  55.0  34188  290.04 0855.22
2009/04/23 10:42:49.4    -104   -219    273    243    365 205.4  53.9  34184  289.98 0855.22
2009/04/23 10:42:49.5    -153   -173    254    232    344 221.5  53.0  34188  290.05 0855.22
2009/04/23 10:42:49.6    -161   -147    138    219    258 227.6  35.5  34190  290.07 0855.22
2009/04/23 10:42:49.7    -183   -160    133    244    277 228.9  31.0  34184  289.98 0855.22
2009/04/23 10:42:49.8    -223   -150    127    270    298 236.0  27.1  34176  289.85 0855.22
2009/04/23 10:42:49.9     -83   -124    174    150    229 213.8  55.0  34144  289.31 0855.22
2009/04/23 10:42:50.0      10   -136    130    137    188 175.5  48.5  34132  289.11 0855.22
2009/04/23 10:42:50.1      50   -182    123    189    225 164.4  35.7  34126  289.01 0855.22
2009/04/23 10:42:50.2       8   -176    139    177    225 177.1  42.4  34156  289.52 0855.22
2009/04/23 10:42:50.3    -131   -179    196    223    296 216.3  45.8  34174  289.81 0855.22
2009/04/23 10:42:50.4     -94   -184    168    207    266 207.2  43.7  34134  289.14 0855.22
2009/04/23 10:42:50.5     -59   -225    148    233    276 194.7  35.5  34132  289.09 0855.22
2009/04/23 10:42:50.6     -87   -263    150    278    315 198.3  30.7  34138  289.19 0855.22
2009/04/23 10:42:50.7     -32   -275    193    277    337 186.7  38.4  34132  289.10 0855.22
2009/04/23 10:42:50.8     -99   -298    122    315    337 198.5  22.3  34134  289.13 0855.22
2009/04/23 10:42:50.9    -109   -277    127    298    323 201.6  24.6  34134  289.12 0855.22
2009/04/23 10:42:51.0    -126   -245     61    276    283 207.2  12.6  34156  289.49 0855.22
2009/04/23 10:42:51.1    -142   -231     33    272    275 211.7   7.1  34150  289.39 0855.22
2009/04/23 10:42:51.2    -123   -250     15    279    280 206.3   3.1  34146  289.32 0855.22
2009/04/23 10:42:51.3    -175   -165    -38    241    245 226.7  -9.0  34144  289.31 0855.22
2009/04/23 10:42:51.4     -91   -121     43    152    159 217.0  16.0  34150  289.40 0855.23
2009/04/23 10:42:51.5     -77    -86     30    116    120 221.9  14.7  34152  289.45 0855.23
2009/04/23 10:42:51.6      87    -66     65    110    127 127.3  33.5  34150  289.41 0855.23
2009/04/23 10:42:51.7      37   -111    117    118    166 161.3  50.2  34164  289.65 0855.23
2009/04/23 10:42:51.8      15    -83     75     85    113 169.3  46.4  34166  289.67 0855.23
2009/04/23 10:42:51.9    -100    -63    102    119    156 238.0  45.1  34178  289.87 0855.23
2009/04/23 10:42:52.0    -140   -123     44    187    193 228.7  13.2  34152  289.45 0855.23
2009/04/23 10:42:52.1    -101   -134     20    169    171 217.0   6.9  34160  289.58 0855.23
2009/04/23 10:42:52.2     -94    -93    122    133    180 225.1  47.5  34170  289.74 0855.23
2009/04/23 10:42:52.3     -54   -201     90    209    227 195.1  24.9  34164  289.63 0855.23
2009/04/23 10:42:52.4    -169   -139    -54    219    226 230.5 -13.9  34170  289.74 0855.23
2009/04/23 10:42:52.5    -129   -109     44    170    176 229.8  14.5  34178  289.87 0855.23
2009/04/23 10:42:52.6    -157    -92      8    183    184 239.6   2.5  34186  290.01 0855.23
2009/04/23 10:42:52.7    -203   -155      9    256    257 232.7   2.1  34172  289.76 0855.23
2009/04/23 10:42:52.8     -87   -136    -53    162    171 212.5 -18.3  34170  289.75 0855.23
2009/04/23 10:42:52.9     -47    -99     20    110    112 205.3  10.6  34168  289.72 0855.23
2009/04/23 10:42:53.0     -30    -68     49     75     89 203.6  36.0  34166  289.69 0855.23
2009/04/23 10:42:53.1     -73    -61      5     96     97 230.0   3.3  34172  289.79 0855.23
2009/04/23 10:42:53.2     -48    -43    -22     65     68 227.8 -23.6  34170  289.75 0855.23
2009/04/23 10:42:53.3     -85    -13    -34     86     92 261.2 -26.9  34172  289.77 0855.23
2009/04/23 10:42:53.4    -119    -30    -78    123    145 255.8 -39.9  34178  289.89 0855.19
2009/04/23 10:42:53.5     -44    -60    -90     75    117 216.0 -60.7  34150  289.40 0855.19
2009/04/23 10:42:53.6    -104    -91      1    139    140 228.7   0.8  34148  289.38 0855.19
2009/04/23 10:42:53.7    -139    -99      6    171    172 234.5   2.1  34162  289.60 0855.19
2009/04/23 10:42:53.8     -23   -187    119    189    223 187.1  35.5  34160  289.58 0855.19
2009/04/23 10:42:53.9     -81   -217    146    232    274 200.5  35.5  34174  289.81 0855.19
2009/04/23 10:42:54.0     -75   -208     77    222    236 200.0  19.2  34172  289.79 0855.19
2009/04/23 10:42:54.1     -44   -176     70    182    195 194.0  21.7  34178  289.89 0855.19
2009/04/23 10:42:54.2     -80   -201     58    217    225 201.8  15.2  34182  289.96 0855.19
2009/04/23 10:42:54.3     -44   -197     65    202    213 192.7  17.9  34170  289.75 0855.19
2009/04/23 10:42:54.4    -103   -168     82    198    214 211.6  23.6  34182  289.96 0855.19
2009/04/23 10:42:54.5    -116   -204     23    235    237 209.6   5.7  34184  289.97 0855.19
2009/04/23 10:42:54.6    -129   -151      2    199    200 220.5   0.7  34166  289.67 0855.19
2009/04/23 10:42:54.7    -248   -158    -87    295    308 237.5 -16.5  34182  289.95 0855.19
2009/04/23 10:42:54.8    -174   -137   -105    222    245 231.6 -31.5  34202  290.29 0855.19
2009/04/23 10:42:54.9     -23   -168     28    170    173 188.0   9.3  34166  289.67 0855.19
2009/04/23 10:42:55.0    -139   -139    110    197    225 225.1  31.4  34174  289.80 0855.19
2009/04/23 10:42:55.1    -163    -91    112    188    218 240.7  33.5  34174  289.80 0855.19
2009/04/23 10:42:55.2    -172     -5    131    173    217 268.3  40.9  34180  289.92 0855.19
2009/04/23 10:42:55.3    -158    -74    147    175    228 244.7  43.8  34192  290.13 0855.19
2009/04/23 10:42:55.4    -154     18    105    156    188 277.0  37.0  34202  290.28 0855.19
2009/04/23 10:42:55.5    -211    -44     38    216    220 258.1  10.1  34198  290.23 0855.19
2009/04/23 10:42:55.6    -241    -33     24    244    246 262.0   5.7  34212  290.44 0855.19
2009/04/23 10:42:55.7    -266     -4     37    267    270 269.0   8.0  34220  290.59 0855.19
2009/04/23 10:42:55.8    -220     86     39    237    241 291.3   9.5  34198  290.20 0855.19
2009/04/23 10:42:55.9    -162    102     29    192    195 302.4   8.8  34184  289.99 0855.19
2009/04/23 10:42:56.0    -181     81     34    199    203 294.2   9.9  34186  290.01 0855.19
2009/04/23 10:42:56.1    -230     49     96    236    254 282.2  23.4  34176  289.85 0855.19
2009/04/23 10:42:56.2    -259     -3     78    260    272 269.2  16.8  34176  289.83 0855.19
2009/04/23 10:42:56.3    -145   -110     89    183    203 232.9  28.0  34162  289.62 0855.19
2009/04/23 10:42:56.4    -132    -51     50    142    151 248.7  19.4  34162  289.62 0855.19
2009/04/23 10:42:56.5     -94   -107    106    143    178 221.4  40.1  34164  289.65 0855.19
2009/04/23 10:42:56.6    -114     11    132    115    175 275.7  54.6  34168  289.72 0855.19
2009/04/23 10:42:56.7    -129    161    160    207    261 321.3  41.6  34152  289.42 0855.19
2009/04/23 10:42:56.8    -192    231     96    301    316 320.4  17.7  34146  289.32 0855.19
2009/04/23 10:42:56.9    -179    212    120    278    302 319.9  25.1  34156  289.49 0855.19
2009/04/23 10:42:57.0    -157    163     78    227    241 315.9  18.9  34138  289.20 0855.19
2009/04/23 10:42:57.1     -84    132     97    157    184 327.5  35.0  34152  289.43 0855.19
2009/04/23 10:42:57.2     -12     36    103     38    109 341.5  79.7  34174  289.80 0855.19
2009/04/23 10:42:57.3     -47     -3    106     48    116 265.6  73.5  34170  289.74 0855.19
2009/04/23 10:42:57.4     -17    170    125    171    211 354.2  39.7  34162  289.60 0855.18
2009/04/23 10:42:57.5      85     57     91    103    137  56.3  45.9  34184  289.99 0855.18
2009/04/23 10:42:57.6     124     54    128    136    186  66.4  48.0  34190  290.09 0855.18
2009/04/23 10:42:57.7      16     49    117     52    128  18.5  74.9  34196  290.19 0855.18
2009/04/23 10:42:57.8     -29     10    179     31    181 290.0  90.0  34182  289.96 0855.18
2009/04/23 10:42:57.9     -74      7     74     75    105 276.1  50.5  34178  289.87 0855.18
2009/04/23 10:42:58.0    -129    -89     30    157    160 235.4  10.8  34172  289.79 0855.18
2009/04/23 10:42:58.1    -126   -114     65    171    182 227.8  21.7  34168  289.72 0855.18
2009/04/23 10:42:58.2     -10   -105     39    106    112 185.8  20.4  34168  289.70 0855.18
2009/04/23 10:42:58.3     -10    -31     98     33    103 198.7  81.0  34172  289.77 0855.18
2009/04/23 10:42:58.4      75   -126     57    147    157 149.3  22.3  34170  289.74 0855.18
2009/04/23 10:42:58.5     168    -56     43    178    184 108.6  13.5  34172  289.79 0855.18
2009/04/23 10:42:58.6     119     -5     44    120    127  92.6  21.0  34172  289.77 0855.18
2009/04/23 10:42:58.7     162    101     66    192    204  58.0  18.9  34168  289.72 0855.18
2009/04/23 10:42:58.8     196     93    103    218    241  64.6  27.1  34172  289.76 0855.18
2009/04/23 10:42:58.9     145    -10    188    146    238  94.3  58.4  34168  289.72 0855.18
2009/04/23 10:42:59.0     134    -41    151    141    206 107.3  52.2  34164  289.63 0855.18
2009/04/23 10:42:59.1     125    -30    107    129    167 103.7  44.1  34166  289.67 0855.18
2009/04/23 10:42:59.2      94    -43    121    104    159 114.8  55.0  34172  289.77 0855.18
2009/04/23 10:42:59.3      97   -135     69    167    180 144.2  23.6  34152  289.43 0855.18
2009/04/23 10:42:59.4     259    -31     97    261    278  97.0  21.0  34150  289.39 0855.20
2009/04/23 10:42:59.5     338   -139     30    366    368 112.5   4.7  34152  289.42 0855.20
2009/04/23 10:42:59.6     387     23   -129    388    408  86.6 -23.8  34142  289.27 0855.20
2009/04/23 10:42:59.7     482    188    -46    518    521  68.7  -5.1  34136  289.16 0855.20
2009/04/23 10:42:59.8     430    229    103    488    499  62.0  12.0  34104  288.64 0855.20
2009/04/23 10:42:59.9     376    214     54    433    437  60.3   7.1  34118  288.87 0855.20
2009/04/23 10:43:00.0     415    171    -24    449    450  67.6  -3.2  34096  288.50 0855.20
2009/04/23 10:43:00.1     540    173     17    568    569  72.2   1.8  34122  288.92 0855.20
2009/04/23 10:43:00.2     463    169     32    494    495  70.0   3.7  34140  289.22 0855.20
2009/04/23 10:43:00.3     384    -22    113    385    402  93.3  16.4  34130  289.08 0855.20
2009/04/23 10:43:00.4     524    212    121    566    579  67.9  12.1  34136  289.15 0855.20
2009/04/23 10:43:00.5     492    237    145    547    566  64.3  14.9  34146  289.33 0855.20
2009/04/23 10:43:00.6     379    304    190    487    522  51.3  22.4  34152  289.44 0855.20
2009/04/23 10:43:00.7     332    329    219    468    516  45.3  27.0  34170  289.73 0855.20
2009/04/23 10:43:00.8     331    210    171    392    427  57.6  25.1  34144  289.31 0855.20
2009/04/23 10:43:00.9     216    151    129    264    293  54.9  27.8  34168  289.71 0855.20
2009/04/23 10:43:01.0     314    417    126    523    538  37.0  13.6  34176  289.84 0855.20
2009/04/23 10:43:01.1     367    196    -16    417    418  61.9  -2.2  34166  289.68 0855.20
2009/04/23 10:43:01.2     316    148      4    350    351  64.9   0.7  34166  289.69 0855.20
2009/04/23 10:43:01.3     278    199     66    342    349  54.4  11.0  34176  289.84 0855.20
2009/04/23 10:43:01.4      62    293     42    300    304  12.0   8.0  34186  290.02 0855.22
2009/04/23 10:43:01.5      43    116    -63    124    139  20.5 -33.6  34170  289.75 0855.22
2009/04/23 10:43:01.6     -79    109    -75    135    154 324.0 -35.8  34184  289.97 0855.22
2009/04/23 10:43:01.7      12      0    -82     13     83  85.6 -90.0  34174  289.82 0855.22
2009/04/23 10:43:01.8     141   -117     21    184    186 129.8   6.7  34162  289.60 0855.22
2009/04/23 10:43:01.9     124   -158    -44    201    206 141.9 -12.6  34160  289.58 0855.22
2009/04/23 10:43:02.0     181   -152   -101    237    257 130.2 -28.7  34154  289.47 0855.22
2009/04/23 10:43:02.1     215    -76     27    229    231 109.5   6.9  34154  289.48 0855.22
2009/04/23 10:43:02.2     114    -25    -42    117    124 102.4 -24.4  34158  289.55 0855.22
2009/04/23 10:43:02.3      82    -22    -26     86     90 105.5 -17.0  34154  289.48 0855.22
2009/04/23 10:43:02.4      62   -131   -112    145    183 154.6 -45.8  34148  289.38 0855.22
2009/04/23 10:43:02.5     -31   -168    -64    172    183 190.7 -25.7  34154  289.48 0855.22
2009/04/23 10:43:02.6     102   -117     -6    156    157 139.0  -2.3  34150  289.40 0855.22
2009/04/23 10:43:02.7     118    -70    132    138    190 120.7  48.7  34160  289.57 0855.22
2009/04/23 10:43:02.8      26    -41    173     49    179 147.4  83.9  34164  289.65 0855.22
2009/04/23 10:43:02.9      54    -60    123     81    147 138.1  64.1  34168  289.70 0855.22
2009/04/23 10:43:03.0     -57    -50     65     76    100 228.7  44.8  34166  289.69 0855.22
2009/04/23 10:43:03.1     -94    -83     28    126    130 228.7  12.6  34178  289.87 0855.22
2009/04/23 10:43:03.2    -133     94    102    164    193 305.3  35.5  34160  289.58 0855.22
2009/04/23 10:43:03.3    -175    110     11    207    208 302.2   3.3  34158  289.53 0855.22
2009/04/23 10:43:03.4    -140     46     35    148    153 288.4  13.2  34162  289.60 0855.24
2009/04/23 10:43:03.5    -100    100    121    142    186 315.0  44.5  34160  289.58 0855.24
2009/04/23 10:43:03.6    -123    148     68    193    204 320.4  20.0  34160  289.58 0855.24
2009/04/23 10:43:03.7    -228    165     42    282    286 306.0   8.5  34166  289.68 0855.24
2009/04/23 10:43:03.8    -167    311     32    354    356 331.7   5.3  34196  290.18 0855.24
2009/04/23 10:43:03.9    -155    219    -65    269    277 324.8 -13.7  34164  289.64 0855.24
2009/04/23 10:43:04.0    -236    121     46    266    271 297.3   9.9  34152  289.42 0855.24
2009/04/23 10:43:04.1    -186    127     16    226    227 304.2   4.2  34170  289.74 0855.24
2009/04/23 10:43:04.2    -163    104    115    194    225 302.5  33.5  34174  289.82 0855.24
2009/04/23 10:43:04.3    -153    141    102    209    232 312.7  27.4  34164  289.65 0855.24
2009/04/23 10:43:04.4    -186    100     40    212    216 298.4  10.8  34180  289.91 0855.24
2009/04/23 10:43:04.5    -207     88    -55    225    232 293.1 -13.9  34168  289.72 0855.24
2009/04/23 10:43:04.6    -149     98     36    179    183 303.5  11.4  34182  289.96 0855.24
2009/04/23 10:43:04.7    -145     75     -6    164    165 297.5  -2.2  34184  289.99 0855.24
2009/04/23 10:43:04.8    -230   -117    -92    259    276 242.9 -19.7  34142  289.27 0855.24
2009/04/23 10:43:04.9    -194    -75   -138    209    250 248.7 -40.9  34134  289.12 0855.24
2009/04/23 10:43:05.0    -136    -36   -144    141    201 254.9 -54.8  34124  288.97 0855.24
2009/04/23 10:43:05.1    -171     55    -99    180    205 287.9 -35.8  34138  289.19 0855.24
2009/04/23 10:43:05.2    -139     75    -89    158    181 298.4 -36.0  34176  289.84 0855.24
2009/04/23 10:43:05.3    -174     82   -116    193    225 295.4 -38.4  34172  289.79 0855.24
2009/04/23 10:43:05.4    -125     72    -83    145    167 299.8 -37.1  34168  289.72 0855.25
2009/04/23 10:43:05.5    -217     -3    -61    218    226 269.0 -20.0  34158  289.55 0855.25
2009/04/23 10:43:05.6    -294    -72   -128    303    328 256.1 -28.7  34196  290.19 0855.25
2009/04/23 10:43:05.7    -213    -44    -77    218    232 258.1 -19.4  34172  289.79 0855.25
2009/04/23 10:43:05.8    -239   -252   -249    348    427 223.5 -43.6  34132  289.11 0855.25
2009/04/23 10:43:05.9    -228   -430   -134    487    506 208.0 -15.4  34142  289.28 0855.25
2009/04/23 10:43:06.0    -108   -288    -91    308    322 200.7 -16.5  34114  288.80 0855.25
2009/04/23 10:43:06.1    -443   -109   -135    457    477 256.1 -16.5  34142  289.27 0855.25
2009/04/23 10:43:06.2    -311   -247   -177    398    435 231.5 -29.7  34132  289.11 0855.25
2009/04/23 10:43:06.3    -181   -250   -220    309    379 216.0 -43.4  34116  288.81 0855.25
2009/04/23 10:43:06.4    -346   -184   -189    392    435 242.0 -31.8  34122  288.92 0855.25
2009/04/23 10:43:06.5    -290   -341   -256    449    516 220.4 -36.7  34124  288.96 0855.25
2009/04/23 10:43:06.6    -234   -368   -288    437    523 212.5 -40.9  34116  288.81 0855.25
2009/04/23 10:43:06.7    -448    -46   -149    451    474 264.1 -23.5  34136  289.18 0855.25
2009/04/23 10:43:06.8    -435     40   -212    438    486 275.3 -32.2  34134  289.12 0855.25
2009/04/23 10:43:06.9    -366      6   -186    367    411 271.0 -33.5  34156  289.52 0855.25
2009/04/23 10:43:07.0    -540    -40   -204    542    579 265.7 -26.1  34126  288.99 0855.25
2009/04/23 10:43:07.1    -408   -126   -198    428    471 252.8 -31.0  34132  289.11 0855.25
2009/04/23 10:43:07.2    -245   -111   -149    270    308 245.6 -35.8  34152  289.42 0855.25
2009/04/23 10:43:07.3     -59   -141   -156    153    218 202.7 -54.8  34154  289.48 0855.25
2009/04/23 10:43:07.4    -261    -31   -163    263    309 263.2 -39.6  34136  289.15 0855.24
2009/04/23 10:43:07.5    -206    -29    -94    209    229 262.0 -30.3  34124  288.97 0855.24
2009/04/23 10:43:07.6    -127   -100    -54    162    170 231.8 -23.6  34136  289.18 0855.24
2009/04/23 10:43:07.7    -188   -176      7    258    259 226.9   1.7  34176  289.85 0855.24
2009/04/23 10:43:07.8    -196   -157     12    252    253 231.4   2.9  34176  289.85 0855.24
2009/04/23 10:43:07.9      97   -251    -28    270    272 158.8  -6.0  34162  289.59 0855.24
2009/04/23 10:43:08.0      82   -320     -2    331    332 165.6  -0.4  34164  289.64 0855.24
2009/04/23 10:43:08.1     -51   -318     91    323    336 189.1  15.8  34164  289.65 0855.24
2009/04/23 10:43:08.2     -40   -313    127    316    340 187.3  23.0  34164  289.64 0855.24
2009/04/23 10:43:08.3     -40   -312    121    315    337 187.3  22.2  34164  289.64 0855.24
2009/04/23 10:43:08.4     -56   -353     26    358    359 189.1   4.2  34148  289.37 0855.24
2009/04/23 10:43:08.5    -351   -365    -65    507    512 223.9  -7.3  34120  288.90 0855.24
2009/04/23 10:43:08.6    -431   -346   -121    553    567 231.3 -12.4  34118  288.87 0855.24
2009/04/23 10:43:08.7    -455   -343   -134    570    586 233.0 -13.3  34124  288.97 0855.24
2009/04/23 10:43:08.8    -518   -369   -206    637    670 234.5 -17.9  34134  289.12 0855.24
2009/04/23 10:43:08.9    -524   -223   -128    570    585 247.0 -12.7  34144  289.29 0855.24
2009/04/23 10:43:09.0    -426   -201   -163    472    500 244.7 -19.1  34120  288.91 0855.24
2009/04/23 10:43:09.1    -415   -195   -192    459    497 244.8 -28.3  34122  288.93 0855.24
2009/04/23 10:43:09.2    -413   -271   -189    495    529 236.7 -26.4  34094  288.46 0855.24
2009/04/23 10:43:09.3    -376   -298   -192    480    516 231.6 -27.4  34100  288.57 0855.24
2009/04/23 10:43:09.4    -384   -316   -177    498    528 230.5 -24.8  34096  288.49 0855.24
2009/04/23 10:43:09.5    -368   -283   -182    465    499 232.5 -26.9  34094  288.47 0855.24
2009/04/23 10:43:09.6    -345   -182   -178    391    429 242.1 -30.6  34106  288.67 0855.24
2009/04/23 10:43:09.7    -268   -190   -102    329    345 234.7 -17.3  34126  288.98 0855.24
2009/04/23 10:43:09.8    -143   -304     14    337    338 205.2   2.4  34126  288.98 0855.24
2009/04/23 10:43:09.9    -241    -76     40    253    257 252.3   9.0  34132  289.09 0855.24
2009/04/23 10:43:10.0     -28   -118    -31    122    127 193.4 -14.5  34136  289.16 0855.24
2009/04/23 10:43:10.1      10    -91    -90     92    128 173.3 -54.4  34132  289.09 0855.24
2009/04/23 10:43:10.2    -243   -168   -135    296    325 235.4 -30.7  34112  288.76 0855.24
2009/04/23 10:43:10.3    -170   -150   -138    228    266 228.6 -38.8  34128  289.03 0855.24
2009/04/23 10:43:10.4    -246    -89    -96    262    279 250.0 -25.4  34150  289.41 0855.24
2009/04/23 10:43:10.5    -210   -115    -66    240    249 241.2 -15.4  34146  289.32 0855.24
2009/04/23 10:43:10.6    -172    -95    -94    197    218 240.9 -31.7  34114  288.80 0855.24
2009/04/23 10:43:10.7    -126   -110   -142    168    219 228.7 -48.9  34108  288.70 0855.24
2009/04/23 10:43:10.8    -131   -137   -130    190    230 223.7 -42.0  34114  288.80 0855.24
2009/04/23 10:43:10.9    -113    -60    -63    129    143 242.0 -32.2  34128  289.02 0855.24
2009/04/23 10:43:11.0     -85    -26    -70     90    114 252.7 -46.6  34128  289.04 0855.24
2009/04/23 10:43:11.1     -96    -65    -68    117    135 235.8 -37.8  34122  288.94 0855.24
2009/04/23 10:43:11.2    -124    -19    -66    126    142 261.2 -34.2  34112  288.77 0855.24
2009/04/23 10:43:11.3    -192    -40   -137    197    239 258.1 -42.8  34112  288.75 0855.24
2009/04/23 10:43:11.4    -226    -10   -101    227    248 267.4 -30.3  34108  288.68 0855.23
2009/04/23 10:43:11.5    -188     56   -120    197    230 286.6 -38.8  34110  288.74 0855.23
2009/04/23 10:43:11.6    -171     68   -108    185    214 291.8 -37.8  34110  288.72 0855.23
2009/04/23 10:43:11.7    -141     22   -101    143    175 279.2 -43.0  34106  288.65 0855.23
2009/04/23 10:43:11.8    -145    -31   -103    149    181 257.6 -42.8  34110  288.74 0855.23
2009/04/23 10:43:11.9    -125    -29    -94    129    159 256.7 -44.1  34120  288.91 0855.23
2009/04/23 10:43:12.0    -114     27    -79    118    142 283.7 -41.4  34110  288.72 0855.23
2009/04/23 10:43:12.1     -84     61    -60    104    120 306.0 -37.3  34112  288.77 0855.23
2009/04/23 10:43:12.2     -15     45    -58     48     75 341.3 -60.7  34124  288.97 0855.23
2009/04/23 10:43:12.3       5     41    -56     42     70   7.1 -63.8  34128  289.04 0855.23
2009/04/23 10:43:12.4      -4     -3    -74      6     74 230.5 -90.0  34142  289.26 0855.24
2009/04/23 10:43:12.5     -19    -23    -97     30    101 219.6 -86.7  34160  289.58 0855.24
2009/04/23 10:43:12.6     -51    -22   -145     56    155 246.5 -83.0  34146  289.33 0855.24
2009/04/23 10:43:12.7    -108    -22   -107    111    154 258.6 -53.8  34150  289.41 0855.24
2009/04/23 10:43:12.8    -119    -15   -122    120    171 262.5 -54.5  34150  289.41 0855.24
2009/04/23 10:43:12.9     -54    -18   -122     58    135 251.4 -77.3  34146  289.35 0855.24
2009/04/23 10:43:13.0      75    -24    -49     79     92 107.7 -39.9  34146  289.33 0855.24
2009/04/23 10:43:13.1     109    -79    -17    135    137 126.0  -7.3  34142  289.26 0855.24
2009/04/23 10:43:13.2     150    -23     11    152    153  98.8   4.4  34142  289.26 0855.24
2009/04/23 10:43:13.3     151    -11     32    152    156  94.3  12.0  34144  289.30 0855.24
2009/04/23 10:43:13.4      97     -7     67     98    118  94.4  37.6  34142  289.28 0855.24
2009/04/23 10:43:13.5     105     -1    112    106    154  90.9  51.6  34150  289.40 0855.24
2009/04/23 10:43:13.6     179      1     82    180    197  89.6  26.2  34150  289.41 0855.24
2009/04/23 10:43:13.7     165     12     51    166    174  85.6  17.3  34148  289.38 0855.24
2009/04/23 10:43:13.8     158      2     35    159    163  89.2  12.6  34148  289.38 0855.24
2009/04/23 10:43:13.9     169    -30      0    172    173 100.1   0.0  34146  289.35 0855.24
2009/04/23 10:43:14.0     163    -45     -7    170    171 105.5  -2.6  34142  289.26 0855.24
2009/04/23 10:43:14.1     130    -21     65    132    147  99.2  27.3  34130  289.08 0855.24
2009/04/23 10:43:14.2     116    -46     95    125    157 111.7  41.4  34126  289.01 0855.24
2009/04/23 10:43:14.3     120    -76     99    143    173 122.4  37.8  34130  289.08 0855.24
2009/04/23 10:43:14.4     143   -108     93    180    202 127.1  29.3  34134  289.14 0855.24
2009/04/23 10:43:14.5     132   -124     73    182    196 133.3  23.0  34132  289.11 0855.24
2009/04/23 10:43:14.6      97   -107     70    145    161 137.7  27.4  34126  289.01 0855.24
2009/04/23 10:43:14.7     105    -84     31    135    139 128.6  13.1  34124  288.96 0855.24
2009/04/23 10:43:14.8      91   -138     -9    166    167 146.6  -3.1  34128  289.02 0855.24
2009/04/23 10:43:14.9     128   -208    -35    245    248 148.4  -8.2  34122  288.92 0855.24
2009/04/23 10:43:15.0     155   -127     10    201    202 129.5   2.9  34122  288.92 0855.24
2009/04/23 10:43:15.1     217   -140     57    259    266 122.9  12.4  34130  289.05 0855.24
2009/04/23 10:43:15.2     235    -97    106    255    276 112.6  24.1  34136  289.15 0855.24
2009/04/23 10:43:15.3     164    -54    163    173    237 108.4  48.2  34136  289.16 0855.24
2009/04/23 10:43:15.4     183   -100    152    209    258 118.9  39.7  34138  289.19 0855.24
2009/04/23 10:43:15.5     200    -54    114    208    237 105.3  31.3  34130  289.06 0855.24
2009/04/23 10:43:15.6     175    -57     74    185    199 108.2  23.0  34130  289.06 0855.24
2009/04/23 10:43:15.7     156    -31     19    160    162 101.2   6.9  34128  289.04 0855.24
2009/04/23 10:43:15.8     173     13     45    174    180  85.7  14.5  34126  289.01 0855.24
2009/04/23 10:43:15.9     135     36    100    140    172  74.9  38.8  34136  289.16 0855.24
2009/04/23 10:43:16.0      74      1    110     75    133  89.1  62.7  34138  289.19 0855.24
2009/04/23 10:43:16.1     -22      3     45     23     50 279.7  70.8  34152  289.45 0855.24
2009/04/23 10:43:16.2     -16    -41     81     45     92 201.8  68.8  34144  289.30 0855.24
2009/04/23 10:43:16.3      72     40     98     83    128  61.1  55.8  34134  289.13 0855.24
2009/04/23 10:43:16.5      79     70    131    106    168  48.2  56.9  34150  289.41 0855.24
2009/04/23 10:43:16.6      20     49     88     54    103  22.7  64.7  34156  289.50 0855.24
2009/04/23 10:43:16.7      50     65     74     83    111  37.4  46.4  34144  289.31 0855.24
2009/04/23 10:43:16.8     126     57    133    139    192  65.6  49.0  34138  289.19 0855.24
2009/04/23 10:43:16.9     178     59    123    188    224  71.6  36.0  34134  289.13 0855.24
2009/04/23 10:43:17.0     169    123     95    210    230  54.0  26.2  34132  289.09 0855.24
2009/04/23 10:43:17.1     -35    111    110    117    160 342.6  48.2  34148  289.38 0855.24
2009/04/23 10:43:17.2     -41    153     98    159    186 344.9  35.0  34152  289.45 0855.24
2009/04/23 10:43:17.3      63     59     95     87    128  46.4  52.2  34142  289.26 0855.24
2009/04/23 10:43:17.4     188     62    182    199    269  71.6  47.1  34142  289.25 0855.24
2009/04/23 10:43:17.5     221     74    136    234    270  71.4  33.1  34140  289.24 0855.24
2009/04/23 10:43:17.6     166     94    221    191    292  60.5  54.6  34144  289.29 0855.24
2009/04/23 10:43:17.7     165     72    213    181    279  66.5  55.4  34140  289.22 0855.24
2009/04/23 10:43:17.8     112     72    157    134    206  57.1  55.4  34142  289.26 0855.24
2009/04/23 10:43:17.9      24     63    103     68    123  20.9  64.1  34140  289.23 0855.24
2009/04/23 10:43:18.0      -4     52    110     53    122 355.5  72.8  34142  289.26 0855.24
2009/04/23 10:43:18.1     -37     62    144     73    161 329.3  71.4  34142  289.28 0855.24
2009/04/23 10:43:18.2      25      5    103     26    106  76.7  85.9  34146  289.35 0855.24
2009/04/23 10:43:18.3     -79     -3    139     80    160 267.4  67.7  34154  289.48 0855.24
2009/04/23 10:43:18.4    -207     24    185    209    279 276.8  45.9  34150  289.41 0855.24
2009/04/23 10:43:18.5    -379   -138    203    404    452 250.0  28.7  34154  289.46 0855.22
2009/04/23 10:43:18.6    -385    -97    108    398    413 255.8  15.3  34144  289.31 0855.22
2009/04/23 10:43:18.7    -343   -111    256    361    442 252.1  38.8  34148  289.36 0855.22
2009/04/23 10:43:18.8    -369   -191    206    416    464 242.6  28.2  34150  289.39 0855.22
2009/04/23 10:43:18.9    -119   -166    198    205    285 215.8  49.0  34146  289.32 0855.22
2009/04/23 10:43:19.0      76    -30    137     82    159 111.7  66.4  34140  289.24 0855.22
2009/04/23 10:43:19.1     -15   -196    183    197    268 184.4  47.9  34140  289.24 0855.22
2009/04/23 10:43:19.2    -175   -111    130    208    245 237.6  35.2  34142  289.25 0855.22
2009/04/23 10:43:19.3    -118   -120     59    169    180 224.5  19.2  34140  289.23 0855.22
2009/04/23 10:43:19.4    -209    -50     67    215    226 256.5  17.3  34132  289.09 0855.22
2009/04/23 10:43:19.5    -326    -99    104    341    357 253.0  17.1  34142  289.26 0855.22
2009/04/23 10:43:19.6    -197     27     89    199    217 278.0  25.7  34140  289.23 0855.22
2009/04/23 10:43:19.7    -358    -78     71    367    374 257.6  11.0  34138  289.21 0855.22
2009/04/23 10:43:19.8    -376    -32     13    378    379 265.1   2.1  34142  289.25 0855.22
2009/04/23 10:43:19.9     -36   -179    132    183    225 191.6  39.5  34144  289.31 0855.22
2009/04/23 10:43:20.0     -42   -198    176    203    268 192.0  45.1  34136  289.17 0855.22
2009/04/23 10:43:20.1     -84   -132    144    157    213 212.5  47.7  34142  289.26 0855.22
2009/04/23 10:43:20.2     -94   -169    158    194    250 209.0  43.7  34134  289.14 0855.22
2009/04/23 10:43:20.3    -137   -149     55    203    211 222.5  15.2  34134  289.14 0855.22
2009/04/23 10:43:20.4      31    -31    123     45    130 135.0  79.2  34138  289.21 0855.22
2009/04/23 10:43:20.5      -6    -40    111     41    118 188.9  79.1  34150  289.40 0855.22
2009/04/23 10:43:20.6     114    -78    125    139    186 124.6  46.9  34146  289.33 0855.22
2009/04/23 10:43:20.7      73    -43     80     86    117 120.7  47.9  34140  289.24 0855.22
2009/04/23 10:43:20.8     138    -56     65    150    163 112.2  24.6  34134  289.13 0855.22
2009/04/23 10:43:20.9      80     15     30     82     87  79.4  20.4  34144  289.30 0855.22
2009/04/23 10:43:21.0      54     -7    -80     55     97  97.9 -67.0  34140  289.23 0855.22
2009/04/23 10:43:21.1      64    -13   -127     66    143 101.5 -75.2  34138  289.19 0855.22
2009/04/23 10:43:21.2      69    -26   -165     74    180 110.8 -78.9  34146  289.35 0855.22
2009/04/23 10:43:21.3      86      7   -137     87    162  85.2 -69.1  34142  289.28 0855.22
2009/04/23 10:43:21.4      91     -6   -109     92    142  94.3 -60.2  34138  289.19 0855.22
2009/04/23 10:43:21.5      89    -43    -55     99    113 115.8 -35.8  34140  289.23 0855.22
2009/04/23 10:43:21.6     212     47    -48    218    224  77.4 -12.4  34142  289.28 0855.22
2009/04/23 10:43:21.7     371    147    -15    400    401  68.3  -2.2  34136  289.18 0855.22
2009/04/23 10:43:21.8     368    219    108    429    443  59.3  14.2  34132  289.09 0855.22
2009/04/23 10:43:21.9     585    249    258    636    686  66.9  23.4  34136  289.16 0855.22
2009/04/23 10:43:22.0     529    -77     89    535    543  98.4   9.4  34142  289.26 0855.22
2009/04/23 10:43:22.1     660    -17    269    661    713  91.5  23.5  34132  289.10 0855.22
2009/04/23 10:43:22.2     451     97    112    462    476  77.8  13.7  34142  289.25 0855.22
2009/04/23 10:43:22.3     432    101    137    444    465  76.7  17.2  34150  289.41 0855.22
2009/04/23 10:43:22.4     389     62    212    395    448  80.9  30.7  34140  289.24 0855.22
2009/04/23 10:43:22.5     573     48     49    576    579  85.2   4.9  34136  289.15 0855.24
2009/04/23 10:43:22.6     539    103    280    549    616  79.2  29.2  34130  289.08 0855.24
2009/04/23 10:43:22.7     436     54    190    440    479  82.9  25.0  34130  289.06 0855.24
2009/04/23 10:43:22.8     391     57    179    396    434  81.6  26.0  34132  289.11 0855.24
2009/04/23 10:43:22.9     321     80    218    331    396  75.9  36.5  34138  289.21 0855.24
2009/04/23 10:43:23.0     448     37    189    450    488  85.2  24.1  34132  289.10 0855.24
2009/04/23 10:43:23.1     470     53    168    474    503  83.5  19.5  34130  289.06 0855.24
2009/04/23 10:43:23.2     491      4    171    492    520  89.5  20.0  34120  288.88 0855.24
2009/04/23 10:43:23.3     493     -3    407    494    640  90.4  43.7  34124  288.97 0855.24
2009/04/23 10:43:23.4     349    -78    248    358    435 102.7  38.0  34136  289.17 0855.24
2009/04/23 10:43:23.5     342   -211    247    403    472 121.7  34.4  34142  289.27 0855.24
2009/04/23 10:43:23.6     246    -70    312    256    403 105.9  56.4  34142  289.28 0855.24
2009/04/23 10:43:23.7     242     99    178    262    316  67.6  37.6  34134  289.12 0855.24
2009/04/23 10:43:23.8     238     -6    242    239    340  91.5  50.2  34140  289.22 0855.24
2009/04/23 10:43:23.9     299     46    318    303    439  81.2  51.5  34144  289.30 0855.24
2009/04/23 10:43:24.0     391     17    362    392    533  87.4  47.7  34150  289.39 0855.24
2009/04/23 10:43:24.1     180     -1    272    181    326  90.6  63.4  34142  289.27 0855.24
2009/04/23 10:43:24.2     264    246    284    362    460  47.0  42.1  34138  289.21 0855.24
2009/04/23 10:43:24.3     160    -12    315    161    353  94.3  71.0  34156  289.49 0855.24
2009/04/23 10:43:24.4     158    107    272    191    332  55.8  61.5  34150  289.41 0855.24
2009/04/23 10:43:24.5      17    110    231    112    256   8.9  72.7  34162  289.62 0855.25
2009/04/23 10:43:24.6      71    193    208    206    292  20.3  50.1  34138  289.20 0855.25
2009/04/23 10:43:24.7     216    229    233    315    391  43.3  40.2  34142  289.26 0855.25
2009/04/23 10:43:24.8     263    228    222    349    413  49.1  35.5  34142  289.26 0855.25
2009/04/23 10:43:24.9     158    285    156    326    361  29.0  27.3  34128  289.04 0855.25
2009/04/23 10:43:25.0      87    211    149    229    273  22.5  36.3  34144  289.31 0855.25
2009/04/23 10:43:25.1     280    181    366    334    495  57.1  53.0  34144  289.31 0855.25
2009/04/23 10:43:25.2     212    383    290    439    526  29.0  36.5  34158  289.54 0855.25
2009/04/23 10:43:25.3     195    409    181    454    488  25.5  23.0  34166  289.66 0855.25
2009/04/23 10:43:25.4     243    222    146    330    360  47.6  25.3  34152  289.42 0855.25
2009/04/23 10:43:25.5     302    206    190    366    412  55.7  29.5  34142  289.26 0855.25
2009/04/23 10:43:25.6     239    243     88    342    354  44.5  14.5  34156  289.52 0855.25
2009/04/23 10:43:25.7     262    143    107    299    317  61.4  20.6  34150  289.39 0855.25
2009/04/23 10:43:25.8     216     86    151    233    277  68.2  36.0  34158  289.54 0855.25
2009/04/23 10:43:25.9     280    127    177    308    355  65.6  32.6  34176  289.84 0855.25
2009/04/23 10:43:26.0     331    184     89    379    390  60.9  13.2  34178  289.86 0855.25
2009/04/23 10:43:26.1     256    135     90    290    304  62.1  17.3  34198  290.20 0855.25
2009/04/23 10:43:26.2     243    208     93    321    335  49.5  16.1  34208  290.37 0855.25
2009/04/23 10:43:26.3     194    123     47    230    235  57.6  11.6  34182  289.93 0855.25
2009/04/23 10:43:26.4     374    111     71    391    398  73.5  10.3  34210  290.43 0855.25
2009/04/23 10:43:26.5     267     54     42    273    277  78.5   8.8  34224  290.66 0855.27
2009/04/23 10:43:26.6     257     58    140    264    298  77.2  30.3  34202  290.29 0855.27
2009/04/23 10:43:26.7     197     85    215    215    304  66.5  50.1  34204  290.32 0855.27
2009/04/23 10:43:26.8     154     41    241    160    289  75.0  63.6  34192  290.12 0855.27
2009/04/23 10:43:26.9     226     84    249    242    347  69.6  50.9  34198  290.22 0855.27
2009/04/23 10:43:27.0     269     58    145    276    311  77.8  30.1  34214  290.49 0855.27
2009/04/23 10:43:27.1     246     45    174    251    305  79.6  38.0  34204  290.32 0855.27
2009/04/23 10:43:27.2     232    100    259    253    362  66.5  50.7  34206  290.35 0855.27
2009/04/23 10:43:27.3     194    192    181    273    327  45.3  36.6  34226  290.68 0855.27
2009/04/23 10:43:27.4     148    149    141    211    253  44.8  37.0  34224  290.66 0855.27
2009/04/23 10:43:27.5     185     99    106    211    236  61.8  28.5  34236  290.87 0855.27
2009/04/23 10:43:27.6     385    158     61    417    422  67.7   8.3  34246  291.02 0855.27
2009/04/23 10:43:27.7     289    101    197    307    364  70.7  35.6  34244  291.00 0855.27
2009/04/23 10:43:27.8     318     24    229    319    392  85.6  39.3  34234  290.83 0855.27
2009/04/23 10:43:27.9     169     60    223    180    286  70.3  56.9  34240  290.92 0855.27
2009/04/23 10:43:28.0     295     59    228    301    377  78.5  40.9  34238  290.91 0855.27
2009/04/23 10:43:28.1     303    183    189    355    402  58.8  30.3  34232  290.81 0855.27
2009/04/23 10:43:28.2     281    163    253    325    411  59.9  41.9  34220  290.59 0855.27
2009/04/23 10:43:28.3     377    190    160    423    452  63.2  21.8  34226  290.68 0855.27
2009/04/23 10:43:28.4     272    262    151    378    407  46.1  23.0  34182  289.94 0855.27
2009/04/23 10:43:28.5      38    280    222    283    359   7.8  42.1  34180  289.91 0855.25
2009/04/23 10:43:28.6       5    287    170    288    334   1.1  33.3  34188  290.03 0855.25
2009/04/23 10:43:28.7     -27    238     97    240    258 353.3  23.0  34176  289.83 0855.25
2009/04/23 10:43:28.8      23    248     88    250    266   5.3  19.4  34178  289.86 0855.25
2009/04/23 10:43:28.9       8    276    100    277    295   1.8  19.9  34214  290.48 0855.25
2009/04/23 10:43:29.0     -49    240    108    246    268 348.4  25.3  34272  291.46 0855.25
2009/04/23 10:43:29.1    -211    135    -14    251    252 302.6  -3.3  34170  289.75 0855.25
2009/04/23 10:43:29.2      -1     97      0     98     99 359.1  -0.3  34200  290.26 0855.25
2009/04/23 10:43:29.3      43     79     12     91     92  28.5   8.0  34208  290.40 0855.25
2009/04/23 10:43:29.4       6     85    -50     86     99   4.5 -37.3  34214  290.50 0855.25
2009/04/23 10:43:29.5      39     98    -13    106    107  21.8  -7.3  34216  290.53 0855.25
2009/04/23 10:43:29.6      54     73    -16     92     94  36.5 -10.3  34210  290.43 0855.25
2009/04/23 10:43:29.7      98    137   -104    169    198  35.6 -38.8  34148  289.36 0855.25
2009/04/23 10:43:29.8     152    171   -106    230    253  41.7 -31.0  34126  289.00 0855.25
2009/04/23 10:43:29.9     138    189   -115    235    261  36.1 -32.4  34148  289.37 0855.25
2009/04/23 10:43:30.0     133    161      8    210    211  39.6   2.3  34176  289.84 0855.25
2009/04/23 10:43:30.1     111    291   -173    312    356  20.9 -35.8  34164  289.64 0855.25
2009/04/23 10:43:30.2     -53    323    -34    328    330 350.7  -6.0  34156  289.50 0855.25
2009/04/23 10:43:30.3    -110    276     73    298    307 338.2  13.9  34160  289.56 0855.25
2009/04/23 10:43:30.4    -226    238     70    329    337 316.5  12.2  34170  289.74 0855.25
2009/04/23 10:43:30.5    -176    170    184    245    306 314.0  40.7  34186  290.02 0855.24
2009/04/23 10:43:30.6    -169    178    155    246    290 316.6  35.5  34212  290.46 0855.24
2009/04/23 10:43:30.7    -169    248    107    301    320 325.7  19.6  34208  290.37 0855.24
2009/04/23 10:43:30.8    -217    248     93    330    343 318.9  15.8  34204  290.33 0855.24
2009/04/23 10:43:30.9    -230    207    118    310    331 312.0  21.8  34220  290.59 0855.24
2009/04/23 10:43:31.0    -215    141    169    258    308 303.3  36.3  34216  290.53 0855.24
2009/04/23 10:43:31.1     -79    152    131    172    216 332.4  41.4  34212  290.47 0855.24
2009/04/23 10:43:31.2     -64     55     80     85    116 310.4  48.5  34212  290.45 0855.24
2009/04/23 10:43:31.3     -67     -3     93     68    115 267.4  60.5  34206  290.36 0855.24
2009/04/23 10:43:31.4     -64     92     60    113    127 325.3  29.8  34216  290.52 0855.24
2009/04/23 10:43:31.5     -67     43      0     80     81 302.9   0.2  34210  290.43 0855.24
2009/04/23 10:43:31.6     -31      5     30     32     43 279.7  50.0  34206  290.36 0855.24
2009/04/23 10:43:31.7     166    165     -8    235    236  45.2  -2.1  34194  290.14 0855.24
2009/04/23 10:43:31.8     193    105     41    220    224  61.4  10.6  34176  289.85 0855.24
2009/04/23 10:43:31.9     194     77     93    209    228  68.3  25.7  34190  290.09 0855.24
2009/04/23 10:43:32.0     184     25    174    186    254  82.1  47.9  34188  290.03 0855.24
2009/04/23 10:43:32.1     237     13    220    238    324  86.7  47.7  34184  289.97 0855.24
2009/04/23 10:43:32.2     226     61    259    235    349  74.7  53.2  34186  290.00 0855.24
2009/04/23 10:43:32.3     276      3    260    277    379  89.2  48.0  34180  289.91 0855.24
2009/04/23 10:43:32.4     308     52    213    313    378  80.3  37.4  34162  289.60 0855.24
2009/04/23 10:43:32.5     262      3    180    263    318  89.2  37.7  34162  289.61 0855.21
2009/04/23 10:43:32.6     177    252     21    308    309  35.1   3.9  34172  289.78 0855.21
2009/04/23 10:43:32.7     155    173     63    233    242  41.9  15.3  34178  289.86 0855.21
2009/04/23 10:43:32.8      62    177    105    188    215  19.6  31.4  34170  289.75 0855.21
2009/04/23 10:43:32.9      32    228     57    231    238   8.1  13.9  34182  289.93 0855.21
2009/04/23 10:43:33.0      29    217    -58    219    227   7.8 -15.0  34180  289.92 0855.21
2009/04/23 10:43:33.1     160    129    -63    206    215  51.1 -22.1  34178  289.87 0855.21
2009/04/23 10:43:33.2     136    140     50    196    203  44.3  14.5  34180  289.92 0855.21
2009/04/23 10:43:33.3     180    113    -38    213    217  57.8 -10.1  34170  289.75 0855.21
2009/04/23 10:43:33.4     299    252    -15    392    393  49.9  -2.2  34172  289.76 0855.21
2009/04/23 10:43:33.5     246    100      0    266    267  67.8   0.0  34168  289.70 0855.20
2009/04/23 10:43:33.6     353     73    145    361    389  78.2  23.0  34162  289.60 0855.20
2009/04/23 10:43:33.7     209    202     53    291    296  46.0  10.3  34166  289.68 0855.20
2009/04/23 10:43:33.8     171    164     82    237    252  46.2  19.2  34158  289.54 0855.20
2009/04/23 10:43:33.9     176    190     55    260    266  42.8  12.1  34160  289.56 0855.20
2009/04/23 10:43:34.0     117    159    129    198    236  36.5  36.3  34158  289.53 0855.20
2009/04/23 10:43:34.1     112    106      9    155    156  46.8   3.6  34146  289.35 0855.20
2009/04/23 10:43:34.2      63     76    -10    100    101  39.7  -6.2  34144  289.31 0855.20
2009/04/23 10:43:34.3    -111     15    -54    113    125 278.0 -31.6  34164  289.65 0855.20
2009/04/23 10:43:34.4    -130     43    -67    138    153 288.6 -31.7  34174  289.82 0855.20
2009/04/23 10:43:34.5    -110     34    -40    116    123 287.3 -19.1  34174  289.80 0855.20
2009/04/23 10:43:34.6    -121     47    -36    130    135 291.3 -15.5  34168  289.72 0855.20
2009/04/23 10:43:34.7     -83     80      7    116    117 314.0   3.8  34166  289.69 0855.20
2009/04/23 10:43:34.8     -39     87     94     96    134 335.5  50.0  34164  289.65 0855.20
2009/04/23 10:43:34.9     -60     76     93     98    135 321.7  49.0  34170  289.75 0855.20
2009/04/23 10:43:35.0     -36     36     74     52     90 315.0  61.5  34176  289.84 0855.20
2009/04/23 10:43:35.1     -12    -45     62     47     77 196.0  59.4  34180  289.91 0855.20
2009/04/23 10:43:35.2       0    -25     42     26     49 179.1  64.7  34184  289.99 0855.20
2009/04/23 10:43:35.3     -51    -37     64     64     90 234.0  50.1  34174  289.82 0855.20
2009/04/23 10:43:35.4     -63    -63     50     90    102 225.0  31.4  34168  289.72 0855.20
2009/04/23 10:43:35.5     -51    -82     60     97    114 212.1  35.5  34170  289.75 0855.20
2009/04/23 10:43:35.6     -31    -92     73     98    122 198.7  40.7  34164  289.63 0855.20
2009/04/23 10:43:35.7       0     -8     34      9     35 175.5  86.9  34164  289.63 0855.20
2009/04/23 10:43:35.8     155     26    111    158    193  80.3  38.4  34142  289.28 0855.20
2009/04/23 10:43:35.9     144      2    107    145    180  89.1  40.1  34144  289.30 0855.20
2009/04/23 10:43:36.0      67     35    151     76    169  62.0  71.7  34158  289.53 0855.20
2009/04/23 10:43:36.1     -11      3     76     12     76 288.4  90.0  34172  289.77 0855.20
2009/04/23 10:43:36.2     -53     -8     94     54    108 261.2  67.7  34178  289.87 0855.20
2009/04/23 10:43:36.3     -72    -59     96     94    134 230.9  50.1  34168  289.70 0855.20
2009/04/23 10:43:36.4     -47    -67    100     83    129 215.2  56.3  34166  289.69 0855.20
2009/04/23 10:43:36.5     -76    -81     79    112    137 223.2  39.1  34164  289.65 0855.20
2009/04/23 10:43:36.6     -47   -100     93    111    144 205.3  43.8  34158  289.55 0855.20
2009/04/23 10:43:36.7      31    -99     87    104    135 162.2  43.8  34162  289.62 0855.20
2009/04/23 10:43:36.8      91    -36     60     98    114 111.7  35.5  34160  289.57 0855.20
2009/04/23 10:43:36.9     132      3    134    133    188  88.3  49.9  34168  289.70 0855.20
2009/04/23 10:43:37.0      95     31    121    101    157  71.6  55.8  34162  289.62 0855.20
2009/04/23 10:43:37.1      -9     77    116     78    139 352.9  62.7  34176  289.85 0855.20
2009/04/23 10:43:37.2     -37    -15     85     41     94 247.4  72.8  34178  289.89 0855.20
2009/04/23 10:43:37.3    -187      7     77    188    203 272.4  23.1  34178  289.87 0855.20
2009/04/23 10:43:37.4    -217    -80    -25    232    234 249.6  -6.2  34180  289.90 0855.20
2009/04/23 10:43:37.5    -197    -97     -1    220    221 243.8  -0.3  34172  289.79 0855.19
2009/04/23 10:43:37.6    -219    -97    -79    240    253 246.0 -18.3  34182  289.95 0855.19
2009/04/23 10:43:37.7    -109    -61     54    126    137 240.7  24.6  34172  289.79 0855.19
2009/04/23 10:43:37.8     -40    -85     89     95    130 205.3  48.0  34174  289.82 0855.19
2009/04/23 10:43:37.9       2   -187    101    188    213 179.3  30.6  34172  289.77 0855.19
2009/04/23 10:43:38.0     -57   -196     55    205    213 196.3  15.2  34176  289.84 0855.19
2009/04/23 10:43:38.1     -87   -157     91    180    201 209.0  29.1  34186  290.02 0855.19
2009/04/23 10:43:38.2    -153   -126     70    199    211 230.4  19.4  34188  290.06 0855.19
2009/04/23 10:43:38.3    -264    -53    -34    270    273 258.6  -7.3  34204  290.32 0855.19
2009/04/23 10:43:38.4    -348    -77    -91    357    369 257.5 -14.3  34188  290.06 0855.19
2009/04/23 10:43:38.5    -294    -59     19    300    301 258.6   3.6  34198  290.20 0855.19
2009/04/23 10:43:38.6    -271   -108     14    292    293 248.2   2.9  34200  290.24 0855.19
2009/04/23 10:43:38.7    -243    -93     57    261    268 248.9  12.4  34218  290.56 0855.19
2009/04/23 10:43:38.8    -272   -163     33    318    320 239.1   6.0  34228  290.71 0855.19
2009/04/23 10:43:38.9    -223   -168     75    280    290 232.9  15.0  34216  290.51 0855.19
2009/04/23 10:43:39.0    -204   -174     64    269    277 229.6  13.5  34216  290.53 0855.19
2009/04/23 10:43:39.2    -263   -114     45    287    291 246.5   9.0  34232  290.80 0855.19
2009/04/23 10:43:39.3    -300    -96     -6    316    317 252.2  -1.2  34220  290.59 0855.19
2009/04/23 10:43:39.3    -388    -97    -74    400    407 255.9 -10.5  34216  290.53 0855.19
2009/04/23 10:43:39.4    -389   -190   -119    434    451 243.9 -15.4  34200  290.24 0855.19
2009/04/23 10:43:39.5    -282   -169    -34    329    331 239.1  -6.0  34202  290.28 0855.18
2009/04/23 10:43:39.6    -202   -134    -82    243    256 236.3 -23.3  34202  290.27 0855.18
2009/04/23 10:43:39.7    -207   -131   -115    246    271 237.6 -31.5  34170  289.73 0855.18
2009/04/23 10:43:39.8    -131   -201    -69    241    250 213.2 -20.8  34192  290.12 0855.18
2009/04/23 10:43:39.9    -325   -135    -47    353    357 247.4  -7.6  34182  289.93 0855.18
2009/04/23 10:43:40.0    -208   -166   -130    267    296 231.4 -32.2  34150  289.41 0855.18
2009/04/23 10:43:40.1    -114   -241    -75    267    277 205.4 -20.4  34172  289.76 0855.18
2009/04/23 10:43:40.2    -122   -207    -44    241    246 210.5 -10.5  34174  289.80 0855.18
2009/04/23 10:43:40.3    -198   -277     21    341    342 215.6   3.6  34176  289.84 0855.18
2009/04/23 10:43:40.5    -166   -188    -51    252    258 221.4 -11.6  34168  289.70 0855.18
2009/04/23 10:43:40.5    -172   -352    -86    393    403 206.1 -12.4  34164  289.65 0855.18
2009/04/23 10:43:40.6    -102   -367    -49    382    386 195.6  -7.3  34166  289.67 0855.18
2009/04/23 10:43:40.7    -141   -351    -14    379    380 201.9  -2.2  34168  289.72 0855.18
2009/04/23 10:43:40.8    -114   -341    -20    360    361 198.5  -3.3  34168  289.72 0855.18
2009/04/23 10:43:40.9    -163   -310    -15    351    352 207.7  -2.6  34170  289.74 0855.18
2009/04/23 10:43:41.0     -84   -276    -49    289    294 197.0  -9.6  34168  289.71 0855.18
2009/04/23 10:43:41.1     -35   -293     46    296    300 186.9   8.9  34166  289.66 0855.18
2009/04/23 10:43:41.2     -52   -259     47    265    270 191.5  10.1  34172  289.76 0855.18
2009/04/23 10:43:41.3     -99   -286     16    303    304 199.2   3.1  34168  289.71 0855.18
2009/04/23 10:43:41.4    -151   -305      4    341    342 206.4   0.7  34166  289.67 0855.18
2009/04/23 10:43:41.6    -155   -277    -26    318    320 209.2  -4.8  34166  289.66 0855.17
2009/04/23 10:43:41.6     -76   -327     17    336    337 193.1   2.9  34156  289.52 0855.17
2009/04/23 10:43:41.7    -102   -309    -14    326    327 198.4  -2.6  34154  289.47 0855.17
2009/04/23 10:43:41.8    -125   -333    -42    356    359 200.7  -6.9  34154  289.47 0855.17
2009/04/23 10:43:41.9    -103   -389    -54    403    407 194.9  -7.7  34152  289.43 0855.17
2009/04/23 10:43:42.0     -99   -373     36    386    388 194.9   5.4  34152  289.42 0855.17
2009/04/23 10:43:42.1    -171   -360     27    399    400 205.5   3.9  34154  289.47 0855.17
2009/04/23 10:43:42.2    -200   -351      2    405    406 209.7   0.4  34154  289.48 0855.17
2009/04/23 10:43:42.3     -57   -331    -68    336    343 189.8 -11.5  34152  289.45 0855.17
2009/04/23 10:43:42.4      -7   -300    -61    301    308 181.4 -11.6  34156  289.49 0855.17
2009/04/23 10:43:42.5      18   -356      4    357    358 177.0   0.7  34148  289.38 0855.17
2009/04/23 10:43:42.6     -20   -328     10    329    330 183.6   1.9  34156  289.52 0855.17
2009/04/23 10:43:42.7      22   -384    -20    385    386 176.6  -3.0  34152  289.42 0855.17
2009/04/23 10:43:42.8     -32   -400     -8    402    403 184.7  -1.2  34154  289.48 0855.17
2009/04/23 10:43:42.9     -18   -392     34    393    395 182.7   5.0  34156  289.52 0855.17
2009/04/23 10:43:43.0     -15   -339     89    340    352 182.6  14.7  34162  289.59 0855.17
2009/04/23 10:43:43.1      44   -315    111    319    338 172.0  19.2  34162  289.59 0855.17
2009/04/23 10:43:43.3      54   -313    110    318    337 170.2  19.2  34162  289.59 0855.17
2009/04/23 10:43:43.3      41   -421     39    424    427 174.4   5.3  34156  289.51 0855.17
2009/04/23 10:43:43.5      21   -382     56    383    388 176.8   8.3  34154  289.47 0855.17
2009/04/23 10:43:43.6      68   -389     25    396    397 170.0   3.6  34158  289.55 0855.18
2009/04/23 10:43:43.7     123   -431     39    449    451 164.1   5.1  34150  289.39 0855.18
2009/04/23 10:43:43.8     184   -441      0    479    480 157.3   0.0  34152  289.44 0855.18
2009/04/23 10:43:43.9     152   -347    -60    380    385 156.3  -9.0  34150  289.40 0855.18
2009/04/23 10:43:44.0      69   -382     84    389    399 169.7  12.3  34150  289.40 0855.18
2009/04/23 10:43:44.1      97   -387    104    399    413 165.9  14.7  34152  289.43 0855.18
2009/04/23 10:43:44.2      97   -331    117    345    365 163.6  18.8  34142  289.28 0855.18
2009/04/23 10:43:44.3      51   -321    115    326    346 170.9  19.5  34152  289.43 0855.18
2009/04/23 10:43:44.4      45   -366     83    369    379 172.9  12.8  34146  289.32 0855.18
2009/04/23 10:43:44.5       0   -345     81    346    356 179.9  13.2  34142  289.28 0855.18
2009/04/23 10:43:44.6      16   -283     88    284    298 176.6  17.3  34142  289.27 0855.18
2009/04/23 10:43:44.7      47   -260     46    265    270 169.8   9.9  34142  289.27 0855.18
2009/04/23 10:43:44.8      71   -288     75    297    307 166.0  14.3  34146  289.32 0855.18
2009/04/23 10:43:44.9      96   -288     42    304    308 161.5   8.0  34144  289.31 0855.18
2009/04/23 10:43:45.0      58   -296    133    302    329 168.9  25.3  34144  289.29 0855.18
2009/04/23 10:43:45.1      67   -296    123    304    327 167.1  23.2  34142  289.27 0855.18
2009/04/23 10:43:45.2      30   -253    157    255    299 173.1  34.8  34146  289.32 0855.18
2009/04/23 10:43:45.3      79   -238    206    251    324 161.5  43.7  34156  289.49 0855.18
2009/04/23 10:43:45.4      48   -235    170    240    294 168.4  39.1  34154  289.47 0855.18
2009/04/23 10:43:45.5     127   -228    148    262    300 150.8  32.1  34152  289.42 0855.18
2009/04/23 10:43:45.6     153   -131     90    202    221 130.7  25.3  34148  289.38 0855.20
2009/04/23 10:43:45.7     141   -201     78    246    259 145.0  17.7  34144  289.29 0855.20
2009/04/23 10:43:45.8      96   -196     79    219    232 153.9  20.4  34142  289.26 0855.20
2009/04/23 10:43:45.9      -4   -182     89    183    203 181.4  28.0  34144  289.30 0855.20
2009/04/23 10:43:46.0     -44   -201     61    206    216 192.5  16.6  34142  289.26 0855.20
2009/04/23 10:43:46.1     -40   -191     55    196    204 192.0  15.8  34140  289.24 0855.20
2009/04/23 10:43:46.2     -65   -173     41    185    190 200.7  12.6  34144  289.30 0855.20
2009/04/23 10:43:46.3     -64   -189     24    200    202 198.7   6.9  34146  289.35 0855.20
2009/04/23 10:43:46.4      -8   -116     73    117    137 184.4  35.5  34148  289.38 0855.20
2009/04/23 10:43:46.5      45    -54     65     71     96 140.3  47.9  34156  289.50 0855.20
2009/04/23 10:43:46.6      75    -20     80     78    111 105.0  50.1  34152  289.43 0855.20
2009/04/23 10:43:46.7      89    -17    108     91    141 101.4  55.8  34156  289.50 0855.20
2009/04/23 10:43:46.8      55     72     26     91     95  37.4  16.3  34152  289.45 0855.20
2009/04/23 10:43:46.9      51     10     65     53     83  78.5  56.4  34152  289.43 0855.20
2009/04/23 10:43:47.0      25    -34     58     43     72 143.9  60.5  34156  289.52 0855.20
2009/04/23 10:43:47.1      31    -39     44     50     66 141.3  46.9  34154  289.48 0855.20
2009/04/23 10:43:47.2      22    -59     39     64     74 159.1  35.5  34150  289.41 0855.20
2009/04/23 10:43:47.3      -8    -61     69     62     92 188.0  53.3  34152  289.45 0855.20
2009/04/23 10:43:47.4      15    -23     55     28     61 147.5  71.9  34162  289.60 0855.20
2009/04/23 10:43:47.5      -6      7     44     10     45 320.4  88.0  34170  289.75 0855.20
2009/04/23 10:43:47.6       0     35     39     36     53 359.1  52.2  34170  289.74 0855.20
2009/04/23 10:43:47.7     -32      0     11     33     35 270.8  19.4  34170  289.75 0855.20
2009/04/23 10:43:47.8     -28    -26     42     39     57 226.7  51.2  34170  289.75 0855.20
2009/04/23 10:43:47.9     -47    -32     52     58     77 235.8  47.9  34178  289.89 0855.20
2009/04/23 10:43:48.0     -61    -11     40     63     74 259.4  35.5  34174  289.82 0855.20
2009/04/23 10:43:48.1     -72    -34     17     80     82 244.6  12.2  34162  289.62 0855.20
2009/04/23 10:43:48.2    -133      4    -43    134    140 272.1 -23.3  34178  289.87 0855.20
2009/04/23 10:43:48.3     -97    -62      2    116    117 237.5   1.2  34180  289.92 0855.20
2009/04/23 10:43:48.4    -114    -57    -13    128    129 243.4  -6.2  34212  290.47 0855.20
2009/04/23 10:43:48.5     -86    -77    -35    116    121 228.2 -21.7  34188  290.04 0855.20
2009/04/23 10:43:48.6    -106     44    -14    115    116 292.6  -7.3  34164  289.65 0855.20
2009/04/23 10:43:48.7     -49      6     30     50     58 277.0  35.5  34160  289.58 0855.20
2009/04/23 10:43:48.8     -21     -1     53     22     57 265.6  77.1  34172  289.77 0855.20
2009/04/23 10:43:48.9       8     -8     67     12     68 135.0  90.0  34170  289.75 0855.20
2009/04/23 10:43:49.0      42    -11     42     44     60 105.1  49.0  34166  289.69 0855.20
2009/04/23 10:43:49.1      45     42     25     62     66  46.9  23.0  34172  289.79 0855.20
2009/04/23 10:43:49.2      56     27     34     63     71  63.8  31.3  34172  289.77 0855.20
2009/04/23 10:43:49.3      40     32     40     52     65  51.4  41.7  34176  289.84 0855.20
2009/04/23 10:43:49.4      30     64     51     71     87  25.4  39.1  34170  289.75 0855.20
2009/04/23 10:43:49.5      28    115     78    119    142  13.8  36.0  34160  289.57 0855.20
2009/04/23 10:43:49.6     -30    123     57    127    139 346.2  26.2  34164  289.65 0855.18
2009/04/23 10:43:49.7     -31    124     85    128    153 345.7  36.0  34166  289.67 0855.18
2009/04/23 10:43:49.8     -58     57     77     82    112 314.9  48.0  34176  289.84 0855.18
2009/04/23 10:43:49.9     -85     31     49     91    103 290.0  31.3  34170  289.75 0855.18
2009/04/23 10:43:50.0     -70    -54    106     89    138 232.2  55.8  34164  289.65 0855.18
2009/04/23 10:43:50.1     -79    -99    152    127    198 218.7  55.8  34158  289.55 0855.18
2009/04/23 10:43:50.2     -27   -143    178    146    230 190.7  56.4  34158  289.55 0855.18
2009/04/23 10:43:50.3     -78   -256    102    268    286 196.9  22.0  34164  289.63 0855.18
2009/04/23 10:43:50.4     -82   -260     82    273    286 197.6  16.8  34162  289.59 0855.18
2009/04/23 10:43:50.5     -72   -267     33    277    280 195.2   6.9  34162  289.61 0855.18
2009/04/23 10:43:50.6    -159   -276     15    319    320 209.9   2.8  34176  289.85 0855.18
2009/04/23 10:43:50.7    -141   -274     53    309    314 207.2   9.9  34168  289.70 0855.18
2009/04/23 10:43:50.8     -98   -304     50    320    324 197.9   8.9  34152  289.44 0855.18
2009/04/23 10:43:50.9    -102   -370     47    384    387 195.5   7.1  34146  289.32 0855.18
2009/04/23 10:43:51.0     -85   -298     35    311    314 196.0   6.5  34154  289.47 0855.18
2009/04/23 10:43:51.1     -45   -358     20    361    362 187.3   3.3  34150  289.40 0855.18
2009/04/23 10:43:51.2      -3   -349    -17    350    351 180.6  -2.8  34154  289.47 0855.18
2009/04/23 10:43:51.3     -46   -387     22    390    391 186.9   3.2  34152  289.42 0855.18
2009/04/23 10:43:51.4      13   -374     71    375    382 178.0  10.8  34148  289.37 0855.18
2009/04/23 10:43:51.5     -53   -429    122    433    451 187.1  15.8  34150  289.39 0855.18
2009/04/23 10:43:51.6    -102   -423     45    436    439 193.6   6.0  34150  289.39 0855.13
2009/04/23 10:43:51.7     -39   -444     46    446    449 185.1   5.9  34146  289.34 0855.13
2009/04/23 10:43:51.8     -52   -411    171    415    448 187.2  23.7  34150  289.39 0855.13
2009/04/23 10:43:51.9      50   -404    239    408    472 172.9  33.0  34146  289.34 0855.13
2009/04/23 10:43:52.0       2   -388    193    389    434 179.7  28.2  34150  289.39 0855.13
2009/04/23 10:43:52.1     -63   -482     72    487    493 187.5   8.5  34146  289.34 0855.13
2009/04/23 10:43:52.2     -67   -509     85    514    522 187.6   9.4  34144  289.30 0855.13
2009/04/23 10:43:52.3    -166   -530     79    556    562 197.4   8.1  34146  289.33 0855.13
2009/04/23 10:43:52.4     -90   -376    128    387    408 193.5  18.4  34148  289.38 0855.13
2009/04/23 10:43:52.5     104   -383    -22    397    398 164.8  -3.2  34148  289.37 0855.13
2009/04/23 10:43:52.6     179   -520    -16    551    552 161.0  -1.7  34142  289.28 0855.13
2009/04/23 10:43:52.7     160   -419    -14    449    450 159.1  -1.8  34144  289.31 0855.13
2009/04/23 10:43:52.8      33   -495    -26    497    498 176.1  -3.0  34144  289.30 0855.13
2009/04/23 10:43:52.9      44   -520     14    523    524 175.1   1.6  34144  289.31 0855.13
2009/04/23 10:43:53.0     147   -293    124    329    351 153.3  21.6  34142  289.28 0855.13
2009/04/23 10:43:53.1     155   -378    170    409    442 157.7  23.9  34140  289.22 0855.13
2009/04/23 10:43:53.2       8   -461    162    462    490 179.0  19.4  34144  289.30 0855.13
2009/04/23 10:43:53.3      29   -385    136    387    411 175.6  19.4  34148  289.38 0855.13
2009/04/23 10:43:53.4    -126   -474    147    491    513 194.9  16.7  34152  289.42 0855.13
2009/04/23 10:43:53.5    -208   -466     24    511    512 204.1   2.8  34148  289.37 0855.13
2009/04/23 10:43:53.6    -189   -506      4    541    542 200.5   0.5  34146  289.35 0855.15
2009/04/23 10:43:53.7    -126   -509    -20    525    526 193.9  -2.2  34144  289.29 0855.15
2009/04/23 10:43:53.8     -61   -501     47    505    508 187.0   5.4  34152  289.42 0855.15
2009/04/23 10:43:53.9    -113   -410    -24    426    427 195.5  -3.3  34148  289.36 0855.15
2009/04/23 10:43:54.0    -320   -519   -207    610    645 211.6 -18.8  34136  289.15 0855.15
2009/04/23 10:43:54.1    -289   -612   -113    678    688 205.3  -9.5  34144  289.29 0855.15
2009/04/23 10:43:54.2    -313   -650   -157    722    739 205.8 -12.3  34126  289.00 0855.15
2009/04/23 10:43:54.3    -323   -627     -4    706    707 207.3  -0.4  34130  289.08 0855.15
2009/04/23 10:43:54.4    -379   -436    -17    579    580 221.0  -1.7  34138  289.19 0855.15
2009/04/23 10:43:54.5    -297   -434   -118    526    540 214.4 -12.7  34148  289.36 0855.15
2009/04/23 10:43:54.6    -260   -479    -43    546    548 208.5  -4.6  34146  289.35 0855.17
2009/04/23 10:43:54.7    -230   -448      7    504    505 207.2   0.8  34144  289.30 0855.17
2009/04/23 10:43:54.8    -320   -433    -38    539    541 216.5  -4.1  34136  289.18 0855.17
2009/04/23 10:43:54.9    -352   -517   -136    626    641 214.3 -12.3  34134  289.13 0855.17
2009/04/23 10:43:55.0    -341   -461     29    574    575 216.5   2.9  34136  289.15 0855.17
2009/04/23 10:43:55.1    -212   -508     31    551    552 202.7   3.3  34138  289.19 0855.17
2009/04/23 10:43:55.2    -157   -501      7    526    527 197.4   0.8  34144  289.29 0855.17
2009/04/23 10:43:55.3     -35   -432    -31    434    436 184.7  -4.1  34146  289.33 0855.17
2009/04/23 10:43:55.4     -12   -264     31    265    267 182.7   6.9  34150  289.41 0855.17
2009/04/23 10:43:55.5     -78   -194     -2    210    211 201.8  -0.7  34156  289.50 0855.17
2009/04/23 10:43:55.6    -171   -336    -82    377    386 207.0 -12.3  34146  289.32 0855.17
2009/04/23 10:43:55.7    -136   -647   -194    662    690 191.9 -16.4  34138  289.21 0855.17
2009/04/23 10:43:55.8     -35   -556    -79    558    564 183.6  -8.1  34130  289.06 0855.17
2009/04/23 10:43:55.9    -199   -314      5    372    373 212.4   0.8  34146  289.32 0855.17
2009/04/23 10:43:56.0     -13   -438     85    439    448 181.8  11.0  34136  289.16 0855.17
2009/04/23 10:43:56.1    -178   -466    -15    500    501 201.0  -1.8  34138  289.20 0855.17
2009/04/23 10:43:56.2    -226   -517   -156    565    587 203.6 -15.5  34134  289.14 0855.17
2009/04/23 10:43:56.3    -219   -538   -179    582    608 202.2 -21.9  34138  289.20 0855.17
2009/04/23 10:43:56.4    -300   -499   -197    583    615 211.0 -23.6  34130  289.08 0855.17
2009/04/23 10:43:56.5    -306   -533   -171    615    638 209.9 -20.3  34136  289.15 0855.17
2009/04/23 10:43:56.6    -256   -524   -183    584    612 206.1 -22.3  34142  289.27 0855.17
2009/04/23 10:43:56.7    -303   -503   -163    588    610 211.0 -20.1  34140  289.24 0855.17
2009/04/23 10:43:56.8    -281   -444    -87    526    534 212.3  -9.4  34142  289.26 0855.17
2009/04/23 10:43:56.9    -299   -520     72    600    605 209.9   6.9  34130  289.08 0855.17
2009/04/23 10:43:57.0    -169   -718    -24    738    739 193.3  -1.9  34130  289.07 0855.17
2009/04/23 10:43:57.1    -180   -758    -65    780    783 193.4  -4.8  34132  289.10 0855.17
2009/04/23 10:43:57.2    -216   -710    117    743    753 197.0   9.0  34142  289.28 0855.17
2009/04/23 10:43:57.3    -230   -653     53    693    695 199.4   4.4  34138  289.21 0855.17
2009/04/23 10:43:57.4    -291   -594    -63    662    666 206.1  -5.5  34128  289.02 0855.17
2009/04/23 10:43:57.5    -214   -692    129    725    737 197.2  10.1  34132  289.11 0855.17
2009/04/23 10:43:57.6       1   -707     22    708    709 179.9   1.8  34124  288.95 0855.17
2009/04/23 10:43:57.7     196   -734     64    760    763 165.0   4.9  34130  289.07 0855.17
2009/04/23 10:43:57.8     315   -695     33    764    765 155.6   2.5  34136  289.16 0855.17
2009/04/23 10:43:57.9     317   -722     60    789    792 156.3   4.4  34132  289.10 0855.17
2009/04/23 10:43:58.0     166   -700    154    720    737 166.6  12.1  34124  288.96 0855.17
2009/04/23 10:43:58.1     146   -723    159    738    756 168.5  12.2  34126  289.01 0855.17
2009/04/23 10:43:58.2     164   -773     81    791    796 168.0   5.9  34144  289.29 0855.17
2009/04/23 10:43:58.3      56   -709    111    712    721 175.4   8.9  34132  289.10 0855.17
2009/04/23 10:43:58.4      95   -677     48    684    686 172.0   4.0  34142  289.27 0855.17
2009/04/23 10:43:58.5       5   -682     50    683    685 179.5   4.2  34140  289.22 0855.17
2009/04/23 10:43:58.6     -12   -787     32    788    789 180.9   2.4  34132  289.10 0855.15
2009/04/23 10:43:58.7      38   -739     50    740    742 177.0   3.9  34132  289.09 0855.15
2009/04/23 10:43:58.8      55   -622     -6    625    626 174.9  -0.6  34136  289.15 0855.15
2009/04/23 10:43:58.9       0   -553    -59    554    558 180.0  -6.1  34138  289.19 0855.15
2009/04/23 10:43:59.0     -23   -507    -19    508    509 182.7  -2.2  34136  289.17 0855.15
2009/04/23 10:43:59.1     -12   -435    -39    436    438 181.7  -5.2  34138  289.21 0855.15
2009/04/23 10:43:59.2     -44   -575    -72    577    582 184.4  -7.2  34142  289.27 0855.15
2009/04/23 10:43:59.3    -112   -552    -87    564    571 191.5  -8.8  34140  289.24 0855.15
2009/04/23 10:43:59.4    -254   -525    -26    584    585 205.9  -2.6  34144  289.29 0855.15
2009/04/23 10:43:59.5    -343   -470   -106    582    592 216.1 -10.4  34140  289.22 0855.15
2009/04/23 10:43:59.6    -266   -392   -114    475    489 214.2 -13.6  34136  289.17 0855.15
2009/04/23 10:43:59.7    -147   -311   -128    345    367 205.4 -25.5  34132  289.11 0855.15
2009/04/23 10:43:59.8      -9   -336   -174    337    379 181.6 -33.7  34140  289.23 0855.15
2009/04/23 10:43:59.9     -40   -366    -38    369    371 186.3  -5.9  34136  289.15 0855.15
2009/04/23 10:44:00.0      58   -499     79    503    510 173.3   9.0  34134  289.13 0855.15
2009/04/23 10:44:00.1    -138   -554    -72    571    576 194.0  -7.2  34140  289.22 0855.15
2009/04/23 10:44:00.2    -128   -523     17    539    540 193.8   1.9  34136  289.16 0855.15
2009/04/23 10:44:00.3    -111   -489    -10    502    503 192.8  -1.2  34144  289.30 0855.15
2009/04/23 10:44:00.4    -250   -548     49    603    606 204.5   4.7  34144  289.30 0855.15
2009/04/23 10:44:00.5    -345   -529    -23    632    633 213.1  -2.1  34146  289.35 0855.15
2009/04/23 10:44:00.6    -285   -552    -24    622    623 207.3  -2.2  34144  289.31 0855.17
2009/04/23 10:44:00.7    -327   -480    -73    581    586 214.3  -7.2  34146  289.32 0855.17
2009/04/23 10:44:00.8    -327   -455   -103    561    571 215.7 -10.5  34146  289.35 0855.17
2009/04/23 10:44:00.9    -232   -409   -154    471    496 209.5 -18.2  34146  289.32 0855.17
2009/04/23 10:44:01.0    -280   -350   -117    449    465 218.7 -14.7  34142  289.26 0855.17
2009/04/23 10:44:01.1    -331   -275    -63    431    436 230.2  -8.4  34146  289.33 0855.17
2009/04/23 10:44:01.2    -171   -289     85    336    347 210.7  14.3  34144  289.30 0855.17
2009/04/23 10:44:01.3    -214   -300    130    369    392 215.5  19.4  34142  289.28 0855.17
2009/04/23 10:44:01.4    -169   -370    179    408    445 204.6  25.2  34138  289.21 0855.17
2009/04/23 10:44:01.5     -45   -571    159    573    595 184.6  15.6  34136  289.17 0855.17
2009/04/23 10:44:01.6     -25   -356    135    357    381 184.1  21.8  34140  289.23 0855.17
2009/04/23 10:44:01.7    -111   -332     64    351    357 198.5  10.3  34142  289.28 0855.17
2009/04/23 10:44:01.8     -79   -313     21    324    325 194.3   3.8  34142  289.27 0855.17
2009/04/23 10:44:01.9     -63   -221     58    230    238 196.0  14.2  34148  289.36 0855.17
2009/04/23 10:44:02.0      70   -244     93    254    270 164.0  20.9  34144  289.31 0855.17
2009/04/23 10:44:02.1      77   -284     84    295    307 164.9  16.0  34140  289.22 0855.17
2009/04/23 10:44:02.2      38   -300    132    303    330 172.7  25.0  34134  289.12 0855.17
2009/04/23 10:44:02.3      21   -281    123    282    307 175.5  25.1  34138  289.20 0855.17
2009/04/23 10:44:02.4      61   -295     43    302    306 168.2   8.2  34142  289.27 0855.17
2009/04/23 10:44:02.5      40   -321     23    324    325 172.9   4.2  34140  289.22 0855.17
2009/04/23 10:44:02.6      82   -339    -36    349    351 166.3  -6.0  34142  289.28 0855.20
2009/04/23 10:44:02.7     114   -379    -50    396    400 163.2  -7.3  34142  289.28 0855.20
2009/04/23 10:44:02.8     152   -384     -1    414    415 158.3  -0.3  34138  289.19 0855.20
2009/04/23 10:44:02.9      67   -287    125    295    320 166.7  24.3  34140  289.24 0855.20
2009/04/23 10:44:03.0     -11   -319     98    320    335 182.1  17.1  34144  289.30 0855.20
2009/04/23 10:44:03.1     101   -323    108    339    356 162.6  17.7  34144  289.30 0855.20
2009/04/23 10:44:03.2     112   -383     90    400    411 163.7  12.8  34144  289.31 0855.20
2009/04/23 10:44:03.3     114   -375     99    393    406 163.1  14.2  34142  289.28 0855.20
2009/04/23 10:44:03.4     128   -395     80    416    424 162.0  11.0  34146  289.34 0855.20
2009/04/23 10:44:03.5      85   -420      5    429    430 168.5   0.7  34146  289.34 0855.20
2009/04/23 10:44:03.6      84   -403     12    412    413 168.1   1.8  34146  289.34 0855.20
2009/04/23 10:44:03.7      34   -363      2    365    366 174.6   0.4  34146  289.33 0855.20
2009/04/23 10:44:03.8      64   -377     28    383    385 170.3   4.2  34148  289.37 0855.20
2009/04/23 10:44:03.9      52   -385     69    389    396 172.2  10.1  34146  289.35 0855.20
2009/04/23 10:44:04.0      47   -325    105    329    346 171.7  17.8  34148  289.38 0855.20
2009/04/23 10:44:04.1     -16   -264     81    265    278 183.5  17.1  34144  289.31 0855.20
2009/04/23 10:44:04.2     175   -318     87    363    374 151.2  13.5  34146  289.33 0855.20
2009/04/23 10:44:04.3     225   -326     70    397    404 145.4  10.1  34142  289.26 0855.20
2009/04/23 10:44:04.4     201   -297     74    359    367 145.8  11.8  34144  289.30 0855.20
2009/04/23 10:44:04.5     167   -315    110    357    374 152.0  17.2  34142  289.26 0855.20
2009/04/23 10:44:04.6     149   -207     47    256    261 144.2  10.6  34146  289.34 0855.20
2009/04/23 10:44:04.7     101   -211     46    235    240 154.4  11.1  34144  289.31 0855.20
2009/04/23 10:44:04.8       7   -182     34    183    187 177.5  10.6  34148  289.36 0855.20
2009/04/23 10:44:04.9     -13   -178     10    179    180 184.4   3.3  34150  289.41 0855.20
2009/04/23 10:44:05.0       3   -252     89    253    268 179.1  20.0  34158  289.53 0855.20
2009/04/23 10:44:05.1     -76   -226     -2    239    240 198.7  -0.7  34160  289.56 0855.20
2009/04/23 10:44:05.2     -33   -234     12    237    238 188.1   2.9  34162  289.59 0855.20
2009/04/23 10:44:05.3     -99   -228    132    249    281 203.6  30.3  34168  289.70 0855.20
2009/04/23 10:44:05.4    -112   -178     17    211    212 212.3   4.9  34176  289.85 0855.20
2009/04/23 10:44:05.5      -6   -196     24    197    199 182.0   7.2  34170  289.75 0855.20
2009/04/23 10:44:05.6     121   -154     75    197    210 141.9  21.7  34152  289.45 0855.20
2009/04/23 10:44:05.7      69    -74     81    102    130 137.2  42.7  34158  289.55 0855.20
2009/04/23 10:44:05.8     122    -17     -8    124    125  97.9  -3.7  34162  289.62 0855.20
2009/04/23 10:44:05.9     126      3     -2    127    128  88.3  -1.2  34154  289.48 0855.20
2009/04/23 10:44:06.0      74    -16    -15     76     78 102.4 -11.3  34166  289.67 0855.20
2009/04/23 10:44:06.1      44    -69    -45     82     93 147.4 -35.2  34176  289.84 0855.20
2009/04/23 10:44:06.2      67    -80    -38    105    111 140.3 -24.4  34168  289.70 0855.20
2009/04/23 10:44:06.3      22    -62    -40     67     78 160.0 -38.8  34162  289.60 0855.20
2009/04/23 10:44:06.4      10    -85    -70     86    110 172.9 -48.1  34160  289.58 0855.20
2009/04/23 10:44:06.5     -97    -97    -49    138    147 225.1 -19.7  34158  289.55 0855.20
2009/04/23 10:44:06.6    -133   -122    -23    181    183 227.6  -7.5  34160  289.57 0855.20
2009/04/23 10:44:06.7    -131   -169     38    214    218 217.8  10.1  34154  289.46 0855.20
2009/04/23 10:44:06.8    -126   -220    -30    254    256 209.9  -6.9  34158  289.53 0855.20
2009/04/23 10:44:06.9    -104   -230     -9    253    254 204.3  -2.2  34154  289.47 0855.20
2009/04/23 10:44:07.0    -134   -209    -29    249    251 212.6  -6.7  34170  289.73 0855.20
2009/04/23 10:44:07.1    -117   -228     -1    257    258 207.2  -0.3  34166  289.68 0855.20
2009/04/23 10:44:07.2     -41   -293     52    296    301 188.0  10.1  34154  289.47 0855.20
2009/04/23 10:44:07.3     -85   -279     45    292    296 196.9   8.9  34158  289.53 0855.20
2009/04/23 10:44:07.4    -127   -310     34    336    338 202.3   5.9  34152  289.43 0855.20
2009/04/23 10:44:07.5     -63   -287    190    294    350 192.4  35.6  34154  289.48 0855.20
2009/04/23 10:44:07.6     -70   -470     14    476    477 188.5   1.7  34152  289.45 0855.20
2009/04/23 10:44:07.7     -34   -397     52    399    403 185.0   7.4  34150  289.40 0855.20
2009/04/23 10:44:07.8     -36   -370     80    372    381 185.7  12.2  34152  289.42 0855.20
2009/04/23 10:44:07.9    -134   -327     -3    354    355 202.3  -0.5  34146  289.35 0855.20
2009/04/23 10:44:08.0    -123   -363     16    384    385 198.8   2.4  34152  289.43 0855.20
2009/04/23 10:44:08.1    -122   -367     -4    388    389 198.5  -0.7  34154  289.47 0855.20
2009/04/23 10:44:08.2    -140   -413     85    437    446 198.8  11.0  34158  289.53 0855.20
2009/04/23 10:44:08.3    -147   -399     12    426    427 200.3   1.7  34156  289.49 0855.20
2009/04/23 10:44:08.4    -115   -358     44    377    380 197.8   6.8  34154  289.48 0855.20
2009/04/23 10:44:08.5     -74   -382     61    390    395 191.0   8.9  34152  289.45 0855.20
2009/04/23 10:44:08.6    -111   -350    107    368    384 197.7  16.3  34152  289.42 0855.21
2009/04/23 10:44:08.7     -13   -340    165    341    378 182.2  27.7  34152  289.42 0855.21
2009/04/23 10:44:08.8     -74   -457     39    464    466 189.2   4.9  34152  289.45 0855.21
2009/04/23 10:44:08.9     -26   -484    -50    485    488 183.2  -5.9  34152  289.45 0855.21
2009/04/23 10:44:09.0    -108   -488    -30    500    501 192.5  -3.5  34152  289.42 0855.21
2009/04/23 10:44:09.1      15   -473    -81    474    481 178.1  -9.7  34152  289.42 0855.21
2009/04/23 10:44:09.2     -26   -450    -37    451    453 183.4  -4.8  34154  289.46 0855.21
2009/04/23 10:44:09.3     -39   -373    -47    376    380 186.0  -7.2  34156  289.50 0855.21
2009/04/23 10:44:09.4      -8   -417     52    418    422 181.2   7.1  34146  289.33 0855.21
2009/04/23 10:44:09.5     -84   -367     61    377    382 193.0   9.2  34154  289.48 0855.21
2009/04/23 10:44:09.7    -105   -334     21    351    352 197.5   3.5  34154  289.48 0855.21
2009/04/23 10:44:09.8     -95   -349     42    362    365 195.3   6.7  34154  289.48 0855.21
2009/04/23 10:44:09.9     -54   -316     88    321    333 189.7  15.4  34156  289.50 0855.21
2009/04/23 10:44:10.0     -82   -324     50    335    339 194.3   8.5  34158  289.54 0855.21
2009/04/23 10:44:10.1     -63   -368    122    374    394 189.8  18.2  34182  289.93 0855.21
2009/04/23 10:44:10.2     -98   -349     10    363    364 195.7   1.6  34160  289.57 0855.21
2009/04/23 10:44:10.3    -103   -361    -34    376    378 196.0  -5.2  34160  289.57 0855.21
2009/04/23 10:44:10.4     -53   -290    -38    295    298 190.5  -7.5  34160  289.56 0855.21
2009/04/23 10:44:10.5     -47   -323    -73    327    336 188.3 -12.7  34158  289.54 0855.21
2009/04/23 10:44:10.6     -74   -329    -96    338    352 192.7 -15.9  34152  289.43 0855.21
2009/04/23 10:44:10.7     -90   -328    -91    341    353 195.4 -15.0  34148  289.37 0855.21
2009/04/23 10:44:10.8     -32   -289    -80    291    302 186.5 -15.5  34148  289.37 0855.21
2009/04/23 10:44:10.9     -39   -308    -68    311    319 187.3 -12.4  34148  289.37 0855.21
2009/04/23 10:44:11.0       0   -416    -45    417    420 180.0  -6.3  34148  289.36 0855.21
2009/04/23 10:44:11.1     133   -427    -24    448    449 162.7  -3.2  34150  289.39 0855.21
2009/04/23 10:44:11.2     120   -352      5    373    374 161.1   0.8  34150  289.40 0855.21
2009/04/23 10:44:11.3      51   -303     71    308    317 170.4  13.1  34150  289.41 0855.21
2009/04/23 10:44:11.4       0   -229     36    230    233 179.8   9.0  34150  289.41 0855.21
2009/04/23 10:44:11.5     -41   -155     31    161    165 194.9  11.1  34150  289.41 0855.21
2009/04/23 10:44:11.6     -79   -111      6    137    138 215.2   2.9  34154  289.46 0855.21
2009/04/23 10:44:11.7    -154   -140    -69    209    220 227.6 -23.8  34150  289.41 0855.21
2009/04/23 10:44:11.8    -265   -161   -106    311    328 238.7 -23.7  34154  289.46 0855.21
2009/04/23 10:44:11.9    -193   -181    -79    265    277 226.9 -16.6  34154  289.46 0855.21
2009/04/23 10:44:12.0     -66   -149   -131    164    209 204.1 -47.4  34150  289.41 0855.21
2009/04/23 10:44:12.1     -43    -92   -145    102    177 205.5 -65.9  34152  289.45 0855.21
2009/04/23 10:44:12.2      -7    -80   -164     81    182 185.3 -76.5  34162  289.62 0855.21
2009/04/23 10:44:12.3      13   -146   -166    147    221 174.7 -58.4  34156  289.50 0855.21
2009/04/23 10:44:12.4      23   -191   -107    193    220 173.1 -35.8  34152  289.43 0855.21
2009/04/23 10:44:12.5      42   -268   -184    272    328 171.1 -41.7  34156  289.51 0855.21
2009/04/23 10:44:12.6     -79   -211   -137    226    264 200.5 -38.8  34158  289.53 0855.21
2009/04/23 10:44:12.7      57   -277   -133    284    313 168.2 -31.3  34158  289.53 0855.18
2009/04/23 10:44:12.8       4   -275   -152    276    315 179.1 -35.8  34152  289.44 0855.18
2009/04/23 10:44:12.9     105   -311    -96    329    342 161.3 -21.0  34152  289.45 0855.18
2009/04/23 10:44:13.0     148   -342    -48    373    377 156.5  -7.3  34156  289.50 0855.18
2009/04/23 10:44:13.1     -88   -405   -148    415    441 192.4 -19.7  34150  289.41 0855.18
2009/04/23 10:44:13.2    -103   -352    -22    367    368 196.4  -3.5  34148  289.37 0855.18
2009/04/23 10:44:13.3    -119   -396      0    414    415 196.8   0.0  34156  289.49 0855.18
2009/04/23 10:44:13.4     -99   -436     35    448    450 192.9   4.5  34158  289.53 0855.18
2009/04/23 10:44:13.5    -175   -418    -57    454    458 202.7  -7.2  34152  289.43 0855.18
2009/04/23 10:44:13.6     -67   -481    -27    486    487 188.0  -3.2  34156  289.50 0855.18
2009/04/23 10:44:13.7    -300   -203   -118    363    382 235.9 -18.0  34172  289.76 0855.18
2009/04/23 10:44:13.8    -169   -139    -77    219    233 230.5 -19.4  34172  289.77 0855.18
2009/04/23 10:44:13.9    -126   -219    -94    253    269 209.9 -25.4  34168  289.71 0855.18
2009/04/23 10:44:14.0     -85   -189   -128    208    244 204.3 -38.9  34172  289.76 0855.18
2009/04/23 10:44:14.1    -141   -138   -113    198    227 225.8 -36.5  34174  289.82 0855.18
2009/04/23 10:44:14.2    -154   -144    -67    212    222 226.9 -22.5  34174  289.80 0855.18
2009/04/23 10:44:14.3    -116   -224    -85    253    267 207.4 -18.6  34172  289.76 0855.18
2009/04/23 10:44:14.4    -128   -232     -1    266    267 208.9  -0.3  34166  289.68 0855.18
2009/04/23 10:44:14.5     -21   -149      7    151    152 188.1   2.8  34174  289.80 0855.18
2009/04/23 10:44:14.6       8   -122      6    123    124 176.0   2.9  34180  289.91 0855.18
2009/04/23 10:44:14.7     -11    -89     31     90     96 187.1  18.9  34172  289.79 0855.14
2009/04/23 10:44:14.8      10    -72     28     73     78 171.9  21.0  34178  289.89 0855.14
2009/04/23 10:44:14.9      49   -104     95    116    149 154.7  43.7  34178  289.89 0855.14
2009/04/23 10:44:15.0     120     -1    136    121    182  90.9  53.7  34176  289.84 0855.14
2009/04/23 10:44:15.1     202    -66    -42    213    218 108.2 -11.1  34182  289.94 0855.14
2009/04/23 10:44:15.2     256   -109    -25    279    281 113.1  -5.2  34170  289.73 0855.14
2009/04/23 10:44:15.3     270   -177    101    324    340 123.3  17.3  34154  289.47 0855.14
2009/04/23 10:44:15.4     278   -231    162    362    396 129.8  25.7  34156  289.52 0855.14
2009/04/23 10:44:15.5     224   -301    160    376    408 143.3  24.5  34152  289.45 0855.14
2009/04/23 10:44:15.6     188   -290    200    346    399 147.0  32.8  34152  289.43 0855.14
2009/04/23 10:44:15.7     102   -287    207    305    368 160.4  37.4  34150  289.40 0855.12
2009/04/23 10:44:15.8       2   -202    258    203    328 179.3  57.9  34156  289.49 0855.12
2009/04/23 10:44:15.9      16   -239    206    240    316 176.0  45.2  34154  289.47 0855.12
2009/04/23 10:44:16.0     -15   -207    158    208    261 184.2  40.9  34152  289.44 0855.12
2009/04/23 10:44:16.1      20   -258     80    259    272 175.5  17.3  34152  289.44 0855.12
2009/04/23 10:44:16.2     -17   -231    134    232    267 184.2  32.7  34154  289.46 0855.12
2009/04/23 10:44:16.3     -16   -212    115    213    242 184.5  30.8  34154  289.46 0855.12
2009/04/23 10:44:16.4     -25   -272     59    274    281 185.3  12.2  34154  289.47 0855.12
2009/04/23 10:44:16.5       0   -290    103    291    308 179.9  20.0  34152  289.44 0855.12
2009/04/23 10:44:16.6      19   -272     66    273    281 176.0  13.7  34166  289.66 0855.12
2009/04/23 10:44:16.7       1   -267     33    268    271 179.8   7.1  34156  289.51 0855.12
2009/04/23 10:44:16.8      79   -281     68    293    301 164.2  13.2  34172  289.76 0855.12
2009/04/23 10:44:16.9      95   -268     51    285    290 160.4  10.3  34166  289.66 0855.12
2009/04/23 10:44:17.0      52   -275     55    280    286 169.3  11.1  34162  289.61 0855.12
2009/04/23 10:44:17.1      36   -258    -73    261    271 172.0 -20.4  34156  289.49 0855.12
2009/04/23 10:44:17.2      72   -250    -74    261    271 164.0 -20.7  34154  289.47 0855.12
2009/04/23 10:44:17.3      54   -229    -65    236    244 166.6 -20.0  34156  289.51 0855.12
2009/04/23 10:44:17.4     147   -261    -97    300    315 150.6 -22.9  34156  289.51 0855.12
2009/04/23 10:44:17.5     226   -231   -103    324    341 135.6 -17.7  34152  289.45 0855.12
2009/04/23 10:44:17.6     253   -139    -92    289    303 118.9 -22.8  34156  289.49 0855.12
2009/04/23 10:44:17.7     192   -247     36    313    316 142.1   6.7  34152  289.42 0855.12
2009/04/23 10:44:17.8     118   -209     16    241    242 150.6   3.9  34154  289.47 0855.12
2009/04/23 10:44:17.9      -6   -146    113    147    185 182.6  41.7  34148  289.36 0855.12
2009/04/23 10:44:18.0     -52   -109    115    121    166 205.5  48.7  34154  289.48 0855.12
2009/04/23 10:44:18.1    -109   -116     85    160    181 223.3  30.3  34156  289.52 0855.12
2009/04/23 10:44:18.2     -83   -146     47    168    175 209.6  15.8  34156  289.50 0855.12
2009/04/23 10:44:18.3    -111   -118     37    163    168 223.2  12.9  34158  289.53 0855.12
2009/04/23 10:44:18.4     -74   -157     55    174    183 205.3  17.7  34156  289.50 0855.12
2009/04/23 10:44:18.5     -44   -174     90    180    201 194.3  28.7  34152  289.43 0855.12
2009/04/23 10:44:18.6     -47   -184     70    191    203 194.5  20.9  34156  289.50 0855.12
2009/04/23 10:44:18.7     -62   -168     75    180    195 200.5  23.8  34152  289.45 0855.12
2009/04/23 10:44:18.8     -98   -153     74    182    196 212.7  23.4  34152  289.43 0855.12
2009/04/23 10:44:18.9    -104   -158     82    190    206 213.4  25.1  34152  289.43 0855.12
2009/04/23 10:44:19.0     -75   -131     60    152    163 209.9  22.5  34156  289.50 0855.12
2009/04/23 10:44:19.1     -87    -53     69    103    123 238.5  37.0  34166  289.69 0855.12
2009/04/23 10:44:19.2     -87    -55     83    104    133 237.6  43.3  34168  289.72 0855.12
2009/04/23 10:44:19.3     -91    -50     72    105    127 241.1  37.6  34164  289.65 0855.12
2009/04/23 10:44:19.4      84    -28     98     89    132 108.4  52.7  34178  289.89 0855.12
2009/04/23 10:44:19.5      52    -94     78    108    133 151.1  39.5  34160  289.58 0855.12
2009/04/23 10:44:19.6      23   -112     82    115    141 168.4  39.5  34164  289.65 0855.12
2009/04/23 10:44:19.7      50    -60     67     79    103 140.3  44.8  34168  289.70 0855.13
2009/04/23 10:44:19.8       1    -31     98     32    103 177.3  80.7  34174  289.82 0855.13
2009/04/23 10:44:19.9       8   -110    106    111    153 175.5  49.0  34168  289.70 0855.13
2009/04/23 10:44:20.0      -7    -94    138     95    167 184.4  62.4  34174  289.80 0855.13
2009/04/23 10:44:20.1      31    -94     82    100    129 161.7  43.7  34170  289.74 0855.13
2009/04/23 10:44:20.2      73    -76     49    106    116 136.3  27.1  34166  289.67 0855.13
2009/04/23 10:44:20.3      18   -123     -4    125    126 171.5  -2.2  34166  289.67 0855.13
2009/04/23 10:44:20.4      94    -97    -17    136    138 135.9  -7.2  34166  289.67 0855.13
2009/04/23 10:44:20.5     113    -56      5    127    128 116.6   2.3  34178  289.89 0855.13
2009/04/23 10:44:20.6      82    -82     14    117    118 135.0   6.9  34184  289.99 0855.13
2009/04/23 10:44:20.7      15   -133      6    134    135 173.3   2.8  34176  289.84 0855.13
2009/04/23 10:44:20.8       5   -110     -8    111    112 177.3  -4.6  34178  289.89 0855.13
2009/04/23 10:44:20.9       0    -50     19     51     54 180.0  20.0  34176  289.84 0855.13
2009/04/23 10:44:21.0     -20     -9     21     23     31 244.7  47.9  34180  289.91 0855.13
2009/04/23 10:44:21.1     -94    -72     11    119    120 232.7   5.4  34174  289.80 0855.13
2009/04/23 10:44:21.2     -37    -94     37    102    108 201.9  20.4  34180  289.91 0855.13
2009/04/23 10:44:21.3     -45    -63     97     78    124 216.1  57.5  34176  289.85 0855.13
2009/04/23 10:44:21.4     -64    -52     67     83    106 230.5  43.7  34174  289.80 0855.13
2009/04/23 10:44:21.5     -74    -15    -21     76     79 258.6 -15.5  34174  289.80 0855.13
2009/04/23 10:44:21.6     -55     -4    -23     56     60 265.7 -27.5  34170  289.74 0855.13
2009/04/23 10:44:21.7     -67    -10    -37     68     77 261.2 -35.7  34168  289.70 0855.15
2009/04/23 10:44:21.8     -72    -27    -35     78     85 249.2 -30.1  34172  289.79 0855.15
2009/04/23 10:44:21.9     -23    -45    -37     51     63 207.2 -44.1  34168  289.72 0855.15
2009/04/23 10:44:22.0      -4    -53     -6     54     55 184.4  -7.2  34168  289.72 0855.15
2009/04/23 10:44:22.1       7    -46      7     47     48 170.2   9.0  34170  289.74 0855.15
2009/04/23 10:44:22.2      16    -78     15     80     82 168.4  11.1  34168  289.72 0855.15
2009/04/23 10:44:22.3      11   -112      7    113    114 174.2   3.8  34168  289.72 0855.15
2009/04/23 10:44:22.4      46   -163      6    170    171 164.2   2.3  34162  289.62 0855.15
2009/04/23 10:44:22.5      63    -99      2    118    119 147.5   1.2  34158  289.53 0855.15
2009/04/23 10:44:22.6     121     -6     56    122    134  93.0  27.1  34164  289.65 0855.15
2009/04/23 10:44:22.7     138    -10     98    139    170  94.4  38.6  34164  289.65 0855.15
2009/04/23 10:44:22.8     134    -36    104    139    173 105.1  40.4  34162  289.62 0855.15
2009/04/23 10:44:22.9     144     12    194    145    242  85.2  59.6  34174  289.80 0855.15
2009/04/23 10:44:23.0      15    -58    105     61    121 164.8  67.2  34182  289.94 0855.15
2009/04/23 10:44:23.1      40    -82     85     92    125 153.7  47.9  34172  289.77 0855.15
2009/04/23 10:44:23.2      11   -149     90    150    174 175.5  34.2  34164  289.65 0855.15
2009/04/23 10:44:23.3      12   -155    138    156    208 175.5  46.2  34170  289.74 0855.15
2009/04/23 10:44:23.4      -6   -140    164    141    216 182.7  55.0  34172  289.79 0855.15
2009/04/23 10:44:23.5     -37    -94    105    102    146 201.9  50.7  34176  289.85 0855.15
2009/04/23 10:44:23.6      30   -147    105    151    183 168.4  38.4  34166  289.67 0855.15
2009/04/23 10:44:23.7       9   -155    125    156    199 176.4  42.7  34166  289.67 0855.16
2009/04/23 10:44:23.8       0   -161    152    162    222 180.2  48.0  34168  289.70 0855.16
2009/04/23 10:44:23.9     -26   -173    157    176    235 188.7  46.4  34168  289.72 0855.16
2009/04/23 10:44:24.0     -34   -169    156    173    232 191.6  46.9  34164  289.63 0855.16
2009/04/23 10:44:24.1     -51   -173    169    181    247 196.7  47.9  34162  289.60 0855.16
2009/04/23 10:44:24.2     -65   -185    177    197    264 199.6  46.6  34188  290.03 0855.16
2009/04/23 10:44:24.3     -91    -91     94    130    160 225.0  39.7  34186  290.02 0855.16
2009/04/23 10:44:24.4    -105    -71     39    127    134 235.9  17.3  34186  290.02 0855.16
2009/04/23 10:44:24.5    -159    -65      0    173    174 247.6   0.2  34192  290.13 0855.16
2009/04/23 10:44:24.6    -135    -52     28    145    148 248.7  11.1  34182  289.94 0855.16
2009/04/23 10:44:24.7    -134    -12     38    135    141 264.8  15.8  34192  290.13 0855.16
2009/04/23 10:44:24.8    -115   -110     64    160    172 226.4  22.8  34198  290.23 0855.16
2009/04/23 10:44:24.9    -166   -153    153    226    272 227.3  37.3  34182  289.95 0855.16
2009/04/23 10:44:25.0     -74   -100    152    125    196 216.5  56.4  34168  289.72 0855.16
2009/04/23 10:44:25.1     -71   -115    170    136    217 211.6  57.1  34166  289.69 0855.16
2009/04/23 10:44:25.2     -64   -117    162    134    210 208.9  56.3  34168  289.72 0855.16
2009/04/23 10:44:25.3     -74   -129    136    149    201 209.9  47.5  34168  289.72 0855.16
2009/04/23 10:44:25.4    -107   -147    100    183    208 216.1  31.0  34170  289.74 0855.16
2009/04/23 10:44:25.5      -6   -153    109    154    188 182.6  38.8  34168  289.72 0855.16
2009/04/23 10:44:25.6     -21   -147     94    149    176 188.1  35.5  34166  289.69 0855.16
2009/04/23 10:44:25.7     -24   -101    104    104    147 193.8  50.1  34164  289.65 0855.16
2009/04/23 10:44:25.8      -5    -85     83     86    119 183.6  49.4  34166  289.67 0855.16
2009/04/23 10:44:25.9      16     -1     89     17     90  94.4  89.6  34184  289.99 0855.16
2009/04/23 10:44:26.0      19    -93    100     95    137 168.4  52.1  34174  289.80 0855.16
2009/04/23 10:44:26.1      -1   -135     96    136    166 180.8  38.8  34160  289.58 0855.16
2009/04/23 10:44:26.2      22   -209     63    211    221 173.8  16.6  34160  289.58 0855.16
2009/04/23 10:44:26.3      37   -210     33    214    217 169.8   9.0  34162  289.60 0855.16
2009/04/23 10:44:26.4      35   -172     49    176    183 168.5  15.6  34164  289.63 0855.16
2009/04/23 10:44:26.5      52   -174     28    182    185 163.3   9.0  34160  289.58 0855.16
2009/04/23 10:44:26.6      51   -173     49    181    188 163.5  15.3  34160  289.58 0855.16
2009/04/23 10:44:26.7      35   -150     49    155    163 166.7  17.7  34162  289.60 0855.16
2009/04/23 10:44:26.8      27   -156     53    159    168 170.2  18.6  34164  289.63 0855.16
2009/04/23 10:44:26.9      37   -158     55    163    173 166.7  18.6  34160  289.58 0855.16
2009/04/23 10:44:27.0      25   -161     57    164    174 171.1  19.4  34162  289.62 0855.16
2009/04/23 10:44:27.1      47   -150     45    158    165 162.6  16.0  34160  289.57 0855.16
2009/04/23 10:44:27.2     114   -176     41    211    215 147.0  11.0  34160  289.57 0855.16
2009/04/23 10:44:27.3     123   -193      7    230    231 147.4   1.8  34156  289.50 0855.16
2009/04/23 10:44:27.4     115   -187     28    220    222 148.4   7.5  34158  289.53 0855.16
2009/04/23 10:44:27.5     133   -204     50    244    250 146.8  11.6  34158  289.54 0855.16
2009/04/23 10:44:27.6      78   -178     68    195    207 156.2  19.4  34158  289.55 0855.16
2009/04/23 10:44:27.7      14   -199    135    200    241 176.0  37.3  34162  289.60 0855.16
2009/04/23 10:44:27.8      52   -260    151    266    305 168.5  32.1  34166  289.68 0855.16
2009/04/23 10:44:27.9      62   -281    169    288    333 167.5  32.9  34164  289.64 0855.16
2009/04/23 10:44:28.0     225   -290    128    368    390 142.2  19.2  34158  289.55 0855.16
2009/04/23 10:44:28.1     197   -238    136    310    338 140.3  25.2  34160  289.57 0855.16
2009/04/23 10:44:28.2     208   -278    197    348    399 143.2  32.1  34158  289.55 0855.16
2009/04/23 10:44:28.3      77   -378    154    386    415 168.4  23.0  34158  289.55 0855.16
2009/04/23 10:44:28.4     125   -339     32    362    364 159.7   5.1  34158  289.55 0855.16
2009/04/23 10:44:28.5     134   -305     87    334    346 156.2  14.7  34156  289.52 0855.16
2009/04/23 10:44:28.6     152   -346     73    378    386 156.3  11.0  34162  289.59 0855.16
2009/04/23 10:44:28.7      95   -349     85    362    372 164.7  13.3  34160  289.57 0855.16
2009/04/23 10:44:28.8      91   -331     68    344    351 164.6  11.3  34162  289.59 0855.16
2009/04/23 10:44:28.9      66   -328     -7    335    336 168.6  -1.3  34164  289.64 0855.16
2009/04/23 10:44:29.0      85   -285     25    298    300 163.3   5.0  34168  289.70 0855.16
2009/04/23 10:44:29.1     -37   -352      0    355    356 186.1   0.1  34162  289.60 0855.16
2009/04/23 10:44:29.2       7   -447     74    448    455 179.0   9.5  34162  289.61 0855.16
2009/04/23 10:44:29.3      46   -461     69    464    470 174.2   8.5  34160  289.56 0855.16
2009/04/23 10:44:29.4      57   -480     -2    484    485 173.1  -0.3  34162  289.62 0855.16
2009/04/23 10:44:29.5     -86   -463    -18    471    472 190.6  -2.2  34162  289.59 0855.16
2009/04/23 10:44:29.6     -44   -454     17    457    458 185.6   2.2  34156  289.49 0855.16
2009/04/23 10:44:29.7      22   -461     13    462    463 177.2   1.7  34152  289.43 0855.17
2009/04/23 10:44:29.8       0   -492     20    493    494 179.9   2.4  34160  289.56 0855.17
2009/04/23 10:44:29.9      23   -491     31    492    493 177.2   3.6  34156  289.50 0855.17
2009/04/23 10:44:30.0       4   -477      8    478    479 179.5   1.0  34158  289.54 0855.17
2009/04/23 10:44:30.1       8   -451     64    452    457 178.9   8.1  34152  289.43 0855.17
2009/04/23 10:44:30.2     -47   -416     52    419    423 186.5   7.1  34152  289.44 0855.17
2009/04/23 10:44:30.3     -79   -418     35    426    428 190.8   4.7  34160  289.58 0855.17
2009/04/23 10:44:30.4     -63   -454    -12    459    460 187.9  -1.6  34160  289.56 0855.17
2009/04/23 10:44:30.5      20   -394     13    395    396 177.1   1.9  34156  289.52 0855.17
2009/04/23 10:44:30.6     -42   -394     24    397    398 186.1   3.5  34154  289.47 0855.17
2009/04/23 10:44:30.7      -6   -385    -26    386    387 181.0  -3.9  34154  289.47 0855.17
2009/04/23 10:44:30.8      25   -384    -22    385    386 176.3  -3.3  34156  289.50 0855.17
2009/04/23 10:44:30.9     -40   -367    -38    370    373 186.2  -6.0  34154  289.47 0855.17
2009/04/23 10:44:31.0     -86   -377    -52    387    391 192.9  -7.7  34158  289.54 0855.17
2009/04/23 10:44:31.1     -39   -366    -60    369    375 186.2  -9.3  34158  289.54 0855.17
2009/04/23 10:44:31.2     -52   -348    -33    352    354 188.6  -5.5  34158  289.54 0855.17
2009/04/23 10:44:31.3      26   -353    -33    354    356 175.8  -5.4  34160  289.57 0855.17
2009/04/23 10:44:31.4      36   -356    -21    358    359 174.1  -3.5  34156  289.50 0855.17
2009/04/23 10:44:31.5      57   -318    -35    324    326 169.8  -6.3  34156  289.49 0855.17
2009/04/23 10:44:31.6      14   -315      4    316    317 177.3   0.8  34158  289.53 0855.17
2009/04/23 10:44:31.7      26   -288     14    290    291 174.7   2.9  34156  289.51 0855.17
2009/04/23 10:44:31.8      36   -261     27    264    266 172.0   5.9  34162  289.59 0855.17
2009/04/23 10:44:31.9     -12   -354      4    355    356 182.0   0.7  34162  289.62 0855.17
2009/04/23 10:44:32.0     -34   -315      5    317    318 186.3   1.0  34164  289.63 0855.17
2009/04/23 10:44:32.1     -50   -320    -14    325    326 189.0  -2.5  34166  289.66 0855.17
2009/04/23 10:44:32.2     -71   -282    -11    291    292 194.2  -2.2  34166  289.66 0855.17
2009/04/23 10:44:32.3     -38   -244     23    248    250 188.9   5.4  34162  289.61 0855.17
2009/04/23 10:44:32.4      47   -252     70    257    267 169.4  15.3  34164  289.63 0855.17
2009/04/23 10:44:32.5     111   -255     99    279    296 156.4  20.2  34158  289.54 0855.17
2009/04/23 10:44:32.6      69   -257    149    267    305 164.8  31.4  34160  289.58 0855.17
2009/04/23 10:44:32.7      67   -283     99    291    308 166.6  18.9  34158  289.54 0855.17
2009/04/23 10:44:32.8      67   -378    120    385    404 169.9  17.3  34154  289.48 0855.17
2009/04/23 10:44:32.9      42   -357    140    360    386 173.2  22.5  34156  289.52 0855.17
2009/04/23 10:44:33.0     115   -372    186    390    432 162.7  27.3  34158  289.53 0855.17
2009/04/23 10:44:33.1      55   -368    102    373    387 171.4  15.4  34160  289.57 0855.17
2009/04/23 10:44:33.2      68   -335     14    342    343 168.5   2.5  34162  289.60 0855.17
2009/04/23 10:44:33.3       6   -384     24    385    386 179.1   3.6  34162  289.62 0855.17
2009/04/23 10:44:33.4       0   -382     14    383    384 180.0   2.1  34162  289.60 0855.17
2009/04/23 10:44:33.5     -24   -419     -8    420    421 183.4  -1.1  34164  289.65 0855.17
2009/04/23 10:44:33.6       0   -360      4    361    362 180.1   0.7  34162  289.62 0855.17
2009/04/23 10:44:33.7     -23   -260      9    262    263 185.1   2.1  34164  289.63 0855.17
2009/04/23 10:44:33.8      21   -271    -75    272    283 175.5 -15.5  34164  289.63 0855.17
2009/04/23 10:44:33.9    -117   -322      7    343    344 200.0   1.2  34168  289.71 0855.17
2009/04/23 10:44:34.0    -113   -319    -18    339    340 199.5  -3.1  34172  289.77 0855.17
2009/04/23 10:44:34.1     -91   -319      0    332    333 196.0   0.1  34178  289.86 0855.17
2009/04/23 10:44:34.2       7   -354    -49    355    359 178.8  -7.9  34162  289.60 0855.17
2009/04/23 10:44:34.3       7   -336    -48    337    341 178.8  -8.2  34164  289.64 0855.17
2009/04/23 10:44:34.4      18   -293    -26    294    296 176.4  -5.2  34162  289.59 0855.17
2009/04/23 10:44:34.5      78   -302      2    312    313 165.5   0.4  34162  289.59 0855.17
2009/04/23 10:44:34.6      74   -293     -3    303    304 165.8  -0.7  34160  289.58 0855.17
2009/04/23 10:44:34.7      76   -287    -37    297    300 165.1  -7.2  34160  289.56 0855.17
2009/04/23 10:44:34.8     104   -298    -18    316    317 160.6  -3.3  34158  289.54 0855.17
2009/04/23 10:44:34.9      57   -277      4    283    284 168.2   0.8  34162  289.61 0855.17
2009/04/23 10:44:35.0      64   -204     10    214    215 162.4   2.8  34164  289.63 0855.17
2009/04/23 10:44:35.1      31   -217     -1    220    221 171.9  -0.3  34164  289.63 0855.17
2009/04/23 10:44:35.2      22   -244     26    246    248 174.7   6.1  34166  289.68 0855.17
2009/04/23 10:44:35.3      55   -272      8    278    279 168.4   1.8  34164  289.64 0855.17
2009/04/23 10:44:35.4      29   -284      4    286    287 174.0   0.8  34162  289.59 0855.17
2009/04/23 10:44:35.5      30   -271    -21    273    274 173.7  -4.6  34160  289.56 0855.17
2009/04/23 10:44:35.6      16   -261     -5    262    263 176.4  -1.2  34160  289.58 0855.17
2009/04/23 10:44:35.7       4   -276    -12    277    278 179.1  -2.6  34160  289.56 0855.17
2009/04/23 10:44:35.8      14   -284     -1    285    286 177.1  -0.3  34160  289.58 0855.17
2009/04/23 10:44:35.9      11   -248    -48    249    254 177.4 -11.1  34166  289.68 0855.17
2009/04/23 10:44:36.1     -50   -209    -65    215    225 193.6 -17.0  34160  289.57 0855.17
2009/04/23 10:44:36.2      -2   -239     10    240    241 180.7   2.5  34164  289.64 0855.17
2009/04/23 10:44:36.3     -13   -210     15    211    212 183.8   4.2  34166  289.67 0855.17
2009/04/23 10:44:36.4      50   -196      6    203    204 165.7   1.8  34162  289.60 0855.17
2009/04/23 10:44:36.5      17   -224      0    225    226 175.6   0.2  34164  289.65 0855.17
2009/04/23 10:44:36.6      25   -201    -46    203    209 172.9 -12.9  34166  289.67 0855.17
2009/04/23 10:44:36.7      44   -232    -65    237    245 169.1 -20.0  34162  289.59 0855.17
2009/04/23 10:44:36.8      54   -229    -76    236    249 166.6 -17.9  34164  289.63 0855.18
2009/04/23 10:44:36.9      72   -246    -69    257    267 163.7 -15.0  34168  289.70 0855.18
2009/04/23 10:44:37.0      58   -249    -45    256    261 166.7 -10.1  34166  289.68 0855.18
2009/04/23 10:44:37.1      41   -235    -50    239    245 170.0 -11.9  34168  289.70 0855.18
2009/04/23 10:44:37.2      58   -219    -28    227    229 165.1  -7.2  34164  289.65 0855.18
2009/04/23 10:44:37.3      58   -199     16    208    209 163.7   4.6  34162  289.62 0855.18
2009/04/23 10:44:37.4      73   -220     -1    233    234 161.5  -0.3  34162  289.60 0855.18
2009/04/23 10:44:37.5      79   -239     -1    252    253 161.7  -0.3  34160  289.58 0855.18
2009/04/23 10:44:37.6      83   -257     11    271    272 162.1   2.3  34160  289.56 0855.18
2009/04/23 10:44:37.7      64   -244    -14    253    254 165.3  -3.2  34160  289.58 0855.18
2009/04/23 10:44:37.8      48   -204     -2    210    211 166.6  -0.7  34162  289.60 0855.18
2009/04/23 10:44:37.9      56   -225     18    232    233 166.0   4.6  34160  289.58 0855.18
2009/04/23 10:44:38.0       0   -238    -40    239    243 180.2  -9.6  34168  289.70 0855.18
2009/04/23 10:44:38.1      16   -220    -15    221    222 175.8  -3.9  34166  289.69 0855.18
2009/04/23 10:44:38.2      12   -225      0    226    227 176.9   0.0  34164  289.63 0855.18
2009/04/23 10:44:38.3      21   -232     15    234    235 174.7   3.8  34162  289.61 0855.18
2009/04/23 10:44:38.4      46   -225     45    230    235 168.4  11.1  34164  289.63 0855.18
2009/04/23 10:44:38.5      43   -215    -28    220    222 168.7  -7.3  34164  289.63 0855.18
2009/04/23 10:44:38.6      39   -230     -1    234    235 170.2  -0.3  34162  289.59 0855.18
2009/04/23 10:44:38.7      24   -211     -4    213    214 173.5  -1.3  34166  289.67 0855.18
2009/04/23 10:44:38.8      32   -189     30    192    195 170.4   9.0  34166  289.69 0855.19
2009/04/23 10:44:38.9      34   -180     13    184    185 169.1   4.2  34170  289.75 0855.19
2009/04/23 10:44:39.0      73   -152     26    169    171 154.1   8.8  34170  289.74 0855.19
2009/04/23 10:44:39.1      53   -121     20    133    135 156.4   8.9  34168  289.72 0855.19
2009/04/23 10:44:39.2      86   -103     35    135    140 140.3  14.7  34170  289.74 0855.19
2009/04/23 10:44:39.3      66   -117     16    135    136 150.6   6.9  34168  289.72 0855.19
2009/04/23 10:44:39.4      21   -107    -27    110    114 168.9 -13.9  34170  289.75 0855.19
2009/04/23 10:44:39.5      -1   -111    -22    112    115 180.9 -11.3  34170  289.74 0855.19
2009/04/23 10:44:39.6      13    -83    -18     85     88 170.7 -12.4  34172  289.79 0855.19
2009/04/23 10:44:39.7      29    -81    -26     87     92 160.4 -17.0  34172  289.79 0855.19
2009/04/23 10:44:39.8      25    -77    -32     82     88 161.7 -26.4  34174  289.82 0855.19
2009/04/23 10:44:39.9      69   -125    -49    144    153 151.0 -19.1  34172  289.77 0855.19
2009/04/23 10:44:40.0      67   -137    -33    153    157 153.7 -12.2  34166  289.69 0855.19
2009/04/23 10:44:40.1      66   -129    -23    145    147 152.9  -9.3  34168  289.70 0855.19
2009/04/23 10:44:40.2      19   -185    -23    187    189 174.0  -7.2  34168  289.70 0855.19
2009/04/23 10:44:40.3      35   -220     -8    223    224 170.9  -2.2  34168  289.70 0855.19
2009/04/23 10:44:40.4     -11   -175    -49    176    183 183.6 -15.8  34170  289.75 0855.19
2009/04/23 10:44:40.5       7   -139    -37    140    145 176.9 -15.0  34170  289.74 0855.19
2009/04/23 10:44:40.6      17   -137    -30    139    143 172.9 -12.4  34176  289.85 0855.19
2009/04/23 10:44:40.7      26   -116    -69    119    137 167.1 -37.3  34180  289.91 0855.19
2009/04/23 10:44:40.8      35    -99     -9    106    107 160.4  -5.2  34180  289.91 0855.17
2009/04/23 10:44:40.9      48   -102     -5    113    114 154.7  -2.6  34182  289.96 0855.17
2009/04/23 10:44:41.0      36   -107    -22    114    117 161.3 -11.3  34182  289.96 0855.17
2009/04/23 10:44:41.1      13   -148    -45    149    156 174.7 -17.0  34174  289.80 0855.17
2009/04/23 10:44:41.2     -29   -164      7    167    168 190.0   2.5  34180  289.91 0855.17
2009/04/23 10:44:41.3     -62   -166     18    178    179 200.7   5.9  34192  290.13 0855.17
2009/04/23 10:44:41.4     -10   -139     70    140    156 184.5  28.5  34196  290.18 0855.17
2009/04/23 10:44:41.5      31   -129     72    133    151 166.2  31.3  34172  289.77 0855.17
2009/04/23 10:44:41.6      59   -134     55    147    156 156.3  21.5  34170  289.74 0855.17
2009/04/23 10:44:41.7      61   -148     46    161    168 157.7  16.0  34172  289.77 0855.17
2009/04/23 10:44:41.8      91    -97     46    134    142 136.8  19.2  34172  289.77 0855.17
2009/04/23 10:44:41.9     115    -97     65    151    164 130.0  24.9  34170  289.74 0855.17
2009/04/23 10:44:42.0     105   -129     59    167    178 141.0  19.6  34168  289.70 0855.17
2009/04/23 10:44:42.1      76   -161     63    179    191 154.7  19.6  34198  290.23 0855.17
2009/04/23 10:44:42.2     119    -88     77    149    167 126.4  29.5  34174  289.82 0855.17
2009/04/23 10:44:42.3     154    -98     37    183    187 122.4  11.6  34172  289.77 0855.17
2009/04/23 10:44:42.4     157   -123     56    200    208 128.0  15.8  34172  289.77 0855.17
2009/04/23 10:44:42.5     121   -148     21    192    194 140.6   6.5  34176  289.84 0855.17
2009/04/23 10:44:42.6     153   -171     29    230    232 138.1   7.2  34172  289.79 0855.17
2009/04/23 10:44:42.7     166   -167     29    236    238 135.2   7.2  34170  289.75 0855.17
2009/04/23 10:44:42.8     137   -202     37    245    248 145.8   8.8  34176  289.83 0855.18
2009/04/23 10:44:42.9     120   -207      3    240    241 149.9   0.8  34174  289.80 0855.18
2009/04/23 10:44:43.0     114   -197     -8    228    229 149.9  -2.1  34176  289.85 0855.18
2009/04/23 10:44:43.1     106   -174     -7    204    205 148.6  -2.2  34176  289.84 0855.18
2009/04/23 10:44:43.2     138   -138     -8    196    197 135.0  -2.6  34176  289.85 0855.18
2009/04/23 10:44:43.3     152   -155    -11    218    219 135.5  -3.1  34170  289.75 0855.18
2009/04/23 10:44:43.4     155   -149    -24    216    218 133.8  -6.5  34166  289.69 0855.18
2009/04/23 10:44:43.5     121   -143    -10    188    189 139.7  -3.2  34170  289.74 0855.18
2009/04/23 10:44:43.6      77   -162     64    180    191 154.4  20.0  34172  289.77 0855.18
2009/04/23 10:44:43.7     123   -198     41    234    238 148.1  10.1  34174  289.80 0855.18
2009/04/23 10:44:43.8      88   -184     -4    205    206 154.4  -1.3  34168  289.72 0855.18
2009/04/23 10:44:43.9      83   -169     14    189    190 153.7   4.2  34162  289.62 0855.18
2009/04/23 10:44:44.0     153   -123     27    197    199 128.9   7.8  34194  290.14 0855.18
2009/04/23 10:44:44.1      96   -150     44    179    185 147.3  13.9  34188  290.04 0855.18
2009/04/23 10:44:44.2     102    -98     58    142    153 134.0  23.1  34184  289.99 0855.18
2009/04/23 10:44:44.3      97    -80     39    126    132 129.5  17.3  34180  289.91 0855.18
2009/04/23 10:44:44.4     121    -94     52    154    163 127.8  18.9  34180  289.92 0855.18
2009/04/23 10:44:44.5     118    -56    -16    131    133 115.3  -7.3  34182  289.96 0855.18
2009/04/23 10:44:44.6      19    -23    -11     31     32 140.4 -23.3  34188  290.06 0855.18
2009/04/23 10:44:44.7     -39     -3     23     40     46 265.6  33.5  34194  290.16 0855.18
2009/04/23 10:44:44.8     -61      1     41     62     74 271.7  35.6  34192  290.13 0855.21
2009/04/23 10:44:44.9       0     52     81     53     96   0.9  64.6  34194  290.16 0855.21
2009/04/23 10:44:45.0     -76     78     34    110    116 315.9  17.3  34192  290.11 0855.21
2009/04/23 10:44:45.1     -67    105     58    125    137 327.5  26.6  34184  289.99 0855.21
2009/04/23 10:44:45.2     -40     48     74     63     97 320.4  55.4  34186  290.02 0855.21
2009/04/23 10:44:45.3      -6     80     69     81    106 355.6  44.8  34184  289.97 0855.21
2009/04/23 10:44:45.4      -2     37     31     38     49 355.6  43.7  34190  290.08 0855.21
2009/04/23 10:44:45.5      33     32     60     47     76  46.0  57.5  34190  290.08 0855.21
2009/04/23 10:44:45.6      44     60    100     75    125  36.0  59.4  34190  290.09 0855.21
2009/04/23 10:44:45.7      32     74     97     81    126  23.6  55.8  34186  290.02 0855.21
2009/04/23 10:44:45.8      32     33    100     47    110  44.1  73.1  34188  290.04 0855.21
2009/04/23 10:44:45.9       0     98     83     99    129   0.5  43.8  34190  290.08 0855.21
2009/04/23 10:44:46.0      12     90     46     91    101   8.0  28.7  34192  290.13 0855.21
2009/04/23 10:44:46.1      42     42     54     60     80  45.0  46.9  34198  290.23 0855.21
2009/04/23 10:44:46.2      52     -3     57     53     77  93.5  52.1  34194  290.16 0855.21
2009/04/23 10:44:46.3      11    -35     38     37     53 161.3  49.1  34200  290.25 0855.21
2009/04/23 10:44:46.4      15    -21     27     26     37 143.9  48.2  34198  290.23 0855.21
2009/04/23 10:44:46.5     -29    -88     54     93    107 198.3  32.9  34194  290.14 0855.21
2009/04/23 10:44:46.6       7   -116     47    117    126 176.4  23.0  34196  290.18 0855.21
2009/04/23 10:44:46.7      26   -137     55    140    150 169.3  23.0  34190  290.08 0855.21
2009/04/23 10:44:46.8      -9    -63    119     64    135 188.9  69.3  34204  290.33 0855.21
2009/04/23 10:44:46.9      41    -11    104     43    112 105.9  77.0  34192  290.11 0855.21
2009/04/23 10:44:47.0     106      1    129    107    167  89.2  56.1  34184  289.99 0855.21
2009/04/23 10:44:47.1     131    -31    113    135    176 103.7  44.3  34176  289.85 0855.21
2009/04/23 10:44:47.2     122    -53    114    134    175 113.5  44.8  34174  289.82 0855.21
2009/04/23 10:44:47.3     106    -67    120    126    174 122.4  49.0  34178  289.89 0855.21
2009/04/23 10:44:47.4      47   -104     79    115    139 155.5  37.6  34208  290.40 0855.21
2009/04/23 10:44:47.5      38     18     93     43    102  64.7  73.5  34186  290.01 0855.21
2009/04/23 10:44:47.6      15      4     68     16     69  74.9  88.0  34190  290.09 0855.21
2009/04/23 10:44:47.7     -35      1     73     36     81 272.6  71.9  34198  290.21 0855.21
2009/04/23 10:44:47.8      -6    -42     71     43     83 188.9  66.2  34200  290.26 0855.21
2009/04/23 10:44:47.9     -52    -86    149    101    180 211.6  62.6  34194  290.16 0855.21
2009/04/23 10:44:48.0      35    -72     83     81    115 153.7  50.1  34202  290.28 0855.21
2009/04/23 10:44:48.1     -30    -64    108     72    129 205.5  63.2  34194  290.16 0855.21
2009/04/23 10:44:48.2     -74   -106    111    130    170 214.7  44.8  34186  290.02 0855.21
2009/04/23 10:44:48.3       0    -90    164     91    187 180.4  68.8  34194  290.14 0855.21
2009/04/23 10:44:48.4     -58    -27    145     65    158 244.7  74.2  34198  290.21 0855.21
2009/04/23 10:44:48.5      19     44    128     49    137  23.6  78.6  34182  289.94 0855.21
2009/04/23 10:44:48.6       0     55    103     56    117   0.0  68.9  34188  290.04 0855.21
2009/04/23 10:44:48.7     -27     27    131     39    136 315.0  82.7  34200  290.26 0855.21
2009/04/23 10:44:48.8      12    -53     73     55     91 166.6  59.0  34212  290.45 0855.17
2009/04/23 10:44:48.9     -32    -50     44     60     74 212.5  39.7  34210  290.43 0855.17
2009/04/23 10:44:49.0     -72    -59     57     94    109 230.5  34.4  34210  290.41 0855.17
2009/04/23 10:44:49.1     -22   -110      5    113    114 191.6   2.9  34198  290.21 0855.17
2009/04/23 10:44:49.2      -8   -135     51    136    145 183.6  21.0  34214  290.50 0855.17
2009/04/23 10:44:49.3     -51    -25     49     57     75 243.8  44.8  34210  290.41 0855.17
2009/04/23 10:44:49.4     -33    -37     29     50     57 221.4  33.5  34224  290.65 0855.17
2009/04/23 10:44:49.5       5     29     19     30     35   9.8  35.5  34224  290.67 0855.17
2009/04/23 10:44:49.6      57    -21     30     61     67 110.8  27.3  34206  290.36 0855.17
2009/04/23 10:44:49.7      63    -76     87     99    131 140.4  45.8  34200  290.25 0855.17
2009/04/23 10:44:49.8     112   -105    107    154    187 133.2  38.0  34172  289.79 0855.17
2009/04/23 10:44:49.9     142    -84     88    166    187 120.6  30.3  34172  289.77 0855.17
2009/04/23 10:44:50.0     108    -73    103    131    166 124.1  42.4  34178  289.87 0855.17
2009/04/23 10:44:50.1      91    -86    115    126    170 133.2  47.1  34184  289.99 0855.17
2009/04/23 10:44:50.2      83    -83     80    118    142 135.0  37.4  34184  289.97 0855.17
2009/04/23 10:44:50.3      61    -84     73    105    127 143.9  38.0  34180  289.92 0855.17
2009/04/23 10:44:50.4      18    -92    107     94    142 168.5  54.2  34176  289.84 0855.17
2009/04/23 10:44:50.6      38   -130    141    136    195 163.5  51.2  34182  289.96 0855.17
2009/04/23 10:44:50.6     -28    -44    102     53    114 212.5  70.4  34226  290.69 0855.17
2009/04/23 10:44:50.7      31   -125    105    129    166 165.7  43.7  34194  290.16 0855.17
2009/04/23 10:44:50.8      19   -145     93    147    173 172.4  35.5  34174  289.80 0855.21
2009/04/23 10:44:50.9      39   -115    100    122    157 161.3  43.7  34180  289.91 0855.21
2009/04/23 10:44:51.0      12   -133     95    134    164 174.7  38.6  34178  289.89 0855.21
2009/04/23 10:44:51.1      -6   -145     73    146    163 182.6  28.7  34168  289.72 0855.21
2009/04/23 10:44:51.2      -1   -179    110    180    210 180.5  34.4  34168  289.70 0855.21
2009/04/23 10:44:51.3      20   -182     85    184    202 173.5  26.4  34176  289.85 0855.21
2009/04/23 10:44:51.4      35   -150     85    155    176 166.7  31.3  34170  289.74 0855.21
2009/04/23 10:44:51.5      32   -172     82    176    194 169.3  27.1  34170  289.74 0855.21
2009/04/23 10:44:51.6      -8   -173     80    174    191 182.7  26.6  34168  289.72 0855.21
2009/04/23 10:44:51.7      11   -153     86    154    176 175.6  31.4  34180  289.91 0855.21
2009/04/23 10:44:51.8      27   -167     92    170    193 170.7  31.0  34168  289.72 0855.21
2009/04/23 10:44:51.9      31   -186     59    189    199 170.4  17.4  34172  289.79 0855.21
2009/04/23 10:44:52.0      47   -141     54    149    158 161.3  20.7  34178  289.87 0855.21
2009/04/23 10:44:52.1      26   -133     14    136    137 168.9   5.9  34176  289.84 0855.21
2009/04/23 10:44:52.2       9   -108     54    109    121 175.1  28.2  34176  289.84 0855.21
2009/04/23 10:44:52.3      -9   -129     73    130    149 184.0  31.4  34168  289.72 0855.21
2009/04/23 10:44:52.4      -2   -106     85    107    136 181.4  43.3  34174  289.80 0855.21
2009/04/23 10:44:52.5      10   -133     93    134    163 175.5  38.0  34174  289.82 0855.21
2009/04/23 10:44:52.6      24   -142     99    145    175 170.2  37.8  34178  289.89 0855.21
2009/04/23 10:44:52.7       4   -170    114    171    205 178.4  36.7  34176  289.84 0855.21
2009/04/23 10:44:52.8      -7   -173    103    174    202 182.5  33.5  34170  289.74 0855.20
2009/04/23 10:44:52.9     -38   -146    113    151    188 194.7  40.7  34172  289.77 0855.20
2009/04/23 10:44:53.0     -57   -140     83    152    173 202.3  31.0  34174  289.82 0855.20
2009/04/23 10:44:53.1     -57    -98     76    114    137 210.3  37.0  34170  289.75 0855.20
2009/04/23 10:44:53.2      -2    -70     67     71     97 181.8  49.0  34178  289.89 0855.20
2009/04/23 10:44:53.3       0    -44     62     45     76 180.0  60.5  34214  290.50 0855.20
2009/04/23 10:44:53.4      -6    -25     65     26     70 193.4  77.1  34238  290.89 0855.20
2009/04/23 10:44:53.5     -17      0     63     18     65 270.0  84.8  34240  290.92 0855.20
2009/04/23 10:44:53.6     -11     18     42     22     47 329.3  69.8  34224  290.67 0855.20
2009/04/23 10:44:53.7     -11     -3     49     12     50 251.6  88.0  34232  290.81 0855.20
2009/04/23 10:44:53.8       0    -22     56     23     60 179.1  77.0  34246  291.03 0855.20
2009/04/23 10:44:53.9     -11    -17     56     21     59 214.3  79.2  34256  291.21 0855.20
2009/04/23 10:44:54.0      -5      0     49      6     49 270.0  90.0  34248  291.08 0855.20
2009/04/23 10:44:54.1      -4    -15     43     16     45 195.1  80.2  34252  291.15 0855.20
2009/04/23 10:44:54.2      36     -7     49     37     61 101.4  59.4  34254  291.18 0855.20
2009/04/23 10:44:54.3      90      6     73     91    116  85.6  43.7  34230  290.75 0855.20
2009/04/23 10:44:54.4      63      8     76     64     99  82.1  55.8  34200  290.26 0855.20
2009/04/23 10:44:54.5      79    -38     82     88    120 115.8  47.9  34182  289.96 0855.20
2009/04/23 10:44:54.6      47    -41     68     63     92 131.3  52.2  34194  290.14 0855.20
2009/04/23 10:44:54.7      33    -15     51     37     63 115.3  60.5  34200  290.25 0855.20
2009/04/23 10:44:54.8      31    -57     36     66     75 151.1  31.4  34194  290.14 0855.20
2009/04/23 10:44:54.9      33    -23     50     41     64 124.2  56.4  34192  290.13 0855.20
2009/04/23 10:44:55.0      12    -30     53     33     62 158.2  64.7  34194  290.16 0855.20
2009/04/23 10:44:55.1     -15    -58     31     61     68 195.2  28.2  34210  290.43 0855.20
2009/04/23 10:44:55.2     -40    -48     16     63     66 219.6  14.3  34196  290.18 0855.20
2009/04/23 10:44:55.3     -55    -56     12     79     80 224.2   9.0  34192  290.11 0855.20
2009/04/23 10:44:55.4     -49    -69     24     85     89 215.6  16.3  34196  290.19 0855.20
2009/04/23 10:44:55.5     -33    -55     21     65     69 210.7  18.4  34196  290.19 0855.20
2009/04/23 10:44:55.6     -22    -64     24     68     73 199.2  19.4  34204  290.31 0855.20
2009/04/23 10:44:55.7     -28    -93     19     98    100 196.9  11.1  34206  290.35 0855.20
2009/04/23 10:44:55.8     -33    -78     21     85     88 203.2  14.3  34220  290.58 0855.20
2009/04/23 10:44:55.9     -60    -70     43     93    102 220.5  26.6  34228  290.74 0855.20
2009/04/23 10:44:56.0     -45    -95     51    106    117 205.5  27.2  34220  290.60 0855.20
2009/04/23 10:44:56.1     -47    -85     67     98    118 209.0  37.6  34232  290.81 0855.20
2009/04/23 10:44:56.2     -95    -31     62    101    118 251.8  34.4  34240  290.92 0855.20
2009/04/23 10:44:56.3     -82   -132     86    156    178 212.1  31.4  34254  291.16 0855.20
2009/04/23 10:44:56.4    -131   -133     73    187    200 224.5  22.5  34244  291.01 0855.20
2009/04/23 10:44:56.5    -114   -148     -2    188    189 217.6  -0.7  34238  290.89 0855.20
2009/04/23 10:44:56.6    -107   -118     -3    160    161 222.3  -1.1  34242  290.98 0855.20
2009/04/23 10:44:56.7     -71   -129    -19    148    150 208.9  -7.3  34236  290.86 0855.20
2009/04/23 10:44:56.8     -52   -120    -22    131    133 203.6  -9.8  34234  290.82 0855.20
2009/04/23 10:44:56.9     -38    -85     41     94    102 204.5  24.6  34226  290.69 0855.20
2009/04/23 10:44:57.0       0   -122     93    123    154 180.0  41.2  34220  290.58 0855.20
2009/04/23 10:44:57.1     -11   -148     53    149    159 184.5  19.6  34188  290.04 0855.20
2009/04/23 10:44:57.2     -15   -111     75    113    135 188.1  36.5  34210  290.43 0855.20
2009/04/23 10:44:57.3      11   -157     91    158    182 176.0  32.7  34204  290.33 0855.20
2009/04/23 10:44:57.4     -16   -205     98    206    228 184.7  27.3  34184  289.99 0855.20
2009/04/23 10:44:57.5     -35   -220     95    223    242 189.1  24.3  34184  289.98 0855.20
2009/04/23 10:44:57.6     -31   -183     81    186    202 189.6  25.1  34188  290.06 0855.20
2009/04/23 10:44:57.7     -40   -169     80    174    191 193.6  26.6  34188  290.04 0855.20
2009/04/23 10:44:57.8     -33   -174     83    178    196 190.7  26.6  34186  290.01 0855.20
2009/04/23 10:44:57.9      -7   -188     36    189    193 182.2  11.0  34186  290.01 0855.20
2009/04/23 10:44:58.0     -18   -213    -43    214    219 185.1 -11.3  34188  290.04 0855.20
2009/04/23 10:44:58.1      67   -289     22    297    298 166.9   4.4  34176  289.85 0855.20
2009/04/23 10:44:58.2      12   -274     -5    275    276 177.4  -1.2  34176  289.85 0855.20
2009/04/23 10:44:58.3      -8   -216     87    217    233 182.2  23.0  34180  289.91 0855.20
2009/04/23 10:44:58.4       0   -188     68    189    200 179.8  20.4  34180  289.92 0855.20
2009/04/23 10:44:58.5     -24   -159     72    161    176 188.9  25.7  34178  289.89 0855.20
2009/04/23 10:44:58.6      -3   -245     86    246    261 180.9  19.4  34176  289.85 0855.20
2009/04/23 10:44:58.7      83   -274     71    287    296 163.1  13.9  34172  289.78 0855.20
2009/04/23 10:44:58.8      -4   -196     69    197    208 181.4  20.0  34176  289.84 0855.20
2009/04/23 10:44:58.9      -3   -205     98    206    228 180.9  27.3  34178  289.87 0855.20
2009/04/23 10:44:59.0      59   -250    164    257    304 166.6  35.6  34180  289.92 0855.20
2009/04/23 10:44:59.1      52   -245    181    251    309 168.0  39.5  34182  289.95 0855.20
2009/04/23 10:44:59.2      50   -150    153    159    220 161.3  49.0  34204  290.31 0855.20
2009/04/23 10:44:59.3      57   -111    131    125    181 152.8  51.4  34198  290.23 0855.20
2009/04/23 10:44:59.4      21   -151     91    153    178 171.9  33.7  34180  289.91 0855.20
2009/04/23 10:44:59.5      25   -180    126    182    221 172.0  37.8  34192  290.11 0855.20
2009/04/23 10:44:59.6      39   -162     86    167    187 166.2  29.3  34172  289.77 0855.20
2009/04/23 10:44:59.7      39   -176     92    181    203 167.5  29.2  34178  289.87 0855.20
2009/04/23 10:44:59.8      69   -220    103    231    252 162.6  25.7  34170  289.73 0855.19
2009/04/23 10:44:59.9      43   -196    127    201    237 167.5  35.5  34174  289.82 0855.19
2009/04/23 10:45:00.0      36   -228    111    231    256 170.9  27.3  34174  289.81 0855.19
2009/04/23 10:45:00.1      20   -184    130    186    226 173.5  38.4  34176  289.84 0855.19
2009/04/23 10:45:00.2      38   -189    114    193    224 168.5  33.5  34178  289.87 0855.19
2009/04/23 10:45:00.3      39   -203     79    207    221 169.1  22.0  34172  289.77 0855.19
2009/04/23 10:45:00.4       6   -269    132    270    300 178.6  28.0  34174  289.81 0855.19
2009/04/23 10:45:00.5      75   -241    100    253    272 162.6  22.8  34174  289.81 0855.19
2009/04/23 10:45:00.6      25   -232     98    234    253 173.8  23.8  34176  289.83 0855.19
2009/04/23 10:45:00.7      40   -230    118    234    262 170.0  29.1  34178  289.86 0855.19
2009/04/23 10:45:00.8      38   -198    112    202    230 168.9  31.4  34174  289.82 0855.19
2009/04/23 10:45:00.9      22   -150    101    152    182 171.5  36.5  34206  290.36 0855.19
2009/04/23 10:45:01.0      29    -45     77     54     94 147.4  62.1  34230  290.77 0855.19
2009/04/23 10:45:01.1      37    -63     82     74    110 149.3  53.3  34222  290.64 0855.19
2009/04/23 10:45:01.2       7    -69    145     70    161 173.8  72.7  34250  291.09 0855.19
2009/04/23 10:45:01.3      56     -4    168     57    177  94.3  81.0  34208  290.40 0855.19
2009/04/23 10:45:01.4      28    -92     96     97    136 163.1  50.0  34188  290.06 0855.19
2009/04/23 10:45:01.5      57   -143    160    155    222 158.2  50.9  34184  289.99 0855.19
2009/04/23 10:45:01.6      61   -125    114    140    180 154.1  43.7  34186  290.02 0855.19
2009/04/23 10:45:01.7      63    -77     88    100    133 140.4  45.9  34180  289.91 0855.19
2009/04/23 10:45:01.8      81    -97     95    127    158 139.9  40.7  34180  289.91 0855.19
2009/04/23 10:45:01.9      31    -91    107     97    144 160.8  52.7  34188  290.04 0855.19
2009/04/23 10:45:02.0      48   -102    100    113    150 154.5  45.9  34182  289.96 0855.19
2009/04/23 10:45:02.1      35   -126    109    131    170 164.4  44.1  34176  289.85 0855.19
2009/04/23 10:45:02.2      92   -180    119    203    235 152.8  32.9  34174  289.80 0855.19
2009/04/23 10:45:02.3      88   -138    123    164    205 147.5  40.7  34178  289.89 0855.19
2009/04/23 10:45:02.4      80   -242    143    255    292 161.7  31.6  34176  289.85 0855.19
2009/04/23 10:45:02.5      56   -278    156    284    324 168.4  31.0  34176  289.85 0855.19
2009/04/23 10:45:02.6      52   -299    162    304    344 170.0  30.3  34178  289.87 0855.19
2009/04/23 10:45:02.8      74   -316    167    325    365 166.7  29.3  34178  289.86 0855.19
2009/04/23 10:45:02.9      44   -376    140    379    404 173.3  21.1  34182  289.96 0855.19
2009/04/23 10:45:03.0      38   -355    166    358    394 173.8  26.5  34182  289.94 0855.19
2009/04/23 10:45:03.1      50   -295    113    300    320 170.3  21.5  34186  290.00 0855.19
2009/04/23 10:45:03.2     130   -299     26    327    329 156.4   4.7  34176  289.85 0855.19
2009/04/23 10:45:03.3     150   -301     56    337    342 153.5   9.4  34182  289.94 0855.19
2009/04/23 10:45:03.4      97   -307     27    323    325 162.4   4.9  34182  289.95 0855.19
2009/04/23 10:45:03.5      96   -254      0    272    273 159.3   0.0  34180  289.92 0855.19
2009/04/23 10:45:03.6      79   -244     56    257    264 162.0  12.4  34182  289.93 0855.19
2009/04/23 10:45:03.7      52   -259     18    265    266 168.5   3.9  34182  289.93 0855.19
2009/04/23 10:45:03.8      61   -199    -30    209    212 162.8  -8.2  34182  289.96 0855.19
2009/04/23 10:45:03.9      89   -235     48    252    257 159.3  10.8  34180  289.90 0855.19
2009/04/23 10:45:04.0      38   -308     85    311    323 172.9  15.4  34178  289.86 0855.19
2009/04/23 10:45:04.1      52   -256     31    262    264 168.4   6.9  34180  289.92 0855.19
2009/04/23 10:45:04.2      79   -273     72    285    295 163.7  14.3  34186  290.02 0855.19
2009/04/23 10:45:04.3      77   -233     20    246    247 161.7   4.9  34188  290.05 0855.19
2009/04/23 10:45:04.4      66   -257      8    266    267 165.5   1.8  34186  290.02 0855.19
2009/04/23 10:45:04.5      50   -278    -37    283    286 169.8  -7.5  34188  290.03 0855.19
2009/04/23 10:45:04.6      -8   -290    -58    291    297 181.6 -11.3  34184  289.98 0855.19
2009/04/23 10:45:04.7      30   -291    -16    293    294 174.0  -3.1  34182  289.95 0855.19
2009/04/23 10:45:04.8      65   -251    -86    260    273 165.3 -23.8  34190  290.07 0855.19
2009/04/23 10:45:04.9      42   -270    -85    274    286 171.1 -22.3  34184  289.98 0855.19
2009/04/23 10:45:05.0     -44   -219    -80    224    239 191.6 -19.7  34184  289.97 0855.19
2009/04/23 10:45:05.1     -13   -307    -36    308    311 182.6  -6.7  34186  290.02 0855.19
2009/04/23 10:45:05.2       5   -308    -44    309    313 179.0  -8.1  34196  290.19 0855.19
2009/04/23 10:45:05.3     -29   -273    -85    275    287 186.3 -22.1  34200  290.24 0855.19
2009/04/23 10:45:05.4       3   -261    -75    262    273 179.3 -16.0  34196  290.17 0855.19
2009/04/23 10:45:05.5      14   -265    -86    266    280 176.9 -18.1  34198  290.20 0855.19
2009/04/23 10:45:05.6     -24   -262    -68    264    273 185.3 -14.5  34198  290.22 0855.19
2009/04/23 10:45:05.7     -24   -226    -81    228    243 186.2 -19.6  34202  290.29 0855.19
2009/04/23 10:45:05.8       0   -240   -123    241    270 180.0 -33.6  34208  290.39 0855.19
2009/04/23 10:45:05.9       0   -240    -92    241    257 180.0 -26.4  34208  290.37 0855.19
2009/04/23 10:45:06.0     -74   -265    -78    276    286 195.6 -20.7  34190  290.09 0855.19
2009/04/23 10:45:06.1     -58   -278    -90    285    299 191.8 -17.6  34182  289.95 0855.19
2009/04/23 10:45:06.2     -66   -325   -107    332    348 191.6 -23.0  34148  289.38 0855.19
2009/04/23 10:45:06.3       6   -322   -113    323    343 178.8 -19.3  34154  289.47 0855.19
2009/04/23 10:45:06.4      27   -293    -96    295    311 174.7 -18.0  34150  289.39 0855.19
2009/04/23 10:45:06.5      42   -264    -95    268    285 170.9 -19.6  34144  289.31 0855.19
2009/04/23 10:45:06.6      26   -256   -123    258    285 174.0 -31.6  34144  289.29 0855.19
2009/04/23 10:45:06.7      17   -223   -130    224    258 175.6 -37.1  34148  289.36 0855.19
2009/04/23 10:45:06.8      -2   -155   -136    156    206 180.9 -50.2  34176  289.84 0855.19
2009/04/23 10:45:06.9     -73   -170   -139    186    232 203.4 -44.5  34178  289.89 0855.19
2009/04/23 10:45:07.0     -30   -146    -95    150    177 191.6 -39.9  34176  289.85 0855.19
2009/04/23 10:45:07.1     -38   -149    -58    154    164 194.3 -25.7  34180  289.91 0855.19
2009/04/23 10:45:07.2      43   -118    -60    126    139 160.0 -31.7  34174  289.82 0855.19
2009/04/23 10:45:07.3      45   -124   -112    133    173 160.0 -48.7  34152  289.45 0855.19
2009/04/23 10:45:07.4      47   -129    -97    138    168 160.0 -43.0  34148  289.38 0855.19
2009/04/23 10:45:07.5      66   -111    -74    130    149 149.3 -36.3  34150  289.40 0855.19
2009/04/23 10:45:07.6      70    -85    -69    111    130 140.4 -39.9  34150  289.40 0855.19
2009/04/23 10:45:07.7      95    -55    -87    110    140 120.2 -46.6  34162  289.60 0855.19
2009/04/23 10:45:07.8     123    -48    -91    133    161 111.3 -42.2  34160  289.57 0855.19
2009/04/23 10:45:07.9     155    -57    -95    166    191 110.2 -36.5  34156  289.50 0855.17
2009/04/23 10:45:08.0     119   -113   -104    165    195 133.6 -39.9  34162  289.62 0855.17
2009/04/23 10:45:08.1     114    -40    -78    122    144 109.5 -40.0  34164  289.63 0855.17
2009/04/23 10:45:08.2     143    -15    -55    144    154  96.1 -25.9  34146  289.35 0855.17
2009/04/23 10:45:08.3     127     21    -81    129    152  80.3 -39.9  34166  289.67 0855.17
2009/04/23 10:45:08.4     116     57    -63    130    144  63.8 -31.7  34164  289.65 0855.17
2009/04/23 10:45:08.5     127     50    -45    137    144  68.3 -23.8  34154  289.46 0855.17
2009/04/23 10:45:08.6     130     30    -32    134    138  76.7 -13.4  34146  289.35 0855.17
2009/04/23 10:45:08.7     162     21    -29    164    167  82.5 -10.3  34144  289.31 0855.17
2009/04/23 10:45:08.8     192      1      1    193    194  89.6   0.5  34144  289.31 0855.17
2009/04/23 10:45:08.9     182      7     -7    183    184  87.6  -2.2  34156  289.52 0855.17
2009/04/23 10:45:09.0     161     14      9    162    163  84.8   3.3  34154  289.46 0855.17
2009/04/23 10:45:09.1     143     20     39    145    151  82.0  15.3  34144  289.31 0855.17
2009/04/23 10:45:09.2     139     15     59    140    151  83.8  24.1  34142  289.26 0855.17
2009/04/23 10:45:09.3     144     15     98    145    175  83.9  37.0  34142  289.28 0855.17
2009/04/23 10:45:09.4     129     23    112    132    173  79.9  44.8  34146  289.35 0855.17
2009/04/23 10:45:09.5     120     24    109    123    164  78.6  46.4  34146  289.33 0855.17
2009/04/23 10:45:09.6     122     48    126    132    182  68.3  48.7  34150  289.40 0855.17
2009/04/23 10:45:09.7     152     48    120    160    200  72.3  40.7  34168  289.70 0855.17
2009/04/23 10:45:09.8      98     22     61    101    117  77.2  34.0  34188  290.04 0855.17
2009/04/23 10:45:09.9      70     52    117     88    146  53.6  59.4  34192  290.11 0855.17
2009/04/23 10:45:10.0      44     19    109     48    119  66.5  75.0  34200  290.26 0855.17
2009/04/23 10:45:10.1      83     46    120     96    153  60.7  56.9  34198  290.23 0855.17
2009/04/23 10:45:10.2     104     17    147    106    181  80.3  60.6  34202  290.30 0855.17
2009/04/23 10:45:10.3     157     32    131    161    207  78.5  43.7  34192  290.11 0855.17
2009/04/23 10:45:10.4     179     24    123    181    218  82.1  37.6  34178  289.87 0855.17
2009/04/23 10:45:10.5     169     77    131    186    227  65.4  38.6  34180  289.91 0855.17
2009/04/23 10:45:10.6     206    118     51    238    244  60.2  12.2  34178  289.88 0855.17
2009/04/23 10:45:10.7     168     90     67    191    202  61.8  20.0  34178  289.89 0855.17
2009/04/23 10:45:10.8     170    145     -8    224    225  49.6  -2.2  34178  289.87 0855.17
2009/04/23 10:45:10.9     155     90     11    180    181  59.8   3.6  34188  290.04 0855.17
2009/04/23 10:45:11.0     211    193     73    287    297  47.6  14.3  34214  290.49 0855.17
2009/04/23 10:45:11.1     239    151    103    283    301  57.8  20.9  34212  290.44 0855.17
2009/04/23 10:45:11.2     242    140      3    280    281  60.0   0.7  34196  290.17 0855.17
2009/04/23 10:45:11.3     179    151     68    235    245  49.8  16.3  34216  290.51 0855.17
2009/04/23 10:45:11.4     179    254     97    312    327  35.2  17.3  34256  291.21 0855.17
2009/04/23 10:45:11.5      35    260    197    263    328   7.8  40.7  34236  290.87 0855.17
2009/04/23 10:45:11.6     106    191    166    219    274  29.2  41.2  34236  290.87 0855.17
2009/04/23 10:45:11.7     108    197    198    225    299  28.9  45.8  34266  291.36 0855.17
2009/04/23 10:45:11.8     140    252    183    289    342  29.0  35.5  34280  291.61 0855.17
2009/04/23 10:45:11.9      48    171    163    178    241  15.8  47.1  34302  291.98 0855.19
2009/04/23 10:45:12.0      59    131    160    144    215  24.5  53.5  34276  291.55 0855.19
2009/04/23 10:45:12.1      97    101    145    141    202  43.7  50.7  34262  291.32 0855.19
2009/04/23 10:45:12.2     152    110    115    188    220  54.0  34.4  34242  290.96 0855.19
2009/04/23 10:45:12.3     307    154    -10    344    345  63.4  -1.7  34222  290.62 0855.19
2009/04/23 10:45:12.4     367     28     42    368    371  85.6   6.6  34178  289.89 0855.19
2009/04/23 10:45:12.5     361    220     39    423    426  58.6   5.3  34226  290.70 0855.19
2009/04/23 10:45:12.6     175    267    112    320    340  33.2  19.3  34230  290.76 0855.19
2009/04/23 10:45:12.7     358    182    123    402    421  63.0  17.0  34214  290.48 0855.19
2009/04/23 10:45:12.8     414    260    138    489    509  57.9  15.8  34212  290.47 0855.19
2009/04/23 10:45:12.9     371    235    120    440    457  57.6  15.3  34216  290.51 0855.19
2009/04/23 10:45:13.0     146    307    263    341    430  25.5  41.6  34252  291.12 0855.19
2009/04/23 10:45:13.1     319    248    208    405    455  52.2  29.3  34254  291.16 0855.19
2009/04/23 10:45:13.2     306    323    146    446    470  43.5  18.2  34246  291.02 0855.19
2009/04/23 10:45:13.3     283    269    215    391    446  46.4  31.3  34232  290.78 0855.19
2009/04/23 10:45:13.4     369    214    257    427    498  59.8  34.0  34248  291.07 0855.19
2009/04/23 10:45:13.5     446    241    229    507    556  61.6  26.2  34226  290.70 0855.19
2009/04/23 10:45:13.6     472    147    298    495    577  72.7  34.0  34228  290.72 0855.19
2009/04/23 10:45:13.7     498     55    272    502    570  83.6  30.9  34190  290.07 0855.19
2009/04/23 10:45:13.8     533    105    287    544    615  78.8  30.1  34202  290.29 0855.19
2009/04/23 10:45:13.9     556     20    108    557    568  87.9  11.0  34190  290.07 0855.21
2009/04/23 10:45:14.0     562      7     45    563    565  89.2   4.6  34198  290.23 0855.21
2009/04/23 10:45:14.1     378   -131    142    401    426 109.2  19.5  34178  289.88 0855.21
2009/04/23 10:45:14.2     470    -72    233    476    529  98.8  28.0  34178  289.89 0855.21
2009/04/23 10:45:14.3     500    -93    199    509    546 100.6  22.5  34188  290.06 0855.21
2009/04/23 10:45:14.4     510   -128    183    526    558 104.2  19.2  34224  290.67 0855.21
2009/04/23 10:45:14.5     251    -64    194    260    324 104.4  40.7  34210  290.41 0855.21
2009/04/23 10:45:14.6     138   -117    240    182    301 130.4  59.2  34242  290.95 0855.21
2009/04/23 10:45:14.7     122   -247    199    276    340 153.7  39.3  34244  290.99 0855.21
2009/04/23 10:45:14.8     248   -221    198    333    387 131.8  33.5  34240  290.94 0855.21
2009/04/23 10:45:14.9      99   -273    172    291    338 160.0  33.3  34220  290.59 0855.21
2009/04/23 10:45:15.0     244   -222    218    331    396 132.3  36.5  34194  290.15 0855.21
2009/04/23 10:45:15.1     207   -176    275    273    387 130.4  50.1  34204  290.32 0855.21
2009/04/23 10:45:15.2      65    -21    215     69    225 108.4  81.2  34236  290.86 0855.21
2009/04/23 10:45:15.3      35     -2    182     36    185  94.4  89.1  34240  290.94 0855.21
2009/04/23 10:45:15.4      54     63    212     84    228  40.5  77.1  34220  290.60 0855.21
2009/04/23 10:45:15.5      -3    -82    248     83    261 182.2  81.0  34200  290.26 0855.21
2009/04/23 10:45:15.6      -2   -141    255    142    291 180.9  68.8  34218  290.56 0855.21
2009/04/23 10:45:15.7    -105   -201    288    227    366 207.6  57.9  34218  290.54 0855.21
2009/04/23 10:45:15.8     -46   -305    294    309    426 188.7  48.5  34252  291.13 0855.21
2009/04/23 10:45:15.9     -78   -272    276    284    396 196.0  49.1  34252  291.13 0855.21
2009/04/23 10:45:16.0     -58   -236    272    244    365 193.8  53.6  34264  291.34 0855.21
2009/04/23 10:45:16.1    -106   -165    303    197    361 212.6  64.1  34246  291.04 0855.21
2009/04/23 10:45:16.2    -206   -267    288    338    444 217.7  44.8  34242  290.95 0855.21
2009/04/23 10:45:16.3    -211   -311    224    376    437 214.2  33.5  34212  290.46 0855.21
2009/04/23 10:45:16.4    -299   -203    157    362    394 235.7  25.0  34218  290.55 0855.21
2009/04/23 10:45:16.5    -320   -166     30    361    363 242.5   4.9  34214  290.49 0855.21
2009/04/23 10:45:16.6    -257      3    -27    258    260 270.8  -6.1  34206  290.34 0855.21
2009/04/23 10:45:16.7    -190     -5    -58    191    200 268.3 -17.0  34212  290.47 0855.21
2009/04/23 10:45:16.8    -230    -32     58    233    241 262.0  14.2  34226  290.68 0855.21
2009/04/23 10:45:16.9    -266   -103     99    286    303 248.7  19.2  34220  290.58 0855.21
2009/04/23 10:45:17.0    -292    -97    101    308    325 251.6  18.2  34222  290.61 0855.21
2009/04/23 10:45:17.1    -351     60    -33    357    359 279.8  -5.3  34216  290.52 0855.21
2009/04/23 10:45:17.2    -338     18    -55    339    344 273.2  -9.3  34206  290.35 0855.21
2009/04/23 10:45:17.3    -312    -60    -98    318    333 259.0 -17.2  34220  290.58 0855.21
2009/04/23 10:45:17.4    -272      8   -144    273    308 271.7 -34.5  34190  290.07 0855.21
2009/04/23 10:45:17.5    -284     21     24    285    287 274.3   5.0  34190  290.07 0855.21
2009/04/23 10:45:17.6    -298    182   -124    350    372 301.5 -19.5  34178  289.86 0855.21
2009/04/23 10:45:17.7    -234    -83   -115    249    274 250.3 -31.0  34188  290.03 0855.21
2009/04/23 10:45:17.8    -187    -23   -111    189    219 262.8 -37.8  34188  290.06 0855.21
2009/04/23 10:45:17.9    -208      7    -83    209    224 272.1 -27.4  34180  289.91 0855.21
2009/04/23 10:45:18.0    -142    -42   -110    149    185 253.6 -44.3  34178  289.89 0855.21
2009/04/23 10:45:18.1    -123   -138    -53    185    192 221.7 -21.0  34192  290.11 0855.21
2009/04/23 10:45:18.2    -145   -136     -7    200    201 226.8  -2.2  34200  290.26 0855.21
2009/04/23 10:45:18.3    -143   -100     13    175    176 235.1   4.4  34198  290.21 0855.21
2009/04/23 10:45:18.4    -177   -125    -12    217    218 234.7  -3.2  34200  290.26 0855.21
2009/04/23 10:45:18.5    -141   -170    -21    222    224 219.6  -5.6  34206  290.36 0855.21
2009/04/23 10:45:18.6    -113   -152    -13    190    191 216.7  -4.1  34212  290.45 0855.21
2009/04/23 10:45:18.7    -116   -109    -12    160    161 226.9  -4.6  34214  290.50 0855.21
2009/04/23 10:45:18.8    -111    -81    -32    138    142 233.6 -13.4  34224  290.67 0855.21
2009/04/23 10:45:18.9    -115    -54     27    128    131 244.8  12.2  34226  290.70 0855.21
2009/04/23 10:45:19.0     -65   -119    -36    136    141 208.9 -15.0  34222  290.64 0855.21
2009/04/23 10:45:19.1     -74   -144    -82    162    181 207.2 -33.1  34218  290.55 0855.21
2009/04/23 10:45:19.2     -37   -140    -69    145    160 195.1 -31.6  34218  290.55 0855.21
2009/04/23 10:45:19.3      18   -118    -41    120    128 171.1 -19.1  34218  290.57 0855.21
2009/04/23 10:45:19.4      45   -123     -5    132    133 160.0  -2.2  34222  290.64 0855.21
2009/04/23 10:45:19.5     -30   -113    -24    118    121 195.2 -11.9  34226  290.69 0855.21
2009/04/23 10:45:19.6     -26   -131    -37    134    140 191.6 -15.4  34230  290.75 0855.21
2009/04/23 10:45:19.7       0   -138    -49    139    148 180.0 -19.7  34222  290.64 0855.21
2009/04/23 10:45:19.8     -31   -153    -49    157    164 191.6 -22.8  34222  290.64 0855.21
2009/04/23 10:45:19.9     -41   -137    -15    144    145 196.9  -6.2  34218  290.55 0855.21
2009/04/23 10:45:20.0     -28   -107    -34    111    117 194.7 -17.0  34200  290.26 0855.21
2009/04/23 10:45:20.1     -38   -123      4    129    130 197.4   1.8  34194  290.14 0855.21
2009/04/23 10:45:20.2     -22   -167     19    169    171 187.8   6.7  34218  290.57 0855.21
2009/04/23 10:45:20.3     -28   -141     12    144    145 191.6   4.9  34226  290.69 0855.21
2009/04/23 10:45:20.4     -17   -122     -2    124    125 188.0  -1.3  34214  290.50 0855.21
2009/04/23 10:45:20.5     -41   -119      1    127    128 199.2   0.8  34216  290.52 0855.21
2009/04/23 10:45:20.6     -19    -94      4     96     97 191.6   2.9  34204  290.31 0855.21
2009/04/23 10:45:20.7     -33    -98      9    104    105 198.7   5.4  34208  290.38 0855.21
2009/04/23 10:45:20.8     -80    -81     35    115    121 224.7  17.3  34220  290.58 0855.21
2009/04/23 10:45:20.9    -100    -92     21    137    139 227.3   9.0  34228  290.72 0855.22
2009/04/23 10:45:21.0    -149    -71     -6    166    167 244.6  -2.2  34228  290.72 0855.22
2009/04/23 10:45:21.1     -69    -96    -10    119    120 216.0  -5.2  34220  290.60 0855.22
2009/04/23 10:45:21.2     -33   -185    -24    189    191 190.2  -7.5  34192  290.13 0855.22
2009/04/23 10:45:21.3     -52   -180    -10    188    189 196.3  -3.1  34210  290.43 0855.22
2009/04/23 10:45:21.4     -33   -186     -7    190    191 190.2  -2.2  34200  290.26 0855.22
2009/04/23 10:45:21.5     -74   -206     77    219    232 199.8  20.0  34192  290.11 0855.22
2009/04/23 10:45:21.6     -98   -222     25    243    245 203.8   6.1  34204  290.31 0855.22
2009/04/23 10:45:21.7    -108   -193     47    222    228 209.2  12.1  34202  290.28 0855.22
2009/04/23 10:45:21.8    -127   -170     62    213    222 216.7  16.3  34210  290.43 0855.22
2009/04/23 10:45:21.9     -97   -184     83    209    224 207.9  23.0  34204  290.33 0855.22
2009/04/23 10:45:22.0    -128   -166     83    210    225 217.8  23.0  34194  290.16 0855.22
2009/04/23 10:45:22.1     -79   -168     87    186    205 205.4  27.1  34182  289.96 0855.22
2009/04/23 10:45:22.2     -59   -169     98    180    204 199.4  31.3  34186  290.02 0855.22
2009/04/23 10:45:22.3     -56   -177     64    186    197 197.8  19.2  34184  289.97 0855.22
2009/04/23 10:45:22.4     -93   -147     94    175    198 212.5  30.6  34186  290.01 0855.22
2009/04/23 10:45:22.5     -94   -113    107    148    182 219.6  39.5  34176  289.85 0855.22
2009/04/23 10:45:22.6    -107   -128    107    168    199 219.9  35.5  34174  289.80 0855.22
2009/04/23 10:45:22.7    -164   -120    114    204    233 233.8  31.6  34174  289.82 0855.22
2009/04/23 10:45:22.8    -178   -132     81    222    236 233.4  20.9  34174  289.82 0855.22
2009/04/23 10:45:22.9    -207   -141     54    251    257 235.8  12.2  34188  290.05 0855.23
2009/04/23 10:45:23.0    -251   -186    -41    313    316 233.4  -7.6  34232  290.78 0855.23
2009/04/23 10:45:23.1    -236   -194    -73    306    315 230.5 -13.4  34260  291.26 0855.23
2009/04/23 10:45:23.2    -203   -216     -8    297    298 223.2  -1.6  34222  290.61 0855.23
2009/04/23 10:45:23.3    -201   -214      4    294    295 223.2   0.8  34208  290.39 0855.23
2009/04/23 10:45:23.4    -148   -246    -27    288    290 211.0  -5.4  34200  290.26 0855.23
2009/04/23 10:45:23.5    -174   -180    -55    251    258 224.1 -12.4  34206  290.34 0855.23
2009/04/23 10:45:23.6    -132   -207      0    246    247 212.6   0.0  34204  290.32 0855.23
2009/04/23 10:45:23.7    -132   -194    -30    235    237 214.3  -7.3  34210  290.41 0855.23
2009/04/23 10:45:23.8    -197   -188    -10    273    274 226.4  -2.2  34206  290.36 0855.23
2009/04/23 10:45:23.9    -149   -180     30    234    236 219.7   7.5  34200  290.26 0855.23
2009/04/23 10:45:24.0    -133   -160     33    209    212 219.6   9.0  34224  290.65 0855.23
2009/04/23 10:45:24.1    -197   -127    -25    235    237 237.1  -6.2  34206  290.34 0855.23
2009/04/23 10:45:24.2    -225   -163    -85    279    292 234.0 -17.0  34182  289.95 0855.23
2009/04/23 10:45:24.3    -180   -247    -12    307    308 216.1  -2.2  34196  290.17 0855.23
2009/04/23 10:45:24.4    -282   -234    -20    367    368 230.4  -3.1  34198  290.21 0855.23
2009/04/23 10:45:24.5    -221   -225     28    316    318 224.5   5.1  34182  289.93 0855.23
2009/04/23 10:45:24.6    -164   -203     26    262    264 219.0   5.7  34176  289.83 0855.23
2009/04/23 10:45:24.7    -103   -187     29    214    216 208.9   7.8  34182  289.96 0855.23
2009/04/23 10:45:24.8    -170   -123    -74    211    224 234.0 -19.4  34174  289.82 0855.23
2009/04/23 10:45:24.9    -141   -143    -33    201    204 224.5  -9.4  34188  290.04 0855.23
2009/04/23 10:45:25.0    -294   -157    -79    334    344 241.8 -13.4  34180  289.91 0855.23
2009/04/23 10:45:25.1    -344   -244     12    423    424 234.6   1.7  34178  289.88 0855.23
2009/04/23 10:45:25.2    -174   -177    133    249    282 224.5  30.3  34172  289.78 0855.23
2009/04/23 10:45:25.3    -174   -109    104    206    230 237.8  28.7  34160  289.57 0855.23
2009/04/23 10:45:25.4    -150   -146     74    210    222 225.8  20.0  34178  289.87 0855.23
2009/04/23 10:45:25.5     -84    -84    102    120    157 225.0  45.1  34190  290.09 0855.23
2009/04/23 10:45:25.6     -39   -115    123    122    173 198.7  49.9  34192  290.13 0855.23
2009/04/23 10:45:25.7      37   -194    141    198    243 169.1  38.8  34164  289.65 0855.23
2009/04/23 10:45:25.8       7   -272    105    273    292 178.4  22.1  34164  289.64 0855.23
2009/04/23 10:45:25.9       4   -248    120    249    276 179.0  27.3  34166  289.66 0855.23
2009/04/23 10:45:26.0       9   -206     89    207    225 177.4  25.1  34172  289.77 0855.23
2009/04/23 10:45:26.1      32   -193     53    196    204 170.4  15.2  34166  289.69 0855.23
2009/04/23 10:45:26.2      32   -158     42    162    168 168.5  14.5  34170  289.74 0855.23
2009/04/23 10:45:26.3      14   -132     56    133    144 173.8  23.6  34168  289.72 0855.23
2009/04/23 10:45:26.4       8   -150     69    151    166 176.9  26.4  34168  289.70 0855.23
2009/04/23 10:45:26.5       7   -138     54    139    149 176.9  22.5  34162  289.62 0855.23
2009/04/23 10:45:26.6     -50   -183     54    190    198 195.4  16.0  34162  289.62 0855.23
2009/04/23 10:45:26.7      13   -122     42    123    131 173.7  18.9  34162  289.62 0855.23
2009/04/23 10:45:26.8      17   -177    106    178    207 174.4  33.5  34158  289.53 0855.23
2009/04/23 10:45:26.9     -76   -206    168    220    276 200.5  41.4  34164  289.63 0855.23
2009/04/23 10:45:27.0     -88   -256    153    271    311 199.1  32.1  34168  289.70 0855.23
2009/04/23 10:45:27.1     -73   -222    147    234    276 198.3  35.2  34164  289.63 0855.23
2009/04/23 10:45:27.2     -53   -221    164    228    280 193.6  39.3  34168  289.71 0855.23
2009/04/23 10:45:27.3     -77   -198    156    213    264 201.4  39.7  34172  289.76 0855.23
2009/04/23 10:45:27.4     -97   -207    187    229    295 205.3  43.7  34172  289.78 0855.23
2009/04/23 10:45:27.5     -92   -210    157    230    278 203.6  37.6  34170  289.75 0855.23
2009/04/23 10:45:27.6     -62   -133    152    147    211 204.9  50.9  34168  289.70 0855.23
2009/04/23 10:45:27.7     -69   -100    110    122    164 214.7  46.9  34168  289.70 0855.23
2009/04/23 10:45:27.8     -54    -60    142     81    163 221.9  67.7  34172  289.77 0855.23
2009/04/23 10:45:27.9      -4   -139     62    140    153 181.8  25.2  34164  289.63 0855.23
2009/04/23 10:45:28.0     -78   -175     81    192    208 204.1  24.1  34162  289.62 0855.23
2009/04/23 10:45:28.1    -108   -170     71    202    215 212.6  19.4  34174  289.80 0855.23
2009/04/23 10:45:28.2     -69   -196     87    208    225 199.4  24.1  34162  289.62 0855.23
2009/04/23 10:45:28.3     -84   -109    116    138    180 217.8  44.3  34166  289.67 0855.23
2009/04/23 10:45:28.4     -47   -101    117    112    161 205.3  51.2  34166  289.67 0855.23
2009/04/23 10:45:28.5    -100   -164    162    193    251 211.4  44.3  34162  289.59 0855.23
2009/04/23 10:45:28.6     -83   -150     47    172    179 209.0  15.3  34156  289.52 0855.23
2009/04/23 10:45:28.8    -122   -129     94    178    201 223.4  30.1  34164  289.63 0855.23
2009/04/23 10:45:28.8    -110   -165    111    199    227 213.6  31.4  34158  289.55 0855.23
2009/04/23 10:45:29.0    -120   -148    115    191    222 219.0  34.0  34168  289.70 0855.23
2009/04/23 10:45:29.1    -113   -139     97    180    204 219.2  30.8  34178  289.89 0855.23
2009/04/23 10:45:29.2     -64   -107     37    125    131 210.8  16.8  34174  289.82 0855.23
2009/04/23 10:45:29.3    -100    -72     17    124    126 234.0   8.0  34182  289.96 0855.23
2009/04/23 10:45:29.4    -216   -168    -19    274    275 232.2  -4.1  34198  290.22 0855.23
2009/04/23 10:45:29.5    -195    -88    -43    215    220 245.6 -11.3  34218  290.57 0855.23
2009/04/23 10:45:29.6    -222   -117     14    252    253 242.2   3.3  34242  290.97 0855.23
2009/04/23 10:45:29.7    -226   -158    -19    276    277 235.0  -4.1  34226  290.70 0855.23
2009/04/23 10:45:29.8    -192   -106    -12    220    221 241.1  -3.1  34230  290.75 0855.23
2009/04/23 10:45:29.9    -171   -145     -2    225    226 229.6  -0.7  34208  290.38 0855.23
2009/04/23 10:45:30.0    -194   -152     16    247    248 231.8   3.8  34216  290.53 0855.23
2009/04/23 10:45:30.1    -152   -163     16    223    224 223.0   4.2  34202  290.30 0855.23
2009/04/23 10:45:30.2    -178   -103    -13    206    207 240.0  -3.7  34202  290.28 0855.23
2009/04/23 10:45:30.3    -204   -104     11    230    231 242.9   2.8  34204  290.33 0855.23
2009/04/23 10:45:30.4    -199   -193     20    278    279 225.8   4.2  34174  289.80 0855.23
2009/04/23 10:45:30.5    -203   -167     26    264    266 230.5   5.7  34206  290.36 0855.23
2009/04/23 10:45:30.6    -216   -156     51    267    272 234.0  10.8  34240  290.92 0855.23
2009/04/23 10:45:30.7    -252   -197     58    320    326 232.0  10.4  34230  290.75 0855.23
2009/04/23 10:45:30.8    -200   -169     56    262    269 229.8  12.2  34216  290.53 0855.23
2009/04/23 10:45:30.9    -203   -148     77    252    264 233.8  17.1  34228  290.73 0855.23
2009/04/23 10:45:31.0    -189   -145     56    239    246 232.5  13.2  34224  290.66 0855.24
2009/04/23 10:45:31.1    -204   -157     90    258    273 232.3  20.0  34212  290.44 0855.24
2009/04/23 10:45:31.2    -167   -161     66    233    243 226.0  15.8  34216  290.51 0855.24
2009/04/23 10:45:31.3    -200   -117     10    232    233 239.6   2.5  34230  290.75 0855.24
2009/04/23 10:45:31.4    -202   -113      0    232    233 240.7   0.0  34230  290.77 0855.24
2009/04/23 10:45:31.5    -197   -121     38    232    236 238.5   9.5  34254  291.17 0855.24
2009/04/23 10:45:31.6    -193    -96     41    216    220 243.6  10.8  34260  291.26 0855.24
2009/04/23 10:45:31.7    -155    -53     56    165    175 250.9  18.9  34244  290.99 0855.24
2009/04/23 10:45:31.8    -153    -67     56    168    178 246.4  18.4  34242  290.96 0855.24
2009/04/23 10:45:31.9    -122    -68     60    140    152 240.7  24.6  34208  290.40 0855.24
2009/04/23 10:45:32.0    -106   -123     68    163    176 220.8  23.8  34196  290.19 0855.24
2009/04/23 10:45:32.1     -60   -226     95    234    252 195.1  23.1  34172  289.78 0855.24
2009/04/23 10:45:32.2     -52   -216    133    223    259 193.6  33.5  34174  289.81 0855.24
2009/04/23 10:45:32.3     -88   -182     66    203    214 205.9  18.1  34156  289.52 0855.24
2009/04/23 10:45:32.4     -82   -148     97    170    195 209.0  32.4  34160  289.58 0855.24
2009/04/23 10:45:32.5     -57   -121     73    135    153 205.4  31.3  34166  289.69 0855.24
2009/04/23 10:45:32.6     -20    -72     95     75    121 196.0  57.9  34172  289.79 0855.24
2009/04/23 10:45:32.7      18   -100    107    102    147 169.3  51.6  34178  289.89 0855.24
2009/04/23 10:45:32.8      11   -148    112    149    186 175.6  40.9  34168  289.72 0855.24
2009/04/23 10:45:32.9       3   -201    178    202    269 179.0  45.8  34164  289.63 0855.24
2009/04/23 10:45:33.0     -25   -201     91    203    222 187.1  25.7  34160  289.57 0855.23
2009/04/23 10:45:33.1      24   -170     20    172    174 171.8   6.7  34156  289.52 0855.23
2009/04/23 10:45:33.2     -25   -165     95    167    192 188.7  32.4  34160  289.57 0855.23
2009/04/23 10:45:33.3     -35   -153     55    157    167 192.9  19.4  34154  289.46 0855.23
2009/04/23 10:45:33.4     -37   -148     36    153    158 194.3  13.2  34156  289.52 0855.23
2009/04/23 10:45:33.5     -24   -143      7    146    147 189.8   2.9  34154  289.48 0855.23
2009/04/23 10:45:33.6     -49   -137    -13    146    147 200.0  -5.1  34152  289.43 0855.23
2009/04/23 10:45:33.7     -33   -102    -36    108    115 198.3 -18.7  34150  289.40 0855.23
2009/04/23 10:45:33.8     -50   -106      9    118    119 205.3   4.4  34148  289.38 0855.23
2009/04/23 10:45:33.9     -91   -154    -24    179    181 210.7  -7.7  34150  289.41 0855.23
2009/04/23 10:45:34.0     -52   -181      2    189    190 196.0   0.8  34152  289.43 0855.23
2009/04/23 10:45:34.1     -66   -233    -26    243    245 195.8  -6.2  34146  289.34 0855.23
2009/04/23 10:45:34.2    -178   -188    -89    259    273 223.4 -24.0  34152  289.42 0855.23
2009/04/23 10:45:34.3    -162   -185    -81    247    261 221.2 -18.3  34154  289.46 0855.23
2009/04/23 10:45:34.4    -226    -72   -100    238    258 252.3 -28.5  34152  289.42 0855.23
2009/04/23 10:45:34.5    -169   -110    -11    202    203 236.9  -3.1  34156  289.52 0855.23
2009/04/23 10:45:34.6     -24   -180     35    182    186 187.8  11.0  34154  289.48 0855.23
2009/04/23 10:45:34.7     -56   -165    -14    175    176 198.9  -4.9  34154  289.46 0855.23
2009/04/23 10:45:34.8     -28   -150    -13    153    154 190.7  -5.1  34152  289.45 0855.23
2009/04/23 10:45:34.9      18   -174      5    175    176 174.0   1.8  34158  289.53 0855.23
2009/04/23 10:45:35.0     -74   -125    -50    146    155 210.7 -19.1  34148  289.38 0855.23
2009/04/23 10:45:35.1    -159   -182     -1    242    243 221.2  -0.3  34160  289.58 0855.23
2009/04/23 10:45:35.2    -124   -191    -34    228    231 213.0  -8.6  34160  289.57 0855.23
2009/04/23 10:45:35.3    -234   -232    -78    330    340 225.3 -13.3  34158  289.54 0855.23
2009/04/23 10:45:35.4    -279   -145   -119    315    336 242.5 -26.1  34140  289.23 0855.23
2009/04/23 10:45:35.5    -297   -145   -148    331    362 244.0 -30.2  34138  289.20 0855.23
2009/04/23 10:45:35.6    -316   -233   -124    393    413 233.6 -17.6  34154  289.46 0855.23
2009/04/23 10:45:35.7    -167   -228    104    283    301 216.3  20.9  34152  289.42 0855.23
2009/04/23 10:45:35.8    -128   -242     64    274    282 207.9  13.2  34148  289.37 0855.23
2009/04/23 10:45:35.9    -160   -245     48    294    299 213.2   9.3  34146  289.32 0855.23
2009/04/23 10:45:36.0     -74   -243    123    255    283 196.9  27.3  34140  289.24 0855.23
2009/04/23 10:45:36.1    -170   -159     39    234    238 226.9   9.5  34144  289.31 0855.23
2009/04/23 10:45:36.2    -172   -104     39    202    206 238.7  11.1  34144  289.31 0855.23
2009/04/23 10:45:36.3     -44    -41     57     61     83 226.9  48.5  34148  289.36 0855.23
2009/04/23 10:45:36.4      -2    -70     87     71    112 181.8  56.4  34146  289.35 0855.23
2009/04/23 10:45:36.5     -10   -129     88    130    156 184.5  37.8  34146  289.33 0855.23
2009/04/23 10:45:36.6      42   -156    123    162    203 164.9  40.9  34150  289.40 0855.23
2009/04/23 10:45:36.7       0   -166    134    167    214 180.0  43.0  34150  289.40 0855.23
2009/04/23 10:45:36.8      20   -147    137    149    202 172.0  47.7  34150  289.41 0855.23
2009/04/23 10:45:36.9       9   -121     94    122    154 175.6  41.7  34152  289.43 0855.23
2009/04/23 10:45:37.0     -20    -79    103     82    131 194.3  56.9  34152  289.45 0855.22
2009/04/23 10:45:37.1     -58    -70     82     91    122 219.6  46.9  34156  289.50 0855.22
2009/04/23 10:45:37.2    -102    -10     57    103    117 263.9  31.4  34162  289.60 0855.22
2009/04/23 10:45:37.3     -62    -21     74     66     99 251.4  53.3  34162  289.62 0855.22
2009/04/23 10:45:37.4    -132    -95     54    163    172 234.1  18.4  34154  289.48 0855.22
2009/04/23 10:45:37.5    -140    -67     -6    156    157 244.2  -2.3  34154  289.46 0855.22
2009/04/23 10:45:37.6    -180    -53     33    188    191 253.6  10.1  34162  289.60 0855.22
2009/04/23 10:45:37.7    -170     22      0    172    173 277.5  -0.3  34156  289.50 0855.22
2009/04/23 10:45:37.8    -169    -18    -49    171    177 263.6 -20.7  34158  289.55 0855.22
2009/04/23 10:45:37.9    -175    -58    -85    185    203 251.6 -30.8  34148  289.36 0855.22
2009/04/23 10:45:38.0    -248    -70   -114    258    282 254.1 -29.6  34152  289.44 0855.22
2009/04/23 10:45:38.1    -207     35   -145    210    255 279.7 -42.8  34156  289.49 0855.22
2009/04/23 10:45:38.2     -62    -67    -88     92    127 222.8 -53.4  34156  289.52 0855.22
2009/04/23 10:45:38.3    -160   -140    -72    213    224 228.9 -23.3  34150  289.40 0855.22
2009/04/23 10:45:38.4    -127   -147    -81    195    211 220.8 -28.2  34152  289.43 0855.22
2009/04/23 10:45:38.5     -55   -180   -151    189    241 196.9 -47.1  34152  289.43 0855.22
2009/04/23 10:45:38.6     -13   -176    -28    177    180 184.2  -9.0  34148  289.36 0855.22
2009/04/23 10:45:38.7     -47   -110     42    120    128 203.2  19.4  34156  289.50 0855.22
2009/04/23 10:45:38.8     -59   -120    -40    134    140 206.3 -16.6  34152  289.45 0855.22
2009/04/23 10:45:38.9     -56    -97    -91    113    145 209.9 -48.1  34154  289.46 0855.22
2009/04/23 10:45:39.0     -14   -133    -47    134    143 186.2 -19.6  34156  289.50 0855.22
2009/04/23 10:45:39.1     -37   -192    -69    196    207 190.9 -24.4  34148  289.36 0855.22
2009/04/23 10:45:39.2       0   -181    -82    182    199 180.2 -30.3  34150  289.40 0855.22
2009/04/23 10:45:39.3      18   -157    -92    159    183 173.3 -37.1  34154  289.46 0855.22
2009/04/23 10:45:39.4     -10   -137   -104    138    172 184.4 -45.3  34156  289.52 0855.22
2009/04/23 10:45:39.5       8   -107    -87    108    138 175.6 -47.7  34154  289.48 0855.22
2009/04/23 10:45:39.6      37   -125    -73    131    149 163.5 -35.8  34154  289.48 0855.22
2009/04/23 10:45:39.7      22   -124    -98    127    160 169.8 -46.1  34154  289.48 0855.22
2009/04/23 10:45:39.8      20   -120    -74    122    142 170.2 -38.8  34150  289.41 0855.22
2009/04/23 10:45:39.9      35   -120    -53    126    136 163.5 -28.5  34150  289.40 0855.22
2009/04/23 10:45:40.0       0   -113    -32    114    118 179.5 -20.2  34150  289.40 0855.21
2009/04/23 10:45:40.1     -11   -147    -25    148    151 184.4  -9.8  34146  289.35 0855.21
2009/04/23 10:45:40.2     -32   -166    -15    170    171 191.1  -5.2  34148  289.38 0855.21
2009/04/23 10:45:40.3     -16   -149     11    150    151 186.3   4.4  34148  289.36 0855.21
2009/04/23 10:45:40.4      22   -123    -12    126    127 169.8  -5.6  34150  289.41 0855.21
2009/04/23 10:45:40.5       8   -109    -14    110    111 175.6  -7.3  34148  289.38 0855.21
2009/04/23 10:45:40.6      -9   -134     -7    135    136 184.0  -3.1  34152  289.43 0855.21
2009/04/23 10:45:40.7     -33   -101    -13    107    108 198.3  -7.2  34150  289.41 0855.21
2009/04/23 10:45:40.8     -33    -94     -2    100    101 199.6  -1.3  34154  289.48 0855.21
2009/04/23 10:45:40.9     -40    -87     -3     96     97 204.9  -2.2  34152  289.45 0855.21
2009/04/23 10:45:41.0     -30    -76     28     82     87 201.8  19.2  34154  289.48 0855.21
2009/04/23 10:45:41.1     -46    -79     26     92     96 210.7  15.8  34152  289.45 0855.21
2009/04/23 10:45:41.2     -52    -63     27     83     88 219.6  18.4  34154  289.48 0855.21
2009/04/23 10:45:41.3     -20    -62      2     66     67 198.3   1.8  34156  289.52 0855.21
2009/04/23 10:45:41.4     -95    -19    -31     97    101 258.5 -23.3  34166  289.67 0855.21
2009/04/23 10:45:41.5    -123      3    -39    124    131 271.7 -17.5  34176  289.84 0855.21
2009/04/23 10:45:41.6    -103    -13     -4    104    105 262.5  -2.2  34168  289.70 0855.21
2009/04/23 10:45:41.7    -112     22      5    115    116 281.4   2.8  34162  289.60 0855.21
2009/04/23 10:45:41.8     -99     26     18    103    105 285.1  10.1  34164  289.63 0855.21
2009/04/23 10:45:41.9     -54    -10     69     55     88 259.4  56.4  34170  289.74 0855.21
2009/04/23 10:45:42.0    -115     20     69    117    135 280.1  33.5  34162  289.62 0855.20
2009/04/23 10:45:42.1    -159     12     32    160    164 274.4  11.4  34166  289.67 0855.20
2009/04/23 10:45:42.2    -131     10    -36    132    138 274.4 -15.5  34162  289.62 0855.20
2009/04/23 10:45:42.3    -159     14    -29    160    163 275.2 -10.5  34164  289.63 0855.20
2009/04/23 10:45:42.4    -187     -7    -38    188    192 267.6 -11.6  34162  289.60 0855.20
2009/04/23 10:45:42.5    -177    -24    -58    179    189 262.0 -18.1  34166  289.69 0855.20
2009/04/23 10:45:42.6    -190    -35    -55    194    201 259.4 -20.4  34164  289.65 0855.20
2009/04/23 10:45:42.7    -165    -52    -18    174    175 252.5  -6.0  34166  289.69 0855.20
2009/04/23 10:45:42.8    -153    -79    -43    173    179 242.5 -13.9  34168  289.70 0855.20
2009/04/23 10:45:42.9     -91    -75    -22    118    121 230.5 -10.9  34176  289.85 0855.20
2009/04/23 10:45:43.0     -55    -81     24     99    102 214.3  13.7  34164  289.65 0855.20
2009/04/23 10:45:43.1     -25    -95     34     99    105 194.7  19.4  34164  289.65 0855.20
2009/04/23 10:45:43.2      -4    -96     63     97    115 182.7  35.6  34182  289.94 0855.20
2009/04/23 10:45:43.3       6    -97     80     98    126 176.4  43.7  34176  289.85 0855.20
2009/04/23 10:45:43.4       0   -127     54    128    138 180.4  24.1  34162  289.60 0855.20
2009/04/23 10:45:43.5     -17   -127     68    129    145 187.6  30.3  34164  289.63 0855.20
2009/04/23 10:45:43.6      -3   -113     91    114    145 181.8  42.7  34164  289.63 0855.20
2009/04/23 10:45:43.7      50   -127    115    137    178 158.2  44.3  34164  289.65 0855.20
2009/04/23 10:45:43.8     109   -181     60    212    221 149.0  15.8  34160  289.58 0855.20
2009/04/23 10:45:43.9      69   -205    -27    217    219 161.3  -7.3  34152  289.45 0855.20
2009/04/23 10:45:44.0      49   -183    -28    190    193 164.9  -8.6  34154  289.46 0855.19
2009/04/23 10:45:44.1      90    -84      6    124    125 133.1   2.8  34158  289.55 0855.19
2009/04/23 10:45:44.2     113   -166    -25    202    204 145.7  -7.3  34158  289.55 0855.19
2009/04/23 10:45:44.3      83   -183    -42    202    207 155.5 -11.9  34156  289.52 0855.19
2009/04/23 10:45:44.4      59   -174    -34    185    189 161.1 -10.5  34156  289.52 0855.19
2009/04/23 10:45:44.5      28   -187    -24    190    192 171.5  -7.3  34156  289.50 0855.19
2009/04/23 10:45:44.6      74   -140    -25    159    162 152.1  -9.0  34158  289.55 0855.19
2009/04/23 10:45:44.7      69   -108    -17    129    131 147.5  -7.7  34158  289.53 0855.19
2009/04/23 10:45:44.8      28   -113    -33    117    121 165.7 -20.7  34158  289.53 0855.19
2009/04/23 10:45:44.9     -18    -94     -7     96     97 191.1  -4.6  34156  289.50 0855.19
2009/04/23 10:45:45.0      16   -107     21    109    112 171.1  11.0  34158  289.55 0855.19
2009/04/23 10:45:45.1      25    -80     31     84     89 162.6  20.4  34162  289.62 0855.19
2009/04/23 10:45:45.2       7    -80     61     81    101 174.7  40.7  34162  289.60 0855.19
2009/04/23 10:45:45.3      23   -114     71    117    136 168.4  34.4  34158  289.53 0855.19
2009/04/23 10:45:45.4      24   -120     68    123    140 168.4  31.4  34162  289.62 0855.19
2009/04/23 10:45:45.5      24   -139     71    142    158 170.2  28.5  34160  289.57 0855.19
2009/04/23 10:45:45.6      18   -180     67    181    193 174.2  21.0  34160  289.57 0855.19
2009/04/23 10:45:45.7      23   -163     54    165    174 171.8  18.1  34160  289.57 0855.19
2009/04/23 10:45:45.8      39   -162     32    167    171 166.4  11.1  34158  289.53 0855.19
2009/04/23 10:45:45.9      -8   -205     51    206    213 182.2  13.9  34158  289.53 0855.19
2009/04/23 10:45:46.0      11   -186     28    187    190 176.6   8.5  34156  289.52 0855.18
2009/04/23 10:45:46.1      14   -200     31    201    204 176.0   9.0  34158  289.55 0855.18
2009/04/23 10:45:46.2       7   -238     69    239    249 178.2  16.3  34158  289.54 0855.18
2009/04/23 10:45:46.3      19   -249     39    250    254 175.5   9.0  34158  289.53 0855.18
2009/04/23 10:45:46.4      38   -266     18    269    270 171.8   3.9  34160  289.56 0855.18
2009/04/23 10:45:46.5      48   -256     51    261    267 169.3  11.1  34158  289.53 0855.18
2009/04/23 10:45:46.6       8   -259     58    260    267 178.2  12.6  34162  289.59 0855.18
2009/04/23 10:45:46.7      39   -267     65    270    278 171.5  13.7  34164  289.63 0855.18
2009/04/23 10:45:46.8      50   -304     63    309    316 170.7  11.6  34166  289.66 0855.18
2009/04/23 10:45:46.9      54   -309    110    314    333 170.0  19.4  34164  289.63 0855.18
2009/04/23 10:45:47.0      37   -300    126    303    328 172.8  23.8  34168  289.71 0855.18
2009/04/23 10:45:47.1      42   -295    110    299    318 171.8  21.1  34174  289.81 0855.18
2009/04/23 10:45:47.2      41   -292     73    296    305 171.9  13.9  34174  289.81 0855.18
2009/04/23 10:45:47.3      58   -256    -60    263    270 167.1 -12.9  34174  289.80 0855.18
2009/04/23 10:45:47.4      28   -275    -50    277    282 174.0 -10.3  34172  289.78 0855.18
2009/04/23 10:45:47.5      45   -291    -81    295    307 171.1 -15.4  34174  289.80 0855.18
2009/04/23 10:45:47.6      51   -301    -48    306    310 170.4  -9.0  34176  289.83 0855.18
2009/04/23 10:45:47.7      51   -299    -41    304    307 170.2  -7.7  34172  289.78 0855.18
2009/04/23 10:45:47.8      60   -296    -32    303    305 168.4  -6.1  34168  289.71 0855.18
2009/04/23 10:45:47.9      92   -308    -12    322    323 163.3  -2.2  34166  289.68 0855.18
2009/04/23 10:45:48.0      55   -291     25    297    299 169.3   4.9  34168  289.71 0855.17
2009/04/23 10:45:48.1      56   -299     26    305    307 169.3   4.9  34166  289.66 0855.17
2009/04/23 10:45:48.2      26   -274     36    276    279 174.4   7.5  34166  289.68 0855.17
2009/04/23 10:45:48.3      24   -255     50    257    262 174.6  11.1  34164  289.64 0855.17
2009/04/23 10:45:48.4      47   -224     69    230    241 168.0  16.8  34166  289.68 0855.17
2009/04/23 10:45:48.5      54   -224     34    231    234 166.4   8.5  34166  289.68 0855.17
2009/04/23 10:45:48.6      48   -239     20    244    245 168.5   4.9  34166  289.68 0855.17
2009/04/23 10:45:48.7      49   -285      3    290    291 170.2   0.7  34166  289.68 0855.17
2009/04/23 10:45:48.8      49   -288     14    293    294 170.3   2.9  34168  289.71 0855.17
2009/04/23 10:45:48.9      53   -294     -6    299    300 169.8  -1.3  34168  289.70 0855.17
2009/04/23 10:45:49.0      77   -304     -6    314    315 165.7  -1.2  34172  289.78 0855.17
2009/04/23 10:45:49.1       0   -296      5    297    298 180.0   1.0  34172  289.76 0855.17
2009/04/23 10:45:49.2     -15   -346     -2    347    348 182.5  -0.5  34172  289.77 0855.17
2009/04/23 10:45:49.3      26   -371     21    372    373 176.0   3.2  34170  289.74 0855.17
2009/04/23 10:45:49.4      21   -372     16    373    374 176.8   2.5  34172  289.76 0855.17
2009/04/23 10:45:49.5       1   -371     11    372    373 179.8   1.8  34180  289.91 0855.17
2009/04/23 10:45:49.6     -31   -398     19    400    401 184.5   2.8  34196  290.18 0855.17
2009/04/23 10:45:49.7     -13   -390     -1    391    392 182.0  -0.3  34184  289.98 0855.17
2009/04/23 10:45:49.8       3   -377      3    378    379 179.4   0.5  34182  289.94 0855.17
2009/04/23 10:45:49.9     -10   -384    -12    385    386 181.6  -1.8  34182  289.96 0855.17
2009/04/23 10:45:50.0      26   -371     18    372    373 175.9   2.9  34186  290.01 0855.16
2009/04/23 10:45:50.1      23   -349     35    350    352 176.2   5.8  34174  289.82 0855.16
2009/04/23 10:45:50.2      25   -356     36    357    359 175.9   5.9  34174  289.82 0855.16
2009/04/23 10:45:50.3      -4   -303      8    304    305 180.9   1.6  34172  289.76 0855.16
2009/04/23 10:45:50.4     -83   -308     -6    320    321 195.2  -1.2  34178  289.86 0855.16
2009/04/23 10:45:50.5     -64   -304    -48    311    315 192.0  -8.8  34136  289.15 0855.16
2009/04/23 10:45:50.6    -126   -315    -74    340    349 201.8 -12.3  34096  288.50 0855.16
2009/04/23 10:45:50.7     -83   -342    -31    352    354 193.7  -5.1  34112  288.77 0855.16
2009/04/23 10:45:50.8     -23   -377      0    378    379 183.6   0.1  34116  288.82 0855.16
2009/04/23 10:45:50.9     -41   -364      7    367    368 186.5   1.1  34130  289.08 0855.16
2009/04/23 10:45:51.0     -25   -374     -7    375    376 183.9  -1.2  34138  289.20 0855.16
2009/04/23 10:45:51.1     -26   -341      2    343    344 184.5   0.4  34142  289.26 0855.16
2009/04/23 10:45:51.2      28   -331    -42    333    336 175.1  -7.3  34154  289.48 0855.16
2009/04/23 10:45:51.3      58   -300    -19    306    307 168.9  -3.7  34152  289.44 0855.16
2009/04/23 10:45:51.4      75   -356    -20    365    366 168.0  -3.2  34138  289.21 0855.16
2009/04/23 10:45:51.5      75   -367    -47    375    378 168.4  -7.2  34102  288.59 0855.16
2009/04/23 10:45:51.6      64   -371    -80    377    386 170.2 -12.0  34102  288.60 0855.16
2009/04/23 10:45:51.7      45   -414     -1    417    418 173.8  -0.3  34112  288.75 0855.16
2009/04/23 10:45:51.8      51   -358     49    362    366 171.9   7.8  34136  289.16 0855.16
2009/04/23 10:45:51.9      39   -349    -13    352    353 173.5  -2.2  34104  288.64 0855.16
2009/04/23 10:45:52.0     -17   -355    -57    356    361 182.8  -9.1  34110  288.71 0855.17
2009/04/23 10:45:52.1     -29   -350    -32    352    354 184.9  -5.2  34136  289.15 0855.17
2009/04/23 10:45:52.2      11   -327    -37    328    331 178.0  -6.6  34116  288.82 0855.17
2009/04/23 10:45:52.3     -32   -301      9    303    304 186.2   1.8  34126  289.00 0855.17
2009/04/23 10:45:52.4     -14   -328      9    329    330 182.6   1.7  34136  289.18 0855.17
2009/04/23 10:45:52.5      34   -412    -16    414    415 175.2  -2.3  34118  288.85 0855.17
2009/04/23 10:45:52.6     -41   -385    -41    388    391 186.2  -6.1  34116  288.84 0855.17
2009/04/23 10:45:52.7    -109   -378     -8    394    395 196.1  -1.3  34110  288.74 0855.17
2009/04/23 10:45:52.9    -180   -503    -83    535    542 199.7  -8.8  34118  288.85 0855.17
2009/04/23 10:45:52.9     -98   -494    -58    504    508 191.2  -6.6  34116  288.83 0855.17
2009/04/23 10:45:53.0      -1   -496    -75    497    503 180.2  -8.6  34110  288.71 0855.17
2009/04/23 10:45:53.1      30   -449    -75    450    457 176.1  -9.5  34116  288.82 0855.17
2009/04/23 10:45:53.2     123   -504   -150    519    540 166.2 -20.9  34120  288.91 0855.17
2009/04/23 10:45:53.3     149   -339    221    371    431 156.2  33.5  34120  288.89 0855.17
2009/04/23 10:45:53.4      17   -345    147    346    375 177.1  24.3  34140  289.23 0855.17
2009/04/23 10:45:53.5      19   -407    -19    408    409 177.3  -2.7  34134  289.14 0855.17
2009/04/23 10:45:53.6      -5   -356   -136    357    382 180.9 -26.4  34130  289.08 0855.17
2009/04/23 10:45:53.7      43   -396   -102    399    412 173.7 -14.4  34114  288.80 0855.17
2009/04/23 10:45:53.8     -71   -263     85    273    286 195.2  17.3  34128  289.03 0855.17
2009/04/23 10:45:53.9     -40   -336     65    339    346 186.9  11.0  34132  289.10 0855.17
2009/04/23 10:45:54.0     -13   -267     52    268    274 182.9  11.0  34128  289.02 0855.18
2009/04/23 10:45:54.1      59   -233     80    241    255 165.7  18.4  34124  288.97 0855.18
2009/04/23 10:45:54.2     129   -273    -11    302    303 154.7  -2.2  34122  288.93 0855.18
2009/04/23 10:45:54.3     121   -318     10    341    342 159.2   1.7  34126  288.99 0855.18
2009/04/23 10:45:54.4      88   -345    -40    357    360 165.7  -6.5  34130  289.08 0855.18
2009/04/23 10:45:54.5      77   -352      5    361    362 167.6   0.9  34134  289.13 0855.18
2009/04/23 10:45:54.6      27   -320    111    322    341 175.1  19.1  34130  289.08 0855.18
2009/04/23 10:45:54.7      73   -360     43    368    371 168.5   6.7  34136  289.15 0855.18
2009/04/23 10:45:54.8      80   -341    -13    351    352 166.8  -2.2  34152  289.43 0855.18
2009/04/23 10:45:54.9     101   -467    -15    479    480 167.7  -1.9  34150  289.39 0855.18
2009/04/23 10:45:55.0      81   -520     -2    527    528 171.1  -0.3  34146  289.33 0855.18
2009/04/23 10:45:55.2     132   -564    -31    580    581 166.8  -3.1  34136  289.15 0855.18
2009/04/23 10:45:55.3      20   -532     55    533    536 177.8   5.9  34138  289.19 0855.18
2009/04/23 10:45:55.3     133   -367     91    391    402 160.0  13.2  34136  289.18 0855.18
2009/04/23 10:45:55.4      51   -400    111    404    420 172.7  15.4  34148  289.36 0855.18
2009/04/23 10:45:55.5     137   -620    132    636    650 167.5  11.8  34142  289.26 0855.18
2009/04/23 10:45:55.6     107   -625    181    635    661 170.2  15.9  34136  289.15 0855.18
2009/04/23 10:45:55.7     241   -434    201    497    536 151.0  23.1  34138  289.19 0855.18
2009/04/23 10:45:55.8     145   -401    204    427    473 160.1  27.3  34138  289.19 0855.18
2009/04/23 10:45:55.9     116   -367    205    385    436 162.4  30.3  34150  289.39 0855.18
2009/04/23 10:45:56.0      66   -289    158    297    336 167.1  30.3  34152  289.44 0855.19
2009/04/23 10:45:56.1      87   -248     57    263    270 160.6  12.4  34156  289.49 0855.19
2009/04/23 10:45:56.2     200   -250     86    321    333 141.3  15.1  34150  289.39 0855.19
2009/04/23 10:45:56.4     258   -211     99    334    349 129.3  16.5  34152  289.43 0855.19
2009/04/23 10:45:56.5     159    -71     95    175    199 114.2  31.0  34156  289.50 0855.19
2009/04/23 10:45:56.6      85    -56    110    102    150 123.3  52.2  34160  289.57 0855.19
2009/04/23 10:45:56.7     204      0    182    205    274  90.0  45.9  34156  289.51 0855.19
2009/04/23 10:45:56.8     122    -83    139    148    203 124.2  48.2  34154  289.46 0855.19
2009/04/23 10:45:56.9     200    -25    159    202    257  97.2  42.2  34152  289.44 0855.19
2009/04/23 10:45:57.0     152     -8     55    153    162  93.0  20.4  34150  289.41 0855.19
2009/04/23 10:45:57.1     107    -68    131    127    182 122.5  50.9  34150  289.41 0855.19
2009/04/23 10:45:57.2     108   -124    132    165    211 139.0  43.0  34154  289.46 0855.19
2009/04/23 10:45:57.3     148   -139    116    204    234 133.1  32.1  34142  289.28 0855.19
2009/04/23 10:45:57.4     129   -156    123    203    237 140.4  34.2  34142  289.26 0855.19
2009/04/23 10:45:57.5      94   -272    112    289    309 160.8  22.1  34150  289.41 0855.19
2009/04/23 10:45:57.6      56   -245    123    252    280 167.1  28.0  34148  289.37 0855.19
2009/04/23 10:45:57.7      33   -187    166    191    253 169.8  45.6  34156  289.51 0855.19
2009/04/23 10:45:57.8      55   -206    158    214    266 165.1  39.9  34156  289.49 0855.19
2009/04/23 10:45:57.9     102    -81    152    131    200 128.2  54.8  34154  289.48 0855.19
2009/04/23 10:45:58.0     163   -154    180    225    288 133.3  42.8  34160  289.56 0855.19
2009/04/23 10:45:58.1      97   -143    162    174    237 145.7  47.9  34152  289.45 0855.19
2009/04/23 10:45:58.2      72   -132    136    151    203 151.5  46.9  34156  289.52 0855.19
2009/04/23 10:45:58.3       8   -268     63    269    277 178.2  13.2  34154  289.46 0855.19
2009/04/23 10:45:58.4     -37   -260    -33    263    266 188.2  -7.3  34152  289.42 0855.19
2009/04/23 10:45:58.5     -67   -202    -15    214    215 198.5  -4.1  34146  289.33 0855.19
2009/04/23 10:45:58.6     -76   -158     -3    176    177 205.9  -1.3  34146  289.33 0855.19
2009/04/23 10:45:58.7     -72   -141     91    159    183 207.1  32.4  34154  289.48 0855.19
2009/04/23 10:45:58.8     -45    -88     67     99    119 207.2  37.6  34160  289.58 0855.19
2009/04/23 10:45:58.9     -42    -68     98     81    127 211.6  56.3  34160  289.58 0855.19
2009/04/23 10:45:59.0      28     10     95     30     99  70.0  81.8  34176  289.84 0855.19
2009/04/23 10:45:59.1     -40    -12    103     42    111 253.2  77.0  34170  289.75 0855.19
2009/04/23 10:45:59.2      46    -98    137    109    175 154.5  57.5  34160  289.57 0855.19
2009/04/23 10:45:59.3      18    -96    144     98    174 168.9  62.8  34162  289.62 0855.19
2009/04/23 10:45:59.4     101   -130    131    165    210 142.2  42.7  34162  289.62 0855.19
2009/04/23 10:45:59.5     108   -176    117    207    237 148.4  32.1  34150  289.40 0855.19
2009/04/23 10:45:59.6      86   -167    110    189    218 152.6  32.9  34152  289.43 0855.19
2009/04/23 10:45:59.7      99   -156     63    185    196 147.5  18.9  34150  289.41 0855.19
2009/04/23 10:45:59.8     104   -152     48    185    192 145.5  14.7  34150  289.41 0855.19
2009/04/23 10:45:59.9     129   -134     65    187    199 136.1  19.2  34152  289.43 0855.19
2009/04/23 10:46:00.0     137   -155     47    208    214 138.5  12.9  34150  289.40 0855.19
2009/04/23 10:46:00.1     107   -185     79    215    229 149.9  21.0  34144  289.31 0855.20
2009/04/23 10:46:00.2     102   -192     77    218    232 152.1  19.6  34144  289.31 0855.20
2009/04/23 10:46:00.3     142   -209    102    253    272 145.8  23.0  34150  289.39 0855.20
2009/04/23 10:46:00.4     134   -229    132    266    296 149.7  28.2  34156  289.51 0855.20
2009/04/23 10:46:00.5     134   -228    158    265    308 149.5  33.5  34162  289.61 0855.20
2009/04/23 10:46:00.6     159   -221    155    273    313 144.2  32.1  34162  289.59 0855.20
2009/04/23 10:46:00.7     114   -207    137    237    273 151.1  32.7  34162  289.61 0855.20
2009/04/23 10:46:00.8      78   -249    108    262    283 162.6  23.8  34158  289.54 0855.20
2009/04/23 10:46:00.9     114   -290     66    312    320 158.4  12.0  34144  289.31 0855.20
2009/04/23 10:46:01.0      98   -255    136    274    305 158.8  28.2  34150  289.39 0855.20
2009/04/23 10:46:01.1      68   -273    154    282    321 166.0  31.0  34154  289.47 0855.20
2009/04/23 10:46:01.2      68   -329    156    337    371 168.3  26.6  34158  289.55 0855.20
2009/04/23 10:46:01.3     115   -318    120    339    360 160.1  19.6  34156  289.50 0855.20
2009/04/23 10:46:01.4     151   -330    153    363    393 155.4  24.2  34154  289.48 0855.20
2009/04/23 10:46:01.5     107   -342    149    359    388 162.6  23.8  34156  289.52 0855.20
2009/04/23 10:46:01.6     171   -297    169    343    382 150.1  28.1  34154  289.47 0855.20
2009/04/23 10:46:01.7     180   -300    162    351    386 149.0  26.6  34152  289.45 0855.20
2009/04/23 10:46:01.8     138   -305    207    335    393 155.6  34.6  34146  289.32 0855.20
2009/04/23 10:46:01.9     114   -332    193    352    401 161.1  31.0  34142  289.26 0855.20
2009/04/23 10:46:02.0     176   -276    177    328    372 147.5  30.7  34144  289.30 0855.20
2009/04/23 10:46:02.1     201   -286     88    350    361 144.9  14.2  34148  289.37 0855.20
2009/04/23 10:46:02.2     162   -316     -1    356    357 152.8  -0.2  34152  289.42 0855.20
2009/04/23 10:46:02.3     126   -266    -11    295    296 154.5  -2.2  34146  289.34 0855.20
2009/04/23 10:46:02.4      -8   -247     48    248    253 182.0  11.0  34156  289.49 0855.20
2009/04/23 10:46:02.5      -1   -199     77    200    214 180.5  21.7  34156  289.50 0855.20
2009/04/23 10:46:02.6      96   -197     38    220    224 154.1   9.9  34154  289.46 0855.20
2009/04/23 10:46:02.7      84   -181     98    200    222 155.1  28.0  34146  289.35 0855.20
2009/04/23 10:46:02.8      60   -127    133    141    193 154.5  48.5  34156  289.52 0855.20
2009/04/23 10:46:02.9     -13      5     82     15     83 291.7  90.0  34166  289.69 0855.20
2009/04/23 10:46:03.0      25   -117     91    120    150 167.5  41.2  34156  289.50 0855.20
2009/04/23 10:46:03.1     167   -205    132    265    296 140.8  28.2  34156  289.51 0855.18
2009/04/23 10:46:03.2     207   -273    158    343    377 142.8  26.5  34152  289.45 0855.18
2009/04/23 10:46:03.3     163   -386    193    420    462 157.1  26.5  34146  289.34 0855.18
2009/04/23 10:46:03.4      71   -325    206    333    391 167.6  34.6  34154  289.48 0855.18
2009/04/23 10:46:03.5      87   -351     65    362    368 166.0  10.2  34152  289.45 0855.18
2009/04/23 10:46:03.6     129   -224     20    259    260 149.9   4.6  34158  289.53 0855.18
2009/04/23 10:46:03.7     136   -277    158    309    347 153.7  29.2  34152  289.45 0855.18
2009/04/23 10:46:03.8     165   -285    162    330    367 150.0  28.0  34156  289.50 0855.18
2009/04/23 10:46:03.9     -54   -231    217    238    322 193.1  47.1  34152  289.42 0855.18
2009/04/23 10:46:04.0     101   -155    233    186    298 147.0  57.5  34166  289.68 0855.18
2009/04/23 10:46:04.1      74    -52    123     91    153 125.1  60.5  34170  289.75 0855.18
2009/04/23 10:46:04.2     101      7    188    102    213  85.6  69.1  34170  289.75 0855.18
2009/04/23 10:46:04.3      56      1    115     57    128  88.3  71.9  34172  289.77 0855.18
2009/04/23 10:46:04.4     121      0     82    122    146  90.0  37.0  34160  289.58 0855.18
2009/04/23 10:46:04.5      62    -33    129     71    147 118.0  68.9  34174  289.80 0855.18
2009/04/23 10:46:04.6      77     20    133     80    155  75.0  65.7  34166  289.69 0855.18
2009/04/23 10:46:04.7      61     21    111     65    128  70.9  66.8  34164  289.63 0855.18
2009/04/23 10:46:04.8     -13    -28     75     32     81 205.3  76.1  34172  289.77 0855.18
2009/04/23 10:46:04.9      32      2    107     33    111  85.6  81.8  34182  289.94 0855.18
2009/04/23 10:46:05.0     -19    -89    148     92    174 192.5  64.9  34172  289.79 0855.18
2009/04/23 10:46:05.1     -89    -98    107    133    170 222.3  43.3  34158  289.53 0855.18
2009/04/23 10:46:05.2     -51   -107    107    119    160 205.4  46.6  34158  289.55 0855.18
2009/04/23 10:46:05.3    -102   -107     23    148    150 223.7   9.0  34158  289.55 0855.18
2009/04/23 10:46:05.4    -153     -2     42    154    160 269.2  15.3  34160  289.58 0855.18
2009/04/23 10:46:05.5    -182     42     90    187    207 283.0  27.3  34168  289.70 0855.18
2009/04/23 10:46:05.6    -169     40     56    174    183 283.5  17.9  34174  289.82 0855.18
2009/04/23 10:46:05.7    -163    101    136    192    235 301.8  38.8  34184  289.97 0855.18
2009/04/23 10:46:05.8    -112     84    122    140    185 306.9  45.6  34182  289.96 0855.18
2009/04/23 10:46:05.9    -112    132    101    174    201 319.7  32.9  34184  289.97 0855.18
2009/04/23 10:46:06.0       3     61     90     62    109   3.6  62.1  34198  290.21 0855.18
2009/04/23 10:46:06.1       2     23     85     24     88   6.2  83.9  34192  290.11 0855.18
2009/04/23 10:46:06.2      62      9     88     63    108  81.2  60.5  34184  289.99 0855.18
2009/04/23 10:46:06.3      46     36    115     59    129  51.4  70.8  34194  290.16 0855.18
2009/04/23 10:46:06.4      32     -3    100     33    105  96.1  80.7  34204  290.33 0855.18
2009/04/23 10:46:06.5      10      0    107     11    107  85.6  90.0  34206  290.36 0855.18
2009/04/23 10:46:06.6      12      4     84     13     85  71.4  90.0  34212  290.45 0855.18
2009/04/23 10:46:06.7      34      0     68     35     76  89.1  70.8  34208  290.40 0855.18
2009/04/23 10:46:06.8      75     59     52     96    109  51.4  31.3  34238  290.91 0855.18
2009/04/23 10:46:06.9      61     93     41    112    119  33.4  20.9  34230  290.77 0855.18
2009/04/23 10:46:07.0     -74    144     -8    162    163 332.8  -3.1  34232  290.81 0855.18
2009/04/23 10:46:07.1    -111    151    -18    188    189 323.5  -5.6  34206  290.35 0855.16
2009/04/23 10:46:07.2    -125     91    -23    155    157 306.0  -8.6  34204  290.33 0855.16
2009/04/23 10:46:07.3     -98     76    -34    125    130 307.7 -15.5  34206  290.36 0855.16
2009/04/23 10:46:07.4     -24     75    -52     79     94 341.7 -40.0  34208  290.40 0855.16
2009/04/23 10:46:07.5      62     62    -31     88     93  45.0 -23.8  34202  290.30 0855.16
2009/04/23 10:46:07.6      40     93    -21    102    105  23.6 -11.9  34206  290.35 0855.16
2009/04/23 10:46:07.7      27     67    -16     73     75  21.8 -12.4  34222  290.62 0855.16
2009/04/23 10:46:07.8      -3     63     52     64     82 357.3  43.7  34202  290.30 0855.16
2009/04/23 10:46:07.9     -15     80     81     82    115 349.3  51.1  34208  290.38 0855.16
2009/04/23 10:46:08.0      -3     49     86     50     99 355.5  67.2  34226  290.70 0855.16
2009/04/23 10:46:08.1     -18      7     76     20     78 291.7  84.9  34220  290.60 0855.16
2009/04/23 10:46:08.2     -33     71     83     79    114 334.7  51.2  34208  290.38 0855.16
2009/04/23 10:46:08.3      16    101     74    103    126   9.3  39.5  34210  290.41 0855.16
2009/04/23 10:46:08.4      61     96     65    115    132  32.5  31.9  34190  290.08 0855.16
2009/04/23 10:46:08.5      37     94     15    102    104  21.8   8.5  34200  290.25 0855.16
2009/04/23 10:46:08.6       0    123     -1    124    125   0.0  -0.7  34226  290.69 0855.16
2009/04/23 10:46:08.7       8    106      5    107    108   4.5   2.9  34226  290.69 0855.16
2009/04/23 10:46:08.8      32    150     24    154    156  12.0   9.0  34202  290.30 0855.16
2009/04/23 10:46:08.9      11    149     -5    150    151   4.4  -2.2  34206  290.36 0855.16
2009/04/23 10:46:09.0     -56    141     12    152    153 338.2   4.9  34190  290.09 0855.16
2009/04/23 10:46:09.1     -88    141    -15    167    168 328.1  -5.2  34188  290.04 0855.15
2009/04/23 10:46:09.2    -122     62    -46    138    145 297.0 -23.6  34190  290.08 0855.15
2009/04/23 10:46:09.3    -109     13    -37    110    116 277.0 -23.6  34180  289.91 0855.15
2009/04/23 10:46:09.4    -122     57    -71    135    152 295.2 -34.2  34190  290.09 0855.15
2009/04/23 10:46:09.5    -128     71    -78    147    166 298.9 -34.7  34192  290.13 0855.15
2009/04/23 10:46:09.6    -102     90    -52    137    146 311.3 -25.9  34194  290.14 0855.15
2009/04/23 10:46:09.7    -104     75    -67    129    145 306.0 -34.2  34194  290.16 0855.15
2009/04/23 10:46:09.8     -81     48    -81     95    124 300.7 -49.8  34188  290.06 0855.15
2009/04/23 10:46:09.9     -69      7    -43     70     82 276.1 -38.8  34192  290.11 0855.15
2009/04/23 10:46:10.0     -57     69     10     90     91 320.4   6.9  34196  290.19 0855.15
2009/04/23 10:46:10.1     -91     82    -13    123    124 312.2  -6.2  34196  290.19 0855.15
2009/04/23 10:46:10.2    -123     46    -68    132    148 290.8 -33.7  34180  289.91 0855.15
2009/04/23 10:46:10.3    -179      0    -61    180    191 270.0 -18.9  34178  289.89 0855.15
2009/04/23 10:46:10.4    -165      8    -59    166    177 272.8 -19.6  34176  289.84 0855.15
2009/04/23 10:46:10.5    -175    -24    -66    177    188 261.9 -25.7  34184  289.97 0855.15
2009/04/23 10:46:10.6    -271    -64    -66    279    287 256.7 -13.4  34178  289.86 0855.15
2009/04/23 10:46:10.7    -288     51   -101    293    309 280.1 -23.8  34172  289.76 0855.15
2009/04/23 10:46:10.8    -215     -8    -77    216    230 267.6 -19.6  34180  289.92 0855.15
2009/04/23 10:46:10.9    -248    -45   -122    253    280 259.6 -31.7  34192  290.12 0855.15
2009/04/23 10:46:11.0    -252    -43    -81    256    269 260.3 -17.6  34186  290.02 0855.15
2009/04/23 10:46:11.1    -211   -107   -161    237    286 243.0 -41.8  34192  290.10 0855.17
2009/04/23 10:46:11.2    -137   -124   -173    185    253 227.8 -52.4  34168  289.70 0855.17
2009/04/23 10:46:11.3    -159    -50   -125    167    208 252.3 -45.1  34180  289.91 0855.17
2009/04/23 10:46:11.4     -98     -6    -98     99    139 266.5 -54.4  34190  290.08 0855.17
2009/04/23 10:46:11.5     -61    -15    -48     63     79 255.8 -45.6  34192  290.13 0855.17
2009/04/23 10:46:11.6     -14     -3     11     15     18 254.9  39.7  34188  290.06 0855.17
2009/04/23 10:46:11.7     104    -35     45    110    118 108.6  23.1  34180  289.91 0855.17
2009/04/23 10:46:11.8     128    -98     37    162    167 127.3  12.9  34172  289.77 0855.17
2009/04/23 10:46:11.9     129    -97     79    162    180 126.9  27.8  34158  289.53 0855.17
2009/04/23 10:46:12.0      90    -38     67     98    118 113.1  37.6  34148  289.38 0855.17
2009/04/23 10:46:12.1     147      2     66    148    162  89.1  25.7  34152  289.43 0855.17
2009/04/23 10:46:12.2     155    -14     99    156    184  95.2  35.5  34144  289.31 0855.17
2009/04/23 10:46:12.3     130    -11     72    131    149  95.2  31.3  34156  289.50 0855.17
2009/04/23 10:46:12.4      93     15     75     95    121  80.8  42.2  34156  289.50 0855.17
2009/04/23 10:46:12.5      55     11     57     57     80  78.5  50.1  34154  289.46 0855.17
2009/04/23 10:46:12.6      40      0     33     41     52  90.0  43.7  34160  289.58 0855.17
2009/04/23 10:46:12.7      33    -15     38     37     53 115.3  49.1  34164  289.65 0855.17
2009/04/23 10:46:12.8      40    -49     22     64     68 140.3  19.4  34164  289.63 0855.17
2009/04/23 10:46:12.9      76    -31      4     83     84 112.6   2.9  34164  289.63 0855.17
2009/04/23 10:46:13.0     109      4     -5    110    111  87.4  -2.6  34170  289.74 0855.17
2009/04/23 10:46:13.1      87    -13      1     89     90  98.8   1.2  34166  289.69 0855.16
2009/04/23 10:46:13.2     -32    -73     50     80     94 203.6  35.5  34156  289.50 0855.16
2009/04/23 10:46:13.3     -16   -114      5    116    117 188.0   2.9  34156  289.52 0855.16
2009/04/23 10:46:13.4     -41   -124     69    131    148 198.7  30.3  34158  289.55 0855.16
2009/04/23 10:46:13.5      25   -105      5    108    109 166.6   2.9  34158  289.55 0855.16
2009/04/23 10:46:13.6      23   -134    -27    137    140 170.2 -11.5  34164  289.65 0855.16
2009/04/23 10:46:13.7       7   -154     18    155    157 177.3   6.9  34160  289.57 0855.16
2009/04/23 10:46:13.8     -50   -248     37    254    257 191.5   8.5  34148  289.37 0855.16
2009/04/23 10:46:13.9     -60   -251     90    259    275 193.4  19.2  34158  289.54 0855.16
2009/04/23 10:46:14.0     -86   -196     26    215    217 203.6   7.1  34156  289.50 0855.16
2009/04/23 10:46:14.1     -84   -156     98    178    203 208.3  31.4  34154  289.46 0855.16
2009/04/23 10:46:14.2     -56   -202    122    210    242 195.6  32.9  34162  289.61 0855.16
2009/04/23 10:46:14.3     -71   -184    110    198    226 201.2  31.4  34160  289.58 0855.16
2009/04/23 10:46:14.4     -76   -230    115    243    268 198.3  27.2  34162  289.59 0855.16
2009/04/23 10:46:14.5     -81   -219    123    234    264 200.3  29.8  34160  289.58 0855.16
2009/04/23 10:46:14.6     -55   -207    127    215    249 194.9  33.5  34160  289.58 0855.16
2009/04/23 10:46:14.7     -23   -254    149    256    296 185.3  32.9  34164  289.63 0855.16
2009/04/23 10:46:14.8     -89   -336    146    348    377 194.9  24.1  34162  289.60 0855.16
2009/04/23 10:46:14.9     -15   -291    214    292    362 183.1  39.9  34162  289.60 0855.16
2009/04/23 10:46:15.0     -34   -283     74    286    296 186.9  14.5  34158  289.53 0855.16
2009/04/23 10:46:15.1       0   -301    105    302    320 179.9  19.2  34158  289.54 0855.15
2009/04/23 10:46:15.2     -18   -231    161    232    282 184.5  37.8  34150  289.39 0855.15
2009/04/23 10:46:15.3      -2   -239    144    240    279 180.7  33.7  34160  289.58 0855.15
2009/04/23 10:46:15.4     -76   -227    119    240    267 198.7  28.2  34160  289.58 0855.15
2009/04/23 10:46:15.5    -115   -301     82    323    334 200.9  14.3  34156  289.50 0855.15
2009/04/23 10:46:15.6     -12   -151    162    152    222 184.9  52.1  34162  289.60 0855.15
2009/04/23 10:46:15.7      30    -93    178     98    203 161.7  68.8  34178  289.89 0855.15
2009/04/23 10:46:15.8     149    -41    151    155    216 105.5  49.2  34178  289.89 0855.15
2009/04/23 10:46:15.9     138    -46    174    146    227 108.6  56.1  34182  289.94 0855.15
2009/04/23 10:46:16.0      49    -69    129     85    154 144.4  64.6  34174  289.80 0855.15
2009/04/23 10:46:16.1      41   -106    129    114    172 158.6  54.0  34172  289.77 0855.15
2009/04/23 10:46:16.2     107   -166    139    198    241 147.0  38.5  34168  289.70 0855.15
2009/04/23 10:46:16.3      60   -241    126    249    279 165.8  29.1  34164  289.63 0855.15
2009/04/23 10:46:16.4      67   -205    131    216    252 161.7  34.4  34162  289.59 0855.15
2009/04/23 10:46:16.5     114   -195    143    226    267 149.7  35.5  34164  289.64 0855.15
2009/04/23 10:46:16.6       4   -273    101    274    292 179.0  21.0  34164  289.64 0855.15
2009/04/23 10:46:16.7     -20   -266     41    267    271 184.5   8.9  34164  289.63 0855.15
2009/04/23 10:46:16.8      21   -263     93    264    280 175.3  19.4  34162  289.61 0855.15
2009/04/23 10:46:16.9     -32   -294     44    296    300 186.3   8.5  34160  289.58 0855.15
2009/04/23 10:46:17.0     -63   -365     81    371    380 189.8  12.4  34160  289.57 0855.15
2009/04/23 10:46:17.1     -74   -364     39    372    375 191.5   6.0  34158  289.55 0855.14
2009/04/23 10:46:17.2    -109   -385     50    401    405 195.8   7.1  34162  289.61 0855.14
2009/04/23 10:46:17.3     -65   -321    102    328    344 191.6  17.4  34162  289.59 0855.14
2009/04/23 10:46:17.4      19   -348     15    349    350 176.9   2.5  34158  289.55 0855.14
2009/04/23 10:46:17.5      51   -271    -68    276    285 169.3 -13.9  34156  289.49 0855.14
2009/04/23 10:46:17.6     224   -185    -50    291    296 129.5  -9.8  34158  289.54 0855.14
2009/04/23 10:46:17.7     127   -170     26    213    215 143.3   7.1  34160  289.58 0855.14
2009/04/23 10:46:17.8      74   -177    -24    192    194 157.3  -7.3  34156  289.52 0855.14
2009/04/23 10:46:17.9     101   -122    -14    159    160 140.3  -5.2  34162  289.60 0855.14
2009/04/23 10:46:18.0      25   -127     35    130    135 168.9  15.3  34158  289.55 0855.14
2009/04/23 10:46:18.1     -61   -157     20    169    171 201.2   6.9  34162  289.62 0855.14
2009/04/23 10:46:18.2     -38   -117    -58    124    136 198.3 -31.5  34166  289.67 0855.14
2009/04/23 10:46:18.3     -13    -71    -54     73     90 190.7 -44.5  34176  289.84 0855.14
2009/04/23 10:46:18.4      35    -23    -16     43     45 123.3 -24.4  34174  289.82 0855.14
2009/04/23 10:46:18.5      24     -7     48     26     54 106.8  68.8  34174  289.82 0855.14
2009/04/23 10:46:18.6     -43    -36     82     57     99 230.4  61.5  34178  289.89 0855.14
2009/04/23 10:46:18.7      27    -41     68     50     84 146.6  60.0  34180  289.92 0855.14
2009/04/23 10:46:18.8     100     -6     70    101    122  93.5  38.0  34170  289.74 0855.14
2009/04/23 10:46:18.9      48    -40     94     63    113 129.6  63.6  34174  289.82 0855.14
2009/04/23 10:46:19.0      15      2     64     16     65  82.1  84.9  34180  289.91 0855.14
2009/04/23 10:46:19.1       1     38     42     39     57   2.7  51.2  34176  289.85 0855.12
2009/04/23 10:46:19.2       8     57     30     58     65   8.0  30.3  34176  289.85 0855.12
2009/04/23 10:46:19.3       4     53      7     54     55   4.5   8.0  34170  289.74 0855.12
2009/04/23 10:46:19.4     -23     95      0     98     99 346.2  -0.3  34168  289.72 0855.12
2009/04/23 10:46:19.5     -66    126     -2    143    144 332.4  -1.2  34164  289.63 0855.12
2009/04/23 10:46:19.6      -4    128     30    129    133 358.2  13.1  34166  289.69 0855.12
2009/04/23 10:46:19.7     -25     67     56     72     91 339.1  42.2  34180  289.92 0855.12
2009/04/23 10:46:19.8      37    -24     83     45     94 123.3  68.8  34190  290.08 0855.12
2009/04/23 10:46:19.9     -50     -3    116     51    126 265.7  75.0  34192  290.11 0855.12
2009/04/23 10:46:20.0     -20     26    115     34    119 322.2  82.8  34186  290.02 0855.12
2009/04/23 10:46:20.1       3     94     99     95    137   2.2  51.6  34182  289.94 0855.12
2009/04/23 10:46:20.2     -73    -60     38     95    102 230.5  23.0  34182  289.94 0855.12
2009/04/23 10:46:20.3     -92    -59     56    110    123 237.1  29.3  34178  289.89 0855.12
2009/04/23 10:46:20.4     -69     -4    -43     70     82 266.5 -38.8  34178  289.87 0855.12
2009/04/23 10:46:20.5     -16    -12     24     21     31 232.2  54.3  34170  289.75 0855.12
2009/04/23 10:46:20.6      41      9    -24     42     48  77.6 -37.9  34176  289.84 0855.12
2009/04/23 10:46:20.7      30    -24    -55     39     67 129.5 -65.0  34178  289.87 0855.12
2009/04/23 10:46:20.8       7    -82    -33     83     89 175.1 -26.9  34180  289.91 0855.12
2009/04/23 10:46:20.9     -10    -76    -22     77     80 188.1 -20.7  34178  289.87 0855.12
2009/04/23 10:46:21.0     -49    -66     33     83     89 216.5  22.5  34180  289.92 0855.12
2009/04/23 10:46:21.1     -19    -73     72     76    104 195.2  49.0  34186  290.01 0855.13
2009/04/23 10:46:21.2     -58   -174     98    184    208 198.5  30.3  34174  289.82 0855.13
2009/04/23 10:46:21.3    -107   -112     91    155    179 223.7  33.1  34174  289.80 0855.13
2009/04/23 10:46:21.4     -86   -119     81    148    168 216.0  31.0  34174  289.80 0855.13
2009/04/23 10:46:21.5    -141    -91    166    169    236 237.1  49.4  34198  290.23 0855.13
2009/04/23 10:46:21.6    -101   -116    165    155    226 221.0  52.1  34184  289.99 0855.13
2009/04/23 10:46:21.7     -87   -235    184    251    311 200.5  39.7  34172  289.78 0855.13
2009/04/23 10:46:21.8      29   -150    170    153    228 168.9  53.3  34176  289.85 0855.13
2009/04/23 10:46:21.9      88    -79    191    119    225 131.8  64.7  34182  289.96 0855.13
2009/04/23 10:46:22.0      -4    -12    227     13    227 198.7  90.0  34182  289.96 0855.13
2009/04/23 10:46:22.1      96    -96    195    137    238 135.0  61.5  34178  289.89 0855.14
2009/04/23 10:46:22.2      82   -171    168    190    253 154.4  45.9  34170  289.75 0855.14
2009/04/23 10:46:22.3      18   -138    182    140    229 172.4  58.5  34178  289.87 0855.14
2009/04/23 10:46:22.4      38   -166    153    171    229 167.1  46.4  34176  289.84 0855.14
2009/04/23 10:46:22.5     179   -148    106    233    255 129.5  26.2  34174  289.80 0855.14
2009/04/23 10:46:22.7      99   -203     58    227    235 153.9  14.5  34170  289.75 0855.14
2009/04/23 10:46:22.7     117   -228     60    257    264 152.8  13.2  34172  289.76 0855.14
2009/04/23 10:46:22.8      98   -285     82    302    313 160.9  15.2  34172  289.76 0855.14
2009/04/23 10:46:22.9      56   -340    113    345    364 170.6  18.1  34172  289.76 0855.14
2009/04/23 10:46:23.0     -17   -441     55    442    446 182.2   7.2  34174  289.80 0855.14
2009/04/23 10:46:23.1      32   -477     85    479    487 176.1  10.1  34172  289.78 0855.14
2009/04/23 10:46:23.2     107   -509      7    521    522 168.1   0.8  34174  289.80 0855.14
2009/04/23 10:46:23.3     158   -433     57    462    466 160.0   7.1  34174  289.80 0855.14
2009/04/23 10:46:23.4     163   -403      1    435    436 157.9   0.2  34170  289.75 0855.14
2009/04/23 10:46:23.5     152   -348     19    380    381 156.4   2.9  34172  289.79 0855.14
2009/04/23 10:46:23.6      -3   -308    -92    309    323 180.7 -16.7  34174  289.80 0855.14
2009/04/23 10:46:23.7       4   -309    -29    310    312 179.1  -5.5  34176  289.83 0855.14
2009/04/23 10:46:23.9     -77   -335    -43    344    347 193.0  -7.2  34174  289.82 0855.14
2009/04/23 10:46:23.9    -135   -336    -14    363    364 201.9  -2.2  34182  289.93 0855.14
2009/04/23 10:46:24.0    -214   -386     13    442    443 209.0   1.7  34172  289.78 0855.14
2009/04/23 10:46:24.1    -158   -404     46    434    437 201.4   6.1  34172  289.78 0855.16
2009/04/23 10:46:24.3    -198   -534     37    570    572 200.4   3.8  34200  290.24 0855.16
2009/04/23 10:46:24.4    -207   -515    123    556    570 201.9  12.5  34184  289.97 0855.16
2009/04/23 10:46:24.5    -233   -478     14    532    533 206.0   1.6  34188  290.04 0855.16
2009/04/23 10:46:24.6    -174   -523   -120    552    565 198.5 -12.3  34128  289.02 0855.16
2009/04/23 10:46:24.7    -209   -488   -187    531    563 203.2 -19.4  34168  289.70 0855.16
2009/04/23 10:46:24.8    -137   -510   -107    529    540 195.1 -11.5  34146  289.33 0855.16
2009/04/23 10:46:24.9     -97   -591   -169    600    624 189.3 -15.8  34132  289.11 0855.16
2009/04/23 10:46:25.0    -151   -606   -125    625    638 194.1 -11.3  34126  288.98 0855.16
2009/04/23 10:46:25.1    -234   -558    -37    606    608 202.7  -3.5  34170  289.75 0855.16
2009/04/23 10:46:25.2    -201   -562    -71    597    602 199.7  -6.9  34146  289.34 0855.16
2009/04/23 10:46:25.3    -260   -486    -31    552    553 208.1  -3.3  34146  289.35 0855.16
2009/04/23 10:46:25.4    -359   -434    -92    564    572 219.6  -9.3  34148  289.37 0855.16
2009/04/23 10:46:25.5    -490   -343    -72    599    604 235.0  -6.9  34170  289.73 0855.16
2009/04/23 10:46:25.6    -432   -205    -86    479    487 244.6 -10.2  34130  289.06 0855.16
2009/04/23 10:46:25.7    -399   -197   -133    446    466 243.7 -16.6  34106  288.65 0855.16
2009/04/23 10:46:25.8    -383   -157   -130    414    435 247.7 -17.5  34124  288.95 0855.16
2009/04/23 10:46:25.9    -289   -136   -109    320    339 244.8 -18.8  34132  289.11 0855.16
2009/04/23 10:46:26.0    -199    -56    -57    207    215 254.1 -15.5  34152  289.45 0855.16
2009/04/23 10:46:26.1     -57   -162     35    173    177 199.6  11.4  34162  289.60 0855.16
2009/04/23 10:46:26.2     -94   -208     -2    229    230 204.3  -0.7  34164  289.63 0855.17
2009/04/23 10:46:26.3    -196   -133    -30    238    240 235.8  -7.3  34178  289.86 0855.17
2009/04/23 10:46:26.4    -270    -82    -46    283    287 253.1  -9.3  34170  289.75 0855.17
2009/04/23 10:46:26.5    -224    -43   -123    229    259 259.0 -35.0  34150  289.41 0855.17
2009/04/23 10:46:26.6    -212    -79   -138    227    265 249.4 -38.8  34138  289.20 0855.17
2009/04/23 10:46:26.7    -194    -85   -119    212    243 246.3 -36.3  34126  288.98 0855.17
2009/04/23 10:46:26.8    -170    -73   -117    186    219 246.7 -39.9  34136  289.18 0855.17
2009/04/23 10:46:26.9    -174    -71   -128    188    227 247.8 -42.0  34144  289.30 0855.17
2009/04/23 10:46:27.0    -213    -29   -140    216    257 262.1 -40.4  34146  289.34 0855.17
2009/04/23 10:46:27.1    -110    -24   -103    113    152 257.2 -52.3  34146  289.33 0855.17
2009/04/23 10:46:27.2    -146      3   -140    147    203 271.3 -53.1  34148  289.38 0855.17
2009/04/23 10:46:27.3    -102     -3   -114    103    153 268.3 -57.1  34146  289.35 0855.17
2009/04/23 10:46:27.4     -29     -9    -57     31     64 251.4 -73.2  34148  289.38 0855.17
2009/04/23 10:46:27.5      32      0    -35     33     48  90.0 -54.5  34158  289.55 0855.17
2009/04/23 10:46:27.6      69     11   -120     71    139  80.3 -71.2  34150  289.41 0855.17
2009/04/23 10:46:27.7     113     18   -115    115    162  80.8 -54.5  34140  289.24 0855.17
2009/04/23 10:46:27.8     122     76   -138    144    199  58.0 -53.4  34134  289.14 0855.17
2009/04/23 10:46:27.9     206    113   -142    236    275  61.2 -38.1  34138  289.20 0855.17
2009/04/23 10:46:28.0      84    103   -119    134    179  39.2 -50.8  34134  289.14 0855.17
2009/04/23 10:46:28.1     203    131   -175    242    298  57.1 -43.9  34130  289.05 0855.17
2009/04/23 10:46:28.2      90    185   -266    206    336  26.1 -62.9  34118  288.85 0855.18
2009/04/23 10:46:28.3     140    130   -255    192    319  47.1 -63.7  34144  289.31 0855.18
2009/04/23 10:46:28.4     175    104   -131    204    242  59.3 -40.0  34144  289.31 0855.18
2009/04/23 10:46:28.5     257    154   -127    300    325  59.1 -28.7  34146  289.32 0855.18
2009/04/23 10:46:28.6     194    200    -90    279    293  44.1 -22.9  34144  289.29 0855.18
2009/04/23 10:46:28.7     109    194    -79    223    237  29.4 -19.7  34142  289.26 0855.18
2009/04/23 10:46:28.8      86    226    -57    242    249  20.9 -13.3  34138  289.20 0855.18
2009/04/23 10:46:28.9     110    339     18    357    358  18.0   3.0  34136  289.18 0855.18
2009/04/23 10:46:29.0      52    350     22    354    355   8.6   3.6  34138  289.21 0855.18
2009/04/23 10:46:29.1      49    342     69    346    353   8.2  11.4  34130  289.08 0855.18
2009/04/23 10:46:29.2      82    242    138    256    290  18.7  30.8  34122  288.92 0855.18
2009/04/23 10:46:29.3     -23    304    120    306    328 355.5  22.5  34134  289.14 0855.18
2009/04/23 10:46:29.4     -85    250    -34    265    268 341.1  -7.3  34126  288.98 0855.18
2009/04/23 10:46:29.5     -46    235    -59    240    248 348.9 -13.9  34120  288.90 0855.18
2009/04/23 10:46:29.6     -52    164    -67    173    185 342.4 -26.7  34122  288.92 0855.18
2009/04/23 10:46:29.7     -51    123    -57    134    145 337.3 -28.5  34118  288.86 0855.18
2009/04/23 10:46:29.8     -61     96    -51    114    124 327.5 -29.6  34116  288.82 0855.18
2009/04/23 10:46:29.9     -72     78    -69    107    127 317.2 -40.0  34112  288.75 0855.18
2009/04/23 10:46:30.0     -91     54    -68    106    125 300.7 -40.0  34106  288.67 0855.18
2009/04/23 10:46:30.1    -105     53    -69    118    136 297.1 -37.8  34104  288.62 0855.18
2009/04/23 10:46:30.2    -122     55    -73    135    153 294.4 -35.7  34104  288.62 0855.18
2009/04/23 10:46:30.3    -126     74    -81    147    167 300.6 -35.8  34102  288.58 0855.18
2009/04/23 10:46:30.4    -157     82    -93    178    200 297.8 -33.9  34106  288.65 0855.18
2009/04/23 10:46:30.5    -190    106    -97    218    238 299.3 -30.1  34116  288.82 0855.18
2009/04/23 10:46:30.6    -235     78   -171    248    301 288.4 -42.0  34136  289.17 0855.18
2009/04/23 10:46:30.7    -254     13   -202    255    325 273.0 -47.0  34140  289.24 0855.18
2009/04/23 10:46:30.8    -273    -31   -193    275    335 263.4 -43.0  34142  289.25 0855.18
2009/04/23 10:46:30.9    -321    -29   -245    323    405 264.8 -45.5  34144  289.30 0855.18
2009/04/23 10:46:31.0    -136     59    -73    149    165 293.6 -32.4  34142  289.26 0855.18
2009/04/23 10:46:31.1    -108    -16   -126    110    167 261.2 -59.0  34148  289.36 0855.18
2009/04/23 10:46:31.2    -159     38    -68    164    177 283.7 -28.0  34126  289.01 0855.18
2009/04/23 10:46:31.3    -107    194     10    222    223 331.0   2.8  34138  289.19 0855.18
2009/04/23 10:46:31.4       2    182     31    183    186   0.9   9.9  34140  289.24 0855.18
2009/04/23 10:46:31.5     -21    175     14    177    178 352.9   4.6  34142  289.26 0855.18
2009/04/23 10:46:31.6      -9    121    122    122    172 355.6  50.1  34148  289.38 0855.18
2009/04/23 10:46:31.7     116     30    214    120    245  75.4  68.5  34146  289.35 0855.18
2009/04/23 10:46:31.8      16    120    177    122    214   8.0  62.6  34152  289.45 0855.18
2009/04/23 10:46:31.9     107    150    150    185    238  35.4  43.0  34148  289.36 0855.18
2009/04/23 10:46:32.0     -67      9    132     68    148 277.9  70.8  34166  289.67 0855.18
2009/04/23 10:46:32.1     -29    110     87    114    143 344.9  41.2  34156  289.50 0855.18
2009/04/23 10:46:32.2       3    181    105    182    210   1.1  32.7  34148  289.36 0855.17
2009/04/23 10:46:32.3      96    178    111    203    231  28.3  31.3  34142  289.26 0855.17
2009/04/23 10:46:32.4     192    255     45    320    324  37.0   8.1  34146  289.34 0855.17
2009/04/23 10:46:32.5     138    123    -35    186    190  48.2 -10.9  34144  289.31 0855.17
2009/04/23 10:46:32.6     148    -46    134    156    205 107.3  45.1  34160  289.58 0855.17
2009/04/23 10:46:32.7      12     48     72     50     87  14.3  62.1  34174  289.80 0855.17
2009/04/23 10:46:32.8     -19    111     37    113    120 350.2  18.4  34160  289.57 0855.17
2009/04/23 10:46:32.9    -106     58     43    122    130 298.8  19.4  34158  289.53 0855.17
2009/04/23 10:46:33.0    -132    -11      2    133    134 265.2   1.2  34156  289.50 0855.17
2009/04/23 10:46:33.1     -76    180     51    196    203 337.1  14.7  34190  290.08 0855.17
2009/04/23 10:46:33.2    -133    136    103    191    217 315.7  31.0  34178  289.87 0855.17
2009/04/23 10:46:33.3     -60    231    113    239    264 345.3  27.2  34176  289.85 0855.17
2009/04/23 10:46:33.4     -56    118     45    131    139 334.5  18.9  34184  289.97 0855.17
2009/04/23 10:46:33.5    -128     58     64    141    154 294.4  26.6  34176  289.84 0855.17
2009/04/23 10:46:33.6    -166    110     43    200    205 303.5  12.2  34184  289.97 0855.17
2009/04/23 10:46:33.7    -135     36     16    140    142 285.1   6.9  34184  289.99 0855.17
2009/04/23 10:46:33.8    -178      5     67    179    191 271.7  21.5  34170  289.74 0855.17
2009/04/23 10:46:33.9     -52   -194     -5    202    203 195.2  -1.6  34156  289.50 0855.17
2009/04/23 10:46:34.0       7    -70     14     71     73 173.8  11.1  34154  289.46 0855.17
2009/04/23 10:46:34.1      91   -117     27    149    152 142.2  10.6  34154  289.48 0855.17
2009/04/23 10:46:34.2      71   -159      8    175    176 155.9   2.8  34152  289.45 0855.18
2009/04/23 10:46:34.3      54   -208     93    216    235 165.3  24.9  34150  289.40 0855.18
2009/04/23 10:46:34.4    -169   -278     16    326    327 211.4   2.9  34164  289.64 0855.18
2009/04/23 10:46:34.5    -147   -261    -98    300    316 209.4 -18.1  34166  289.68 0855.18
2009/04/23 10:46:34.6    -136   -186    -29    231    233 216.1  -7.2  34166  289.69 0855.18
2009/04/23 10:46:34.7    -120   -144    -17    188    189 219.7  -5.2  34174  289.80 0855.18
2009/04/23 10:46:34.8    -165   -107    -81    197    213 236.9 -27.8  34164  289.63 0855.18
2009/04/23 10:46:34.9    -138   -126   -105    187    214 227.6 -36.0  34164  289.63 0855.18
2009/04/23 10:46:35.0       7   -104   -164    105    194 176.0 -69.0  34162  289.62 0855.18
2009/04/23 10:46:35.1     -15    -68   -155     70    170 192.5 -78.4  34164  289.65 0855.18
2009/04/23 10:46:35.2     -37    -87    -71     95    118 203.2 -45.1  34164  289.63 0855.18
2009/04/23 10:46:35.3      17   -199    -37    200    204 174.9 -10.5  34154  289.48 0855.18
2009/04/23 10:46:35.4     -87   -317    -43    329    332 195.4  -7.6  34154  289.47 0855.18
2009/04/23 10:46:35.5       5   -352   -121    353    374 179.1 -18.9  34152  289.43 0855.18
2009/04/23 10:46:35.6     -87   -287    -95    301    316 196.9 -17.6  34156  289.49 0855.18
2009/04/23 10:46:35.7     -38   -223    -77    227    240 189.8 -18.9  34154  289.46 0855.18
2009/04/23 10:46:35.8     -24   -145    -58    148    158 189.7 -26.9  34150  289.40 0855.18
2009/04/23 10:46:35.9      23   -246   -114    248    272 174.6 -31.0  34154  289.46 0855.18
2009/04/23 10:46:36.0       0   -215   -107    216    241 180.0 -32.6  34148  289.36 0855.18
2009/04/23 10:46:36.1     118   -272   -102    297    315 156.4 -19.0  34136  289.15 0855.18
2009/04/23 10:46:36.2      48   -307    -57    311    317 171.1 -10.4  34130  289.05 0855.18
2009/04/23 10:46:36.3      42   -271    -98    275    293 171.1 -19.7  34134  289.14 0855.18
2009/04/23 10:46:36.4      30   -212   -132    215    252 171.9 -38.9  34142  289.25 0855.18
2009/04/23 10:46:36.5      59   -223   -106    231    254 165.1 -30.8  34142  289.27 0855.18
2009/04/23 10:46:36.6     -44   -219   -101    224    245 191.5 -30.6  34146  289.32 0855.18
2009/04/23 10:46:36.7      42   -163   -136    169    216 165.5 -47.7  34148  289.38 0855.18
2009/04/23 10:46:36.8     157   -158   -197    223    297 135.2 -50.3  34148  289.36 0855.18
2009/04/23 10:46:36.9     116   -313   -123    335    356 159.6 -25.4  34150  289.40 0855.18
2009/04/23 10:46:37.0      58   -287    -93    293    308 168.5 -17.7  34148  289.36 0855.18
2009/04/23 10:46:37.1      98   -224    -44    245    249 156.3 -10.3  34144  289.31 0855.18
2009/04/23 10:46:37.2     153   -226    -90    273    288 145.9 -18.3  34148  289.36 0855.18
2009/04/23 10:46:37.3      73   -326    -13    335    336 167.3  -2.2  34142  289.28 0855.18
2009/04/23 10:46:37.4     140   -266    -47    301    305 152.1  -9.0  34136  289.15 0855.18
2009/04/23 10:46:37.5     150   -310     45    345    348 154.1   7.5  34136  289.15 0855.18
2009/04/23 10:46:37.6     155   -242    139    288    319 147.3  27.7  34140  289.24 0855.18
2009/04/23 10:46:37.7     149   -210    156    258    301 144.6  34.2  34142  289.25 0855.18
2009/04/23 10:46:37.8     129   -180     83    222    237 144.2  21.5  34140  289.23 0855.18
2009/04/23 10:46:37.9      56   -132     88    144    168 156.8  34.4  34136  289.18 0855.18
2009/04/23 10:46:38.0      62    -45    122     77    144 126.0  64.7  34152  289.43 0855.18
2009/04/23 10:46:38.1     -12    -27    102     30    106 205.4  82.8  34160  289.58 0855.18
2009/04/23 10:46:38.2      25    -54     86     60    104 154.7  61.5  34148  289.36 0855.19
2009/04/23 10:46:38.3     -11    -35     70     37     79 198.7  69.8  34150  289.41 0855.19
2009/04/23 10:46:38.4      34    -49     68     60     90 144.8  54.3  34148  289.36 0855.19
2009/04/23 10:46:38.5      66    -80     78    105    130 140.4  40.1  34146  289.35 0855.19
2009/04/23 10:46:38.6      36    -97     58    104    119 159.5  31.4  34146  289.35 0855.19
2009/04/23 10:46:38.7      72    -53     90     90    127 126.4  50.1  34146  289.33 0855.19
2009/04/23 10:46:38.8      16    -78     91     80    121 168.4  54.3  34146  289.35 0855.19
2009/04/23 10:46:38.9      56    -62     88     84    121 137.7  51.2  34158  289.55 0855.19
2009/04/23 10:46:39.0      59    -93     44    111    119 147.4  22.5  34156  289.52 0855.19
2009/04/23 10:46:39.1      56   -129      1    141    142 156.4   0.7  34148  289.36 0855.19
2009/04/23 10:46:39.2      71   -128     -5    147    148 151.1  -2.2  34144  289.30 0855.19
2009/04/23 10:46:39.3       3   -110     21    111    114 178.2  11.1  34148  289.38 0855.19
2009/04/23 10:46:39.4     -39   -114     12    121    122 199.2   5.9  34152  289.43 0855.19
2009/04/23 10:46:39.5    -103   -195    -19    221    222 207.9  -5.1  34132  289.09 0855.19
2009/04/23 10:46:39.6     -92   -212    -55    232    239 203.6 -13.4  34128  289.02 0855.19
2009/04/23 10:46:39.7    -163   -135     38    212    216 230.4  10.3  34158  289.53 0855.19
2009/04/23 10:46:39.8    -187   -135     64    231    240 234.1  15.6  34160  289.56 0855.19
2009/04/23 10:46:39.9    -150   -199    134    250    283 217.0  30.3  34164  289.63 0855.19
2009/04/23 10:46:40.0     -71   -192    149    205    253 200.5  39.7  34164  289.63 0855.19
2009/04/23 10:46:40.1    -147   -147    172    208    269 225.0  43.8  34152  289.44 0855.19
2009/04/23 10:46:40.2    -209   -213    159    299    338 224.5  30.3  34164  289.63 0855.20
2009/04/23 10:46:40.3    -213   -292    128    362    383 216.2  20.3  34176  289.84 0855.20
2009/04/23 10:46:40.4    -159   -336    135    372    395 205.3  20.8  34188  290.06 0855.20
2009/04/23 10:46:40.5    -119   -408    132    426    447 196.3  17.3  34132  289.09 0855.20
2009/04/23 10:46:40.6     -70   -398    186    405    445 190.0  26.3  34134  289.14 0855.20
2009/04/23 10:46:40.7     -84   -397    157    406    435 192.0  22.2  34132  289.11 0855.20
2009/04/23 10:46:40.8     -90   -399    137    410    433 192.8  18.5  34140  289.24 0855.20
2009/04/23 10:46:40.9     -66   -374    157    380    411 190.0  23.7  34146  289.32 0855.20
2009/04/23 10:46:41.0       5   -387    173    388    424 179.2  25.7  34148  289.36 0855.20
2009/04/23 10:46:41.1     -76   -391    151    399    426 191.1  21.8  34154  289.48 0855.20
2009/04/23 10:46:41.2    -108   -533    244    544    596 191.5  25.9  34154  289.47 0855.20
2009/04/23 10:46:41.3    -177   -618    233    644    686 196.0  19.9  34156  289.49 0855.20
2009/04/23 10:46:41.4    -234   -585    131    631    645 201.9  11.8  34152  289.43 0855.20
2009/04/23 10:46:41.5    -173   -555     21    582    583 197.3   2.1  34154  289.46 0855.20
2009/04/23 10:46:41.6    -217   -527     45    571    573 202.4   4.6  34154  289.47 0855.20
2009/04/23 10:46:41.7    -278   -584    -13    648    649 205.5  -1.2  34132  289.09 0855.20
2009/04/23 10:46:41.8    -318   -474   -128    572    587 213.9 -12.6  34128  289.02 0855.20
2009/04/23 10:46:41.9    -390   -451   -182    597    625 220.9 -17.0  34136  289.16 0855.20
2009/04/23 10:46:42.0    -273   -502   -188    572    603 208.5 -18.2  34134  289.12 0855.20
2009/04/23 10:46:42.1    -234   -535   -178    585    611 203.6 -21.8  34146  289.34 0855.20
2009/04/23 10:46:42.2    -125   -526   -149    541    561 193.4 -20.1  34142  289.28 0855.21
2009/04/23 10:46:42.3     -48   -444   -132    447    466 186.3 -21.5  34144  289.31 0855.21
2009/04/23 10:46:42.4      13   -464   -189    465    501 178.4 -27.8  34142  289.28 0855.21
2009/04/23 10:46:42.5     122   -462   -176    478    509 165.2 -25.5  34142  289.27 0855.21
2009/04/23 10:46:42.6     125   -325   -214    349    409 159.0 -38.9  34144  289.30 0855.21
2009/04/23 10:46:42.7     184   -329   -145    378    404 150.8 -26.4  34146  289.33 0855.21
2009/04/23 10:46:42.8     194   -328   -122    382    401 149.4 -22.9  34146  289.33 0855.21
2009/04/23 10:46:42.9     180   -337   -114    383    400 151.9 -16.6  34146  289.33 0855.21
2009/04/23 10:46:43.0     254   -322    -52    411    415 141.8  -7.2  34142  289.26 0855.21
2009/04/23 10:46:43.1     305   -303      6    431    432 134.8   0.9  34144  289.29 0855.21
2009/04/23 10:46:43.2     257   -258     85    365    375 135.2  13.1  34144  289.30 0855.22
2009/04/23 10:46:43.3     252   -266     53    367    371 136.5   8.3  34150  289.40 0855.22
2009/04/23 10:46:43.4     182   -280     92    335    348 147.0  15.4  34148  289.37 0855.22
2009/04/23 10:46:43.5     198   -289     84    351    361 145.5  13.5  34146  289.35 0855.22
2009/04/23 10:46:43.6     111   -271    140    293    324 157.7  27.3  34148  289.37 0855.22
2009/04/23 10:46:43.7      61   -213    143    222    264 164.0  35.6  34152  289.42 0855.22
2009/04/23 10:46:43.8     -32   -226    172    229    286 188.1  40.7  34156  289.49 0855.22
2009/04/23 10:46:43.9     -81   -178    102    196    220 204.7  29.5  34152  289.43 0855.22
2009/04/23 10:46:44.0     -77   -163    103    181    208 205.2  32.4  34152  289.45 0855.22
2009/04/23 10:46:44.1     -70   -176    115    190    222 201.8  34.2  34150  289.41 0855.22
2009/04/23 10:46:44.2     -40   -137    107    143    178 196.5  40.4  34148  289.38 0855.22
2009/04/23 10:46:44.3     -25    -97    125    101    160 194.7  56.9  34152  289.45 0855.22
2009/04/23 10:46:44.4      23    -91    105     94    140 165.7  53.7  34166  289.69 0855.22
2009/04/23 10:46:44.5     -40   -113    140    120    184 199.6  55.0  34154  289.46 0855.22
2009/04/23 10:46:44.6      11    -87     87     88    123 172.4  50.0  34160  289.58 0855.22
2009/04/23 10:46:44.7       7   -112    125    113    168 176.0  53.3  34156  289.52 0855.22
2009/04/23 10:46:44.8    -109   -116     78    160    178 223.2  28.0  34150  289.41 0855.22
2009/04/23 10:46:44.9    -151   -112     59    189    199 233.4  17.4  34156  289.50 0855.22
2009/04/23 10:46:45.0     -75   -118    115    140    181 212.5  43.7  34156  289.50 0855.22
2009/04/23 10:46:45.1     -89   -179    125    201    236 206.5  34.8  34150  289.41 0855.22
2009/04/23 10:46:45.2    -227   -286    142    366    392 218.5  22.3  34152  289.42 0855.21
2009/04/23 10:46:45.3    -230   -269    116    355    374 220.6  18.2  34146  289.35 0855.21
2009/04/23 10:46:45.4    -224   -312    111    385    401 215.7  16.1  34146  289.32 0855.21
2009/04/23 10:46:45.5    -339   -222    142    406    430 236.8  20.0  34148  289.36 0855.21
2009/04/23 10:46:45.6     -49   -148    145    157    213 198.5  47.9  34150  289.40 0855.21
2009/04/23 10:46:45.7      76   -252     82    264    277 163.1  17.4  34152  289.42 0855.21
2009/04/23 10:46:45.8      33   -165    141    169    220 168.7  43.8  34150  289.41 0855.21
2009/04/23 10:46:45.9      -9    -21     75     24     78 203.6  80.7  34160  289.58 0855.21
2009/04/23 10:46:46.0     -52    -23    -24     58     62 245.6 -27.5  34152  289.43 0855.21
2009/04/23 10:46:46.1     -21     66    -19     70     73 342.2 -15.4  34154  289.46 0855.21
2009/04/23 10:46:46.2      28    107     82    111    138  15.1  40.1  34148  289.38 0855.21
2009/04/23 10:46:46.3     -81     -5    105     82    133 266.5  57.9  34180  289.91 0855.21
2009/04/23 10:46:46.4    -104    -85    122    135    181 230.9  47.1  34152  289.43 0855.21
2009/04/23 10:46:46.5    -137   -141    -25    197    199 224.1  -7.3  34150  289.41 0855.21
2009/04/23 10:46:46.6    -118   -484    121    499    514 193.7  13.7  34142  289.27 0855.21
2009/04/23 10:46:46.7    -173   -603    147    628    646 196.0  13.2  34138  289.21 0855.21
2009/04/23 10:46:46.8    -205   -602     26    637    638 198.8   2.3  34142  289.26 0855.21
2009/04/23 10:46:46.9    -279   -660    -29    717    718 203.0  -2.4  34146  289.35 0855.21
2009/04/23 10:46:47.0    -164   -612    -75    634    639 195.1  -6.8  34132  289.11 0855.21
2009/04/23 10:46:47.1    -135   -541    -20    558    559 194.0  -2.1  34136  289.16 0855.21
2009/04/23 10:46:47.2     -69   -505    -27    510    511 187.8  -3.1  34142  289.27 0855.19
2009/04/23 10:46:47.3    -126   -407      7    427    428 197.3   1.0  34140  289.22 0855.19
2009/04/23 10:46:47.4    -263   -472     60    541    545 209.1   6.4  34144  289.29 0855.19
2009/04/23 10:46:47.5    -160   -458    -34    486    488 199.3  -4.0  34142  289.25 0855.19
2009/04/23 10:46:47.6     -56   -391    110    396    412 188.2  15.6  34128  289.04 0855.19
2009/04/23 10:46:47.7      30   -398    148    400    426 175.6  21.1  34146  289.33 0855.19
2009/04/23 10:46:47.8     132   -397    264    419    495 161.6  35.2  34142  289.28 0855.19
2009/04/23 10:46:47.9     -86   -477     32    485    487 190.3   3.8  34146  289.35 0855.19
2009/04/23 10:46:48.0    -162   -330     -7    368    369 206.2  -1.1  34146  289.33 0855.19
2009/04/23 10:46:48.1     -79   -154     57    174    184 207.2  18.1  34148  289.38 0855.19
2009/04/23 10:46:48.2    -241   -101      9    262    263 247.3   2.1  34146  289.32 0855.19
2009/04/23 10:46:48.3    -243   -132    -25    277    279 241.4  -5.2  34146  289.32 0855.19
2009/04/23 10:46:48.4    -124   -131    -28    181    184 223.4  -9.0  34146  289.33 0855.19
2009/04/23 10:46:48.5      14   -186    -43    187    193 175.5 -13.2  34148  289.38 0855.19
2009/04/23 10:46:48.6     -14   -212   -160    213    266 183.8 -45.1  34140  289.24 0855.19
2009/04/23 10:46:48.7     -87   -261   -109    276    296 198.5 -27.4  34142  289.27 0855.19
2009/04/23 10:46:48.8    -204   -432   -187    478    513 205.3 -26.9  34126  288.98 0855.19
2009/04/23 10:46:48.9    -268   -377    -52    463    466 215.4  -6.5  34134  289.12 0855.19
2009/04/23 10:46:49.0    -216   -466   -149    514    536 204.9 -16.2  34128  289.02 0855.19
2009/04/23 10:46:49.1    -231   -351     75    421    428 213.4  10.2  34134  289.14 0855.19
2009/04/23 10:46:49.2     -91   -320     65    333    340 195.9  11.1  34138  289.21 0855.18
2009/04/23 10:46:49.3    -265   -192     10    328    329 234.0   1.8  34144  289.31 0855.18
2009/04/23 10:46:49.4    -140   -127    -88    190    209 227.8 -31.4  34142  289.28 0855.18
2009/04/23 10:46:49.5    -160   -220    -87    273    286 216.0 -22.9  34142  289.25 0855.18
2009/04/23 10:46:49.6    -307   -369   -265    481    549 219.8 -35.7  34136  289.16 0855.18
2009/04/23 10:46:49.7    -245   -335   -166    416    447 216.2 -27.4  34142  289.27 0855.18
2009/04/23 10:46:49.8    -338   -394    -62    520    524 220.6  -6.9  34146  289.33 0855.18
2009/04/23 10:46:49.9    -411   -496   -116    645    656 219.6 -10.2  34126  289.01 0855.18
2009/04/23 10:46:50.0    -331   -581   -264    669    719 209.7 -27.1  34106  288.66 0855.18
2009/04/23 10:46:50.1    -321   -576   -181    660    685 209.1 -15.4  34120  288.88 0855.18
2009/04/23 10:46:50.2    -426   -562   -137    706    720 217.2 -11.0  34136  289.15 0855.18
2009/04/23 10:46:50.3    -443   -577   -131    728    740 217.5 -10.2  34136  289.18 0855.18
2009/04/23 10:46:50.4    -347   -491   -103    602    612 215.2  -9.8  34136  289.17 0855.18
2009/04/23 10:46:50.5    -410   -443   -214    604    641 222.8 -19.5  34134  289.13 0855.18
2009/04/23 10:46:50.6    -342   -538   -187    638    665 212.5 -16.4  34140  289.23 0855.18
2009/04/23 10:46:50.7    -378   -583   -141    696    710 213.0 -11.5  34126  289.01 0855.18
2009/04/23 10:46:50.8    -377   -469    -71    602    607 218.8  -6.8  34102  288.58 0855.18
2009/04/23 10:46:50.9    -362   -391   -188    533    566 222.8 -19.4  34104  288.63 0855.18
2009/04/23 10:46:51.0    -274   -355   -187    449    486 217.6 -28.5  34110  288.74 0855.18
2009/04/23 10:46:51.1    -291   -273   -131    400    420 226.9 -23.5  34110  288.73 0855.18
2009/04/23 10:46:51.2    -424   -248   -141    492    512 239.7 -16.0  34108  288.69 0855.18
2009/04/23 10:46:51.3    -418   -197   -180    463    496 244.8 -26.8  34120  288.88 0855.18
2009/04/23 10:46:51.4    -354   -239     51    428    432 235.9   6.9  34124  288.95 0855.18
2009/04/23 10:46:51.5    -319   -290     68    432    438 227.7   9.0  34126  289.00 0855.18
2009/04/23 10:46:51.6    -132   -277     38    307    310 205.5   7.1  34144  289.29 0855.18
2009/04/23 10:46:51.8    -144   -134    -35    197    201 227.1 -10.1  34154  289.48 0855.18
2009/04/23 10:46:51.9    -155   -271   -104    313    329 209.8 -23.7  34142  289.25 0855.18
2009/04/23 10:46:51.9      46   -230    -13    235    236 168.5  -3.2  34154  289.47 0855.18
2009/04/23 10:46:52.1      48   -280    -15    285    286 170.3  -3.1  34150  289.39 0855.18
2009/04/23 10:46:52.2     232   -147     18    275    276 122.4   3.8  34132  289.09 0855.18
2009/04/23 10:46:52.3     188   -234    106    301    320 141.3  19.4  34128  289.02 0855.18
2009/04/23 10:46:52.4     230   -360     -1    428    429 147.4  -0.3  34126  289.00 0855.18
2009/04/23 10:46:52.5     232   -391     -9    455    456 149.3  -1.2  34124  288.97 0855.18
2009/04/23 10:46:52.6     257   -456      1    524    525 150.6   0.2  34128  289.02 0855.18
2009/04/23 10:46:52.7     243   -428    -71    493    499 150.4  -8.2  34130  289.05 0855.18
2009/04/23 10:46:52.8     151   -367    -43    397    400 157.6  -6.3  34130  289.06 0855.18
2009/04/23 10:46:52.9      73   -481   -172    487    517 171.3 -19.5  34130  289.08 0855.18
2009/04/23 10:46:53.0      71   -484   -135    490    509 171.6 -15.4  34130  289.05 0855.18
2009/04/23 10:46:53.1     187   -392    -46    435    438 154.5  -6.1  34126  288.99 0855.18
2009/04/23 10:46:53.2      69   -403    -16    410    411 170.2  -2.3  34126  289.00 0855.18
2009/04/23 10:46:53.3      33   -307      3    309    310 173.8   0.7  34128  289.02 0855.18
2009/04/23 10:46:53.4     -60   -167    -27    178    181 200.0  -8.6  34134  289.13 0855.18
2009/04/23 10:46:53.5     -79    -21   -107     82    134 254.5 -62.9  34138  289.19 0855.18
2009/04/23 10:46:53.6      29    -10     22     31     38 110.0  37.6  34138  289.21 0855.18
2009/04/23 10:46:53.7     -25    -94    121     98    155 195.1  56.4  34138  289.19 0855.18
2009/04/23 10:46:53.8    -169   -310    118    354    374 208.6  18.4  34132  289.10 0855.18
2009/04/23 10:46:53.9    -198   -331     82    386    395 210.9  12.1  34136  289.16 0855.18
2009/04/23 10:46:54.0    -158   -333     36    369    371 205.4   5.7  34130  289.08 0855.18
2009/04/23 10:46:54.1    -164   -321     58    361    366 207.2   9.2  34136  289.16 0855.18
2009/04/23 10:46:54.2    -229   -371     54    437    441 211.7   7.1  34134  289.14 0855.18
2009/04/23 10:46:54.3    -318   -314     25    447    448 225.4   3.3  34126  289.00 0855.18
2009/04/23 10:46:54.4    -306   -144     -2    339    340 244.8  -0.4  34124  288.96 0855.18
2009/04/23 10:46:54.5    -283    -86    -59    296    302 253.1 -11.3  34120  288.88 0855.18
2009/04/23 10:46:54.6    -220   -140    -61    262    270 237.5 -13.3  34134  289.12 0855.18
2009/04/23 10:46:54.7     -97   -104     42    143    150 223.2  16.3  34124  288.97 0855.18
2009/04/23 10:46:54.8     -34   -264     94    267    283 187.3  20.0  34124  288.95 0855.18
2009/04/23 10:46:54.9     -68   -366     52    373    377 190.6   8.0  34130  289.06 0855.18
2009/04/23 10:46:55.0     -21   -349     68    350    357 183.5  11.0  34128  289.04 0855.18
2009/04/23 10:46:55.1      37   -375     29    377    379 174.3   4.5  34136  289.15 0855.18
2009/04/23 10:46:55.2     -75   -358    -14    366    367 191.9  -2.2  34136  289.18 0855.18
2009/04/23 10:46:55.3    -111   -417    -24    432    433 194.9  -3.3  34152  289.44 0855.18
2009/04/23 10:46:55.4     -29   -391    -26    393    394 184.2  -3.9  34152  289.43 0855.18
2009/04/23 10:46:55.5    -136   -406    -29    429    430 198.6  -3.9  34166  289.68 0855.18
2009/04/23 10:46:55.6    -214   -432     20    483    484 206.4   2.4  34168  289.71 0855.18
2009/04/23 10:46:55.7    -380   -372    -23    532    533 225.6  -2.5  34132  289.11 0855.18
2009/04/23 10:46:55.8    -337   -303    -24    454    455 228.0  -3.1  34126  288.99 0855.18
2009/04/23 10:46:55.9    -360   -297   -129    467    485 230.5 -15.5  34122  288.93 0855.18
2009/04/23 10:46:56.0    -338   -280   -103    439    451 230.4 -13.3  34124  288.95 0855.18
2009/04/23 10:46:56.1    -238   -326    -95    404    416 216.1 -13.3  34130  289.07 0855.18
2009/04/23 10:46:56.2    -209   -274    -66    345    352 217.3 -10.9  34126  288.99 0855.18
2009/04/23 10:46:56.3    -181   -299    -78    350    359 211.3 -12.6  34124  288.96 0855.18
2009/04/23 10:46:56.4    -142   -231     23    272    274 211.6   5.0  34132  289.09 0855.18
2009/04/23 10:46:56.5    -249   -307    -15    396    397 219.1  -2.2  34122  288.94 0855.18
2009/04/23 10:46:56.6    -461   -276    -69    538    543 239.1  -7.3  34126  289.01 0855.18
2009/04/23 10:46:56.7    -494   -276   -127    567    582 240.8 -12.7  34122  288.92 0855.18
2009/04/23 10:46:56.8    -483   -281   -112    559    571 239.8 -11.3  34120  288.91 0855.18
2009/04/23 10:46:56.9    -437   -262   -141    510    530 239.0 -15.5  34108  288.70 0855.18
2009/04/23 10:46:57.0    -430   -242   -176    494    525 240.6 -19.7  34110  288.73 0855.18
2009/04/23 10:46:57.1    -452   -242   -118    513    527 241.8 -13.0  34114  288.79 0855.18
2009/04/23 10:46:57.2    -484   -243   -190    542    574 243.3 -24.4  34116  288.82 0855.18
2009/04/23 10:46:57.3    -405   -162   -154    437    463 248.2 -24.4  34116  288.83 0855.18
2009/04/23 10:46:57.4    -413   -116   -142    429    451 254.3 -23.6  34126  288.99 0855.18
2009/04/23 10:46:57.5    -292   -122   -106    317    335 247.3 -18.6  34118  288.86 0855.18
2009/04/23 10:46:57.6    -223    -60    -95    232    250 254.9 -28.0  34120  288.88 0855.18
2009/04/23 10:46:57.7    -189    -31    -49    192    199 260.5 -14.3  34138  289.21 0855.18
2009/04/23 10:46:57.8     -78    -63    -15    101    103 230.9  -8.8  34140  289.23 0855.18
2009/04/23 10:46:57.9      24   -100    -50    103    114 166.2 -31.7  34134  289.14 0855.18
2009/04/23 10:46:58.0      97   -266    -30    284    286 160.0  -6.1  34134  289.12 0855.18
2009/04/23 10:46:58.1     157   -312     -8    350    351 153.2  -1.4  34146  289.32 0855.18
2009/04/23 10:46:58.2     143   -335     51    365    369 156.8   8.0  34144  289.30 0855.18
2009/04/23 10:46:58.3     100   -379     94    392    404 165.2  13.6  34144  289.30 0855.18
2009/04/23 10:46:58.4     103   -393     81    407    416 165.2  11.3  34142  289.27 0855.18
2009/04/23 10:46:58.5      68   -441     86    447    456 171.2  11.0  34140  289.22 0855.18
2009/04/23 10:46:58.6      59   -400     98    405    417 171.5  13.7  34142  289.27 0855.18
2009/04/23 10:46:58.7      80   -374     18    383    384 167.9   2.8  34140  289.23 0855.18
2009/04/23 10:46:58.8      70   -391     71    398    405 169.8  10.1  34142  289.28 0855.18
2009/04/23 10:46:58.9      47   -392     19    395    396 173.0   2.8  34146  289.33 0855.18
2009/04/23 10:46:59.0      55   -333     42    338    341 170.6   7.2  34146  289.35 0855.18
2009/04/23 10:46:59.1      38   -350     36    353    355 173.8   5.9  34148  289.37 0855.18
2009/04/23 10:46:59.2     155   -346    -21    380    381 155.8  -3.2  34146  289.33 0855.18
2009/04/23 10:46:59.3     123   -313     35    337    339 158.4   6.0  34146  289.33 0855.18
2009/04/23 10:46:59.4      74   -332     -3    341    342 167.3  -0.6  34146  289.35 0855.18
2009/04/23 10:46:59.5     116   -260     24    285    287 155.9   4.9  34144  289.29 0855.18
2009/04/23 10:46:59.6     168   -292     85    337    348 150.1  14.3  34146  289.32 0855.18
2009/04/23 10:46:59.7     201   -295     35    358    360 145.7   5.7  34144  289.30 0855.18
2009/04/23 10:46:59.8     211   -268     69    342    349 141.7  11.5  34140  289.23 0855.18
2009/04/23 10:46:59.9      94   -249     -5    267    268 159.3  -1.1  34130  289.07 0855.18
2009/04/23 10:47:00.0      59   -315   -103    321    337 169.3 -23.0  34132  289.11 0855.18
2009/04/23 10:47:00.1       9   -318    -92    319    332 178.2 -20.9  34130  289.07 0855.18
2009/04/23 10:47:00.2     -55   -370    -20    375    376 188.5  -3.1  34134  289.13 0855.18
2009/04/23 10:47:00.3     128   -386      7    407    408 161.6   1.1  34132  289.11 0855.18
2009/04/23 10:47:00.4     150   -303    103    339    355 153.6  17.0  34136  289.15 0855.18
2009/04/23 10:47:00.5     131   -394     66    416    422 161.5   9.0  34132  289.11 0855.18
2009/04/23 10:47:00.6      85   -479     68    487    492 169.9   8.0  34136  289.17 0855.18
2009/04/23 10:47:00.7     -31   -450    166    452    481 184.0  21.0  34136  289.18 0855.18
2009/04/23 10:47:00.8      -2   -562     32    563    564 180.3   3.3  34112  288.75 0855.18
2009/04/23 10:47:00.9       3   -540     76    541    547 179.7   8.0  34124  288.97 0855.18
2009/04/23 10:47:01.0     105   -492    151    504    527 167.9  16.7  34130  289.06 0855.18
2009/04/23 10:47:01.1     293   -492    133    573    589 149.2  13.1  34130  289.08 0855.18
2009/04/23 10:47:01.2     308   -679     71    746    750 155.6   5.5  34124  288.96 0855.18
2009/04/23 10:47:01.3     288   -677    137    736    749 156.9  10.6  34134  289.12 0855.18
2009/04/23 10:47:01.4      89   -628    163    635    656 171.9  14.4  34138  289.21 0855.18
2009/04/23 10:47:01.5     183   -651     44    677    679 164.3   3.8  34132  289.09 0855.18
2009/04/23 10:47:01.6     140   -725    113    739    748 169.0   8.7  34132  289.09 0855.18
2009/04/23 10:47:01.7     195   -607    111    638    648 162.2   9.9  34136  289.16 0855.18
2009/04/23 10:47:01.8     143   -675     37    691    693 168.0   3.1  34140  289.24 0855.18
2009/04/23 10:47:01.9     -11   -501    -92    502    511 181.3 -10.4  34136  289.18 0855.18
2009/04/23 10:47:02.0      32   -390    -54    392    396 175.3  -7.9  34132  289.11 0855.18
2009/04/23 10:47:02.1      17   -655     73    656    661 178.5   6.4  34136  289.17 0855.18
2009/04/23 10:47:02.2    -177   -661   -100    685    693 195.0  -8.4  34122  288.94 0855.18
2009/04/23 10:47:02.3    -269   -528   -255    593    645 207.0 -29.2  34124  288.96 0855.18
2009/04/23 10:47:02.4    -271   -471   -268    544    606 209.9 -32.6  34126  288.98 0855.18
2009/04/23 10:47:02.5    -256   -550   -160    607    628 205.0 -14.8  34122  288.93 0855.18
2009/04/23 10:47:02.6    -227   -403   -156    463    488 209.4 -23.6  34130  289.05 0855.18
2009/04/23 10:47:02.7    -166   -385    -88    420    430 203.3 -11.9  34134  289.12 0855.18
2009/04/23 10:47:02.8     -99   -237   -142    257    293 202.7 -35.7  34132  289.09 0855.18
2009/04/23 10:47:02.9     -15   -161   -199    162    256 185.3 -60.8  34138  289.19 0855.18
2009/04/23 10:47:03.0      -6   -104   -215    105    239 183.6 -76.3  34140  289.23 0855.18
2009/04/23 10:47:03.1      32   -137   -248    141    285 166.6 -72.5  34144  289.31 0855.18
2009/04/23 10:47:03.2     210   -446   -157    493    517 154.8 -22.8  34136  289.15 0855.18
2009/04/23 10:47:03.3     141   -374    -84    400    409 159.3 -11.9  34138  289.19 0855.17
2009/04/23 10:47:03.4     158   -404   -144    435    458 158.6 -23.8  34134  289.14 0855.17
2009/04/23 10:47:03.5     150   -255    -59    297    303 149.5 -11.3  34128  289.02 0855.17
2009/04/23 10:47:03.6     171   -248     -6    302    303 145.3  -1.2  34132  289.10 0855.17
2009/04/23 10:47:03.7     166    -81     71    185    198 116.2  22.0  34130  289.06 0855.17
2009/04/23 10:47:03.8     110    -90     95    143    171 129.5  36.7  34128  289.04 0855.17
2009/04/23 10:47:03.9      28    -87    167     92    190 161.7  68.9  34142  289.26 0855.17
2009/04/23 10:47:04.0     -10    -46    112     48    121 192.5  75.5  34152  289.45 0855.17
2009/04/23 10:47:04.1      92    -76    197    120    230 129.5  65.7  34146  289.35 0855.17
2009/04/23 10:47:04.2     171   -103    170    200    262 121.1  44.8  34138  289.19 0855.17
2009/04/23 10:47:04.3     120   -209    135    242    277 150.1  31.4  34134  289.14 0855.16
2009/04/23 10:47:04.4     133   -157    100    206    228 139.7  27.4  34128  289.04 0855.16
2009/04/23 10:47:04.5     -71   -158     -6    174    175 204.1  -2.2  34134  289.13 0855.16
2009/04/23 10:47:04.6     -41    -83    -36     93     99 206.7 -26.4  34134  289.13 0855.16
2009/04/23 10:47:04.7      -2   -145     28    146    149 180.9  11.1  34136  289.16 0855.16
2009/04/23 10:47:04.8      47   -141    -21    149    151 161.3  -8.2  34136  289.16 0855.16
2009/04/23 10:47:04.9      75    -35    -39     83     91 115.3 -31.5  34134  289.13 0855.16
2009/04/23 10:47:05.0     118     85      0    146    147  54.0  -0.3  34136  289.16 0855.16
2009/04/23 10:47:05.1     188     58     47    197    203  72.7  13.5  34136  289.16 0855.16
2009/04/23 10:47:05.2     208    107    -49    235    241  62.7 -11.9  34146  289.34 0855.16
2009/04/23 10:47:05.3     265    202      6    334    335  52.6   1.1  34154  289.48 0855.16
2009/04/23 10:47:05.4     189     73   -164    203    260  68.7 -47.7  34138  289.20 0855.16
2009/04/23 10:47:05.5     240    185   -156    304    341  52.3 -33.7  34138  289.21 0855.16
2009/04/23 10:47:05.6     222    151   -140    269    303  55.8 -33.7  34140  289.22 0855.16
2009/04/23 10:47:05.7     190    231   -120    300    323  39.4 -27.4  34150  289.41 0855.16
2009/04/23 10:47:05.8     210    186    -99    281    297  48.4 -24.6  34162  289.61 0855.16
2009/04/23 10:47:05.9     201    177   -188    269    328  48.6 -42.8  34154  289.46 0855.16
2009/04/23 10:47:06.0     346    186    -65    394    400  61.7  -9.4  34142  289.26 0855.16
2009/04/23 10:47:06.1     264    175    -79    318    328  56.4 -14.1  34154  289.46 0855.16
2009/04/23 10:47:06.2     254     11    116    255    280  87.4  26.2  34152  289.42 0855.16
2009/04/23 10:47:06.3     236     67    213    246    325  74.0  45.4  34164  289.64 0855.17
2009/04/23 10:47:06.4     270     60    167    277    323  77.4  34.0  34160  289.56 0855.17
2009/04/23 10:47:06.5     338    146     32    369    371  66.7   5.0  34146  289.33 0855.17
2009/04/23 10:47:06.6     166     96     -9    192    193  60.0  -2.8  34148  289.38 0855.17
2009/04/23 10:47:06.7     121     17    185    123    222  82.0  63.4  34166  289.67 0855.17
2009/04/23 10:47:06.8     158      0    135    159    208  90.0  44.5  34162  289.62 0855.17
2009/04/23 10:47:06.9      16     61    136     64    150  15.1  73.1  34188  290.06 0855.17
2009/04/23 10:47:07.0      69     10    190     70    202  81.2  79.2  34182  289.96 0855.17
2009/04/23 10:47:07.1     236     69    165    247    297  73.6  37.0  34164  289.64 0855.17
2009/04/23 10:47:07.2     173     57    164    183    245  71.6  46.4  34162  289.60 0855.17
2009/04/23 10:47:07.3     160     15    189    161    248  84.3  55.4  34166  289.67 0855.17
2009/04/23 10:47:07.4     173     51    188    181    260  73.4  51.2  34162  289.61 0855.17
2009/04/23 10:47:07.5     179     56    278    188    335  72.5  62.7  34176  289.85 0855.17
2009/04/23 10:47:07.6     304     23     57    305    311  85.7  10.6  34146  289.32 0855.17
2009/04/23 10:47:07.7     221     80     -9    236    237  70.1  -2.3  34144  289.31 0855.17
2009/04/23 10:47:07.8     246     66     -4    255    256  74.9  -1.1  34142  289.27 0855.17
2009/04/23 10:47:07.9     242     73     32    253    256  73.2   7.2  34142  289.27 0855.17
2009/04/23 10:47:08.0     238     17     81    239    253  85.9  18.9  34144  289.29 0855.17
2009/04/23 10:47:08.1     252     46     89    257    273  79.5  19.2  34148  289.37 0855.17
2009/04/23 10:47:08.2     265    -76    111    276    297 106.0  23.0  34146  289.34 0855.17
2009/04/23 10:47:08.3     274   -145    108    310    329 117.9  19.2  34148  289.36 0855.18
2009/04/23 10:47:08.4     252   -209     77    328    337 129.8  13.3  34142  289.28 0855.18
2009/04/23 10:47:08.5     181   -153     25    238    240 130.2   6.1  34150  289.41 0855.18
2009/04/23 10:47:08.6     185   -167    116    250    275 132.0  26.6  34148  289.37 0855.18
2009/04/23 10:47:08.7     127   -171    118    214    244 143.3  31.3  34150  289.39 0855.18
2009/04/23 10:47:08.8      75    -84    161    113    196 138.1  61.5  34164  289.65 0855.18
2009/04/23 10:47:08.9     105   -177    148    207    254 149.3  39.1  34152  289.42 0855.18
2009/04/23 10:47:09.0      31   -162    147    166    221 168.9  46.2  34150  289.40 0855.18
2009/04/23 10:47:09.1      41   -145    128    151    197 164.0  44.8  34152  289.45 0855.18
2009/04/23 10:47:09.2      17   -124    104    126    163 172.0  43.7  34152  289.43 0855.18
2009/04/23 10:47:09.3      27   -138    113    141    180 168.9  43.0  34150  289.41 0855.18
2009/04/23 10:47:09.4      65   -153     97    167    193 156.8  33.1  34148  289.36 0855.18
2009/04/23 10:47:09.5     -10   -132    103    133    168 184.4  42.0  34152  289.43 0855.18
2009/04/23 10:47:09.6     -79   -109     62    135    148 216.1  26.6  34148  289.38 0855.18
2009/04/23 10:47:09.7    -137    -59    -31    150    154 246.5 -11.9  34158  289.53 0855.18
2009/04/23 10:47:09.8    -141    -56    -58    152    162 248.3 -26.1  34162  289.62 0855.18
2009/04/23 10:47:09.9    -335    -93    -90    348    360 254.5 -14.6  34144  289.30 0855.18
2009/04/23 10:47:10.0    -417    -51    -81    421    429 263.0 -10.9  34148  289.38 0855.18
2009/04/23 10:47:10.1    -457    -79   -166    464    493 260.1 -19.7  34146  289.34 0855.18
2009/04/23 10:47:10.2    -520    -68   -176    525    554 262.5 -18.6  34142  289.26 0855.18
2009/04/23 10:47:10.3    -390    -67   -185    396    437 260.1 -31.4  34142  289.27 0855.20
2009/04/23 10:47:10.4    -496    -12   -208    497    538 268.6 -28.5  34152  289.43 0855.20
2009/04/23 10:47:10.5    -501     -3   -209    502    543 269.6 -28.3  34146  289.35 0855.20
2009/04/23 10:47:10.6    -580    -61   -272    584    644 263.9 -31.3  34156  289.52 0855.20
2009/04/23 10:47:10.7    -553    -58   -349    557    657 263.9 -39.5  34154  289.48 0855.20
2009/04/23 10:47:10.8    -558     46   -200    560    595 274.8 -19.7  34190  290.07 0855.20
2009/04/23 10:47:10.9    -526    130   -194    542    575 283.9 -24.8  34196  290.18 0855.20
2009/04/23 10:47:11.0    -586     19    -85    587    594 271.9  -8.3  34176  289.83 0855.20
2009/04/23 10:47:11.1    -547    -58   -131    551    567 263.9 -13.4  34176  289.85 0855.20
2009/04/23 10:47:11.2    -594    -77   -209    599    634 262.5 -24.4  34150  289.40 0855.20
2009/04/23 10:47:11.3    -570    -24   -171    571    596 267.5 -21.7  34146  289.34 0855.20
2009/04/23 10:47:11.4    -644    -28   -245    645    689 267.5 -26.2  34156  289.49 0855.20
2009/04/23 10:47:11.5    -490      9    -88    491    499 271.2 -10.2  34178  289.86 0855.20
2009/04/23 10:47:11.6    -477    -54    -74    481    487 263.5  -8.8  34180  289.91 0855.20
2009/04/23 10:47:11.7    -517   -101   -180    527    556 258.9 -23.9  34154  289.46 0855.20
2009/04/23 10:47:11.8    -480    -81   -173    487    516 260.4 -24.8  34154  289.47 0855.20
2009/04/23 10:47:11.9    -451   -125   -162    469    497 254.4 -19.1  34172  289.78 0855.20
2009/04/23 10:47:12.0    -402   -172   -161    438    466 246.8 -25.4  34150  289.39 0855.20
2009/04/23 10:47:12.1    -294   -144    -90    328    340 243.8 -20.0  34146  289.33 0855.20
2009/04/23 10:47:12.2    -262    -91   -101    278    295 250.7 -25.3  34144  289.31 0855.20
2009/04/23 10:47:12.3    -270    -70   -131    279    308 255.4 -31.5  34150  289.41 0855.20
2009/04/23 10:47:12.4    -292   -109   -155    312    348 249.4 -32.6  34156  289.52 0855.20
2009/04/23 10:47:12.5    -180     17    -98    181    205 275.5 -35.0  34162  289.60 0855.20
2009/04/23 10:47:12.6    -253    -23    -75    255    266 264.7 -16.4  34180  289.92 0855.20
2009/04/23 10:47:12.7    -174    -64    -83    186    203 249.8 -29.6  34174  289.80 0855.20
2009/04/23 10:47:12.8    -141      7    -87    142    166 273.0 -38.8  34172  289.79 0855.20
2009/04/23 10:47:12.9    -182    -60    -87    192    210 251.6 -30.6  34172  289.79 0855.20
2009/04/23 10:47:13.0    -168     25   -154    170    229 278.6 -51.3  34172  289.79 0855.20
2009/04/23 10:47:13.1    -143     17   -148    145    207 277.0 -54.8  34180  289.91 0855.20
2009/04/23 10:47:13.2    -119     -1   -142    120    185 269.2 -60.2  34178  289.89 0855.20
2009/04/23 10:47:13.3    -152     11    -75    153    170 274.3 -32.4  34176  289.85 0855.20
2009/04/23 10:47:13.4    -163    -11    -45    164    171 265.9 -15.5  34182  289.94 0855.20
2009/04/23 10:47:13.5    -248     69    -40    258    262 285.7  -9.0  34186  290.02 0855.20
2009/04/23 10:47:13.6    -252   -161    -39    300    303 237.5  -7.5  34178  289.86 0855.20
2009/04/23 10:47:13.7    -259   -227    -88    345    357 228.7 -14.3  34162  289.60 0855.20
2009/04/23 10:47:13.8     -10   -260    -84    261    275 182.2 -17.9  34168  289.70 0855.20
2009/04/23 10:47:13.9       0   -274   -143    275    309 180.0 -33.7  34156  289.49 0855.20
2009/04/23 10:47:14.0     -50   -312   -111    317    337 189.1 -19.4  34168  289.72 0855.20
2009/04/23 10:47:14.1    -110   -371    -21    387    388 196.5  -3.2  34166  289.69 0855.20
2009/04/23 10:47:14.2      17   -402    -82    403    412 177.5 -11.5  34148  289.36 0855.20
2009/04/23 10:47:14.3     -26   -329     37    331    334 184.6   6.4  34166  289.69 0855.21
2009/04/23 10:47:14.4       4   -293     79    294    305 179.1  15.2  34152  289.42 0855.21
2009/04/23 10:47:14.5     -74   -259     -5    270    271 196.0  -1.1  34162  289.61 0855.21
2009/04/23 10:47:14.6      26   -509     43    510    513 177.0   4.9  34158  289.54 0855.21
2009/04/23 10:47:14.7     160   -545    -40    569    571 163.6  -4.1  34156  289.51 0855.21
2009/04/23 10:47:14.9     126   -675     37    687    689 169.4   3.1  34154  289.46 0855.21
2009/04/23 10:47:14.9     233   -596     65    641    645 158.6   5.8  34152  289.45 0855.21
2009/04/23 10:47:15.0     330   -660     86    739    745 153.4   6.7  34138  289.19 0855.21
2009/04/23 10:47:15.1     302   -696     70    759    763 156.5   5.3  34132  289.11 0855.21
2009/04/23 10:47:15.2     173   -660     11    683    684 165.3   1.0  34140  289.22 0855.21
2009/04/23 10:47:15.3     124   -609    -40    622    624 168.4  -3.7  34136  289.16 0855.21
2009/04/23 10:47:15.4      71   -499    -40    505    507 171.9  -4.6  34140  289.23 0855.21
2009/04/23 10:47:15.5       2   -570    -46    571    574 179.8  -4.7  34146  289.34 0855.21
2009/04/23 10:47:15.6     167   -683     10    704    705 166.2   0.9  34152  289.42 0855.21
2009/04/23 10:47:15.7     132   -768     69    780    784 170.2   5.1  34146  289.34 0855.21
2009/04/23 10:47:15.8     120   -767    129    777    788 171.1   9.5  34144  289.29 0855.21
2009/04/23 10:47:15.9     113   -742     79    751    756 171.3   6.1  34132  289.09 0855.21
2009/04/23 10:47:16.0     178   -748    120    769    779 166.6   8.9  34138  289.20 0855.21
2009/04/23 10:47:16.1     182   -685    229    709    746 165.1  17.9  34142  289.25 0855.21
2009/04/23 10:47:16.2     117   -571    -52    584    587 168.4  -5.1  34150  289.39 0855.21
2009/04/23 10:47:16.3     129   -634     51    648    651 168.4   4.6  34170  289.74 0855.24
2009/04/23 10:47:16.4      89   -602    -92    609    616 171.5  -8.6  34158  289.54 0855.24
2009/04/23 10:47:16.5    -123   -536     -8    551    552 193.0  -0.9  34174  289.82 0855.24
2009/04/23 10:47:16.6    -268   -513     80    580    586 207.6   7.9  34154  289.46 0855.24
2009/04/23 10:47:16.7     -94   -550    -25    558    559 189.7  -2.6  34158  289.55 0855.24
2009/04/23 10:47:16.8     -90   -552     -8    560    561 189.3  -0.9  34146  289.35 0855.24
2009/04/23 10:47:16.9      46   -665    -43    667    669 176.0  -3.7  34108  288.68 0855.24
2009/04/23 10:47:17.0      22   -561     32    562    563 177.7   3.3  34138  289.21 0855.24
2009/04/23 10:47:17.1       1   -628     27    629    630 179.9   2.5  34104  288.62 0855.24
2009/04/23 10:47:17.2     -39   -651    -91    653    660 183.5  -8.0  34110  288.72 0855.24
2009/04/23 10:47:17.3     -56   -725    -92    728    734 184.5  -7.2  34094  288.45 0855.24
2009/04/23 10:47:17.4     -82   -706    -98    711    718 186.7  -7.9  34098  288.52 0855.24
2009/04/23 10:47:17.5     -68   -632    -60    636    640 186.2  -5.5  34104  288.62 0855.24
2009/04/23 10:47:17.6     -31   -560    -96    561    570 183.2  -9.8  34094  288.47 0855.24
2009/04/23 10:47:17.7    -137   -505   -163    524    549 195.2 -17.3  34130  289.06 0855.24
2009/04/23 10:47:17.8      17   -516    -11    517    518 178.1  -1.3  34094  288.44 0855.24
2009/04/23 10:47:18.0       0   -489    -21    490    491 179.9  -2.5  34102  288.59 0855.24
2009/04/23 10:47:18.0     -70   -503    -97    509    519 188.0 -10.8  34126  289.01 0855.24
2009/04/23 10:47:18.1     -41   -462      3    464    465 185.2   0.5  34110  288.74 0855.24
2009/04/23 10:47:18.2     -69   -438     -9    444    445 189.0  -1.3  34120  288.90 0855.24
2009/04/23 10:47:18.3     -27   -375     24    376    377 184.2   3.7  34090  288.38 0855.27
2009/04/23 10:47:18.5     -13   -397     45    398    401 182.0   6.5  34106  288.66 0855.27
2009/04/23 10:47:18.6      12   -439     57    440    444 178.4   7.4  34108  288.68 0855.27
2009/04/23 10:47:18.7      82   -441     33    449    451 169.4   4.2  34104  288.63 0855.27
2009/04/23 10:47:18.8     104   -435     22    448    449 166.5   2.9  34110  288.73 0855.27
2009/04/23 10:47:18.9      62   -386   -132    392    414 170.9 -18.7  34118  288.87 0855.27
2009/04/23 10:47:19.0    -145   -476    -62    498    502 197.0  -7.2  34114  288.79 0855.27
2009/04/23 10:47:19.1    -120   -341    -86    362    373 199.5 -13.4  34110  288.71 0855.27
2009/04/23 10:47:19.2     157   -331   -154    367    398 154.5 -28.5  34116  288.81 0855.27
2009/04/23 10:47:19.3      29   -392   -140    394    418 175.7 -24.7  34128  289.02 0855.27
2009/04/23 10:47:19.4      49   -413   -155    417    444 173.1 -25.7  34134  289.14 0855.27
2009/04/23 10:47:19.5       7   -457   -157    458    485 179.1 -18.9  34128  289.03 0855.27
2009/04/23 10:47:19.6      51   -472   -110    475    488 173.8 -13.1  34120  288.91 0855.27
2009/04/23 10:47:19.7      32   -390    -96    392    404 175.3 -13.8  34120  288.88 0855.27
2009/04/23 10:47:19.8      77   -351    -39    360    363 167.5  -6.2  34120  288.91 0855.27
2009/04/23 10:47:19.9     113   -376    -65    393    399 163.2  -9.5  34120  288.88 0855.27
2009/04/23 10:47:20.0      88   -448     13    457    458 168.8   1.7  34118  288.85 0855.27
2009/04/23 10:47:20.1      98   -363    -41    377    380 164.9  -6.2  34116  288.84 0855.27
2009/04/23 10:47:20.2     104   -281     93    300    315 159.7  17.3  34118  288.85 0855.27
2009/04/23 10:47:20.3     131   -376     78    399    407 160.7  11.1  34120  288.89 0855.27
2009/04/23 10:47:20.4      86   -353    -48    364    368 166.3  -7.6  34116  288.81 0855.31
2009/04/23 10:47:20.5       0   -326    -30    327    329 179.9  -5.3  34118  288.85 0855.31
2009/04/23 10:47:20.6      53   -360     93    365    377 171.5  14.4  34116  288.82 0855.31
2009/04/23 10:47:20.7      60   -325     93    331    344 169.5  15.7  34120  288.89 0855.31
2009/04/23 10:47:20.8      75   -328     25    337    338 167.1   4.3  34120  288.88 0855.31
2009/04/23 10:47:20.9     152   -397    -20    426    427 159.1  -2.7  34116  288.82 0855.31
2009/04/23 10:47:21.0     188   -386     68    430    436 154.0   9.0  34116  288.83 0855.31
2009/04/23 10:47:21.1     129   -381     52    403    407 161.3   7.5  34112  288.77 0855.31
2009/04/23 10:47:21.2     125   -353     35    375    377 160.4   5.5  34116  288.84 0855.31
2009/04/23 10:47:21.3      76   -311     68    321    329 166.2  12.0  34116  288.83 0855.31
2009/04/23 10:47:21.4      10   -351    101    352    367 178.2  16.0  34112  288.77 0855.31
2009/04/23 10:47:21.5       7   -469    141    470    491 179.1  16.8  34114  288.79 0855.31
2009/04/23 10:47:21.6      58   -407    137    412    435 171.9  18.5  34120  288.90 0855.31
2009/04/23 10:47:21.7      20   -361    -16    362    363 176.8  -2.6  34134  289.13 0855.31
2009/04/23 10:47:21.8       7   -460     -4    461    462 179.1  -0.6  34130  289.05 0855.31
2009/04/23 10:47:21.9      81   -400     53    409    413 168.5   7.4  34128  289.02 0855.31
2009/04/23 10:47:22.0     149   -463     -3    487    488 162.1  -0.4  34134  289.13 0855.31
2009/04/23 10:47:22.1     144   -465     46    487    490 162.7   5.5  34126  288.98 0855.31
2009/04/23 10:47:22.2     126   -442    104    460    472 164.1  12.8  34128  289.03 0855.31
2009/04/23 10:47:22.3     104   -492     84    504    511 168.0   9.5  34130  289.05 0855.31
2009/04/23 10:47:22.4     145   -457     89    480    489 162.3  10.6  34134  289.13 0855.25
2009/04/23 10:47:22.5     125   -359    178    381    420 160.7  27.0  34130  289.07 0855.25
2009/04/23 10:47:22.6     117   -400     48    417    420 163.6   6.7  34144  289.31 0855.25
2009/04/23 10:47:22.7      87   -365    -17    376    377 166.6  -2.6  34138  289.20 0855.25
2009/04/23 10:47:22.8      50   -320    -17    325    326 171.0  -3.0  34142  289.27 0855.25
2009/04/23 10:47:22.9       6   -500     65    501    506 179.3   7.4  34124  288.95 0855.25
2009/04/23 10:47:23.0      80   -456     57    464    468 170.0   7.1  34114  288.79 0855.25
2009/04/23 10:47:23.1     119   -495     20    510    511 166.5   2.3  34104  288.64 0855.25
2009/04/23 10:47:23.2     165   -464     -2    493    494 160.4  -0.3  34104  288.64 0855.25
2009/04/23 10:47:23.3     155   -470     -6    495    496 161.7  -0.7  34114  288.79 0855.25
2009/04/23 10:47:23.4     220   -430     14    483    484 152.9   1.7  34118  288.86 0855.25
2009/04/23 10:47:23.5     276   -390     -2    478    479 144.7  -0.3  34120  288.91 0855.25
2009/04/23 10:47:23.6     179   -349    -93    393    404 152.8 -13.4  34110  288.74 0855.25
2009/04/23 10:47:23.7     116   -328   -160    349    383 160.5 -30.9  34116  288.82 0855.25
2009/04/23 10:47:23.8     147   -316   -171    349    388 155.0 -32.3  34126  288.99 0855.25
2009/04/23 10:47:23.9     164   -304   -152    346    377 151.6 -29.6  34126  288.98 0855.25
2009/04/23 10:47:24.0      60   -252   -161    260    305 166.6 -39.4  34122  288.93 0855.25
2009/04/23 10:47:24.1      67   -222   -148    233    276 163.1 -39.9  34126  288.98 0855.25
2009/04/23 10:47:24.2      67   -210   -114    221    248 162.2 -33.7  34126  288.98 0855.25
2009/04/23 10:47:24.3      41   -205    -69    210    221 168.7 -23.8  34122  288.94 0855.25
2009/04/23 10:47:24.4      65   -222    -42    232    236 163.5 -10.5  34124  288.95 0855.23
2009/04/23 10:47:24.5       2   -215    -50    216    222 179.3 -13.3  34122  288.94 0855.23
2009/04/23 10:47:24.6      -9   -350     64    351    357 181.6  10.3  34126  289.01 0855.23
2009/04/23 10:47:24.7     -45   -342    -10    346    347 187.6  -1.7  34126  289.01 0855.23
2009/04/23 10:47:24.8     -52   -309    -70    314    322 189.7 -12.7  34128  289.02 0855.23
2009/04/23 10:47:24.9    -139   -342     56    370    375 202.2   8.7  34134  289.13 0855.23
2009/04/23 10:47:25.0     -77   -290    123    301    325 194.9  23.6  34132  289.09 0855.23
2009/04/23 10:47:25.1       4   -293    164    294    336 179.1  31.6  34130  289.07 0855.23
2009/04/23 10:47:25.2     -71   -403     91    410    421 190.0  12.6  34150  289.41 0855.23
2009/04/23 10:47:25.3     -90   -460    144    469    491 191.1  17.1  34150  289.39 0855.23
2009/04/23 10:47:25.4      33   -469    105    471    483 175.9  12.6  34134  289.13 0855.21
2009/04/23 10:47:25.5     -57   -459     31    463    465 187.1   3.9  34136  289.17 0855.21
2009/04/23 10:47:25.6     -30   -396     56    398    403 184.4   8.0  34142  289.25 0855.21
2009/04/23 10:47:25.7     -94   -371     -3    383    384 194.3  -0.5  34138  289.20 0855.21
2009/04/23 10:47:25.8    -102   -368    -40    382    385 195.5  -6.0  34142  289.25 0855.21
2009/04/23 10:47:25.9     -93   -377    -46    389    392 193.9  -6.8  34146  289.32 0855.21
2009/04/23 10:47:26.0    -111   -416    -54    431    435 195.1  -7.2  34142  289.26 0855.21
2009/04/23 10:47:26.1     -50   -402     27    406    407 187.2   3.9  34138  289.21 0855.21
2009/04/23 10:47:26.2      17   -372     32    373    375 177.3   5.0  34140  289.23 0855.21
2009/04/23 10:47:26.3      25   -326    -35    328    330 175.5  -6.3  34146  289.32 0855.21
2009/04/23 10:47:26.4     -34   -327    -12    329    330 186.1  -2.2  34150  289.40 0855.21
2009/04/23 10:47:26.5      10   -292     80    293    304 178.0  15.3  34148  289.36 0855.21
2009/04/23 10:47:26.6      24   -309     -1    311    312 175.5  -0.2  34146  289.34 0855.21
2009/04/23 10:47:26.7      70   -327   -110    335    353 167.9 -18.3  34148  289.38 0855.21
2009/04/23 10:47:26.8      73   -295   -110    304    323 166.0 -25.2  34148  289.36 0855.21
2009/04/23 10:47:26.9     -93   -186    -72    209    221 206.7 -23.6  34144  289.31 0855.21
2009/04/23 10:47:27.0    -184   -145      4    235    236 231.8   1.0  34148  289.36 0855.21
2009/04/23 10:47:27.1    -212   -333     22    396    397 212.5   3.2  34146  289.33 0855.21
2009/04/23 10:47:27.2    -246   -330    -59    413    418 216.7  -8.2  34124  288.95 0855.21
2009/04/23 10:47:27.3    -324   -315   -128    453    470 225.8 -20.4  34124  288.96 0855.21
2009/04/23 10:47:27.4    -338   -376   -119    506    520 221.9 -13.3  34120  288.88 0855.21
2009/04/23 10:47:27.5    -290   -316    -90    430    440 222.5 -11.9  34122  288.92 0855.21
2009/04/23 10:47:27.6    -345   -323    -84    473    481 226.9 -10.1  34146  289.32 0855.21
2009/04/23 10:47:27.7    -397   -360   -102    536    546 227.8 -10.8  34112  288.77 0855.21
2009/04/23 10:47:27.8    -345   -351   -127    493    510 224.5 -14.5  34108  288.69 0855.21
2009/04/23 10:47:27.9    -372   -402   -189    548    580 222.8 -19.1  34120  288.88 0855.21
2009/04/23 10:47:28.0    -314   -402   -167    511    538 218.0 -18.2  34120  288.89 0855.21
2009/04/23 10:47:28.1    -292   -428   -185    519    552 214.3 -19.7  34132  289.11 0855.21
2009/04/23 10:47:28.2    -283   -361   -160    460    487 218.1 -24.3  34116  288.81 0855.21
2009/04/23 10:47:28.3    -291   -368   -177    470    502 218.3 -26.0  34114  288.78 0855.21
2009/04/23 10:47:28.4    -314   -328   -205    455    499 223.7 -30.4  34116  288.83 0855.21
2009/04/23 10:47:28.5    -292   -292   -178    414    450 225.0 -29.3  34112  288.77 0855.21
2009/04/23 10:47:28.6    -288   -239   -176    375    414 230.3 -31.5  34112  288.76 0855.21
2009/04/23 10:47:28.7    -361   -183   -151    405    432 243.1 -25.9  34120  288.89 0855.21
2009/04/23 10:47:28.8    -140   -109    -23    178    180 232.2  -7.5  34122  288.92 0855.21
2009/04/23 10:47:28.9     -32   -387     69    389    396 184.9  10.1  34142  289.26 0855.21
2009/04/23 10:47:29.0      29   -366     25    368    369 175.4   4.0  34144  289.30 0855.21
2009/04/23 10:47:29.1      16   -364    -42    365    368 177.4  -6.7  34146  289.33 0855.21
2009/04/23 10:47:29.2     -91   -442   -115    452    467 191.7 -14.3  34138  289.21 0855.21
2009/04/23 10:47:29.3    -230   -458   -182    513    545 206.7 -19.5  34132  289.09 0855.21
2009/04/23 10:47:29.4    -217   -402   -154    457    482 208.4 -23.7  34136  289.18 0855.21
2009/04/23 10:47:29.5    -243   -404    -94    472    482 211.0 -11.3  34134  289.13 0855.21
2009/04/23 10:47:29.6    -129   -362    -61    385    391 199.7  -9.1  34140  289.23 0855.21
2009/04/23 10:47:29.7     -68   -289    -48    297    302 193.3  -9.3  34144  289.29 0855.21
2009/04/23 10:47:29.8    -142   -259     63    296    303 208.9  12.2  34156  289.51 0855.21
2009/04/23 10:47:29.9     -96   -218     90    239    255 203.7  21.7  34162  289.61 0855.21
2009/04/23 10:47:30.0     -74   -127    105    148    181 210.3  39.1  34160  289.58 0855.21
2009/04/23 10:47:30.1    -133   -183    105    227    250 216.1  26.6  34168  289.70 0855.21
2009/04/23 10:47:30.2    -104   -238     17    261    262 203.7   3.8  34148  289.37 0855.21
2009/04/23 10:47:30.3    -158   -179    -47    239    244 221.4 -11.1  34146  289.32 0855.21
2009/04/23 10:47:30.4    -133   -166    -64    214    224 218.7 -16.6  34142  289.28 0855.21
2009/04/23 10:47:30.5    -118   -186    -10    221    222 212.5  -2.6  34138  289.21 0855.21
2009/04/23 10:47:30.6    -105   -231    -79    254    266 204.5 -17.3  34138  289.19 0855.21
2009/04/23 10:47:30.7    -183   -228   -141    293    325 218.7 -31.8  34136  289.15 0855.21
2009/04/23 10:47:30.8    -227   -270   -105    354    370 220.1 -16.6  34140  289.23 0855.21
2009/04/23 10:47:30.9    -175   -284    -22    334    335 211.7  -3.9  34140  289.23 0855.21
2009/04/23 10:47:31.0     -78   -290    -19    301    302 195.2  -3.7  34140  289.22 0855.21
2009/04/23 10:47:31.1     -23   -271    -69    273    282 184.9 -14.3  34138  289.20 0855.21
2009/04/23 10:47:31.2     -57   -260    -97    267    284 192.5 -25.3  34142  289.25 0855.21
2009/04/23 10:47:31.3      67   -273   -167    282    327 166.2 -37.9  34138  289.20 0855.21
2009/04/23 10:47:31.4      47   -230   -117    235    262 168.4 -32.9  34138  289.20 0855.19
2009/04/23 10:47:31.5      35   -206   -108    210    236 170.2 -33.7  34142  289.28 0855.19
2009/04/23 10:47:31.6      33   -184    -69    188    200 169.8 -25.3  34144  289.30 0855.19
2009/04/23 10:47:31.7      25   -147    -89    150    174 170.3 -38.1  34146  289.33 0855.19
2009/04/23 10:47:31.8      71   -129    -74    148    165 151.0 -33.1  34146  289.33 0855.19
2009/04/23 10:47:31.9      81    -97    -93    127    157 139.9 -44.3  34146  289.35 0855.19
2009/04/23 10:47:32.0      34    -85    -37     92     99 158.2 -27.4  34150  289.41 0855.19
2009/04/23 10:47:32.1     -14    -25    -28     29     40 209.0 -54.4  34152  289.45 0855.19
2009/04/23 10:47:32.2     -12     35    -25     38     45 341.3 -40.0  34154  289.46 0855.19
2009/04/23 10:47:32.3     -59     63    -43     87     97 317.2 -32.2  34152  289.45 0855.19
2009/04/23 10:47:32.4     -92     14   -109     94    143 278.8 -58.7  34150  289.41 0855.19
2009/04/23 10:47:32.5     -53   -154    -59    164    174 199.2 -24.6  34166  289.67 0855.19
2009/04/23 10:47:32.6     -58   -165    -31    176    179 199.6 -10.3  34168  289.70 0855.19
2009/04/23 10:47:32.7     -15   -176    -50    177    183 184.9 -20.4  34160  289.57 0855.19
2009/04/23 10:47:32.8      31   -152   -122    156    198 168.4 -46.4  34156  289.50 0855.19
2009/04/23 10:47:32.9      42   -190    -32    195    198 167.3  -9.3  34156  289.50 0855.19
2009/04/23 10:47:33.0      57   -254    -61    261    269 167.3 -13.3  34164  289.63 0855.19
2009/04/23 10:47:33.1      -4   -241    -98    242    261 181.0 -27.5  34168  289.70 0855.19
2009/04/23 10:47:33.2      29   -264    -90    266    281 173.7 -18.7  34156  289.49 0855.19
2009/04/23 10:47:33.3      46   -287    -81    291    302 170.9 -20.2  34158  289.54 0855.19
2009/04/23 10:47:33.4      54   -249    -70    255    265 167.7 -15.5  34152  289.42 0855.19
2009/04/23 10:47:33.5      60   -258    -73    265    275 166.9 -15.4  34150  289.39 0855.19
2009/04/23 10:47:33.6      68   -273    -64    282    290 166.0 -12.9  34152  289.42 0855.19
2009/04/23 10:47:33.7      23   -295    -52    296    301 175.5 -10.1  34152  289.44 0855.19
2009/04/23 10:47:33.8      22   -314     10    315    316 176.0   1.9  34152  289.42 0855.19
2009/04/23 10:47:33.9      10   -371    -14    372    373 178.4  -2.2  34148  289.38 0855.19
2009/04/23 10:47:34.0      16   -299      4    300    301 176.9   0.8  34146  289.34 0855.19
2009/04/23 10:47:34.1      44   -308     38    312    315 171.8   7.1  34146  289.34 0855.19
2009/04/23 10:47:34.2      69   -435     -8    441    442 170.9  -1.2  34144  289.31 0855.19
2009/04/23 10:47:34.3      61   -385    -37    390    392 170.9  -5.5  34148  289.37 0855.19
2009/04/23 10:47:34.4      71   -351    -47    359    363 168.5  -7.6  34146  289.32 0855.19
2009/04/23 10:47:34.5      32   -330      9    332    333 174.4   1.6  34150  289.40 0855.19
2009/04/23 10:47:34.6      21   -284     65    285    293 175.6  12.9  34148  289.37 0855.19
2009/04/23 10:47:34.7       2   -313     92    314    328 179.5  16.3  34150  289.39 0855.19
2009/04/23 10:47:34.8       3   -256    150    257    297 179.3  32.9  34146  289.34 0855.19
2009/04/23 10:47:34.9       4   -289    141    290    322 179.1  27.8  34150  289.41 0855.19
2009/04/23 10:47:35.0      28   -260    130    262    292 173.8  28.2  34152  289.42 0855.19
2009/04/23 10:47:35.1      16   -219    153    220    267 175.6  38.4  34152  289.42 0855.19
2009/04/23 10:47:35.2      82   -234    141    249    286 160.6  32.1  34152  289.42 0855.19
2009/04/23 10:47:35.3      94   -263    125    280    306 160.2  25.7  34152  289.42 0855.19
2009/04/23 10:47:35.4      81   -367    165    376    410 167.5  25.2  34152  289.42 0855.23
2009/04/23 10:47:35.5       6   -359    184    360    404 178.9  29.2  34156  289.52 0855.23
2009/04/23 10:47:35.6      40   -402    100    405    418 174.2  13.9  34158  289.53 0855.23
2009/04/23 10:47:35.7      37   -341     22    344    345 173.8   3.7  34154  289.47 0855.23
2009/04/23 10:47:35.8      33   -293     22    295    296 173.5   4.4  34148  289.36 0855.23
2009/04/23 10:47:35.9      78   -412     71    420    427 169.2   9.7  34158  289.53 0855.23
2009/04/23 10:47:36.0     133   -437    115    457    472 163.1  14.2  34166  289.66 0855.23
2009/04/23 10:47:36.1     137   -415    124    438    456 161.7  15.8  34160  289.56 0855.23
2009/04/23 10:47:36.2     158   -374    199    407    453 157.1  28.0  34156  289.49 0855.23
2009/04/23 10:47:36.3      31   -403     87    405    415 175.5  12.1  34154  289.48 0855.23
2009/04/23 10:47:36.4     -98   -452    125    463    480 192.3  15.2  34154  289.47 0855.23
2009/04/23 10:47:36.5     -40   -456    110    458    472 185.1  13.5  34162  289.59 0855.23
2009/04/23 10:47:36.6     -29   -480    117    481    495 183.5  13.7  34164  289.64 0855.23
2009/04/23 10:47:36.7     -30   -400     73    402    409 184.4  10.4  34164  289.63 0855.23
2009/04/23 10:47:36.8     -16   -365     43    366    369 182.6   6.8  34162  289.60 0855.23
2009/04/23 10:47:36.9     -24   -371     79    372    381 183.7  12.0  34164  289.64 0855.23
2009/04/23 10:47:37.0       0   -294     41    295    298 180.0   8.0  34166  289.66 0855.23
2009/04/23 10:47:37.1      -4   -274     43    275    279 180.9   8.9  34168  289.70 0855.23
2009/04/23 10:47:37.2     -10   -229     15    230    231 182.7   3.8  34162  289.62 0855.23
2009/04/23 10:47:37.3     -64   -194    -10    205    206 198.3  -2.8  34162  289.62 0855.23
2009/04/23 10:47:37.4    -127   -152    -34    199    203 219.9  -9.8  34182  289.94 0855.20
2009/04/23 10:47:37.5    -154   -106    -54    188    195 235.4 -20.7  34204  290.31 0855.20
2009/04/23 10:47:37.6    -131    -52    -69    141    156 248.3 -32.4  34210  290.41 0855.20
2009/04/23 10:47:37.7    -111    -37    -90    118    148 251.4 -46.0  34188  290.04 0855.20
2009/04/23 10:47:37.8     -57    -10   -128     58    140 259.4 -78.4  34200  290.26 0855.20
2009/04/23 10:47:37.9      82     52    -82     98    127  57.6 -48.2  34192  290.13 0855.20
2009/04/23 10:47:38.0      77    -20    -40     80     89 105.1 -32.6  34172  289.77 0855.20
2009/04/23 10:47:38.1      54    -57     38     79     87 136.7  27.2  34166  289.69 0855.20
2009/04/23 10:47:38.2      11    -35     65     37     74 161.3  67.7  34170  289.75 0855.20
2009/04/23 10:47:38.3      -2    -93    105     94    140 181.4  53.7  34174  289.82 0855.20
2009/04/23 10:47:38.4     -34   -123      2    128    129 195.6   1.2  34176  289.84 0855.20
2009/04/23 10:47:38.5     -42   -244    -98    248    266 189.8 -27.4  34158  289.54 0855.20
2009/04/23 10:47:38.6    -105   -223   -104    247    268 205.4 -28.5  34150  289.39 0855.20
2009/04/23 10:47:38.7     -59   -373     15    378    379 189.1   2.3  34152  289.45 0855.20
2009/04/23 10:47:38.8     -98   -417     24    429    430 193.3   3.3  34144  289.31 0855.20
2009/04/23 10:47:38.9    -239   -288    -21    375    376 219.6  -3.3  34152  289.42 0855.20
2009/04/23 10:47:39.0    -271   -435    -98    513    523 212.0 -10.9  34168  289.70 0855.20
2009/04/23 10:47:39.1    -142   -399    -16    424    425 199.6  -2.2  34178  289.87 0855.20
2009/04/23 10:47:39.2    -142   -427   -140    451    472 198.5 -22.2  34152  289.42 0855.20
2009/04/23 10:47:39.3    -217   -448     20    498    499 205.9   2.4  34166  289.69 0855.20
2009/04/23 10:47:39.4    -185   -463    -19    499    500 201.9  -2.2  34178  289.88 0855.20
2009/04/23 10:47:39.5    -284   -445   -142    529    548 212.6 -15.1  34152  289.43 0855.20
2009/04/23 10:47:39.6    -307   -408   -176    511    541 217.0 -19.1  34150  289.41 0855.20
2009/04/23 10:47:39.7    -249   -389   -156    463    489 212.6 -18.7  34172  289.78 0855.20
2009/04/23 10:47:39.8    -261   -442    -81    514    521 210.6  -9.0  34176  289.84 0855.20
2009/04/23 10:47:39.9    -357   -337   -136    492    511 226.7 -15.5  34182  289.96 0855.20
2009/04/23 10:47:40.0    -279   -320   -127    425    444 221.1 -16.7  34184  289.99 0855.20
2009/04/23 10:47:40.1    -233   -274   -149    360    389 220.4 -28.1  34164  289.64 0855.20
2009/04/23 10:47:40.2    -256   -359   -140    441    462 215.5 -22.8  34160  289.56 0855.20
2009/04/23 10:47:40.3    -209   -335   -115    396    413 212.0 -16.2  34152  289.44 0855.20
2009/04/23 10:47:40.4    -183   -199    -86    271    285 222.5 -17.6  34164  289.63 0855.20
2009/04/23 10:47:40.5    -139   -167     41    218    222 219.7  10.8  34168  289.72 0855.20
2009/04/23 10:47:40.6    -190   -120    -14    225    226 237.8  -3.7  34172  289.77 0855.20
2009/04/23 10:47:40.7    -228   -188    -99    296    313 230.5 -18.6  34156  289.51 0855.20
2009/04/23 10:47:40.8     -13   -177    -85    178    197 184.4 -31.6  34154  289.48 0855.20
2009/04/23 10:47:40.9    -177   -224     10    286    287 218.3   2.1  34156  289.51 0855.20
2009/04/23 10:47:41.0    -159   -112    -42    195    200 234.7 -12.4  34162  289.60 0855.20
2009/04/23 10:47:41.1     -80   -154    -39    174    179 207.4 -12.6  34156  289.52 0855.20
2009/04/23 10:47:41.2     -28   -225    -58    227    235 187.1 -14.3  34152  289.43 0855.20
2009/04/23 10:47:41.3     -15   -264     57    265    272 183.4  12.2  34150  289.39 0855.20
2009/04/23 10:47:41.4     -50   -215    -73    221    233 193.1 -18.3  34152  289.45 0855.19
2009/04/23 10:47:41.5     -25   -195     -3    197    198 187.3  -1.2  34148  289.38 0855.19
2009/04/23 10:47:41.6     -60    -94    -53    112    123 212.5 -31.5  34150  289.40 0855.19
2009/04/23 10:47:41.7    -132   -132   -123    187    223 224.9 -40.7  34154  289.46 0855.19
2009/04/23 10:47:41.8     -11   -234   -121    235    264 182.9 -33.7  34152  289.42 0855.19
2009/04/23 10:47:41.9      75   -245    -66    257    266 163.0 -14.5  34158  289.53 0855.19
2009/04/23 10:47:42.0      68   -276    -46    285    289 166.0  -9.3  34156  289.49 0855.19
2009/04/23 10:47:42.1     102   -254    126    274    301 158.1  26.4  34154  289.46 0855.19
2009/04/23 10:47:42.2      54   -304     63    309    316 169.8  11.6  34150  289.39 0855.19
2009/04/23 10:47:42.3     -53   -278     29    284    286 190.9   5.9  34152  289.44 0855.19
2009/04/23 10:47:42.4     -49   -261    115    266    289 190.7  25.1  34154  289.47 0855.19
2009/04/23 10:47:42.5      30   -279    126    281    307 173.7  25.9  34154  289.46 0855.19
2009/04/23 10:47:42.6     -19   -351    158    352    385 183.1  25.9  34146  289.32 0855.19
2009/04/23 10:47:42.7     -26   -386    190    387    431 183.9  28.2  34156  289.49 0855.19
2009/04/23 10:47:42.8     -12   -358    130    359    381 182.0  20.7  34154  289.48 0855.19
2009/04/23 10:47:42.9      11   -357    138    358    383 178.2  22.3  34150  289.40 0855.19
2009/04/23 10:47:43.0      84   -311    131    323    348 164.9  23.2  34150  289.40 0855.19
2009/04/23 10:47:43.1     240   -280     71    369    376 139.4  11.0  34146  289.35 0855.19
2009/04/23 10:47:43.2     211   -265    117    339    359 141.5  19.2  34142  289.28 0855.19
2009/04/23 10:47:43.3     230   -230    133    326    352 134.9  23.5  34138  289.20 0855.19
2009/04/23 10:47:43.4     218   -308    129    378    400 144.6  18.9  34142  289.26 0855.17
2009/04/23 10:47:43.5      50   -297    181    302    352 170.4  33.7  34140  289.23 0855.17
2009/04/23 10:47:43.6     -11   -258    190    259    321 182.6  39.9  34150  289.39 0855.17
2009/04/23 10:47:43.7     -54   -215    206    222    302 194.3  47.9  34148  289.36 0855.17
2009/04/23 10:47:43.8     -84   -168    201    189    275 206.7  52.1  34146  289.34 0855.17
2009/04/23 10:47:43.9      98   -327    238    342    416 163.2  38.4  34146  289.33 0855.17
2009/04/23 10:47:44.0      -7   -305    128    306    331 181.4  23.9  34148  289.37 0855.17
2009/04/23 10:47:44.1    -130   -236    134    270    301 208.9  28.2  34150  289.39 0855.17
2009/04/23 10:47:44.2    -181   -293    191    345    394 211.7  31.4  34148  289.38 0855.17
2009/04/23 10:47:44.3     -69   -273    193    282    341 194.3  37.7  34146  289.34 0855.17
2009/04/23 10:47:44.4     -30   -258    167    260    309 186.7  35.6  34150  289.41 0855.17
2009/04/23 10:47:44.5    -111   -263    164    286    329 202.9  32.7  34146  289.32 0855.17
2009/04/23 10:47:44.6     -53   -157    216    166    272 198.7  58.5  34162  289.61 0855.17
2009/04/23 10:47:44.7     -52   -196    194    203    280 195.1  48.7  34162  289.59 0855.17
2009/04/23 10:47:44.9     -86   -182    198    202    282 205.5  49.9  34156  289.51 0855.17
2009/04/23 10:47:45.0    -147   -165    166    222    277 221.7  40.6  34152  289.42 0855.17
2009/04/23 10:47:45.1    -212   -225    214    310    376 223.3  37.9  34160  289.57 0855.17
2009/04/23 10:47:45.2    -219   -239    124    325    347 222.5  21.8  34164  289.65 0855.17
2009/04/23 10:47:45.3    -498     20    107    499    511 272.4  12.2  34156  289.50 0855.17
2009/04/23 10:47:45.4    -325      3    -68    326    334 270.6 -11.9  34148  289.38 0855.17
2009/04/23 10:47:45.5    -346    -92     37    359    361 255.0   6.0  34156  289.52 0855.18
2009/04/23 10:47:45.6    -283    -52     16    288    289 259.5   3.3  34166  289.66 0855.18
2009/04/23 10:47:45.7    -403   -117    -39    420    422 253.8  -5.4  34152  289.43 0855.18
2009/04/23 10:47:45.8    -400      4    -67    401    407 270.7  -9.6  34158  289.55 0855.18
2009/04/23 10:47:45.9    -435     10    -74    436    443 271.4  -9.7  34170  289.73 0855.18
2009/04/23 10:47:46.0    -383    -45    -56    386    391 263.2  -8.4  34168  289.72 0855.18
2009/04/23 10:47:46.1    -461     82   -101    469    480 280.1 -12.2  34176  289.84 0855.18
2009/04/23 10:47:46.2    -361     10    -59    362    367 271.7  -9.3  34158  289.54 0855.18
2009/04/23 10:47:46.3    -414    -78      0    422    423 259.3   0.0  34158  289.53 0855.18
2009/04/23 10:47:46.4    -414    -35   -140    416    438 265.1 -23.5  34176  289.83 0855.18
2009/04/23 10:47:46.5    -450    -15    -77    451    458 268.0  -9.7  34170  289.73 0855.20
2009/04/23 10:47:46.6    -482    -42   -106    484    496 264.9 -12.4  34178  289.86 0855.20
2009/04/23 10:47:46.7    -491     10   -170    492    520 271.3 -24.3  34178  289.89 0855.20
2009/04/23 10:47:46.8    -472     20   -149    473    496 272.5 -17.5  34168  289.71 0855.20
2009/04/23 10:47:46.9    -426     57   -119    430    447 277.7 -15.5  34162  289.60 0855.20
2009/04/23 10:47:47.0    -105   -131     26    169    171 218.7   8.8  34164  289.65 0855.20
2009/04/23 10:47:47.1    -131   -211   -105    249    270 211.9 -28.6  34158  289.54 0855.20
2009/04/23 10:47:47.2     -95   -166    -70    192    204 209.9 -25.3  34156  289.52 0855.20
2009/04/23 10:47:47.3     -28    -79    -52     84     98 199.6 -39.4  34162  289.62 0855.20
2009/04/23 10:47:47.4      48    -31      0     58     59 122.4  -0.3  34164  289.65 0855.20
2009/04/23 10:47:47.5      16   -181     33    182    186 174.9  10.3  34164  289.63 0855.20
2009/04/23 10:47:47.6       0   -327     62    328    334 180.1  10.8  34160  289.57 0855.20
2009/04/23 10:47:47.7     -33   -303     73    305    314 186.2  13.5  34158  289.54 0855.20
2009/04/23 10:47:47.8      39   -283      4    286    287 172.0   0.8  34158  289.54 0855.20
2009/04/23 10:47:47.9      51   -221     -4    227    228 166.9  -1.2  34162  289.60 0855.20
2009/04/23 10:47:48.0     156   -218    -15    269    270 144.4  -3.3  34156  289.49 0855.20
2009/04/23 10:47:48.1     200   -190     13    277    278 133.6   2.8  34166  289.68 0855.20
2009/04/23 10:47:48.2     216   -123     48    249    254 119.8  11.1  34168  289.70 0855.20
2009/04/23 10:47:48.3     267      2     63    268    276  89.4  13.2  34168  289.71 0855.20
2009/04/23 10:47:48.4     193   -106     75    221    234 118.8  18.9  34172  289.79 0855.20
2009/04/23 10:47:48.5     154   -139     30    208    211 132.0   8.2  34170  289.75 0855.22
2009/04/23 10:47:48.6     252    -81     51    265    270 107.8  11.0  34170  289.73 0855.22
2009/04/23 10:47:48.7     215   -107     60    241    249 116.6  14.2  34172  289.76 0855.22
2009/04/23 10:47:48.8     158    -45     92    165    188 105.9  31.4  34168  289.70 0855.22
2009/04/23 10:47:48.9     118    -23    165    121    204 101.4  60.5  34170  289.75 0855.22
2009/04/23 10:47:49.0      35      1    144     36    148  87.4  85.9  34188  290.04 0855.22
2009/04/23 10:47:49.1     106    -67    164    126    206 122.4  58.5  34174  289.80 0855.22
2009/04/23 10:47:49.2      74    -52    103     91    137 125.1  54.2  34176  289.84 0855.22
2009/04/23 10:47:49.3     -26    -60    113     66    130 203.6  66.8  34166  289.69 0855.22
2009/04/23 10:47:49.4      26   -147    239    150    282 169.8  64.7  34162  289.59 0855.22
2009/04/23 10:47:49.5     111   -260    154    283    322 156.8  30.9  34154  289.46 0855.22
2009/04/23 10:47:49.6      79   -218    115    233    259 160.0  28.2  34156  289.51 0855.22
2009/04/23 10:47:49.7      51   -119    128    130    182 156.8  50.0  34162  289.62 0855.22
2009/04/23 10:47:49.8     -14    -28    134     32    137 207.2  86.9  34158  289.55 0855.22
2009/04/23 10:47:49.9      41     23    107     48    117  60.2  74.5  34170  289.75 0855.22
2009/04/23 10:47:50.0     101     41    128    110    168  67.8  55.0  34154  289.46 0855.22
2009/04/23 10:47:50.1     171     52     29    179    182  72.9   9.3  34154  289.48 0855.22
2009/04/23 10:47:50.2     142     82     -7    165    166  60.0  -2.6  34144  289.31 0855.22
2009/04/23 10:47:50.3     117    -19     96    119    152  99.2  43.7  34146  289.35 0855.22
2009/04/23 10:47:50.4     104   -104    101    148    179 134.9  37.6  34148  289.38 0855.22
2009/04/23 10:47:50.5     128   -110    170    169    239 130.7  50.1  34156  289.50 0855.21
2009/04/23 10:47:50.6      42   -337    258    340    426 172.8  41.1  34146  289.35 0855.21
2009/04/23 10:47:50.7      71   -321    273    329    427 167.5  43.8  34156  289.52 0855.21
2009/04/23 10:47:50.8      83   -344    257    354    437 166.3  39.7  34158  289.53 0855.21
2009/04/23 10:47:50.9      -9   -237    203    238    312 182.2  44.8  34154  289.47 0855.21
2009/04/23 10:47:51.0     164   -179    171    243    297 137.5  38.6  34154  289.47 0855.21
2009/04/23 10:47:51.1     231   -255    139    345    371 137.8  23.1  34154  289.48 0855.21
2009/04/23 10:47:51.2     156   -296    230    335    406 152.1  37.7  34142  289.28 0855.21
2009/04/23 10:47:51.3     129   -236    164    270    315 151.3  34.2  34144  289.29 0855.21
2009/04/23 10:47:51.4     160   -160     68    227    238 135.0  16.8  34144  289.31 0855.21
2009/04/23 10:47:51.5      10   -114    120    115    166 174.7  51.2  34152  289.45 0855.21
2009/04/23 10:47:51.6      43     36     64     57     85  49.6  53.7  34162  289.62 0855.21
2009/04/23 10:47:51.7      53     23     74     58     94  66.5  57.9  34160  289.58 0855.21
2009/04/23 10:47:51.8      67     10     84     68    108  81.2  56.4  34162  289.60 0855.21
2009/04/23 10:47:51.9      -6    -36     64     37     73 189.8  67.7  34162  289.60 0855.21
2009/04/23 10:47:52.0      59    -20    134     63    148 108.6  73.1  34178  289.89 0855.21
2009/04/23 10:47:52.1       0   -221    226    222    316 180.2  50.6  34172  289.76 0855.21
2009/04/23 10:47:52.2      -8   -296    261    297    395 181.6  45.8  34166  289.69 0855.21
2009/04/23 10:47:52.3      -5   -354    167    355    392 180.9  27.1  34154  289.48 0855.21
2009/04/23 10:47:52.4       7   -410    267    411    490 178.9  36.0  34154  289.47 0855.21
2009/04/23 10:47:52.5      83   -412    312    421    524 168.6  40.2  34162  289.61 0855.22
2009/04/23 10:47:52.6       1   -506    243    507    562 179.8  27.3  34154  289.48 0855.22
2009/04/23 10:47:52.7     172   -364    231    403    464 154.7  32.4  34154  289.48 0855.22
2009/04/23 10:47:52.8      41   -267     13    271    272 171.1   2.8  34164  289.63 0855.22
2009/04/23 10:47:52.9     112   -208    189    237    303 151.7  42.8  34162  289.59 0855.22
2009/04/23 10:47:53.0     147   -243     24    285    287 148.8   5.0  34160  289.56 0855.22
2009/04/23 10:47:53.1     103   -129    119    166    204 141.5  39.1  34158  289.53 0855.22
2009/04/23 10:47:53.2     193   -152    184    246    307 128.2  40.6  34166  289.68 0855.22
2009/04/23 10:47:53.3      86   -134    210    160    264 147.4  58.7  34166  289.66 0855.22
2009/04/23 10:47:53.4      -2     37    118     38    123 355.5  80.7  34182  289.96 0855.22
2009/04/23 10:47:53.5     126    -42    122    134    181 108.6  47.5  34180  289.92 0855.22
2009/04/23 10:47:53.6     238    -56     82    245    259 103.3  18.5  34168  289.70 0855.22
2009/04/23 10:47:53.7     273    -81     61    285    292 106.6  12.2  34160  289.56 0855.22
2009/04/23 10:47:53.8     183    -87     10    203    204 115.4   2.9  34166  289.67 0855.22
2009/04/23 10:47:53.9     198    -86    -75    217    230 113.6 -19.1  34162  289.62 0855.22
2009/04/23 10:47:54.0     212      3     49    213    219  89.2  13.1  34162  289.62 0855.22
2009/04/23 10:47:54.1     184    -24     18    186    187  97.7   5.7  34164  289.63 0855.22
2009/04/23 10:47:54.2      74    -14     15     76     78 101.4  11.1  34166  289.67 0855.22
2009/04/23 10:47:54.3     -43    -85     14     96     98 207.2   8.5  34160  289.58 0855.22
2009/04/23 10:47:54.4     -35    -15      1     39     40 246.5   1.8  34164  289.65 0855.22
2009/04/23 10:47:54.5      72      0      8     73     74  90.0   6.9  34162  289.60 0855.24
2009/04/23 10:47:54.6     111   -170    129    204    241 146.8  35.5  34156  289.52 0855.24
2009/04/23 10:47:54.7     126   -257    168    287    332 153.9  33.0  34154  289.47 0855.24
2009/04/23 10:47:54.8     123   -147    174    192    259 140.1  47.0  34160  289.56 0855.24
2009/04/23 10:47:54.9     169   -120     39    208    212 125.5  10.8  34152  289.45 0855.24
2009/04/23 10:47:55.0     144    -79    165    165    233 118.8  50.1  34168  289.70 0855.24
2009/04/23 10:47:55.1     -46   -129    189    138    234 199.6  60.5  34166  289.69 0855.24
2009/04/23 10:47:55.2     -77   -187    254    203    325 202.3  57.3  34168  289.70 0855.24
2009/04/23 10:47:55.3     -35   -130    197    135    238 195.2  62.4  34166  289.69 0855.24
2009/04/23 10:47:55.4    -127   -109    151    168    225 229.3  46.6  34164  289.63 0855.24
2009/04/23 10:47:55.5     -41   -164    198    170    260 194.0  55.0  34158  289.53 0855.24
2009/04/23 10:47:55.6      36   -185    242    189    307 168.9  58.4  34154  289.46 0855.24
2009/04/23 10:47:55.7     -12   -229    156    230    277 183.1  37.6  34138  289.20 0855.24
2009/04/23 10:47:55.8     -59   -338    200    344    397 189.9  32.9  34132  289.11 0855.24
2009/04/23 10:47:55.9     -81   -244    144    258    295 198.5  31.4  34130  289.07 0855.24
2009/04/23 10:47:56.0     -92   -246     40    263    267 200.7   8.8  34132  289.09 0855.24
2009/04/23 10:47:56.1    -194   -275    -53    337    342 215.2  -9.0  34126  289.01 0855.24
2009/04/23 10:47:56.2    -193   -205   -120    282    306 223.2 -29.0  34140  289.24 0855.24
2009/04/23 10:47:56.3     -92   -131      6    161    162 215.2   2.3  34142  289.28 0855.24
2009/04/23 10:47:56.4      35    -29     68     46     82 130.4  62.6  34146  289.33 0855.24
2009/04/23 10:47:56.5      76    -48     94     91    130 122.4  50.7  34158  289.53 0855.24
2009/04/23 10:47:56.6      66      5     85     67    108  85.6  56.9  34154  289.48 0855.24
2009/04/23 10:47:56.7      82     14     94     84    126  79.9  53.3  34156  289.50 0855.24
2009/04/23 10:47:56.8      61    -61     99     87    131 135.0  54.3  34160  289.58 0855.24
2009/04/23 10:47:56.9     104    -39     71    112    132 110.8  35.5  34158  289.53 0855.24
2009/04/23 10:47:57.0      91   -105     54    140    150 139.0  22.0  34154  289.48 0855.24
2009/04/23 10:47:57.1     117   -130     20    176    178 137.9   6.7  34158  289.53 0855.24
2009/04/23 10:47:57.2     250    -53     17    256    257 102.2   3.9  34214  290.48 0855.24
2009/04/23 10:47:57.3     211    -84     46    228    233 111.7  11.6  34254  291.16 0855.24
2009/04/23 10:47:57.4     178    -86     96    198    220 115.8  27.4  34254  291.18 0855.24
2009/04/23 10:47:57.5     214     -3    133    215    252  90.8  35.0  34246  291.04 0855.24
2009/04/23 10:47:57.6     165     30    111    168    201  79.4  36.7  34288  291.74 0855.24
2009/04/23 10:47:57.7     167     44    165    173    239  75.2  49.0  34264  291.35 0855.24
2009/04/23 10:47:57.8     163     35     71    167    181  77.8  24.3  34218  290.57 0855.24
2009/04/23 10:47:57.9     103     35     69    110    129  70.9  35.5  34224  290.65 0855.24
2009/04/23 10:47:58.0      24    -14     57     29     63 120.7  71.9  34250  291.09 0855.24
2009/04/23 10:47:58.1      35     32     16     48     51  46.9  19.2  34254  291.18 0855.24
2009/04/23 10:47:58.2      15     30      1     34     35  27.2   2.9  34266  291.38 0855.24
2009/04/23 10:47:58.3      14    -17     34     23     41 140.4  62.6  34250  291.11 0855.24
2009/04/23 10:47:58.4     136      0     90    137    163  89.6  36.3  34214  290.48 0855.24
2009/04/23 10:47:58.5     153    -31    121    157    198 101.5  41.6  34206  290.36 0855.21
2009/04/23 10:47:58.6     128     -5    134    129    186  92.5  51.2  34214  290.50 0855.21
2009/04/23 10:47:58.7      55     18    119     59    132  71.4  72.4  34206  290.35 0855.21
2009/04/23 10:47:58.8     105     28    116    109    159  75.0  52.0  34234  290.82 0855.21
2009/04/23 10:47:58.9     160    -41     59    166    176 104.4  20.0  34202  290.28 0855.21
2009/04/23 10:47:59.0     124    -23     44    127    135 100.6  19.4  34192  290.11 0855.21
2009/04/23 10:47:59.1      76     20     67     79    103  75.0  44.8  34242  290.96 0855.21
2009/04/23 10:47:59.2      32      0     64     33     72  90.0  71.9  34242  290.98 0855.21
2009/04/23 10:47:59.3     -16      5     57     17     59 288.6  82.8  34242  290.98 0855.21
2009/04/23 10:47:59.4      -4     45     72     46     85 353.8  64.6  34234  290.84 0855.21
2009/04/23 10:47:59.5      64     29     50     71     86  65.6  38.6  34228  290.72 0855.21
2009/04/23 10:47:59.6      71    -14     66     73     98 101.5  47.5  34236  290.86 0855.21
2009/04/23 10:47:59.7     101     10     62    102    119  83.9  34.0  34226  290.70 0855.21
2009/04/23 10:47:59.8      61     36     51     72     88  59.3  38.6  34228  290.74 0855.21
2009/04/23 10:47:59.9      79     37     25     88     92  64.7  16.3  34232  290.79 0855.21
2009/04/23 10:48:00.0      62     51     61     81    101  50.5  40.7  34256  291.21 0855.21
2009/04/23 10:48:00.1      62     29     58     69     90  64.7  43.8  34260  291.26 0855.21
2009/04/23 10:48:00.2      46     18     49     50     70  68.3  51.1  34262  291.32 0855.21
2009/04/23 10:48:00.3      21      0     62     22     65  90.0  81.2  34254  291.18 0855.21
2009/04/23 10:48:00.4      45     15     72     48     86  71.6  63.6  34240  290.94 0855.21
2009/04/23 10:48:00.5     -21    -10     56     24     60 242.9  76.1  34262  291.32 0855.19
2009/04/23 10:48:00.6     -27    -22     88     36     95 230.5  76.6  34242  290.98 0855.19
2009/04/23 10:48:00.7      -4    -52     81     53     96 184.5  64.6  34216  290.52 0855.19
2009/04/23 10:48:00.8      24    -15     24     29     37 122.4  43.8  34232  290.81 0855.19
2009/04/23 10:48:00.9      76     60     81     98    127  51.8  43.8  34234  290.84 0855.19
2009/04/23 10:48:01.0      67    121     75    139    157  29.0  30.8  34214  290.48 0855.19
2009/04/23 10:48:01.1      21     67     30     71     77  17.8  23.1  34198  290.23 0855.19
2009/04/23 10:48:01.2     126    -20     86    128    154  99.2  37.0  34166  289.69 0855.19
2009/04/23 10:48:01.3      87      7    130     88    156  84.8  62.4  34168  289.70 0855.19
2009/04/23 10:48:01.4     -71     24     57     76     95 289.1  40.7  34184  289.97 0855.19
2009/04/23 10:48:01.5     -62      8     48     63     79 277.9  41.2  34180  289.92 0855.19
2009/04/23 10:48:01.6     -38    -27     46     47     65 234.0  50.0  34182  289.96 0855.19
2009/04/23 10:48:01.7     -38    -40     37     56     67 224.1  35.6  34174  289.80 0855.19
2009/04/23 10:48:01.8     -25    -40     30     48     56 211.6  35.5  34178  289.87 0855.19
2009/04/23 10:48:01.9     -37    -44     24     58     62 219.6  23.1  34178  289.87 0855.19
2009/04/23 10:48:02.0       6    -76     79     77    110 175.5  50.7  34176  289.84 0855.19
2009/04/23 10:48:02.1     -53   -112     54    125    136 205.4  25.1  34172  289.77 0855.19
2009/04/23 10:48:02.2     -77   -101     24    128    131 217.4  11.0  34174  289.82 0855.19
2009/04/23 10:48:02.3     -75    -71    -21    104    107 226.4 -11.5  34170  289.74 0855.19
2009/04/23 10:48:02.4     -66   -129     -3    146    147 207.2  -1.3  34172  289.77 0855.19
2009/04/23 10:48:02.5     -45   -191    -30    197    200 193.4  -8.8  34164  289.65 0855.21
2009/04/23 10:48:02.6     -80   -229    -72    243    254 199.4 -16.5  34162  289.61 0855.21
2009/04/23 10:48:02.7      14   -224    -18    225    226 176.4  -4.6  34154  289.48 0855.21
2009/04/23 10:48:02.8      76   -239    -31    251    254 162.2  -7.2  34154  289.47 0855.21
2009/04/23 10:48:02.9      54   -205     27    213    215 165.1   7.5  34154  289.46 0855.21
2009/04/23 10:48:03.0       0   -195     63    196    206 179.8  17.9  34156  289.50 0855.21
2009/04/23 10:48:03.1      11   -254     69    255    265 177.5  15.2  34156  289.51 0855.21
2009/04/23 10:48:03.2       3   -251     78    252    264 179.1  17.3  34152  289.44 0855.21
2009/04/23 10:48:03.3     108   -330    122    348    368 161.9  20.1  34148  289.38 0855.21
2009/04/23 10:48:03.4     176   -336     -7    380    381 152.3  -1.2  34158  289.54 0855.21
2009/04/23 10:48:03.5     126   -255   -110    285    305 153.7 -26.5  34178  289.86 0855.21
2009/04/23 10:48:03.6      43   -323   -116    326    346 172.3 -24.7  34184  289.99 0855.21
2009/04/23 10:48:03.7      84   -307    -41    319    322 164.6  -7.3  34160  289.56 0855.21
2009/04/23 10:48:03.8     109   -231     -4    256    257 154.7  -1.1  34144  289.29 0855.21
2009/04/23 10:48:03.9     -35   -208   -131    212    249 189.7 -39.2  34150  289.41 0855.21
2009/04/23 10:48:04.0       8   -391   -170    392    427 178.8 -29.4  34154  289.46 0855.21
2009/04/23 10:48:04.1      54   -384   -126    388    409 172.0 -18.0  34150  289.40 0855.21
2009/04/23 10:48:04.2      75   -335   -102    344    359 167.3 -16.6  34154  289.48 0855.21
2009/04/23 10:48:04.3     149   -296    -72    332    340 153.3 -12.3  34152  289.42 0855.21
2009/04/23 10:48:04.4     192   -343    -63    394    400 150.8  -9.1  34134  289.13 0855.21
2009/04/23 10:48:04.5      85   -384    -35    394    396 167.4  -5.2  34146  289.35 0855.18
2009/04/23 10:48:04.6      60   -354   -123    360    381 170.3 -19.0  34146  289.35 0855.18
2009/04/23 10:48:04.7      77   -443    -97    450    461 170.1 -12.2  34126  289.00 0855.18
2009/04/23 10:48:04.8      51   -410   -166    414    446 172.8 -27.4  34128  289.02 0855.18
2009/04/23 10:48:04.9      65   -381   -131    387    409 170.3 -18.8  34126  288.98 0855.18
2009/04/23 10:48:05.0      -7   -327    -52    328    333 181.4  -9.0  34134  289.13 0855.18
2009/04/23 10:48:05.1    -153   -320    -27    355    357 205.6  -4.5  34146  289.33 0855.18
2009/04/23 10:48:05.2    -179   -281    -52    334    339 212.5  -8.9  34140  289.23 0855.18
2009/04/23 10:48:05.3    -225   -342     71    410    417 213.3   9.9  34140  289.22 0855.18
2009/04/23 10:48:05.4    -178   -353    -96    396    408 206.7 -13.7  34144  289.29 0855.18
2009/04/23 10:48:05.5    -131   -392    -29    414    415 198.5  -4.1  34154  289.48 0855.18
2009/04/23 10:48:05.6    -130   -326     22    352    353 201.8   3.6  34148  289.37 0855.18
2009/04/23 10:48:05.7    -159   -334    -26    371    372 205.5  -4.1  34142  289.26 0855.18
2009/04/23 10:48:05.8    -381   -200    -15    431    432 242.3  -2.1  34170  289.73 0855.18
2009/04/23 10:48:05.9    -228   -176    -55    289    295 232.3 -10.9  34170  289.75 0855.18
2009/04/23 10:48:06.0    -161   -160    -28    228    230 225.1  -7.2  34164  289.63 0855.18
2009/04/23 10:48:06.1    -237   -269     55    359    364 221.4   8.8  34136  289.18 0855.18
2009/04/23 10:48:06.2    -292    -88    -11    306    307 253.2  -2.2  34156  289.49 0855.18
2009/04/23 10:48:06.3     -70    -51    -43     87     97 233.6 -32.2  34152  289.43 0855.18
2009/04/23 10:48:06.4      75     -2   -117     76    139  91.7 -69.0  34156  289.52 0855.18
2009/04/23 10:48:06.5     -69    -76   -182    103    209 222.3 -72.7  34154  289.46 0855.15
2009/04/23 10:48:06.6       0    -97    -96     98    137 180.5 -54.4  34158  289.53 0855.15
2009/04/23 10:48:06.7     -35   -116   -126    122    175 197.0 -55.3  34138  289.21 0855.15
2009/04/23 10:48:06.8      17   -290   -153    291    328 176.5 -34.4  34128  289.03 0855.15
2009/04/23 10:48:06.9       8   -285   -133    286    315 178.2 -31.0  34124  288.95 0855.15
2009/04/23 10:48:07.0       9   -292   -134    293    322 178.2 -30.7  34128  289.02 0855.15
2009/04/23 10:48:07.1      22   -285   -127    286    312 175.5 -29.7  34124  288.95 0855.15
2009/04/23 10:48:07.2      36   -312   -127    315    339 173.3 -27.5  34122  288.94 0855.15
2009/04/23 10:48:07.3     -76   -227    -78    240    253 198.5 -18.1  34122  288.92 0855.15
2009/04/23 10:48:07.4      -6   -144   -232    145    273 182.7 -69.5  34130  289.05 0855.15
2009/04/23 10:48:07.5      87   -270   -202    284    348 162.1 -43.5  34124  288.96 0855.15
2009/04/23 10:48:07.6       6   -255   -218    256    336 178.6 -49.2  34134  289.12 0855.15
2009/04/23 10:48:07.7     100   -251   -216    271    346 158.2 -47.1  34126  289.00 0855.15
2009/04/23 10:48:07.8     103   -183   -175    211    274 150.6 -48.2  34124  288.97 0855.15
2009/04/23 10:48:07.9     107   -196   -190    224    293 151.3 -49.2  34122  288.93 0855.15
2009/04/23 10:48:08.0     106   -106   -169    150    225 135.0 -58.6  34124  288.97 0855.15
2009/04/23 10:48:08.1     174   -101    -98    202    224 120.2 -31.7  34126  288.99 0855.15
2009/04/23 10:48:08.2     180   -163    -93    243    260 132.2 -26.4  34130  289.07 0855.15
2009/04/23 10:48:08.3     112   -195    -65    226    235 150.1 -20.7  34126  288.99 0855.15
2009/04/23 10:48:08.4     103   -248    -74    269    280 157.3 -15.4  34132  289.09 0855.15
2009/04/23 10:48:08.5     119   -210    -69    242    251 150.4 -20.7  34134  289.12 0855.16
2009/04/23 10:48:08.6      95   -237    -98    256    274 158.1 -26.4  34132  289.10 0855.16
2009/04/23 10:48:08.7     111   -177    -58    210    218 147.9 -15.5  34136  289.18 0855.16
2009/04/23 10:48:08.8      78   -186    -25    202    204 157.3  -7.3  34134  289.14 0855.16
2009/04/23 10:48:08.9      70   -193    -41    206    211 159.9 -11.3  34128  289.04 0855.16
2009/04/23 10:48:09.0      86   -134    -81    160    179 147.4 -33.1  34136  289.18 0855.16
2009/04/23 10:48:09.1      -9   -119    -89    120    149 184.4 -44.1  34140  289.23 0855.16
2009/04/23 10:48:09.2    -164    -33    -46    168    174 258.5 -20.2  34136  289.16 0855.16
2009/04/23 10:48:09.3    -267    -54   -121    273    298 258.5 -29.7  34118  288.87 0855.16
2009/04/23 10:48:09.4    -190    -98   -118    214    244 242.7 -35.7  34118  288.87 0855.16
2009/04/23 10:48:09.5    -160   -147   -189    218    288 227.6 -49.8  34124  288.97 0855.18
2009/04/23 10:48:09.6    -248   -108   -164    271    316 246.3 -38.4  34140  289.24 0855.18
2009/04/23 10:48:09.7    -181    -44    -87    187    206 256.1 -31.4  34140  289.24 0855.18
2009/04/23 10:48:09.8    -252    -58   -211    259    334 257.0 -47.9  34144  289.31 0855.18
2009/04/23 10:48:09.9    -162    -70   -206    177    271 246.5 -59.7  34152  289.42 0855.18
2009/04/23 10:48:10.0    -135     26   -202    138    244 281.0 -67.0  34138  289.19 0855.18
2009/04/23 10:48:10.1     -49     -8    -96     50    108 260.3 -75.2  34142  289.28 0855.18
2009/04/23 10:48:10.3      70   -199   -122    212    244 160.6 -36.8  34146  289.32 0855.18
2009/04/23 10:48:10.3     -33    -61    -25     70     74 208.9 -23.3  34140  289.24 0855.18
2009/04/23 10:48:10.4     -69    -96    -60    119    133 216.0 -32.6  34144  289.31 0855.18
2009/04/23 10:48:10.5     -80   -125      7    149    150 212.5   2.8  34144  289.30 0855.18
2009/04/23 10:48:10.6     -51    -47    -28     70     75 226.8 -27.4  34148  289.38 0855.18
2009/04/23 10:48:10.7    -112    -15    -14    114    115 262.1  -7.3  34144  289.30 0855.18
2009/04/23 10:48:10.9    -131    -43    -60    138    150 251.8 -29.5  34132  289.11 0855.18
2009/04/23 10:48:10.9      10    -79    -28     80     85 172.4 -19.7  34130  289.08 0855.18
2009/04/23 10:48:11.1      31    -83     71     89    113 159.5  43.3  34146  289.35 0855.18
2009/04/23 10:48:11.2     -60    -98     30    116    120 211.6  14.7  34146  289.35 0855.18
2009/04/23 10:48:11.3      -3   -203     74    204    217 180.9  21.0  34140  289.23 0855.18
2009/04/23 10:48:11.3     -68   -174     45    187    193 201.4  13.7  34136  289.16 0855.18
2009/04/23 10:48:11.5     -13   -198     20    199    201 184.0   5.9  34132  289.09 0855.18
2009/04/23 10:48:11.6    -107   -130     58    169    179 219.6  18.9  34136  289.16 0855.20
2009/04/23 10:48:11.7       8    -73    131     74    150 173.8  68.8  34148  289.36 0855.20
2009/04/23 10:48:11.8     -27     51     94     58    110 331.9  64.7  34162  289.60 0855.20
2009/04/23 10:48:11.9     -49      0    115     50    125 269.2  75.0  34156  289.50 0855.20
2009/04/23 10:48:12.0      25    -84     98     88    131 163.5  53.3  34142  289.28 0855.20
2009/04/23 10:48:12.1     -27   -186    159    189    246 188.5  44.5  34132  289.09 0855.20
2009/04/23 10:48:12.2     -19   -246    164    247    296 184.5  36.5  34136  289.15 0855.20
2009/04/23 10:48:12.3     -30   -280    183    282    336 186.3  36.0  34134  289.14 0855.20
2009/04/23 10:48:12.4     -38   -308    142    311    341 187.1  26.3  34132  289.10 0855.20
2009/04/23 10:48:12.5     -86   -338    141    349    376 194.3  23.1  34130  289.08 0855.20
2009/04/23 10:48:12.6     -39   -318    134    321    347 187.1  23.8  34130  289.08 0855.20
2009/04/23 10:48:12.7     -83   -375    128    385    407 192.5  18.5  34130  289.08 0855.20
2009/04/23 10:48:12.8    -101   -362    148    376    404 195.7  22.7  34130  289.06 0855.20
2009/04/23 10:48:12.9     -81   -321    156    332    366 194.3  27.1  34132  289.11 0855.20
2009/04/23 10:48:13.0     -59   -305    169    311    353 191.1  30.9  34136  289.16 0855.20
2009/04/23 10:48:13.1     -64   -325    141    332    360 191.2  24.3  34132  289.10 0855.20
2009/04/23 10:48:13.2     -70   -284    193    293    350 194.0  36.3  34134  289.13 0855.20
2009/04/23 10:48:13.3     -39   -280    146    283    318 188.0  29.4  34136  289.17 0855.20
2009/04/23 10:48:13.4      24   -318     93    320    334 175.5  16.3  34134  289.14 0855.20
2009/04/23 10:48:13.5     -28   -260    152    262    302 186.3  32.9  34136  289.17 0855.20
2009/04/23 10:48:13.6     -16   -211    126    212    246 184.5  33.5  34142  289.25 0855.21
2009/04/23 10:48:13.7       3   -145    186    146    236 178.6  57.9  34146  289.33 0855.21
2009/04/23 10:48:13.8     -21   -168    131    170    214 187.1  41.6  34142  289.26 0855.21
2009/04/23 10:48:13.9     -39   -197     99    201    224 191.3  28.2  34140  289.24 0855.21
2009/04/23 10:48:14.0     -41   -180     99    185    209 193.1  30.6  34140  289.23 0855.21
2009/04/23 10:48:14.1     -55   -231     59    238    246 193.4  13.9  34142  289.25 0855.21
2009/04/23 10:48:14.2      14   -200    -54    201    209 175.8 -15.0  34138  289.21 0855.21
2009/04/23 10:48:14.3      16   -104    -24    106    109 171.1 -12.9  34140  289.23 0855.21
2009/04/23 10:48:14.4     -18   -115    127    117    172 189.3  52.5  34146  289.35 0855.21
2009/04/23 10:48:14.5     -39   -229     36    233    236 189.7   8.9  34144  289.29 0855.21
2009/04/23 10:48:14.6      -3   -249     57    250    257 180.7  12.9  34140  289.24 0855.21
2009/04/23 10:48:14.7     -43   -210     34    215    218 191.6   9.0  34136  289.16 0855.21
2009/04/23 10:48:14.8     -13   -176    106    177    206 184.4  33.5  34148  289.36 0855.21
2009/04/23 10:48:14.9      60   -127     74    141    159 154.7  29.8  34148  289.38 0855.21
2009/04/23 10:48:15.0      80   -134     94    157    182 149.2  34.0  34144  289.30 0855.21
2009/04/23 10:48:15.1      60   -110     70    126    144 151.5  31.4  34136  289.18 0855.21
2009/04/23 10:48:15.2      -7   -143     60    144    156 183.1  23.6  34140  289.24 0855.21
2009/04/23 10:48:15.3      19   -131     53    133    143 171.5  23.0  34136  289.18 0855.21
2009/04/23 10:48:15.4       0   -108     74    109    131 179.5  37.4  34134  289.14 0855.21
2009/04/23 10:48:15.5     -10   -132    157    133    205 184.5  55.6  34140  289.23 0855.21
2009/04/23 10:48:15.6      14   -133     65    134    148 173.8  27.3  34136  289.16 0855.21
2009/04/23 10:48:15.7      17   -127     30    129    133 172.0  13.2  34130  289.08 0855.21
2009/04/23 10:48:15.8      -1   -127     37    128    134 180.8  16.3  34134  289.13 0855.21
2009/04/23 10:48:15.9     -24   -115     49    118    127 192.0  23.6  34134  289.13 0855.21
2009/04/23 10:48:16.0     -77   -120     25    143    146 212.6  10.1  34132  289.11 0855.21
2009/04/23 10:48:16.1     -96   -107     33    144    148 221.9  13.2  34132  289.11 0855.21
2009/04/23 10:48:16.2     -51    -88     52    102    114 210.3  29.3  34136  289.16 0855.21
2009/04/23 10:48:16.3     -31   -177    104    180    207 190.2  32.9  34132  289.09 0855.21
2009/04/23 10:48:16.4     -76   -205     54    219    226 200.5  13.9  34132  289.11 0855.21
2009/04/23 10:48:16.5     -42   -129     37    136    141 198.3  15.3  34136  289.18 0855.21
2009/04/23 10:48:16.6      31    -83     37     89     96 159.1  23.6  34136  289.16 0855.21
2009/04/23 10:48:16.7      67    -22     50     71     86 108.4  38.6  34144  289.31 0855.21
2009/04/23 10:48:16.8      79      6     43     80     90  85.6  30.3  34140  289.24 0855.21
2009/04/23 10:48:16.9       2      7     30      8     31  18.7  84.9  34152  289.45 0855.21
2009/04/23 10:48:17.0      61    -73     64     96    115 139.9  36.0  34144  289.30 0855.21
2009/04/23 10:48:17.1      23   -104     29    107    111 167.1  15.3  34138  289.21 0855.21
2009/04/23 10:48:17.2     -31    -91     65     97    116 198.7  36.5  34132  289.11 0855.21
2009/04/23 10:48:17.3     -60    -96     58    114    127 212.1  28.7  34138  289.19 0855.21
2009/04/23 10:48:17.4     -22    -29     52     37     63 217.8  60.6  34146  289.33 0855.21
2009/04/23 10:48:17.5      -7    -98    101     99    141 184.4  50.2  34144  289.30 0855.21
2009/04/23 10:48:17.6     -11   -145     89    146    170 184.5  34.4  34144  289.30 0855.19
2009/04/23 10:48:17.7     -68    -83    116    108    158 219.6  52.2  34154  289.48 0855.19
2009/04/23 10:48:17.8    -124   -148    123    194    229 219.9  35.5  34148  289.38 0855.19
2009/04/23 10:48:17.9    -152    -88     67    176    188 239.8  21.7  34156  289.50 0855.19
2009/04/23 10:48:18.0    -148      0     74    149    166 270.0  28.0  34160  289.57 0855.19
2009/04/23 10:48:18.1     -39    -74     70     84    109 208.1  43.8  34140  289.23 0855.19
2009/04/23 10:48:18.2     -58   -161    151    172    228 200.0  45.8  34146  289.33 0855.19
2009/04/23 10:48:18.3     -74    -82    128    111    169 222.3  54.8  34144  289.31 0855.19
2009/04/23 10:48:18.4      30      9    109     32    113  71.8  83.3  34166  289.69 0855.19
2009/04/23 10:48:18.5       3      0     93      4     93  85.6  90.0  34176  289.85 0855.19
2009/04/23 10:48:18.6      -4      0     83      5     83 270.0  90.0  34170  289.75 0855.19
2009/04/23 10:48:18.7     132     -2     97    133    164  91.3  39.7  34144  289.31 0855.19
2009/04/23 10:48:18.8     120    -50     99    131    164 112.6  40.9  34148  289.36 0855.19
2009/04/23 10:48:18.9     101    -66     72    122    141 123.3  33.5  34150  289.41 0855.19
2009/04/23 10:48:19.0      70    -37     78     80    111 118.0  50.0  34150  289.41 0855.19
2009/04/23 10:48:19.1      54    -50     81     74    109 133.1  52.2  34158  289.55 0855.19
2009/04/23 10:48:19.2      21    -64     69     68     96 161.5  49.7  34158  289.53 0855.19
2009/04/23 10:48:19.3      43    -92     82    102    130 155.1  43.7  34150  289.41 0855.19
2009/04/23 10:48:19.4     -28   -200     65    203    214 188.0  17.9  34148  289.38 0855.19
2009/04/23 10:48:19.5       9   -180    104    181    208 177.1  32.7  34148  289.38 0855.19
2009/04/23 10:48:19.6     -29   -148    116    151    190 191.1  41.4  34148  289.36 0855.18
2009/04/23 10:48:19.7       4   -129    120    130    176 178.2  47.9  34152  289.45 0855.18
2009/04/23 10:48:19.8      10   -131    118    132    177 175.6  46.6  34154  289.46 0855.18
2009/04/23 10:48:19.9     -20   -114    136    116    178 190.2  55.4  34148  289.38 0855.18
2009/04/23 10:48:20.0     -31   -116    100    121    156 195.1  44.1  34148  289.36 0855.18
2009/04/23 10:48:20.1      15    -56     90     59    107 164.9  64.6  34150  289.40 0855.18
2009/04/23 10:48:20.2      19    -39    132     44    139 153.7  81.0  34164  289.63 0855.18
2009/04/23 10:48:20.3      25   -113    127    116    172 167.1  53.0  34160  289.58 0855.18
2009/04/23 10:48:20.4      -3   -204     56    205    213 180.9  15.3  34146  289.35 0855.18
2009/04/23 10:48:20.5      -4   -173     96    174    198 181.6  31.4  34148  289.36 0855.18
2009/04/23 10:48:20.6      15   -287    118    288    311 176.9  23.4  34150  289.39 0855.18
2009/04/23 10:48:20.7      11   -241    132    242    275 177.3  31.3  34152  289.42 0855.18
2009/04/23 10:48:20.8      46   -244    116    249    274 169.3  27.0  34148  289.37 0855.18
2009/04/23 10:48:20.9      16   -211     90    212    230 175.6  24.6  34146  289.35 0855.18
2009/04/23 10:48:21.0      56   -170     96    180    204 161.7  30.6  34150  289.40 0855.18
2009/04/23 10:48:21.1      41   -121     66    128    144 161.3  29.3  34142  289.28 0855.18
2009/04/23 10:48:21.2      69   -176     36    190    194 158.6  11.0  34152  289.43 0855.18
2009/04/23 10:48:21.3      15   -174    -25    175    177 174.9  -8.2  34148  289.38 0855.18
2009/04/23 10:48:21.4     -48   -180    -15    187    188 195.2  -4.9  34148  289.38 0855.18
2009/04/23 10:48:21.5     -45   -191    -17    197    198 193.4  -5.2  34148  289.38 0855.18
2009/04/23 10:48:21.6     -16   -152     41    153    159 186.2  15.0  34146  289.35 0855.16
2009/04/23 10:48:21.7      -9   -149     42    150    156 183.6  15.8  34148  289.38 0855.16
2009/04/23 10:48:21.8      24   -142      3    145    146 170.3   1.2  34150  289.40 0855.16
2009/04/23 10:48:21.9       7   -144    -40    145    151 176.9 -15.5  34152  289.43 0855.16
2009/04/23 10:48:22.0      -2   -151     42    152    158 180.9  15.6  34150  289.41 0855.16
2009/04/23 10:48:22.1     -27   -179     38    182    187 188.7  12.0  34148  289.38 0855.16
2009/04/23 10:48:22.2     -93   -126    -49    157    165 216.5 -17.6  34152  289.45 0855.16
2009/04/23 10:48:22.3     -95    -42    -50    105    116 246.0 -31.6  34158  289.55 0855.16
2009/04/23 10:48:22.4     -53    -16    -31     56     64 253.2 -35.8  34160  289.57 0855.16
2009/04/23 10:48:22.5     -34    -34      4     49     50 225.0   4.9  34156  289.50 0855.16
2009/04/23 10:48:22.6      37   -139     45    145    153 164.9  17.4  34148  289.36 0855.16
2009/04/23 10:48:22.7       9   -144     18    145    147 176.4   7.1  34150  289.41 0855.16
2009/04/23 10:48:22.8       0   -107    -28    108    112 180.4 -14.5  34148  289.38 0855.16
2009/04/23 10:48:22.9      -1    -87    -28     88     93 180.9 -17.6  34150  289.40 0855.16
2009/04/23 10:48:23.0      -5    -67    -26     68     72 184.5 -26.4  34146  289.35 0855.16
2009/04/23 10:48:23.1     -88   -106     -9    139    140 219.7  -3.7  34154  289.46 0855.16
2009/04/23 10:48:23.2    -150   -115      9    190    191 232.5   2.9  34150  289.40 0855.16
2009/04/23 10:48:23.3     -87   -136     14    162    163 212.6   5.2  34150  289.40 0855.16
2009/04/23 10:48:23.4    -109    -51    -25    121    124 244.6 -11.9  34154  289.48 0855.16
2009/04/23 10:48:23.5    -103    -78     -1    130    131 232.7  -0.7  34154  289.46 0855.16
2009/04/23 10:48:23.6    -120    -80     21    145    147 236.3   8.5  34154  289.48 0855.17
2009/04/23 10:48:23.7    -125    -67     37    143    148 241.6  14.7  34152  289.45 0855.17
2009/04/23 10:48:23.8    -145   -129    109    195    223 228.2  31.6  34150  289.40 0855.17
2009/04/23 10:48:23.9    -171    -80     95    189    211 244.9  28.7  34152  289.45 0855.17
2009/04/23 10:48:24.0    -176   -139    104    225    247 231.8  26.4  34156  289.51 0855.17
2009/04/23 10:48:24.1    -155   -142    101    211    233 227.6  27.3  34152  289.43 0855.17
2009/04/23 10:48:24.2    -232   -127     82    265    278 241.2  17.3  34162  289.59 0855.17
2009/04/23 10:48:24.3    -316    -92    -18    330    331 253.8  -3.3  34158  289.55 0855.17
2009/04/23 10:48:24.4    -217   -157     40    269    273 234.0   8.5  34152  289.42 0855.17
2009/04/23 10:48:24.5    -200   -201     70    284    293 224.9  13.9  34154  289.46 0855.17
2009/04/23 10:48:24.6    -240   -147    111    282    303 238.5  22.8  34166  289.68 0855.17
2009/04/23 10:48:24.7    -183   -214     99    282    298 220.5  20.0  34152  289.42 0855.17
2009/04/23 10:48:24.8       5   -226     94    227    245 178.6  24.1  34148  289.36 0855.17
2009/04/23 10:48:24.9      25   -268    182    270    325 174.6  37.2  34150  289.41 0855.17
2009/04/23 10:48:25.0      63   -330      4    336    337 169.2   0.8  34152  289.43 0855.17
2009/04/23 10:48:25.1     110   -263     18    286    287 157.2   3.8  34152  289.42 0855.17
2009/04/23 10:48:25.2      88   -220     28    238    240 158.2   6.9  34152  289.42 0855.17
2009/04/23 10:48:25.3      31   -129     57    133    144 166.2  24.6  34154  289.46 0855.17
2009/04/23 10:48:25.4     -17   -226    182    227    290 184.4  43.0  34152  289.44 0855.17
2009/04/23 10:48:25.5      19   -243    224    244    331 175.5  47.5  34156  289.51 0855.17
2009/04/23 10:48:25.6     122   -222    242    254    350 151.1  48.6  34160  289.58 0855.15
2009/04/23 10:48:25.7     -41   -243    227    247    335 189.8  47.5  34156  289.49 0855.15
2009/04/23 10:48:25.8     -95   -275    140    291    322 199.1  27.4  34154  289.46 0855.15
2009/04/23 10:48:25.9    -135   -321     29    349    351 202.8   4.9  34156  289.50 0855.15
2009/04/23 10:48:26.0     -72   -316     -1    325    326 192.9  -0.2  34152  289.44 0855.15
2009/04/23 10:48:26.1      -4   -328    -20    329    330 180.7  -3.5  34152  289.45 0855.15
2009/04/23 10:48:26.2     -54   -388    -17    392    393 188.0  -2.6  34148  289.38 0855.15
2009/04/23 10:48:26.3    -103   -311     24    328    329 198.4   4.2  34150  289.40 0855.15
2009/04/23 10:48:26.4    -131   -327     83    353    363 201.8  13.2  34152  289.42 0855.15
2009/04/23 10:48:26.5    -209   -381    -19    435    436 208.8  -2.6  34132  289.11 0855.15
2009/04/23 10:48:26.6     -67   -282    115    290    311 193.4  22.7  34148  289.36 0855.15
2009/04/23 10:48:26.7    -149   -353     82    384    393 202.9  12.1  34128  289.04 0855.15
2009/04/23 10:48:26.8    -106   -368    104    384    398 196.1  15.2  34138  289.21 0855.15
2009/04/23 10:48:26.9     -87   -316    111    328    347 195.4  18.8  34132  289.10 0855.15
2009/04/23 10:48:27.0    -150   -301    118    337    357 206.5  20.0  34134  289.13 0855.15
2009/04/23 10:48:27.1    -151   -236    -15    281    282 212.7  -3.1  34138  289.19 0855.15
2009/04/23 10:48:27.2    -133   -301    -34    330    332 203.9  -5.9  34112  288.77 0855.15
2009/04/23 10:48:27.3    -100   -301     -8    318    319 198.5  -1.6  34114  288.78 0855.15
2009/04/23 10:48:27.4     -22   -345     -9    346    347 183.8  -1.6  34140  289.23 0855.15
2009/04/23 10:48:27.5       0   -258    -33    259    262 180.2  -7.3  34136  289.17 0855.15
2009/04/23 10:48:27.6      69   -327     42    335    338 168.0   7.2  34128  289.03 0855.16
2009/04/23 10:48:27.7     -33   -360     -1    362    363 185.3  -0.3  34126  288.99 0855.16
2009/04/23 10:48:27.8     -31   -382     -3    384    385 184.7  -0.5  34106  288.66 0855.16
2009/04/23 10:48:27.9     -63   -361      5    367    368 189.9   0.8  34112  288.76 0855.16
2009/04/23 10:48:28.0     -74   -358     10    366    367 191.8   1.7  34112  288.76 0855.16
2009/04/23 10:48:28.1    -113   -320     13    340    341 199.5   2.2  34122  288.94 0855.16
2009/04/23 10:48:28.2    -149   -272    -49    311    315 208.7  -9.0  34116  288.81 0855.16
2009/04/23 10:48:28.3    -174   -247   -114    303    323 215.2 -26.0  34096  288.48 0855.16
2009/04/23 10:48:28.4    -139   -274    -84    308    319 207.0 -20.1  34090  288.37 0855.16
2009/04/23 10:48:28.5    -107   -269    -50    290    295 201.9  -9.8  34102  288.59 0855.16
2009/04/23 10:48:28.6    -117   -258    -46    284    288 204.5  -9.4  34102  288.58 0855.16
2009/04/23 10:48:28.7    -158   -280    -51    322    327 209.4  -9.0  34098  288.51 0855.16
2009/04/23 10:48:28.8    -146   -263    -61    301    308 209.0 -11.5  34094  288.46 0855.16
2009/04/23 10:48:28.9     -62   -274    -34    282    285 192.9  -6.9  34092  288.43 0855.16
2009/04/23 10:48:29.0     -62   -263     -5    271    272 193.4  -1.3  34092  288.41 0855.16
2009/04/23 10:48:29.1     -96   -251    -21    269    270 200.9  -4.6  34092  288.41 0855.16
2009/04/23 10:48:29.2    -119   -275    -70    300    309 203.4 -13.2  34108  288.68 0855.16
2009/04/23 10:48:29.3    -139   -281    -26    314    316 206.3  -4.8  34108  288.70 0855.16
2009/04/23 10:48:29.4    -100   -300    -55    317    322 198.5  -9.9  34108  288.70 0855.16
2009/04/23 10:48:29.5    -118   -294    -57    317    323 201.9 -10.3  34106  288.66 0855.16
2009/04/23 10:48:29.6    -123   -344     14    366    367 199.8   2.3  34126  289.01 0855.19
2009/04/23 10:48:29.7      25   -361     27    362    363 176.0   4.4  34120  288.89 0855.19
2009/04/23 10:48:29.8      59   -340     -5    346    347 170.1  -0.9  34122  288.94 0855.19
2009/04/23 10:48:29.9     -11   -336     74    337    346 182.0  12.4  34138  289.21 0855.19
2009/04/23 10:48:30.0     -13   -287     51    288    293 182.7  10.1  34136  289.15 0855.19
2009/04/23 10:48:30.1      32   -301     -9    303    304 173.8  -1.8  34120  288.90 0855.19
2009/04/23 10:48:30.2      42   -302     -6    306    307 172.0  -1.2  34130  289.05 0855.19
2009/04/23 10:48:30.3     -10   -347      7    348    349 181.7   1.2  34136  289.15 0855.19
2009/04/23 10:48:30.4     -37   -357     18    359    360 186.0   3.0  34136  289.16 0855.19
2009/04/23 10:48:30.5     -71   -335    -80    343    353 192.0 -13.2  34124  288.96 0855.19
2009/04/23 10:48:30.6     -50   -374   -102    378    392 187.7 -15.2  34122  288.94 0855.19
2009/04/23 10:48:30.7       2   -346    -41    347    350 179.5  -6.9  34126  288.98 0855.19
2009/04/23 10:48:30.8       6   -360    -14    361    362 179.0  -2.2  34126  289.01 0855.19
2009/04/23 10:48:30.9       6   -368     16    369    370 179.0   2.5  34130  289.06 0855.19
2009/04/23 10:48:31.0     -40   -366    -22    369    370 186.3  -3.5  34126  288.99 0855.19
2009/04/23 10:48:31.1     -30   -334   -105    336    352 185.2 -22.4  34106  288.66 0855.19
2009/04/23 10:48:31.2     -81   -303   -166    314    355 195.1 -34.6  34110  288.71 0855.19
2009/04/23 10:48:31.3     -85   -323   -104    335    350 194.8 -22.4  34120  288.89 0855.19
2009/04/23 10:48:31.4    -100   -303   -105    320    336 198.3 -23.5  34124  288.96 0855.19
2009/04/23 10:48:31.5    -110   -331    -85    349    360 198.4 -13.7  34120  288.89 0855.19
2009/04/23 10:48:31.6    -134   -335   -122    361    382 201.8 -18.7  34110  288.71 0855.17
2009/04/23 10:48:31.7    -162   -262   -133    309    336 211.7 -29.2  34112  288.75 0855.17
2009/04/23 10:48:31.8    -203   -258    -94    329    342 218.1 -20.7  34120  288.89 0855.17
2009/04/23 10:48:31.9    -344   -198   -133    398    419 240.1 -23.6  34118  288.85 0855.17
2009/04/23 10:48:32.0    -349   -116   -124    368    388 251.6 -23.3  34120  288.91 0855.17
2009/04/23 10:48:32.1    -361    -97     -7    375    376 254.9  -1.2  34126  289.01 0855.17
2009/04/23 10:48:32.2    -363    -35    -23    365    366 264.4  -3.7  34130  289.06 0855.17
2009/04/23 10:48:32.3    -232   -102    132    254    286 246.3  29.5  34118  288.85 0855.17
2009/04/23 10:48:32.4    -323   -181     37    371    373 240.7   5.8  34136  289.15 0855.17
2009/04/23 10:48:32.5    -314   -177     18    361    362 240.5   2.9  34122  288.94 0855.17
2009/04/23 10:48:32.6    -303    -91     20    317    318 253.2   3.7  34116  288.81 0855.16
2009/04/23 10:48:32.7    -291   -110    -17    312    313 249.2  -3.3  34110  288.73 0855.16
2009/04/23 10:48:32.8    -282   -123    -16    308    309 246.4  -3.1  34114  288.78 0855.16
2009/04/23 10:48:32.9    -291   -137    -41    322    325 244.8  -7.3  34122  288.93 0855.16
2009/04/23 10:48:33.0    -308   -220     18    379    380 234.4   2.8  34136  289.18 0855.16
2009/04/23 10:48:33.1    -431   -144     -8    455    456 251.5  -1.1  34132  289.11 0855.16
2009/04/23 10:48:33.2    -357   -186    -14    403    404 242.5  -2.1  34140  289.24 0855.16
2009/04/23 10:48:33.3    -334   -151    -14    367    368 245.7  -2.2  34134  289.13 0855.16
2009/04/23 10:48:33.4    -300   -189    -27    355    356 237.8  -4.4  34138  289.21 0855.16
2009/04/23 10:48:33.5    -292   -212    -38    361    364 234.0  -6.1  34138  289.21 0855.16
2009/04/23 10:48:33.6    -318   -205    -32    379    381 237.1  -4.9  34138  289.21 0855.16
2009/04/23 10:48:33.7    -371   -193    -77    419    427 242.5 -10.5  34142  289.26 0855.16
2009/04/23 10:48:33.8    -322   -144    -50    353    357 245.9  -8.1  34146  289.32 0855.16
2009/04/23 10:48:33.9    -311   -197   -132    369    392 237.6 -19.7  34146  289.32 0855.16
2009/04/23 10:48:34.0    -394   -321   -174    509    539 230.9 -18.9  34142  289.28 0855.16
2009/04/23 10:48:34.1    -408   -268   -174    489    520 236.7 -19.6  34144  289.30 0855.16
2009/04/23 10:48:34.2    -333   -236   -144    409    433 234.7 -24.5  34138  289.19 0855.16
2009/04/23 10:48:34.3    -164   -205   -107    263    283 218.8 -27.5  34144  289.29 0855.16
2009/04/23 10:48:34.4    -243   -217    -69    326    334 228.2 -12.0  34144  289.30 0855.16
2009/04/23 10:48:34.5    -293   -245   -196    382    429 230.1 -33.7  34142  289.26 0855.16
2009/04/23 10:48:34.6    -243   -216   -128    326    350 228.4 -27.1  34140  289.23 0855.15
2009/04/23 10:48:34.7    -340   -246   -127    420    438 234.1 -21.7  34150  289.41 0855.15
2009/04/23 10:48:34.8    -342   -246   -136    422    444 234.3 -17.9  34154  289.46 0855.15
2009/04/23 10:48:34.9    -332   -116   -149    352    382 250.7 -28.7  34146  289.33 0855.15
2009/04/23 10:48:35.0    -319   -198   -107    376    390 238.2 -20.7  34148  289.38 0855.15
2009/04/23 10:48:35.1    -318   -186   -102    369    382 239.7 -20.0  34148  289.38 0855.15
2009/04/23 10:48:35.2    -317   -165    -82    358    368 242.5 -12.9  34152  289.43 0855.15
2009/04/23 10:48:35.3    -279   -132    -36    309    312 244.6  -6.7  34150  289.39 0855.15
2009/04/23 10:48:35.4    -336    -35   -144    338    367 263.9 -29.0  34150  289.40 0855.15
2009/04/23 10:48:35.5    -378    -91   -171    389    424 256.3 -29.6  34154  289.46 0855.15
2009/04/23 10:48:35.6    -364    -99   -113    378    394 254.8 -21.5  34154  289.47 0855.15
2009/04/23 10:48:35.7    -328    -37   -105    331    347 263.4 -22.9  34152  289.43 0855.15
2009/04/23 10:48:35.8    -336   -215    -15    400    401 237.4  -2.2  34152  289.45 0855.15
2009/04/23 10:48:35.9    -153   -149    -36    214    218 225.8  -9.6  34144  289.31 0855.15
2009/04/23 10:48:36.0    -110   -250     43    274    278 203.7   9.0  34138  289.20 0855.15
2009/04/23 10:48:36.1    -139   -187    -29    234    236 216.7  -7.2  34146  289.32 0855.15
2009/04/23 10:48:36.2     -29   -226    -32    228    231 187.3  -8.0  34138  289.19 0855.15
2009/04/23 10:48:36.3     -42   -232    -17    236    237 190.5  -4.1  34136  289.15 0855.15
2009/04/23 10:48:36.4    -113   -205    -35    235    238 209.0  -8.6  34150  289.39 0855.15
2009/04/23 10:48:36.5    -193   -165    -36    254    257 229.5  -8.2  34148  289.37 0855.15
2009/04/23 10:48:36.6    -189   -112    -10    220    221 239.3  -2.6  34142  289.28 0855.15
2009/04/23 10:48:36.7    -164    -14    -62    165    176 265.0 -25.9  34154  289.48 0855.15
2009/04/23 10:48:36.8    -104    -41    -38    112    118 248.3 -23.8  34156  289.50 0855.15
2009/04/23 10:48:36.9     -95    -47    -29    107    112 243.4 -15.4  34156  289.50 0855.15
2009/04/23 10:48:37.0     -62    -53    -36     82     89 229.6 -30.1  34148  289.36 0855.15
2009/04/23 10:48:37.1     -17    -80    -58     82    100 192.0 -43.5  34144  289.30 0855.15
2009/04/23 10:48:37.2      43   -134    -65    141    155 162.2 -31.5  34144  289.30 0855.15
2009/04/23 10:48:37.3       7   -110    -77    111    135 176.4 -42.0  34140  289.23 0855.15
2009/04/23 10:48:37.5      28   -118   -102    122    159 166.6 -48.7  34146  289.35 0855.15
2009/04/23 10:48:37.6     116    -96    -93    151    177 129.5 -39.2  34146  289.35 0855.15
2009/04/23 10:48:37.7     157   -227    -85    277    289 145.3 -22.1  34136  289.17 0855.15
2009/04/23 10:48:37.8     237   -117    -84    265    279 116.2 -17.6  34148  289.36 0855.15
2009/04/23 10:48:37.9     179   -226     -1    289    290 141.5  -0.3  34138  289.20 0855.15
2009/04/23 10:48:38.0      86   -242    141    257    293 160.4  31.3  34138  289.20 0855.15
2009/04/23 10:48:38.1      79   -206    146    221    264 158.8  36.5  34146  289.32 0855.15
2009/04/23 10:48:38.2      87   -137    153    163    223 147.5  48.0  34146  289.35 0855.15
2009/04/23 10:48:38.3      83    -40    148     93    174 115.8  64.7  34154  289.48 0855.15
2009/04/23 10:48:38.4     141    -70     94    158    183 116.6  33.7  34144  289.31 0855.15
2009/04/23 10:48:38.5     223     16    125    224    256  85.9  31.4  34150  289.41 0855.15
2009/04/23 10:48:38.6     220     -9     91    221    239  92.4  23.6  34156  289.51 0855.15
2009/04/23 10:48:38.7     205      1     47    206    212  89.6  12.9  34160  289.58 0855.11
2009/04/23 10:48:38.8     153     69    155    169    229  65.6  47.7  34160  289.57 0855.11
2009/04/23 10:48:38.9     179     15     66    180    191  85.0  21.0  34158  289.55 0855.11
2009/04/23 10:48:39.0     126     29      6    130    131  76.7   2.8  34150  289.41 0855.11
2009/04/23 10:48:39.1     114      0    -36    115    120  90.4 -22.3  34138  289.19 0855.11
2009/04/23 10:48:39.2     171    -70     64    185    196 112.4  19.2  34142  289.28 0855.11
2009/04/23 10:48:39.3     143    -56     69    154    168 111.7  25.7  34142  289.28 0855.11
2009/04/23 10:48:39.4     228     37     99    232    252  80.8  24.3  34148  289.37 0855.11
2009/04/23 10:48:39.5     291      4    119    292    315  89.2  23.5  34156  289.49 0855.11
2009/04/23 10:48:39.6     197    -33     74    200    213  99.7  21.0  34154  289.48 0855.11
2009/04/23 10:48:39.7     160     -9     49    161    169  93.3  17.1  34158  289.53 0855.11
2009/04/23 10:48:39.8     125      0     34    126    131  90.0  15.3  34160  289.58 0855.11
2009/04/23 10:48:39.9      40    -40     38     57     68 135.0  35.6  34158  289.55 0855.11
2009/04/23 10:48:40.0      24   -114     53    117    128 168.0  26.2  34158  289.55 0855.11
2009/04/23 10:48:40.1     130   -226    104    261    280 150.1  23.0  34134  289.12 0855.11
2009/04/23 10:48:40.2      74   -224    124    236    266 161.7  30.1  34134  289.12 0855.11
2009/04/23 10:48:40.3      50   -187    121    194    228 164.8  35.5  34136  289.18 0855.11
2009/04/23 10:48:40.4      24   -242    114    244    269 174.2  27.1  34138  289.20 0855.11
2009/04/23 10:48:40.5      34   -268    153    271    311 172.7  32.1  34140  289.22 0855.11
2009/04/23 10:48:40.6      62   -274     96    282    299 167.1  18.9  34142  289.25 0855.11
2009/04/23 10:48:40.7      47   -230     93    235    252 168.4  22.8  34142  289.25 0855.06
2009/04/23 10:48:40.8      97   -240     90    260    275 157.9  20.0  34142  289.27 0855.06
2009/04/23 10:48:40.9      90   -200    113    220    247 155.7  29.3  34142  289.27 0855.06
2009/04/23 10:48:41.0      43   -143    107    150    184 163.0  39.1  34144  289.30 0855.06
2009/04/23 10:48:41.1     132    -88     93    159    184 123.7  33.1  34148  289.38 0855.06
2009/04/23 10:48:41.2     106    -42     93    115    147 111.7  43.7  34160  289.58 0855.06
2009/04/23 10:48:41.3      41     -5    101     42    109  97.0  77.0  34178  289.89 0855.06
2009/04/23 10:48:41.4       5    -93    144     94    171 176.9  64.1  34174  289.82 0855.06
2009/04/23 10:48:41.5      -6   -147    169    148    224 182.7  54.3  34154  289.48 0855.06
2009/04/23 10:48:41.6     -45   -189    160    195    252 193.6  43.7  34154  289.47 0855.06
2009/04/23 10:48:41.7     -17   -234    152    235    279 184.4  35.7  34158  289.53 0855.06
2009/04/23 10:48:41.8     -25   -236    164    238    289 186.3  37.8  34156  289.49 0855.06
2009/04/23 10:48:41.9     -28   -255    141    257    293 186.3  31.3  34160  289.56 0855.06
2009/04/23 10:48:42.0     -90   -268    127    283    310 198.7  25.9  34156  289.51 0855.06
2009/04/23 10:48:42.1    -156   -245    102    291    308 212.5  20.0  34160  289.58 0855.06
2009/04/23 10:48:42.2    -226   -132     53    262    268 239.6  11.6  34174  289.81 0855.06
2009/04/23 10:48:42.3    -232    -32     55    235    242 262.0  13.2  34176  289.85 0855.06
2009/04/23 10:48:42.4    -108    -76      6    133    134 234.9   2.9  34166  289.69 0855.06
2009/04/23 10:48:42.5    -154    -76    -41    172    177 243.6 -13.4  34152  289.45 0855.06
2009/04/23 10:48:42.6    -174     24    -73    176    190 277.9 -28.0  34144  289.31 0855.06
2009/04/23 10:48:42.7    -387     78   -110    395    410 281.5 -20.2  34118  288.85 0855.05
2009/04/23 10:48:42.8    -380     33   -144    382    408 275.0 -26.0  34102  288.59 0855.05
2009/04/23 10:48:42.9    -443     -9   -162    444    472 268.8 -25.4  34118  288.85 0855.05
2009/04/23 10:48:43.0    -437    -39   -222    439    491 264.8 -33.2  34126  289.00 0855.05
2009/04/23 10:48:43.1    -435    -38   -160    437    465 264.9 -25.4  34138  289.21 0855.05
2009/04/23 10:48:43.2    -382   -121   -144    401    427 252.4 -19.8  34152  289.43 0855.05
2009/04/23 10:48:43.3    -545   -142   -178    564    592 255.3 -17.5  34136  289.17 0855.05
2009/04/23 10:48:43.4    -515   -165   -164    541    565 252.2 -21.7  34128  289.02 0855.05
2009/04/23 10:48:43.5    -501    -32   -197    503    540 266.3 -27.1  34164  289.63 0855.05
2009/04/23 10:48:43.6    -482   -134   -158    501    526 254.4 -17.6  34166  289.66 0855.05
2009/04/23 10:48:43.7    -441   -141    -79    464    471 252.2  -9.7  34156  289.50 0855.05
2009/04/23 10:48:43.8    -371   -121   -110    391    407 251.9 -15.7  34158  289.55 0855.05
2009/04/23 10:48:43.9    -380    -99   -138    393    416 255.4 -24.4  34164  289.65 0855.05
2009/04/23 10:48:44.0    -315      0   -154    316    351 270.0 -32.4  34156  289.50 0855.05
2009/04/23 10:48:44.1    -395    -17     88    396    406 267.4  12.6  34142  289.27 0855.05
2009/04/23 10:48:44.2    -347      0     18    348    349 270.0   3.0  34146  289.35 0855.05
2009/04/23 10:48:44.3    -336     32     44    338    341 275.5   7.5  34138  289.21 0855.05
2009/04/23 10:48:44.4    -276     69     29    285    287 284.1   5.9  34132  289.09 0855.05
2009/04/23 10:48:44.5    -225    -29     27    227    229 262.5   6.9  34140  289.24 0855.05
2009/04/23 10:48:44.6    -186   -142      0    235    236 232.7   0.0  34154  289.47 0855.05
2009/04/23 10:48:44.7    -242     21     13    243    244 275.2   3.1  34162  289.61 0855.07
2009/04/23 10:48:44.8    -261     36    -17    264    265 277.9  -3.7  34162  289.59 0855.07
2009/04/23 10:48:44.9    -253    -36    -82    256    268 261.9 -23.0  34172  289.78 0855.07
2009/04/23 10:48:45.0    -290     43    -19    294    295 278.6  -3.7  34170  289.75 0855.07
2009/04/23 10:48:45.1    -278      8    -92    279    293 271.7 -23.8  34188  290.05 0855.07
2009/04/23 10:48:45.2    -354      0   -150    355    385 270.0 -28.7  34192  290.11 0855.07
2009/04/23 10:48:45.3    -332   -197   -122    387    406 239.3 -17.6  34178  289.86 0855.07
2009/04/23 10:48:45.4    -306   -143    -89    338    350 245.0 -14.8  34182  289.93 0855.07
2009/04/23 10:48:45.5    -198   -198    -61    281    288 225.0 -12.4  34196  290.17 0855.07
2009/04/23 10:48:45.6    -224   -225    -96    318    333 224.9 -16.8  34182  289.95 0855.07
2009/04/23 10:48:45.7    -195   -224    -54    298    303 221.0 -10.3  34170  289.73 0855.07
2009/04/23 10:48:45.8    -139   -204    -64    247    256 214.3 -14.5  34166  289.68 0855.07
2009/04/23 10:48:45.9    -152   -172    -44    230    235 221.4 -10.9  34180  289.90 0855.07
2009/04/23 10:48:46.0    -202   -193    -32    280    282 226.2  -6.7  34172  289.78 0855.07
2009/04/23 10:48:46.1    -282    -81    -77    294    304 254.0 -14.7  34204  290.31 0855.07
2009/04/23 10:48:46.2    -274   -115     15    298    299 247.2   2.9  34206  290.34 0855.07
2009/04/23 10:48:46.3    -286   -163      0    330    331 240.2   0.1  34230  290.76 0855.07
2009/04/23 10:48:46.4    -240   -169    -25    294    296 234.9  -4.9  34190  290.07 0855.07
2009/04/23 10:48:46.5    -258      7    -23    259    261 271.7  -5.1  34188  290.05 0855.07
2009/04/23 10:48:46.6    -260     19    -93    261    278 274.4 -19.6  34182  289.93 0855.07
2009/04/23 10:48:46.7    -270    -63    -99    278    295 256.7 -24.8  34192  290.12 0855.08
2009/04/23 10:48:46.8    -214    -26   -146    216    260 263.0 -41.7  34172  289.78 0855.08
2009/04/23 10:48:46.9    -172   -128    -98    215    236 233.4 -30.6  34164  289.65 0855.08
2009/04/23 10:48:47.0    -163   -224    -35    278    281 216.1  -7.2  34164  289.63 0855.08
2009/04/23 10:48:47.1    -245    -66    106    254    275 254.9  24.1  34156  289.51 0855.08
2009/04/23 10:48:47.2    -398     30     41    400    403 274.4   5.9  34170  289.74 0855.08
2009/04/23 10:48:47.3    -427      6    -38    428    430 270.9  -5.2  34164  289.63 0855.08
2009/04/23 10:48:47.4    -429     33    -16    431    432 274.5  -2.2  34160  289.58 0855.08
2009/04/23 10:48:47.5    -390     60    -15    395    396 278.8  -2.3  34154  289.47 0855.08
2009/04/23 10:48:47.6    -342     40    -52    345    349 276.7  -8.7  34154  289.48 0855.08
2009/04/23 10:48:47.7    -536     -7   -120    537    551 269.2 -12.6  34122  288.94 0855.08
2009/04/23 10:48:47.8    -549     41   -197    551    585 274.3 -25.0  34132  289.10 0855.08
2009/04/23 10:48:47.9    -483     60     30    487    488 277.1   3.6  34158  289.54 0855.08
2009/04/23 10:48:48.0    -453     63   -151    458    483 278.0 -18.3  34134  289.13 0855.08
2009/04/23 10:48:48.1    -383    133   -146    406    432 289.2 -19.8  34142  289.26 0855.08
2009/04/23 10:48:48.2    -345     72   -150    353    383 281.9 -28.9  34126  288.98 0855.08
2009/04/23 10:48:48.3    -248    126   -154    279    318 297.0 -35.8  34122  288.92 0855.08
2009/04/23 10:48:48.4    -193     98   -136    217    256 297.1 -39.6  34128  289.03 0855.08
2009/04/23 10:48:48.5    -291    100   -129    308    333 289.1 -28.3  34134  289.14 0855.08
2009/04/23 10:48:48.6    -225    159   -115    276    299 305.3 -28.2  34152  289.44 0855.08
2009/04/23 10:48:48.7    -130    128    -98    183    207 314.7 -35.0  34160  289.57 0855.10
2009/04/23 10:48:48.8    -155      4   -125    156    199 271.7 -47.1  34166  289.69 0855.10
2009/04/23 10:48:48.9     -99   -140   -110    172    204 215.4 -40.0  34174  289.82 0855.10
2009/04/23 10:48:49.0     -42    -49   -120     65    136 220.5 -73.7  34178  289.89 0855.10
2009/04/23 10:48:49.1     -58    -67     81     89    120 221.0  47.5  34188  290.06 0855.10
2009/04/23 10:48:49.2     -96    -36    -43    103    111 249.2 -28.0  34190  290.08 0855.10
2009/04/23 10:48:49.3     -50     -9    -71     51     87 259.4 -65.5  34176  289.84 0855.10
2009/04/23 10:48:49.4    -170      0    -56    171    181 269.9 -18.3  34192  290.13 0855.10
2009/04/23 10:48:49.5    -186    -31    -44    189    195 260.5 -13.2  34190  290.08 0855.10
2009/04/23 10:48:49.6    -146     28    -68    149    163 281.0 -30.3  34182  289.96 0855.10
2009/04/23 10:48:49.7    -115    -31     34    120    125 255.0  15.8  34192  290.13 0855.10
2009/04/23 10:48:49.8     -77      3     33     78     84 272.6  23.6  34198  290.23 0855.10
2009/04/23 10:48:49.9     -47    -56     -9     74     75 219.6  -7.2  34194  290.16 0855.10
2009/04/23 10:48:50.0     -42    -88     12     98     99 205.9   7.5  34194  290.14 0855.10
2009/04/23 10:48:50.1     -24    -96     52    100    112 194.3  29.3  34192  290.11 0855.10
2009/04/23 10:48:50.2     -24    -96     45    100    109 194.3  26.2  34194  290.16 0855.10
2009/04/23 10:48:50.3      -3    -35     66     36     75 186.2  68.8  34204  290.33 0855.10
2009/04/23 10:48:50.4     -17    -20     64     27     69 221.4  77.0  34208  290.38 0855.10
2009/04/23 10:48:50.5     -16     -3     27     17     31 258.5  64.7  34208  290.40 0855.10
2009/04/23 10:48:50.6     -19     30     36     36     50 327.5  50.1  34210  290.43 0855.10
2009/04/23 10:48:50.7     -71     71     35    101    108 315.0  19.4  34188  290.04 0855.11
2009/04/23 10:48:50.8    -125     85     29    152    155 304.1  11.1  34190  290.09 0855.11
2009/04/23 10:48:50.9    -100    -15      2    102    103 261.2   1.2  34182  289.96 0855.11
2009/04/23 10:48:51.0     -91    -75    -42    119    127 230.4 -19.6  34178  289.89 0855.11
2009/04/23 10:48:51.1    -156     -3    -71    157    172 268.7 -30.6  34212  290.47 0855.11
2009/04/23 10:48:51.2    -147     15    -71    148    164 276.1 -31.8  34216  290.52 0855.11
2009/04/23 10:48:51.3      -6    -18    -93     20     95 200.0 -90.0  34206  290.35 0855.11
2009/04/23 10:48:51.4      39    -17    -71     43     83 114.4 -70.6  34180  289.92 0855.11
2009/04/23 10:48:51.5      49   -109      1    120    121 155.5   0.8  34192  290.11 0855.11
2009/04/23 10:48:51.6     -12   -123    -25    124    127 185.8 -11.5  34144  289.31 0855.11
2009/04/23 10:48:51.7     -20    -27    -33     34     47 216.1 -55.5  34148  289.38 0855.11
2009/04/23 10:48:51.8    -101     56     23    116    119 298.9  11.6  34150  289.41 0855.11
2009/04/23 10:48:51.9    -300    104    -75    318    327 289.2 -13.4  34180  289.90 0855.11
2009/04/23 10:48:52.0    -351   -156   -181    385    425 246.0 -31.5  34152  289.43 0855.11
2009/04/23 10:48:52.1    -349    -49   -214    353    412 261.9 -38.5  34130  289.08 0855.11
2009/04/23 10:48:52.2    -521   -136   -160    539    562 255.3 -21.5  34152  289.43 0855.11
2009/04/23 10:48:52.3    -514     12    -88    515    523 271.4  -9.7  34164  289.63 0855.11
2009/04/23 10:48:52.4    -468    -26    -32    469    471 266.7  -3.9  34178  289.88 0855.11
2009/04/23 10:48:52.5    -441    -41    -48    444    447 264.7  -6.2  34176  289.85 0855.11
2009/04/23 10:48:52.6    -444    104    -53    457    461 283.3  -6.7  34160  289.56 0855.11
2009/04/23 10:48:52.7    -524   -127    -17    540    541 256.3  -1.9  34158  289.53 0855.12
2009/04/23 10:48:52.8    -345    -91   -115    357    375 255.2 -23.0  34158  289.55 0855.12
2009/04/23 10:48:52.9    -288   -259   -135    388    410 228.0 -24.3  34162  289.60 0855.12
2009/04/23 10:48:53.0    -334   -111    -72    353    361 251.5 -11.6  34160  289.57 0855.12
2009/04/23 10:48:53.1    -535      0    -54    536    539 269.9  -5.8  34130  289.06 0855.12
2009/04/23 10:48:53.2    -399   -174   -148    436    460 246.4 -23.6  34172  289.78 0855.12
2009/04/23 10:48:53.3    -336   -111    -63    354    360 251.7 -10.2  34172  289.76 0855.12
2009/04/23 10:48:53.4    -417   -122   -114    435    450 253.7 -14.7  34174  289.80 0855.12
2009/04/23 10:48:53.5    -428    -84     91    437    447 258.8  11.8  34160  289.56 0855.12
2009/04/23 10:48:53.6    -309     47      1    313    314 278.8   0.2  34168  289.70 0855.12
2009/04/23 10:48:53.7    -231    -54     46    238    243 256.7  11.1  34162  289.61 0855.13
2009/04/23 10:48:53.8    -156    -16     46    157    164 263.8  16.3  34166  289.67 0855.13
2009/04/23 10:48:53.9    -147    -86     46    171    178 239.8  15.3  34168  289.72 0855.13
2009/04/23 10:48:54.0    -198   -204    -11    285    286 224.1  -2.3  34162  289.61 0855.13
2009/04/23 10:48:54.1    -131   -278    -97    308    323 205.3 -17.5  34166  289.66 0855.13
2009/04/23 10:48:54.2     -66   -282    -79    290    301 193.3 -15.4  34140  289.22 0855.13
2009/04/23 10:48:54.3       0   -338    -28    339    341 180.1  -4.8  34146  289.32 0855.13
2009/04/23 10:48:54.4      20   -268    -85    269    283 175.5 -17.5  34144  289.31 0855.13
2009/04/23 10:48:54.5      50   -285    -11    290    291 170.0  -2.3  34138  289.19 0855.13
2009/04/23 10:48:54.6     -29   -321    -89    323    336 185.2 -15.5  34142  289.25 0855.13
2009/04/23 10:48:54.7     -25   -338     25    339    340 184.2   4.2  34142  289.28 0855.13
2009/04/23 10:48:54.8     -98   -297     76    313    323 198.3  13.7  34142  289.27 0855.13
2009/04/23 10:48:54.9     -37   -264    130    267    296 188.0  27.8  34144  289.31 0855.13
2009/04/23 10:48:55.0      55   -262    109    268    289 168.0  23.1  34150  289.39 0855.13
2009/04/23 10:48:55.1      24   -194     50    196    203 172.9  14.5  34144  289.30 0855.13
2009/04/23 10:48:55.2      88   -122     70    151    166 144.0  26.6  34148  289.38 0855.13
2009/04/23 10:48:55.3     151   -207     67    257    266 143.9  14.7  34146  289.32 0855.13
2009/04/23 10:48:55.4      32   -214     70    217    229 171.5  17.9  34148  289.38 0855.13
2009/04/23 10:48:55.5     -37    -85     15     93     95 203.6   9.5  34148  289.38 0855.13
2009/04/23 10:48:55.6      14   -114     62    115    130 172.9  30.8  34152  289.45 0855.13
2009/04/23 10:48:55.7     -14   -317    225    318    389 182.7  38.7  34132  289.10 0855.14
2009/04/23 10:48:55.8     -88   -315     77    328    337 195.6  13.2  34138  289.21 0855.14
2009/04/23 10:48:55.9      61   -251    161    259    304 166.2  35.2  34148  289.37 0855.14
2009/04/23 10:48:56.0     113   -256    183    280    334 156.2  36.3  34148  289.36 0855.14
2009/04/23 10:48:56.1      44   -285    162    289    331 171.1  31.9  34150  289.41 0855.14
2009/04/23 10:48:56.2     -34   -201    149    205    253 189.8  39.7  34150  289.41 0855.14
2009/04/23 10:48:56.3      48   -233    136    239    274 168.2  32.1  34148  289.37 0855.14
2009/04/23 10:48:56.4     178   -228    133    290    319 142.1  26.3  34146  289.34 0855.14
2009/04/23 10:48:56.5     210   -182    117    279    302 130.9  24.1  34144  289.31 0855.14
2009/04/23 10:48:56.6     199    -52    203    206    289 104.8  49.9  34152  289.44 0855.14
2009/04/23 10:48:56.7      25    -39     98     47    108 147.4  72.9  34164  289.63 0855.14
2009/04/23 10:48:56.8     138    -50    103    147    179 110.0  38.6  34156  289.50 0855.14
2009/04/23 10:48:56.9     209    -29    180    212    278  98.0  44.8  34154  289.47 0855.14
2009/04/23 10:48:57.0      78     64    240    102    260  50.5  75.9  34166  289.69 0855.14
2009/04/23 10:48:57.1     119   -153    127    194    231 142.2  35.7  34142  289.28 0855.14
2009/04/23 10:48:57.2      72    -73    134    103    169 135.5  58.7  34148  289.38 0855.14
2009/04/23 10:48:57.3      87     98    208    132    246  41.5  64.7  34172  289.77 0855.14
2009/04/23 10:48:57.4       3    -16    147     17    147 168.4  90.0  34176  289.85 0855.14
2009/04/23 10:48:57.5     -36     -2    148     37    152 265.6  85.9  34164  289.65 0855.14
2009/04/23 10:48:57.6     157      0    185    158    243  90.0  55.4  34148  289.38 0855.14
2009/04/23 10:48:57.7     115    -17    207    117    237  98.4  68.1  34154  289.46 0855.15
2009/04/23 10:48:57.8     117     57    156    131    203  63.8  55.8  34156  289.50 0855.15
2009/04/23 10:48:57.9      -9     75    149     76    167 352.9  71.4  34166  289.69 0855.15
2009/04/23 10:48:58.0     106     31    165    111    198  73.6  62.7  34152  289.43 0855.15
2009/04/23 10:48:58.1     119    106    142    160    213  48.2  46.2  34150  289.40 0855.15
2009/04/23 10:48:58.2     101     66    148    122    191  56.7  56.3  34154  289.46 0855.15
2009/04/23 10:48:58.3      -3     39    154     40    159 355.6  85.4  34184  289.97 0855.15
2009/04/23 10:48:58.4     -42     58     86     72    112 323.9  56.3  34176  289.85 0855.15
2009/04/23 10:48:58.5     -22    112     67    115    133 348.5  33.5  34162  289.62 0855.15
2009/04/23 10:48:58.6     -98     99     69    140    156 315.5  27.3  34160  289.58 0855.15
2009/04/23 10:48:58.7    -140     66    129    155    201 295.4  44.1  34164  289.63 0855.15
2009/04/23 10:48:58.8     -58     60     93     84    125 316.3  53.3  34158  289.53 0855.15
2009/04/23 10:48:58.9      21     65    151     69    166  18.3  73.8  34162  289.60 0855.15
2009/04/23 10:48:59.0     176    152    138    233    270  49.1  33.5  34146  289.34 0855.15
2009/04/23 10:48:59.1     255     77    154    267    308  73.2  32.4  34152  289.42 0855.15
2009/04/23 10:48:59.2     140     90    204    167    263  57.1  56.4  34154  289.46 0855.15
2009/04/23 10:48:59.3     243    131    273    277    388  61.6  49.9  34146  289.35 0855.15
2009/04/23 10:48:59.4     164    152    124    224    256  47.1  31.4  34152  289.44 0855.15
2009/04/23 10:48:59.5      -5     41    141     42    147 352.9  82.8  34164  289.65 0855.15
2009/04/23 10:48:59.6     -31     44     97     55    111 324.8  68.3  34166  289.69 0855.15
2009/04/23 10:48:59.7     -86    -29     73     91    116 250.9  43.7  34168  289.70 0855.15
2009/04/23 10:48:59.8      71    -28    138     77    158 111.7  68.5  34168  289.72 0855.15
2009/04/23 10:48:59.9     121      3    171    122    210  88.3  61.1  34170  289.75 0855.15
2009/04/23 10:49:00.0      31      6    124     32    128  78.6  85.4  34166  289.69 0855.15
2009/04/23 10:49:00.1      -3     27     98     28    101 352.0  83.9  34170  289.75 0855.15
2009/04/23 10:49:00.2      45      3     65     46     79  85.6  61.5  34174  289.82 0855.15
2009/04/23 10:49:00.3      85     85    123    121    172  45.0  50.1  34188  290.06 0855.15
2009/04/23 10:49:00.4      92     -5    108     93    142  93.5  54.8  34188  290.04 0855.15
2009/04/23 10:49:00.5     138     -6    126    139    187  92.5  47.1  34162  289.62 0855.15
2009/04/23 10:49:00.6     261    -94    125    278    304 109.9  26.2  34150  289.41 0855.15
2009/04/23 10:49:00.7     252    -91    150    269    307 110.0  31.4  34154  289.46 0855.15
2009/04/23 10:49:00.8     185    -99    119    210    241 118.2  32.3  34150  289.40 0855.15
2009/04/23 10:49:00.9     222    -17    118    223    252  94.6  30.2  34152  289.44 0855.15
2009/04/23 10:49:01.0      52   -161     90    170    192 162.2  30.3  34156  289.52 0855.15
2009/04/23 10:49:01.1      65   -202    127    213    247 162.0  33.7  34146  289.32 0855.15
2009/04/23 10:49:01.2      99    -93     69    137    153 133.1  28.7  34156  289.50 0855.15
2009/04/23 10:49:01.3     218    -73    122    231    261 108.6  30.2  34160  289.56 0855.15
2009/04/23 10:49:01.4     216   -151    140    264    298 125.1  30.3  34154  289.46 0855.15
2009/04/23 10:49:01.5     154   -176    133    234    269 138.8  32.1  34150  289.39 0855.15
2009/04/23 10:49:01.6     142   -210    198    254    322 145.9  42.0  34154  289.46 0855.15
2009/04/23 10:49:01.7     102   -184    166    211    268 151.0  42.4  34158  289.54 0855.16
2009/04/23 10:49:01.8     143   -173    143    225    266 140.4  35.5  34158  289.53 0855.16
2009/04/23 10:49:01.9     123   -193    135    230    266 147.5  33.1  34150  289.41 0855.16
2009/04/23 10:49:02.0     134   -253    152    287    324 152.0  30.1  34152  289.42 0855.16
2009/04/23 10:49:02.1     125   -225    123    258    285 150.8  27.2  34154  289.47 0855.16
2009/04/23 10:49:02.2      44   -259     91    263    279 170.2  19.2  34158  289.54 0855.16
2009/04/23 10:49:02.3      97   -216     96    237    255 155.7  23.1  34154  289.46 0855.16
2009/04/23 10:49:02.4      95   -237     96    256    273 158.1  21.3  34156  289.51 0855.16
2009/04/23 10:49:02.5      14   -316     20    317    318 177.3   3.7  34166  289.66 0855.16
2009/04/23 10:49:02.6      63   -319      0    326    327 168.8   0.0  34166  289.68 0855.16
2009/04/23 10:49:02.7     119   -335    -13    356    357 160.3  -2.2  34166  289.67 0855.16
2009/04/23 10:49:02.8     179   -303    -45    352    355 149.4  -7.3  34162  289.59 0855.16
2009/04/23 10:49:02.9     162   -282    -49    326    330 150.1  -8.7  34162  289.59 0855.16
2009/04/23 10:49:03.0     182   -299    -18    351    352 148.7  -3.0  34158  289.54 0855.16
2009/04/23 10:49:03.1     137   -343    -96    370    383 158.2 -14.6  34162  289.60 0855.16
2009/04/23 10:49:03.2     167   -328    -91    369    381 153.0 -13.9  34162  289.60 0855.16
2009/04/23 10:49:03.3     117   -245    -66    272    280 154.5 -13.7  34162  289.59 0855.16
2009/04/23 10:49:03.4     126   -198    -23    235    237 147.5  -5.6  34162  289.61 0855.16
2009/04/23 10:49:03.5     113   -180     -4    213    214 147.7  -1.1  34164  289.63 0855.16
2009/04/23 10:49:03.6     194   -220     52    294    299 138.5  10.1  34162  289.59 0855.16
2009/04/23 10:49:03.7     228   -161     76    280    291 125.3  15.2  34162  289.59 0855.14
2009/04/23 10:49:03.8     203   -147    106    251    272 126.0  24.1  34162  289.59 0855.14
2009/04/23 10:49:03.9      94   -174    165    199    258 151.5  43.8  34158  289.53 0855.14
2009/04/23 10:49:04.0      28   -212    191    214    286 172.4  46.2  34162  289.61 0855.14
2009/04/23 10:49:04.1      17   -311     67    312    320 176.9  12.2  34178  289.86 0855.14
2009/04/23 10:49:04.3     -48   -300     53    304    309 189.1   9.9  34188  290.05 0855.14
2009/04/23 10:49:04.4     -29   -273     54    275    281 186.3  11.1  34184  289.97 0855.14
2009/04/23 10:49:04.5    -140   -337     45    365    368 202.6   7.1  34178  289.86 0855.14
2009/04/23 10:49:04.6    -156   -284    100    325    341 208.8  17.1  34166  289.69 0855.14
2009/04/23 10:49:04.7    -136   -277     66    309    317 206.3  12.2  34158  289.54 0855.14
2009/04/23 10:49:04.8     -38   -247    166    251    300 188.9  36.5  34168  289.70 0855.14
2009/04/23 10:49:04.9     -31   -286    139    288    319 186.3  27.7  34162  289.61 0855.14
2009/04/23 10:49:05.0     -74   -333    130    342    365 192.6  21.8  34162  289.62 0855.14
2009/04/23 10:49:05.1     -98   -317     71    332    340 197.2  12.1  34178  289.87 0855.14
2009/04/23 10:49:05.2      14   -303     62    304    311 177.3  11.6  34160  289.58 0855.14
2009/04/23 10:49:05.3      14   -320     68    321    329 177.4  12.0  34158  289.53 0855.14
2009/04/23 10:49:05.4      21   -280     70    281    290 175.5  14.2  34158  289.54 0855.14
2009/04/23 10:49:05.5      13   -300     61    301    308 177.4  11.6  34158  289.54 0855.14
2009/04/23 10:49:05.6     -64   -315     16    322    323 191.6   2.9  34164  289.63 0855.14
2009/04/23 10:49:05.7     -44   -330     38    333    336 187.7   6.6  34160  289.57 0855.14
2009/04/23 10:49:05.8     -69   -358     -4    365    366 191.0  -0.7  34154  289.48 0855.13
2009/04/23 10:49:05.9     -68   -329    -74    337    346 191.8 -12.4  34154  289.48 0855.13
2009/04/23 10:49:06.0     -56   -299    -74    305    314 190.7 -13.7  34160  289.56 0855.13
2009/04/23 10:49:06.1    -137   -303    -76    333    342 204.3 -12.9  34158  289.55 0855.13
2009/04/23 10:49:06.2    -108   -307    -80    326    336 199.4 -13.9  34148  289.37 0855.13
2009/04/23 10:49:06.3     -30   -278    -99    280    298 186.3 -19.6  34152  289.44 0855.13
2009/04/23 10:49:06.4       0   -240   -102    241    261 180.0 -28.5  34154  289.47 0855.13
2009/04/23 10:49:06.5      -2   -214    -48    215    221 180.7 -12.6  34152  289.43 0855.13
2009/04/23 10:49:06.6      23   -263    -53    265    271 174.9 -11.5  34156  289.49 0855.13
2009/04/23 10:49:06.7     -27   -263    -62    265    273 186.0 -13.2  34148  289.37 0855.13
2009/04/23 10:49:06.8     -17   -223    -66    224    234 184.5 -16.4  34146  289.33 0855.13
2009/04/23 10:49:06.9       7   -277     -1    278    279 178.4  -0.3  34146  289.34 0855.13
2009/04/23 10:49:07.0      11   -228    -59    229    237 177.1 -14.5  34152  289.42 0855.13
2009/04/23 10:49:07.1     -21   -252    -33    253    256 184.9  -7.5  34152  289.42 0855.13
2009/04/23 10:49:07.2      10   -240    -59    241    249 177.5 -13.9  34150  289.41 0855.13
2009/04/23 10:49:07.3       3   -237    -22    238    240 179.1  -5.4  34152  289.44 0855.13
2009/04/23 10:49:07.4       0   -267    -38    268    271 180.0  -8.2  34154  289.47 0855.13
2009/04/23 10:49:07.5       2   -257     -8    258    259 179.5  -1.8  34154  289.47 0855.13
2009/04/23 10:49:07.6       3   -254     40    255    259 179.1   9.0  34150  289.39 0855.13
2009/04/23 10:49:07.7      41   -264    -54    268    274 171.1 -11.5  34150  289.39 0855.13
2009/04/23 10:49:07.8      83   -235    -50    250    255 160.6 -11.3  34150  289.39 0855.15
2009/04/23 10:49:07.9      -3   -243    -94    244    261 180.7 -26.5  34146  289.34 0855.15
2009/04/23 10:49:08.0     -94   -133   -216    163    270 215.2 -63.8  34156  289.49 0855.15
2009/04/23 10:49:08.1    -100   -121   -205    158    258 219.6 -62.9  34138  289.19 0855.15
2009/04/23 10:49:08.2      85    -89   -183    124    221 136.3 -67.1  34144  289.31 0855.15
2009/04/23 10:49:08.3     207   -248    -43    324    327 140.1  -7.6  34138  289.20 0855.15
2009/04/23 10:49:08.4     215    -67    -37    226    230 107.3  -9.4  34144  289.30 0855.15
2009/04/23 10:49:08.5     268   -132     26    299    301 116.2   5.0  34146  289.34 0855.15
2009/04/23 10:49:08.6     283   -173    -50    332    336 121.5  -8.7  34142  289.25 0855.15
2009/04/23 10:49:08.7     336   -148     38    368    371 113.7   6.0  34142  289.28 0855.15
2009/04/23 10:49:08.8     274   -124    -54    301    306 114.4 -10.3  34138  289.20 0855.15
2009/04/23 10:49:08.9     133    -91     74    162    178 124.6  26.2  34144  289.30 0855.15
2009/04/23 10:49:09.0      75   -144     64    163    175 152.4  22.0  34142  289.28 0855.15
2009/04/23 10:49:09.1     200   -183     85    272    286 132.4  17.4  34146  289.32 0855.15
2009/04/23 10:49:09.2     214   -159     30    267    269 126.6   6.5  34144  289.29 0855.15
2009/04/23 10:49:09.3     248   -126     77    279    290 116.9  15.6  34142  289.27 0855.15
2009/04/23 10:49:09.4     110   -138    177    177    250 141.5  50.1  34140  289.24 0855.15
2009/04/23 10:49:09.5     214   -240    126    322    345 138.3  22.7  34142  289.28 0855.15
2009/04/23 10:49:09.6     147   -256     93    296    311 150.1  17.4  34142  289.27 0855.15
2009/04/23 10:49:09.7      61   -186    145    196    243 161.7  40.1  34144  289.31 0855.15
2009/04/23 10:49:09.8     120   -199    145    233    274 148.8  35.0  34140  289.24 0855.16
2009/04/23 10:49:09.9     120   -149    140    192    237 141.0  39.7  34150  289.40 0855.16
2009/04/23 10:49:10.0      63   -152    141    165    217 157.3  45.1  34148  289.36 0855.16
2009/04/23 10:49:10.1      44   -139    115    147    186 162.2  42.4  34148  289.38 0855.16
2009/04/23 10:49:10.2      49   -202     28    209    211 166.2   7.8  34142  289.26 0855.16
2009/04/23 10:49:10.3     -12   -175     59    176    186 184.2  18.6  34142  289.28 0855.16
2009/04/23 10:49:10.4      48   -188     17    195    196 165.7   5.2  34146  289.33 0855.16
2009/04/23 10:49:10.5      93   -167     76    192    206 151.0  23.0  34144  289.30 0855.16
2009/04/23 10:49:10.6      14   -159    146    160    216 174.7  47.5  34148  289.38 0855.16
2009/04/23 10:49:10.7      36   -189    150    193    244 169.1  41.7  34150  289.41 0855.16
2009/04/23 10:49:10.8      -6   -208    102    209    232 181.8  27.4  34150  289.40 0855.16
2009/04/23 10:49:10.9     -11   -152    -13    153    154 184.4  -5.2  34144  289.31 0855.16
2009/04/23 10:49:11.0       0   -172     39    173    178 180.2  12.9  34144  289.30 0855.16
2009/04/23 10:49:11.1      49   -158     29    166    169 162.6  10.1  34140  289.24 0855.16
2009/04/23 10:49:11.2      29   -247     77    249    261 173.1  17.3  34144  289.29 0855.16
2009/04/23 10:49:11.3     -41   -188    107    193    220 192.3  31.4  34146  289.35 0855.16
2009/04/23 10:49:11.4      -9   -194     34    195    199 182.9  10.1  34144  289.30 0855.16
2009/04/23 10:49:11.5      -2   -227      1    228    229 180.7   0.5  34144  289.30 0855.16
2009/04/23 10:49:11.6      29   -234    -46    236    241 172.9 -11.1  34140  289.24 0855.16
2009/04/23 10:49:11.7      -4   -259     26    260    262 180.9   5.9  34146  289.32 0855.16
2009/04/23 10:49:11.8     -41   -222     85    226    241 190.5  21.5  34150  289.41 0855.16
2009/04/23 10:49:11.9     -42   -258    108    262    283 189.3  23.8  34150  289.39 0855.16
2009/04/23 10:49:12.0     -99   -265    128    284    311 200.5  26.2  34148  289.37 0855.16
2009/04/23 10:49:12.1     -93   -311     59    325    331 196.7  10.3  34150  289.40 0855.16
2009/04/23 10:49:12.2     -58   -354    -62    359    365 189.4  -9.9  34154  289.47 0855.16
2009/04/23 10:49:12.3     -64   -376    -10    382    383 189.8  -1.6  34162  289.60 0855.16
2009/04/23 10:49:12.4     -31   -378      9    380    381 184.7   1.5  34162  289.60 0855.16
2009/04/23 10:49:12.5     -33   -375     92    377    389 185.1  13.8  34176  289.84 0855.16
2009/04/23 10:49:12.6       0   -387     49    388    392 180.1   7.2  34152  289.43 0855.16
2009/04/23 10:49:12.7       0   -387     76    388    396 180.1  11.1  34152  289.43 0855.16
2009/04/23 10:49:12.8     -25   -403     82    404    413 183.6  11.6  34158  289.55 0855.16
2009/04/23 10:49:12.9     -23   -359     43    360    363 183.8   6.9  34158  289.54 0855.16
2009/04/23 10:49:13.0     -64   -367     44    373    376 190.0   6.9  34160  289.57 0855.16
2009/04/23 10:49:13.1     -65   -340     68    347    354 190.8  11.1  34160  289.57 0855.16
2009/04/23 10:49:13.2     -79   -293     59    304    310 195.2  11.1  34158  289.53 0855.16
2009/04/23 10:49:13.3     -83   -325    101    336    351 194.4  16.8  34156  289.52 0855.16
2009/04/23 10:49:13.4     -91   -381     89    392    403 193.5  12.9  34154  289.48 0855.16
2009/04/23 10:49:13.5     -73   -344     50    352    356 192.1   8.2  34156  289.50 0855.16
2009/04/23 10:49:13.6     -58   -320     90    326    339 190.3  15.4  34154  289.47 0855.16
2009/04/23 10:49:13.7     -59   -290    131    297    324 191.6  25.6  34152  289.42 0855.16
2009/04/23 10:49:13.8     -72   -328     17    336    337 192.4   3.0  34146  289.35 0855.18
2009/04/23 10:49:13.9     -66   -403     -8    409    410 189.4  -1.2  34148  289.36 0855.18
2009/04/23 10:49:14.0     -52   -397    -91    401    412 187.6 -12.9  34144  289.31 0855.18
2009/04/23 10:49:14.1       0   -411    -71    412    419 180.1  -9.8  34138  289.21 0855.18
2009/04/23 10:49:14.2    -208   -476     64    520    525 203.6   7.1  34140  289.23 0855.18
2009/04/23 10:49:14.3    -252   -564    -28    618    619 204.1  -2.6  34136  289.18 0855.18
2009/04/23 10:49:14.4    -333   -480    -42    585    587 214.7  -4.1  34146  289.32 0855.18
2009/04/23 10:49:14.5    -279   -461    -76    540    546 211.2  -8.0  34148  289.36 0855.18
2009/04/23 10:49:14.6    -347   -439    -54    560    563 218.3  -5.6  34156  289.50 0855.18
2009/04/23 10:49:14.7    -365   -413   -141    552    570 221.4 -14.4  34162  289.60 0855.18
2009/04/23 10:49:14.8    -375   -461    -68    595    599 219.1  -6.6  34144  289.30 0855.20
2009/04/23 10:49:14.9    -325   -434    -82    543    550 216.8  -8.6  34138  289.21 0855.20
2009/04/23 10:49:15.0    -118   -368     75    387    395 197.8  11.0  34136  289.15 0855.20
2009/04/23 10:49:15.1    -189   -321     21    373    374 210.5   3.3  34146  289.33 0855.20
2009/04/23 10:49:15.2    -411   -366   -152    551    572 228.3 -15.5  34146  289.33 0855.20
2009/04/23 10:49:15.3    -351   -404   -128    536    552 221.0 -13.4  34146  289.33 0855.20
2009/04/23 10:49:15.4    -392   -455    -77    601    606 220.8  -7.3  34146  289.34 0855.20
2009/04/23 10:49:15.5    -435   -396    -90    589    596 227.7  -8.7  34150  289.39 0855.20
2009/04/23 10:49:15.6    -412   -342   -160    536    560 230.3 -16.6  34144  289.31 0855.20
2009/04/23 10:49:15.7    -372   -298   -147    477    499 231.3 -22.2  34146  289.32 0855.20
2009/04/23 10:49:15.8    -322   -267   -183    419    457 230.3 -29.5  34148  289.38 0855.20
2009/04/23 10:49:15.9    -239   -303   -177    387    425 218.3 -30.7  34152  289.44 0855.20
2009/04/23 10:49:16.0    -378   -212   -170    434    466 240.7 -27.1  34148  289.36 0855.20
2009/04/23 10:49:16.1    -393   -248    -49    465    468 237.8  -6.1  34152  289.42 0855.20
2009/04/23 10:49:16.2    -223   -315   -112    386    402 215.3 -16.2  34148  289.37 0855.20
2009/04/23 10:49:16.3    -105   -250    -83    272    284 202.7 -21.8  34150  289.39 0855.20
2009/04/23 10:49:16.4     -51   -182    -53    190    197 195.8 -20.0  34148  289.36 0855.20
2009/04/23 10:49:16.5     -77   -229    -35    242    245 198.7  -8.3  34148  289.37 0855.20
2009/04/23 10:49:16.6     -80   -216    -54    231    238 200.3 -13.3  34158  289.53 0855.20
2009/04/23 10:49:16.7    -127    -93   -110    158    192 233.6 -42.4  34154  289.48 0855.20
2009/04/23 10:49:16.8     -53    -55    -88     77    116 224.2 -58.7  34152  289.45 0855.22
2009/04/23 10:49:16.9    -120     32    -49    125    134 285.0 -26.4  34154  289.48 0855.22
2009/04/23 10:49:17.0    -283     77    -16    294    295 285.3  -3.2  34148  289.36 0855.22
2009/04/23 10:49:17.1    -245     19    -23    246    248 274.6  -5.4  34152  289.44 0855.22
2009/04/23 10:49:17.2    -176    -48    -23    183    185 254.7  -7.3  34160  289.58 0855.22
2009/04/23 10:49:17.3    -141    -72    -47    159    165 242.9 -21.5  34166  289.69 0855.22
2009/04/23 10:49:17.4      71    -86    -38    112    119 140.4 -18.7  34158  289.55 0855.22
2009/04/23 10:49:17.5     162    -89    -82    185    202 118.9 -29.6  34154  289.46 0855.22
2009/04/23 10:49:17.6     100    -41    -65    109    126 112.6 -37.9  34156  289.52 0855.22
2009/04/23 10:49:17.7      50     16    -86     53    101  72.3 -69.5  34160  289.57 0855.22
2009/04/23 10:49:17.8     -13    -93    -59     94    110 188.0 -39.9  34166  289.67 0855.22
2009/04/23 10:49:17.9      -3   -204    -59    205    213 181.0 -21.2  34154  289.48 0855.22
2009/04/23 10:49:18.0      49   -183     56    190    199 164.8  16.6  34152  289.45 0855.22
2009/04/23 10:49:18.1     111   -233      0    259    260 154.4   0.0  34152  289.42 0855.22
2009/04/23 10:49:18.2      81   -251    -99    264    281 162.0 -25.7  34154  289.47 0855.22
2009/04/23 10:49:18.3      63   -269    -82    277    288 166.7 -21.7  34150  289.41 0855.22
2009/04/23 10:49:18.4       8   -283    -41    284    287 178.2  -8.2  34148  289.37 0855.22
2009/04/23 10:49:18.5      26   -270     48    272    277 174.4  10.0  34150  289.39 0855.22
2009/04/23 10:49:18.6      25   -181     81    183    200 171.9  25.3  34152  289.45 0855.22
2009/04/23 10:49:18.7     115   -137     58    180    190 139.9  17.9  34150  289.41 0855.22
2009/04/23 10:49:18.8     125   -191     53    229    236 146.8  13.1  34150  289.39 0855.24
2009/04/23 10:49:18.9      69   -220     38    231    235 162.6   9.5  34150  289.41 0855.24
2009/04/23 10:49:19.0     138   -216     89    257    273 147.5  19.2  34150  289.41 0855.24
2009/04/23 10:49:19.1     156   -193      4    249    250 141.0   1.0  34150  289.41 0855.24
2009/04/23 10:49:19.2     208   -141     35    252    255 124.2   8.0  34152  289.42 0855.24
2009/04/23 10:49:19.3     184   -182    -10    259    260 134.7  -2.2  34152  289.44 0855.24
2009/04/23 10:49:19.4     139   -166     -4    217    218 140.1  -1.2  34156  289.50 0855.24
2009/04/23 10:49:19.5      86   -222     37    239    242 158.8   8.9  34154  289.47 0855.24
2009/04/23 10:49:19.6      32   -228     59    231    239 172.0  14.3  34154  289.47 0855.24
2009/04/23 10:49:19.7      94   -182     91    206    225 152.6  25.3  34150  289.41 0855.24
2009/04/23 10:49:19.8     128   -182    123    223    254 144.8  31.3  34152  289.44 0855.24
2009/04/23 10:49:19.9      80   -186    101    203    226 156.8  28.2  34150  289.40 0855.24
2009/04/23 10:49:20.0      63   -172    103    184    210 159.7  31.6  34150  289.40 0855.24
2009/04/23 10:49:20.1      30   -231    166    234    286 172.4  38.8  34154  289.47 0855.24
2009/04/23 10:49:20.2       3   -193    141    194    239 178.9  39.7  34152  289.45 0855.24
2009/04/23 10:49:20.3      27   -172    108    175    205 171.1  34.8  34154  289.48 0855.24
2009/04/23 10:49:20.4     139   -173    144    223    265 141.3  35.6  34160  289.58 0855.24
2009/04/23 10:49:20.5      55   -291    152    297    333 169.3  29.2  34154  289.46 0855.24
2009/04/23 10:49:20.6      62   -306    198    313    370 168.5  35.5  34154  289.48 0855.24
2009/04/23 10:49:20.7      48   -179    224    186    291 164.8  56.3  34144  289.31 0855.24
2009/04/23 10:49:20.8     133   -243    225    278    357 151.3  43.1  34158  289.55 0855.26
2009/04/23 10:49:20.9      51   -340    166    344    381 171.4  27.4  34162  289.59 0855.26
2009/04/23 10:49:21.0      74   -362    207    370    423 168.3  31.6  34162  289.60 0855.26
2009/04/23 10:49:21.1      19   -258    171    259    310 175.6  36.5  34156  289.49 0855.26
2009/04/23 10:49:21.2     135   -274    235    306    385 153.7  41.4  34162  289.62 0855.26
2009/04/23 10:49:21.3     102   -257    200    277    341 158.2  39.5  34156  289.51 0855.26
2009/04/23 10:49:21.4      69   -365    207    372    425 169.2  31.4  34160  289.56 0855.26
2009/04/23 10:49:21.5     213   -430    142    480    501 153.6  16.5  34160  289.56 0855.26
2009/04/23 10:49:21.6     153   -380    170    410    443 158.1  23.9  34156  289.49 0855.26
2009/04/23 10:49:21.7     117   -424    103    441    453 164.5  13.2  34158  289.53 0855.26
2009/04/23 10:49:21.8     199   -455     25    497    498 156.4   2.9  34156  289.52 0855.26
2009/04/23 10:49:21.9     183   -450     76    487    494 157.8   8.9  34152  289.45 0855.26
2009/04/23 10:49:22.0     137   -464     50    485    488 163.5   6.0  34158  289.54 0855.26
2009/04/23 10:49:22.1     119   -468    145    483    505 165.7  16.7  34158  289.54 0855.26
2009/04/23 10:49:22.2     167   -322     32    363    365 152.5   5.2  34154  289.48 0855.26
2009/04/23 10:49:22.3     140   -347    -35    375    377 158.1  -5.4  34154  289.47 0855.26
2009/04/23 10:49:22.4     108   -463    -79    476    483 166.8  -9.5  34160  289.56 0855.26
2009/04/23 10:49:22.5     109   -573    -25    584    585 169.2  -2.5  34146  289.34 0855.26
2009/04/23 10:49:22.6      -5   -527     14    528    529 180.6   1.6  34160  289.57 0855.26
2009/04/23 10:49:22.7      17   -609     46    610    612 178.4   4.4  34166  289.68 0855.26
2009/04/23 10:49:22.8     123   -674    -13    686    687 169.6  -1.2  34140  289.22 0855.27
2009/04/23 10:49:22.9      66   -552     13    557    558 173.1   1.4  34144  289.29 0855.27
2009/04/23 10:49:23.0      59   -492     69    496    502 173.1   8.0  34152  289.44 0855.27
2009/04/23 10:49:23.1      15   -503    -10    504    505 178.2  -1.2  34156  289.52 0855.27
2009/04/23 10:49:23.2      -7   -537    -11    538    539 180.8  -1.3  34182  289.94 0855.27
2009/04/23 10:49:23.3    -252   -475    -43    538    540 208.0  -4.6  34172  289.77 0855.27
2009/04/23 10:49:23.4    -297   -389    -81    490    497 217.3  -9.5  34156  289.52 0855.27
2009/04/23 10:49:23.5    -315   -436   -126    538    553 215.9 -13.3  34150  289.41 0855.27
2009/04/23 10:49:23.6    -262   -340    -64    430    435 217.6  -8.6  34148  289.38 0855.27
2009/04/23 10:49:23.7    -216   -271   -109    347    364 218.5 -17.6  34152  289.45 0855.27
2009/04/23 10:49:23.8     -82   -269    -99    282    298 196.9 -24.4  34164  289.64 0855.27
2009/04/23 10:49:23.9     -27   -370    -82    371    381 184.2 -12.5  34162  289.60 0855.27
2009/04/23 10:49:24.0     -66   -421   -135    427    448 189.0 -17.6  34168  289.70 0855.27
2009/04/23 10:49:24.1     -72   -500   -101    506    517 188.3 -11.3  34170  289.74 0855.27
2009/04/23 10:49:24.2    -105   -404   -151    418    444 194.6 -25.2  34160  289.58 0855.27
2009/04/23 10:49:24.3     -45   -485    -37    488    490 185.4  -4.4  34146  289.35 0855.27
2009/04/23 10:49:24.4      57   -292    -70    298    307 168.9 -13.3  34152  289.42 0855.27
2009/04/23 10:49:24.5      56   -257    -83    264    277 167.7 -17.5  34152  289.44 0855.27
2009/04/23 10:49:24.6      64   -182   -109    194    222 160.6 -36.0  34152  289.45 0855.27
2009/04/23 10:49:24.7     -56   -276    -97    282    298 191.6 -24.0  34152  289.44 0855.27
2009/04/23 10:49:24.8     -77   -153   -141    172    222 206.7 -48.1  34150  289.41 0855.27
2009/04/23 10:49:24.9    -104   -147   -140    181    228 215.4 -46.1  34158  289.53 0855.27
2009/04/23 10:49:25.0     -75   -168    -32    185    188 204.1 -10.1  34158  289.53 0855.27
2009/04/23 10:49:25.1     -43   -141      0    148    149 196.9  -0.3  34166  289.69 0855.27
2009/04/23 10:49:25.2      45   -106     38    116    123 156.8  18.4  34166  289.67 0855.27
2009/04/23 10:49:25.3      21   -152     65    154    167 172.0  24.3  34164  289.63 0855.27
2009/04/23 10:49:25.4      13   -141     95    142    170 174.7  36.7  34156  289.50 0855.27
2009/04/23 10:49:25.5     -50   -149     26    158    161 198.7   9.5  34168  289.72 0855.27
2009/04/23 10:49:25.6     -92   -166     44    190    196 209.0  13.2  34164  289.65 0855.27
2009/04/23 10:49:25.7     -68   -267     98    276    292 194.3  20.4  34162  289.61 0855.27
2009/04/23 10:49:25.8     -75   -279    141    290    322 195.2  27.8  34168  289.71 0855.27
2009/04/23 10:49:25.9     -92   -329    165    342    379 195.7  27.4  34162  289.62 0855.27
2009/04/23 10:49:26.0    -149   -284    114    321    341 207.7  19.6  34168  289.72 0855.27
2009/04/23 10:49:26.1    -195   -228      6    301    302 220.6   1.2  34180  289.90 0855.27
2009/04/23 10:49:26.2    -178    -65   -117    190    223 249.8 -39.4  34160  289.58 0855.27
2009/04/23 10:49:26.3    -161    -85    -76    183    198 242.2 -28.0  34162  289.62 0855.27
2009/04/23 10:49:26.4    -109   -160    -54    194    202 214.3 -15.8  34164  289.65 0855.27
2009/04/23 10:49:26.5      56   -140     23    151    153 158.1   9.0  34162  289.60 0855.27
2009/04/23 10:49:26.6     107   -145    139    181    228 143.7  41.6  34160  289.57 0855.27
2009/04/23 10:49:26.7     -29   -243    181    245    304 186.9  40.1  34166  289.66 0855.27
2009/04/23 10:49:26.8     -17   -262     37    263    266 183.8   8.0  34160  289.56 0855.26
2009/04/23 10:49:26.9     117   -132     95    177    200 138.6  30.6  34162  289.62 0855.26
2009/04/23 10:49:27.0      55    -35     55     66     85 122.5  44.3  34166  289.67 0855.26
2009/04/23 10:49:27.1      26   -106     69    110    129 166.2  35.5  34162  289.62 0855.26
2009/04/23 10:49:27.2     -83   -148     90    171    193 209.4  30.1  34162  289.62 0855.26
2009/04/23 10:49:27.3     -24   -119    180    122    217 191.6  62.6  34168  289.72 0855.26
2009/04/23 10:49:27.4     -84    -22    134     88    160 254.9  63.6  34174  289.82 0855.26
2009/04/23 10:49:27.5    -158    -71    145    174    226 245.8  43.8  34170  289.75 0855.26
2009/04/23 10:49:27.6    -150    -95    131    178    221 237.6  39.7  34170  289.75 0855.26
2009/04/23 10:49:27.7    -158    -43    108    164    196 254.5  36.5  34172  289.77 0855.26
2009/04/23 10:49:27.8    -184    -61     67    194    206 251.6  19.2  34156  289.50 0855.26
2009/04/23 10:49:27.9     -18    -61     91     64    111 196.9  61.5  34160  289.58 0855.26
2009/04/23 10:49:28.0      22   -167    189    169    253 172.2  53.3  34166  289.67 0855.26
2009/04/23 10:49:28.1     -32     43    166     54    174 323.0  80.7  34180  289.92 0855.26
2009/04/23 10:49:28.2     -41     64    151     77    169 327.5  71.1  34184  289.99 0855.26
2009/04/23 10:49:28.3     -58     55    156     81    175 313.6  70.6  34174  289.82 0855.26
2009/04/23 10:49:28.4     -56    102    143    117    184 331.1  56.4  34176  289.85 0855.26
2009/04/23 10:49:28.5    -176     97    140    201    244 298.9  38.5  34164  289.65 0855.26
2009/04/23 10:49:28.6    -240    135    170    276    324 299.3  34.8  34166  289.68 0855.26
2009/04/23 10:49:28.7    -227    177    112    289    309 308.0  22.1  34174  289.81 0855.26
2009/04/23 10:49:28.8    -128    153     74    200    213 320.1  21.0  34174  289.80 0855.23
2009/04/23 10:49:28.9    -150    167     19    225    226 318.1   4.9  34166  289.67 0855.23
2009/04/23 10:49:29.0    -162    196     29    255    257 320.4   6.7  34186  290.02 0855.23
2009/04/23 10:49:29.1     -40    195     66    200    211 348.4  18.4  34188  290.06 0855.23
2009/04/23 10:49:29.2      86    238    188    254    316  19.8  40.2  34176  289.85 0855.23
2009/04/23 10:49:29.3     -26    282     61    284    291 354.7  12.1  34174  289.80 0855.23
2009/04/23 10:49:29.4     207    186    185    279    334  48.0  36.7  34162  289.59 0855.23
2009/04/23 10:49:29.5     258    100    189    277    335  68.7  37.7  34162  289.59 0855.23
2009/04/23 10:49:29.6     323    219    265    391    472  55.9  37.4  34170  289.73 0855.23
2009/04/23 10:49:29.7     235    124    178    266    320  62.1  36.9  34170  289.73 0855.23
2009/04/23 10:49:29.8     103    161    213    192    286  32.5  53.3  34168  289.71 0855.23
2009/04/23 10:49:29.9      70    193    193    206    282  20.0  48.0  34178  289.86 0855.23
2009/04/23 10:49:30.0     146    295    228    330    401  26.4  38.0  34186  290.01 0855.23
2009/04/23 10:49:30.1     226    420    200    477    517  28.3  24.1  34168  289.71 0855.23
2009/04/23 10:49:30.2     194    266    314    330    455  36.2  48.4  34162  289.60 0855.23
2009/04/23 10:49:30.3     335    271    325    432    540  51.0  40.7  34152  289.45 0855.23
2009/04/23 10:49:30.4     286    313    276    425    506  42.4  36.0  34162  289.61 0855.23
2009/04/23 10:49:30.5     256    263    278    368    461  44.2  40.9  34172  289.77 0855.23
2009/04/23 10:49:30.6     199    141    284    244    374  54.7  55.0  34192  290.11 0855.23
2009/04/23 10:49:30.7     245    177    346    303    459  54.1  54.3  34224  290.65 0855.23
2009/04/23 10:49:30.8     388    229    344    451    567  59.4  41.2  34186  290.01 0855.23
2009/04/23 10:49:30.9     332    211    428    394    581  57.6  52.7  34232  290.79 0855.23
2009/04/23 10:49:31.0     288    216    367    361    514  53.2  50.4  34176  289.83 0855.23
2009/04/23 10:49:31.1     391    242    301    460    549  58.3  36.5  34168  289.72 0855.23
2009/04/23 10:49:31.2     291    148    417    327    529  63.0  58.0  34228  290.71 0855.23
2009/04/23 10:49:31.3     296    230    255    376    454  52.1  37.4  34210  290.41 0855.23
2009/04/23 10:49:31.4     290    343    157    450    477  40.2  19.3  34202  290.27 0855.23
2009/04/23 10:49:31.5     356    332     92    487    496  47.0  10.7  34192  290.13 0855.23
2009/04/23 10:49:31.6     356    352     24    501    502  45.4   2.8  34196  290.17 0855.23
2009/04/23 10:49:31.7     276    244    144    369    396  48.4  22.4  34218  290.55 0855.23
2009/04/23 10:49:31.8     366    252    193    445    485  55.5  25.0  34216  290.51 0855.23
2009/04/23 10:49:31.9     389    235    343    455    569  58.9  40.7  34212  290.46 0855.23
2009/04/23 10:49:32.1     426     89    282    436    519  78.2  35.9  34192  290.13 0855.23
2009/04/23 10:49:32.2     303    192    190    359    406  57.6  30.2  34200  290.25 0855.23
2009/04/23 10:49:32.3     332    311    127    455    473  46.9  15.6  34162  289.59 0855.23
2009/04/23 10:49:32.4     374    147     82    402    411  68.5  11.6  34146  289.34 0855.23
2009/04/23 10:49:32.5     380    231    139    445    467  58.7  17.4  34160  289.56 0855.23
2009/04/23 10:49:32.6     321    214     31    387    389  56.3   4.6  34154  289.47 0855.23
2009/04/23 10:49:32.7     236    145     97    278    295  58.5  19.4  34152  289.42 0855.23
2009/04/23 10:49:32.8     247    242     19    347    348  45.6   3.3  34162  289.59 0855.23
2009/04/23 10:49:32.9     253    269     71    370    377  43.3  11.0  34184  289.98 0855.23
2009/04/23 10:49:33.0     316    130     82    342    352  67.6  13.6  34202  290.30 0855.23
2009/04/23 10:49:33.1     273    109    158    295    334  68.2  30.5  34224  290.65 0855.23
2009/04/23 10:49:33.2     258    132    162    290    332  62.9  31.6  34214  290.48 0855.23
2009/04/23 10:49:33.3     337    214     85    400    410  57.5  12.0  34186  290.00 0855.23
2009/04/23 10:49:33.4     267    142     95    303    318  62.0  17.5  34194  290.15 0855.23
2009/04/23 10:49:33.5     276     77      8    287    288  74.3   1.8  34210  290.41 0855.23
2009/04/23 10:49:33.6     249    201    144    321    351  51.1  25.7  34238  290.89 0855.23
2009/04/23 10:49:33.7     360    153    100    392    405  67.0  14.4  34194  290.16 0855.23
2009/04/23 10:49:33.8     463    155    232    489    541  71.4  27.2  34174  289.80 0855.23
2009/04/23 10:49:33.9     475     80    104    482    494  80.4  12.2  34166  289.67 0855.23
2009/04/23 10:49:34.0     427    130    154    447    473  73.1  19.1  34170  289.73 0855.23
2009/04/23 10:49:34.1     342     42    118    345    365  82.9  18.9  34162  289.59 0855.23
2009/04/23 10:49:34.2     399    -34    162    401    432  94.9  23.1  34170  289.73 0855.23
2009/04/23 10:49:34.3     269    -36    188    272    330  97.7  37.9  34178  289.86 0855.23
2009/04/23 10:49:34.4     262   -245    175    359    399 133.1  28.0  34168  289.71 0855.23
2009/04/23 10:49:34.5     255   -255    162    362    396 135.0  25.7  34162  289.62 0855.23
2009/04/23 10:49:34.6     213   -295    200    365    416 144.2  31.3  34164  289.65 0855.23
2009/04/23 10:49:34.7     244   -287    126    377    398 139.6  18.6  34166  289.69 0855.23
2009/04/23 10:49:34.8     262   -208    195    335    387 128.5  32.9  34166  289.69 0855.23
2009/04/23 10:49:34.9     160   -245    205    294    358 146.8  38.4  34168  289.72 0855.23
2009/04/23 10:49:35.0     179   -361    181    403    441 153.6  26.0  34162  289.60 0855.23
2009/04/23 10:49:35.1     156   -357    178    390    428 156.3  26.2  34170  289.75 0855.23
2009/04/23 10:49:35.2     140   -314    151    344    375 155.9  25.2  34168  289.71 0855.23
2009/04/23 10:49:35.3     149   -235    104    279    297 147.5  21.3  34172  289.76 0855.23
2009/04/23 10:49:35.4     186   -175     86    256    271 133.1  18.6  34170  289.73 0855.23
2009/04/23 10:49:35.5      19   -180    218    182    283 173.8  56.3  34168  289.71 0855.23
2009/04/23 10:49:35.6     139   -218    189    259    320 147.5  39.8  34160  289.58 0855.23
2009/04/23 10:49:35.7     124   -251    140    280    313 153.7  28.6  34170  289.73 0855.23
2009/04/23 10:49:35.8     110   -199    180    228    290 151.0  42.4  34172  289.78 0855.23
2009/04/23 10:49:35.9      63   -292    190    299    354 167.7  35.5  34178  289.86 0855.23
2009/04/23 10:49:36.0      61   -360    141    366    392 170.3  22.2  34178  289.87 0855.23
2009/04/23 10:49:36.1      21   -357    148    358    387 176.5  23.7  34186  290.01 0855.23
2009/04/23 10:49:36.2      -1   -380     97    381    394 180.3  14.3  34232  290.79 0855.23
2009/04/23 10:49:36.3     -28   -374    118    375    394 184.4  17.5  34202  290.28 0855.23
2009/04/23 10:49:36.4      25   -418    142    419    443 176.5  18.8  34190  290.09 0855.23
2009/04/23 10:49:36.5      11   -395    147    396    422 178.4  21.4  34180  289.92 0855.23
2009/04/23 10:49:36.6     -16   -381    127    382    403 182.5  18.5  34192  290.10 0855.23
2009/04/23 10:49:36.7      35   -463    170    465    495 175.6  21.0  34172  289.78 0855.23
2009/04/23 10:49:36.8      59   -422    185    427    465 172.0  25.1  34176  289.85 0855.23
2009/04/23 10:49:36.9      72   -420    179    427    463 170.2  24.1  34166  289.68 0855.23
2009/04/23 10:49:37.0     136   -382    133    406    428 160.3  18.1  34158  289.55 0855.23
2009/04/23 10:49:37.1     120   -382    108    401    416 162.6  15.2  34160  289.58 0855.23
2009/04/23 10:49:37.2     122   -365     35    386    388 161.4   5.2  34162  289.59 0855.23
2009/04/23 10:49:37.3      61   -372     45    378    381 170.7   6.9  34158  289.55 0855.23
2009/04/23 10:49:37.4      54   -369     13    373    374 171.7   2.1  34162  289.62 0855.23
2009/04/23 10:49:37.5      24   -339    -18    340    341 175.9  -3.1  34174  289.82 0855.23
2009/04/23 10:49:37.6       0   -411    -28    412    413 180.0  -3.9  34188  290.05 0855.23
2009/04/23 10:49:37.7     102   -344     15    359    360 163.4   2.5  34172  289.79 0855.23
2009/04/23 10:49:37.8     108   -324     10    342    343 161.4   1.8  34164  289.64 0855.23
2009/04/23 10:49:37.9      75   -338     58    347    352 167.5   9.5  34164  289.64 0855.17
2009/04/23 10:49:38.0      91   -381     49    392    396 166.5   7.2  34164  289.65 0855.17
2009/04/23 10:49:38.1     120   -329     15    351    352 160.0   2.5  34166  289.67 0855.17
2009/04/23 10:49:38.2     101   -347     25    362    363 163.7   4.0  34168  289.71 0855.17
2009/04/23 10:49:38.3     143   -384    -39    410    412 159.5  -5.5  34192  290.11 0855.17
2009/04/23 10:49:38.4     200   -398    -21    446    447 153.3  -2.8  34178  289.87 0855.17
2009/04/23 10:49:38.5     203   -356    -28    411    412 150.3  -4.0  34170  289.73 0855.17
2009/04/23 10:49:38.6     162   -435     57    465    469 159.5   7.1  34164  289.64 0855.17
2009/04/23 10:49:38.7     157   -493     31    518    519 162.3   3.5  34152  289.42 0855.17
2009/04/23 10:49:38.8     372   -489    -40    615    617 142.7  -3.7  34158  289.53 0855.17
2009/04/23 10:49:38.9     259   -412    -71    487    493 147.9  -8.4  34152  289.45 0855.17
2009/04/23 10:49:39.0     199   -400    -40    447    449 153.5  -5.2  34156  289.49 0855.17
2009/04/23 10:49:39.1     215   -404    -44    458    461 152.0  -5.6  34154  289.46 0855.17
2009/04/23 10:49:39.2     162   -405     19    437    438 158.2   2.5  34154  289.46 0855.17
2009/04/23 10:49:39.3     156   -487     43    512    515 162.2   4.9  34152  289.44 0855.17
2009/04/23 10:49:39.4     109   -540     15    551    552 168.5   1.6  34148  289.38 0855.17
2009/04/23 10:49:39.5     145   -419    -70    444    450 160.8  -9.0  34160  289.56 0855.17
2009/04/23 10:49:39.6      54   -437      6    441    442 172.9   0.9  34148  289.38 0855.17
2009/04/23 10:49:39.7      25   -490     65    491    496 177.0   7.6  34158  289.54 0855.17
2009/04/23 10:49:39.8      58   -506    120    510    524 173.4  13.3  34148  289.38 0855.17
2009/04/23 10:49:39.9       0   -409     88    410    420 179.9  12.1  34160  289.58 0855.18
2009/04/23 10:49:40.0     -41   -440    109    443    457 185.4  13.9  34158  289.55 0855.18
2009/04/23 10:49:40.1     -67   -393     91    399    410 189.8  12.9  34158  289.53 0855.18
2009/04/23 10:49:40.2      -7   -461    135    462    482 180.9  16.3  34156  289.49 0855.18
2009/04/23 10:49:40.3     -54   -399     38    403    405 187.8   5.5  34160  289.56 0855.18
2009/04/23 10:49:40.4     -96   -385     92    397    408 194.1  13.1  34156  289.49 0855.18
2009/04/23 10:49:40.5     -73   -450     47    456    459 189.2   5.9  34156  289.51 0855.18
2009/04/23 10:49:40.6     139   -280     90    313    326 153.5  16.0  34164  289.63 0855.18
2009/04/23 10:49:40.7     303   -293     43    422    425 134.1   5.9  34160  289.56 0855.18
2009/04/23 10:49:40.8      34   -348    247    350    428 174.3  38.6  34158  289.55 0855.18
2009/04/23 10:49:40.9      77   -348    217    357    417 167.4  34.3  34160  289.57 0855.18
2009/04/23 10:49:41.0     221   -360     80    423    431 148.5  10.7  34154  289.48 0855.18
2009/04/23 10:49:41.1     171   -235    153    291    328 143.9  30.0  34154  289.47 0855.18
2009/04/23 10:49:41.2      12   -337    247    338    418 177.9  39.7  34158  289.55 0855.18
2009/04/23 10:49:41.3      89   -292    209    306    370 163.1  37.6  34162  289.60 0855.18
2009/04/23 10:49:41.4      42   -294    184    298    350 171.9  35.0  34168  289.71 0855.18
2009/04/23 10:49:41.5     -12   -323    223    324    393 182.3  37.8  34162  289.62 0855.18
2009/04/23 10:49:41.6     -17   -278    206    279    346 183.6  40.0  34162  289.61 0855.18
2009/04/23 10:49:41.7      -5   -274    220    275    352 181.1  42.7  34160  289.58 0855.18
2009/04/23 10:49:41.8       9   -329    174    330    373 178.3  30.1  34154  289.47 0855.18
2009/04/23 10:49:41.9       0   -372    135    373    396 180.1  20.8  34158  289.54 0855.16
2009/04/23 10:49:42.0     133   -362    176    386    424 159.8  26.3  34162  289.60 0855.16
2009/04/23 10:49:42.1     175   -401     97    438    449 156.4  12.5  34170  289.73 0855.16
2009/04/23 10:49:42.2     148   -470    192    493    529 162.5  22.5  34156  289.50 0855.16
2009/04/23 10:49:42.3     278   -322    154    426    452 139.2  20.9  34162  289.60 0855.16
2009/04/23 10:49:42.4     215   -273    188    348    395 141.8  30.7  34164  289.65 0855.16
2009/04/23 10:49:42.5      31   -293    207    295    360 173.8  38.5  34166  289.67 0855.16
2009/04/23 10:49:42.6      98   -255    187    274    331 158.8  37.6  34164  289.64 0855.16
2009/04/23 10:49:42.7      55   -270    143    276    310 168.4  29.3  34162  289.61 0855.16
2009/04/23 10:49:42.8      28   -258    137    260    293 173.8  30.1  34168  289.70 0855.16
2009/04/23 10:49:42.9     -48   -355    155    359    391 187.8  24.9  34164  289.65 0855.16
2009/04/23 10:49:43.0     -27   -413    119    414    431 183.8  16.1  34160  289.56 0855.16
2009/04/23 10:49:43.1      31   -391     37    393    395 175.4   5.4  34162  289.62 0855.16
2009/04/23 10:49:43.2     -23   -336     46    337    341 184.0   7.8  34166  289.67 0855.16
2009/04/23 10:49:43.3       9   -312     57    313    319 178.2  10.3  34174  289.80 0855.16
2009/04/23 10:49:43.4      92   -266    -27    282    284 160.8  -5.6  34170  289.73 0855.16
2009/04/23 10:49:43.5     164   -325    -46    365    368 153.2  -7.3  34164  289.64 0855.16
2009/04/23 10:49:43.6     210   -300    -46    367    370 144.9  -7.2  34162  289.59 0855.16
2009/04/23 10:49:43.7      83   -431     53    440    444 169.0   6.9  34162  289.60 0855.16
2009/04/23 10:49:43.8       0   -466    122    467    483 180.1  14.7  34176  289.84 0855.16
2009/04/23 10:49:43.9     -49   -489    131    492    510 185.8  14.9  34168  289.71 0855.18
2009/04/23 10:49:44.0     -68   -484    177    489    521 188.0  19.9  34166  289.67 0855.18
2009/04/23 10:49:44.1     -20   -435    131    436    456 182.7  16.8  34172  289.77 0855.18
2009/04/23 10:49:44.2      26   -411    106    412    426 176.4  14.5  34166  289.68 0855.18
2009/04/23 10:49:44.3     -31   -406     60    408    413 184.4   8.5  34164  289.65 0855.18
2009/04/23 10:49:44.4      -4   -425     66    426    432 180.6   8.9  34164  289.65 0855.18
2009/04/23 10:49:44.5      49   -450     43    453    456 173.7   5.4  34166  289.68 0855.18
2009/04/23 10:49:44.6      59   -380     32    385    387 171.1   4.9  34162  289.62 0855.18
2009/04/23 10:49:44.7      24   -289     34    291    293 175.1   6.7  34164  289.63 0855.18
2009/04/23 10:49:44.8      72   -335    -30    343    345 167.7  -5.1  34166  289.67 0855.18
2009/04/23 10:49:44.9      73   -310    -25    319    321 166.6  -4.6  34168  289.71 0855.18
2009/04/23 10:49:45.0      85   -342    -32    353    355 166.0  -5.3  34166  289.69 0855.18
2009/04/23 10:49:45.1      44   -188    -10    194    195 166.6  -3.1  34162  289.60 0855.18
2009/04/23 10:49:45.2     113   -205    -43    235    239 151.1 -10.5  34164  289.64 0855.18
2009/04/23 10:49:45.3      85   -245    -61    260    268 160.8 -13.3  34168  289.71 0855.18
2009/04/23 10:49:45.4      40   -195    -22    200    202 168.4  -6.5  34166  289.69 0855.18
2009/04/23 10:49:45.5      90   -170    -42    193    198 152.1 -12.4  34164  289.63 0855.18
2009/04/23 10:49:45.6     208   -284     27    353    355 143.8   4.5  34162  289.60 0855.18
2009/04/23 10:49:45.7     218   -461    -19    510    511 154.7  -2.2  34162  289.61 0855.18
2009/04/23 10:49:45.8     121   -423    -81    441    449 164.0 -10.5  34164  289.63 0855.18
2009/04/23 10:49:45.9     249   -468    -38    531    533 152.0  -4.1  34156  289.51 0855.14
2009/04/23 10:49:46.0     196   -370    -75    419    426 152.0 -10.2  34154  289.46 0855.14
2009/04/23 10:49:46.1     155   -325    -35    361    363 154.5  -5.6  34156  289.52 0855.14
2009/04/23 10:49:46.2     213   -403   -128    457    475 152.1 -15.7  34156  289.52 0855.14
2009/04/23 10:49:46.3     176   -443   -106    477    489 158.3 -12.6  34156  289.49 0855.14
2009/04/23 10:49:46.4     151   -432     -9    458    459 160.7  -1.2  34156  289.49 0855.14
2009/04/23 10:49:46.5     116   -411     26    428    429 164.2   3.5  34152  289.44 0855.14
2009/04/23 10:49:46.6      80   -491     51    498    501 170.7   5.9  34152  289.45 0855.14
2009/04/23 10:49:46.7     125   -426    -85    445    454 163.6 -10.8  34158  289.53 0855.14
2009/04/23 10:49:46.8      92   -386    -72    397    404 166.6 -10.4  34156  289.50 0855.14
2009/04/23 10:49:46.9      63   -392    -11    398    399 170.8  -1.7  34156  289.50 0855.14
2009/04/23 10:49:47.0     116   -373    107    391    406 162.7  15.3  34158  289.54 0855.14
2009/04/23 10:49:47.1     -22   -359    -19    360    361 183.6  -3.1  34152  289.42 0855.14
2009/04/23 10:49:47.2     -26   -374   -124    375    394 184.0 -23.5  34132  289.10 0855.14
2009/04/23 10:49:47.3     -65   -338    -97    345    358 191.0 -20.4  34122  288.94 0855.14
2009/04/23 10:49:47.4     -31   -354     30    356    358 185.1   4.9  34154  289.47 0855.14
2009/04/23 10:49:47.5      84   -425     44    434    437 168.8   5.9  34126  289.00 0855.14
2009/04/23 10:49:47.6     120   -483     44    498    501 166.0   5.1  34110  288.71 0855.14
2009/04/23 10:49:47.7     106   -488      7    500    501 167.7   0.8  34100  288.54 0855.14
2009/04/23 10:49:47.8     108   -492    -11    504    505 167.6  -1.3  34100  288.56 0855.14
2009/04/23 10:49:47.9     117   -479    -35    494    496 166.2  -4.1  34100  288.57 0855.14
2009/04/23 10:49:48.0     124   -464    -17    481    482 165.0  -2.1  34108  288.69 0855.14
2009/04/23 10:49:48.1     127   -452     -5    470    471 164.3  -0.7  34106  288.66 0855.14
2009/04/23 10:49:48.2     113   -470     68    484    489 166.5   8.1  34116  288.83 0855.14
2009/04/23 10:49:48.3     151   -523    171    545    572 163.9  17.4  34128  289.02 0855.14
2009/04/23 10:49:48.4     159   -531    129    555    570 163.3  13.1  34130  289.07 0855.14
2009/04/23 10:49:48.5      67   -554    120    559    572 173.0  12.1  34132  289.11 0855.14
2009/04/23 10:49:48.6      29   -621     92    622    629 177.3   8.5  34138  289.21 0855.14
2009/04/23 10:49:48.7     -43   -621    141    623    639 184.0  12.8  34128  289.03 0855.14
2009/04/23 10:49:48.8     -90   -648    -11    655    656 187.9  -1.0  34126  289.01 0855.14
2009/04/23 10:49:48.9    -169   -656     14    678    679 194.5   1.2  34124  288.95 0855.14
2009/04/23 10:49:49.0    -180   -559    -12    588    589 197.9  -1.3  34134  289.14 0855.14
2009/04/23 10:49:49.1     -55   -720   -223    722    755 184.4 -22.1  34130  289.07 0855.14
2009/04/23 10:49:49.2    -132   -652   -144    666    682 191.5 -12.3  34134  289.14 0855.14
2009/04/23 10:49:49.3    -110   -610    -45    620    622 190.2  -4.2  34138  289.20 0855.14
2009/04/23 10:49:49.4      65   -363    -79    369    378 169.8 -12.2  34126  288.99 0855.14
2009/04/23 10:49:49.5      80   -296   -118    307    328 164.9 -26.4  34136  289.17 0855.14
2009/04/23 10:49:49.6     124   -223   -192    256    320 151.0 -45.0  34138  289.19 0855.14
2009/04/23 10:49:49.7     -50   -346   -306    350    464 188.3 -50.2  34136  289.16 0855.14
2009/04/23 10:49:49.8    -239   -395   -164    462    490 211.2 -24.8  34142  289.28 0855.14
2009/04/23 10:49:49.9    -210   -437   -205    485    526 205.7 -28.6  34156  289.52 0855.16
2009/04/23 10:49:50.0    -157   -338   -203    373    424 205.0 -35.4  34154  289.46 0855.16
2009/04/23 10:49:50.1    -110   -337   -235    355    425 198.1 -40.9  34158  289.53 0855.16
2009/04/23 10:49:50.2    -184   -384   -225    427    482 205.7 -34.5  34156  289.52 0855.16
2009/04/23 10:49:50.3    -244   -448   -156    511    535 208.6 -17.0  34150  289.40 0855.16
2009/04/23 10:49:50.4    -198   -498   -182    536    567 201.7 -18.8  34152  289.43 0855.16
2009/04/23 10:49:50.5    -146   -408   -180    434    469 199.8 -28.3  34138  289.19 0855.16
2009/04/23 10:49:50.6    -182   -404   -140    444    465 204.3 -22.8  34150  289.39 0855.16
2009/04/23 10:49:50.7    -100   -106   -134    146    198 223.3 -52.1  34142  289.28 0855.16
2009/04/23 10:49:50.8    -256    -18   -214    257    334 265.9 -48.4  34154  289.47 0855.16
2009/04/23 10:49:50.9    -249   -289   -135    382    405 220.8 -24.5  34154  289.47 0855.16
2009/04/23 10:49:51.0    -345   -230    -58    415    420 236.3  -8.0  34152  289.44 0855.16
2009/04/23 10:49:51.1    -326   -207   -139    387    411 237.6 -25.0  34156  289.49 0855.16
2009/04/23 10:49:51.2    -358   -314     -9    477    478 228.7  -1.2  34150  289.39 0855.16
2009/04/23 10:49:51.3    -133   -469    -46    488    491 195.9  -5.5  34146  289.32 0855.16
2009/04/23 10:49:51.4       2   -364     34    365    367 179.7   5.4  34144  289.30 0855.16
2009/04/23 10:49:51.5     -27   -387    105    388    403 184.1  15.2  34138  289.21 0855.16
2009/04/23 10:49:51.6     -41   -378    142    381    406 186.3  21.3  34142  289.25 0855.16
2009/04/23 10:49:51.7      75   -482     23    488    489 171.1   2.8  34144  289.30 0855.16
2009/04/23 10:49:51.8      78   -459     -9    466    467 170.3  -1.2  34152  289.44 0855.16
2009/04/23 10:49:51.9       7   -457      2    458    459 179.0   0.4  34148  289.38 0855.16
2009/04/23 10:49:52.0      71   -434     98    440    451 170.7  12.6  34150  289.41 0855.16
2009/04/23 10:49:52.1     276   -546      8    612    613 153.2   0.8  34146  289.34 0855.16
2009/04/23 10:49:52.2     280   -599    155    662    680 155.0  13.2  34146  289.32 0855.16
2009/04/23 10:49:52.3     324   -564    125    651    664 150.1  10.9  34150  289.39 0855.16
2009/04/23 10:49:52.4     -18   -538    160    539    563 182.0  16.5  34146  289.33 0855.16
2009/04/23 10:49:52.5      24   -619    271    620    676 177.8  25.2  34148  289.38 0855.16
2009/04/23 10:49:52.6      73   -623     88    628    635 173.3   8.0  34152  289.43 0855.16
2009/04/23 10:49:52.7      -8   -558     67    559    564 180.9   6.9  34156  289.50 0855.16
2009/04/23 10:49:52.8      77   -547     86    553    560 171.9   8.9  34148  289.38 0855.16
2009/04/23 10:49:52.9      26   -652    184    653    679 177.7  15.8  34142  289.26 0855.16
2009/04/23 10:49:53.0     -69   -547    -21    552    553 187.2  -2.2  34160  289.58 0855.16
2009/04/23 10:49:53.1    -155   -525     -6    548    549 196.5  -0.7  34162  289.60 0855.16
2009/04/23 10:49:53.2    -326   -477   -191    579    610 214.4 -18.3  34160  289.56 0855.16
2009/04/23 10:49:53.3    -315   -540   -173    626    649 210.2 -20.1  34144  289.31 0855.16
2009/04/23 10:49:53.4    -426   -690   -114    811    820 211.7  -8.0  34146  289.35 0855.16
2009/04/23 10:49:53.5    -277   -585    -71    648    652 205.3  -6.3  34162  289.62 0855.16
2009/04/23 10:49:53.6    -205   -471     76    514    520 203.5   8.5  34160  289.57 0855.16
2009/04/23 10:49:53.7    -336   -654     32    736    737 207.2   2.5  34146  289.34 0855.16
2009/04/23 10:49:53.8    -238   -627     11    671    672 200.8   1.0  34146  289.32 0855.16
2009/04/23 10:49:53.9    -347   -467     28    583    584 216.6   2.8  34170  289.73 0855.17
2009/04/23 10:49:54.0    -290   -545    -44    618    620 208.0  -4.1  34142  289.28 0855.17
2009/04/23 10:49:54.1      27   -610    118    611    623 177.4  11.0  34142  289.25 0855.17
2009/04/23 10:49:54.2     205   -654    -26    686    687 162.6  -2.2  34148  289.36 0855.17
2009/04/23 10:49:54.3     229   -648    -48    688    690 160.5  -4.0  34140  289.24 0855.17
2009/04/23 10:49:54.4     243   -659   -127    703    715 159.7 -10.3  34136  289.17 0855.17
2009/04/23 10:49:54.5     121   -750   -109    760    768 170.8  -8.2  34138  289.21 0855.17
2009/04/23 10:49:54.6     147   -691     28    707    708 168.0   2.3  34132  289.11 0855.17
2009/04/23 10:49:54.7      32   -804      4    805    806 177.7   0.3  34138  289.21 0855.17
2009/04/23 10:49:54.8      57   -715     13    718    719 175.4   1.1  34140  289.23 0855.17
2009/04/23 10:49:54.9      13   -782     53    783    785 179.0   3.9  34124  288.95 0855.17
2009/04/23 10:49:55.0      33   -764    124    765    776 177.5   9.2  34124  288.95 0855.17
2009/04/23 10:49:55.1    -118   -640     31    651    652 190.5   2.8  34138  289.21 0855.17
2009/04/23 10:49:55.2     -55   -747    -29    749    750 184.3  -2.2  34134  289.14 0855.17
2009/04/23 10:49:55.3     -94   -683    -33    690    691 187.9  -2.8  34134  289.14 0855.17
2009/04/23 10:49:55.4    -168   -537     89    563    571 197.4   9.0  34146  289.33 0855.17
2009/04/23 10:49:55.5    -198   -651    -10    681    682 197.0  -0.9  34150  289.41 0855.17
2009/04/23 10:49:55.6    -112   -655     19    665    666 189.7   1.7  34150  289.41 0855.17
2009/04/23 10:49:55.7    -318   -661     48    734    736 205.8   3.8  34150  289.41 0855.17
2009/04/23 10:49:55.8    -415   -613      1    741    742 214.1   0.1  34146  289.34 0855.17
2009/04/23 10:49:55.9    -193   -615     85    645    651 197.4   7.6  34144  289.31 0855.17
2009/04/23 10:49:56.0    -200   -419     39    465    467 205.5   4.9  34152  289.42 0855.17
2009/04/23 10:49:56.1    -224   -379     38    441    443 210.7   5.0  34154  289.46 0855.17
2009/04/23 10:49:56.2    -168   -495     11    524    525 198.8   1.2  34142  289.28 0855.17
2009/04/23 10:49:56.3    -112   -479    -89    492    500 193.2 -10.3  34138  289.20 0855.17
2009/04/23 10:49:56.4    -167   -540   -108    566    577 197.2 -10.9  34144  289.30 0855.17
2009/04/23 10:49:56.5    -177   -487   -235    519    569 200.0 -30.6  34142  289.28 0855.17
2009/04/23 10:49:56.6      40   -519   -148    521    541 175.5 -20.4  34146  289.33 0855.17
2009/04/23 10:49:56.7     -90   -580   -179    588    615 188.9 -17.0  34138  289.20 0855.17
2009/04/23 10:49:56.8    -267   -659   -178    712    734 202.1 -14.1  34146  289.32 0855.17
2009/04/23 10:49:56.9    -150   -750   -258    765    808 191.4 -18.7  34142  289.27 0855.17
2009/04/23 10:49:57.0      18   -720   -226    721    756 178.5 -17.4  34140  289.24 0855.17
2009/04/23 10:49:57.1     124   -674   -158    686    705 169.5 -13.0  34146  289.35 0855.17
2009/04/23 10:49:57.2     -44   -551    -74    553    558 184.6  -7.7  34138  289.19 0855.17
2009/04/23 10:49:57.3     -19   -624     62    625    629 181.8   5.7  34144  289.31 0855.17
2009/04/23 10:49:57.4      11   -532    -48    533    536 178.7  -5.2  34150  289.40 0855.17
2009/04/23 10:49:57.5    -180   -450    -50    485    488 201.8  -5.9  34144  289.30 0855.17
2009/04/23 10:49:57.6     -95   -461   -146    471    494 191.7 -17.3  34140  289.23 0855.17
2009/04/23 10:49:57.7       9   -540   -124    541    556 179.0 -12.9  34142  289.26 0855.17
2009/04/23 10:49:57.8     -41   -594   -109    596    606 184.0 -10.4  34142  289.25 0855.17
2009/04/23 10:49:57.9     -90   -450   -100    459    470 191.4 -12.4  34150  289.39 0855.17
2009/04/23 10:49:58.0     -40   -515   -142    517    537 184.5 -15.4  34146  289.33 0855.17
2009/04/23 10:49:58.1      59   -625   -191    628    657 174.5 -17.0  34142  289.26 0855.17
2009/04/23 10:49:58.2     209   -591    -10    628    629 160.5  -1.0  34138  289.20 0855.17
2009/04/23 10:49:58.3      62   -499    -77    503    509 172.9  -8.7  34140  289.22 0855.17
2009/04/23 10:49:58.4       8   -433   -181    434    470 178.9 -28.5  34144  289.29 0855.17
2009/04/23 10:49:58.5      23   -572   -178    573    601 177.7 -17.3  34144  289.29 0855.17
2009/04/23 10:49:58.6     -87   -774   -178    779    800 186.5 -12.9  34146  289.34 0855.17
2009/04/23 10:49:58.7     -60   -783    -75    786    790 184.4  -5.5  34138  289.19 0855.17
2009/04/23 10:49:58.8      -7   -673    -70    674    678 180.6  -6.0  34144  289.29 0855.17
2009/04/23 10:49:58.9      26   -608   -152    609    628 177.5 -14.0  34150  289.40 0855.18
2009/04/23 10:49:59.0    -130   -559    -45    574    576 193.1  -4.6  34144  289.30 0855.18
2009/04/23 10:49:59.1    -103   -844    -18    851    852 187.0  -1.3  34148  289.36 0855.18
2009/04/23 10:49:59.2      65   -774      9    778    779 175.1   0.7  34150  289.41 0855.18
2009/04/23 10:49:59.3      -6   -783    -62    784    787 180.5  -4.6  34152  289.42 0855.18
2009/04/23 10:49:59.4      12   -827   -129    828    839 179.1  -8.9  34148  289.36 0855.18
2009/04/23 10:49:59.5       6   -636   -175    637    661 179.4 -15.4  34146  289.35 0855.18
2009/04/23 10:49:59.6     -82   -688    -38    693    695 186.9  -3.2  34142  289.26 0855.18
2009/04/23 10:49:59.7     -18   -583    -63    584    588 181.8  -6.2  34142  289.25 0855.18
2009/04/23 10:49:59.9     -76   -538      8    544    545 188.1   0.9  34146  289.35 0855.18
2009/04/23 10:50:00.0     -48   -466    -24    469    470 186.0  -3.0  34142  289.27 0855.18
2009/04/23 10:50:00.1    -119   -401   -101    419    431 196.6 -13.6  34150  289.39 0855.18
2009/04/23 10:50:00.2    -227   -483    -16    534    535 205.2  -1.8  34152  289.45 0855.18
2009/04/23 10:50:00.3    -252   -524    -44    582    584 205.8  -4.4  34156  289.49 0855.18
2009/04/23 10:50:00.4    -118   -406    -27    423    424 196.3  -3.7  34152  289.43 0855.18
2009/04/23 10:50:00.5    -124   -314    -56    338    343 201.7  -9.5  34150  289.40 0855.18
2009/04/23 10:50:00.6    -154   -251     94    295    310 211.6  17.7  34152  289.44 0855.18
2009/04/23 10:50:00.7    -182   -165     -1    246    247 227.8  -0.3  34154  289.47 0855.18
2009/04/23 10:50:00.8    -245   -124     20    275    276 243.1   4.2  34152  289.44 0855.18
2009/04/23 10:50:00.9    -177    -13    -53    178    186 265.7 -16.8  34152  289.45 0855.18
2009/04/23 10:50:01.0    -106    -28    -58    110    124 255.0 -34.7  34156  289.50 0855.18
2009/04/23 10:50:01.1     -42      2    -62     43     75 273.5 -67.0  34160  289.57 0855.18
2009/04/23 10:50:01.2      35    -18    -21     40     45 117.1 -34.7  34166  289.67 0855.18
2009/04/23 10:50:01.3      37     -2     44     38     58  94.4  54.3  34166  289.67 0855.18
2009/04/23 10:50:01.4      23    -18     44     30     53 127.8  62.6  34168  289.72 0855.18
2009/04/23 10:50:01.5      -8     -2     28      9     29 251.8  80.7  34170  289.74 0855.18
2009/04/23 10:50:01.6     -38    -30     26     49     55 231.4  30.3  34170  289.74 0855.18
2009/04/23 10:50:01.7      37    -99     29    106    110 159.5  15.3  34166  289.67 0855.18
2009/04/23 10:50:01.8     110   -107    -54    154    164 134.0 -19.4  34160  289.58 0855.18
2009/04/23 10:50:01.9       0   -137    -17    138    140 180.4  -7.2  34166  289.69 0855.18
2009/04/23 10:50:02.0       2   -131      6    132    133 179.1   2.8  34172  289.77 0855.18
2009/04/23 10:50:02.1     140   -184     32    232    235 142.6   8.0  34160  289.56 0855.18
2009/04/23 10:50:02.2      92   -232      3    250    251 158.2   0.8  34164  289.64 0855.18
2009/04/23 10:50:02.3     130   -147    -42    197    202 138.6 -12.2  34162  289.60 0855.18
2009/04/23 10:50:02.4     101   -191    -29    217    219 152.1  -7.7  34168  289.72 0855.18
2009/04/23 10:50:02.5      32   -256     75    259    270 172.8  16.3  34166  289.68 0855.18
2009/04/23 10:50:02.6      66   -264     77    273    284 166.0  15.8  34170  289.75 0855.18
2009/04/23 10:50:02.7      82   -205     97    221    241 158.2  25.1  34166  289.66 0855.18
2009/04/23 10:50:02.8      87   -272     66    286    294 162.2  13.1  34164  289.63 0855.18
2009/04/23 10:50:02.9     106   -332     42    349    352 162.3   6.9  34164  289.64 0855.18
2009/04/23 10:50:03.0      33   -312     28    314    316 173.8   5.2  34162  289.61 0855.16
2009/04/23 10:50:03.1      35   -312    -22    315    316 173.5  -4.1  34160  289.58 0855.16
2009/04/23 10:50:03.2       9   -209     99    210    232 177.5  27.1  34160  289.58 0855.16
2009/04/23 10:50:03.3      34   -202     74    205    217 170.4  20.7  34158  289.55 0855.16
2009/04/23 10:50:03.4     -17   -218     80    219    233 184.5  20.7  34160  289.58 0855.16
2009/04/23 10:50:03.5      38   -210    169    214    272 169.5  42.4  34164  289.64 0855.16
2009/04/23 10:50:03.6     140   -213    196    256    322 146.6  41.4  34160  289.58 0855.16
2009/04/23 10:50:03.7     101   -211    206    234    311 154.4  46.2  34162  289.59 0855.16
2009/04/23 10:50:03.8      87   -235    254    251    357 159.5  50.2  34160  289.58 0855.16
2009/04/23 10:50:03.9     244   -168    237    297    379 124.6  42.7  34162  289.59 0855.16
2009/04/23 10:50:04.0     367   -284    146    465    488 127.8  17.4  34158  289.54 0855.16
2009/04/23 10:50:04.1     349   -115    313    368    483 108.3  44.7  34156  289.49 0855.16
2009/04/23 10:50:04.2     262    -64    283    270    391 103.9  51.4  34156  289.52 0855.16
2009/04/23 10:50:04.3     265   -135    318    298    435 117.0  52.1  34164  289.64 0855.16
2009/04/23 10:50:04.4     337   -316    307    463    555 133.2  36.5  34162  289.60 0855.16
2009/04/23 10:50:04.5     269   -232    312    356    473 130.7  45.8  34160  289.58 0855.16
2009/04/23 10:50:04.6     126   -148    271    195    333 139.7  60.7  34170  289.73 0855.16
2009/04/23 10:50:04.7      93   -511    370    520    638 169.7  39.0  34156  289.51 0855.16
2009/04/23 10:50:04.8      86   -429    251    438    504 168.6  32.4  34156  289.49 0855.16
2009/04/23 10:50:04.9      40   -470     49    472    475 175.0   6.0  34160  289.57 0855.16
2009/04/23 10:50:05.0      44   -478     26    481    482 174.7   3.1  34160  289.56 0855.16
2009/04/23 10:50:05.1    -291   -495    -11    575    576 210.4  -1.2  34158  289.54 0855.16
2009/04/23 10:50:05.2    -362   -425      3    559    560 220.4   0.4  34170  289.74 0855.16
2009/04/23 10:50:05.3    -329   -278     54    431    435 229.8   7.2  34176  289.83 0855.16
2009/04/23 10:50:05.4    -456   -230      0    511    512 243.2   0.1  34192  290.10 0855.16
2009/04/23 10:50:05.5    -197   -175   -123    264    291 228.4 -31.4  34184  289.98 0855.16
2009/04/23 10:50:05.6     -67   -336     65    343    350 191.3  10.8  34192  290.13 0855.16
2009/04/23 10:50:05.7    -167   -400    -58    434    438 202.7  -7.7  34170  289.75 0855.16
2009/04/23 10:50:05.8     -59   -426    -54    431    435 187.9  -7.2  34160  289.58 0855.16
2009/04/23 10:50:05.9      21   -467    -67    468    473 177.4  -8.2  34156  289.50 0855.16
2009/04/23 10:50:06.0      65   -416    -99    422    434 171.1 -13.3  34150  289.39 0855.16
2009/04/23 10:50:06.1     -88   -398   -139    408    431 192.5 -23.8  34162  289.60 0855.16
2009/04/23 10:50:06.2     -36   -432   -208    434    481 184.9 -31.8  34156  289.52 0855.16
2009/04/23 10:50:06.3      97   -556   -222    565    607 170.1 -27.2  34142  289.27 0855.16
2009/04/23 10:50:06.4       0   -460    -83    461    469 180.0 -10.2  34142  289.25 0855.16
2009/04/23 10:50:06.5      44   -355   -161    358    392 172.9 -30.3  34142  289.28 0855.16
2009/04/23 10:50:06.6     -17   -232   -151    233    277 184.4 -40.4  34142  289.25 0855.16
2009/04/23 10:50:06.7     -21   -249   -175    250    305 184.9 -42.9  34146  289.32 0855.16
2009/04/23 10:50:06.8       6   -365   -152    366    396 179.0 -28.3  34142  289.25 0855.16
2009/04/23 10:50:06.9      23   -302   -161    303    343 175.6 -34.7  34148  289.37 0855.16
2009/04/23 10:50:07.0     -30   -238   -105    240    261 187.3 -29.5  34154  289.47 0855.17
2009/04/23 10:50:07.1     -59   -256    -87    263    278 193.1 -18.3  34156  289.49 0855.17
2009/04/23 10:50:07.2     -44   -235    -76    240    251 190.7 -22.9  34158  289.53 0855.17
2009/04/23 10:50:07.3       7   -379   -138    380    404 178.9 -25.3  34154  289.48 0855.17
2009/04/23 10:50:07.4      -5   -359   -117    360    378 180.8 -23.3  34152  289.45 0855.17
2009/04/23 10:50:07.5     -50   -416    -23    420    421 186.9  -3.1  34152  289.44 0855.17
2009/04/23 10:50:07.6     -51   -252    -31    258    260 191.5  -6.9  34152  289.44 0855.17
2009/04/23 10:50:07.7     -66   -345   -146    352    381 190.9 -28.2  34156  289.50 0855.17
2009/04/23 10:50:07.8     -11   -360   -130    361    383 181.9 -25.1  34156  289.52 0855.17
2009/04/23 10:50:07.9     -15   -352   -142    353    380 182.5 -27.4  34162  289.59 0855.17
2009/04/23 10:50:08.0     -92   -304   -142    318    348 196.9 -30.2  34152  289.45 0855.17
2009/04/23 10:50:08.1    -155    -61   -118    167    204 248.3 -43.0  34156  289.52 0855.17
2009/04/23 10:50:08.2     -34    -84    -73     91    116 202.3 -48.1  34158  289.53 0855.17
2009/04/23 10:50:08.3      62   -133    -90    147    172 155.1 -39.2  34156  289.52 0855.17
2009/04/23 10:50:08.4     -57    -90   -152    107    185 212.6 -65.9  34162  289.60 0855.17
2009/04/23 10:50:08.5     -26   -149   -156    152    217 190.2 -55.1  34156  289.52 0855.17
2009/04/23 10:50:08.6      33   -129   -151    134    201 165.3 -58.4  34156  289.50 0855.17
2009/04/23 10:50:08.7      11      0   -130     12    130  90.0 -90.0  34166  289.69 0855.17
2009/04/23 10:50:08.8      50    -83    -33     98    103 148.8 -23.6  34166  289.69 0855.17
2009/04/23 10:50:08.9      28   -180    -37    183    187 171.1 -11.6  34158  289.55 0855.17
2009/04/23 10:50:09.0      39   -176    -94    181    203 167.3 -33.9  34160  289.57 0855.16
2009/04/23 10:50:09.1       9   -127   -112    128    170 175.5 -50.0  34164  289.63 0855.16
2009/04/23 10:50:09.2     -31   -176    -49    179    186 190.0 -15.5  34162  289.62 0855.16
2009/04/23 10:50:09.3     -51   -253    -29    259    261 191.6  -6.5  34164  289.63 0855.16
2009/04/23 10:50:09.4     -90   -353    -46    365    368 194.3  -7.2  34166  289.69 0855.16
2009/04/23 10:50:09.5    -129   -331   -117    356    374 201.3 -23.5  34168  289.71 0855.16
2009/04/23 10:50:09.6     -50   -338   -104    342    357 188.5 -21.8  34150  289.40 0855.16
2009/04/23 10:50:09.7     -45   -320    -92    324    336 188.1 -20.5  34150  289.40 0855.16
2009/04/23 10:50:09.8     -29   -351   -108    353    370 184.8 -17.0  34152  289.45 0855.16
2009/04/23 10:50:09.9    -101   -339   -120    354    373 196.6 -23.7  34152  289.45 0855.16
2009/04/23 10:50:10.0    -107   -335   -123    352    374 197.8 -19.3  34154  289.48 0855.16
2009/04/23 10:50:10.1     -31   -321   -120    323    344 185.6 -25.7  34154  289.48 0855.16
2009/04/23 10:50:10.2     -23   -354   -141    355    381 183.7 -27.4  34152  289.45 0855.16
2009/04/23 10:50:10.3     -42   -303   -123    307    330 188.0 -27.4  34152  289.42 0855.16
2009/04/23 10:50:10.4      62   -325   -112    331    350 169.2 -18.7  34152  289.42 0855.16
2009/04/23 10:50:10.5      47   -353    -96    357    370 172.3 -15.2  34152  289.43 0855.16
2009/04/23 10:50:10.6      -9   -304    -93    305    319 181.8 -17.0  34152  289.42 0855.16
2009/04/23 10:50:10.7     -51   -252    -76    258    270 191.6 -16.5  34156  289.51 0855.16
2009/04/23 10:50:10.8     -41   -233    -67    237    246 190.0 -20.7  34154  289.47 0855.16
2009/04/23 10:50:10.9     -47   -278    -15    283    284 189.7  -3.1  34152  289.44 0855.16
2009/04/23 10:50:11.0     -65   -242    -50    251    257 195.1 -11.3  34156  289.51 0855.17
2009/04/23 10:50:11.1     -18   -217    -16    218    219 184.9  -4.4  34152  289.45 0855.17
2009/04/23 10:50:11.2     -61   -157    -53    169    177 201.4 -22.5  34156  289.52 0855.17
2009/04/23 10:50:11.3    -111   -121    -58    165    174 222.5 -23.8  34154  289.48 0855.17
2009/04/23 10:50:11.4    -131   -104    -52    168    176 231.6 -17.3  34148  289.36 0855.17
2009/04/23 10:50:11.5    -138   -146     -5    202    203 223.4  -1.6  34148  289.36 0855.17
2009/04/23 10:50:11.6    -104   -148     20    182    184 215.2   6.5  34150  289.41 0855.17
2009/04/23 10:50:11.7     -78   -123     43    147    154 212.5  16.3  34150  289.40 0855.17
2009/04/23 10:50:11.8     -73   -157     33    174    178 204.9  11.0  34156  289.50 0855.17
2009/04/23 10:50:11.9     -71   -139     42    157    163 207.2  15.3  34158  289.53 0855.17
2009/04/23 10:50:12.0     -24   -140     12    143    144 189.8   4.9  34158  289.53 0855.17
2009/04/23 10:50:12.1     -11   -116     27    117    121 185.8  13.1  34160  289.57 0855.17
2009/04/23 10:50:12.2     -16   -107     35    109    115 188.9  17.9  34168  289.70 0855.17
2009/04/23 10:50:12.3     -10    -76     10     77     78 188.0   7.5  34164  289.63 0855.17
2009/04/23 10:50:12.4       0    -62     21     63     67 180.9  18.9  34160  289.58 0855.17
2009/04/23 10:50:12.5      45    -55     25     72     77 140.3  19.2  34162  289.62 0855.17
2009/04/23 10:50:12.6       5    -30    -11     31     33 170.2 -19.7  34162  289.62 0855.17
2009/04/23 10:50:12.7     -12      0    -13     13     18 270.0 -54.5  34160  289.57 0855.17
2009/04/23 10:50:12.8       3      0     -9      4      9  90.0 -85.6  34162  289.60 0855.17
2009/04/23 10:50:12.9       3    -25      9     26     28 172.0  19.4  34164  289.65 0855.17
2009/04/23 10:50:13.0      24    -36     17     44     47 145.7  21.0  34162  289.60 0855.17
2009/04/23 10:50:13.1      85    -48     43     98    107 119.8  24.6  34158  289.53 0855.17
2009/04/23 10:50:13.2      28    -80     17     85     87 160.4  11.6  34156  289.50 0855.17
2009/04/23 10:50:13.3      26   -125     -2    128    129 168.0  -1.3  34152  289.43 0855.17
2009/04/23 10:50:13.4      40   -199     35    204    208 168.4   9.9  34154  289.46 0855.17
2009/04/23 10:50:13.5      28   -204     40    207    212 172.0  11.1  34152  289.43 0855.17
2009/04/23 10:50:13.6       4   -260     17    261    262 179.1   3.8  34150  289.39 0855.17
2009/04/23 10:50:13.7      11   -265    -12    266    267 177.5  -2.6  34152  289.44 0855.17
2009/04/23 10:50:13.8      53   -221     -5    228    229 166.4  -1.3  34148  289.38 0855.17
2009/04/23 10:50:13.9     -20   -110     34    112    118 190.7  16.8  34150  289.41 0855.17
2009/04/23 10:50:14.0    -107   -193     17    221    222 209.0   4.6  34160  289.57 0855.17
2009/04/23 10:50:14.1    -230   -184    -11    295    296 231.3  -2.3  34168  289.70 0855.17
2009/04/23 10:50:14.2    -236   -177    -59    295    301 233.1 -11.3  34154  289.47 0855.17
2009/04/23 10:50:14.3    -200   -169    -75    263    273 229.8 -20.8  34144  289.29 0855.17
2009/04/23 10:50:14.4    -292   -149    -92    328    341 242.9 -15.8  34146  289.33 0855.17
2009/04/23 10:50:14.5    -309   -146    -76    342    351 244.7 -12.6  34150  289.40 0855.17
2009/04/23 10:50:14.6    -246   -146    -47    287    291 239.3  -9.3  34150  289.41 0855.17
2009/04/23 10:50:14.7    -171   -147    -45    226    231 229.3 -11.3  34150  289.41 0855.17
2009/04/23 10:50:14.8    -188   -200   -131    275    304 223.2 -31.7  34148  289.37 0855.17
2009/04/23 10:50:14.9    -136   -248    -78    283    294 208.7 -15.5  34144  289.31 0855.17
2009/04/23 10:50:15.0    -102   -213     32    237    240 205.5   7.8  34152  289.42 0855.18
2009/04/23 10:50:15.1     -97   -208     13    230    231 205.2   3.3  34154  289.46 0855.18
2009/04/23 10:50:15.2     -98   -222    -40    243    247 203.8  -9.3  34152  289.44 0855.18
2009/04/23 10:50:15.3      -4   -300    -93    301    315 180.9 -22.2  34152  289.44 0855.18
2009/04/23 10:50:15.4     -44   -276   -169    280    327 189.1 -38.4  34150  289.39 0855.18
2009/04/23 10:50:15.5      64   -275    -91    283    297 166.7 -23.0  34156  289.49 0855.18
2009/04/23 10:50:15.6      57   -214    -57    222    230 164.9 -14.5  34156  289.52 0855.18
2009/04/23 10:50:15.7      32   -229    -69    232    243 171.9 -16.6  34156  289.49 0855.18
2009/04/23 10:50:15.8      73   -182    -72    197    209 158.2 -25.3  34154  289.48 0855.18
2009/04/23 10:50:15.9      11   -168    -67    169    181 176.2 -27.4  34150  289.41 0855.18
2009/04/23 10:50:16.0     -49   -214    -88    220    236 192.9 -27.4  34150  289.40 0855.18
2009/04/23 10:50:16.1     -76   -288   -114    298    319 194.9 -26.2  34156  289.49 0855.18
2009/04/23 10:50:16.2     -24   -346   -123    347    368 184.1 -24.7  34152  289.45 0855.18
2009/04/23 10:50:16.3    -203   -337   -112    394    410 211.0 -15.9  34158  289.55 0855.18
2009/04/23 10:50:16.4    -159   -306   -123    345    367 207.5 -19.7  34156  289.50 0855.18
2009/04/23 10:50:16.5    -135   -310   -105    339    354 203.6 -22.2  34154  289.47 0855.18
2009/04/23 10:50:16.6    -155   -206   -100    258    276 217.0 -26.7  34154  289.47 0855.18
2009/04/23 10:50:16.7    -151   -140   -115    207    236 227.1 -35.8  34156  289.52 0855.18
2009/04/23 10:50:16.8    -248   -201     24    320    321 230.9   4.4  34174  289.81 0855.18
2009/04/23 10:50:16.9    -285   -193    -10    345    346 235.9  -1.7  34166  289.67 0855.18
2009/04/23 10:50:17.0    -215   -221    -17    309    310 224.1  -3.3  34164  289.63 0855.19
2009/04/23 10:50:17.1    -196   -158     -5    252    253 231.1  -1.3  34156  289.51 0855.19
2009/04/23 10:50:17.2    -223   -142    -22    265    267 237.4  -4.9  34156  289.49 0855.19
2009/04/23 10:50:17.3    -208   -160      0    263    264 232.5   0.0  34156  289.49 0855.19
2009/04/23 10:50:17.4    -227   -165    -16    281    282 234.0  -3.3  34158  289.54 0855.19
2009/04/23 10:50:17.5    -230   -196    -38    303    306 229.6  -7.2  34158  289.53 0855.19
2009/04/23 10:50:17.6    -294   -247     19    385    386 229.9   2.9  34158  289.54 0855.19
2009/04/23 10:50:17.7    -303   -182    -30    354    356 239.0  -4.9  34158  289.55 0855.19
2009/04/23 10:50:17.8    -222   -255     17    339    340 221.0   2.9  34162  289.60 0855.19
2009/04/23 10:50:17.9    -197   -466      0    507    508 203.0   0.1  34160  289.57 0855.19
2009/04/23 10:50:18.0    -116   -535     27    548    549 192.3   2.9  34158  289.53 0855.19
2009/04/23 10:50:18.1    -107   -582    -64    592    596 190.5  -6.2  34156  289.51 0855.19
2009/04/23 10:50:18.2    -100   -712    -85    720    726 188.0  -6.8  34156  289.50 0855.19
2009/04/23 10:50:18.3     -78   -578    -11    584    585 187.7  -1.2  34154  289.46 0855.19
2009/04/23 10:50:18.4      21   -551     57    552    555 177.8   5.9  34156  289.51 0855.19
2009/04/23 10:50:18.5      74   -563     28    568    569 172.4   2.9  34158  289.54 0855.19
2009/04/23 10:50:18.7      53   -580    -11    583    584 174.7  -1.1  34162  289.61 0855.19
2009/04/23 10:50:18.7     131   -558    -11    574    575 166.7  -1.2  34160  289.58 0855.19
2009/04/23 10:50:18.8     137   -522    -29    540    541 165.2  -3.1  34158  289.55 0855.19
2009/04/23 10:50:18.9     163   -527    -63    552    556 162.8  -6.6  34156  289.50 0855.19
2009/04/23 10:50:19.0      54   -537    -84    540    547 174.2  -8.9  34158  289.53 0855.21
2009/04/23 10:50:19.1      15   -499   -105    500    512 178.2 -11.9  34158  289.54 0855.21
2009/04/23 10:50:19.2      77   -525   -198    531    566 171.6 -25.9  34154  289.46 0855.21
2009/04/23 10:50:19.3    -199   -404   -143    451    473 206.3 -22.8  34160  289.56 0855.21
2009/04/23 10:50:19.4    -205   -485    -37    527    529 203.0  -4.1  34164  289.63 0855.21
2009/04/23 10:50:19.5     -58   -529   -190    533    567 186.3 -19.7  34162  289.62 0855.21
2009/04/23 10:50:19.6    -351   -633    -67    725    729 209.0  -5.3  34156  289.52 0855.21
2009/04/23 10:50:19.7    -288   -512   -117    588    600 209.4 -11.3  34160  289.58 0855.21
2009/04/23 10:50:19.9    -209   -521    -80    562    568 201.9  -8.1  34164  289.63 0855.21
2009/04/23 10:50:19.9    -206   -500    -93    541    550 202.4  -9.8  34162  289.62 0855.21
2009/04/23 10:50:20.0    -214   -570   -200    610    642 200.6 -18.2  34166  289.67 0855.21
2009/04/23 10:50:20.1    -217   -431   -101    483    494 206.7 -11.9  34174  289.81 0855.21
2009/04/23 10:50:20.2    -103   -546     53    556    559 190.7   5.5  34160  289.58 0855.21
2009/04/23 10:50:20.3     -18   -576     39    577    579 181.8   3.9  34172  289.78 0855.21
2009/04/23 10:50:20.4     -28   -614    -33    615    616 182.7  -3.1  34170  289.74 0855.21
2009/04/23 10:50:20.5     -89   -611    -87    618    625 188.4  -8.0  34164  289.64 0855.21
2009/04/23 10:50:20.6     -92   -633    -19    640    641 188.3  -1.7  34164  289.65 0855.21
2009/04/23 10:50:20.7    -102   -504    -25    515    516 191.5  -2.8  34162  289.59 0855.21
2009/04/23 10:50:20.8     -62   -447   -129    452    470 188.0 -20.7  34160  289.58 0855.21
2009/04/23 10:50:20.9     -19   -450   -105    451    464 182.5 -13.2  34166  289.66 0855.21
2009/04/23 10:50:21.0      42   -512   -169    514    541 175.2 -23.3  34160  289.57 0855.21
2009/04/23 10:50:21.2     140   -519    -10    538    539 164.8  -1.1  34162  289.62 0855.21
2009/04/23 10:50:21.2     123   -565    -11    579    580 167.7  -1.2  34166  289.68 0855.21
2009/04/23 10:50:21.3     164   -459     19    488    489 160.3   2.3  34162  289.61 0855.21
2009/04/23 10:50:21.4     -67   -479      3    484    485 188.0   0.4  34162  289.62 0855.21
2009/04/23 10:50:21.5     -27   -415    -23    416    417 183.7  -3.2  34166  289.66 0855.21
2009/04/23 10:50:21.6     -50   -399    -51    403    407 187.2  -7.3  34166  289.66 0855.21
2009/04/23 10:50:21.7    -119   -444    -59    460    464 195.1  -7.3  34166  289.66 0855.21
2009/04/23 10:50:21.8    -164   -399   -108    432    446 202.4 -14.1  34166  289.68 0855.21
2009/04/23 10:50:21.9    -118   -443    -58    459    463 195.0  -7.2  34168  289.72 0855.21
2009/04/23 10:50:22.0    -138   -396    -58    420    424 199.3  -7.9  34170  289.75 0855.19
2009/04/23 10:50:22.1     -66   -411    -43    417    420 189.1  -5.9  34166  289.68 0855.19
2009/04/23 10:50:22.3     -84   -417   -143    426    450 191.5 -18.6  34166  289.68 0855.19
2009/04/23 10:50:22.3      15   -488    -80    489    496 178.2  -9.3  34166  289.69 0855.19
2009/04/23 10:50:22.4     -77   -452   -131    459    477 189.7 -20.7  34166  289.66 0855.19
2009/04/23 10:50:22.5      33   -457    -89    459    468 175.8 -11.0  34176  289.83 0855.19
2009/04/23 10:50:22.6      68   -356      3    363    364 169.1   0.5  34174  289.81 0855.19
2009/04/23 10:50:22.7      25   -321     23    323    324 175.4   4.2  34168  289.71 0855.19
2009/04/23 10:50:22.8      15   -306      5    307    308 177.1   1.0  34172  289.76 0855.19
2009/04/23 10:50:22.9      17   -269    -26    270    272 176.4  -5.6  34172  289.76 0855.19
2009/04/23 10:50:23.0      36   -303    -39    306    309 173.1  -7.3  34170  289.73 0855.19
2009/04/23 10:50:23.1      43   -279    -37    283    286 171.1  -7.5  34170  289.73 0855.19
2009/04/23 10:50:23.2      68   -302    -40    310    313 167.3  -7.5  34170  289.73 0855.19
2009/04/23 10:50:23.3      47   -253    -25    258    260 169.3  -5.6  34166  289.68 0855.19
2009/04/23 10:50:23.5      26   -230    -38    232    236 173.5  -9.3  34170  289.75 0855.19
2009/04/23 10:50:23.5      18   -330     -4    331    332 176.9  -0.7  34168  289.71 0855.19
2009/04/23 10:50:23.6      49   -350     -9    354    355 172.0  -1.6  34168  289.71 0855.19
2009/04/23 10:50:23.7      75   -371    -70    379    386 168.5 -10.5  34172  289.76 0855.19
2009/04/23 10:50:23.8      50   -338    -99    342    357 171.5 -16.2  34170  289.74 0855.19
2009/04/23 10:50:23.9     -32   -345    -10    347    348 185.4  -1.8  34168  289.72 0855.19
2009/04/23 10:50:24.0     -26   -389     -1    390    391 183.9  -0.3  34168  289.72 0855.14
2009/04/23 10:50:24.1     -78   -368     50    377    381 192.1   7.6  34172  289.79 0855.14
2009/04/23 10:50:24.2     -33   -373     76    375    383 185.2  11.6  34170  289.74 0855.14
2009/04/23 10:50:24.3     -61   -320     26    326    328 190.8   4.7  34170  289.75 0855.14
2009/04/23 10:50:24.4    -114   -284     31    307    309 201.9   5.8  34164  289.64 0855.14
2009/04/23 10:50:24.5     -64   -272     65    280    288 193.4  13.2  34166  289.68 0855.14
2009/04/23 10:50:24.6     -56   -252     79    259    271 192.5  17.1  34180  289.92 0855.14
2009/04/23 10:50:24.7     -18   -228     49    229    235 184.7  12.2  34178  289.86 0855.14
2009/04/23 10:50:24.8      58   -244     38    251    254 166.6   8.8  34168  289.71 0855.14
2009/04/23 10:50:24.9     115   -203     47    234    239 150.4  11.6  34170  289.73 0855.14
2009/04/23 10:50:25.0     108   -291     37    311    314 159.5   6.9  34168  289.71 0855.14
2009/04/23 10:50:25.1      49   -331     31    335    337 171.5   5.3  34168  289.72 0855.14
2009/04/23 10:50:25.2     159   -340    -25    376    377 155.0  -3.9  34172  289.77 0855.14
2009/04/23 10:50:25.3     225   -321     37    393    395 144.9   5.4  34164  289.65 0855.14
2009/04/23 10:50:25.4     282   -309    -39    419    421 137.7  -5.4  34166  289.66 0855.14
2009/04/23 10:50:25.5     263   -304    -64    403    409 139.1  -9.1  34162  289.61 0855.14
2009/04/23 10:50:25.6     272   -272     21    386    387 135.0   3.2  34158  289.55 0855.14
2009/04/23 10:50:25.7     268   -245      7    364    365 132.4   1.2  34162  289.59 0855.14
2009/04/23 10:50:25.8     249   -282     40    377    380 138.5   6.1  34164  289.65 0855.14
2009/04/23 10:50:25.9     209   -326    -12    388    389 147.4  -1.8  34166  289.67 0855.14
2009/04/23 10:50:26.0     220   -493     98    541    550 155.9  10.3  34166  289.67 0855.12
2009/04/23 10:50:26.1     170   -473    -19    503    504 160.2  -2.2  34164  289.64 0855.12
2009/04/23 10:50:26.2      70   -451      8    457    458 171.2   1.1  34168  289.72 0855.12
2009/04/23 10:50:26.3      77   -480    -61    487    491 170.9  -7.2  34166  289.69 0855.12
2009/04/23 10:50:26.4      74   -439    189    446    484 170.4  24.5  34170  289.73 0855.12
2009/04/23 10:50:26.5      60   -476    155    480    505 172.8  17.9  34172  289.78 0855.12
2009/04/23 10:50:26.7      33   -381    221    383    442 174.9  32.7  34168  289.70 0855.12
2009/04/23 10:50:26.7       6   -377    251    378    453 179.0  36.6  34168  289.72 0855.12
2009/04/23 10:50:26.8     -53   -460    103    464    476 186.6  12.6  34166  289.67 0855.12
2009/04/23 10:50:27.0     119   -442     13    458    459 164.9   1.7  34166  289.68 0855.12
2009/04/23 10:50:27.1     127   -367    110    389    405 160.8  15.9  34170  289.74 0855.12
2009/04/23 10:50:27.2      -6   -459     66    460    465 180.8   8.2  34172  289.77 0855.12
2009/04/23 10:50:27.3      16   -421     44    422    425 177.8   6.1  34172  289.77 0855.12
2009/04/23 10:50:27.4      40   -423    -46    426    429 174.6  -6.2  34170  289.75 0855.12
2009/04/23 10:50:27.5      46   -506    -52    509    512 174.8  -5.9  34178  289.88 0855.12
2009/04/23 10:50:27.6      50   -455    -21    458    459 173.7  -2.7  34180  289.90 0855.12
2009/04/23 10:50:27.7      57   -567    -94    570    578 174.2  -9.4  34176  289.83 0855.12
2009/04/23 10:50:27.8      44   -584    -32    586    587 175.6  -3.1  34174  289.81 0855.12
2009/04/23 10:50:27.9     108   -661     30    670    671 170.7   2.6  34176  289.83 0855.12
2009/04/23 10:50:28.0      25   -802    -92    803    809 178.2  -6.6  34158  289.53 0855.12
2009/04/23 10:50:28.1      -3   -680   -212    681    714 180.3 -17.3  34156  289.49 0855.10
2009/04/23 10:50:28.2      10   -684   -255    685    730 179.1 -25.8  34164  289.64 0855.10
2009/04/23 10:50:28.3     -97   -567   -251    576    628 189.8 -29.4  34158  289.54 0855.10
2009/04/23 10:50:28.4     -11   -483   -214    484    529 181.4 -29.7  34168  289.71 0855.10
2009/04/23 10:50:28.5       8   -471   -183    472    506 179.0 -26.8  34170  289.74 0855.10
2009/04/23 10:50:28.6      37   -590   -176    592    617 176.4 -21.5  34174  289.81 0855.10
2009/04/23 10:50:28.7       8   -540   -189    541    574 179.1 -19.3  34172  289.79 0855.10
2009/04/23 10:50:28.8     -34   -507   -206    509    549 183.9 -27.6  34152  289.45 0855.10
2009/04/23 10:50:28.9      54   -517    -66    520    525 174.0  -7.3  34156  289.50 0855.10
2009/04/23 10:50:29.0     123   -512     11    527    528 166.4   1.2  34132  289.09 0855.10
2009/04/23 10:50:29.1      81   -430    -51    438    442 169.3  -6.7  34136  289.17 0855.10
2009/04/23 10:50:29.2     -26   -425   -111    426    441 183.6 -14.6  34142  289.27 0855.10
2009/04/23 10:50:29.3    -216   -453   -140    502    521 205.5 -20.2  34126  289.00 0855.10
2009/04/23 10:50:29.4    -216   -332   -129    397    418 213.1 -18.1  34142  289.26 0855.10
2009/04/23 10:50:29.5    -256   -351   -148    435    460 216.1 -18.8  34116  288.83 0855.10
2009/04/23 10:50:29.6    -244   -357    -79    433    441 214.4 -10.4  34118  288.87 0855.10
2009/04/23 10:50:29.7    -171   -352    -21    392    393 205.9  -3.2  34120  288.91 0855.10
2009/04/23 10:50:29.8     -29   -341    -98    343    357 185.0 -16.0  34104  288.64 0855.10
2009/04/23 10:50:29.9     -66   -354    -25    361    362 190.6  -4.1  34096  288.49 0855.10
2009/04/23 10:50:30.0     -59   -292      0    299    300 191.6   0.0  34092  288.43 0855.10
2009/04/23 10:50:30.1     -57   -259     10    266    267 192.5   2.3  34100  288.56 0855.11
2009/04/23 10:50:30.2     -54   -242    -19    249    250 192.7  -4.4  34110  288.73 0855.11
2009/04/23 10:50:30.3     -15   -253    -55    254    261 183.5 -12.4  34124  288.95 0855.11
2009/04/23 10:50:30.4     -41   -243    -75    247    258 189.8 -21.8  34120  288.90 0855.11
2009/04/23 10:50:30.5     -60   -256     62    264    272 193.3  13.2  34116  288.81 0855.11
2009/04/23 10:50:30.6    -104   -315     63    332    338 198.4  10.8  34104  288.64 0855.11
2009/04/23 10:50:30.7     -47   -308    154    312    347 188.7  28.1  34104  288.62 0855.11
2009/04/23 10:50:30.8       7   -456    239    457    515 179.0  29.8  34102  288.59 0855.11
2009/04/23 10:50:30.9     -36   -391    210    393    445 185.3  30.3  34112  288.77 0855.11
2009/04/23 10:50:31.0     -11   -376    138    377    401 181.8  20.9  34110  288.72 0855.11
2009/04/23 10:50:31.1     -42   -407     54    410    414 186.0   7.6  34116  288.82 0855.11
2009/04/23 10:50:31.2     -87   -374     63    384    390 193.1   9.3  34126  289.01 0855.11
2009/04/23 10:50:31.3    -145   -297    -30    331    333 206.0  -5.2  34130  289.06 0855.11
2009/04/23 10:50:31.4    -158   -340    -73    376    384 205.0 -11.0  34130  289.06 0855.11
2009/04/23 10:50:31.5    -119   -354    -44    374    377 198.6  -6.8  34128  289.04 0855.11
2009/04/23 10:50:31.6     -40   -410   -144    413    438 185.7 -19.3  34140  289.22 0855.11
2009/04/23 10:50:31.7     -16   -347   -129    348    371 182.8 -25.5  34142  289.25 0855.11
2009/04/23 10:50:31.8      52   -257    -83    263    276 168.4 -17.6  34140  289.24 0855.11
2009/04/23 10:50:31.9      63   -227   -101    236    256 164.4 -28.7  34144  289.31 0855.11
2009/04/23 10:50:32.0      65   -205    -60    216    224 162.4 -20.2  34142  289.26 0855.11
2009/04/23 10:50:32.1     102   -190    -60    216    224 151.7 -20.2  34142  289.28 0855.10
2009/04/23 10:50:32.2      -9    125    -20    126    128 355.6  -9.3  34142  289.28 0855.10
2009/04/23 10:50:32.3      64    227    -69    236    247  15.8 -16.4  34138  289.19 0855.10
2009/04/23 10:50:32.4     146     88    135    171    217  58.7  42.2  34144  289.31 0855.10
2009/04/23 10:50:32.5     181    130    172    223    281  54.3  41.6  34150  289.41 0855.10
2009/04/23 10:50:32.6     275     30    163    277    321  83.6  33.3  34150  289.39 0855.10
2009/04/23 10:50:32.7     300   -167    141    344    371 119.1  23.5  34142  289.25 0855.10
2009/04/23 10:50:32.8     375   -228    158    439    467 121.3  19.9  34118  288.87 0855.10
2009/04/23 10:50:32.9     254   -226     52    341    345 131.7   8.7  34122  288.93 0855.10
2009/04/23 10:50:33.0      54   -287    -31    293    295 169.3  -6.1  34130  289.05 0855.10
2009/04/23 10:50:33.1       3   -371     -3    372    373 179.4  -0.5  34130  289.06 0855.10
2009/04/23 10:50:33.2      11   -302     19    303    304 177.8   3.6  34140  289.22 0855.10
2009/04/23 10:50:33.3      84   -250     -5    265    266 161.3  -1.2  34144  289.31 0855.10
2009/04/23 10:50:33.4      94   -189     41    212    217 153.5  11.1  34142  289.26 0855.10
2009/04/23 10:50:33.5     -48   -202     20    208    210 193.6   5.7  34144  289.30 0855.10
2009/04/23 10:50:33.6      -8   -188      4    189    190 182.5   1.2  34142  289.28 0855.10
2009/04/23 10:50:33.7      74   -169    -29    185    188 156.4  -9.0  34144  289.30 0855.10
2009/04/23 10:50:33.8       2   -131     39    132    138 179.1  16.8  34144  289.30 0855.10
2009/04/23 10:50:33.9     -26    -79     41     84     93 198.5  27.3  34146  289.33 0855.10
2009/04/23 10:50:34.0     -19     19     53     27     59 315.0  70.8  34148  289.36 0855.10
2009/04/23 10:50:34.1     -57     47     52     75     91 309.6  38.0  34158  289.53 0855.09
2009/04/23 10:50:34.2       0    -40    143     41    148 180.9  83.9  34176  289.84 0855.09
2009/04/23 10:50:34.3      13    -47    191     49    197 164.0  85.6  34180  289.91 0855.09
2009/04/23 10:50:34.4     -35    -82    180     90    201 203.2  71.4  34164  289.65 0855.09
2009/04/23 10:50:34.5    -251     31    214    253    331 277.1  44.5  34160  289.58 0855.09
2009/04/23 10:50:34.6    -200     43    247    205    320 282.4  56.1  34168  289.71 0855.09
2009/04/23 10:50:34.7    -179    -27     83    182    200 261.4  26.2  34160  289.58 0855.09
2009/04/23 10:50:34.8    -228    -98    144    249    287 246.7  32.7  34158  289.53 0855.09
2009/04/23 10:50:34.9    -107    -89     49    140    149 230.4  19.4  34158  289.53 0855.09
2009/04/23 10:50:35.0     -92   -231    126    249    279 201.9  29.1  34148  289.36 0855.09
2009/04/23 10:50:35.1     110   -302    240    322    401 160.0  40.6  34160  289.57 0855.09
2009/04/23 10:50:35.2      34   -363    266    365    451 174.6  39.7  34154  289.48 0855.09
2009/04/23 10:50:35.3    -102   -460    225    472    522 192.6  27.3  34152  289.44 0855.09
2009/04/23 10:50:35.4    -117   -488    115    502    516 193.6  12.9  34150  289.40 0855.09
2009/04/23 10:50:35.5    -144   -436    267    460    531 198.3  32.9  34150  289.39 0855.09
2009/04/23 10:50:35.6    -134   -372    152    396    424 199.9  22.1  34156  289.51 0855.09
2009/04/23 10:50:35.7    -106   -241    133    264    295 203.7  28.7  34172  289.76 0855.09
2009/04/23 10:50:35.8    -216   -179    123    281    306 230.4  25.2  34176  289.85 0855.09
2009/04/23 10:50:35.9    -166   -334    209    374    428 206.5  31.6  34184  289.97 0855.09
2009/04/23 10:50:36.0    -133   -309    151    337    369 203.4  25.8  34154  289.47 0855.09
2009/04/23 10:50:36.1    -172   -316    196    361    410 208.6  30.9  34146  289.35 0855.10
2009/04/23 10:50:36.2    -185   -270    199    328    383 214.4  34.2  34148  289.37 0855.10
2009/04/23 10:50:36.3    -200   -268    202    335    391 216.7  34.0  34152  289.43 0855.10
2009/04/23 10:50:36.4    -174   -312    200    358    410 209.2  31.6  34154  289.47 0855.10
2009/04/23 10:50:36.5    -185   -295    113    349    368 212.1  18.0  34154  289.47 0855.10
2009/04/23 10:50:36.6    -267   -283    154    390    419 223.3  22.8  34154  289.46 0855.10
2009/04/23 10:50:36.7    -180   -326    133    373    396 209.0  20.4  34168  289.71 0855.10
2009/04/23 10:50:36.8    -202   -240    187    314    365 220.1  33.5  34166  289.67 0855.10
2009/04/23 10:50:36.9    -146   -333     77    364    373 203.7  12.0  34148  289.37 0855.10
2009/04/23 10:50:37.0     -76   -156    233    174    290 206.1  59.8  34166  289.68 0855.10
2009/04/23 10:50:37.1      52      4    235     53    240  85.6  87.7  34184  289.99 0855.10
2009/04/23 10:50:37.2     168    -75    254    185    314 114.2  60.4  34178  289.88 0855.10
2009/04/23 10:50:37.3       4    -15    252     16    252 164.9  90.0  34212  290.47 0855.10
2009/04/23 10:50:37.4      44    134    177    142    226  18.3  56.9  34200  290.25 0855.10
2009/04/23 10:50:37.5      18     43    160     47    166  22.7  83.3  34202  290.30 0855.10
2009/04/23 10:50:37.6       3     48    123     49    132   4.4  77.1  34196  290.18 0855.10
2009/04/23 10:50:37.7      -1     40    174     41    178 357.3  86.9  34194  290.16 0855.10
2009/04/23 10:50:37.8     -34     35    126     50    135 315.9  77.1  34186  290.02 0855.10
2009/04/23 10:50:37.9    -150   -127    197    197    278 229.8  50.1  34190  290.09 0855.10
2009/04/23 10:50:38.0    -212   -210    200    299    359 225.2  36.9  34222  290.62 0855.10
2009/04/23 10:50:38.1    -173   -152    106    231    254 228.7  26.4  34218  290.54 0855.13
2009/04/23 10:50:38.2    -122   -176    113    215    242 214.7  30.2  34184  289.98 0855.13
2009/04/23 10:50:38.3     -85   -262    171    276    324 198.0  34.9  34184  289.97 0855.13
2009/04/23 10:50:38.4    -173   -271    145    322    353 212.6  25.9  34182  289.94 0855.13
2009/04/23 10:50:38.5    -170   -249    170    302    346 214.3  31.9  34182  289.96 0855.13
2009/04/23 10:50:38.6     -59   -215    212    224    308 195.4  48.2  34176  289.85 0855.13
2009/04/23 10:50:38.7     -27    -37    244     47    248 216.1  89.8  34188  290.04 0855.13
2009/04/23 10:50:38.8    -153    -46    153    160    221 253.2  48.5  34214  290.48 0855.13
2009/04/23 10:50:38.9    -133   -224    282    261    384 210.7  52.3  34178  289.89 0855.13
2009/04/23 10:50:39.0    -356    -79    139    365    390 257.4  21.8  34202  290.27 0855.13
2009/04/23 10:50:39.1    -318   -151    145    353    381 244.5  23.6  34198  290.20 0855.13
2009/04/23 10:50:39.2    -190   -145     28    240    242 232.7   6.9  34192  290.12 0855.13
2009/04/23 10:50:39.3    -332     22    158    333    368 273.8  27.2  34166  289.69 0855.13
2009/04/23 10:50:39.4    -380    204    118    432    448 298.2  15.3  34166  289.68 0855.13
2009/04/23 10:50:39.5    -270    170     30    320    322 302.2   5.4  34164  289.63 0855.13
2009/04/23 10:50:39.6    -325     18   -112    326    344 273.3 -23.9  34182  289.96 0855.13
2009/04/23 10:50:39.7    -124    182    -28    221    223 325.8  -7.3  34166  289.67 0855.13
2009/04/23 10:50:39.8    -409     12    -89    410    420 271.7 -12.3  34156  289.51 0855.13
2009/04/23 10:50:39.9    -312    217     58    381    386 304.8   8.7  34172  289.79 0855.13
2009/04/23 10:50:40.0    -296     -5     25    297    299 269.0   5.0  34156  289.49 0855.13
2009/04/23 10:50:40.1    -409    -15     96    410    422 267.9  13.3  34148  289.36 0855.15
2009/04/23 10:50:40.2    -303    154     -1    341    342 297.0  -0.2  34152  289.45 0855.15
2009/04/23 10:50:40.3    -298    193     -6    356    357 303.0  -1.1  34154  289.47 0855.15
2009/04/23 10:50:40.4    -331    -65    138    338    365 258.9  23.5  34150  289.40 0855.15
2009/04/23 10:50:40.5    -271    -33     61    274    281 263.0  12.6  34150  289.41 0855.15
2009/04/23 10:50:40.6    -255    -58      8    262    263 257.0   1.8  34172  289.78 0855.15
2009/04/23 10:50:40.7    -202     15     39    203    207 274.3  11.0  34168  289.72 0855.15
2009/04/23 10:50:40.8    -121    -36    -20    127    129 253.2  -9.3  34174  289.82 0855.15
2009/04/23 10:50:40.9    -166   -106     78    198    212 237.4  22.5  34174  289.82 0855.15
2009/04/23 10:50:41.0    -261   -140     99    297    314 241.8  18.5  34178  289.86 0855.15
2009/04/23 10:50:41.1    -264    -23   -154    266    307 265.0 -37.1  34186  290.02 0855.15
2009/04/23 10:50:41.2    -236      7     90    237    253 271.9  21.7  34194  290.14 0855.15
2009/04/23 10:50:41.3    -214     26    -82    216    231 277.0 -26.1  34174  289.82 0855.15
2009/04/23 10:50:41.4    -103   -104     -8    147    148 224.5  -3.1  34188  290.04 0855.15
2009/04/23 10:50:41.5    -177    -44    -43    183    189 255.8 -13.4  34188  290.04 0855.15
2009/04/23 10:50:41.6    -166    134   -107    214    239 308.9 -32.9  34196  290.19 0855.15
2009/04/23 10:50:41.7      53     60    -40     81     90  41.4 -32.2  34198  290.23 0855.15
2009/04/23 10:50:41.8      32     96    -48    102    112  18.3 -31.5  34202  290.28 0855.15
2009/04/23 10:50:41.9     -35     31   -141     47    148 311.3 -85.4  34190  290.08 0855.15
2009/04/23 10:50:42.0       5     17    -92     18     93  18.5 -90.0  34188  290.06 0855.15
2009/04/23 10:50:42.1    -205    218   -103    300    318 316.8 -19.1  34188  290.03 0855.17
2009/04/23 10:50:42.2    -189    203    -87    278    292 317.0 -17.5  34142  289.27 0855.17
2009/04/23 10:50:42.3    -176    100    -48    203    209 299.8 -13.4  34146  289.35 0855.17
2009/04/23 10:50:42.4    -218     58    -63    226    235 285.0 -15.8  34144  289.30 0855.17
2009/04/23 10:50:42.5    -157    245    -86    292    305 327.4 -16.5  34166  289.68 0855.17
2009/04/23 10:50:42.6    -264    -47    -89    269    283 259.9 -23.8  34194  290.15 0855.17
2009/04/23 10:50:42.7    -316    186   -116    367    384 300.5 -22.6  34166  289.67 0855.17
2009/04/23 10:50:42.8    -270    149    -89    309    321 298.9 -21.0  34168  289.70 0855.17
2009/04/23 10:50:42.9    -224    127   -135    258    291 299.5 -34.2  34160  289.58 0855.17
2009/04/23 10:50:43.0    -321    150   -136    355    380 295.1 -26.2  34164  289.64 0855.17
2009/04/23 10:50:43.1    -290    167   -141    335    363 300.0 -28.7  34166  289.67 0855.17
2009/04/23 10:50:43.2    -295    187    -85    350    361 302.4 -13.7  34174  289.82 0855.17
2009/04/23 10:50:43.3    -209     82      0    225    226 291.5   0.0  34186  290.01 0855.17
2009/04/23 10:50:43.4    -164     -8    -86    165    186 267.0 -33.9  34204  290.31 0855.17
2009/04/23 10:50:43.5    -223     37     63    227    236 279.5  15.6  34208  290.39 0855.17
2009/04/23 10:50:43.6    -279    -46     14    283    284 260.5   2.9  34228  290.71 0855.17
2009/04/23 10:50:43.7    -267    -80    -36    279    282 253.2  -7.5  34216  290.53 0855.17
2009/04/23 10:50:43.8    -257     -3   -106    258    278 269.2 -27.8  34230  290.76 0855.17
2009/04/23 10:50:43.9     -70    190    -69    203    214 339.5 -23.3  34214  290.48 0855.17
2009/04/23 10:50:44.0    -164    116    -11    202    203 305.3  -3.2  34222  290.64 0855.17
2009/04/23 10:50:44.1    -442    145    -77    466    473 288.2  -9.5  34176  289.83 0855.16
2009/04/23 10:50:44.2    -409     82   -149    418    445 281.4 -19.7  34130  289.05 0855.16
2009/04/23 10:50:44.3    -392     63   -118    398    416 279.1 -16.5  34136  289.16 0855.16
2009/04/23 10:50:44.4    -345     61   -111    351    368 280.1 -22.6  34122  288.94 0855.16
2009/04/23 10:50:44.5    -316     31   -183    318    366 275.7 -37.0  34124  288.96 0855.16
2009/04/23 10:50:44.6    -301     69    -73    309    318 283.0 -13.4  34162  289.59 0855.16
2009/04/23 10:50:44.7    -331     80    -91    341    354 283.6 -15.0  34176  289.84 0855.16
2009/04/23 10:50:44.8    -419     68    -86    425    434 279.2 -11.6  34164  289.63 0855.16
2009/04/23 10:50:44.9    -349     -7   -126    350    371 268.7 -25.0  34182  289.93 0855.16
2009/04/23 10:50:45.0    -218     14   -165    219    274 273.7 -45.3  34148  289.36 0855.16
2009/04/23 10:50:45.1    -213     13   -124    214    247 273.7 -37.3  34168  289.70 0855.16
2009/04/23 10:50:45.2    -221    -69   -119    232    260 252.5 -33.7  34162  289.59 0855.16
2009/04/23 10:50:45.3    -115   -122    -56    168    177 223.4 -23.6  34184  289.99 0855.16
2009/04/23 10:50:45.4    -178   -167    -73    245    256 226.9 -16.8  34204  290.31 0855.16
2009/04/23 10:50:45.5    -100   -302     78    319    329 198.4  13.8  34208  290.39 0855.16
2009/04/23 10:50:45.6     -22   -290    -53    291    296 184.4 -10.4  34202  290.29 0855.16
2009/04/23 10:50:45.7     130   -350    -56    374    379 159.5  -8.6  34178  289.86 0855.16
2009/04/23 10:50:45.8     138   -399    -99    423    435 160.8 -13.2  34164  289.65 0855.16
2009/04/23 10:50:45.9      71   -351   -108    359    375 168.5 -16.8  34172  289.77 0855.16
2009/04/23 10:50:46.0      41   -398   -118    401    418 174.1 -16.4  34162  289.60 0855.16
2009/04/23 10:50:46.1      11   -301    -84    302    313 177.8 -20.2  34164  289.63 0855.16
2009/04/23 10:50:46.2      14   -363    -43    364    367 177.8  -6.8  34156  289.50 0855.16
2009/04/23 10:50:46.3      82   -333    -31    344    346 166.1  -5.2  34158  289.54 0855.16
2009/04/23 10:50:46.4      87   -278    -21    292    293 162.6  -4.1  34156  289.51 0855.16
2009/04/23 10:50:46.5      50   -168     -3    176    177 163.5  -1.3  34150  289.40 0855.16
2009/04/23 10:50:46.6       7    -94     -6     95     96 175.6  -4.1  34152  289.45 0855.16
2009/04/23 10:50:46.7     -46    -46     -3     66     67 225.1  -3.2  34152  289.45 0855.16
2009/04/23 10:50:46.8    -106    -48    -17    117    119 245.6  -8.2  34164  289.63 0855.16
2009/04/23 10:50:46.9    -103   -150    -52    183    190 214.5 -20.7  34160  289.57 0855.16
2009/04/23 10:50:47.0    -345   -324     24    474    475 226.9   2.9  34138  289.20 0855.16
2009/04/23 10:50:47.1    -368   -397     22    542    543 222.8   2.3  34122  288.92 0855.16
2009/04/23 10:50:47.2    -362   -339     20    496    497 226.9   2.3  34116  288.83 0855.16
2009/04/23 10:50:47.3    -366   -247    -10    442    443 235.9  -1.4  34114  288.80 0855.16
2009/04/23 10:50:47.4    -396   -269    -60    479    483 235.8  -7.2  34122  288.93 0855.16
2009/04/23 10:50:47.5    -364   -400   -149    542    563 222.3 -15.4  34134  289.14 0855.16
2009/04/23 10:50:47.6    -277   -380   -160    471    498 216.1 -18.8  34122  288.93 0855.16
2009/04/23 10:50:47.7    -246   -355   -140    432    454 214.7 -23.2  34122  288.92 0855.16
2009/04/23 10:50:47.8    -355   -386   -123    525    540 222.6 -13.2  34142  289.28 0855.16
2009/04/23 10:50:47.9    -287   -298   -145    415    439 223.9 -24.4  34132  289.09 0855.16
2009/04/23 10:50:48.0    -285   -285   -131    404    424 225.0 -23.0  34136  289.17 0855.16
2009/04/23 10:50:48.1    -267   -159    -72    311    320 239.3 -13.2  34140  289.22 0855.16
2009/04/23 10:50:48.2    -241    -35    -22    244    246 261.6  -5.4  34158  289.53 0855.16
2009/04/23 10:50:48.3    -240   -122    -96    270    287 243.1 -19.6  34146  289.32 0855.16
2009/04/23 10:50:48.4    -190   -104    -27    217    219 241.1  -7.2  34170  289.75 0855.16
2009/04/23 10:50:48.5    -246   -115     28    272    274 244.8   6.1  34156  289.49 0855.16
2009/04/23 10:50:48.6     -34   -271      3    274    275 187.3   0.8  34150  289.39 0855.16
2009/04/23 10:50:48.7      23   -363    -48    364    368 176.3  -7.6  34154  289.47 0855.16
2009/04/23 10:50:48.8     -89   -374    -15    385    386 193.4  -2.3  34152  289.42 0855.16
2009/04/23 10:50:48.9    -157   -286    -98    327    342 208.9 -16.7  34130  289.06 0855.16
2009/04/23 10:50:49.0    -138   -244    -87    281    294 209.4 -22.1  34126  289.00 0855.16
2009/04/23 10:50:49.1     -55   -253   -123    259    286 192.3 -31.6  34138  289.20 0855.19
2009/04/23 10:50:49.2     -46   -244    -88    249    264 190.7 -24.4  34142  289.25 0855.19
2009/04/23 10:50:49.3     -79   -211    -37    226    230 200.7  -9.3  34132  289.11 0855.19
2009/04/23 10:50:49.4    -157   -216    -10    268    269 216.0  -2.2  34130  289.07 0855.19
2009/04/23 10:50:49.5     -42   -248     19    252    253 189.8   4.4  34132  289.09 0855.19
2009/04/23 10:50:49.6     -86   -171     93    192    213 206.7  27.4  34134  289.13 0855.19
2009/04/23 10:50:49.7       5   -123    154    124    197 177.3  57.1  34144  289.30 0855.19
2009/04/23 10:50:49.8      86    -87     23    123    126 135.1  10.6  34138  289.21 0855.19
2009/04/23 10:50:49.9      16   -114    -92    116    148 172.0 -47.1  34138  289.21 0855.19
2009/04/23 10:50:50.0       5   -121    -35    122    127 177.3 -16.0  34138  289.21 0855.19
2009/04/23 10:50:50.1     -10   -205    -62    206    215 182.9 -21.8  34134  289.14 0855.19
2009/04/23 10:50:50.2      43   -195    -73    200    212 167.5 -25.1  34132  289.11 0855.19
2009/04/23 10:50:50.3      71   -198    -64    211    220 160.2 -21.8  34132  289.09 0855.19
2009/04/23 10:50:50.4     118   -249    -76    276    286 154.6 -20.0  34126  288.98 0855.19
2009/04/23 10:50:50.5      58   -157    -57    168    178 159.5 -18.7  34120  288.91 0855.19
2009/04/23 10:50:50.6      42   -172    -20    178    180 166.2  -6.5  34124  288.96 0855.19
2009/04/23 10:50:50.7       0   -156     40    157    163 180.0  14.3  34130  289.08 0855.19
2009/04/23 10:50:50.8     -14   -185     -3    186    187 184.5  -1.2  34130  289.06 0855.19
2009/04/23 10:50:50.9     -17   -177     16    178    179 185.8   5.4  34134  289.13 0855.19
2009/04/23 10:50:51.0     -39   -115    -32    122    127 198.7 -15.0  34132  289.09 0855.19
2009/04/23 10:50:51.1      -5    -82    -40     83     92 184.0 -31.6  34134  289.13 0855.19
2009/04/23 10:50:51.2      -4    -54    -17     55     57 184.5 -23.8  34134  289.13 0855.19
2009/04/23 10:50:51.4     -10    -74    -24     75     78 188.0 -23.8  34136  289.16 0855.19
2009/04/23 10:50:51.4     -52   -109    -24    121    124 205.5 -11.3  34130  289.06 0855.19
2009/04/23 10:50:51.5     -42   -185    -47    190    196 192.9 -13.9  34130  289.06 0855.19
2009/04/23 10:50:51.6     -84   -234    -65    249    258 200.0 -14.7  34134  289.14 0855.19
2009/04/23 10:50:51.7     -83   -307    -41    319    322 195.2  -7.4  34136  289.15 0855.19
2009/04/23 10:50:51.8     -82   -241    -77    255    266 198.9 -21.7  34140  289.22 0855.19
2009/04/23 10:50:51.9    -130   -230     -5    265    266 209.4  -1.2  34136  289.15 0855.19
2009/04/23 10:50:52.0    -105   -327     -7    344    345 197.8  -1.3  34138  289.20 0855.19
2009/04/23 10:50:52.1    -309   -222    -77    381    389 234.3 -11.5  34140  289.23 0855.19
2009/04/23 10:50:52.2    -317   -190    -63    370    376 239.0  -9.8  34142  289.25 0855.19
2009/04/23 10:50:52.3    -287   -202    -19    352    353 234.8  -3.1  34142  289.26 0855.19
2009/04/23 10:50:52.4    -226   -259    -97    345    359 221.1 -15.8  34136  289.15 0855.19
2009/04/23 10:50:52.5    -203   -347    -63    403    408 210.4  -8.9  34138  289.19 0855.19
2009/04/23 10:50:52.7    -235   -370    -52    439    443 212.4  -6.9  34138  289.19 0855.19
2009/04/23 10:50:52.7    -108   -367    -75    383    391 196.5 -11.1  34136  289.18 0855.19
2009/04/23 10:50:52.8     -88   -369   -136    380    404 193.4 -19.7  34138  289.20 0855.19
2009/04/23 10:50:53.0     -77   -351   -140    360    386 192.4 -26.9  34140  289.23 0855.19
2009/04/23 10:50:53.0    -368   -312   -142    483    503 229.7 -21.1  34126  289.00 0855.19
2009/04/23 10:50:53.2    -317   -298    -42    436    439 226.8  -5.6  34122  288.92 0855.20
2009/04/23 10:50:53.3    -299   -258    -97    396    408 229.2 -13.8  34120  288.89 0855.20
2009/04/23 10:50:53.4    -213   -277   -110    350    368 217.6 -17.5  34128  289.04 0855.20
2009/04/23 10:50:53.5    -322   -336   -146    466    488 223.8 -22.5  34078  288.18 0855.20
2009/04/23 10:50:53.6    -315   -333   -126    459    477 223.5 -15.4  34094  288.44 0855.20
2009/04/23 10:50:53.7    -390   -337   -143    516    536 229.2 -15.5  34084  288.28 0855.20
2009/04/23 10:50:53.8    -366   -337   -169    498    527 227.4 -18.8  34088  288.34 0855.20
2009/04/23 10:50:53.9    -402   -448   -190    603    633 221.9 -17.5  34106  288.65 0855.20
2009/04/23 10:50:54.0    -379   -472   -215    606    644 218.7 -19.6  34106  288.67 0855.20
2009/04/23 10:50:54.1    -347   -378   -169    514    541 222.6 -23.3  34082  288.25 0855.20
2009/04/23 10:50:54.2    -297   -386   -159    488    513 217.6 -23.2  34098  288.52 0855.20
2009/04/23 10:50:54.3    -274   -361   -242    454    514 217.2 -34.7  34110  288.73 0855.20
2009/04/23 10:50:54.4    -237   -269   -211    359    416 221.4 -37.5  34102  288.60 0855.20
2009/04/23 10:50:54.5    -126   -344   -218    367    426 200.2 -37.9  34116  288.82 0855.20
2009/04/23 10:50:54.6    -162   -298   -149    340    371 208.5 -29.5  34108  288.69 0855.20
2009/04/23 10:50:54.7    -180   -194   -192    265    327 222.8 -43.9  34108  288.68 0855.20
2009/04/23 10:50:54.8    -263   -300   -273    400    484 221.3 -42.0  34100  288.55 0855.20
2009/04/23 10:50:54.9    -334   -244   -252    414    484 233.9 -38.7  34102  288.60 0855.20
2009/04/23 10:50:55.0    -268   -408   -179    489    520 213.4 -25.4  34104  288.61 0855.20
2009/04/23 10:50:55.1     -57   -445   -157    449    476 187.4 -19.3  34116  288.83 0855.20
2009/04/23 10:50:55.2     -79   -466    -69    473    479 189.7  -8.4  34116  288.83 0855.19
2009/04/23 10:50:55.3     -71   -352     70    360    367 191.4  11.1  34114  288.79 0855.19
2009/04/23 10:50:55.4     -23   -367    126    368    390 183.6  18.9  34120  288.89 0855.19
2009/04/23 10:50:55.5      55   -396     30    400    402 172.0   4.4  34126  288.99 0855.19
2009/04/23 10:50:55.6     139   -358    -14    385    386 158.7  -2.1  34132  289.10 0855.19
2009/04/23 10:50:55.7     153   -274     96    315    330 150.8  17.1  34124  288.95 0855.19
2009/04/23 10:50:55.8      27   -389    162    390    422 176.0  23.9  34120  288.89 0855.19
2009/04/23 10:50:55.9     -53   -417    -44    421    424 187.4  -6.1  34112  288.75 0855.19
2009/04/23 10:50:56.0    -105   -546      1    557    558 190.9   0.1  34122  288.94 0855.19
2009/04/23 10:50:56.1    -100   -558   -163    568    591 190.2 -16.0  34112  288.75 0855.19
2009/04/23 10:50:56.2    -258   -548    -87    606    613 205.2  -8.2  34112  288.75 0855.19
2009/04/23 10:50:56.3    -252   -466    -29    530    531 208.4  -3.2  34112  288.75 0855.19
2009/04/23 10:50:56.4    -152   -407     44    435    438 200.6   5.8  34134  289.12 0855.19
2009/04/23 10:50:56.5      61   -357     -8    363    364 170.3  -1.4  34124  288.96 0855.19
2009/04/23 10:50:56.6    -117   -329     81    350    360 199.7  13.1  34132  289.11 0855.19
2009/04/23 10:50:56.7    -143   -377    124    404    423 200.8  17.2  34158  289.53 0855.19
2009/04/23 10:50:56.8    -130   -384    118    406    423 198.7  16.3  34150  289.39 0855.19
2009/04/23 10:50:56.9    -100   -401     97    414    426 194.0  13.2  34150  289.41 0855.19
2009/04/23 10:50:57.0    -105   -371    105    386    401 195.9  15.2  34156  289.50 0855.19
2009/04/23 10:50:57.1     -77   -305    244    315    398 194.3  41.7  34172  289.76 0855.19
2009/04/23 10:50:57.2     -71   -320    167    328    368 192.6  29.2  34172  289.76 0855.19
2009/04/23 10:50:57.3     -37   -307    178    310    357 186.9  32.6  34158  289.54 0855.19
2009/04/23 10:50:57.4      37   -384     60    386    391 174.4   8.9  34186  290.01 0855.19
2009/04/23 10:50:57.5      71   -436    160    442    470 170.7  20.8  34150  289.39 0855.19
2009/04/23 10:50:57.6      84   -491    101    499    510 170.3  11.5  34108  288.68 0855.19
2009/04/23 10:50:57.7      83   -483    112    491    504 170.2  12.9  34110  288.71 0855.19
2009/04/23 10:50:57.8      62   -521     63    525    529 173.1   6.9  34106  288.67 0855.19
2009/04/23 10:50:57.9      93   -511    161    520    545 169.7  17.2  34112  288.77 0855.19
2009/04/23 10:50:58.0      62   -614    144    618    635 174.2  13.1  34110  288.71 0855.19
2009/04/23 10:50:58.1       4   -526     26    527    528 179.5   2.9  34112  288.75 0855.19
2009/04/23 10:50:58.2      37   -492    -46    494    497 175.7  -5.3  34108  288.68 0855.19
2009/04/23 10:50:58.3       1   -446      0    447    448 179.8   0.1  34110  288.72 0855.19
2009/04/23 10:50:58.4      35   -449      0    451    452 175.4   0.1  34108  288.68 0855.19
2009/04/23 10:50:58.5       3   -463    -50    464    467 179.5  -6.2  34110  288.71 0855.19
2009/04/23 10:50:58.6      30   -436    -48    438    441 176.0  -6.3  34104  288.63 0855.19
2009/04/23 10:50:58.7      72   -377   -136    384    408 169.2 -19.5  34112  288.76 0855.19
2009/04/23 10:50:58.8     -76   -360   -137    369    393 192.0 -25.8  34106  288.66 0855.19
2009/04/23 10:50:58.9    -120   -354   -134    375    399 198.8 -19.7  34124  288.96 0855.19
2009/04/23 10:50:59.0     -75   -356   -131    365    388 192.0 -19.8  34126  288.98 0855.19
2009/04/23 10:50:59.1     -83   -401    -52    410    414 191.8  -7.3  34120  288.90 0855.19
2009/04/23 10:50:59.2    -159   -382    -23    414    415 202.6  -3.2  34120  288.89 0855.18
2009/04/23 10:50:59.3    -129   -267    -37    297    300 205.9  -7.2  34124  288.97 0855.18
2009/04/23 10:50:59.4    -165   -219    -67    275    284 217.0 -13.7  34128  289.03 0855.18
2009/04/23 10:50:59.5    -196   -167    -95    258    274 229.6 -25.4  34136  289.15 0855.18
2009/04/23 10:50:59.6     -72   -218   -119    230    258 198.3 -33.7  34132  289.10 0855.18
2009/04/23 10:50:59.7    -133   -248   -119    282    306 208.3 -28.6  34136  289.17 0855.18
2009/04/23 10:50:59.8    -204   -168   -145    265    302 230.5 -35.7  34136  289.15 0855.18
2009/04/23 10:50:59.9    -189   -167   -160    253    299 228.4 -39.9  34114  288.78 0855.18
2009/04/23 10:51:00.0    -145   -128   -102    194    219 228.4 -34.5  34110  288.72 0855.18
2009/04/23 10:51:00.1    -114    -94    -75    149    166 230.5 -32.9  34114  288.80 0855.18
2009/04/23 10:51:00.2    -134    -79    -77    156    173 239.3 -32.4  34118  288.86 0855.18
2009/04/23 10:51:00.3    -122    -23      6    125    126 259.0   2.8  34114  288.80 0855.18
2009/04/23 10:51:00.4    -109     36     14    116    117 288.6   7.1  34124  288.96 0855.18
2009/04/23 10:51:00.5     -63      2     33     64     72 272.6  28.2  34124  288.96 0855.18
2009/04/23 10:51:00.6     -23     19     78     30     83 309.5  78.6  34128  289.02 0855.18
2009/04/23 10:51:00.7     -15     35    106     39    112 336.4  79.7  34142  289.26 0855.18
2009/04/23 10:51:00.8      33    -42     47     54     71 141.3  44.8  34148  289.36 0855.18
2009/04/23 10:51:00.9      16    -60     62     63     88 164.9  50.5  34156  289.50 0855.18
2009/04/23 10:51:01.0      12    -12     69     18     71 135.0  84.9  34160  289.57 0855.18
2009/04/23 10:51:01.1      71      0     76     72    104  90.0  51.2  34148  289.38 0855.18
2009/04/23 10:51:01.2      71    -45     72     85    111 122.5  44.3  34146  289.35 0855.17
2009/04/23 10:51:01.3      70    -77     62    105    121 137.7  33.4  34134  289.13 0855.17
2009/04/23 10:51:01.4      73   -140     67    158    171 152.4  24.3  34124  288.96 0855.17
2009/04/23 10:51:01.5      33   -168     64    172    183 168.7  21.3  34126  288.99 0855.17
2009/04/23 10:51:01.6      82   -189     86    207    224 156.4  23.4  34130  289.08 0855.17
2009/04/23 10:51:01.7     100   -201     77    225    238 153.5  18.9  34130  289.07 0855.17
2009/04/23 10:51:01.8      86   -215     54    232    239 158.2  13.1  34132  289.09 0855.17
2009/04/23 10:51:01.9      85   -225     25    241    243 159.3   6.1  34132  289.09 0855.17
2009/04/23 10:51:02.0      48   -233     22    239    241 168.2   5.4  34132  289.10 0855.17
2009/04/23 10:51:02.1      -3   -227     44    228    233 181.0  11.1  34134  289.13 0855.17
2009/04/23 10:51:02.2     -16   -226     58    227    235 184.2  14.5  34136  289.16 0855.17
2009/04/23 10:51:02.3     -17   -231     30    232    234 184.4   7.5  34138  289.19 0855.17
2009/04/23 10:51:02.4     -34   -247     28    250    252 188.0   6.5  34138  289.19 0855.17
2009/04/23 10:51:02.5     -85   -271     -8    285    286 197.4  -1.8  34136  289.15 0855.17
2009/04/23 10:51:02.6     -73   -289     19    299    300 194.2   3.8  34136  289.15 0855.17
2009/04/23 10:51:02.7     -99   -259     17    278    279 201.0   3.6  34136  289.15 0855.17
2009/04/23 10:51:02.8    -102   -249     -8    270    271 202.3  -1.8  34136  289.17 0855.17
2009/04/23 10:51:02.9    -137   -275    -20    308    309 206.5  -3.7  34130  289.07 0855.17
2009/04/23 10:51:03.0    -139   -283    -12    316    317 206.3  -2.2  34132  289.09 0855.17
2009/04/23 10:51:03.1    -138   -253    -85    289    302 208.7 -16.4  34134  289.14 0855.17
2009/04/23 10:51:03.2     -64   -242    -65    251    260 194.9 -14.7  34128  289.03 0855.17
2009/04/23 10:51:03.3       2   -191    -34    192    196 179.3 -10.3  34136  289.16 0855.17
2009/04/23 10:51:03.4    -127   -151   -118    198    230 219.9 -37.9  34142  289.28 0855.17
2009/04/23 10:51:03.5    -209    -11   -180    210    276 267.0 -49.5  34154  289.46 0855.17
2009/04/23 10:51:03.6    -175     -3   -154    176    233 268.7 -50.2  34152  289.45 0855.17
2009/04/23 10:51:03.7    -419      1   -284    420    507 270.3 -41.8  34148  289.37 0855.17
2009/04/23 10:51:03.8    -391    -17   -254    392    467 267.5 -40.1  34152  289.44 0855.17
2009/04/23 10:51:03.9    -482     -7   -181    483    515 269.1 -25.9  34150  289.40 0855.17
2009/04/23 10:51:04.0    -205     49   -292    211    360 283.5 -65.1  34140  289.24 0855.17
2009/04/23 10:51:04.1     -73     37   -242     82    255 297.1 -85.4  34152  289.43 0855.17
2009/04/23 10:51:04.2     -41      9   -166     43    171 282.4 -90.0  34148  289.36 0855.17
2009/04/23 10:51:04.3    -148    -36   -207    153    257 256.3 -64.4  34156  289.52 0855.17
2009/04/23 10:51:04.4      10     30   -187     32    189  18.5 -90.0  34162  289.60 0855.17
2009/04/23 10:51:04.5     -49    -15   -194     52    200 252.3 -89.3  34160  289.58 0855.17
2009/04/23 10:51:04.6     -79     53    -95     96    135 303.7 -54.9  34158  289.55 0855.17
2009/04/23 10:51:04.7      56     37    -22     68     71  56.7 -23.8  34158  289.53 0855.17
2009/04/23 10:51:04.8     116     50   -137    127    186  66.5 -56.6  34164  289.63 0855.17
2009/04/23 10:51:04.9      98     15   -102    100    142  81.2 -54.5  34162  289.60 0855.17
2009/04/23 10:51:05.0     104    -14    -96    106    143  98.0 -52.3  34160  289.57 0855.17
2009/04/23 10:51:05.1     160    -35   -113    164    199 102.6 -42.2  34158  289.55 0855.17
2009/04/23 10:51:05.2     209   -132   -119    248    275 122.4 -31.7  34154  289.47 0855.19
2009/04/23 10:51:05.3     200   -176   -143    267    302 131.3 -34.7  34156  289.49 0855.19
2009/04/23 10:51:05.4     209   -205   -119    293    316 134.4 -27.9  34156  289.51 0855.19
2009/04/23 10:51:05.5     228   -201   -117    305    326 131.4 -26.4  34152  289.44 0855.19
2009/04/23 10:51:05.6     227   -181     15    291    292 128.6   3.1  34152  289.44 0855.19
2009/04/23 10:51:05.7     228   -145    -21    271    272 122.6  -4.6  34156  289.49 0855.19
2009/04/23 10:51:05.8     224   -148    -83    269    282 123.5 -17.3  34152  289.42 0855.19
2009/04/23 10:51:05.9     255   -226   -112    341    358 131.6 -23.5  34142  289.28 0855.19
2009/04/23 10:51:06.0     272   -164    -76    318    328 121.1 -13.6  34148  289.36 0855.19
2009/04/23 10:51:06.1     282   -215    -65    355    361 127.3 -10.4  34146  289.33 0855.19
2009/04/23 10:51:06.2     253   -129      1    285    286 117.1   0.2  34150  289.39 0855.19
2009/04/23 10:51:06.3     273    -85     24    286    288 107.3   4.9  34180  289.92 0855.19
2009/04/23 10:51:06.4     224    -62      4    233    234 105.5   1.0  34186  290.00 0855.19
2009/04/23 10:51:06.5     236    -99    -33    257    260 112.8  -7.3  34166  289.68 0855.19
2009/04/23 10:51:06.6     195   -117     56    228    235 121.1  13.9  34178  289.86 0855.19
2009/04/23 10:51:06.7     182    -71    114    196    226 111.5  33.1  34208  290.38 0855.19
2009/04/23 10:51:06.8     163   -143     32    218    221 131.3   8.5  34188  290.04 0855.19
2009/04/23 10:51:06.9     202   -187     13    276    277 132.9   2.8  34150  289.39 0855.19
2009/04/23 10:51:07.0     171   -199     72    263    273 139.2  15.3  34148  289.36 0855.19
2009/04/23 10:51:07.1      60   -239     18    247    248 165.7   4.2  34148  289.37 0855.19
2009/04/23 10:51:07.2     -25   -385     -7    386    387 183.8  -1.2  34158  289.55 0855.19
2009/04/23 10:51:07.3     -33   -461      3    463    464 184.1   0.5  34162  289.61 0855.19
2009/04/23 10:51:07.4     -94   -379     37    391    393 194.0   5.4  34156  289.52 0855.19
2009/04/23 10:51:07.5      25   -468    -14    469    470 176.9  -1.8  34150  289.39 0855.19
2009/04/23 10:51:07.6      24   -455     65    456    461 176.9   8.2  34150  289.39 0855.19
2009/04/23 10:51:07.7     111   -524     15    536    537 168.0   1.6  34150  289.41 0855.19
2009/04/23 10:51:07.8      98   -526     13    536    537 169.4   1.5  34148  289.38 0855.19
2009/04/23 10:51:07.9      68   -465     49    470    473 171.7   6.0  34150  289.39 0855.19
2009/04/23 10:51:08.0     123   -453     26    470    471 164.7   3.3  34146  289.35 0855.19
2009/04/23 10:51:08.1      83   -529     47    536    539 171.0   5.1  34152  289.43 0855.19
2009/04/23 10:51:08.2     102   -522     43    533    535 168.9   4.7  34146  289.35 0855.19
2009/04/23 10:51:08.3      87   -565     32    572    573 171.2   3.3  34124  288.97 0855.19
2009/04/23 10:51:08.4      85   -593     17    600    601 171.8   1.7  34108  288.70 0855.19
2009/04/23 10:51:08.5      91   -541     62    549    553 170.4   6.5  34100  288.55 0855.19
2009/04/23 10:51:08.6      32   -602     31    603    604 176.9   3.0  34104  288.64 0855.19
2009/04/23 10:51:08.7      90   -575     29    583    584 171.1   2.9  34112  288.75 0855.19
2009/04/23 10:51:08.8      77   -450   -154    457    483 170.3 -18.7  34116  288.81 0855.19
2009/04/23 10:51:08.9      69   -488   -103    494    505 171.9 -11.8  34124  288.96 0855.19
2009/04/23 10:51:09.0      28   -601   -149    602    621 177.3 -13.9  34116  288.84 0855.19
2009/04/23 10:51:09.1     -16   -650    -94    651    658 181.5  -8.2  34110  288.72 0855.19
2009/04/23 10:51:09.2     -45   -582   -177    584    611 184.5 -16.9  34120  288.88 0855.19
2009/04/23 10:51:09.3     -29   -538    -32    539    540 183.1  -3.5  34108  288.69 0855.19
2009/04/23 10:51:09.4      -2   -555    -10    556    557 180.3  -1.1  34110  288.72 0855.19
2009/04/23 10:51:09.5     -40   -527     66    529    534 184.4   7.1  34112  288.75 0855.19
2009/04/23 10:51:09.6    -120   -442     64    459    464 195.2   8.0  34130  289.05 0855.19
2009/04/23 10:51:09.7     -60   -497    -51    501    504 187.0  -5.9  34116  288.84 0855.19
2009/04/23 10:51:09.8     -36   -501    -41    503    505 184.1  -4.7  34116  288.81 0855.19
2009/04/23 10:51:09.9     -76   -466    -67    473    478 189.3  -8.1  34120  288.91 0855.19
2009/04/23 10:51:10.0    -105   -472      1    484    485 192.6   0.2  34128  289.03 0855.19
2009/04/23 10:51:10.1     -54   -432     21    436    437 187.2   2.8  34126  288.99 0855.19
2009/04/23 10:51:10.2      96   -408     50    420    424 166.8   6.9  34112  288.77 0855.18
2009/04/23 10:51:10.3      78   -492      6    499    500 171.0   0.7  34108  288.69 0855.18
2009/04/23 10:51:10.4    -100   -344      0    359    360 196.3   0.0  34112  288.77 0855.18
2009/04/23 10:51:10.5    -103   -397     88    411    421 194.6  12.1  34136  289.16 0855.18
2009/04/23 10:51:10.6      18   -387     30    388    390 177.2   4.5  34120  288.88 0855.18
2009/04/23 10:51:10.7     -26   -324     71    326    334 184.7  12.3  34116  288.82 0855.18
2009/04/23 10:51:10.8     -89   -341    108    353    370 194.7  17.1  34120  288.89 0855.18
2009/04/23 10:51:10.9      -6   -521    136    522    540 180.7  14.7  34118  288.87 0855.18
2009/04/23 10:51:11.0     -16   -529     83    530    537 181.8   8.9  34126  288.99 0855.18
2009/04/23 10:51:11.1       8   -515     46    516    519 179.0   5.2  34120  288.91 0855.18
2009/04/23 10:51:11.2     -14   -362     89    363    374 182.3  13.9  34120  288.91 0855.18
2009/04/23 10:51:11.3       9   -379    133    380    402 178.5  20.0  34124  288.96 0855.18
2009/04/23 10:51:11.4      49   -378     77    382    390 172.6  11.5  34120  288.88 0855.18
2009/04/23 10:51:11.5      67   -376     83    383    393 169.8  12.3  34122  288.93 0855.18
2009/04/23 10:51:11.6      88   -331    140    343    370 165.1  23.2  34120  288.91 0855.18
2009/04/23 10:51:11.7      -9   -267     90    268    283 182.0  18.6  34126  289.00 0855.18
2009/04/23 10:51:11.8      -4   -251    158    252    297 181.0  35.5  34136  289.17 0855.18
2009/04/23 10:51:11.9      91   -249    234    266    354 159.9  45.8  34138  289.19 0855.18
2009/04/23 10:51:12.0     185   -189    118    265    290 135.7  25.3  34134  289.12 0855.18
2009/04/23 10:51:12.1     255   -306      4    399    400 140.1   0.7  34126  289.01 0855.18
2009/04/23 10:51:12.2     252   -395     74    469    475 147.4   9.0  34130  289.06 0855.19
2009/04/23 10:51:12.3     191   -397    121    441    458 154.3  15.4  34132  289.11 0855.19
2009/04/23 10:51:12.4     202   -396     47    445    448 152.9   6.1  34126  289.00 0855.19
2009/04/23 10:51:12.5     114   -374     83    392    401 163.0  12.0  34130  289.08 0855.19
2009/04/23 10:51:12.6     140   -322    -36    352    354 156.5  -5.9  34140  289.23 0855.19
2009/04/23 10:51:12.7     174   -331    -38    375    377 152.3  -5.9  34138  289.21 0855.19
2009/04/23 10:51:12.8     132   -284    -99    314    330 155.0 -17.6  34134  289.14 0855.19
2009/04/23 10:51:12.9     130   -282   -100    311    326 155.3 -23.0  34138  289.20 0855.19
2009/04/23 10:51:13.0     266   -375   -126    461    477 144.6 -20.0  34116  288.84 0855.19
2009/04/23 10:51:13.1     132   -383    -15    406    407 161.0  -2.2  34116  288.83 0855.19
2009/04/23 10:51:13.2     173   -254    -49    308    313 145.8  -9.1  34118  288.85 0855.19
2009/04/23 10:51:13.3     165   -185    -32    249    252 138.3  -7.3  34118  288.87 0855.19
2009/04/23 10:51:13.4     117   -186     77    220    234 147.7  19.4  34122  288.92 0855.19
2009/04/23 10:51:13.5     113   -143    128    183    223 141.7  38.4  34122  288.94 0855.19
2009/04/23 10:51:13.6     162   -202     -7    260    261 141.3  -1.6  34112  288.75 0855.19
2009/04/23 10:51:13.7      42   -171     68    177    189 166.0  22.0  34106  288.65 0855.19
2009/04/23 10:51:13.8     -25   -197    132    199    238 187.3  36.5  34106  288.65 0855.19
2009/04/23 10:51:13.9     -18     -2    144     19    145 262.1  90.0  34126  289.01 0855.19
2009/04/23 10:51:14.0     -41    -15    114     44    122 250.0  78.2  34132  289.11 0855.19
2009/04/23 10:51:14.1     105    -32    129    110    169 107.3  55.6  34128  289.02 0855.19
2009/04/23 10:51:14.2      23    -68    146     72    162 161.3  71.9  34126  289.01 0855.19
2009/04/23 10:51:14.3      37    -37    148     53    157 135.0  79.7  34136  289.16 0855.19
2009/04/23 10:51:14.4     -42    -80    115     91    146 208.1  56.9  34128  289.04 0855.19
2009/04/23 10:51:14.5     -80   -186     36    203    207 203.4  10.1  34106  288.67 0855.19
2009/04/23 10:51:14.6    -134   -125     29    184    187 226.9   9.0  34108  288.70 0855.19
2009/04/23 10:51:14.7     -78   -100     22    127    130 217.9  10.1  34112  288.77 0855.19
2009/04/23 10:51:14.8      -9   -139     22    140    142 184.0   9.0  34118  288.86 0855.19
2009/04/23 10:51:14.9       9    -98    -12     99    100 174.2  -7.3  34118  288.87 0855.19
2009/04/23 10:51:15.0      26    -43     10     51     52 148.4  11.1  34120  288.89 0855.19
2009/04/23 10:51:15.1      43    -29     -6     52     53 124.2  -7.3  34116  288.82 0855.19
2009/04/23 10:51:15.2      46    -16     -1     49     50 110.0  -2.2  34120  288.91 0855.19
2009/04/23 10:51:15.3      39    -14    -53     42     67 110.8 -61.9  34122  288.94 0855.19
2009/04/23 10:51:15.4      84     -4      9     85     86  93.0   6.5  34116  288.84 0855.19
2009/04/23 10:51:15.5     128    -42     47    135    144 108.2  19.4  34118  288.86 0855.19
2009/04/23 10:51:15.6     189    -58     61    198    208 107.3  17.3  34118  288.86 0855.19
2009/04/23 10:51:15.7     187    -72     69    201    213 111.3  18.9  34118  288.86 0855.19
2009/04/23 10:51:15.8     190    -88     39    210    214 114.8  10.6  34124  288.97 0855.19
2009/04/23 10:51:15.9     108   -102     52    149    159 133.2  19.4  34124  288.97 0855.19
2009/04/23 10:51:16.0      53   -206     33    213    216 165.5   8.9  34124  288.97 0855.19
2009/04/23 10:51:16.1      36   -153     76    158    175 166.6  27.4  34124  288.97 0855.19
2009/04/23 10:51:16.2      82   -209     11    225    226 158.6   2.8  34120  288.91 0855.20
2009/04/23 10:51:16.3     116   -317     42    338    341 159.8   7.2  34122  288.93 0855.20
2009/04/23 10:51:16.4     -14   -385     56    386    391 182.1   8.3  34126  289.01 0855.20
2009/04/23 10:51:16.5      30   -441     53    442    446 176.1   6.9  34128  289.04 0855.20
2009/04/23 10:51:16.6      26   -403     53    404    408 176.2   7.5  34120  288.89 0855.20
2009/04/23 10:51:16.7      39   -487    212    489    532 175.4  25.1  34130  289.06 0855.20
2009/04/23 10:51:16.8      91   -634    108    641    651 171.8   9.6  34120  288.91 0855.20
2009/04/23 10:51:16.9      13   -549     78    550    556 178.6   8.1  34128  289.02 0855.20
2009/04/23 10:51:17.0      14   -582     91    583    591 178.6   8.9  34128  289.02 0855.20
2009/04/23 10:51:17.1      34   -505     48    507    510 176.1   5.4  34130  289.05 0855.20
2009/04/23 10:51:17.2      81   -469     79    477    484 170.1   9.5  34140  289.23 0855.20
2009/04/23 10:51:17.3     -22   -474     27    475    476 182.7   3.3  34130  289.06 0855.20
2009/04/23 10:51:17.4      11   -483     48    484    487 178.6   5.7  34134  289.12 0855.20
2009/04/23 10:51:17.5      -3   -338     23    339    340 180.6   4.0  34136  289.15 0855.20
2009/04/23 10:51:17.6     121   -263     74    290    300 155.3  14.3  34134  289.14 0855.20
2009/04/23 10:51:17.7      66   -246    -32    255    258 164.8  -7.3  34138  289.19 0855.20
2009/04/23 10:51:17.8     -70   -244     -5    254    255 196.1  -1.3  34142  289.27 0855.20
2009/04/23 10:51:17.9    -103   -240      8    262    263 203.2   1.8  34144  289.29 0855.20
2009/04/23 10:51:18.0     -58   -323     56    329    334 190.3   9.7  34142  289.25 0855.20
2009/04/23 10:51:18.1    -108   -401     43    416    419 195.2   6.0  34144  289.29 0855.20
2009/04/23 10:51:18.2     -64   -507     97    512    522 187.2  10.7  34140  289.22 0855.19
2009/04/23 10:51:18.3       0   -464    118    465    480 180.0  14.3  34142  289.28 0855.19
2009/04/23 10:51:18.4     -38   -497    111    499    512 184.5  12.6  34144  289.30 0855.19
2009/04/23 10:51:18.5     -12   -508      0    509    510 181.4   0.0  34158  289.54 0855.19
2009/04/23 10:51:18.6     -66   -386    -72    392    399 189.7 -10.5  34168  289.71 0855.19
2009/04/23 10:51:18.7      85   -319     24    331    332 165.0   4.2  34158  289.54 0855.19
2009/04/23 10:51:18.8     -68   -291    151    299    334 193.3  28.7  34148  289.37 0855.19
2009/04/23 10:51:18.9    -104   -171     39    201    205 211.4  11.1  34148  289.38 0855.19
2009/04/23 10:51:19.1     -76   -110    123    134    181 214.7  47.7  34148  289.36 0855.19
2009/04/23 10:51:19.1     -87   -259    156    274    315 198.7  32.3  34150  289.39 0855.19
2009/04/23 10:51:19.2    -172   -231     -5    289    290 216.7  -1.1  34144  289.31 0855.19
2009/04/23 10:51:19.3    -231   -223   -105    322    339 226.0 -18.1  34146  289.33 0855.19
2009/04/23 10:51:19.5    -191   -163   -138    252    287 229.6 -35.7  34146  289.32 0855.19
2009/04/23 10:51:19.6     -61   -205   -134    215    253 196.7 -39.6  34148  289.36 0855.19
2009/04/23 10:51:19.7     116   -341    -96    361    374 161.2 -15.0  34154  289.47 0855.19
2009/04/23 10:51:19.8      53   -263   -107    269    289 168.4 -27.4  34148  289.36 0855.19
2009/04/23 10:51:19.9     128   -237     48    270    275 151.5  10.1  34148  289.36 0855.19
2009/04/23 10:51:20.0     179   -325    -44    372    375 151.1  -6.9  34138  289.20 0855.19
2009/04/23 10:51:20.1     100   -374     49    388    392 165.0   7.2  34146  289.33 0855.19
2009/04/23 10:51:20.2      64   -553     69    557    562 173.3   7.1  34144  289.31 0855.19
2009/04/23 10:51:20.3     111   -544    157    556    578 168.4  15.8  34132  289.10 0855.21
2009/04/23 10:51:20.4     198   -519    180    556    585 159.1  17.9  34122  288.93 0855.21
2009/04/23 10:51:20.5     233   -493    190    546    579 154.7  19.2  34120  288.89 0855.21
2009/04/23 10:51:20.6     106   -502     80    514    521 168.0   8.9  34132  289.10 0855.21
2009/04/23 10:51:20.7     196   -391     86    438    447 153.4  11.1  34132  289.09 0855.21
2009/04/23 10:51:20.8      97   -316    120    331    352 162.8  20.7  34132  289.11 0855.21
2009/04/23 10:51:20.9      38   -419      0    421    422 174.7   0.1  34130  289.07 0855.21
2009/04/23 10:51:21.0      76   -550    160    556    579 172.1  16.1  34126  289.00 0855.21
2009/04/23 10:51:21.1     243   -484    148    542    562 153.3  15.3  34136  289.18 0855.21
2009/04/23 10:51:21.2     207   -516    231    557    603 158.1  23.9  34128  289.03 0855.21
2009/04/23 10:51:21.3     299   -334    186    449    486 138.2  23.8  34130  289.06 0855.21
2009/04/23 10:51:21.4       0   -340    221    341    406 180.0  36.0  34122  288.94 0855.21
2009/04/23 10:51:21.5      82   -250    189    264    324 161.7  39.2  34136  289.17 0855.21
2009/04/23 10:51:21.6      56   -154    175    164    239 160.0  52.1  34130  289.06 0855.21
2009/04/23 10:51:21.7     104   -164    237    195    306 147.5  56.4  34144  289.31 0855.21
2009/04/23 10:51:21.8      19    -14    145     24    146 126.0  90.0  34136  289.16 0855.21
2009/04/23 10:51:21.9      72     77    222    106    246  43.2  72.8  34136  289.18 0855.21
2009/04/23 10:51:22.0      49    -10    181     51    188 102.4  84.1  34152  289.43 0855.21
2009/04/23 10:51:22.1      27   -266    199    268    333 174.0  40.2  34138  289.19 0855.21
2009/04/23 10:51:22.2      26   -177    200    179    268 171.5  53.5  34144  289.29 0855.21
2009/04/23 10:51:22.3     106   -166    187    198    272 147.4  48.2  34140  289.24 0855.23
2009/04/23 10:51:22.4     143   -268    153    304    340 151.9  28.6  34130  289.06 0855.23
2009/04/23 10:51:22.5      49   -259    168    264    312 169.1  35.5  34132  289.09 0855.23
2009/04/23 10:51:22.6     135   -186    141    231    270 144.0  34.5  34128  289.03 0855.23
2009/04/23 10:51:22.7     109   -299     97    319    334 160.0  17.0  34128  289.03 0855.23
2009/04/23 10:51:22.8     287   -242     26    376    377 130.2   4.0  34132  289.10 0855.23
2009/04/23 10:51:22.9     142   -238     53    278    284 149.3  10.8  34124  288.97 0855.23
2009/04/23 10:51:23.0     144   -185     60    235    243 142.1  14.5  34126  288.98 0855.23
2009/04/23 10:51:23.1     178   -157     73    238    250 131.3  17.1  34132  289.09 0855.23
2009/04/23 10:51:23.2       0   -185     98    186    210 180.2  29.8  34118  288.86 0855.23
2009/04/23 10:51:23.3     -65   -113    108    131    169 209.9  43.7  34126  289.01 0855.23
2009/04/23 10:51:23.4     -63    -85    149    107    183 216.5  60.8  34128  289.02 0855.23
2009/04/23 10:51:23.5     -23    -57    175     62    185 202.7  80.5  34140  289.23 0855.23
2009/04/23 10:51:23.6      -3     22    151     23    152 350.2  90.0  34144  289.31 0855.23
2009/04/23 10:51:23.7       8    -52    107     53    119 171.1  71.4  34144  289.30 0855.23
2009/04/23 10:51:23.8      56      0    127     57    139  90.8  74.0  34140  289.24 0855.23
2009/04/23 10:51:23.9       0    -56    176     57    185 180.0  81.0  34132  289.09 0855.23
2009/04/23 10:51:24.0     -16   -172    232    173    289 185.6  59.6  34136  289.17 0855.23
2009/04/23 10:51:24.1     -11   -169    256    170    307 184.0  63.6  34132  289.10 0855.23
2009/04/23 10:51:24.2     105   -220    245    245    346 154.4  50.1  34136  289.17 0855.23
2009/04/23 10:51:24.3     174   -343    139    385    409 153.0  20.8  34122  288.94 0855.24
2009/04/23 10:51:24.4      33   -329    232    331    404 174.2  38.5  34128  289.03 0855.24
2009/04/23 10:51:24.5     -94   -214    211    234    315 203.8  46.6  34128  289.02 0855.24
2009/04/23 10:51:24.6      -8   -199    188    200    274 182.5  48.0  34130  289.07 0855.24
2009/04/23 10:51:24.7    -141   -200    181    245    304 215.2  40.1  34126  289.00 0855.24
2009/04/23 10:51:24.8     -45    -37    153     59    163 230.5  78.2  34142  289.26 0855.24
2009/04/23 10:51:24.9      63     55    139     84    162  48.7  66.0  34138  289.21 0855.24
2009/04/23 10:51:25.0     146      0     83    147    168  90.0  32.1  34128  289.04 0855.24
2009/04/23 10:51:25.1     180    -26     73    182    196  98.4  23.0  34128  289.02 0855.24
2009/04/23 10:51:25.2     194    -40    129    199    237 101.7  36.3  34128  289.02 0855.24
2009/04/23 10:51:25.3      65     16    138     68    153  75.8  72.4  34144  289.31 0855.24
2009/04/23 10:51:25.4      32     35     68     48     83  42.3  61.1  34142  289.28 0855.24
2009/04/23 10:51:25.5      10     52     58     54     79  11.6  51.6  34144  289.31 0855.24
2009/04/23 10:51:25.6     -40     54     83     68    107 323.9  56.4  34148  289.38 0855.24
2009/04/23 10:51:25.7     -41      9      9     42     43 282.4  12.2  34142  289.28 0855.24
2009/04/23 10:51:25.8     -15    -21     32     26     41 216.1  56.4  34142  289.26 0855.24
2009/04/23 10:51:25.9     -45    -11    -16     47     50 255.8 -18.7  34138  289.21 0855.24
2009/04/23 10:51:26.0     -67    121     16    139    141 331.0   6.9  34138  289.21 0855.24
2009/04/23 10:51:26.1      34    228     59    231    239   8.5  14.3  34144  289.29 0855.24
2009/04/23 10:51:26.2     201    161     40    258    262  51.4   8.8  34166  289.66 0855.24
2009/04/23 10:51:26.3     187    212     13    284    285  41.4   2.8  34192  290.10 0855.23
2009/04/23 10:51:26.4     250    127    122    281    306  63.1  25.1  34196  290.19 0855.23
2009/04/23 10:51:26.5     313    123    104    337    353  68.4  17.3  34192  290.13 0855.23
2009/04/23 10:51:26.6     155    116     -1    194    195  53.1  -0.5  34194  290.14 0855.23
2009/04/23 10:51:26.7     113    105      3    155    156  46.9   1.2  34186  290.01 0855.23
2009/04/23 10:51:26.8      70     44    -73     83    110  57.6 -50.2  34178  289.87 0855.23
2009/04/23 10:51:26.9     126     54    -63    138    151  66.9 -31.0  34168  289.72 0855.23
2009/04/23 10:51:27.0     166     80    -96    185    208  64.2 -33.7  34174  289.82 0855.23
2009/04/23 10:51:27.1     212     16     77    213    226  85.6  20.9  34196  290.19 0855.23
2009/04/23 10:51:27.2     170    -10     88    171    192  93.5  29.1  34194  290.14 0855.23
2009/04/23 10:51:27.3     185     16     93    186    207  85.0  28.5  34208  290.38 0855.20
2009/04/23 10:51:27.4     181      8    153    182    237  87.2  44.5  34218  290.57 0855.20
2009/04/23 10:51:27.5      59     31    131     67    147  62.0  71.0  34224  290.67 0855.20
2009/04/23 10:51:27.6     -13     22     76     26     80 329.3  80.7  34220  290.58 0855.20
2009/04/23 10:51:27.7      26     77     44     82     93  18.7  30.3  34220  290.60 0855.20
2009/04/23 10:51:27.8     -20     65     23     69     73 343.1  18.9  34220  290.58 0855.20
2009/04/23 10:51:27.9      -6    139     95    140    169 357.3  37.3  34206  290.35 0855.20
2009/04/23 10:51:28.0    -168     53     65    177    188 287.7  21.0  34186  290.02 0855.20
2009/04/23 10:51:28.1    -148    -16     95    149    176 263.8  35.6  34158  289.53 0855.20
2009/04/23 10:51:28.2    -143      4     53    144    153 271.7  20.9  34152  289.45 0855.20
2009/04/23 10:51:28.3    -154    -56     47    164    171 250.0  16.3  34158  289.55 0855.20
2009/04/23 10:51:28.4    -196    -47    -13    202    203 256.5  -3.7  34172  289.79 0855.20
2009/04/23 10:51:28.5    -120   -124    104    173    201 224.1  34.0  34146  289.33 0855.20
2009/04/23 10:51:28.6     -99   -107    123    146    190 222.8  44.1  34142  289.28 0855.20
2009/04/23 10:51:28.7    -126   -152    103    198    223 219.6  29.5  34136  289.18 0855.20
2009/04/23 10:51:28.8    -110    -91     64    144    157 230.4  25.3  34134  289.14 0855.20
2009/04/23 10:51:28.9     -89   -107    123    140    186 219.6  45.8  34146  289.35 0855.20
2009/04/23 10:51:29.0     -67   -156    132    170    215 203.4  41.7  34136  289.18 0855.20
2009/04/23 10:51:29.1     -53   -148    117    158    196 200.0  40.4  34138  289.19 0855.20
2009/04/23 10:51:29.2     -85   -115    125    144    190 216.5  45.4  34152  289.45 0855.20
2009/04/23 10:51:29.3     -85   -113    105    142    176 217.0  40.1  34152  289.45 0855.18
2009/04/23 10:51:29.4     -69    -61     82     93    123 228.2  45.9  34156  289.52 0855.18
2009/04/23 10:51:29.5    -100    -59     74    117    138 239.3  35.5  34162  289.60 0855.18
2009/04/23 10:51:29.6    -121     28     46    125    133 283.3  20.9  34158  289.55 0855.18
2009/04/23 10:51:29.7    -124     79     79    148    167 302.5  30.3  34156  289.52 0855.18
2009/04/23 10:51:29.8     -59    128      7    142    143 335.1   2.9  34148  289.38 0855.18
2009/04/23 10:51:29.9     -22    174     86    176    195 352.7  28.0  34178  289.87 0855.18
2009/04/23 10:51:30.0     248     98    102    267    285  68.3  22.0  34226  290.70 0855.18
2009/04/23 10:51:30.1     185    148    125    238    268  51.4  30.1  34220  290.59 0855.18
2009/04/23 10:51:30.2      53    150    230    160    280  19.6  62.1  34220  290.59 0855.18
2009/04/23 10:51:30.3      -6     32    226     33    228 348.5  90.0  34226  290.69 0855.18
2009/04/23 10:51:30.4     267     85    358    281    455  72.3  58.2  34196  290.19 0855.18
2009/04/23 10:51:30.5     175     90    381    198    429  62.7  70.5  34208  290.38 0855.18
2009/04/23 10:51:30.6      89    -82    216    122    248 132.7  68.1  34226  290.70 0855.18
2009/04/23 10:51:30.7    -188   -283    188    340    388 213.6  31.4  34206  290.35 0855.18
2009/04/23 10:51:30.8    -100   -221    253    243    350 204.3  51.3  34214  290.49 0855.18
2009/04/23 10:51:30.9     219   -125    118    253    279 119.8  27.0  34190  290.09 0855.18
2009/04/23 10:51:31.0     197   -145    103    245    265 126.4  24.2  34168  289.71 0855.18
2009/04/23 10:51:31.1     234   -187    137    300    329 128.7  26.3  34172  289.76 0855.18
2009/04/23 10:51:31.2     340   -230    263    411    487 124.1  35.6  34194  290.16 0855.18
2009/04/23 10:51:31.3     164   -332    -48    371    375 153.6  -7.4  34190  290.08 0855.17
2009/04/23 10:51:31.4     240   -222   -133    328    353 132.8 -27.6  34194  290.16 0855.17
2009/04/23 10:51:31.5     189   -292   -136    349    374 147.0 -26.9  34202  290.28 0855.17
2009/04/23 10:51:31.6     246   -250    -63    352    358 135.5 -10.2  34190  290.08 0855.17
2009/04/23 10:51:31.7     246   -298    -51    387    391 140.4  -7.6  34192  290.10 0855.17
2009/04/23 10:51:31.8     255   -309      2    401    402 140.5   0.4  34178  289.86 0855.17
2009/04/23 10:51:31.9     228   -313     -7    388    389 143.9  -1.2  34172  289.76 0855.17
2009/04/23 10:51:32.0     236   -209    -69    316    324 131.6 -12.4  34172  289.76 0855.17
2009/04/23 10:51:32.1     270   -200    -56    337    342 126.6  -9.5  34176  289.84 0855.17
2009/04/23 10:51:32.2     118   -362   -173    381    418 161.9 -30.6  34168  289.70 0855.17
2009/04/23 10:51:32.3     122   -258    -81    286    298 154.6 -15.8  34170  289.75 0855.17
2009/04/23 10:51:32.4     185   -246    -70    309    318 143.0 -12.9  34166  289.68 0855.17
2009/04/23 10:51:32.5     214   -295   -127    365    387 144.0 -19.3  34170  289.74 0855.17
2009/04/23 10:51:32.6     214   -154    -92    264    279 125.7 -24.4  34164  289.63 0855.17
2009/04/23 10:51:32.7     249   -147    -90    290    303 120.7 -22.5  34176  289.85 0855.17
2009/04/23 10:51:32.8     228    -88    -91    245    261 111.1 -25.7  34170  289.75 0855.17
2009/04/23 10:51:32.9     247    -63    -23    256    258 104.4  -5.2  34166  289.68 0855.17
2009/04/23 10:51:33.0     165    -76    -53    182    189 114.8 -21.0  34174  289.80 0855.17
2009/04/23 10:51:33.1     263    -12     13    264    265  92.8   2.9  34162  289.61 0855.17
2009/04/23 10:51:33.2     246     34     58    249    256  82.1  13.2  34170  289.73 0855.17
2009/04/23 10:51:33.3     364     99     88    378    389  74.7  13.1  34148  289.38 0855.16
2009/04/23 10:51:33.4     306    115    123    328    350  69.3  21.4  34154  289.48 0855.16
2009/04/23 10:51:33.5     320    163     73    360    368  62.9  11.6  34146  289.33 0855.16
2009/04/23 10:51:33.6     276    153    178    316    362  60.9  31.9  34138  289.21 0855.16
2009/04/23 10:51:33.7     287    191    176    346    388  56.3  29.2  34142  289.28 0855.16
2009/04/23 10:51:33.8     296    151    231    333    405  63.0  38.3  34146  289.35 0855.16
2009/04/23 10:51:33.9     341    162    211    378    432  64.5  31.4  34146  289.33 0855.16
2009/04/23 10:51:34.0     348    167    205    387    437  64.3  30.2  34138  289.19 0855.16
2009/04/23 10:51:34.1     321    143    124    352    374  65.9  19.4  34148  289.37 0855.16
2009/04/23 10:51:34.2     310    188    127    363    385  58.7  19.4  34146  289.32 0855.16
2009/04/23 10:51:34.3     316    224    168    388    422  54.6  25.1  34164  289.63 0855.16
2009/04/23 10:51:34.4     266    163    151    313    347  58.5  27.4  34146  289.32 0855.16
2009/04/23 10:51:34.5     261    189    128    323    347  54.0  22.8  34146  289.35 0855.16
2009/04/23 10:51:34.6     241    137     34    278    281  60.3   7.1  34158  289.53 0855.16
2009/04/23 10:51:34.7     235    176     93    294    309  53.1  17.7  34152  289.42 0855.16
2009/04/23 10:51:34.8     218     98    115    240    266  65.8  27.3  34152  289.42 0855.16
2009/04/23 10:51:34.9     214    127    158    249    294  59.3  35.5  34156  289.51 0855.16
2009/04/23 10:51:35.0     235    120    139    265    299  62.9  30.1  34170  289.73 0855.16
2009/04/23 10:51:35.1     201     80    102    217    239  68.2  27.0  34162  289.61 0855.16
2009/04/23 10:51:35.2     159    110     52    194    201  55.4  15.0  34160  289.57 0855.16
2009/04/23 10:51:35.3     197     98    119    221    251  63.4  30.8  34196  290.19 0855.11
2009/04/23 10:51:35.4     219     25     73    221    233  83.4  18.4  34176  289.84 0855.11
2009/04/23 10:51:35.5     141      0    115    142    182  90.0  43.5  34168  289.72 0855.11
2009/04/23 10:51:35.6      80     35    139     88    164  66.5  64.7  34182  289.94 0855.11
2009/04/23 10:51:35.7     149      2    157    150    217  89.1  51.6  34180  289.91 0855.11
2009/04/23 10:51:35.8      91      0    139     92    166  90.4  63.6  34184  289.97 0855.11
2009/04/23 10:51:35.9     112    -30    102    116    154 105.1  45.8  34170  289.75 0855.11
2009/04/23 10:51:36.0      31    -77    130     84    154 158.2  64.6  34166  289.69 0855.11
2009/04/23 10:51:36.1      39   -116    119    123    171 161.3  49.2  34164  289.65 0855.11
2009/04/23 10:51:36.2     -22   -117    156    120    196 190.7  58.5  34170  289.75 0855.11
2009/04/23 10:51:36.3      68    -72    147    100    177 136.8  62.6  34166  289.69 0855.11
2009/04/23 10:51:36.4     113    -99    129    151    198 131.3  45.1  34168  289.70 0855.11
2009/04/23 10:51:36.5     -54   -135    173    146    226 201.8  56.1  34178  289.89 0855.11
2009/04/23 10:51:36.6     -42    -99    149    108    184 203.2  60.6  34170  289.75 0855.11
2009/04/23 10:51:36.7       2   -130    109    131    170 179.1  44.1  34172  289.77 0855.11
2009/04/23 10:51:36.8       0   -102    117    103    155 180.4  54.0  34174  289.80 0855.11
2009/04/23 10:51:36.9     -32    -96    111    102    150 198.7  52.2  34182  289.94 0855.11
2009/04/23 10:51:37.0     -35   -168    135    172    218 192.0  42.0  34178  289.87 0855.11
2009/04/23 10:51:37.1       4   -219    140    220    260 178.9  35.5  34180  289.92 0855.11
2009/04/23 10:51:37.2     -10   -164     50    165    173 183.6  17.1  34180  289.91 0855.11
2009/04/23 10:51:37.3      19   -107     41    109    116 169.8  21.0  34178  289.89 0855.12
2009/04/23 10:51:37.4      16    -65    117     68    135 165.7  66.8  34184  289.99 0855.12
2009/04/23 10:51:37.5     -35   -118     70    124    142 196.5  31.4  34176  289.85 0855.12
2009/04/23 10:51:37.6      61    -63     42     89     98 135.9  27.1  34188  290.06 0855.12
2009/04/23 10:51:37.7     143      4     21    144    146  88.3   8.5  34184  289.99 0855.12
2009/04/23 10:51:37.8     137     52     50    147    156  69.2  18.9  34186  290.01 0855.12
2009/04/23 10:51:37.9     119    -26     38    122    128 102.4  17.3  34190  290.08 0855.12
2009/04/23 10:51:38.0      57    -45     35     73     80 128.6  27.8  34188  290.04 0855.12
2009/04/23 10:51:38.1      52    -33     21     62     66 122.4  18.9  34188  290.04 0855.12
2009/04/23 10:51:38.2      32     15     -4     36     37  64.8  -7.3  34190  290.09 0855.12
2009/04/23 10:51:38.3       0     19     -4     20     21 357.3 -13.4  34198  290.21 0855.12
2009/04/23 10:51:38.4       0     -3    -30      4     30 189.7 -90.0  34192  290.13 0855.12
2009/04/23 10:51:38.5     -33    -12    -39     36     53 250.0 -56.6  34190  290.09 0855.12
2009/04/23 10:51:38.6     -16    -15    -17     22     27 226.9 -46.1  34186  290.01 0855.12
2009/04/23 10:51:38.7     -19      8    -27     21     34 293.5 -60.8  34188  290.04 0855.12
2009/04/23 10:51:38.8     -28      0    -32     29     43 270.0 -56.6  34186  290.01 0855.12
2009/04/23 10:51:38.9       0    -18    -26     19     32 182.7 -64.9  34182  289.94 0855.12
2009/04/23 10:51:39.0      13    -21    -13     26     29 147.5 -31.6  34184  289.99 0855.12
2009/04/23 10:51:39.1       0    -34     12     35     38 180.9  19.4  34186  290.01 0855.12
2009/04/23 10:51:39.2       3    -39     24     40     46 175.5  34.4  34190  290.08 0855.12
2009/04/23 10:51:39.3      -3    -39     29     40     49 184.5  39.7  34182  289.96 0855.11
2009/04/23 10:51:39.4      -3    -38     22     39     44 184.5  32.4  34184  289.99 0855.11
2009/04/23 10:51:39.5     -23    -49     15     55     58 205.5  15.3  34180  289.91 0855.11
2009/04/23 10:51:39.6     -34    -72      6     80     81 205.3   4.9  34174  289.82 0855.11
2009/04/23 10:51:39.7      -1   -106      6    107    108 180.9   3.3  34174  289.80 0855.11
2009/04/23 10:51:39.8      11    -89     25     90     94 172.9  15.8  34182  289.96 0855.11
2009/04/23 10:51:39.9      -5   -125    -11    126    127 182.7  -5.2  34178  289.89 0855.11
2009/04/23 10:51:40.0     -26   -142    -36    145    150 190.7 -13.9  34172  289.77 0855.11
2009/04/23 10:51:40.1     -45    -91      8    102    103 206.7   4.9  34172  289.77 0855.11
2009/04/23 10:51:40.2     -86    -86     76    123    144 225.0  35.5  34178  289.87 0855.11
2009/04/23 10:51:40.3    -100   -142     74    175    190 215.2  24.3  34174  289.80 0855.11
2009/04/23 10:51:40.4     -93   -213    122    233    263 203.6  30.1  34168  289.71 0855.11
2009/04/23 10:51:40.5     -83   -196     58    213    221 202.9  15.3  34164  289.65 0855.11
2009/04/23 10:51:40.6     -70   -208     73    220    232 198.7  18.5  34166  289.69 0855.11
2009/04/23 10:51:40.7    -103   -311     26    328    330 198.5   4.6  34156  289.50 0855.11
2009/04/23 10:51:40.8    -140   -354    -15    381    382 201.6  -2.3  34156  289.52 0855.11
2009/04/23 10:51:40.9      14   -364    -60    365    370 177.7  -9.3  34156  289.50 0855.11
2009/04/23 10:51:41.0     -13   -327    -55    328    333 182.3  -9.6  34158  289.54 0855.11
2009/04/23 10:51:41.1     -28   -304   -101    306    323 185.3 -18.3  34160  289.58 0855.11
2009/04/23 10:51:41.2      25   -350   -131    351    374 175.8 -25.8  34158  289.54 0855.11
2009/04/23 10:51:41.3     172   -307   -108    352    368 150.7 -22.1  34160  289.57 0855.17
2009/04/23 10:51:41.4     180   -225    -44    289    293 141.3  -8.8  34158  289.53 0855.17
2009/04/23 10:51:41.5     122   -205     -6    239    240 149.3  -1.6  34166  289.66 0855.17
2009/04/23 10:51:41.6      59   -230    -66    238    248 165.5 -15.5  34162  289.59 0855.17
2009/04/23 10:51:41.7      88   -275     11    289    290 162.2   2.3  34154  289.47 0855.17
2009/04/23 10:51:41.8      84   -288    145    301    334 163.7  27.4  34160  289.58 0855.17
2009/04/23 10:51:41.9     106   -335     70    352    360 162.3  11.3  34138  289.20 0855.17
2009/04/23 10:51:42.0     142   -299     95    332    346 154.5  16.0  34142  289.26 0855.17
2009/04/23 10:51:42.1     120   -252    107    280    299 154.5  22.0  34140  289.22 0855.17
2009/04/23 10:51:42.2     165   -278     93    324    338 149.2  16.1  34152  289.43 0855.17
2009/04/23 10:51:42.3     187   -187    109    265    286 134.9  23.6  34148  289.37 0855.17
2009/04/23 10:51:42.4     160   -116    148    198    247 125.9  40.7  34158  289.53 0855.17
2009/04/23 10:51:42.5     124   -110    118    166    203 131.6  38.8  34152  289.45 0855.17
2009/04/23 10:51:42.6     111   -141     67    180    192 141.7  21.3  34154  289.48 0855.17
2009/04/23 10:51:42.7     114    -67    -35    133    138 120.7 -15.0  34158  289.55 0855.17
2009/04/23 10:51:42.8     144    -76     52    164    173 118.0  17.7  34156  289.52 0855.17
2009/04/23 10:51:42.9     127   -126     44    179    185 134.8  13.9  34154  289.48 0855.17
2009/04/23 10:51:43.0     154    -98     14    183    184 122.4   4.6  34158  289.53 0855.17
2009/04/23 10:51:43.1     137    -36    -23    142    144 105.0  -9.3  34160  289.58 0855.17
2009/04/23 10:51:43.2     180    -54    -33    188    191 106.8 -10.1  34172  289.77 0855.17
2009/04/23 10:51:43.3     159    -22    -32    161    165  97.9 -11.3  34168  289.70 0855.20
2009/04/23 10:51:43.4     163    -35    -53    167    175 102.4 -23.3  34162  289.62 0855.20
2009/04/23 10:51:43.5     236    -44    -71    241    252 100.6 -16.4  34158  289.53 0855.20
2009/04/23 10:51:43.6     238     -7    -72    239    250  91.7 -17.0  34156  289.49 0855.20
2009/04/23 10:51:43.7     223     31   -102    226    247  82.0 -30.6  34158  289.54 0855.20
2009/04/23 10:51:43.8     177     62   -115    188    220  70.5 -38.8  34158  289.55 0855.20
2009/04/23 10:51:43.9     120    108   -128    162    206  47.8 -47.1  34156  289.52 0855.20
2009/04/23 10:51:44.0      95     93   -129    134    186  45.6 -53.4  34158  289.53 0855.20
2009/04/23 10:51:44.1      64     40    -99     76    124  57.6 -62.9  34160  289.57 0855.20
2009/04/23 10:51:44.2      91     29   -106     96    143  72.3 -56.6  34158  289.55 0855.20
2009/04/23 10:51:44.3     128      7    -95    129    160  86.5 -44.5  34150  289.40 0855.20
2009/04/23 10:51:44.4     136    -14    -72    137    154  96.1 -34.2  34150  289.40 0855.20
2009/04/23 10:51:44.5     146      6    -49    147    154  87.4 -23.6  34150  289.40 0855.20
2009/04/23 10:51:44.6     112     22    -33    115    119  78.5 -21.2  34154  289.48 0855.20
2009/04/23 10:51:44.7     104      7     -3    105    106  86.1  -1.8  34160  289.58 0855.20
2009/04/23 10:51:44.8      90    -14     20     92     95  99.2  12.6  34156  289.50 0855.20
2009/04/23 10:51:44.9      92    -13     48     93    104  98.4  29.8  34152  289.45 0855.20
2009/04/23 10:51:45.0      98     25     38    102    108  75.4  21.0  34154  289.46 0855.20
2009/04/23 10:51:45.1     115      8     29    116    120  85.7  14.3  34156  289.50 0855.20
2009/04/23 10:51:45.2      98      6     51     99    111  86.5  29.3  34174  289.80 0855.20
2009/04/23 10:51:45.3      60    -12     72     62     95 101.5  54.8  34182  289.94 0855.19
2009/04/23 10:51:45.4      52    -13     85     54    100 104.2  64.7  34184  289.99 0855.19
2009/04/23 10:51:45.5      19     -4     89     20     91 103.3  88.5  34200  290.26 0855.19
2009/04/23 10:51:45.6      21     21     76     31     82  45.0  77.1  34194  290.14 0855.19
2009/04/23 10:51:45.8      38     46     78     60     98  39.7  57.9  34180  289.91 0855.19
2009/04/23 10:51:45.8      44     60     96     75    121  36.1  58.4  34174  289.80 0855.19
2009/04/23 10:51:46.0      20     24     82     32     88  39.6  78.2  34178  289.89 0855.19
2009/04/23 10:51:46.0      43     54     76     70    103  38.7  52.2  34176  289.85 0855.19
2009/04/23 10:51:46.2      18     69     73     72    102  15.1  50.1  34182  289.96 0855.19
2009/04/23 10:51:46.3      61     21     57     65     86  70.9  46.4  34180  289.92 0855.19
2009/04/23 10:51:46.4     -52     55     41     76     86 316.8  30.8  34184  289.97 0855.19
2009/04/23 10:51:46.5      19    -20     33     28     43 136.6  54.3  34190  290.08 0855.19
2009/04/23 10:51:46.6      36    -55     49     66     82 146.6  40.7  34184  289.97 0855.19
2009/04/23 10:51:46.7      31     -6     58     32     66 101.5  68.8  34176  289.85 0855.19
2009/04/23 10:51:46.8      13      0     48     14     50  89.2  82.8  34172  289.79 0855.19
2009/04/23 10:51:46.9      14      0     66     15     67  90.0  88.0  34172  289.79 0855.19
2009/04/23 10:51:47.0      -7     45     43     46     62 350.2  48.0  34178  289.89 0855.19
2009/04/23 10:51:47.1     -26    -27     51     38     63 223.2  59.4  34172  289.79 0855.19
2009/04/23 10:51:47.2     -13   -105     99    106    145 187.1  48.0  34172  289.79 0855.19
2009/04/23 10:51:47.3      23    -43    132     49    140 151.9  79.2  34172  289.79 0855.19
2009/04/23 10:51:47.4     -26   -130    148    133    198 191.5  53.5  34158  289.55 0855.22
2009/04/23 10:51:47.5       5   -124    155    125    199 177.4  56.9  34158  289.53 0855.22
2009/04/23 10:51:47.6      34   -125    128    130    182 164.4  50.0  34158  289.55 0855.22
2009/04/23 10:51:47.7       9   -156    140    157    210 176.4  46.2  34154  289.48 0855.22
2009/04/23 10:51:47.8      -5   -166    164    167    234 181.8  49.9  34162  289.60 0855.22
2009/04/23 10:51:47.9     -47   -177    144    184    233 195.1  42.0  34172  289.79 0855.22
2009/04/23 10:51:48.0     -77   -160     68    178    190 205.9  22.0  34174  289.80 0855.22
2009/04/23 10:51:48.1     -77   -139     84    159    179 209.0  30.1  34182  289.96 0855.22
2009/04/23 10:51:48.2     -61   -125     97    140    170 205.9  38.0  34178  289.89 0855.22
2009/04/23 10:51:48.3     -29   -123    103    127    163 193.4  43.3  34178  289.87 0855.22
2009/04/23 10:51:48.4     -28   -119     95    123    155 193.4  41.7  34166  289.67 0855.22
2009/04/23 10:51:48.5      -5   -118     62    119    134 182.7  29.3  34162  289.60 0855.22
2009/04/23 10:51:48.6      -5   -117     42    118    125 182.7  20.0  34158  289.53 0855.22
2009/04/23 10:51:48.7     -19    -96     26     99    103 191.6  15.2  34154  289.48 0855.22
2009/04/23 10:51:48.8       0   -102     47    103    113 180.4  26.6  34158  289.53 0855.22
2009/04/23 10:51:48.9      11   -114     87    115    144 174.2  40.7  34160  289.58 0855.22
2009/04/23 10:51:49.0       9   -120    149    121    191 175.6  56.4  34156  289.50 0855.22
2009/04/23 10:51:49.1      51   -110    148    122    191 155.1  56.3  34164  289.65 0855.22
2009/04/23 10:51:49.2      11   -141    183    142    231 175.5  58.4  34160  289.57 0855.22
2009/04/23 10:51:49.3     -95   -138    158    168    230 214.7  48.0  34158  289.53 0855.22
2009/04/23 10:51:49.4     -98   -138    136    170    217 215.6  43.0  34152  289.45 0855.22
2009/04/23 10:51:49.5     -84   -157    225    179    287 208.3  57.5  34156  289.49 0855.22
2009/04/23 10:51:49.6    -219   -181    103    285    303 230.5  20.9  34174  289.81 0855.22
2009/04/23 10:51:49.7    -178   -236    115    296    317 217.0  22.3  34152  289.42 0855.22
2009/04/23 10:51:49.8    -141   -201    115    246    271 215.2  27.1  34150  289.39 0855.22
2009/04/23 10:51:49.9    -180   -271    116    326    346 213.6  20.3  34164  289.64 0855.22
2009/04/23 10:51:50.0    -226   -242     39    332    335 223.1   6.8  34202  290.30 0855.22
2009/04/23 10:51:50.1    -205   -183     80    275    287 228.2  16.3  34206  290.34 0855.22
2009/04/23 10:51:50.2    -113   -153     56    191    200 216.3  16.3  34188  290.06 0855.22
2009/04/23 10:51:50.3     -97   -187    118    211    241 207.4  31.9  34154  289.48 0855.22
2009/04/23 10:51:50.4    -163   -196     64    256    264 219.7  14.2  34156  289.49 0855.22
2009/04/23 10:51:50.5    -195   -189    130    272    301 226.0  27.3  34172  289.76 0855.22
2009/04/23 10:51:50.6    -157   -153     45    220    225 225.6  11.6  34172  289.77 0855.22
2009/04/23 10:51:50.7    -135   -111    102    176    203 230.5  33.1  34160  289.58 0855.22
2009/04/23 10:51:50.8     -86    -84    113    121    165 225.6  48.2  34162  289.62 0855.22
2009/04/23 10:51:50.9    -126   -166     98    209    230 217.2  27.1  34154  289.48 0855.22
2009/04/23 10:51:51.0     -74   -101    104    126    163 216.5  43.7  34158  289.55 0855.22
2009/04/23 10:51:51.1     -53    -63     80     83    115 220.5  49.4  34164  289.65 0855.22
2009/04/23 10:51:51.2     -79    -27     94     84    126 250.9  53.3  34180  289.92 0855.22
2009/04/23 10:51:51.3    -153     16     65    154    167 276.2  24.3  34178  289.87 0855.22
2009/04/23 10:51:51.4    -126     91     41    156    162 306.0  14.7  34168  289.70 0855.22
2009/04/23 10:51:51.5     -63     62     80     89    119 314.9  46.9  34170  289.75 0855.22
2009/04/23 10:51:51.6     -81    -46     34     94     99 240.2  20.4  34176  289.85 0855.22
2009/04/23 10:51:51.7     -11    -49     18     51     55 192.5  19.2  34176  289.84 0855.22
2009/04/23 10:51:51.8    -105    -62    -35    123    127 239.3 -20.7  34172  289.79 0855.22
2009/04/23 10:51:51.9     -63    -19    -34     66     74 253.2 -33.7  34186  290.01 0855.22
2009/04/23 10:51:52.0     -36     36     -5     52     53 314.9  -6.2  34174  289.82 0855.22
2009/04/23 10:51:52.1     -65     41     68     78    103 302.4  46.4  34176  289.84 0855.22
2009/04/23 10:51:52.2     -78     38     38     87     94 296.2  25.1  34180  289.91 0855.22
2009/04/23 10:51:52.3    -174     96    -18    199    200 298.9  -5.4  34182  289.94 0855.22
2009/04/23 10:51:52.4    -129     22      0    131    132 279.7  -0.3  34178  289.87 0855.23
2009/04/23 10:51:52.5     -81    -76     46    112    121 226.9  23.6  34186  290.01 0855.23
2009/04/23 10:51:52.6     -70   -109     71    130    148 212.6  31.3  34198  290.21 0855.23
2009/04/23 10:51:52.7     -62   -102     23    120    123 211.2  11.0  34194  290.14 0855.23
2009/04/23 10:51:52.8     -71    -33     56     79     96 244.8  38.6  34214  290.50 0855.23
2009/04/23 10:51:52.9    -196    -70     22    209    211 250.3   6.1  34190  290.08 0855.23
2009/04/23 10:51:53.0    -230    -32    -33    233    236 262.1  -8.2  34170  289.73 0855.23
2009/04/23 10:51:53.1    -330   -142     18    360    361 246.7   2.9  34200  290.25 0855.23
2009/04/23 10:51:53.2    -316   -141     53    347    352 245.9   8.8  34212  290.47 0855.23
2009/04/23 10:51:53.3    -270   -196     11    334    335 234.0   1.9  34208  290.40 0855.23
2009/04/23 10:51:53.4    -347   -187   -156    395    424 241.6 -27.2  34152  289.44 0855.23
2009/04/23 10:51:53.5    -299   -239   -108    383    397 231.4 -20.5  34154  289.47 0855.23
2009/04/23 10:51:53.6    -385   -202    -95    435    446 242.3 -12.4  34160  289.56 0855.23
2009/04/23 10:51:53.7    -367   -284    -28    465    466 232.3  -3.5  34170  289.73 0855.23
2009/04/23 10:51:53.8    -184   -191     13    266    267 223.9   2.9  34174  289.80 0855.23
2009/04/23 10:51:53.9    -180   -140    -66    229    239 232.2 -16.0  34156  289.51 0855.23
2009/04/23 10:51:54.0    -142   -151    -72    208    220 223.2 -23.8  34166  289.67 0855.23
2009/04/23 10:51:54.1    -269   -147   -100    307    322 241.4 -23.3  34168  289.71 0855.23
2009/04/23 10:51:54.2    -350    -75     72    359    367 257.9  11.4  34186  290.01 0855.23
2009/04/23 10:51:54.3    -211   -143    108    256    277 235.8  24.2  34188  290.03 0855.23
2009/04/23 10:51:54.4    -148   -100     82    179    196 236.0  26.2  34192  290.11 0855.23
2009/04/23 10:51:54.5     -47    -88     42    100    108 208.1  24.1  34192  290.13 0855.23
2009/04/23 10:51:54.6     -65   -113     67    131    147 209.9  29.2  34188  290.06 0855.23
2009/04/23 10:51:54.7     -66    -98    -36    119    125 213.8 -17.0  34184  289.99 0855.23
2009/04/23 10:51:54.8     -44    -22    -48     50     69 243.8 -54.4  34194  290.14 0855.23
2009/04/23 10:51:54.9     -18     49    -46     53     70 340.0 -49.2  34212  290.47 0855.23
2009/04/23 10:51:55.0    -136     23    -76    138    157 279.7 -35.8  34224  290.65 0855.23
2009/04/23 10:51:55.1    -128    -26    -62    131    144 258.5 -31.6  34226  290.70 0855.23
2009/04/23 10:51:55.2     -65      2    -82     66    105 272.6 -61.3  34184  289.97 0855.23
2009/04/23 10:51:55.3    -113    -47    -16    123    125 247.4  -7.7  34188  290.06 0855.23
2009/04/23 10:51:55.4     -99     30     17    104    106 286.8   9.5  34198  290.21 0855.23
2009/04/23 10:51:55.5     -40     16     17     44     47 291.7  21.0  34198  290.23 0855.23
2009/04/23 10:51:55.6     -95     -3     -2     96     97 267.9  -1.3  34208  290.40 0855.23
2009/04/23 10:51:55.7     -80      1    -57     81     99 270.8 -43.5  34206  290.36 0855.23
2009/04/23 10:51:55.8    -188    -38     -5    192    193 258.6  -1.6  34220  290.58 0855.23
2009/04/23 10:51:55.9    -175     14    -50    176    182 274.6 -20.7  34222  290.62 0855.23
2009/04/23 10:51:56.0    -168    -71    -82    183    200 246.9 -30.1  34202  290.30 0855.23
2009/04/23 10:51:56.1    -157   -102    -53    188    195 237.1 -20.7  34218  290.55 0855.23
2009/04/23 10:51:56.2     -47   -143    -37    151    156 198.5 -13.9  34224  290.67 0855.23
2009/04/23 10:51:56.3    -111   -157    -66    193    203 215.4 -23.6  34226  290.70 0855.23
2009/04/23 10:51:56.4      -3   -195     -7    196    197 180.9  -2.2  34198  290.23 0855.22
2009/04/23 10:51:56.5      74   -203    112    217    244 160.0  29.3  34222  290.61 0855.22
2009/04/23 10:51:56.6     104   -149    125    183    221 145.0  37.6  34224  290.67 0855.22
2009/04/23 10:51:56.7      93   -155    116    182    215 149.0  35.6  34214  290.48 0855.22
2009/04/23 10:51:56.8      32   -125    154    130    201 165.3  55.6  34212  290.45 0855.22
2009/04/23 10:51:56.9     -14    -30    142     34    146 205.3  86.9  34206  290.35 0855.22
2009/04/23 10:51:57.0      48   -178    172    185    252 164.9  47.9  34190  290.08 0855.22
2009/04/23 10:51:57.1      29   -262    156    264    306 173.5  33.5  34208  290.39 0855.22
2009/04/23 10:51:57.2      26   -295    155    297    335 174.9  30.0  34180  289.90 0855.22
2009/04/23 10:51:57.3     -26   -263    127    265    293 185.8  27.3  34180  289.92 0855.22
2009/04/23 10:51:57.4     -84   -241    156    256    299 199.2  34.4  34180  289.90 0855.22
2009/04/23 10:51:57.5    -151   -255    159    297    336 210.7  30.6  34176  289.85 0855.22
2009/04/23 10:51:57.6    -180   -233    160    295    335 217.8  30.9  34176  289.83 0855.22
2009/04/23 10:51:57.7    -210   -163    128    267    296 232.2  27.3  34178  289.86 0855.22
2009/04/23 10:51:57.8    -268   -107     55    289    295 248.2  10.8  34172  289.76 0855.22
2009/04/23 10:51:57.9    -463    -86   -206    471    514 259.4 -29.5  34140  289.23 0855.22
2009/04/23 10:51:58.0    -419    139    143    442    465 288.4  18.0  34152  289.43 0855.22
2009/04/23 10:51:58.1    -263   -145    171    301    346 241.2  32.1  34164  289.64 0855.22
2009/04/23 10:51:58.2    -122   -259    238    287    372 205.3  43.8  34172  289.77 0855.22
2009/04/23 10:51:58.3    -220   -284    134    360    384 217.8  21.4  34158  289.54 0855.22
2009/04/23 10:51:58.4    -223   -222     98    315    330 225.1  17.3  34158  289.54 0855.20
2009/04/23 10:51:58.5    -153   -168    104    228    250 222.3  26.2  34162  289.59 0855.20
2009/04/23 10:51:58.6    -207   -169    121    268    294 230.9  26.2  34162  289.61 0855.20
2009/04/23 10:51:58.7    -239   -202    119    314    335 229.8  21.7  34168  289.71 0855.20
2009/04/23 10:51:58.8    -188   -215    124    286    311 221.2  25.1  34182  289.95 0855.20
2009/04/23 10:51:58.9    -209   -249   -174    326    369 220.0 -34.9  34136  289.18 0855.20
2009/04/23 10:51:59.0    -286   -214    -26    358    359 233.1  -4.2  34146  289.33 0855.20
2009/04/23 10:51:59.1    -203   -216     97    297    313 223.2  18.1  34160  289.56 0855.20
2009/04/23 10:51:59.2    -101   -234    185    256    315 203.4  39.3  34166  289.68 0855.20
2009/04/23 10:51:59.3    -101   -352    216    367    425 196.0  33.3  34156  289.51 0855.20
2009/04/23 10:51:59.4    -221   -413     65    469    474 208.1   7.9  34162  289.61 0855.20
2009/04/23 10:51:59.5    -164   -226    -82    280    291 216.0 -21.5  34184  289.97 0855.20
2009/04/23 10:51:59.6    -310   -439   -177    538    566 215.2 -23.3  34130  289.06 0855.20
2009/04/23 10:51:59.7    -313   -397     13    506    507 218.3   1.5  34144  289.30 0855.20
2009/04/23 10:51:59.8    -518   -299   -144    599    617 240.0 -13.6  34150  289.39 0855.20
2009/04/23 10:51:59.9    -239   -456    -43    515    517 207.7  -4.8  34162  289.59 0855.20
2009/04/23 10:52:00.0    -352   -347   -150    495    518 225.4 -16.9  34170  289.73 0855.20
2009/04/23 10:52:00.1    -373   -450   -154    585    605 219.7 -14.8  34164  289.64 0855.20
2009/04/23 10:52:00.2    -300   -362   -178    471    503 219.6 -26.1  34150  289.40 0855.20
2009/04/23 10:52:00.3    -199   -360   -105    412    426 209.0 -14.4  34152  289.43 0855.20
2009/04/23 10:52:00.4    -229   -371     -9    437    438 211.7  -1.3  34150  289.41 0855.20
2009/04/23 10:52:00.5    -243   -408    -26    475    476 210.8  -3.1  34148  289.37 0855.20
2009/04/23 10:52:00.6    -140   -300    -56    332    337 205.0  -9.6  34152  289.45 0855.20
2009/04/23 10:52:00.7    -155   -347    -43    381    384 204.1  -6.5  34154  289.47 0855.20
2009/04/23 10:52:00.8    -137   -415     21    438    439 198.3   2.8  34152  289.43 0855.20
2009/04/23 10:52:00.9    -100   -302    -17    319    320 198.3  -3.2  34152  289.42 0855.20
2009/04/23 10:52:01.0     -35   -439    -90    441    451 184.6 -11.6  34146  289.33 0855.20
2009/04/23 10:52:01.1    -233   -470   -125    525    540 206.4 -13.4  34150  289.41 0855.20
2009/04/23 10:52:01.2    -160   -439   -175    468    499 200.1 -25.9  34166  289.69 0855.20
2009/04/23 10:52:01.3    -132   -491   -164    509    534 195.1 -23.0  34160  289.58 0855.20
2009/04/23 10:52:01.4     -44   -616   -137    618    634 184.1 -12.5  34156  289.52 0855.20
2009/04/23 10:52:01.5     -73   -665   -254    670    716 186.3 -26.2  34146  289.35 0855.20
2009/04/23 10:52:01.6     -76   -486   -165    493    519 188.9 -23.3  34134  289.12 0855.20
2009/04/23 10:52:01.7    -151   -373   -191    403    445 202.1 -31.6  34140  289.24 0855.20
2009/04/23 10:52:01.8    -210   -403   -272    455    530 207.5 -37.9  34142  289.28 0855.20
2009/04/23 10:52:01.9    -161   -370   -188    404    445 203.6 -31.4  34150  289.39 0855.20
2009/04/23 10:52:02.0    -142   -344   -153    373    403 202.4 -28.0  34146  289.35 0855.20
2009/04/23 10:52:02.1    -172   -596   -152    621    640 196.1 -13.8  34146  289.35 0855.20
2009/04/23 10:52:02.2    -223   -534   -179    580    606 202.7 -22.1  34150  289.41 0855.20
2009/04/23 10:52:02.3    -327   -497   -178    596    622 213.4 -21.7  34142  289.27 0855.20
2009/04/23 10:52:02.4    -270   -580   -352    640    730 205.0 -35.7  34142  289.27 0855.21
2009/04/23 10:52:02.5    -150   -477      7    501    502 197.5   0.9  34146  289.34 0855.21
2009/04/23 10:52:02.6    -116   -397    -45    414    417 196.3  -6.2  34156  289.49 0855.21
2009/04/23 10:52:02.7    -340   -580   -219    673    708 210.4 -18.0  34152  289.44 0855.21
2009/04/23 10:52:02.8    -327   -724   -251    795    834 204.3 -17.5  34166  289.69 0855.21
2009/04/23 10:52:02.9    -216   -609   -118    647    658 199.6 -10.4  34158  289.53 0855.21
2009/04/23 10:52:03.0    -157   -587   -234    608    651 195.1 -26.6  34146  289.35 0855.21
2009/04/23 10:52:03.1    -121   -595   -157    608    628 191.6 -14.5  34158  289.55 0855.21
2009/04/23 10:52:03.2    -282   -639   -235    699    738 203.9 -18.6  34156  289.49 0855.21
2009/04/23 10:52:03.3    -262   -620   -201    674    704 202.9 -16.6  34160  289.56 0855.21
2009/04/23 10:52:03.4    -202   -529   -167    567    591 200.9 -21.2  34154  289.47 0855.21
2009/04/23 10:52:03.5    -311   -613   -222    688    723 206.9 -17.9  34160  289.57 0855.21
2009/04/23 10:52:03.6    -242   -626   -212    672    705 201.2 -17.5  34142  289.26 0855.21
2009/04/23 10:52:03.7    -221   -586   -168    627    650 200.7 -15.0  34144  289.30 0855.21
2009/04/23 10:52:03.8    -170   -570   -213    595    633 196.6 -19.7  34142  289.25 0855.21
2009/04/23 10:52:03.9    -240   -609   -241    655    697 201.5 -25.5  34152  289.44 0855.21
2009/04/23 10:52:04.0    -110   -661   -284    671    728 189.5 -28.7  34146  289.35 0855.21
2009/04/23 10:52:04.1     -21   -603   -219    604    642 182.0 -25.2  34138  289.20 0855.21
2009/04/23 10:52:04.2    -107   -468   -202    481    521 192.9 -28.6  34142  289.27 0855.21
2009/04/23 10:52:04.3      60   -512   -230    516    564 173.3 -30.1  34146  289.33 0855.21
2009/04/23 10:52:04.4      15   -468   -184    469    503 178.1 -26.9  34152  289.45 0855.22
2009/04/23 10:52:04.5     167   -478   -213    507    549 160.7 -28.6  34144  289.29 0855.22
2009/04/23 10:52:04.6     197   -582   -169    615    639 161.3 -15.4  34142  289.28 0855.22
2009/04/23 10:52:04.7     146   -507   -129    528    544 163.9 -13.8  34144  289.29 0855.22
2009/04/23 10:52:04.8     128   -562    -76    577    583 167.1  -7.6  34150  289.41 0855.22
2009/04/23 10:52:04.9     124   -614    -21    627    628 168.5  -2.0  34156  289.50 0855.22
2009/04/23 10:52:05.0     180   -634    -21    660    661 164.1  -1.9  34150  289.41 0855.22
2009/04/23 10:52:05.1     137   -630    -90    645    652 167.7  -8.0  34152  289.42 0855.22
2009/04/23 10:52:05.2     192   -634    -81    663    668 163.1  -7.0  34142  289.26 0855.22
2009/04/23 10:52:05.3     136   -592    -23    608    609 167.0  -2.2  34144  289.30 0855.22
2009/04/23 10:52:05.4     154   -484    -33    508    510 162.3  -3.8  34142  289.27 0855.22
2009/04/23 10:52:05.5     124   -507    -55    523    527 166.2  -6.1  34146  289.33 0855.22
2009/04/23 10:52:05.6     171   -454     10    486    487 159.3   1.2  34146  289.32 0855.22
2009/04/23 10:52:05.7     163   -438     22    468    469 159.5   2.8  34152  289.44 0855.22
2009/04/23 10:52:05.8      59   -358    -19    363    364 170.6  -3.1  34152  289.43 0855.22
2009/04/23 10:52:05.9     161   -373    -29    407    408 156.7  -4.1  34154  289.46 0855.22
2009/04/23 10:52:06.0     275   -461    -11    537    538 149.2  -1.3  34148  289.38 0855.22
2009/04/23 10:52:06.1     225   -391     14    452    453 150.1   1.9  34150  289.41 0855.22
2009/04/23 10:52:06.2     202   -394     -8    444    445 152.8  -1.2  34150  289.39 0855.22
2009/04/23 10:52:06.3     252   -439    -58    507    511 150.1  -6.6  34152  289.42 0855.22
2009/04/23 10:52:06.4     145   -434    -81    458    466 161.4 -10.1  34152  289.44 0855.22
2009/04/23 10:52:06.5      89   -435    -17    445    446 168.4  -2.2  34152  289.44 0855.22
2009/04/23 10:52:06.6      92   -432     53    442    446 167.9   6.9  34156  289.49 0855.22
2009/04/23 10:52:06.7     119   -441    125    458    475 164.8  15.3  34152  289.44 0855.22
2009/04/23 10:52:06.8      49   -496    144    499    520 174.3  16.1  34156  289.49 0855.22
2009/04/23 10:52:06.9      74   -450    103    457    469 170.7  12.8  34156  289.50 0855.22
2009/04/23 10:52:07.0      89   -438    155    448    475 168.4  19.1  34156  289.50 0855.22
2009/04/23 10:52:07.1     139   -545    143    563    582 165.7  14.3  34156  289.49 0855.22
2009/04/23 10:52:07.2     178   -512     92    543    551 160.8   9.7  34154  289.48 0855.22
2009/04/23 10:52:07.3     131   -475     92    493    502 164.5  10.6  34158  289.54 0855.22
2009/04/23 10:52:07.4     101   -433     78    445    452 166.9  10.0  34156  289.49 0855.22
2009/04/23 10:52:07.5     -19   -455    182    456    490 182.5  23.0  34154  289.47 0855.22
2009/04/23 10:52:07.6      93   -280    152    296    332 161.5  29.3  34160  289.56 0855.22
2009/04/23 10:52:07.7     -53   -340    121    345    365 188.9  20.1  34162  289.62 0855.22
2009/04/23 10:52:07.8       3   -367     46    368    371 179.5   7.2  34156  289.52 0855.22
2009/04/23 10:52:07.9       6   -387    158    388    418 179.0  23.2  34160  289.56 0855.22
2009/04/23 10:52:08.0     120   -429     53    446    450 164.3   6.9  34154  289.48 0855.22
2009/04/23 10:52:08.1     111   -467    -23    481    482 166.6  -2.8  34160  289.57 0855.22
2009/04/23 10:52:08.2      67   -538    -17    543    544 172.9  -1.9  34154  289.46 0855.22
2009/04/23 10:52:08.3      65   -547   -142    551    570 173.2 -14.5  34152  289.43 0855.22
2009/04/23 10:52:08.4     -33   -559   -194    561    594 183.4 -19.1  34156  289.52 0855.19
2009/04/23 10:52:08.5       0   -634   -206    635    667 180.0 -23.0  34158  289.54 0855.19
2009/04/23 10:52:08.6      46   -550   -233    553    600 175.1 -28.6  34160  289.56 0855.19
2009/04/23 10:52:08.7      98   -580   -175    589    614 170.4 -21.5  34156  289.49 0855.19
2009/04/23 10:52:08.8      77   -542   -222    548    591 171.9 -27.6  34160  289.58 0855.19
2009/04/23 10:52:08.9     104   -438   -198    451    492 166.6 -29.6  34166  289.69 0855.19
2009/04/23 10:52:09.0     221   -480   -158    529    553 155.3 -16.6  34158  289.55 0855.19
2009/04/23 10:52:09.1     159   -476   -207    503    543 161.5 -28.0  34160  289.57 0855.19
2009/04/23 10:52:09.2      74   -595   -264    600    655 172.9 -29.7  34162  289.60 0855.19
2009/04/23 10:52:09.3      23   -592   -175    593    618 177.8 -21.2  34154  289.46 0855.19
2009/04/23 10:52:09.4     147   -584   -238    603    648 165.9 -27.2  34158  289.55 0855.19
2009/04/23 10:52:09.5      43   -496   -307    498    585 175.0 -38.9  34158  289.55 0855.19
2009/04/23 10:52:09.6     -60   -474   -174    478    508 187.3 -25.3  34152  289.42 0855.19
2009/04/23 10:52:09.7     -53   -501   -202    504    542 186.1 -27.4  34162  289.60 0855.19
2009/04/23 10:52:09.8      31   -398   -243    400    468 175.4 -38.5  34172  289.77 0855.19
2009/04/23 10:52:09.9      67   -409   -187    415    455 170.7 -30.3  34174  289.82 0855.19
2009/04/23 10:52:10.0     183   -519   -152    551    571 160.6 -20.0  34168  289.70 0855.19
2009/04/23 10:52:10.1     196   -599   -137    631    646 161.9 -12.3  34162  289.59 0855.19
2009/04/23 10:52:10.2     110   -607   -134    618    633 169.7 -12.3  34166  289.67 0855.19
2009/04/23 10:52:10.3      35   -571   -128    573    588 176.5 -12.6  34172  289.76 0855.19
2009/04/23 10:52:10.4      18   -513   -142    514    534 177.9 -15.5  34170  289.74 0855.16
2009/04/23 10:52:10.5      -4   -571   -172    572    597 180.5 -21.7  34166  289.69 0855.16
2009/04/23 10:52:10.6     105   -533   -150    544    564 168.8 -20.2  34172  289.77 0855.16
2009/04/23 10:52:10.7     159   -429   -177    458    491 159.6 -26.8  34168  289.71 0855.16
2009/04/23 10:52:10.8     256   -542   -197    600    631 154.7 -23.3  34178  289.87 0855.16
2009/04/23 10:52:10.9     144   -431   -118    455    471 161.4 -14.6  34166  289.69 0855.16
2009/04/23 10:52:11.0     148   -451   -121    475    491 161.8 -14.3  34174  289.81 0855.16
2009/04/23 10:52:11.1      71   -389   -149    396    423 169.7 -26.0  34170  289.75 0855.16
2009/04/23 10:52:11.2      81   -405   -133    414    434 168.7 -22.8  34172  289.78 0855.16
2009/04/23 10:52:11.3     -62   -414   -231    419    478 188.6 -35.7  34178  289.87 0855.16
2009/04/23 10:52:11.4      16   -462   -252    463    527 178.0 -35.4  34178  289.86 0855.18
2009/04/23 10:52:11.5     154   -326   -157    361    393 154.7 -29.5  34174  289.81 0855.18
2009/04/23 10:52:11.6      86   -319   -211    331    392 164.9 -40.0  34182  289.96 0855.18
2009/04/23 10:52:11.7     183   -347   -151    393    421 152.1 -26.6  34174  289.80 0855.18
2009/04/23 10:52:11.8      72   -429   -186    436    474 170.4 -29.0  34168  289.72 0855.18
2009/04/23 10:52:12.0     109   -399   -175    414    449 164.7 -28.6  34172  289.78 0855.18
2009/04/23 10:52:12.1      94   -440   -170    451    481 167.9 -26.0  34172  289.76 0855.18
2009/04/23 10:52:12.2      77   -471   -191    478    514 170.7 -27.4  34178  289.89 0855.18
2009/04/23 10:52:12.2      84   -451   -173    459    490 169.4 -26.1  34180  289.91 0855.18
2009/04/23 10:52:12.3     144   -415   -143    440    463 160.8 -18.1  34178  289.88 0855.18
2009/04/23 10:52:12.5     199   -389    -73    437    444 152.9  -9.5  34174  289.82 0855.18
2009/04/23 10:52:12.6     125   -433    -94    451    461 163.9 -11.8  34174  289.82 0855.18
2009/04/23 10:52:12.7     184   -353    -17    399    400 152.5  -2.5  34170  289.74 0855.18
2009/04/23 10:52:12.8     147   -343      6    374    375 156.8   1.0  34166  289.69 0855.18
2009/04/23 10:52:12.9      95   -398    -58    410    415 166.5  -8.1  34180  289.92 0855.18
2009/04/23 10:52:13.0     154   -320     81    356    366 154.3  12.9  34174  289.82 0855.18
2009/04/23 10:52:13.1     189   -260    126    322    345 143.9  22.7  34172  289.77 0855.18
2009/04/23 10:52:13.2     260   -213     50    337    341 129.3   8.5  34172  289.79 0855.18
2009/04/23 10:52:13.3     265   -370    -34    456    458 144.4  -4.4  34168  289.72 0855.18
2009/04/23 10:52:13.4     198   -278     48    342    346 144.6   8.0  34170  289.74 0855.18
2009/04/23 10:52:13.5      94   -281    138    297    327 161.5  26.9  34172  289.76 0855.14
2009/04/23 10:52:13.6      44   -281    178    285    336 171.1  35.0  34170  289.75 0855.14
2009/04/23 10:52:13.7     134   -256    181    289    341 152.4  35.2  34174  289.81 0855.14
2009/04/23 10:52:13.8     149   -218    116    265    289 145.7  25.2  34174  289.80 0855.14
2009/04/23 10:52:13.9     148   -202    154    251    294 143.7  34.4  34172  289.76 0855.14
2009/04/23 10:52:14.0     193   -257    113    322    342 143.1  19.4  34172  289.77 0855.14
2009/04/23 10:52:14.1     282   -207    140    350    376 126.3  23.0  34172  289.76 0855.14
2009/04/23 10:52:14.2     227   -225    178    320    366 134.7  31.5  34170  289.74 0855.14
2009/04/23 10:52:14.3     128   -281    181    309    358 155.5  33.1  34166  289.69 0855.14
2009/04/23 10:52:14.4      58   -266    169    273    321 167.6  34.9  34168  289.70 0855.14
2009/04/23 10:52:14.5      92   -255    174    272    322 160.2  35.6  34170  289.73 0855.14
2009/04/23 10:52:14.6      69   -240    201    250    320 164.0  43.0  34176  289.83 0855.14
2009/04/23 10:52:14.7      51   -190    191    197    274 164.9  49.2  34176  289.83 0855.14
2009/04/23 10:52:14.8      17   -202    196    203    282 175.1  49.0  34178  289.86 0855.14
2009/04/23 10:52:14.9     -20   -236    195    237    306 185.1  43.7  34174  289.81 0855.14
2009/04/23 10:52:15.0      20   -270    203    271    338 175.6  40.6  34172  289.76 0855.14
2009/04/23 10:52:15.1     129   -379    200    401    448 161.2  28.4  34172  289.77 0855.14
2009/04/23 10:52:15.2      10   -421    222    422    476 178.6  30.0  34170  289.75 0855.14
2009/04/23 10:52:15.3      65   -385    207    391    442 170.3  30.2  34168  289.72 0855.14
2009/04/23 10:52:15.4      39   -381    198    383    431 174.1  29.3  34164  289.63 0855.14
2009/04/23 10:52:15.5      73   -329    109    338    356 167.4  17.9  34168  289.71 0855.15
2009/04/23 10:52:15.6      13   -397    123    398    417 178.0  17.3  34166  289.66 0855.15
2009/04/23 10:52:15.7      54   -361    131    366    388 171.4  20.4  34172  289.76 0855.15
2009/04/23 10:52:15.8     111   -404     65    420    425 164.6   8.8  34168  289.72 0855.15
2009/04/23 10:52:15.9     184   -449     55    486    490 157.7   6.5  34160  289.57 0855.15
2009/04/23 10:52:16.0     208   -342    118    401    418 148.7  16.4  34166  289.66 0855.15
2009/04/23 10:52:16.1     179   -348    135    392    415 152.8  19.1  34166  289.66 0855.15
2009/04/23 10:52:16.2     106   -347    103    363    378 163.0  15.9  34168  289.72 0855.15
2009/04/23 10:52:16.3      78   -316    143    326    355 166.0  25.1  34170  289.74 0855.15
2009/04/23 10:52:16.4     147   -314    140    347    374 154.8  23.1  34170  289.74 0855.15
2009/04/23 10:52:16.5      57   -379    148    384    411 171.4  22.3  34170  289.75 0855.15
2009/04/23 10:52:16.6     -26   -449    108    450    463 183.4  13.6  34170  289.73 0855.15
2009/04/23 10:52:16.7    -117   -440    209    456    501 194.9  26.4  34172  289.78 0855.15
2009/04/23 10:52:16.8     -71   -272    146    282    317 194.7  29.5  34168  289.70 0855.15
2009/04/23 10:52:16.9       4   -216    126    217    250 178.9  32.9  34174  289.81 0855.15
2009/04/23 10:52:17.0      33   -203    203    206    289 170.7  49.9  34174  289.81 0855.15
2009/04/23 10:52:17.1      75   -138    187    158    244 151.5  55.6  34182  289.94 0855.15
2009/04/23 10:52:17.2     209   -107    204    235    311 117.1  45.6  34174  289.81 0855.15
2009/04/23 10:52:17.3      40     16    133     44    140  68.3  80.7  34180  289.92 0855.15
2009/04/23 10:52:17.4     181     15     99    182    207  85.0  31.0  34168  289.70 0855.15
2009/04/23 10:52:17.5     301    149    -42    336    339  63.6  -7.2  34168  289.72 0855.15
2009/04/23 10:52:17.6     353    167     79    391    399  64.6  11.4  34180  289.91 0855.15
2009/04/23 10:52:17.7     310    172     76    355    364  60.9  12.1  34174  289.82 0855.15
2009/04/23 10:52:17.8     211    174    -17    274    275  50.4  -3.7  34176  289.83 0855.15
2009/04/23 10:52:17.9     204    133     11    244    245  56.9   2.8  34176  289.85 0855.15
2009/04/23 10:52:18.0     245     82     12    259    260  71.4   2.8  34164  289.64 0855.15
2009/04/23 10:52:18.1      -8      0    170      9    170 270.0  90.0  34192  290.13 0855.15
2009/04/23 10:52:18.2      10    -45     66     47     81 166.6  61.1  34186  290.02 0855.15
2009/04/23 10:52:18.3     -24   -168    180    170    247 188.2  51.6  34172  289.77 0855.15
2009/04/23 10:52:18.4     -49   -150    148    158    216 198.3  48.0  34178  289.87 0855.15
2009/04/23 10:52:18.5     107   -204    156    231    278 152.4  37.4  34170  289.73 0855.15
2009/04/23 10:52:18.6      19   -266    206    267    337 175.8  41.5  34170  289.73 0855.15
2009/04/23 10:52:18.7     112   -140    168    180    246 141.3  47.9  34176  289.84 0855.15
2009/04/23 10:52:18.8     246   -126     68    277    286 117.1  13.9  34172  289.76 0855.15
2009/04/23 10:52:18.9      73   -200     85    213    229 159.9  23.0  34168  289.72 0855.15
2009/04/23 10:52:19.0      73   -122    148    143    205 149.3  51.2  34174  289.80 0855.15
2009/04/23 10:52:19.1      38   -168    156    173    232 167.1  46.9  34172  289.79 0855.15
2009/04/23 10:52:19.2      77   -102    121    128    176 143.0  48.2  34174  289.82 0855.15
2009/04/23 10:52:19.3      15   -183    180    184    257 175.1  49.4  34174  289.80 0855.15
2009/04/23 10:52:19.4      17   -184    167    185    249 174.7  46.9  34174  289.80 0855.15
2009/04/23 10:52:19.5       2   -149    143    150    207 179.0  48.5  34176  289.84 0855.16
2009/04/23 10:52:19.6      28   -149    137    152    204 169.3  46.6  34176  289.84 0855.16
2009/04/23 10:52:19.7       5   -116     63    117    132 177.3  31.3  34176  289.84 0855.16
2009/04/23 10:52:19.8     -13   -133     31    134    138 185.8  13.2  34176  289.85 0855.16
2009/04/23 10:52:19.9     -36   -131    111    137    176 195.6  43.5  34168  289.72 0855.16
2009/04/23 10:52:20.0      49    -90    115    103    154 151.1  53.7  34180  289.91 0855.16
2009/04/23 10:52:20.1      23   -151    107    153    186 171.1  38.6  34170  289.75 0855.16
2009/04/23 10:52:20.2      41   -148    117    154    193 164.4  40.9  34174  289.82 0855.16
2009/04/23 10:52:20.3      88   -172    103    194    219 152.8  30.3  34174  289.82 0855.16
2009/04/23 10:52:20.4     102   -163     97    193    216 147.9  28.7  34168  289.72 0855.16
2009/04/23 10:52:20.5      -8   -216    109    217    242 182.2  28.7  34168  289.70 0855.16
2009/04/23 10:52:20.6     -44   -216     89    221    238 191.6  23.0  34170  289.73 0855.16
2009/04/23 10:52:20.7    -129   -261    102    292    310 206.3  19.3  34172  289.78 0855.16
2009/04/23 10:52:20.8    -155   -243     48    289    293 212.5   9.5  34168  289.71 0855.16
2009/04/23 10:52:20.9     -73   -265     75    275    286 195.4  15.3  34162  289.61 0855.16
2009/04/23 10:52:21.0     -50   -215    106    221    245 193.1  27.3  34164  289.64 0855.16
2009/04/23 10:52:21.1     -35   -193    146    197    245 190.5  40.4  34166  289.69 0855.16
2009/04/23 10:52:21.2     -52   -193    140    201    244 195.2  38.5  34166  289.67 0855.16
2009/04/23 10:52:21.3    -150   -309     68    344    351 206.0  11.3  34164  289.65 0855.16
2009/04/23 10:52:21.4    -122   -252     98    281    298 205.9  19.4  34168  289.70 0855.16
2009/04/23 10:52:21.5    -108   -299    120    319    340 200.0  21.5  34168  289.72 0855.15
2009/04/23 10:52:21.6     -99   -327     54    342    347 196.9   9.0  34168  289.72 0855.15
2009/04/23 10:52:21.7     -39   -119     56    126    137 198.3  25.2  34168  289.72 0855.15
2009/04/23 10:52:21.8     126     16    156    128    201  82.5  56.4  34180  289.91 0855.15
2009/04/23 10:52:21.9      95     60    199    113    228  57.6  68.1  34178  289.89 0855.15
2009/04/23 10:52:22.0       2    172    117    173    208   0.9  37.4  34184  289.97 0855.15
2009/04/23 10:52:22.1     110    171     72    204    217  32.7  19.4  34174  289.80 0855.15
2009/04/23 10:52:22.2     106    163     53    195    203  33.2  15.3  34170  289.74 0855.15
2009/04/23 10:52:22.3     173    187    110    255    277  42.8  24.9  34218  290.54 0855.15
2009/04/23 10:52:22.4     201    228    106    305    324  41.4  19.2  34240  290.93 0855.15
2009/04/23 10:52:22.5     144    161    138    217    257  41.9  35.5  34210  290.42 0855.15
2009/04/23 10:52:22.6      54     75    140     93    168  36.1  63.6  34196  290.18 0855.15
2009/04/23 10:52:22.7      -4    107    114    108    157 357.8  51.6  34186  290.02 0855.15
2009/04/23 10:52:22.8      10     92     85     93    125   6.2  47.9  34186  290.02 0855.15
2009/04/23 10:52:22.9      10     53    105     55    118  11.5  70.4  34196  290.18 0855.15
2009/04/23 10:52:23.0      15      7     76     17     77  64.7  89.0  34196  290.18 0855.15
2009/04/23 10:52:23.1      35      7     62     36     71  78.5  66.8  34200  290.26 0855.15
2009/04/23 10:52:23.2     -57    -15     22     60     63 254.9  20.0  34202  290.28 0855.15
2009/04/23 10:52:23.3     -28    -13     66     32     73 244.8  72.8  34198  290.23 0855.15
2009/04/23 10:52:23.4     -76    -92     74    120    140 219.6  35.0  34186  290.01 0855.15
2009/04/23 10:52:23.5     -95    -84    109    128    168 228.6  44.8  34186  290.01 0855.16
2009/04/23 10:52:23.6    -111    -15     93    113    146 262.0  43.7  34196  290.18 0855.16
2009/04/23 10:52:23.7    -180    104    174    209    271 300.0  43.8  34210  290.42 0855.16
2009/04/23 10:52:23.8    -205    190    130    280    308 312.9  27.1  34242  290.95 0855.16
2009/04/23 10:52:23.9    -159    249    127    296    322 327.4  24.6  34300  291.94 0855.16
2009/04/23 10:52:24.0    -200    213    127    293    319 316.8  25.0  34274  291.50 0855.16
2009/04/23 10:52:24.1     -34    186     69    190    202 349.5  20.9  34230  290.75 0855.16
2009/04/23 10:52:24.2     -66    219     80    230    244 343.1  19.2  34260  291.26 0855.16
2009/04/23 10:52:24.3     -40    256    132    260    291 351.1  29.2  34242  290.95 0855.16
2009/04/23 10:52:24.4     -77    322    137    332    359 346.4  23.6  34238  290.88 0855.16
2009/04/23 10:52:24.5    -142    339     72    368    376 337.3  11.1  34250  291.10 0855.16
2009/04/23 10:52:24.6     -45    413    185    416    455 353.8  25.3  34194  290.16 0855.16
2009/04/23 10:52:24.7      53    417    255    421    492   7.4  34.1  34196  290.18 0855.16
2009/04/23 10:52:24.8     -81    384    233    393    456 348.0  33.5  34218  290.56 0855.16
2009/04/23 10:52:24.9     -34    257    217    260    338 352.4  44.1  34190  290.09 0855.16
2009/04/23 10:52:25.0      46    226    189    231    298  11.6  43.7  34186  290.02 0855.16
2009/04/23 10:52:25.1      21    274    210    275    346   4.5  41.2  34216  290.51 0855.16
2009/04/23 10:52:25.2     -51    194    173    201    265 345.1  44.9  34230  290.75 0855.16
2009/04/23 10:52:25.3    -104    211    145    236    276 333.7  34.4  34264  291.34 0855.16
2009/04/23 10:52:25.4    -227    145    -99    270    287 302.5 -25.4  34264  291.33 0855.16
2009/04/23 10:52:25.5    -257     91   -154    273    313 289.7 -36.3  34182  289.95 0855.14
2009/04/23 10:52:25.6    -376     98   -111    389    404 284.7 -20.7  34176  289.84 0855.14
2009/04/23 10:52:25.7    -357    118    -62    376    382 288.3  -9.4  34180  289.91 0855.14
2009/04/23 10:52:25.8    -291    261   -132    392    413 311.9 -23.6  34188  290.04 0855.14
2009/04/23 10:52:25.9    -236    175    -99    295    312 306.6 -18.7  34196  290.17 0855.14
2009/04/23 10:52:26.0    -189    334   -130    384    406 330.5 -18.7  34202  290.30 0855.14
2009/04/23 10:52:26.1    -164    241    -69    292    301 325.7 -13.4  34200  290.26 0855.14
2009/04/23 10:52:26.2    -231    225    -45    323    327 314.2  -8.0  34214  290.48 0855.14
2009/04/23 10:52:26.3      80     19    -12     83     84  76.7  -8.2  34204  290.31 0855.14
2009/04/23 10:52:26.4     -93    120     59    153    163 322.1  22.0  34234  290.84 0855.14
2009/04/23 10:52:26.5     -84     87     68    122    139 315.9  31.4  34240  290.94 0855.14
2009/04/23 10:52:26.6    -108     -4     74    109    131 267.4  37.4  34234  290.82 0855.14
2009/04/23 10:52:26.7    -141     22    170    143    222 279.2  55.8  34252  291.15 0855.14
2009/04/23 10:52:26.8    -118     91    254    150    294 307.7  66.8  34224  290.65 0855.14
2009/04/23 10:52:26.9    -232     47    197    237    308 281.7  43.8  34266  291.36 0855.14
2009/04/23 10:52:27.0    -201     90    174    221    281 294.2  42.2  34264  291.34 0855.14
2009/04/23 10:52:27.1    -351    231     72    421    428 303.3   9.7  34278  291.57 0855.14
2009/04/23 10:52:27.2    -309    137    213    339    400 294.0  35.3  34238  290.88 0855.14
2009/04/23 10:52:27.3    -314     53     99    319    335 279.7  17.3  34214  290.49 0855.14
2009/04/23 10:52:27.4    -275    171     29    324    326 301.9   5.2  34202  290.27 0855.14
2009/04/23 10:52:27.5    -301    223     41    375    378 306.5   6.4  34202  290.30 0855.12
2009/04/23 10:52:27.6    -352    240     36    427    429 304.3   4.9  34222  290.63 0855.12
2009/04/23 10:52:27.7    -412    151    -41    440    443 290.2  -5.4  34236  290.87 0855.12
2009/04/23 10:52:27.8    -388    242   -146    458    481 302.0 -17.7  34204  290.32 0855.12
2009/04/23 10:52:27.9    -397     47    -58    400    405 276.9  -8.4  34204  290.33 0855.12
2009/04/23 10:52:28.0    -429    141    -88    452    461 288.2 -11.1  34210  290.41 0855.12
2009/04/23 10:52:28.1    -427     82   -139    435    456 281.0 -22.9  34220  290.58 0855.12
2009/04/23 10:52:28.2    -384    120   -194    403    447 287.4 -31.7  34192  290.11 0855.12
2009/04/23 10:52:28.3    -383     -5    -41    384    387 269.2  -6.2  34212  290.45 0855.12
2009/04/23 10:52:28.4    -431    -32   -140    433    456 265.7 -17.9  34224  290.67 0855.12
2009/04/23 10:52:28.5    -587     47   -210    589    625 274.6 -24.8  34182  289.96 0855.12
2009/04/23 10:52:28.6    -506   -268   -176    573    599 242.1 -21.8  34218  290.54 0855.12
2009/04/23 10:52:28.7    -467   -189   -113    505    518 247.9 -12.7  34220  290.59 0855.12
2009/04/23 10:52:28.8    -347   -248    -16    427    428 234.4  -2.2  34182  289.94 0855.12
2009/04/23 10:52:28.9    -356   -299    -66    466    471 230.0  -8.1  34222  290.64 0855.12
2009/04/23 10:52:29.0    -523   -246   -174    578    604 244.8 -16.8  34224  290.66 0855.12
2009/04/23 10:52:29.1    -712   -270   -231    762    796 249.2 -21.7  34190  290.07 0855.12
2009/04/23 10:52:29.2    -505   -325   -214    601    637 237.2 -24.7  34214  290.50 0855.12
2009/04/23 10:52:29.3    -652   -383   -198    757    783 239.6 -14.7  34212  290.47 0855.12
2009/04/23 10:52:29.4    -379   -457    -97    595    604 219.7  -9.3  34208  290.39 0855.12
2009/04/23 10:52:29.5    -400   -452    -93    604    612 221.5  -8.8  34212  290.47 0855.14
2009/04/23 10:52:29.6    -375   -500   -102    625    634 216.9  -9.3  34218  290.55 0855.14
2009/04/23 10:52:29.7    -400   -387    -85    557    564 226.0  -8.7  34208  290.38 0855.14
2009/04/23 10:52:29.8    -415   -265   -147    493    515 237.4 -16.7  34208  290.37 0855.14
2009/04/23 10:52:29.9    -322   -298   -131    439    459 227.2 -16.6  34196  290.17 0855.14
2009/04/23 10:52:30.0    -403   -322   -153    516    539 231.4 -16.5  34182  289.96 0855.14
2009/04/23 10:52:30.1    -459   -340   -175    572    598 233.5 -21.8  34186  290.00 0855.14
2009/04/23 10:52:30.2    -381   -501   -241    630    674 217.2 -26.4  34166  289.66 0855.14
2009/04/23 10:52:30.3    -254   -594   -145    647    664 203.2 -12.7  34174  289.82 0855.14
2009/04/23 10:52:30.4    -218   -515     -2    560    561 202.9  -0.3  34178  289.87 0855.14
2009/04/23 10:52:30.5    -235   -441    111    500    513 208.1  12.6  34186  290.01 0855.14
2009/04/23 10:52:30.6    -199   -436     31    480    482 204.5   3.8  34192  290.13 0855.14
2009/04/23 10:52:30.7    -199   -369     59    420    425 208.3   8.0  34194  290.14 0855.14
2009/04/23 10:52:30.8    -189   -382    116    427    443 206.4  15.2  34184  289.99 0855.14
2009/04/23 10:52:30.9    -191   -381     70    427    433 206.6   9.3  34184  289.97 0855.14
2009/04/23 10:52:31.0    -209   -480     26    524    525 203.6   2.9  34190  290.07 0855.14
2009/04/23 10:52:31.1    -217   -422    -15    475    476 207.2  -1.9  34188  290.05 0855.14
2009/04/23 10:52:31.2    -169   -385    -59    421    426 203.7  -8.0  34186  290.00 0855.14
2009/04/23 10:52:31.3    -188   -355     31    402    404 208.0   4.5  34180  289.92 0855.14
2009/04/23 10:52:31.4    -154   -393     -4    423    424 201.4  -0.6  34182  289.94 0855.14
2009/04/23 10:52:31.5    -169   -365     98    403    415 204.9  13.8  34186  290.02 0855.15
2009/04/23 10:52:31.6    -133   -361     21    385    386 200.3   3.1  34192  290.11 0855.15
2009/04/23 10:52:31.7    -145   -389     32    416    418 200.4   4.5  34188  290.05 0855.15
2009/04/23 10:52:31.8    -132   -435      6    455    456 196.9   0.8  34184  289.99 0855.15
2009/04/23 10:52:31.9     -60   -392     -7    397    398 188.7  -1.1  34184  289.98 0855.15
2009/04/23 10:52:32.0      -8   -320     53    321    326 181.6   9.5  34182  289.93 0855.15
2009/04/23 10:52:32.1     -42   -299    106    303    322 188.0  19.3  34184  289.97 0855.15
2009/04/23 10:52:32.2      15   -252     60    253    261 176.4  13.5  34184  289.98 0855.15
2009/04/23 10:52:32.3     -42   -184    115    189    221 192.9  34.4  34184  289.97 0855.15
2009/04/23 10:52:32.4     -73   -115    209    137    249 212.5  63.6  34192  290.11 0855.15
2009/04/23 10:52:32.5     -93   -279    213    295    363 198.5  39.5  34188  290.03 0855.16
2009/04/23 10:52:32.7    -179   -259    120    316    338 214.7  21.8  34188  290.06 0855.16
2009/04/23 10:52:32.8    -182   -284     78    338    348 212.7  13.1  34182  289.93 0855.16
2009/04/23 10:52:32.8    -177   -328    172    373    410 208.4  26.4  34178  289.86 0855.16
2009/04/23 10:52:32.9    -133   -323    159    350    384 202.4  26.2  34180  289.91 0855.16
2009/04/23 10:52:33.0    -107   -190    190    219    289 209.4  45.6  34184  289.97 0855.16
2009/04/23 10:52:33.1    -174   -290    111    339    357 211.0  18.2  34178  289.89 0855.16
2009/04/23 10:52:33.2     -94   -231    123    250    278 202.3  28.2  34180  289.90 0855.16
2009/04/23 10:52:33.3      15    -98    128    100    162 171.1  57.9  34186  290.01 0855.16
2009/04/23 10:52:33.4      46     29     87     55    102  57.5  64.7  34198  290.21 0855.16
2009/04/23 10:52:33.5     166    -99    116    194    226 120.9  33.7  34184  289.99 0855.16
2009/04/23 10:52:33.6     177   -229    127    290    316 142.4  25.1  34184  289.97 0855.16
2009/04/23 10:52:33.7     164   -242    158    293    332 145.7  30.7  34180  289.92 0855.16
2009/04/23 10:52:33.9     103   -217    187    241    305 154.7  41.7  34192  290.10 0855.16
2009/04/23 10:52:33.9      94   -216    137    236    272 156.4  32.9  34186  290.02 0855.16
2009/04/23 10:52:34.0      41    -97    115    106    156 156.8  52.2  34190  290.09 0855.16
2009/04/23 10:52:34.1      44   -135    100    143    174 161.7  38.0  34192  290.13 0855.16
2009/04/23 10:52:34.2      45    -78     75     91    117 149.7  43.8  34180  289.91 0855.16
2009/04/23 10:52:34.3     269   -132     63    300    307 116.2  12.0  34186  290.02 0855.16
2009/04/23 10:52:34.4     268    -99    205    286    351 110.4  39.3  34184  289.99 0855.16
2009/04/23 10:52:34.5     100   -128     86    163    184 141.9  30.3  34188  290.04 0855.17
2009/04/23 10:52:34.6     228   -186    230    295    374 129.1  41.9  34184  289.99 0855.17
2009/04/23 10:52:34.7      45   -136    223    144    265 161.7  64.6  34190  290.09 0855.17
2009/04/23 10:52:34.8     -12      8    140     15    140 302.4  90.0  34198  290.23 0855.17
2009/04/23 10:52:35.0      75    -52    155     92    180 124.6  66.8  34196  290.19 0855.17
2009/04/23 10:52:35.1      70    -18    138     73    156 105.1  69.8  34198  290.21 0855.17
2009/04/23 10:52:35.1      89    -61    149    109    184 124.6  60.5  34192  290.13 0855.17
2009/04/23 10:52:35.2      24    -25    120     35    125 136.6  82.8  34198  290.23 0855.17
2009/04/23 10:52:35.3      20    -66     26     70     74 163.1  20.0  34192  290.11 0855.17
2009/04/23 10:52:35.4      34     13     71     37     80  68.3  70.4  34190  290.09 0855.17
2009/04/23 10:52:35.5      66     21     81     70    107  72.3  54.8  34190  290.09 0855.17
2009/04/23 10:52:35.6      46     63    110     79    135  36.1  61.1  34190  290.09 0855.17
2009/04/23 10:52:35.7      83     44    113     95    147  62.0  56.3  34186  290.01 0855.17
2009/04/23 10:52:35.8     191    122     66    227    237  57.4  16.3  34178  289.88 0855.17
2009/04/23 10:52:35.9     244    155    107    290    309  57.5  21.0  34180  289.92 0855.17
2009/04/23 10:52:36.0     268    116    111    293    313  66.5  21.8  34178  289.88 0855.17
2009/04/23 10:52:36.1     265    130    149    296    331  63.8  28.7  34182  289.93 0855.17
2009/04/23 10:52:36.2     188    148    169    240    293  51.8  38.6  34184  289.97 0855.17
2009/04/23 10:52:36.3      95    168    173    194    259  29.6  46.4  34202  290.27 0855.17
2009/04/23 10:52:36.4      27    130     90    133    160  12.0  37.3  34242  290.98 0855.17
2009/04/23 10:52:36.5     114    136     82    178    195  39.9  26.4  34202  290.28 0855.18
2009/04/23 10:52:36.6     129    145     92    195    215  41.7  27.1  34202  290.30 0855.18
2009/04/23 10:52:36.7      97     44     74    107    130  65.2  37.6  34226  290.70 0855.18
2009/04/23 10:52:36.8     156     64    210    169    269  67.4  56.9  34230  290.75 0855.18
2009/04/23 10:52:36.9     382    160     96    415    427  67.3  13.1  34240  290.92 0855.18
2009/04/23 10:52:37.0     383    161    132    416    437  67.2  17.7  34240  290.92 0855.18
2009/04/23 10:52:37.1     289    136    272    320    419  64.7  44.7  34254  291.17 0855.18
2009/04/23 10:52:37.2      92     74    302    119    324  51.4  77.6  34242  290.97 0855.18
2009/04/23 10:52:37.3     390    208     51    443    446  61.9   6.6  34210  290.41 0855.18
2009/04/23 10:52:37.4     516    186     46    549    552  70.1   4.9  34198  290.23 0855.18
2009/04/23 10:52:37.5     464    389    216    606    644  50.0  19.7  34212  290.47 0855.18
2009/04/23 10:52:37.6     446    391     32    594    595  48.7   3.1  34204  290.32 0855.18
2009/04/23 10:52:37.7     394    395   -179    559    586  44.9 -22.9  34210  290.41 0855.18
2009/04/23 10:52:37.8     111    351    -95    369    382  17.6 -14.5  34214  290.50 0855.18
2009/04/23 10:52:37.9     233    127    -27    266    268  61.4  -6.0  34188  290.03 0855.18
2009/04/23 10:52:38.0     335     39     67    338    345  83.3  11.3  34188  290.06 0855.18
2009/04/23 10:52:38.1     286    109    215    307    374  69.2  38.5  34188  290.06 0855.18
2009/04/23 10:52:38.2     161    -31    197    165    256 101.0  55.8  34192  290.13 0855.18
2009/04/23 10:52:38.3     210    -25    218    212    304  97.0  50.9  34200  290.24 0855.18
2009/04/23 10:52:38.4     197     15    167    198    259  85.6  44.3  34196  290.17 0855.18
2009/04/23 10:52:38.5      63    -47     79     79    111 126.9  50.1  34200  290.26 0855.17
2009/04/23 10:52:38.6     114    -16     22    116    119  98.0  11.1  34194  290.14 0855.17
2009/04/23 10:52:38.7     140     32     66    144    158  76.8  26.2  34190  290.08 0855.17
2009/04/23 10:52:38.8     177     35     85    181    199  78.6  27.1  34190  290.09 0855.17
2009/04/23 10:52:38.9     156     10     33    157    161  86.1  12.0  34190  290.08 0855.17
2009/04/23 10:52:39.0     172     14     44    173    179  85.0  14.3  34190  290.08 0855.17
2009/04/23 10:52:39.1     221     47      0    227    228  77.8   0.0  34200  290.25 0855.17
2009/04/23 10:52:39.2     279     81     76    291    301  73.8  14.7  34220  290.58 0855.17
2009/04/23 10:52:39.3     311    127     -6    337    338  67.7  -1.2  34244  291.00 0855.17
2009/04/23 10:52:39.4     403     73    -29    410    411  79.6  -4.1  34200  290.26 0855.17
2009/04/23 10:52:39.5     361    197    -68    412    418  61.4  -9.4  34230  290.77 0855.17
2009/04/23 10:52:39.6     369    127    -71    391    398  71.0 -10.4  34200  290.25 0855.17
2009/04/23 10:52:39.8     348    136   -164    374    408  68.6 -29.6  34172  289.76 0855.17
2009/04/23 10:52:39.9     202    137   -268    245    363  55.8 -57.4  34202  290.29 0855.17
2009/04/23 10:52:40.0     371    -39   -323    374    494  96.1 -49.6  34198  290.22 0855.17
2009/04/23 10:52:40.1     346    -47   -189    350    397  97.8 -35.1  34202  290.30 0855.17
2009/04/23 10:52:40.2     238    -73   -176    250    305 107.1 -43.0  34198  290.20 0855.17
2009/04/23 10:52:40.3     102     -5   -148    103    180  93.0 -66.2  34200  290.26 0855.17
2009/04/23 10:52:40.4     117     55   -113    130    172  64.6 -50.0  34186  290.01 0855.17
2009/04/23 10:52:40.5     -64    -13   -122     66    138 258.5 -73.3  34186  290.01 0855.17
2009/04/23 10:52:40.6      21    203   -102    205    228   6.0 -32.6  34196  290.19 0855.17
2009/04/23 10:52:40.7     135    283    -70    314    322  25.5 -12.6  34202  290.27 0855.17
2009/04/23 10:52:40.8      98    192    -69    216    226  27.1 -23.0  34192  290.13 0855.17
2009/04/23 10:52:40.9     -45     58   -147     74    164 322.2 -75.8  34130  289.06 0855.17
2009/04/23 10:52:41.0    -156    -11   -103    157    187 265.7 -40.7  34106  288.67 0855.17
2009/04/23 10:52:41.1    -194    -37    -97    198    220 259.2 -32.2  34104  288.64 0855.17
2009/04/23 10:52:41.2    -260    -24   -110    262    284 264.5 -28.6  34108  288.70 0855.17
2009/04/23 10:52:41.3    -267    -47   -126    272    299 259.9 -31.4  34098  288.53 0855.17
2009/04/23 10:52:41.4    -288    -63   -140    295    326 257.6 -31.5  34098  288.53 0855.17
2009/04/23 10:52:41.5    -298    -64   -173    305    350 257.8 -36.5  34094  288.47 0855.17
2009/04/23 10:52:41.6    -209   -144   -173    255    308 235.4 -41.8  34144  289.31 0855.17
2009/04/23 10:52:41.7     -31    -94   -145    100    176 198.3 -66.5  34158  289.53 0855.17
2009/04/23 10:52:41.8     -38   -175   -170    180    247 192.5 -52.9  34162  289.60 0855.17
2009/04/23 10:52:41.9     -31    -26   -173     41    177 230.5 -90.0  34158  289.53 0855.17
2009/04/23 10:52:42.0      49   -177   -142    184    232 164.4 -46.1  34152  289.45 0855.17
2009/04/23 10:52:42.1    -118   -193    -69    227    237 211.4 -21.7  34152  289.44 0855.17
2009/04/23 10:52:42.2    -291   -172   -107    339    356 239.4 -17.6  34154  289.47 0855.17
2009/04/23 10:52:42.3    -294    -95   -120    309    331 252.1 -26.8  34158  289.54 0855.17
2009/04/23 10:52:42.4    -308   -112    -91    329    341 250.0 -20.1  34156  289.50 0855.17
2009/04/23 10:52:42.5    -410   -172    -99    445    457 247.2 -12.6  34160  289.56 0855.17
2009/04/23 10:52:42.6    -542    -95   -160    551    573 260.0 -20.9  34138  289.19 0855.18
2009/04/23 10:52:42.7    -591    -12   -196    592    623 268.8 -23.5  34122  288.92 0855.18
2009/04/23 10:52:42.8    -468   -105   -157    480    505 257.3 -23.3  34166  289.69 0855.18
2009/04/23 10:52:42.9    -382   -188    -45    426    429 243.8  -6.1  34156  289.49 0855.18
2009/04/23 10:52:43.0    -439   -103    -57    451    455 256.7  -7.3  34164  289.65 0855.18
2009/04/23 10:52:43.1    -403   -179    -68    441    447 246.0  -8.8  34196  290.17 0855.18
2009/04/23 10:52:43.2    -460   -197   -176    501    531 246.8 -24.6  34136  289.16 0855.18
2009/04/23 10:52:43.3    -350   -136   -174    376    414 248.7 -31.0  34124  288.96 0855.18
2009/04/23 10:52:43.4    -333      1   -199    334    388 270.3 -38.0  34162  289.59 0855.18
2009/04/23 10:52:43.5    -292    -31   -169    294    339 263.9 -36.8  34172  289.78 0855.18
2009/04/23 10:52:43.6    -268     20   -133    269    300 274.4 -32.6  34206  290.36 0855.18
2009/04/23 10:52:43.7    -262     15   -164    263    309 273.4 -39.9  34232  290.80 0855.18
2009/04/23 10:52:43.8    -241      8   -206    242    317 272.1 -49.2  34234  290.83 0855.18
2009/04/23 10:52:43.9    -283     25   -144    285    319 275.2 -33.3  34174  289.80 0855.18
2009/04/23 10:52:44.0    -323      4   -258    324    414 270.8 -47.1  34166  289.67 0855.18
2009/04/23 10:52:44.1    -204      0   -290    205    355 270.0 -65.8  34134  289.14 0855.18
2009/04/23 10:52:44.2     -57     36   -234     68    243 302.4 -87.7  34150  289.40 0855.18
2009/04/23 10:52:44.3      -7    -11   -223     14    223 212.5 -90.0  34152  289.45 0855.18
2009/04/23 10:52:44.4     -68     22   -182     72    195 288.4 -81.5  34186  290.02 0855.18
2009/04/23 10:52:44.5      62     20   -153     66    166  71.8 -79.7  34184  289.99 0855.18
2009/04/23 10:52:44.6    -252     83   -173    266    317 288.2 -40.6  34162  289.61 0855.18
2009/04/23 10:52:44.7    -122    119   -249    171    302 314.2 -67.0  34144  289.31 0855.18
2009/04/23 10:52:44.8    -123    118   -297    171    342 313.8 -72.0  34144  289.29 0855.18
2009/04/23 10:52:44.9     120    216   -229    248    337  29.2 -52.1  34140  289.24 0855.18
2009/04/23 10:52:45.0    -169     56   -214    179    278 288.4 -60.5  34162  289.59 0855.18
2009/04/23 10:52:45.1      44      3   -144     45    150  85.6 -86.2  34150  289.41 0855.18
2009/04/23 10:52:45.2    -242     58   -392    249    464 283.5 -69.1  34158  289.55 0855.18
2009/04/23 10:52:45.3     159    100   -338    189    387  57.8 -73.0  34156  289.50 0855.18
2009/04/23 10:52:45.4      65    -17   -279     68    287 105.1 -90.0  34164  289.63 0855.18
2009/04/23 10:52:45.5     289      0   -370    290    470  90.0 -62.4  34146  289.34 0855.18
2009/04/23 10:52:45.6     213      4   -280    214    352  88.7 -63.1  34176  289.85 0855.18
2009/04/23 10:52:45.7     254   -115   -271    279    388 114.4 -53.7  34174  289.81 0855.18
2009/04/23 10:52:45.8     387   -246   -254    459    524 122.5 -35.8  34150  289.40 0855.18
2009/04/23 10:52:45.9     300   -246   -113    389    406 129.4 -16.2  34164  289.65 0855.18
2009/04/23 10:52:46.0     335   -247   -178    417    453 126.4 -29.0  34158  289.55 0855.18
2009/04/23 10:52:46.1     452   -280    -94    532    541 121.8 -10.1  34158  289.55 0855.18
2009/04/23 10:52:46.2     610   -287     34    675    676 115.2   2.9  34136  289.16 0855.18
2009/04/23 10:52:46.3     631   -321     98    709    716 117.0   7.9  34142  289.25 0855.18
2009/04/23 10:52:46.4     556   -228     69    602    606 112.3   6.6  34136  289.15 0855.18
2009/04/23 10:52:46.5     547   -178    134    576    592 108.1  13.1  34138  289.20 0855.18
2009/04/23 10:52:46.6     538    -40     98    540    549  94.3  10.3  34146  289.33 0855.18
2009/04/23 10:52:46.7     361     20    307    362    474  86.8  44.7  34128  289.02 0855.18
2009/04/23 10:52:46.8     251     33    340    254    424  82.3  59.7  34152  289.45 0855.18
2009/04/23 10:52:46.9     119    -11    271    120    296  95.7  74.9  34146  289.32 0855.18
2009/04/23 10:52:47.0     122     20    271    124    298  80.3  74.0  34148  289.36 0855.18
2009/04/23 10:52:47.1     191     25    218    193    291  82.3  54.2  34142  289.25 0855.18
2009/04/23 10:52:47.2     106     26    121    110    163  76.3  53.0  34142  289.28 0855.18
2009/04/23 10:52:47.3      94    -58    134    111    174 121.5  56.4  34144  289.31 0855.18
2009/04/23 10:52:47.4      72    -81    134    109    172 138.6  56.4  34148  289.38 0855.18
2009/04/23 10:52:47.5      94      0    101     95    138  90.0  52.1  34146  289.33 0855.18
2009/04/23 10:52:47.6     231     16    188    232    298  85.9  43.5  34142  289.27 0855.18
2009/04/23 10:52:47.7     161    -37    173    166    239 103.0  51.2  34142  289.28 0855.18
2009/04/23 10:52:47.8     194    -55    164    202    260 105.9  43.5  34142  289.27 0855.18
2009/04/23 10:52:47.9     182    -60    152    192    244 108.4  42.7  34140  289.23 0855.18
2009/04/23 10:52:48.0      84    -82    123    118    170 134.0  50.9  34128  289.02 0855.18
2009/04/23 10:52:48.1     183   -109    163    214    269 120.9  41.2  34134  289.14 0855.18
2009/04/23 10:52:48.2     212   -163    218    268    345 127.7  43.6  34136  289.17 0855.18
2009/04/23 10:52:48.3     200   -206    208    288    355 135.9  39.5  34138  289.20 0855.18
2009/04/23 10:52:48.4     182   -196    207    268    338 137.2  41.5  34142  289.25 0855.18
2009/04/23 10:52:48.5     196   -272    199    336    390 144.3  33.5  34142  289.26 0855.18
2009/04/23 10:52:48.6     195   -321    191    376    421 148.7  29.1  34140  289.22 0855.19
2009/04/23 10:52:48.7     175   -293    186    342    389 149.1  31.0  34142  289.26 0855.19
2009/04/23 10:52:48.8     143   -298    154    331    365 154.3  26.9  34142  289.28 0855.19
2009/04/23 10:52:48.9     131   -289    110    318    337 155.5  19.2  34142  289.25 0855.19
2009/04/23 10:52:49.0     173   -296    130    343    366 149.7  21.7  34142  289.26 0855.19
2009/04/23 10:52:49.1     160   -199    146    256    294 141.3  32.1  34140  289.22 0855.19
2009/04/23 10:52:49.2     203   -145    163    250    298 125.7  36.0  34150  289.41 0855.19
2009/04/23 10:52:49.3     300   -219    211    372    427 126.2  32.1  34140  289.24 0855.19
2009/04/23 10:52:49.4     327   -178    152    373    402 118.5  23.5  34138  289.21 0855.19
2009/04/23 10:52:49.5     280   -173    183    330    377 121.8  31.4  34142  289.25 0855.19
2009/04/23 10:52:49.6     247   -168    211    299    365 124.2  38.7  34142  289.25 0855.19
2009/04/23 10:52:49.7     134   -229    197    266    331 149.7  40.1  34148  289.36 0855.19
2009/04/23 10:52:49.8     124   -208    197    243    312 149.2  43.3  34154  289.47 0855.19
2009/04/23 10:52:49.9      69   -240    120    250    277 164.0  27.4  34146  289.34 0855.19
2009/04/23 10:52:50.0      91   -313    196    327    381 163.7  33.7  34152  289.45 0855.19
2009/04/23 10:52:50.1     116   -346    225    366    429 161.4  34.4  34152  289.44 0855.19
2009/04/23 10:52:50.2      60   -475    213    479    524 172.8  25.6  34152  289.42 0855.19
2009/04/23 10:52:50.3      96   -321    249    336    418 163.3  40.1  34152  289.43 0855.19
2009/04/23 10:52:50.4      37   -346    210    349    407 173.8  33.8  34148  289.37 0855.19
2009/04/23 10:52:50.5       7   -248    272    249    368 178.2  52.9  34152  289.45 0855.19
2009/04/23 10:52:50.6      42   -274    262    278    382 171.1  48.0  34154  289.48 0855.19
2009/04/23 10:52:50.7     -17   -365    203    366    418 182.8  31.4  34150  289.40 0855.19
2009/04/23 10:52:50.8     -18   -268    134    269    300 184.0  28.2  34148  289.36 0855.19
2009/04/23 10:52:50.9      33    -40     85     53    100 140.4  64.7  34168  289.72 0855.19
2009/04/23 10:52:51.0       4    -56     46     57     73 175.5  43.7  34154  289.48 0855.19
2009/04/23 10:52:51.1     -12   -136     37    137    142 185.3  15.2  34146  289.33 0855.19
2009/04/23 10:52:51.2     -97   -160     90    188    208 211.2  27.3  34156  289.52 0855.19
2009/04/23 10:52:51.3     -94   -170     72    195    207 209.0  21.0  34156  289.52 0855.19
2009/04/23 10:52:51.4     -80   -177     72    195    207 204.5  21.0  34154  289.46 0855.19
2009/04/23 10:52:51.5    -160   -156     -4    224    225 225.8  -1.3  34154  289.48 0855.19
2009/04/23 10:52:51.6    -118   -251     10    278    279 205.3   2.1  34158  289.54 0855.19
2009/04/23 10:52:51.7     -75   -246    -40    258    262 196.9  -9.0  34166  289.68 0855.19
2009/04/23 10:52:51.8    -176   -175    -52    249    255 225.1 -11.9  34194  290.15 0855.19
2009/04/23 10:52:51.9    -152   -172    -76    230    243 221.4 -18.3  34196  290.17 0855.19
2009/04/23 10:52:52.0     -58   -157    -49    168    175 200.3 -21.5  34184  289.99 0855.19
2009/04/23 10:52:52.1     -50   -156    -74    164    179 197.8 -30.6  34182  289.96 0855.19
2009/04/23 10:52:52.2     -15   -255    -66    256    265 183.4 -14.5  34152  289.44 0855.19
2009/04/23 10:52:52.3     -93   -216    -47    236    241 203.2 -11.3  34146  289.34 0855.19
2009/04/23 10:52:52.4    -121   -173     20    212    214 215.0   5.4  34156  289.50 0855.19
2009/04/23 10:52:52.5      -9    -91     42     92    101 185.8  26.6  34156  289.52 0855.19
2009/04/23 10:52:52.6     -15   -165     57    166    176 185.3  19.2  34154  289.46 0855.19
2009/04/23 10:52:52.7      73   -148    155    166    227 153.7  47.9  34148  289.36 0855.19
2009/04/23 10:52:52.8      85   -118    163    146    218 144.0  53.5  34154  289.48 0855.19
2009/04/23 10:52:52.9      83    -22    134     86    159 105.1  64.4  34162  289.62 0855.19
2009/04/23 10:52:53.0     120   -117     53    168    177 134.2  17.7  34154  289.46 0855.19
2009/04/23 10:52:53.1     178     27     34    181    185  81.2  10.8  34152  289.43 0855.19
2009/04/23 10:52:53.2     218     -7     22    219    221  91.9   5.9  34148  289.38 0855.19
2009/04/23 10:52:53.3     203     -8    103    204    228  92.4  28.7  34148  289.38 0855.19
2009/04/23 10:52:53.4     150      3     73    151    167  88.7  27.4  34146  289.35 0855.19
2009/04/23 10:52:53.5      51     12     26     53     59  75.8  27.2  34156  289.52 0855.19
2009/04/23 10:52:53.6      57    143     77    155    173  21.9  28.5  34158  289.53 0855.17
2009/04/23 10:52:53.7     122    125     42    175    180  44.3  13.5  34158  289.53 0855.17
2009/04/23 10:52:53.8      74     92     -2    119    120  38.7  -1.2  34154  289.46 0855.17
2009/04/23 10:52:53.9      20    102     54    104    117  11.1  29.3  34164  289.65 0855.17
2009/04/23 10:52:54.0      79    102     34    130    135  37.8  14.7  34154  289.48 0855.17
2009/04/23 10:52:54.1      40     16     65     44     78  68.3  63.6  34168  289.70 0855.17
2009/04/23 10:52:54.2     -23    -23    106     33    111 225.1  82.3  34180  289.91 0855.17
2009/04/23 10:52:54.3    -132    -39    104    138    172 253.2  40.9  34170  289.75 0855.17
2009/04/23 10:52:54.4    -138    -15     71    139    156 263.4  29.1  34172  289.77 0855.17
2009/04/23 10:52:54.5    -179     21     21    181    183 276.8   6.7  34174  289.80 0855.17
2009/04/23 10:52:54.6    -189    -13     89    190    209 265.9  27.1  34186  290.01 0855.17
2009/04/23 10:52:54.7    -129    -60     78    143    162 244.8  31.0  34174  289.80 0855.17
2009/04/23 10:52:54.8    -136   -143    130    198    236 223.7  36.5  34160  289.58 0855.17
2009/04/23 10:52:54.9      -4    -91    213     92    232 182.7  75.3  34178  289.87 0855.17
2009/04/23 10:52:55.0      16    -46    174     49    180 160.0  84.4  34180  289.92 0855.17
2009/04/23 10:52:55.1      94     36    131    101    165  68.7  58.5  34182  289.96 0855.17
2009/04/23 10:52:55.2      80     39    101     90    135  63.8  54.2  34182  289.96 0855.17
2009/04/23 10:52:55.3      29     64     93     71    117  24.5  58.5  34182  289.96 0855.17
2009/04/23 10:52:55.4      23     15     82     28     86  57.6  81.2  34184  289.99 0855.17
2009/04/23 10:52:55.5      25    -76    101     81    129 161.7  56.9  34172  289.77 0855.17
2009/04/23 10:52:55.6      17    -80    114     82    140 168.0  60.6  34162  289.62 0855.13
2009/04/23 10:52:55.7     -40   -193    192    198    275 191.8  49.0  34166  289.68 0855.13
2009/04/23 10:52:55.8    -121   -261    132    288    316 204.9  26.3  34168  289.70 0855.13
2009/04/23 10:52:55.9     -94   -172    114    197    227 208.7  32.7  34174  289.80 0855.13
2009/04/23 10:52:56.0    -106   -207     56    233    240 207.1  13.7  34172  289.76 0855.13
2009/04/23 10:52:56.1    -126   -266     15    295    296 205.4   2.9  34170  289.75 0855.13
2009/04/23 10:52:56.2    -238   -277    129    366    388 220.6  20.0  34180  289.91 0855.13
2009/04/23 10:52:56.3    -153   -323    -85    358    369 205.3 -13.4  34162  289.60 0855.13
2009/04/23 10:52:56.4    -139   -336    -50    364    368 202.5  -7.9  34178  289.87 0855.13
2009/04/23 10:52:56.5    -202   -294    -26    357    358 214.5  -4.2  34178  289.89 0855.13
2009/04/23 10:52:56.6    -318   -122    118    341    362 248.9  19.2  34210  290.43 0855.13
2009/04/23 10:52:56.7    -233   -178     72    294    303 232.7  13.9  34224  290.65 0855.13
2009/04/23 10:52:56.8    -146   -157     61    215    224 223.0  16.0  34226  290.69 0855.13
2009/04/23 10:52:56.9    -297   -118     55    320    325 248.3   9.9  34214  290.49 0855.13
2009/04/23 10:52:57.0    -233    -63     61    242    250 254.9  14.2  34212  290.44 0855.13
2009/04/23 10:52:57.1    -218    -18     75    219    232 265.0  18.9  34218  290.55 0855.13
2009/04/23 10:52:57.2    -233     24     83    235    250 276.1  19.4  34220  290.59 0855.13
2009/04/23 10:52:57.3    -250     42    -27    254    256 279.7  -6.1  34230  290.76 0855.13
2009/04/23 10:52:57.4    -132    -36     80    137    158 254.5  32.9  34224  290.67 0855.13
2009/04/23 10:52:57.5     -61    -24    115     66    132 248.2  67.7  34250  291.09 0855.13
2009/04/23 10:52:57.6     -23    -30     92     39     99 217.8  76.1  34262  291.30 0855.11
2009/04/23 10:52:57.7     -25    -39     80     47     92 212.6  66.8  34238  290.91 0855.11
2009/04/23 10:52:57.8      79     79    162    113    197  45.0  61.8  34208  290.38 0855.11
2009/04/23 10:52:57.9     135     49    151    144    208  70.0  51.4  34184  289.97 0855.11
2009/04/23 10:52:58.0     146     28    138    149    203  79.0  47.9  34192  290.13 0855.11
2009/04/23 10:52:58.1     169     44    218    175    279  75.2  57.3  34198  290.20 0855.11
2009/04/23 10:52:58.2     151     49    237    159    285  71.8  62.8  34196  290.17 0855.11
2009/04/23 10:52:58.3     153     31    243    157    289  78.6  64.4  34202  290.29 0855.11
2009/04/23 10:52:58.4     212    149    137    260    293  54.9  30.1  34206  290.36 0855.11
2009/04/23 10:52:58.5     250     95     37    268    271  69.2   8.0  34202  290.27 0855.11
2009/04/23 10:52:58.6      49     20     98     54    111  67.4  68.8  34208  290.40 0855.11
2009/04/23 10:52:58.7     -19     34     93     40    101 331.0  75.5  34220  290.60 0855.11
2009/04/23 10:52:58.8     -82    105    112    134    174 322.2  44.1  34220  290.58 0855.11
2009/04/23 10:52:58.9     -55     20     69     59     90 290.0  55.4  34220  290.58 0855.11
2009/04/23 10:52:59.0     -60    -33     67     69     96 241.2  50.0  34214  290.48 0855.11
2009/04/23 10:52:59.1     -54    -25     38     60     71 244.8  35.5  34210  290.43 0855.11
2009/04/23 10:52:59.2     -96      7     -3     97     98 274.4  -2.2  34214  290.48 0855.11
2009/04/23 10:52:59.3     -72    -19     -9     75     76 254.9  -7.3  34208  290.38 0855.11
2009/04/23 10:52:59.4     -86    -48     34     99    105 240.7  18.9  34232  290.81 0855.11
2009/04/23 10:52:59.5     -99    -39     21    107    110 248.2  11.1  34234  290.82 0855.11
2009/04/23 10:52:59.6      20    -24      7     32     33 140.4  13.2  34208  290.38 0855.10
2009/04/23 10:52:59.7      96    -32     48    102    112 108.4  27.1  34192  290.13 0855.10
2009/04/23 10:52:59.8      42    -24     21     49     53 120.7  24.1  34192  290.13 0855.10
2009/04/23 10:52:59.9     -30   -177    147    180    232 189.6  43.7  34150  289.40 0855.10
2009/04/23 10:53:00.0     118   -121    173    170    242 135.7  50.4  34154  289.46 0855.10
2009/04/23 10:53:00.1     233    -76     89    246    261 108.2  20.4  34150  289.41 0855.10
2009/04/23 10:53:00.2     318    -99     61    334    340 107.4  10.4  34154  289.48 0855.10
2009/04/23 10:53:00.3     247    -45    -12    252    253 100.5  -2.8  34162  289.61 0855.10
2009/04/23 10:53:00.4     227   -123     26    259    261 118.4   5.9  34158  289.54 0855.10
2009/04/23 10:53:00.5     245   -106     -5    268    269 113.5  -1.3  34160  289.58 0855.10
2009/04/23 10:53:00.6     314    -43    -29    317    319  97.9  -5.4  34150  289.41 0855.10
2009/04/23 10:53:00.7     192   -138    177    237    295 125.9  40.4  34162  289.61 0855.10
2009/04/23 10:53:00.8     120    -99    143    156    211 129.5  47.5  34158  289.55 0855.10
2009/04/23 10:53:00.9     115    -63    119    132    177 118.8  46.9  34158  289.53 0855.10
2009/04/23 10:53:01.0      94     19    -55     96    110  78.5 -36.8  34144  289.31 0855.10
2009/04/23 10:53:01.1       2   -135    -49    136    144 179.1 -24.4  34148  289.36 0855.10
2009/04/23 10:53:01.2      84    -36   -101     92    136 113.5 -57.1  34156  289.52 0855.10
2009/04/23 10:53:01.3      93    -17    -38     95    102 100.6 -27.4  34158  289.55 0855.10
2009/04/23 10:53:01.4       1    -30     -1     31     32 177.3  -3.1  34156  289.52 0855.10
2009/04/23 10:53:01.5      19    -31     11     37     39 147.5  17.3  34166  289.69 0855.10
2009/04/23 10:53:01.6     -45     13     16     48     51 286.8  18.4  34176  289.85 0855.10
2009/04/23 10:53:01.7     -27     45     28     53     59 328.4  30.3  34178  289.87 0855.10
2009/04/23 10:53:01.8     -38     85     44     94    103 335.5  27.1  34180  289.92 0855.10
2009/04/23 10:53:01.9     -16     52    -14     55     57 343.1 -14.5  34176  289.84 0855.10
2009/04/23 10:53:02.0     -22     95    -29     98    102 346.6 -21.2  34176  289.84 0855.10
2009/04/23 10:53:02.1     -44     73     -4     86     87 328.8  -3.1  34188  290.06 0855.10
2009/04/23 10:53:02.2     -46      6    -68     47     82 277.9 -66.5  34194  290.14 0855.10
2009/04/23 10:53:02.3     -30      0    -37     31     48 270.0 -58.7  34202  290.28 0855.10
2009/04/23 10:53:02.4     -22     13    -37     26     45 300.7 -67.0  34208  290.40 0855.10
2009/04/23 10:53:02.5     -31     31    -31     44     53 315.0 -43.0  34206  290.36 0855.10
2009/04/23 10:53:02.6     -75     59    -81     96    125 308.2 -48.7  34182  289.96 0855.10
2009/04/23 10:53:02.7    -240   -104    -41    262    266 246.5  -9.0  34178  289.86 0855.10
2009/04/23 10:53:02.8    -228   -107    -36    253    256 244.8  -8.3  34146  289.34 0855.10
2009/04/23 10:53:02.9    -241    -42    -27    245    247 259.9  -6.5  34164  289.64 0855.10
2009/04/23 10:53:03.0    -293    -12    -53    294    299 267.5 -10.4  34156  289.51 0855.10
2009/04/23 10:53:03.1    -259     16    -33    260    263 273.7  -7.3  34170  289.73 0855.10
2009/04/23 10:53:03.2    -444   -127   -133    462    480 254.0 -20.8  34166  289.67 0855.10
2009/04/23 10:53:03.3    -392    -26   -153    393    421 266.1 -26.9  34186  290.00 0855.10
2009/04/23 10:53:03.4    -408   -126   -145    428    451 252.8 -23.6  34168  289.70 0855.10
2009/04/23 10:53:03.5    -315   -237   -123    395    413 233.0 -22.3  34160  289.56 0855.10
2009/04/23 10:53:03.6    -219   -299   -133    371    395 216.2 -19.7  34156  289.52 0855.09
2009/04/23 10:53:03.7    -266   -165    -62    314    321 238.2 -11.2  34160  289.56 0855.09
2009/04/23 10:53:03.8    -399   -238    -18    465    466 239.2  -2.2  34152  289.45 0855.09
2009/04/23 10:53:03.9    -419   -275     34    502    504 236.7   3.9  34162  289.59 0855.09
2009/04/23 10:53:04.0    -282   -215     18    355    356 232.6   3.0  34158  289.55 0855.09
2009/04/23 10:53:04.1    -254   -234    -39    346    349 227.3  -6.5  34164  289.64 0855.09
2009/04/23 10:53:04.2    -183   -376   -124    419    438 206.0 -16.5  34154  289.46 0855.09
2009/04/23 10:53:04.3    -207   -436    -33    483    485 205.5  -4.0  34148  289.37 0855.09
2009/04/23 10:53:04.4    -103   -193     56    219    227 208.1  14.5  34148  289.36 0855.09
2009/04/23 10:53:04.5      90   -106    -62    140    153 139.5 -29.6  34148  289.38 0855.09
2009/04/23 10:53:04.6      89   -278   -175    293    341 162.2 -38.2  34152  289.42 0855.09
2009/04/23 10:53:04.7     251   -231    -10    342    343 132.7  -1.7  34152  289.42 0855.09
2009/04/23 10:53:04.8     309   -318   -142    444    466 135.9 -22.9  34154  289.46 0855.09
2009/04/23 10:53:04.9     332   -284    -85    437    446 130.5 -11.0  34144  289.31 0855.09
2009/04/23 10:53:05.0     252   -257    -71    361    369 135.6 -11.2  34138  289.20 0855.09
2009/04/23 10:53:05.1     263   -223     10    345    346 130.3   1.8  34140  289.23 0855.09
2009/04/23 10:53:05.2      80   -259   -152    272    311 162.8 -36.1  34152  289.42 0855.09
2009/04/23 10:53:05.3     190   -298    -38    354    357 147.4  -6.3  34138  289.21 0855.09
2009/04/23 10:53:05.4     173   -298     56    345    350 149.8   9.3  34134  289.13 0855.09
2009/04/23 10:53:05.5      99   -236     66    257    266 157.2  14.5  34140  289.22 0855.09
2009/04/23 10:53:05.6      96   -254     93    272    288 159.3  18.9  34138  289.19 0855.09
2009/04/23 10:53:05.7      29   -373    152    375    404 175.5  23.4  34146  289.32 0855.09
2009/04/23 10:53:05.8      82   -352    151    362    392 166.8  24.1  34144  289.30 0855.09
2009/04/23 10:53:05.9      56   -255    130    262    292 167.5  28.2  34148  289.36 0855.09
2009/04/23 10:53:06.0      15   -281    121    282    306 176.9  24.9  34146  289.32 0855.09
2009/04/23 10:53:06.2      -4   -284    114    285    306 181.0  23.0  34146  289.32 0855.09
2009/04/23 10:53:06.2     -40   -259    164    263    309 188.9  35.5  34148  289.37 0855.09
2009/04/23 10:53:06.3     -35   -250    176    253    308 188.1  38.4  34150  289.39 0855.09
2009/04/23 10:53:06.4     -35   -268    117    271    295 187.6  25.1  34146  289.34 0855.09
2009/04/23 10:53:06.5     -35   -253     64    256    265 188.0  14.2  34146  289.34 0855.09
2009/04/23 10:53:06.6      28   -230     54    232    239 172.9  13.2  34146  289.32 0855.09
2009/04/23 10:53:06.7      -5   -187     75    188    202 181.6  23.0  34142  289.28 0855.09
2009/04/23 10:53:06.8    -115   -208    135    239    274 209.0  31.9  34146  289.32 0855.09
2009/04/23 10:53:06.9     -47   -234    158    239    286 191.6  36.5  34144  289.31 0855.09
2009/04/23 10:53:07.0     -30   -217    197    220    295 188.0  46.4  34142  289.27 0855.09
2009/04/23 10:53:07.1      39   -186    103    191    217 168.2  31.0  34148  289.38 0855.09
2009/04/23 10:53:07.2      23   -212    120    214    245 173.8  31.6  34152  289.44 0855.09
2009/04/23 10:53:07.3     -58   -176    156    186    242 198.5  44.3  34150  289.41 0855.09
2009/04/23 10:53:07.4     -77   -221    141    235    274 199.2  33.7  34144  289.31 0855.09
2009/04/23 10:53:07.5    -104   -219    136    243    278 205.4  31.4  34146  289.34 0855.09
2009/04/23 10:53:07.7     -87   -185    128    205    241 205.2  35.2  34144  289.31 0855.09
2009/04/23 10:53:07.8     -53   -133    133    144    196 201.9  47.7  34146  289.33 0855.09
2009/04/23 10:53:07.9     -89   -152    197    177    264 210.3  53.5  34150  289.41 0855.09
2009/04/23 10:53:08.0    -116   -197    146    229    271 210.7  35.5  34148  289.37 0855.09
2009/04/23 10:53:08.1    -123    -89     84    153    174 234.0  31.4  34154  289.48 0855.09
2009/04/23 10:53:08.2     -44     36    126     58    138 309.5  73.1  34168  289.70 0855.09
2009/04/23 10:53:08.3    -185     54    167    193    255 286.4  45.4  34174  289.80 0855.09
2009/04/23 10:53:08.4    -245     87     77    261    273 289.7  16.4  34166  289.68 0855.09
2009/04/23 10:53:08.5    -281     39    -36    284    287 278.0  -7.3  34174  289.80 0855.09
2009/04/23 10:53:08.6    -234     59    -49    242    248 284.2 -11.6  34174  289.81 0855.09
2009/04/23 10:53:08.7    -296     86     68    309    317 286.2  12.5  34194  290.15 0855.09
2009/04/23 10:53:08.8    -336     62     42    342    345 280.6   7.1  34204  290.32 0855.09
2009/04/23 10:53:08.9    -314     19     32    315    317 273.5   6.0  34194  290.15 0855.09
2009/04/23 10:53:09.0    -309     73     19    318    319 283.3   3.5  34172  289.78 0855.09
2009/04/23 10:53:09.1    -182    206     86    276    290 318.6  17.4  34146  289.34 0855.09
2009/04/23 10:53:09.2    -173    213     85    275    288 321.0  17.3  34150  289.39 0855.09
2009/04/23 10:53:09.3    -103    205    129    230    263 333.3  31.6  34160  289.56 0855.09
2009/04/23 10:53:09.4     -87    184     90    204    222 334.5  25.2  34160  289.57 0855.09
2009/04/23 10:53:09.5     -21    192     78    194    209 353.5  23.0  34158  289.55 0855.09
2009/04/23 10:53:09.6     -18    176     83    177    195 354.0  27.1  34154  289.48 0855.09
2009/04/23 10:53:09.7     -28    193    111    196    225 351.5  31.6  34156  289.50 0855.11
2009/04/23 10:53:09.8     -27    214    115    216    244 352.7  30.2  34160  289.56 0855.11
2009/04/23 10:53:09.9     -11    185     78    186    201 356.4  24.1  34156  289.52 0855.11
2009/04/23 10:53:10.0      -9    155     37    156    161 356.4  13.5  34156  289.50 0855.11
2009/04/23 10:53:10.1     -41     99      8    108    109 337.3   4.4  34156  289.52 0855.11
2009/04/23 10:53:10.2     -67    106     20    126    128 327.9   9.0  34160  289.57 0855.11
2009/04/23 10:53:10.3     -36    149     21    154    156 346.2   7.8  34166  289.67 0855.11
2009/04/23 10:53:10.4     -47    169    117    176    211 344.2  36.7  34192  290.11 0855.11
2009/04/23 10:53:10.5     -53    122    125    134    183 336.4  48.0  34194  290.14 0855.11
2009/04/23 10:53:10.6     -84    122    110    149    185 325.3  39.9  34234  290.84 0855.11
2009/04/23 10:53:10.7     -63     80     18    103    105 321.7  10.1  34230  290.77 0855.11
2009/04/23 10:53:10.8     -51     92     68    106    125 331.0  35.6  34216  290.53 0855.11
2009/04/23 10:53:10.9     -43    116     52    124    134 339.5  24.1  34220  290.60 0855.11
2009/04/23 10:53:11.0    -118     42     90    126    154 290.0  39.5  34222  290.64 0855.11
2009/04/23 10:53:11.1    -111     82     64    139    153 306.4  26.6  34204  290.31 0855.11
2009/04/23 10:53:11.2    -106     33     44    112    120 287.3  23.0  34196  290.18 0855.11
2009/04/23 10:53:11.3     -82     39     31     92     98 295.8  18.9  34198  290.23 0855.11
2009/04/23 10:53:11.4     -89     62     83    109    137 305.1  41.6  34224  290.67 0855.11
2009/04/23 10:53:11.5     -76     76     90    108    140 315.0  43.8  34264  291.35 0855.11
2009/04/23 10:53:11.6     -94     27     27     99    103 286.4  15.3  34254  291.16 0855.11
2009/04/23 10:53:11.7     -97     62     40    116    123 302.5  19.4  34264  291.35 0855.14
2009/04/23 10:53:11.8    -135     48     28    144    147 289.5  11.1  34246  291.04 0855.14
2009/04/23 10:53:11.9    -128     46     11    137    138 289.9   4.9  34260  291.26 0855.14
2009/04/23 10:53:12.0    -111     86     33    141    145 307.8  13.2  34274  291.50 0855.14
2009/04/23 10:53:12.1    -100     94     47    138    146 313.1  18.9  34284  291.69 0855.14
2009/04/23 10:53:12.2     -78     73     47    108    117 313.1  25.1  34282  291.66 0855.14
2009/04/23 10:53:12.3     -89     61     38    109    116 304.6  19.2  34266  291.37 0855.14
2009/04/23 10:53:12.4     -89     29     18     94     96 288.2  11.1  34258  291.25 0855.14
2009/04/23 10:53:12.5    -107     67     -7    127    128 302.0  -3.2  34274  291.52 0855.14
2009/04/23 10:53:12.6    -106     59    -15    122    123 299.3  -7.3  34250  291.09 0855.14
2009/04/23 10:53:12.7     -85    -14     54     87    102 260.3  35.0  34274  291.50 0855.14
2009/04/23 10:53:12.8     -93    -14     72     95    119 261.2  41.2  34280  291.60 0855.14
2009/04/23 10:53:12.9     -61     -8     64     62     89 262.1  50.1  34290  291.79 0855.14
2009/04/23 10:53:13.0     -24     -8     57     26     62 251.6  74.0  34284  291.67 0855.14
2009/04/23 10:53:13.1     -26    -12     63     29     69 244.7  73.1  34272  291.49 0855.14
2009/04/23 10:53:13.2      12     -4     65     13     66 108.6  89.0  34256  291.20 0855.14
2009/04/23 10:53:13.3      15    -49     76     52     92 163.1  62.6  34244  291.01 0855.14
2009/04/23 10:53:13.4     -18    -46     79     50     93 201.8  64.7  34252  291.15 0855.14
2009/04/23 10:53:13.5     -62    -20    130     66    145 251.6  71.0  34262  291.30 0855.14
2009/04/23 10:53:13.6     -61    -40    116     73    137 236.7  64.7  34268  291.42 0855.14
2009/04/23 10:53:13.7     -59    -59     79     84    115 225.0  48.0  34280  291.60 0855.17
2009/04/23 10:53:13.8     -78    -51     79     94    122 236.7  44.3  34276  291.54 0855.17
2009/04/23 10:53:13.9    -138      1     61    139    151 270.8  25.2  34264  291.33 0855.17
2009/04/23 10:53:14.0    -186    -87     71    206    219 244.9  19.2  34258  291.23 0855.17
2009/04/23 10:53:14.1    -225     17     55    226    233 274.4  13.9  34258  291.25 0855.17
2009/04/23 10:53:14.2    -228    -35     71    231    242 261.2  17.1  34250  291.09 0855.17
2009/04/23 10:53:14.3    -220   -101     47    243    248 245.4  11.1  34258  291.24 0855.17
2009/04/23 10:53:14.4    -208   -155    104    260    280 233.4  23.0  34262  291.31 0855.17
2009/04/23 10:53:14.5    -274   -113     12    297    298 247.6   2.3  34244  291.00 0855.17
2009/04/23 10:53:14.6    -278    -48    -25    283    285 260.1  -5.2  34250  291.09 0855.17
2009/04/23 10:53:14.7    -240      3    -30    241    243 270.9  -7.2  34236  290.87 0855.18
2009/04/23 10:53:14.8    -227    -50    -16    233    234 257.4  -4.1  34244  290.99 0855.18
2009/04/23 10:53:14.9    -177    -55    -10    186    187 252.7  -3.2  34254  291.18 0855.18
2009/04/23 10:53:15.0    -244   -130     59    277    284 242.0  12.0  34266  291.38 0855.18
2009/04/23 10:53:15.1    -245   -172    108    300    320 234.9  19.9  34224  290.66 0855.18
2009/04/23 10:53:15.2    -194   -147    127    244    275 232.7  29.3  34230  290.76 0855.18
2009/04/23 10:53:15.3    -260    -96    162    278    321 249.6  33.0  34246  291.02 0855.18
2009/04/23 10:53:15.4    -174   -155    149    234    277 228.2  35.5  34218  290.56 0855.18
2009/04/23 10:53:15.5    -242    -48     99    247    266 258.6  23.0  34220  290.58 0855.18
2009/04/23 10:53:15.6     -62   -134    142    148    205 204.9  49.2  34214  290.50 0855.18
2009/04/23 10:53:15.7    -162      2     82    163    182 270.8  28.5  34236  290.86 0855.18
2009/04/23 10:53:15.8    -269     67    116    278    301 284.1  24.1  34260  291.27 0855.18
2009/04/23 10:53:15.9    -271    -20     74    272    283 265.6  15.3  34232  290.80 0855.18
2009/04/23 10:53:16.0    -108   -170    106    202    228 212.6  29.8  34188  290.06 0855.18
2009/04/23 10:53:16.1    -185   -110    129    216    251 239.1  33.7  34202  290.29 0855.18
2009/04/23 10:53:16.2     -93   -128    153    159    220 216.1  49.0  34220  290.58 0855.18
2009/04/23 10:53:16.3    -173    -35    106    177    206 258.5  33.5  34216  290.52 0855.18
2009/04/23 10:53:16.4    -216     22    106    218    242 275.9  28.0  34206  290.34 0855.18
2009/04/23 10:53:16.5    -161    -36    105    165    195 257.4  35.5  34240  290.92 0855.18
2009/04/23 10:53:16.6     -21   -159     73    161    176 187.6  26.2  34254  291.16 0855.18
2009/04/23 10:53:16.7     -48   -149     54    157    167 198.0  19.2  34288  291.74 0855.17
2009/04/23 10:53:16.8     -86   -138    -29    163    166 212.1 -10.1  34286  291.72 0855.17
2009/04/23 10:53:16.9    -163    -87     -4    185    186 241.8  -1.3  34280  291.62 0855.17
2009/04/23 10:53:17.0    -243    -18    -44    244    249 265.6 -10.4  34282  291.65 0855.17
2009/04/23 10:53:17.1    -272    -68    -72    281    291 255.8 -14.4  34268  291.39 0855.17
2009/04/23 10:53:17.2    -258   -102    -42    278    282 248.3  -8.6  34254  291.17 0855.17
2009/04/23 10:53:17.3    -270   -161    -51    315    320 239.3  -9.3  34234  290.82 0855.17
2009/04/23 10:53:17.4    -295   -168     12    340    341 240.2   2.1  34284  291.69 0855.17
2009/04/23 10:53:17.5    -295   -172     32    342    344 239.8   5.4  34258  291.25 0855.17
2009/04/23 10:53:17.6    -272   -153    -35    313    316 240.7  -6.5  34254  291.16 0855.17
2009/04/23 10:53:17.7    -176   -199    -49    266    271 221.4 -10.5  34248  291.05 0855.17
2009/04/23 10:53:17.8    -182   -239    -49    301    306 217.2  -9.4  34180  289.90 0855.17
2009/04/23 10:53:17.9    -173   -173     26    246    248 225.0   6.1  34184  289.98 0855.17
2009/04/23 10:53:18.0    -170   -114    174    205    268 236.0  44.5  34228  290.73 0855.17
2009/04/23 10:53:18.1     -91   -125     97    155    182 216.1  35.5  34238  290.91 0855.17
2009/04/23 10:53:18.2     -48    -96    164    108    196 206.7  63.6  34234  290.82 0855.17
2009/04/23 10:53:18.3     -43   -182    133    188    230 193.4  38.8  34210  290.43 0855.17
2009/04/23 10:53:18.4    -133   -170    112    217    244 218.1  29.3  34218  290.54 0855.17
2009/04/23 10:53:18.5    -106   -152     36    186    190 215.0  11.1  34198  290.21 0855.17
2009/04/23 10:53:18.6    -144   -103     20    178    180 234.5   6.5  34190  290.08 0855.17
2009/04/23 10:53:18.7     -76    -11     43     77     88 261.2  31.4  34220  290.60 0855.19
2009/04/23 10:53:18.8     -69    -81      3    107    108 220.5   1.8  34218  290.55 0855.19
2009/04/23 10:53:18.9     -30    -68    -20     75     78 203.6 -15.5  34218  290.55 0855.19
2009/04/23 10:53:19.0     -73   -138     46    157    164 208.1  16.3  34176  289.84 0855.19
2009/04/23 10:53:19.1     -35    -78     -1     86     87 204.5  -1.3  34172  289.79 0855.19
2009/04/23 10:53:19.2    -107   -158     28    191    194 214.1   8.5  34156  289.50 0855.19
2009/04/23 10:53:19.3    -160   -166    -29    231    233 223.9  -7.2  34156  289.52 0855.19
2009/04/23 10:53:19.4     -53   -225     80    232    246 193.4  19.2  34174  289.81 0855.19
2009/04/23 10:53:19.5     -23   -299    -21    300    301 184.5  -4.1  34154  289.46 0855.19
2009/04/23 10:53:19.6      13   -290    -26    291    293 177.4  -5.2  34156  289.49 0855.19
2009/04/23 10:53:19.7      59   -309     -7    315    316 169.1  -1.4  34166  289.68 0855.19
2009/04/23 10:53:19.8       4   -349     -5    350    351 179.3  -0.9  34174  289.81 0855.19
2009/04/23 10:53:19.9    -112   -294     62    315    322 201.0  11.1  34164  289.63 0855.19
2009/04/23 10:53:20.0    -175   -219     26    281    283 218.7   5.4  34166  289.66 0855.19
2009/04/23 10:53:20.1    -209   -377     -6    432    433 209.0  -0.9  34158  289.55 0855.19
2009/04/23 10:53:20.2    -183   -331      4    379    380 208.9   0.7  34166  289.69 0855.19
2009/04/23 10:53:20.3      -2   -174    136    175    221 180.9  41.7  34174  289.80 0855.19
2009/04/23 10:53:20.4     -34   -199     45    203    209 189.8  12.6  34162  289.62 0855.19
2009/04/23 10:53:20.5    -109    -90     78    142    162 230.4  31.0  34172  289.77 0855.19
2009/04/23 10:53:20.6    -102    -10     86    103    134 263.9  43.8  34200  290.26 0855.19
2009/04/23 10:53:20.7      20    -88     87     91    125 167.1  49.0  34202  290.28 0855.19
2009/04/23 10:53:20.8      20     20     45     29     53  45.0  64.6  34212  290.47 0855.19
2009/04/23 10:53:20.9     -19     40     20     45     49 333.7  24.1  34214  290.48 0855.19
2009/04/23 10:53:21.0     -58     -4     85     59    103 265.7  62.1  34232  290.81 0855.19
2009/04/23 10:53:21.1    -118     23     70    121    139 281.4  32.4  34224  290.67 0855.19
2009/04/23 10:53:21.2     -71     -9     82     72    109 262.1  53.7  34218  290.57 0855.19
2009/04/23 10:53:21.3     -43    -75     97     87    130 210.3  53.7  34200  290.25 0855.19
2009/04/23 10:53:21.4     -32    -39    110     51    121 219.6  73.5  34212  290.45 0855.19
2009/04/23 10:53:21.5      17     37     79     41     89  24.5  70.4  34208  290.38 0855.19
2009/04/23 10:53:21.6     -57     31    123     66    139 298.8  69.3  34234  290.84 0855.19
2009/04/23 10:53:21.7     -74     40     38     85     93 298.4  25.7  34244  290.99 0855.19
2009/04/23 10:53:21.8     -57     27     65     64     91 295.4  50.1  34236  290.87 0855.19
2009/04/23 10:53:21.9     -10    107     47    108    117 354.7  25.1  34234  290.82 0855.19
2009/04/23 10:53:22.0       6     87     -3     88     89   4.0  -2.2  34232  290.81 0855.19
2009/04/23 10:53:22.1       6     78    -18     79     82   4.5 -12.9  34226  290.70 0855.19
2009/04/23 10:53:22.2    -114     19    -38    116    122 279.7 -23.8  34204  290.31 0855.19
2009/04/23 10:53:22.3    -131    -67   -103    148    180 243.0 -42.8  34210  290.41 0855.19
2009/04/23 10:53:22.4    -239    -35    -94    242    259 261.6 -26.7  34228  290.73 0855.19
2009/04/23 10:53:22.5    -231     -1   -126    232    264 269.6 -35.4  34188  290.05 0855.19
2009/04/23 10:53:22.6    -210     34    -58    213    221 279.2 -15.4  34192  290.13 0855.19
2009/04/23 10:53:22.7    -133    -40    -38    139    145 253.2 -15.4  34220  290.60 0855.12
2009/04/23 10:53:22.8     -54     -4    -16     55     57 265.7 -21.7  34230  290.77 0855.12
2009/04/23 10:53:22.9     -32     -2     46     33     56 265.6  61.5  34236  290.86 0855.12
2009/04/23 10:53:23.0     -36      8    128     38    133 283.3  82.8  34258  291.23 0855.12
2009/04/23 10:53:23.1     -15     -8    121     18    122 241.1  90.0  34262  291.30 0855.12
2009/04/23 10:53:23.2     -89     -6    132     90    159 265.7  62.4  34258  291.23 0855.12
2009/04/23 10:53:23.3     -79      5    148     80    168 274.3  69.3  34254  291.18 0855.12
2009/04/23 10:53:23.4       7     24    120     26    122  16.9  88.0  34258  291.23 0855.12
2009/04/23 10:53:23.5       5     64    100     65    119   4.5  64.1  34256  291.21 0855.12
2009/04/23 10:53:23.6     -45     23     91     51    104 297.1  68.3  34264  291.33 0855.12
2009/04/23 10:53:23.7     -10     78     90     79    119 352.0  54.3  34256  291.20 0855.12
2009/04/23 10:53:23.8     -48     47      4     68     69 314.1   3.8  34278  291.59 0855.12
2009/04/23 10:53:23.9     -39     54     19     67     70 323.9  16.3  34286  291.71 0855.12
2009/04/23 10:53:24.0     -44     66      7     80     81 326.6   5.4  34278  291.57 0855.12
2009/04/23 10:53:24.1     -69     41    -11     81     82 301.1  -8.2  34276  291.54 0855.12
2009/04/23 10:53:24.2    -121    -36     -4    127    128 253.2  -2.2  34274  291.52 0855.12
2009/04/23 10:53:24.3    -141   -103     63    175    185 233.8  20.2  34264  291.33 0855.12
2009/04/23 10:53:24.4     -81    -30    100     87    132 249.6  54.3  34280  291.62 0855.12
2009/04/23 10:53:24.5     -79    -26     67     84    107 251.8  43.3  34262  291.32 0855.12
2009/04/23 10:53:24.6     -97     19     21     99    102 281.5  12.2  34256  291.21 0855.12
2009/04/23 10:53:24.7     -26     79     74     84    111 341.5  46.4  34254  291.16 0855.05
2009/04/23 10:53:24.8      34     56    118     66    135  31.6  68.3  34238  290.89 0855.05
2009/04/23 10:53:24.9      86     30    112     92    144  70.5  56.4  34216  290.52 0855.05
2009/04/23 10:53:25.0       8      0     88      9     88  85.6  90.0  34226  290.70 0855.05
2009/04/23 10:53:25.1      -5    -67     46     68     82 184.5  37.6  34234  290.82 0855.05
2009/04/23 10:53:25.2     -30   -119     87    123    150 194.3  39.1  34236  290.86 0855.05
2009/04/23 10:53:25.3     -42    -97    144    106    178 203.6  60.3  34226  290.69 0855.05
2009/04/23 10:53:25.4    -114    -47     43    124    132 247.4  19.4  34222  290.64 0855.05
2009/04/23 10:53:25.5     -91     80     -6    122    123 311.3  -3.1  34216  290.52 0855.05
2009/04/23 10:53:25.6     -54    -22     64     59     87 247.4  52.2  34212  290.45 0855.05
2009/04/23 10:53:25.7       8     15    117     18    118  29.0  90.0  34216  290.52 0855.05
2009/04/23 10:53:25.8      19   -107    114    109    157 169.8  51.4  34200  290.25 0855.05
2009/04/23 10:53:25.9       7   -137    125    138    186 176.9  46.9  34188  290.06 0855.05
2009/04/23 10:53:26.0    -120   -287    226    312    385 202.7  39.5  34228  290.72 0855.05
2009/04/23 10:53:26.1    -106   -253     63    275    283 202.8  12.9  34216  290.53 0855.05
2009/04/23 10:53:26.2    -141   -270    134    305    333 207.6  25.2  34212  290.44 0855.05
2009/04/23 10:53:26.3    -231   -265    211    352    410 221.1  33.7  34188  290.03 0855.05
2009/04/23 10:53:26.4    -268   -190    193    329    381 234.7  33.3  34194  290.15 0855.05
2009/04/23 10:53:26.5    -306   -110    190    326    377 250.1  32.9  34160  289.57 0855.05
2009/04/23 10:53:26.6    -245     41    192    249    314 279.6  41.5  34186  290.00 0855.05
2009/04/23 10:53:26.7      38    112    152    119    193  18.7  57.9  34196  290.18 0855.04
2009/04/23 10:53:26.8      93    120      7    153    154  37.9   2.8  34192  290.11 0855.04
2009/04/23 10:53:26.9     -13    189     59    190    199 356.0  17.3  34188  290.06 0855.04
2009/04/23 10:53:27.0      -2    -33    175     34    178 184.5  89.8  34212  290.47 0855.04
2009/04/23 10:53:27.1      33    -15    163     37    167 115.2  87.7  34216  290.53 0855.04
2009/04/23 10:53:27.2     144     94     43    173    179  56.7  13.9  34196  290.19 0855.04
2009/04/23 10:53:27.3      33     21     82     40     91  57.6  72.4  34210  290.41 0855.04
2009/04/23 10:53:27.4     -12    -15     69     20     71 217.8  83.9  34224  290.65 0855.04
2009/04/23 10:53:27.5      21      7     56     23     60  71.8  77.0  34230  290.77 0855.04
2009/04/23 10:53:27.6     -12      0     82     13     83 265.6  90.0  34232  290.81 0855.04
2009/04/23 10:53:27.7     -50    -28    120     58    133 240.2  72.8  34218  290.55 0855.04
2009/04/23 10:53:27.8     -45    -30    128     55    139 236.7  75.5  34220  290.60 0855.04
2009/04/23 10:53:27.9     -98     11     71     99    121 276.6  39.5  34214  290.48 0855.04
2009/04/23 10:53:28.0     -58     72     81     93    123 321.3  45.8  34208  290.38 0855.04
2009/04/23 10:53:28.1      47     15    146     50    154  72.3  81.2  34208  290.38 0855.04
2009/04/23 10:53:28.2     153     41    250    159    296  74.9  64.7  34200  290.26 0855.04
2009/04/23 10:53:28.3     234    -47    210    239    318 101.5  46.1  34196  290.17 0855.04
2009/04/23 10:53:28.4     131      3    263    132    294  88.3  71.7  34192  290.12 0855.04
2009/04/23 10:53:28.5     134      6    211    135    250  87.4  64.6  34190  290.08 0855.04
2009/04/23 10:53:28.6      12      4    230     13    230  71.4  90.0  34172  289.79 0855.04
2009/04/23 10:53:28.7       0     -3    191      4    191 189.7  90.0  34176  289.85 0855.05
2009/04/23 10:53:28.8    -147   -272    269    310    410 208.5  45.5  34192  290.10 0855.05
2009/04/23 10:53:28.9      27   -128    181    131    223 168.0  60.6  34178  289.89 0855.05
2009/04/23 10:53:29.0      50   -323    124    328    350 171.1  21.6  34184  289.98 0855.05
2009/04/23 10:53:29.1      -6   -357    211    358    415 181.0  33.3  34182  289.94 0855.05
2009/04/23 10:53:29.2      -3   -369    184    370    413 180.6  28.4  34190  290.08 0855.05
2009/04/23 10:53:29.3     -65   -355    269    362    451 190.5  40.2  34204  290.31 0855.05
2009/04/23 10:53:29.4     -99   -464    203    475    516 192.1  24.6  34192  290.10 0855.05
2009/04/23 10:53:29.5    -156   -480    195    505    541 198.0  22.4  34176  289.84 0855.05
2009/04/23 10:53:29.6     -47   -396    214    399    452 186.8  30.5  34184  289.97 0855.05
2009/04/23 10:53:29.7      -7   -450    262    451    521 181.0  32.9  34184  289.98 0855.05
2009/04/23 10:53:29.8    -130   -506    300    523    602 194.4  32.4  34176  289.85 0855.05
2009/04/23 10:53:29.9    -105   -346    289    362    463 196.9  42.8  34192  290.11 0855.05
2009/04/23 10:53:30.0     -47   -246    240    251    347 190.9  48.6  34204  290.31 0855.05
2009/04/23 10:53:30.1      55    -75    135     94    164 143.9  62.1  34208  290.38 0855.05
2009/04/23 10:53:30.2     -66   -278    276    286    397 193.4  49.0  34188  290.03 0855.05
2009/04/23 10:53:30.3     -24   -360    282    361    458 183.9  41.9  34194  290.16 0855.05
2009/04/23 10:53:30.4     185   -269    279    327    429 145.4  44.9  34178  289.89 0855.05
2009/04/23 10:53:30.5     176   -427    252    462    526 157.6  31.3  34188  290.06 0855.05
2009/04/23 10:53:30.6     112   -420    188    435    473 165.0  24.9  34194  290.14 0855.05
2009/04/23 10:53:30.7       4   -269    272    270    383 179.1  50.1  34182  289.93 0855.09
2009/04/23 10:53:30.8      90   -156    147    181    233 149.9  43.7  34176  289.85 0855.09
2009/04/23 10:53:30.9      86   -278    172    292    338 162.8  33.3  34186  290.00 0855.09
2009/04/23 10:53:31.1      35   -208    102    211    234 170.3  27.3  34182  289.94 0855.09
2009/04/23 10:53:31.1      85   -119    129    147    195 144.4  45.8  34184  289.99 0855.09
2009/04/23 10:53:31.2     144   -118    182    187    260 129.5  49.4  34196  290.17 0855.09
2009/04/23 10:53:31.3      77   -237    206    250    323 162.0  43.7  34182  289.95 0855.09
2009/04/23 10:53:31.4     107    -16    152    109    187  98.8  60.6  34198  290.21 0855.09
2009/04/23 10:53:31.5      79   -128    174    151    230 148.4  54.8  34194  290.16 0855.09
2009/04/23 10:53:31.6      93   -147    194    175    261 147.5  53.3  34188  290.03 0855.09
2009/04/23 10:53:31.7      39   -217    168    221    277 169.8  41.2  34194  290.14 0855.09
2009/04/23 10:53:31.8     251   -161    172    299    344 122.6  32.6  34188  290.03 0855.09
2009/04/23 10:53:31.9     153     -2    223    154    271  90.8  62.4  34188  290.03 0855.09
2009/04/23 10:53:32.0     172     22    221    174    281  82.5  57.9  34184  289.98 0855.09
2009/04/23 10:53:32.1      34    -53    123     64    138 147.5  70.8  34190  290.08 0855.09
2009/04/23 10:53:32.2      40    -36    134     54    144 132.2  77.1  34200  290.25 0855.09
2009/04/23 10:53:32.3     124    -10    205    125    240  94.8  65.7  34182  289.96 0855.09
2009/04/23 10:53:32.4       0    -16    146     17    146 182.7  90.0  34192  290.13 0855.09
2009/04/23 10:53:32.5      40     13    116     43    123  72.3  79.2  34190  290.08 0855.09
2009/04/23 10:53:32.6     -82   -129    184    153    239 212.5  56.3  34182  289.96 0855.09
2009/04/23 10:53:32.7    -154     41    108    160    193 285.0  37.0  34182  289.96 0855.14
2009/04/23 10:53:32.8     -76     25    154     81    174 288.4  70.0  34188  290.04 0855.14
2009/04/23 10:53:32.9     119      9    100    120    156  85.6  44.3  34170  289.75 0855.14
2009/04/23 10:53:33.0     111     20    129    113    171  79.4  54.3  34184  289.99 0855.14
2009/04/23 10:53:33.1      39     44    112     59    126  41.4  70.4  34186  290.02 0855.14
2009/04/23 10:53:33.2     140    -16    127    141    189  96.6  46.9  34182  289.94 0855.14
2009/04/23 10:53:33.3      32    -67    141     75    159 154.5  69.8  34194  290.16 0855.14
2009/04/23 10:53:33.4     172   -165    219    239    324 133.8  47.1  34182  289.95 0855.14
2009/04/23 10:53:33.5     147   -109    195    184    268 126.6  52.1  34188  290.05 0855.14
2009/04/23 10:53:33.6     155    -90    219    180    283 120.0  56.4  34180  289.92 0855.14
2009/04/23 10:53:33.7      72    -52    168     90    190 126.0  69.6  34176  289.85 0855.14
2009/04/23 10:53:33.8     206    -26    236    208    314  97.2  54.2  34176  289.85 0855.14
2009/04/23 10:53:33.9     215     -9    217    216    306  92.5  50.1  34170  289.75 0855.14
2009/04/23 10:53:34.0     259   -107    213    281    352 112.6  41.1  34176  289.84 0855.14
2009/04/23 10:53:34.1     196   -112    191    226    295 119.8  44.5  34180  289.90 0855.14
2009/04/23 10:53:34.2     159    -91    178    184    256 119.8  49.0  34190  290.07 0855.14
2009/04/23 10:53:34.3     167   -103    206    197    285 121.8  51.2  34184  289.97 0855.14
2009/04/23 10:53:34.4     197     -5    138    198    241  91.5  38.4  34174  289.82 0855.14
2009/04/23 10:53:34.5     236     95     44    255    259  68.0  10.0  34174  289.80 0855.14
2009/04/23 10:53:34.6     248     68    127    258    287  74.5  28.2  34174  289.81 0855.14
2009/04/23 10:53:34.7     172     -3    108    173    203  91.3  35.2  34174  289.82 0855.17
2009/04/23 10:53:34.8     238     18    266    239    357  85.6  53.5  34176  289.85 0855.17
2009/04/23 10:53:34.9     186    -12    162    187    247  93.7  45.4  34188  290.04 0855.17
2009/04/23 10:53:35.0      94    -41    100    103    143 113.5  49.4  34186  290.02 0855.17
2009/04/23 10:53:35.1      71     26     28     76     81  69.2  21.0  34190  290.08 0855.17
2009/04/23 10:53:35.2      66     26    128     72    146  68.3  68.8  34196  290.18 0855.17
2009/04/23 10:53:35.4      50    115     74    126    146  23.6  33.5  34200  290.26 0855.17
2009/04/23 10:53:35.5      74     24     -9     78     79  71.8  -6.7  34198  290.21 0855.17
2009/04/23 10:53:35.6      -7    -46     85     47     97 189.8  68.3  34200  290.26 0855.17
2009/04/23 10:53:35.7     125      7     20    126    128  86.5   9.0  34196  290.19 0855.17
2009/04/23 10:53:35.8      74     29    -42     80     90  68.3 -34.2  34192  290.11 0855.19
2009/04/23 10:53:35.9     106     12    -13    107    108  83.0  -7.3  34192  290.11 0855.19
2009/04/23 10:53:36.0      71     46    -38     85     93  57.1 -30.1  34186  290.02 0855.19
2009/04/23 10:53:36.1      40     32    -92     52    105  51.4 -72.7  34192  290.11 0855.19
2009/04/23 10:53:36.2      64     73    -95     98    136  41.0 -54.3  34184  289.99 0855.19
2009/04/23 10:53:36.3      72     24    -68     76    101  71.4 -51.3  34196  290.19 0855.19
2009/04/23 10:53:36.4      62     18    -88     65    109  73.2 -64.9  34186  290.02 0855.19
2009/04/23 10:53:36.5      87     42    -94     97    135  64.2 -54.3  34184  289.99 0855.19
2009/04/23 10:53:36.6     198    -31    -79    201    215  99.0 -27.4  34184  289.97 0855.19
2009/04/23 10:53:36.7     223    -59    -50    231    237 105.0 -12.4  34182  289.95 0855.19
2009/04/23 10:53:36.8     157    -99    -81    186    202 122.4 -29.5  34182  289.94 0855.19
2009/04/23 10:53:36.9     150    -93     80    177    194 121.8  26.2  34180  289.92 0855.19
2009/04/23 10:53:37.0     134   -167    146    215    259 141.3  37.6  34180  289.92 0855.19
2009/04/23 10:53:37.1     264   -145    167    302    345 118.9  31.4  34178  289.89 0855.19
2009/04/23 10:53:37.2     251    -81    152    264    304 107.9  32.4  34178  289.86 0855.19
2009/04/23 10:53:37.3     301    -35    237    304    385  96.8  41.9  34178  289.87 0855.19
2009/04/23 10:53:37.4     106    -48    241    117    267 114.4  72.7  34184  289.97 0855.19
2009/04/23 10:53:37.5     128     36    213    134    251  74.1  64.7  34182  289.96 0855.19
2009/04/23 10:53:37.6     123     52    141    134    194  66.9  51.4  34172  289.79 0855.19
2009/04/23 10:53:37.7     146      6    177    147    230  87.5  56.3  34168  289.72 0855.19
2009/04/23 10:53:37.8     185     69    268    198    333  69.6  60.0  34178  289.86 0855.15
2009/04/23 10:53:37.9     216    -68    133    227    263 107.7  33.4  34172  289.78 0855.15
2009/04/23 10:53:38.0     212    -13    108    213    238  93.7  29.1  34170  289.75 0855.15
2009/04/23 10:53:38.1      74     43    155     86    177  59.8  68.8  34184  289.97 0855.15
2009/04/23 10:53:38.2     136    -36    139    141    197 105.0  49.9  34176  289.84 0855.15
2009/04/23 10:53:38.3     158    -38    132    163    209 103.7  43.5  34176  289.85 0855.15
2009/04/23 10:53:38.4     173   -121    122    212    244 125.1  32.4  34174  289.80 0855.15
2009/04/23 10:53:38.5     197   -143    161    244    292 126.0  36.5  34176  289.83 0855.15
2009/04/23 10:53:38.6     126   -166    127    209    244 142.8  34.4  34178  289.88 0855.15
2009/04/23 10:53:38.7     109    -41    121    117    168 110.8  50.9  34178  289.87 0855.15
2009/04/23 10:53:38.8     171    -52     88    179    199 107.1  28.0  34174  289.80 0855.15
2009/04/23 10:53:38.9     185    -44    115    191    222 103.5  34.0  34172  289.77 0855.15
2009/04/23 10:53:39.0     163    -63     71    175    188 111.3  23.1  34170  289.74 0855.15
2009/04/23 10:53:39.1     168   -121     37    208    212 125.9  10.1  34162  289.62 0855.15
2009/04/23 10:53:39.2     197   -101     39    222    226 117.3  10.1  34168  289.72 0855.15
2009/04/23 10:53:39.3     193    -64     89    204    222 108.4  25.1  34172  289.77 0855.15
2009/04/23 10:53:39.4     197    -35     82    201    217 100.1  23.1  34166  289.69 0855.15
2009/04/23 10:53:39.5     277    -30    102    279    297  96.2  21.0  34172  289.78 0855.15
2009/04/23 10:53:39.6     269     47     53    274    280  80.1  11.1  34170  289.73 0855.15
2009/04/23 10:53:39.7     220     23    -53    222    229  83.9 -13.4  34170  289.74 0855.15
2009/04/23 10:53:39.8     103    103     59    146    157  45.0  23.0  34168  289.70 0855.11
2009/04/23 10:53:39.9     128    178     34    220    223  35.6   8.9  34170  289.74 0855.11
2009/04/23 10:53:40.0      49    177     -4    184    185  15.6  -1.3  34172  289.79 0855.11
2009/04/23 10:53:40.1      19    183     12    185    186   6.0   3.8  34172  289.77 0855.11
2009/04/23 10:53:40.2      40    148      3    154    155  15.2   1.2  34172  289.79 0855.11
2009/04/23 10:53:40.3      44    139     12    146    147  17.8   4.9  34172  289.79 0855.11
2009/04/23 10:53:40.4      98    155     46    184    190  32.5  14.3  34168  289.72 0855.11
2009/04/23 10:53:40.5      99    160     38    189    193  31.6  11.4  34170  289.75 0855.11
2009/04/23 10:53:40.6     211    162     89    267    282  52.5  18.6  34174  289.80 0855.11
2009/04/23 10:53:40.7     244     56    125    251    280  77.0  28.5  34176  289.83 0855.11
2009/04/23 10:53:40.8     227     95     22    247    249  67.2   5.2  34174  289.80 0855.11
2009/04/23 10:53:40.9     258     93     80    275    287  70.1  16.3  34180  289.90 0855.11
2009/04/23 10:53:41.0     236     93     79    254    267  68.5  17.3  34176  289.83 0855.11
2009/04/23 10:53:41.1     212     76     81    226    240  70.3  20.4  34178  289.86 0855.11
2009/04/23 10:53:41.2     233     89     39    250    254  69.1   8.9  34176  289.85 0855.11
2009/04/23 10:53:41.3     269     -4     67    270    279  90.9  13.9  34178  289.88 0855.11
2009/04/23 10:53:41.4     271     56     65    277    285  78.3  13.2  34176  289.85 0855.11
2009/04/23 10:53:41.5     235     54     67    242    252  77.0  15.6  34178  289.88 0855.11
2009/04/23 10:53:41.6     251     38     82    254    267  81.2  17.9  34182  289.95 0855.11
2009/04/23 10:53:41.7     180     30     94    183    205  80.3  29.2  34190  290.08 0855.11
2009/04/23 10:53:41.8     122     20    140    124    187  80.4  54.0  34200  290.25 0855.11
2009/04/23 10:53:41.9     215     16    131    216    252  85.7  34.4  34182  289.93 0855.11
2009/04/23 10:53:42.0     214     -9    115    215    243  92.6  30.3  34188  290.03 0855.11
2009/04/23 10:53:42.1     314     53    156    319    355  80.4  27.9  34188  290.03 0855.11
2009/04/23 10:53:42.2     380     89    141    391    416  76.8  19.9  34178  289.87 0855.11
2009/04/23 10:53:42.3     286     31    151    288    325  83.8  29.8  34160  289.58 0855.11
2009/04/23 10:53:42.4     215     43    121    220    251  78.5  31.3  34174  289.80 0855.11
2009/04/23 10:53:42.5     180    -53    129    188    228 106.6  37.6  34178  289.89 0855.11
2009/04/23 10:53:42.6     263     -7    102    264    283  91.7  22.1  34178  289.88 0855.11
2009/04/23 10:53:42.7     215    -56    131    223    258 104.8  33.1  34174  289.81 0855.11
2009/04/23 10:53:42.8     220   -101    137    243    278 114.6  31.9  34180  289.92 0855.11
2009/04/23 10:53:42.9     223    -58    133    231    266 104.8  32.4  34180  289.90 0855.11
2009/04/23 10:53:43.0     255    -45    185    260    319 100.1  39.0  34178  289.86 0855.11
2009/04/23 10:53:43.1     198    -80    211    214    300 112.2  49.9  34182  289.93 0855.11
2009/04/23 10:53:43.2     217   -179    103    282    300 129.5  20.9  34178  289.88 0855.11
2009/04/23 10:53:43.3     202   -195    116    282    304 134.0  23.6  34180  289.92 0855.11
2009/04/23 10:53:43.4     206   -159    172    261    312 127.8  36.5  34184  289.98 0855.11
2009/04/23 10:53:43.5     216   -138    168    257    307 122.5  36.0  34184  289.97 0855.11
2009/04/23 10:53:43.6     260    -78    127    272    300 106.8  27.1  34186  290.02 0855.11
2009/04/23 10:53:43.7     205   -108     86    232    247 117.8  21.3  34180  289.92 0855.11
2009/04/23 10:53:43.8     201    -27     83    203    219  97.9  23.1  34168  289.72 0855.11
2009/04/23 10:53:43.9     182    -46     51    188    195 104.2  15.3  34176  289.84 0855.11
2009/04/23 10:53:44.0     175    -35     48    179    186 101.4  15.2  34176  289.85 0855.11
2009/04/23 10:53:44.1     206     23     82    208    223  83.6  22.8  34164  289.65 0855.11
2009/04/23 10:53:44.2     199      8     31    200    203  87.6   8.8  34168  289.70 0855.11
2009/04/23 10:53:44.3     131    -75    -40    152    158 119.8 -14.7  34170  289.75 0855.11
2009/04/23 10:53:44.4     147    -29     18    150    152 101.4   7.1  34170  289.74 0855.11
2009/04/23 10:53:44.5     168     -6     73    169    184  92.1  24.9  34170  289.74 0855.11
2009/04/23 10:53:44.6     197      0     80    198    213  90.0  23.0  34162  289.62 0855.11
2009/04/23 10:53:44.7     196     26     92    198    218  82.3  27.1  34168  289.72 0855.11
2009/04/23 10:53:44.8     191     42     98    196    219  77.4  28.7  34172  289.77 0855.11
2009/04/23 10:53:44.9      89    -89     78    126    148 135.0  35.5  34182  289.96 0855.11
2009/04/23 10:53:45.0      66    -90     70    112    132 143.9  35.5  34178  289.89 0855.11
2009/04/23 10:53:45.1      76    -36     56     85    101 115.4  36.5  34180  289.91 0855.11
2009/04/23 10:53:45.2     124      9     92    125    155  85.7  39.7  34172  289.79 0855.11
2009/04/23 10:53:45.3     153    -18     64    155    167  97.0  23.6  34186  290.02 0855.11
2009/04/23 10:53:45.4     100      0     80    101    128  90.0  42.7  34192  290.13 0855.11
2009/04/23 10:53:45.5     103     -4     93    104    139  92.6  46.9  34206  290.36 0855.11
2009/04/23 10:53:45.6      84     27     89     89    125  72.3  50.1  34188  290.04 0855.11
2009/04/23 10:53:45.7     104    -11     60    105    120  96.1  32.4  34194  290.16 0855.11
2009/04/23 10:53:45.8     122    -21     41    124    131 100.1  18.4  34192  290.11 0855.10
2009/04/23 10:53:45.9      80    -19     29     83     89 103.7  19.4  34190  290.08 0855.10
2009/04/23 10:53:46.0      78     44     64     90    110  60.2  39.5  34198  290.21 0855.10
2009/04/23 10:53:46.1      76     55     63     95    113  54.0  36.0  34190  290.09 0855.10
2009/04/23 10:53:46.2      92     57     67    109    127  58.0  35.0  34200  290.25 0855.10
2009/04/23 10:53:46.3     156     58     69    167    180  69.4  23.6  34202  290.28 0855.10
2009/04/23 10:53:46.4      94     59     59    112    126  58.0  29.8  34232  290.79 0855.10
2009/04/23 10:53:46.5     111     19     70    113    132  79.9  35.5  34198  290.23 0855.10
2009/04/23 10:53:46.6     106     34     65    112    129  71.8  32.9  34196  290.18 0855.10
2009/04/23 10:53:46.7     113    100     52    152    161  48.6  19.2  34208  290.38 0855.10
2009/04/23 10:53:46.8     146     89     42    172    178  58.7  13.7  34198  290.23 0855.10
2009/04/23 10:53:46.9     130     71     28    149    152  61.1  11.0  34228  290.74 0855.10
2009/04/23 10:53:47.0     130     94     34    161    165  54.0  12.2  34238  290.91 0855.10
2009/04/23 10:53:47.1     137     98     -3    169    170  54.3  -1.3  34224  290.65 0855.10
2009/04/23 10:53:47.2     114     90    -28    146    149  51.8 -10.9  34220  290.60 0855.10
2009/04/23 10:53:47.3      93     84      7    126    127  47.8   3.3  34222  290.64 0855.10
2009/04/23 10:53:47.4      54    105      4    119    120  27.2   2.3  34224  290.65 0855.10
2009/04/23 10:53:47.5      30    123    -30    127    131  13.8 -13.4  34220  290.58 0855.10
2009/04/23 10:53:47.6      17    136    -17    138    140   7.1  -7.2  34228  290.72 0855.10
2009/04/23 10:53:47.7      34    204     40    207    212   9.6  11.1  34272  291.49 0855.10
2009/04/23 10:53:47.8      60    153     30    165    168  21.4  10.6  34284  291.67 0855.10
2009/04/23 10:53:47.9      84    131     59    156    166  32.6  21.5  34300  291.95 0855.10
2009/04/23 10:53:48.0      84    175      1    195    196  25.6   0.5  34306  292.05 0855.10
2009/04/23 10:53:48.1      67    131     41    148    154  27.2  15.8  34318  292.27 0855.10
2009/04/23 10:53:48.2      69    135     86    152    174  27.1  32.4  34274  291.52 0855.10
2009/04/23 10:53:48.3     105     87     47    137    146  50.4  19.2  34280  291.62 0855.10
2009/04/23 10:53:48.4      78    102     40    129    136  37.4  17.3  34284  291.69 0855.10
2009/04/23 10:53:48.5     187    119     89    222    239  57.5  23.0  34308  292.07 0855.10
2009/04/23 10:53:48.6     143    134     -3    197    198  46.9  -1.2  34314  292.20 0855.10
2009/04/23 10:53:48.7     157    120    -55    198    206  52.5 -15.5  34302  291.98 0855.10
2009/04/23 10:53:48.8     177     59    -38    187    191  71.4 -11.6  34296  291.89 0855.10
2009/04/23 10:53:48.9     270     20      2    271    272  85.6   0.5  34234  290.82 0855.10
2009/04/23 10:53:49.0     296     70     -6    305    306  76.7  -1.3  34252  291.14 0855.10
2009/04/23 10:53:49.1     257    126     73    287    297  63.8  14.3  34262  291.31 0855.10
2009/04/23 10:53:49.2     246    156     56    292    298  57.6  11.0  34252  291.14 0855.10
2009/04/23 10:53:49.3     184    152    148    239    281  50.4  34.8  34266  291.38 0855.10
2009/04/23 10:53:49.4     208    103    135    233    269  63.6  32.7  34280  291.61 0855.10
2009/04/23 10:53:49.5     172     37    138    177    224  77.8  41.7  34276  291.55 0855.10
2009/04/23 10:53:49.6     150     99    142    181    230  56.5  42.2  34266  291.38 0855.10
2009/04/23 10:53:49.7     133     83    173    158    234  58.0  52.7  34274  291.52 0855.10
2009/04/23 10:53:49.8     133     53     71    144    160  68.2  28.2  34270  291.45 0855.12
2009/04/23 10:53:49.9     123    119      8    172    173  45.8   2.8  34262  291.32 0855.12
2009/04/23 10:53:50.0     189    159     37    248    251  50.0   8.5  34254  291.17 0855.12
2009/04/23 10:53:50.1     210    143     95    255    272  55.8  21.3  34262  291.29 0855.12
2009/04/23 10:53:50.2     252     77     23    264    266  72.9   5.0  34254  291.17 0855.12
2009/04/23 10:53:50.3     278    109     -1    299    300  68.5  -0.3  34256  291.21 0855.12
2009/04/23 10:53:50.4     286     93     22    301    302  71.8   4.2  34260  291.26 0855.12
2009/04/23 10:53:50.5     315     95     -7    329    330  73.2  -1.3  34262  291.30 0855.12
2009/04/23 10:53:50.6     283    147    -61    320    326  62.5 -10.9  34264  291.34 0855.12
2009/04/23 10:53:50.7     344    117    -22    364    365  71.2  -3.5  34262  291.32 0855.12
2009/04/23 10:53:50.8     226    125     66    259    268  61.1  14.3  34266  291.38 0855.12
2009/04/23 10:53:50.9     265    115    -52    289    294  66.5 -10.3  34260  291.26 0855.12
2009/04/23 10:53:51.0     211    123     21    245    246  59.6   5.0  34260  291.27 0855.12
2009/04/23 10:53:51.1     189     59     95    199    220  72.5  27.3  34262  291.32 0855.12
2009/04/23 10:53:51.2     120     46     66    129    144  68.7  29.3  34260  291.26 0855.12
2009/04/23 10:53:51.3      44    156    -60    163    173  15.8 -25.1  34224  290.65 0855.12
2009/04/23 10:53:51.4      60    184    -25    194    196  18.0  -7.5  34230  290.75 0855.12
2009/04/23 10:53:51.5      60    211    -36    220    223  16.0  -9.3  34238  290.89 0855.12
2009/04/23 10:53:51.6      15    187    -44    188    194   4.9 -13.2  34238  290.91 0855.12
2009/04/23 10:53:51.7     -10    162     20    163    165 356.4   7.2  34256  291.21 0855.12
2009/04/23 10:53:51.8      39    118     45    125    132  18.5  20.4  34274  291.52 0855.14
2009/04/23 10:53:51.9      26     99     37    103    109  14.7  20.0  34262  291.32 0855.14
2009/04/23 10:53:52.0      34    122     14    127    128  15.6   6.5  34260  291.26 0855.14
2009/04/23 10:53:52.1      28     83    -38     88     95  18.7 -29.5  34262  291.32 0855.14
2009/04/23 10:53:52.2      48     80    -36     94    100  31.2 -26.9  34258  291.25 0855.14
2009/04/23 10:53:52.3      45     73    -28     86     91  31.6 -18.1  34258  291.23 0855.14
2009/04/23 10:53:52.4     -19     57     -8     61     62 341.5  -8.2  34256  291.20 0855.14
2009/04/23 10:53:52.5      -8     15    -36     18     40 331.0 -75.2  34262  291.30 0855.14
2009/04/23 10:53:52.6       5    -17    -41     18     44 161.5 -80.5  34268  291.40 0855.14
2009/04/23 10:53:52.7      44    -33    -34     56     65 126.9 -39.9  34270  291.45 0855.14
2009/04/23 10:53:52.8      79    -38    -32     88     93 115.8 -24.4  34266  291.38 0855.14
2009/04/23 10:53:52.9     205    -25    -64    207    216  97.0 -21.8  34238  290.89 0855.14
2009/04/23 10:53:53.0     242    -11     34    243    246  92.8   8.0  34232  290.78 0855.14
2009/04/23 10:53:53.1     312    -52    -44    317    320  99.6  -7.9  34232  290.78 0855.14
2009/04/23 10:53:53.2     254   -136    -36    289    292 118.2  -7.2  34224  290.65 0855.14
2009/04/23 10:53:53.3     231    -55     -4    238    239 103.5  -1.1  34208  290.39 0855.14
2009/04/23 10:53:53.4     247    -66     13    256    257 105.1   2.9  34212  290.46 0855.14
2009/04/23 10:53:53.5     241    -85     -5    256    257 109.5  -1.3  34220  290.58 0855.14
2009/04/23 10:53:53.6     262      3    -57    263    270  89.2 -12.4  34220  290.58 0855.14
2009/04/23 10:53:53.7     300     11     17    301    302  87.9   3.3  34220  290.59 0855.14
2009/04/23 10:53:53.8     285    140   -107    318    336  63.8 -18.6  34228  290.72 0855.18
2009/04/23 10:53:53.9     170     68   -152    184    238  68.0 -48.1  34236  290.86 0855.18
2009/04/23 10:53:54.0     214    127   -121    250    277  59.3 -32.2  34196  290.17 0855.18
2009/04/23 10:53:54.1     125     81   -193    150    244  57.1 -62.8  34210  290.41 0855.18
2009/04/23 10:53:54.2     254    111    -32    278    280  66.4  -6.7  34218  290.54 0855.18
2009/04/23 10:53:54.3     233     74    -81    245    258  72.3 -23.8  34210  290.41 0855.18
2009/04/23 10:53:54.4     155     82    -35    176    180  62.0 -11.5  34206  290.36 0855.18
2009/04/23 10:53:54.5     177    119    -27    214    216  55.9  -7.3  34210  290.41 0855.18
2009/04/23 10:53:54.6     198     30     60    201    210  81.2  16.8  34206  290.36 0855.18
2009/04/23 10:53:54.7     194     28     -7    197    198  81.6  -2.1  34202  290.30 0855.18
2009/04/23 10:53:54.8     256    -19   -147    257    296  94.3 -36.8  34206  290.34 0855.18
2009/04/23 10:53:54.9     249    -17    -54    250    256  94.1 -12.4  34188  290.05 0855.18
2009/04/23 10:53:55.0     240      1    -69    241    251  89.6 -16.0  34200  290.26 0855.18
2009/04/23 10:53:55.1     157     12   -101    158    187  85.6 -40.0  34214  290.50 0855.18
2009/04/23 10:53:55.2     205    -40    -60    210    218 101.2 -20.7  34208  290.40 0855.18
2009/04/23 10:53:55.3     214     13    -32    215    218  86.5  -8.6  34206  290.35 0855.18
2009/04/23 10:53:55.4     176    -32     -6    179    180 100.4  -2.1  34206  290.35 0855.18
2009/04/23 10:53:55.5     247     -3     12    248    249  90.8   2.9  34200  290.26 0855.18
2009/04/23 10:53:55.6     287      8     82    288    300  88.3  16.0  34204  290.32 0855.18
2009/04/23 10:53:55.7     235     63     -1    244    245  74.9  -0.3  34202  290.29 0855.18
2009/04/23 10:53:55.8     164     82    -99    184    208  63.4 -35.0  34202  290.30 0855.19
2009/04/23 10:53:55.9     251     93   -140    268    302  69.6 -33.9  34206  290.36 0855.19
2009/04/23 10:53:56.0     253     87   -135    268    300  71.0 -33.1  34190  290.07 0855.19
2009/04/23 10:53:56.1     282    108    -60    303    310  68.9 -11.3  34176  289.85 0855.19
2009/04/23 10:53:56.2     300    131    -58    328    334  66.3 -10.1  34174  289.81 0855.19
2009/04/23 10:53:56.3     284    144    -85    319    331  63.0 -15.0  34176  289.85 0855.19
2009/04/23 10:53:56.4     309    154      9    346    347  63.4   1.5  34178  289.89 0855.19
2009/04/23 10:53:56.5     308    185     84    360    370  59.0  13.2  34188  290.04 0855.19
2009/04/23 10:53:56.6     238    172     92    294    309  54.1  17.4  34192  290.10 0855.19
2009/04/23 10:53:56.7     195    138     99    239    258  54.7  23.6  34190  290.09 0855.19
2009/04/23 10:53:56.8     174      5    173    175    246  88.3  49.9  34190  290.08 0855.19
2009/04/23 10:53:56.9     117    -43    159    125    202 110.4  58.2  34200  290.26 0855.19
2009/04/23 10:53:57.0       2    -31    109     32    113 175.5  83.3  34206  290.36 0855.19
2009/04/23 10:53:57.1     131    -10    168    132    213  94.4  57.9  34196  290.19 0855.19
2009/04/23 10:53:57.2     159     14    105    160    191  84.8  36.0  34188  290.06 0855.19
2009/04/23 10:53:57.3     146    -30    131    150    199 101.9  45.8  34184  289.99 0855.19
2009/04/23 10:53:57.4      98    -19    164    100    192 101.5  65.4  34200  290.25 0855.19
2009/04/23 10:53:57.5     175      1     96    176    200  89.4  31.0  34186  290.02 0855.19
2009/04/23 10:53:57.6     136     10     76    137    156  85.7  31.6  34192  290.13 0855.19
2009/04/23 10:53:57.7     121    -43     65    129    144 109.9  29.2  34192  290.13 0855.19
2009/04/23 10:53:57.8     118     -9    101    119    156  94.4  44.8  34196  290.18 0855.19
2009/04/23 10:53:57.9      95    -49    128    108    167 117.5  55.6  34200  290.25 0855.19
2009/04/23 10:53:58.0     -23    -19    121     31    124 230.4  85.4  34216  290.52 0855.19
2009/04/23 10:53:58.1     150    -30    142    154    209 101.5  47.7  34198  290.21 0855.19
2009/04/23 10:53:58.2     103    -30    141    108    177 106.4  58.7  34204  290.33 0855.19
2009/04/23 10:53:58.3      26      7     94     27     97  74.9  83.3  34216  290.53 0855.19
2009/04/23 10:53:58.4      -5    -72     56     73     92 184.5  41.7  34210  290.41 0855.19
2009/04/23 10:53:58.5      -2   -126     75    127    147 181.0  33.5  34202  290.28 0855.19
2009/04/23 10:53:58.6      -7   -160    109    161    194 182.5  37.0  34204  290.31 0855.19
2009/04/23 10:53:58.7     -41   -173    116    178    212 193.4  35.7  34202  290.28 0855.19
2009/04/23 10:53:58.8      -5   -214    221    215    308 181.4  50.7  34214  290.49 0855.17
2009/04/23 10:53:58.9      63   -239    168    248    299 165.1  37.4  34222  290.63 0855.17
2009/04/23 10:53:59.0      36   -185    150    189    241 168.9  42.7  34218  290.57 0855.17
2009/04/23 10:53:59.1      31   -236    119    239    266 172.4  28.2  34216  290.53 0855.17
2009/04/23 10:53:59.2      24   -262     99    264    281 174.7  21.3  34210  290.41 0855.17
2009/04/23 10:53:59.3      35   -283    144    286    320 172.9  28.7  34224  290.65 0855.17
2009/04/23 10:53:59.4      11   -221    134    222    259 177.1  34.0  34224  290.66 0855.17
2009/04/23 10:53:59.5       3   -222    137    223    261 179.1  34.8  34232  290.80 0855.17
2009/04/23 10:53:59.6       0   -219    117    220    249 179.8  30.2  34224  290.66 0855.17
2009/04/23 10:53:59.7      -5   -206    131    207    244 181.4  35.5  34224  290.65 0855.17
2009/04/23 10:53:59.8      -7   -195    148    196    245 182.2  40.9  34220  290.60 0855.17
2009/04/23 10:53:59.9       2   -148    139    149    203 179.1  48.0  34220  290.58 0855.17
2009/04/23 10:54:00.0       4   -225    150    226    271 178.9  36.5  34216  290.53 0855.17
2009/04/23 10:54:00.1     -72   -230    166    242    293 197.4  37.8  34212  290.46 0855.17
2009/04/23 10:54:00.2     -11   -230    164    231    283 182.9  38.6  34216  290.51 0855.17
2009/04/23 10:54:00.3     -32   -236    126    239    270 187.8  30.1  34212  290.46 0855.17
2009/04/23 10:54:00.4     -84   -249     92    263    279 198.7  19.4  34212  290.44 0855.17
2009/04/23 10:54:00.5    -120   -259    101    286    303 204.9  20.0  34210  290.41 0855.17
2009/04/23 10:54:00.6     -60   -224    100    232    252 195.1  24.9  34204  290.32 0855.17
2009/04/23 10:54:00.7     -77   -212     78    226    240 200.0  19.2  34208  290.39 0855.17
2009/04/23 10:54:00.8     -80   -158    103    178    205 207.0  32.9  34198  290.21 0855.19
2009/04/23 10:54:00.9    -101   -134    107    169    200 217.0  35.5  34202  290.28 0855.19
2009/04/23 10:54:01.0    -106    -89     63    139    152 230.0  26.2  34206  290.36 0855.19
2009/04/23 10:54:01.1     -90    -56     44    107    115 238.0  23.1  34210  290.43 0855.19
2009/04/23 10:54:01.3     -90    -31     15     96     98 250.9   9.0  34212  290.45 0855.19
2009/04/23 10:54:01.3     -60    -23     37     65     74 249.2  32.4  34212  290.45 0855.19
2009/04/23 10:54:01.4     -27     12     56     30     63 295.2  68.9  34220  290.60 0855.19
2009/04/23 10:54:01.5       3     41     28     42     50   4.4  36.5  34226  290.69 0855.19
2009/04/23 10:54:01.6      -7      0     26      8     27 270.0  80.7  34224  290.67 0855.19
2009/04/23 10:54:01.7      -4     12    -26     13     29 341.7 -77.3  34220  290.60 0855.19
2009/04/23 10:54:01.8      29    -17    -40     34     52 120.7 -59.8  34216  290.53 0855.19
2009/04/23 10:54:01.9      55    -78      7     96     97 144.4   4.4  34212  290.47 0855.19
2009/04/23 10:54:02.1      73    -44    -30     86     92 121.1 -19.7  34202  290.30 0855.19
2009/04/23 10:54:02.2     130    -60      0    144    145 114.8   0.2  34188  290.04 0855.19
2009/04/23 10:54:02.3      23    -57   -110     62    126 158.2 -72.7  34184  289.97 0855.19
2009/04/23 10:54:02.4       0    -55    -53     56     77 179.1 -53.4  34194  290.14 0855.19
2009/04/23 10:54:02.5     -48     -3     43     49     65 265.6  46.9  34192  290.13 0855.19
2009/04/23 10:54:02.6      -6      0     70      7     70 265.6  90.0  34196  290.19 0855.19
2009/04/23 10:54:02.7     -29      3     38     30     48 276.1  57.5  34212  290.45 0855.19
2009/04/23 10:54:02.8     -11    -16     14     20     24 216.1  39.7  34212  290.47 0855.19
2009/04/23 10:54:02.9       5     12     -4     14     14  21.8 -23.8  34210  290.43 0855.18
2009/04/23 10:54:03.0     -24      7     -8     26     27 286.8 -23.8  34210  290.41 0855.18
2009/04/23 10:54:03.1     -11    -38     -5     40     41 196.0  -7.3  34212  290.45 0855.18
2009/04/23 10:54:03.2      50      7     52     51     72  81.2  49.1  34198  290.23 0855.18
2009/04/23 10:54:03.3      43    -45     38     63     73 136.7  34.4  34190  290.08 0855.18
2009/04/23 10:54:03.4      51    -92      5    106    107 151.1   2.8  34200  290.25 0855.18
2009/04/23 10:54:03.5      79   -112     10    138    139 144.8   4.4  34196  290.18 0855.18
2009/04/23 10:54:03.6      66    -90      5    112    113 143.5   2.9  34196  290.19 0855.18
2009/04/23 10:54:03.7      96    -79    -15    125    126 129.5  -7.2  34192  290.13 0855.18
2009/04/23 10:54:03.8     114     40    -23    121    124  70.5 -10.9  34200  290.26 0855.18
2009/04/23 10:54:03.9     100     -3     11    101    102  91.7   6.5  34192  290.13 0855.18
2009/04/23 10:54:04.0      61      4     53     62     81  85.7  45.4  34190  290.09 0855.18
2009/04/23 10:54:04.1      53    -25     76     59     96 115.2  57.9  34190  290.09 0855.18
2009/04/23 10:54:04.2      76     -5     54     77     94  94.3  38.0  34184  289.97 0855.18
2009/04/23 10:54:04.3      80     39     74     90    116  63.8  43.7  34168  289.72 0855.18
2009/04/23 10:54:04.4      68     11     85     69    109  80.3  56.4  34184  289.97 0855.18
2009/04/23 10:54:04.5      90    -12    117     91    148  97.9  58.4  34180  289.92 0855.18
2009/04/23 10:54:04.6      44      0     98     45    107  89.2  73.5  34188  290.04 0855.18
2009/04/23 10:54:04.7      92      3    130     93    159  87.9  61.1  34184  289.97 0855.18
2009/04/23 10:54:04.8     205     21    156    207    259  83.9  40.7  34188  290.05 0855.18
2009/04/23 10:54:04.9     179     13    159    180    240  85.7  45.9  34190  290.09 0855.21
2009/04/23 10:54:05.0     180     13    142    181    230  85.6  42.2  34192  290.13 0855.21
2009/04/23 10:54:05.1     205     30    149    208    255  81.6  39.5  34190  290.09 0855.21
2009/04/23 10:54:05.2     236     32    101    239    259  82.1  24.2  34230  290.75 0855.21
2009/04/23 10:54:05.3     188     46    134    194    235  76.1  38.0  34234  290.82 0855.21
2009/04/23 10:54:05.4     177      8    170    178    246  87.4  48.7  34192  290.11 0855.21
2009/04/23 10:54:05.5     197     -3    164    198    257  90.9  43.8  34190  290.09 0855.21
2009/04/23 10:54:05.6     154      3    200    155    253  88.7  58.5  34196  290.18 0855.21
2009/04/23 10:54:05.7     162      4    183    163    245  88.5  54.0  34204  290.31 0855.21
2009/04/23 10:54:05.8     179     41    169    184    249  77.0  47.1  34316  292.22 0855.21
2009/04/23 10:54:05.9     113     57    122    127    176  62.9  49.0  34290  291.79 0855.21
2009/04/23 10:54:06.0     204     22     97    206    227  83.6  27.1  34256  291.20 0855.21
2009/04/23 10:54:06.1     178     60     66    189    201  71.2  19.2  34286  291.72 0855.21
2009/04/23 10:54:06.2     160     53    176    169    244  71.6  51.2  34300  291.96 0855.21
2009/04/23 10:54:06.3     185     75    146    200    247  67.8  39.7  34254  291.17 0855.21
2009/04/23 10:54:06.4     171     21    141    173    223  82.8  43.7  34268  291.40 0855.21
2009/04/23 10:54:06.5     195     55     84    203    219  74.1  23.6  34290  291.79 0855.21
2009/04/23 10:54:06.6     276     38     95    279    295  82.0  18.9  34246  291.02 0855.21
2009/04/23 10:54:06.7     232     46    154    237    282  78.6  35.7  34256  291.19 0855.21
2009/04/23 10:54:06.8     138     99     67    171    183  54.3  22.5  34254  291.18 0855.21
2009/04/23 10:54:06.9      99     57     57    115    128  60.2  28.2  34248  291.08 0855.22
2009/04/23 10:54:07.0      65     81    117    104    156  38.7  53.7  34232  290.79 0855.22
2009/04/23 10:54:07.1      19     59     91     63    110  18.5  62.1  34228  290.74 0855.22
2009/04/23 10:54:07.2      49      2    143     50    151  87.4  81.2  34254  291.18 0855.22
2009/04/23 10:54:07.3      32     51     78     61     99  32.5  57.9  34244  291.01 0855.22
2009/04/23 10:54:07.4     -33    -29     89     45     99 228.7  71.4  34236  290.87 0855.22
2009/04/23 10:54:07.5    -197    -98    132    221    257 243.4  33.5  34262  291.29 0855.22
2009/04/23 10:54:07.6    -274   -211    126    347    369 232.4  20.8  34232  290.79 0855.22
2009/04/23 10:54:07.7    -145   -227     90    270    285 212.5  18.4  34190  290.07 0855.22
2009/04/23 10:54:07.8     -77   -263    122    275    300 196.3  25.2  34170  289.73 0855.22
2009/04/23 10:54:07.9     -71   -287    100    296    313 194.0  18.8  34170  289.73 0855.22
2009/04/23 10:54:08.0     -19   -278     60    279    286 184.0  12.1  34176  289.85 0855.22
2009/04/23 10:54:08.1      -4   -263     74    264    275 180.9  15.8  34172  289.78 0855.22
2009/04/23 10:54:08.2     -28   -179    132    182    224 189.1  39.7  34170  289.74 0855.22
2009/04/23 10:54:08.3     -33   -206    149    209    256 189.1  39.1  34178  289.86 0855.22
2009/04/23 10:54:08.4     -19   -211    160    213    266 185.3  40.7  34174  289.81 0855.22
2009/04/23 10:54:08.5      -4   -306    112    307    326 180.9  20.7  34170  289.75 0855.22
2009/04/23 10:54:08.6       5   -289    105    290    309 179.0  19.9  34170  289.75 0855.22
2009/04/23 10:54:08.7       0   -338    119    339    359 180.0  20.1  34168  289.72 0855.22
2009/04/23 10:54:08.8      10   -388     55    389    394 178.4   8.1  34162  289.60 0855.22
2009/04/23 10:54:08.9      24   -120     20    123    125 168.4   9.5  34162  289.60 0855.22
2009/04/23 10:54:09.0     -67   -243    105    253    273 195.4  23.8  34162  289.61 0855.22
2009/04/23 10:54:09.1    -109   -308    111    327    346 199.6  18.8  34158  289.54 0855.22
2009/04/23 10:54:09.2     -22   -243    105    245    266 185.4  24.6  34168  289.71 0855.22
2009/04/23 10:54:09.3     -29   -326    172    328    370 185.2  30.1  34168  289.71 0855.22
2009/04/23 10:54:09.4    -157   -356     85    390    400 203.8  12.3  34170  289.74 0855.22
2009/04/23 10:54:09.5    -131   -360     -6    384    385 200.0  -0.9  34172  289.79 0855.22
2009/04/23 10:54:09.6     -26   -316    -28    318    320 184.7  -5.1  34172  289.76 0855.22
2009/04/23 10:54:09.7      43   -212    -74    217    229 168.5 -23.3  34172  289.77 0855.22
2009/04/23 10:54:09.8     -27   -181     78    184    199 188.5  24.6  34174  289.82 0855.22
2009/04/23 10:54:09.9     -97   -268    110    286    306 200.0  22.1  34176  289.85 0855.22
2009/04/23 10:54:10.0    -164   -431     63    462    467 200.8   7.8  34178  289.86 0855.22
2009/04/23 10:54:10.1    -229   -325     77    398    406 215.2  11.0  34172  289.78 0855.22
2009/04/23 10:54:10.2    -151   -303     79    339    349 206.5  13.1  34172  289.76 0855.22
2009/04/23 10:54:10.3     -60   -272     92    279    294 192.5  18.4  34172  289.78 0855.22
2009/04/23 10:54:10.4     -90   -224      5    242    243 201.9   1.2  34180  289.92 0855.22
2009/04/23 10:54:10.5     -87   -197     -4    216    217 203.8  -1.3  34178  289.89 0855.22
2009/04/23 10:54:10.6    -119   -176     61    213    222 214.3  16.0  34180  289.91 0855.22
2009/04/23 10:54:10.7    -122   -180     10    218    219 214.2   2.8  34188  290.06 0855.22
2009/04/23 10:54:10.8    -128   -178      9    220    221 215.6   2.3  34182  289.94 0855.22
2009/04/23 10:54:10.9    -218   -260    -33    340    342 220.0  -5.6  34192  290.10 0855.22
2009/04/23 10:54:11.0    -192   -137     13    237    238 234.5   3.1  34190  290.09 0855.22
2009/04/23 10:54:11.1    -176   -206     18    272    273 220.5   3.9  34192  290.10 0855.22
2009/04/23 10:54:11.2    -182   -177    -22    254    256 225.8  -5.1  34176  289.83 0855.22
2009/04/23 10:54:11.3    -148   -230    -66    274    282 212.7 -13.7  34172  289.76 0855.22
2009/04/23 10:54:11.4    -242    -56      3    249    250 257.0   0.8  34174  289.81 0855.22
2009/04/23 10:54:11.5    -234    -13     76    235    248 266.7  17.9  34180  289.92 0855.22
2009/04/23 10:54:11.6    -209    -87     13    227    228 247.4   3.3  34182  289.94 0855.22
2009/04/23 10:54:11.7    -163    -87     27    185    188 241.8   8.5  34178  289.89 0855.22
2009/04/23 10:54:11.8    -107   -104     18    150    152 225.6   7.1  34174  289.82 0855.22
2009/04/23 10:54:11.9     -76    -96     33    123    128 218.3  15.3  34184  289.99 0855.22
2009/04/23 10:54:12.0    -150    -98      6    180    181 236.9   2.1  34190  290.08 0855.22
2009/04/23 10:54:12.1    -190    -51    101    197    221 254.7  29.3  34190  290.08 0855.22
2009/04/23 10:54:12.2     -89    -72    132    115    175 230.9  54.6  34184  289.97 0855.22
2009/04/23 10:54:12.3     -34    -90    119     97    153 200.9  56.4  34184  289.97 0855.22
2009/04/23 10:54:12.4    -136    -59     51    149    158 246.4  18.9  34178  289.87 0855.22
2009/04/23 10:54:12.5    -136    -36    -19    141    143 255.0  -7.7  34178  289.87 0855.22
2009/04/23 10:54:12.6      22   -101     81    104    131 167.5  41.7  34188  290.06 0855.22
2009/04/23 10:54:12.7     -49   -165     95    173    197 196.5  31.4  34170  289.75 0855.22
2009/04/23 10:54:12.8       0   -227     90    228    245 179.8  23.0  34170  289.75 0855.22
2009/04/23 10:54:12.9      -3   -223     88    224    240 180.9  22.5  34168  289.70 0855.21
2009/04/23 10:54:13.0      -1   -226     28    227    229 180.5   7.1  34166  289.69 0855.21
2009/04/23 10:54:13.1       0   -164     17    165    166 180.2   5.9  34170  289.74 0855.21
2009/04/23 10:54:13.2      39   -185     45    190    196 168.0  13.5  34168  289.72 0855.21
2009/04/23 10:54:13.3      44   -141     34    148    152 162.6  13.1  34170  289.74 0855.21
2009/04/23 10:54:13.4      44   -199    -41    204    209 167.5 -11.5  34170  289.74 0855.21
2009/04/23 10:54:13.5     126   -140    144    189    237 138.1  41.2  34166  289.67 0855.21
2009/04/23 10:54:13.6     104   -212    115    237    263 153.7  27.4  34166  289.68 0855.21
2009/04/23 10:54:13.7     165   -140    200    217    295 130.4  47.7  34168  289.70 0855.21
2009/04/23 10:54:13.8     169    -93    228    194    299 118.9  55.4  34168  289.71 0855.21
2009/04/23 10:54:13.9      51    -65    181     83    199 141.7  73.8  34172  289.77 0855.21
2009/04/23 10:54:14.0     202   -168    251    263    363 129.8  48.6  34172  289.77 0855.21
2009/04/23 10:54:14.1     165   -206    212    265    339 141.3  42.9  34164  289.64 0855.21
2009/04/23 10:54:14.2     183   -276    205    332    390 146.5  34.5  34162  289.60 0855.21
2009/04/23 10:54:14.3     127   -259    172    289    336 153.7  33.6  34162  289.61 0855.21
2009/04/23 10:54:14.4      24   -200     67    202    213 173.1  18.4  34164  289.63 0855.21
2009/04/23 10:54:14.5     135   -201     96    243    261 146.2  22.8  34162  289.61 0855.21
2009/04/23 10:54:14.6     159   -186     95    245    262 139.5  22.3  34148  289.37 0855.21
2009/04/23 10:54:14.7      87   -136    110    162    195 147.5  37.6  34164  289.65 0855.21
2009/04/23 10:54:14.8      92   -142     89    170    191 147.0  29.8  34164  289.63 0855.21
2009/04/23 10:54:14.9     113   -139     50    180    187 140.8  15.6  34164  289.63 0855.20
2009/04/23 10:54:15.0     120   -155    115    197    228 142.2  33.1  34164  289.63 0855.20
2009/04/23 10:54:15.1     100   -243     91    263    279 157.5  19.2  34164  289.64 0855.20
2009/04/23 10:54:15.2     113   -171     50    206    213 146.6  13.7  34162  289.62 0855.20
2009/04/23 10:54:15.3      68   -111     53    131    141 148.4  23.1  34162  289.62 0855.20
2009/04/23 10:54:15.4      18   -114     23    116    119 170.7  11.6  34162  289.60 0855.20
2009/04/23 10:54:15.5     -11   -114     76    115    137 185.8  36.5  34166  289.67 0855.20
2009/04/23 10:54:15.6     -15   -126     99    127    161 187.1  42.0  34172  289.77 0855.20
2009/04/23 10:54:15.7       0   -128    119    129    175 180.0  47.9  34178  289.87 0855.20
2009/04/23 10:54:15.8      -1    -94     95     95    134 180.9  50.1  34172  289.79 0855.20
2009/04/23 10:54:15.9      19   -110    105    112    153 170.2  48.0  34174  289.80 0855.20
2009/04/23 10:54:16.0      18   -118     79    120    143 171.1  36.0  34172  289.77 0855.20
2009/04/23 10:54:16.1      27   -133     79    136    157 168.5  32.7  34170  289.74 0855.20
2009/04/23 10:54:16.2      22    -92     49     95    106 166.6  29.8  34168  289.72 0855.20
2009/04/23 10:54:16.3     -15   -111     41    113    120 188.0  20.9  34164  289.65 0855.20
2009/04/23 10:54:16.4     -18   -111     49    113    123 189.3  25.1  34168  289.72 0855.20
2009/04/23 10:54:16.5      -7    -94     47     95    105 184.5  28.2  34168  289.72 0855.20
2009/04/23 10:54:16.6      -2    -58     38     59     70 182.7  35.6  34168  289.72 0855.20
2009/04/23 10:54:16.7     -45    -82     68     94    116 209.0  39.7  34168  289.70 0855.20
2009/04/23 10:54:16.8     -58    -93     56    110    123 212.1  29.3  34168  289.72 0855.20
2009/04/23 10:54:16.9     -94    -87     23    129    132 227.3  10.1  34170  289.75 0855.21
2009/04/23 10:54:17.0     -62    -85      9    106    107 216.1   4.9  34174  289.80 0855.21
2009/04/23 10:54:17.1      -1   -114      0    115    116 180.9   0.2  34172  289.79 0855.21
2009/04/23 10:54:17.2     -14   -101    -37    103    110 188.1 -19.7  34172  289.79 0855.21
2009/04/23 10:54:17.3       7    -99    -46    100    110 175.6 -31.5  34170  289.75 0855.21
2009/04/23 10:54:17.4      21   -125    -25    127    130 170.2 -11.3  34166  289.67 0855.21
2009/04/23 10:54:17.5      60   -109     -3    125    126 151.1  -1.8  34172  289.79 0855.21
2009/04/23 10:54:17.6     103    -84     -5    134    135 129.1  -2.2  34170  289.74 0855.21
2009/04/23 10:54:17.7     101   -131      9    166    167 142.2   3.3  34162  289.62 0855.21
2009/04/23 10:54:17.8      77   -159     82    177    195 154.1  27.0  34158  289.55 0855.21
2009/04/23 10:54:17.9     136   -207     89    248    263 146.6  20.2  34170  289.73 0855.21
2009/04/23 10:54:18.0     105   -205     69    231    242 152.9  16.8  34166  289.68 0855.21
2009/04/23 10:54:18.1      21   -206     98    208    229 174.2  27.1  34146  289.35 0855.21
2009/04/23 10:54:18.2       5   -209     53    210    217 178.6  14.3  34146  289.35 0855.21
2009/04/23 10:54:18.3     -35   -204     48    208    214 189.8  13.2  34156  289.52 0855.21
2009/04/23 10:54:18.4      90   -224     34    242    245 158.1   8.0  34158  289.54 0855.21
2009/04/23 10:54:18.5     104   -200     26    226    228 152.4   6.7  34164  289.63 0855.21
2009/04/23 10:54:18.6     121   -169    -34    209    212 144.4  -9.3  34166  289.67 0855.21
2009/04/23 10:54:18.7     155   -195    -71    250    259 141.5 -20.7  34166  289.68 0855.21
2009/04/23 10:54:18.8     149   -226    -70    271    280 146.6 -14.5  34150  289.39 0855.21
2009/04/23 10:54:18.9     176   -385     -3    424    425 155.4  -0.5  34154  289.48 0855.22
2009/04/23 10:54:19.0     154   -264      5    306    307 149.7   1.0  34154  289.46 0855.22
2009/04/23 10:54:19.1     201   -228    189    305    358 138.6  34.9  34152  289.42 0855.22
2009/04/23 10:54:19.2      67   -306    272    314    415 167.5  45.5  34152  289.42 0855.22
2009/04/23 10:54:19.3    -137   -297    254    328    414 204.7  41.7  34152  289.43 0855.22
2009/04/23 10:54:19.4    -139   -165     26    216    218 220.1   7.1  34142  289.26 0855.22
2009/04/23 10:54:19.5    -109   -145    -51    182    189 217.0 -20.2  34152  289.45 0855.22
2009/04/23 10:54:19.6      98    -76     92    125    155 127.8  39.7  34152  289.45 0855.22
2009/04/23 10:54:19.7     -91    -43    186    101    211 244.7  69.3  34166  289.69 0855.22
2009/04/23 10:54:19.8      80   -279    193    291    349 163.9  36.5  34162  289.60 0855.22
2009/04/23 10:54:19.9     168   -157    179    231    292 133.1  41.7  34160  289.56 0855.19
2009/04/23 10:54:20.0      88   -202    166    221    276 156.4  40.7  34160  289.58 0855.19
2009/04/23 10:54:20.1      81   -244    211    258    333 161.5  43.5  34158  289.54 0855.19
2009/04/23 10:54:20.2     -72   -330     64    338    345 192.4  10.7  34162  289.59 0855.19
2009/04/23 10:54:20.3    -172   -259     -4    311    312 213.6  -0.9  34158  289.54 0855.19
2009/04/23 10:54:20.4    -116   -340    -24    360    361 198.9  -3.9  34154  289.47 0855.19
2009/04/23 10:54:20.5     -30   -364    -60    366    371 184.8  -9.3  34154  289.48 0855.19
2009/04/23 10:54:20.6     105   -310    118    328    348 161.3  20.6  34158  289.55 0855.19
2009/04/23 10:54:20.7     261   -332    148    423    449 141.9  19.3  34154  289.48 0855.19
2009/04/23 10:54:20.8     185   -407     87    448    457 155.5  11.0  34150  289.41 0855.19
2009/04/23 10:54:20.9     239   -498     66    553    558 154.3   6.9  34142  289.26 0855.19
2009/04/23 10:54:21.0     127   -471    132    488    506 164.9  15.2  34144  289.30 0855.19
2009/04/23 10:54:21.1     192   -480    108    518    530 158.2  11.8  34140  289.23 0855.19
2009/04/23 10:54:21.2     156   -430     34    458    460 160.0   4.3  34140  289.22 0855.19
2009/04/23 10:54:21.3      97   -412    109    424    438 166.8  14.5  34152  289.44 0855.19
2009/04/23 10:54:21.4     149   -395     99    423    435 159.3  13.2  34154  289.46 0855.19
2009/04/23 10:54:21.5     179   -375     89    416    426 154.4  12.1  34148  289.38 0855.19
2009/04/23 10:54:21.6     128   -367     96    389    401 160.7  13.9  34146  289.32 0855.19
2009/04/23 10:54:21.7      47   -369    137    373    397 172.7  21.0  34144  289.30 0855.19
2009/04/23 10:54:21.8      87   -395    200    405    451 167.5  28.2  34150  289.41 0855.19
2009/04/23 10:54:21.9     140   -413    239    437    498 161.2  31.3  34154  289.47 0855.18
2009/04/23 10:54:22.0     158   -414    147    444    468 159.1  18.4  34148  289.36 0855.18
2009/04/23 10:54:22.1     180   -292    236    344    417 148.4  37.8  34148  289.37 0855.18
2009/04/23 10:54:22.2     171   -360    164    399    431 154.5  23.6  34156  289.49 0855.18
2009/04/23 10:54:22.3     103   -368    140    383    407 164.3  20.9  34162  289.59 0855.18
2009/04/23 10:54:22.4      92   -418    143    429    453 167.5  18.5  34164  289.63 0855.18
2009/04/23 10:54:22.5     103   -298    190    316    368 160.8  34.0  34162  289.59 0855.18
2009/04/23 10:54:22.6      43   -305    173    309    354 171.9  31.7  34164  289.65 0855.18
2009/04/23 10:54:22.7       8   -205    151    206    255 177.5  39.7  34170  289.73 0855.18
2009/04/23 10:54:22.8     -25   -241    181    243    303 186.0  40.6  34170  289.73 0855.18
2009/04/23 10:54:22.9    -100   -243    135    263    295 202.5  29.3  34166  289.66 0855.18
2009/04/23 10:54:23.0    -160   -278    127    321    345 209.9  22.9  34158  289.54 0855.18
2009/04/23 10:54:23.1    -207   -234    -47    313    317 221.4  -8.7  34158  289.53 0855.18
2009/04/23 10:54:23.2    -276   -248   -117    372    389 228.1 -22.6  34172  289.79 0855.18
2009/04/23 10:54:23.3    -208   -348    -34    406    408 210.9  -4.8  34174  289.82 0855.18
2009/04/23 10:54:23.4    -149   -285    -88    322    335 207.6 -15.4  34180  289.91 0855.18
2009/04/23 10:54:23.5    -190   -265     58    327    333 215.7  10.1  34156  289.50 0855.18
2009/04/23 10:54:23.6     -75   -321    101    330    346 193.2  17.1  34158  289.55 0855.18
2009/04/23 10:54:23.7     -83   -305    -13    317    318 195.2  -2.5  34160  289.56 0855.18
2009/04/23 10:54:23.8    -107   -219     42    244    248 206.1   9.9  34166  289.66 0855.18
2009/04/23 10:54:23.9    -113   -265    193    289    347 203.2  36.9  34140  289.23 0855.14
2009/04/23 10:54:24.0     -94   -202   -107    223    247 204.9 -31.7  34174  289.81 0855.14
2009/04/23 10:54:24.1     -97   -176    -85    202    219 208.9 -28.2  34158  289.53 0855.14
2009/04/23 10:54:24.2      57   -241    -82    248    261 166.6 -23.8  34178  289.88 0855.14
2009/04/23 10:54:24.3     121   -220    -78    252    264 151.1 -17.3  34176  289.85 0855.14
2009/04/23 10:54:24.4     192   -111    -84    222    237 120.0 -26.4  34160  289.56 0855.14
2009/04/23 10:54:24.5     131   -196   -168    237    290 146.2 -43.0  34156  289.49 0855.14
2009/04/23 10:54:24.6      50   -271    -51    276    281 169.5 -10.5  34160  289.56 0855.14
2009/04/23 10:54:24.7      65   -231    -68    241    251 164.2 -15.8  34158  289.54 0855.14
2009/04/23 10:54:24.8      60   -220    -68    229    240 164.6 -16.6  34158  289.53 0855.14
2009/04/23 10:54:24.9     133   -190    -50    232    238 145.0 -12.2  34158  289.53 0855.14
2009/04/23 10:54:25.0     318   -316    -78    449    456 134.9  -9.9  34132  289.09 0855.14
2009/04/23 10:54:25.1     344   -285      6    447    448 129.6   0.8  34126  289.00 0855.14
2009/04/23 10:54:25.2     355   -274     70    449    455 127.8   8.9  34124  288.95 0855.14
2009/04/23 10:54:25.3     125   -197    -70    234    244 147.5 -21.7  34130  289.07 0855.14
2009/04/23 10:54:25.4      93    -65     -2    114    115 125.1  -1.3  34132  289.11 0855.14
2009/04/23 10:54:25.5     -48   -145     94    153    179 198.3  34.4  34130  289.06 0855.14
2009/04/23 10:54:25.6    -143   -434     86    458    467 198.3  10.7  34134  289.14 0855.14
2009/04/23 10:54:25.7    -147   -334     88    366    377 203.8  13.6  34136  289.15 0855.14
2009/04/23 10:54:25.8    -155   -280     -6    321    322 209.0  -1.1  34140  289.22 0855.14
2009/04/23 10:54:25.9    -205   -375    -46    428    431 208.7  -6.3  34144  289.31 0855.11
2009/04/23 10:54:26.0     -44   -404    -11    407    408 186.2  -1.6  34136  289.17 0855.11
2009/04/23 10:54:26.1      30   -391    -43    393    396 175.6  -6.3  34132  289.11 0855.11
2009/04/23 10:54:26.2     -22   -343    -82    344    354 183.8 -13.4  34146  289.32 0855.11
2009/04/23 10:54:26.3      34   -401    -47    403    406 175.1  -6.7  34140  289.22 0855.11
2009/04/23 10:54:26.4     160   -433    -43    462    465 159.7  -5.4  34124  288.95 0855.11
2009/04/23 10:54:26.5     234   -323   -122    400    419 144.1 -17.0  34122  288.94 0855.11
2009/04/23 10:54:26.6     201   -346     68    401    407 149.9   9.7  34126  288.99 0855.11
2009/04/23 10:54:26.7     195   -266     -2    331    332 143.7  -0.4  34128  289.03 0855.11
2009/04/23 10:54:26.8     140   -393    -13    418    419 160.3  -1.9  34122  288.94 0855.11
2009/04/23 10:54:26.9     125   -534    -37    549    551 166.8  -3.9  34116  288.82 0855.11
2009/04/23 10:54:27.0      78   -508      4    514    515 171.2   0.5  34118  288.86 0855.11
2009/04/23 10:54:27.1     -30   -485     74    486    492 183.6   8.7  34130  289.05 0855.11
2009/04/23 10:54:27.2    -138   -481     83    501    508 196.0   9.4  34136  289.18 0855.11
2009/04/23 10:54:27.3    -178   -358    -60    401    406 206.5  -8.6  34130  289.07 0855.11
2009/04/23 10:54:27.4     -96   -368    -62    381    387 194.6  -9.3  34146  289.32 0855.11
2009/04/23 10:54:27.5     -61   -381     14    387    388 189.2   2.1  34152  289.42 0855.11
2009/04/23 10:54:27.6     -53   -444      5    448    449 186.8   0.7  34132  289.11 0855.11
2009/04/23 10:54:27.7      12   -504     15    505    506 178.6   1.7  34128  289.03 0855.11
2009/04/23 10:54:27.9     -51   -510      7    513    514 185.8   0.8  34158  289.54 0855.11
2009/04/23 10:54:27.9     -45   -431     -2    434    435 186.0  -0.3  34148  289.36 0855.11
2009/04/23 10:54:28.1    -198   -502    -78    540    546 201.5  -8.2  34148  289.38 0855.11
2009/04/23 10:54:28.2    -281   -509    -95    582    590 208.9  -9.3  34148  289.37 0855.11
2009/04/23 10:54:28.3    -163   -408    -97    440    451 201.8 -12.5  34150  289.41 0855.11
2009/04/23 10:54:28.4    -336   -384     24    511    512 221.2   2.8  34152  289.44 0855.11
2009/04/23 10:54:28.5    -317   -297     -2    435    436 226.9  -0.3  34148  289.36 0855.11
2009/04/23 10:54:28.6    -348   -229    -52    418    422 236.6  -7.2  34150  289.41 0855.11
2009/04/23 10:54:28.7    -441   -146   -142    465    487 251.6 -17.0  34142  289.25 0855.11
2009/04/23 10:54:28.8    -422   -162   -106    453    466 248.9 -13.3  34144  289.31 0855.11
2009/04/23 10:54:28.9    -428    -13   -123    429    446 268.2 -20.8  34136  289.17 0855.11
2009/04/23 10:54:29.0    -498    223   -139    546    564 294.2 -14.3  34128  289.02 0855.11
2009/04/23 10:54:29.1    -301     -5    154    302    338 269.0  29.2  34132  289.09 0855.11
2009/04/23 10:54:29.2    -126     29    150    130    198 283.3  54.6  34142  289.26 0855.11
2009/04/23 10:54:29.3    -256    203    105    327    344 308.4  17.9  34126  288.99 0855.11
2009/04/23 10:54:29.4    -266    121    110    293    312 294.4  21.5  34128  289.03 0855.11
2009/04/23 10:54:29.5    -226    162     65    279    287 305.7  13.2  34138  289.19 0855.11
2009/04/23 10:54:29.6    -144    135     15    198    199 313.1   4.4  34136  289.18 0855.11
2009/04/23 10:54:29.7      89   -142      6    168    169 147.9   2.1  34136  289.16 0855.11
2009/04/23 10:54:29.8      97   -287    -96    304    318 161.3 -22.6  34132  289.10 0855.11
2009/04/23 10:54:29.9       2   -325    -78    326    336 179.5 -13.6  34132  289.10 0855.11
2009/04/23 10:54:30.0     -30   -295   -100    297    314 186.0 -18.7  34140  289.22 0855.12
2009/04/23 10:54:30.1     -44   -237   -111    242    266 190.5 -30.8  34142  289.25 0855.12
2009/04/23 10:54:30.2       0   -250   -118    251    277 179.9 -31.5  34138  289.20 0855.12
2009/04/23 10:54:30.3       3   -308    -92    309    322 179.3 -21.5  34136  289.15 0855.12
2009/04/23 10:54:30.4      30   -353    -54    355    360 175.0  -8.7  34136  289.16 0855.12
2009/04/23 10:54:30.5     106   -311    -54    329    334 161.2  -9.3  34134  289.13 0855.12
2009/04/23 10:54:30.6     170   -307    -23    352    353 151.0  -3.8  34132  289.11 0855.12
2009/04/23 10:54:30.7     166   -199    -18    260    261 140.1  -4.1  34134  289.14 0855.12
2009/04/23 10:54:30.8     114   -157    119    195    228 143.9  34.4  34132  289.09 0855.12
2009/04/23 10:54:30.9      28   -205    129    208    244 172.0  34.8  34138  289.19 0855.12
2009/04/23 10:54:31.0     -26   -153     61    156    167 189.8  22.3  34138  289.19 0855.12
2009/04/23 10:54:31.1    -109    -97    105    147    180 228.2  39.3  34140  289.23 0855.12
2009/04/23 10:54:31.2    -121   -129     87    178    198 223.2  28.0  34138  289.21 0855.12
2009/04/23 10:54:31.3     -19    -85     72     88    113 192.9  43.7  34148  289.38 0855.12
2009/04/23 10:54:31.4    -100   -191    162    216    270 207.6  40.7  34140  289.24 0855.12
2009/04/23 10:54:31.5    -158   -148    127    217    251 226.9  33.4  34136  289.17 0855.12
2009/04/23 10:54:31.6    -153   -213    124    263    290 215.6  27.1  34134  289.12 0855.12
2009/04/23 10:54:31.7    -130   -235    149    269    307 209.0  31.4  34138  289.19 0855.12
2009/04/23 10:54:31.8    -123   -300    112    325    344 202.4  19.1  34136  289.18 0855.12
2009/04/23 10:54:31.9    -115   -379    150    397    424 197.0  21.7  34134  289.14 0855.12
2009/04/23 10:54:32.0     -92   -362    164    374    408 194.3  25.2  34142  289.26 0855.13
2009/04/23 10:54:32.1    -155   -325    206    361    415 205.5  32.3  34136  289.18 0855.13
2009/04/23 10:54:32.2    -151   -292     98    329    344 207.4  16.6  34136  289.18 0855.13
2009/04/23 10:54:32.3    -138   -270    108    304    322 207.2  20.3  34138  289.19 0855.13
2009/04/23 10:54:32.4    -192   -340    146    391    417 209.5  21.5  34146  289.33 0855.13
2009/04/23 10:54:32.5    -112   -394     72    410    417 195.9  10.0  34142  289.26 0855.13
2009/04/23 10:54:32.6    -118   -442     35    458    460 195.0   4.5  34134  289.14 0855.13
2009/04/23 10:54:32.7      44   -383    161    386    418 173.4  23.9  34128  289.02 0855.13
2009/04/23 10:54:32.8      18   -360    150    361    390 177.1  23.9  34128  289.04 0855.13
2009/04/23 10:54:32.9      20   -444    121    445    462 177.4  15.3  34134  289.12 0855.13
2009/04/23 10:54:33.0     137   -405     60    428    433 161.3   8.0  34138  289.19 0855.13
2009/04/23 10:54:33.1      88   -396    -81    406    415 167.4 -11.3  34138  289.19 0855.13
2009/04/23 10:54:33.2     180   -456      8    491    492 158.5   1.0  34130  289.05 0855.13
2009/04/23 10:54:33.3     252   -475    126    538    553 152.0  13.2  34126  288.99 0855.13
2009/04/23 10:54:33.4     173   -419     96    454    465 157.6  12.0  34132  289.11 0855.13
2009/04/23 10:54:33.5     289   -464    -21    547    548 148.1  -2.3  34128  289.04 0855.13
2009/04/23 10:54:33.6     254   -503    -86    564    571 153.2  -8.7  34128  289.03 0855.13
2009/04/23 10:54:33.7      69   -481    -74    487    493 171.8  -8.7  34136  289.17 0855.13
2009/04/23 10:54:33.8     115   -476    -94    490    500 166.4 -10.9  34134  289.12 0855.13
2009/04/23 10:54:33.9     100   -405    144    418    443 166.1  19.1  34132  289.11 0855.13
2009/04/23 10:54:34.0     114   -413     92    429    439 164.5  12.2  34126  289.00 0855.14
2009/04/23 10:54:34.1     -24   -502    160    503    528 182.8  17.7  34122  288.92 0855.14
2009/04/23 10:54:34.2    -151   -634    237    652    693 193.4  20.8  34124  288.97 0855.14
2009/04/23 10:54:34.3    -147   -639    204    656    688 193.0  17.3  34122  288.94 0855.14
2009/04/23 10:54:34.4    -174   -573    161    600    622 196.9  15.0  34106  288.66 0855.14
2009/04/23 10:54:34.5    -224   -441    112    495    508 207.0  12.8  34118  288.86 0855.14
2009/04/23 10:54:34.6    -334   -565     53    657    660 210.6   4.7  34124  288.97 0855.14
2009/04/23 10:54:34.7    -363   -557     -2    665    666 213.1  -0.2  34124  288.97 0855.14
2009/04/23 10:54:34.8    -401   -455    -13    607    608 221.4  -1.3  34130  289.07 0855.14
2009/04/23 10:54:34.9    -254   -439   -119    508    522 210.0 -13.3  34136  289.17 0855.14
2009/04/23 10:54:35.0    -193   -409   -135    453    473 205.3 -16.6  34140  289.22 0855.14
2009/04/23 10:54:35.1    -174   -390    -99    428    440 204.1 -13.1  34136  289.17 0855.14
2009/04/23 10:54:35.2    -120   -489    -79    504    511 193.8  -8.9  34146  289.35 0855.14
2009/04/23 10:54:35.3    -136   -409    -71    432    438 198.5  -9.3  34140  289.24 0855.14
2009/04/23 10:54:35.4     -49   -450   -138    453    474 186.3 -17.0  34146  289.34 0855.14
2009/04/23 10:54:35.5    -103   -390   -156    404    433 194.8 -26.6  34150  289.39 0855.14
2009/04/23 10:54:35.6     -60   -423   -121    428    445 188.1 -15.8  34148  289.36 0855.14
2009/04/23 10:54:35.7     -10   -380    -44    381    384 181.6  -6.6  34152  289.45 0855.14
2009/04/23 10:54:35.8      12   -361    -47    362    366 178.0  -7.5  34152  289.42 0855.14
2009/04/23 10:54:35.9    -111   -365    -36    382    384 196.9  -5.5  34142  289.26 0855.14
2009/04/23 10:54:36.0     -75   -387    -88    395    405 191.0 -12.7  34152  289.42 0855.14
2009/04/23 10:54:36.1     -36   -347    -81    349    359 186.1 -13.1  34154  289.48 0855.14
2009/04/23 10:54:36.2      -9   -299    -84    300    311 181.8 -20.4  34152  289.44 0855.14
2009/04/23 10:54:36.3     -33   -270    -84    273    285 187.1 -21.8  34152  289.42 0855.14
2009/04/23 10:54:36.4      17   -270    -94    271    286 176.4 -24.0  34150  289.41 0855.14
2009/04/23 10:54:36.5      39   -350    -98    353    366 173.5 -20.1  34146  289.35 0855.14
2009/04/23 10:54:36.6       4   -474    -60    475    479 179.4  -7.2  34130  289.05 0855.14
2009/04/23 10:54:36.7     -21   -499    -51    500    503 182.5  -5.9  34132  289.10 0855.14
2009/04/23 10:54:36.8       0   -472    -18    473    474 179.9  -2.2  34140  289.22 0855.14
2009/04/23 10:54:36.9       8   -426    -10    427    428 178.9  -1.4  34140  289.22 0855.14
2009/04/23 10:54:37.0      34   -407    -12    409    410 175.1  -1.7  34138  289.19 0855.14
2009/04/23 10:54:37.1     -16   -409     27    410    411 182.3   3.8  34144  289.29 0855.14
2009/04/23 10:54:37.2      71   -351      3    359    360 168.4   0.5  34144  289.30 0855.14
2009/04/23 10:54:37.3     -11   -368    -20    369    370 181.8  -3.1  34148  289.38 0855.14
2009/04/23 10:54:37.4     -17   -382    -32    383    385 182.6  -4.9  34156  289.50 0855.14
2009/04/23 10:54:37.5      -6   -371    -69    372    379 181.0 -10.5  34144  289.30 0855.14
2009/04/23 10:54:37.6     -28   -369    -47    370    374 184.4  -7.3  34142  289.26 0855.14
2009/04/23 10:54:37.7     -65   -340    -58    347    352 190.8  -9.5  34146  289.32 0855.14
2009/04/23 10:54:37.8     -16   -344    -67    345    352 182.7 -11.0  34146  289.35 0855.14
2009/04/23 10:54:37.9       7   -312    -30    313    315 178.6  -5.6  34146  289.32 0855.14
2009/04/23 10:54:38.0     -37   -331    -22    334    335 186.5  -3.8  34146  289.33 0855.16
2009/04/23 10:54:38.1      56   -315      3    321    322 169.8   0.7  34142  289.27 0855.16
2009/04/23 10:54:38.2     124   -325     26    348    349 159.1   4.4  34126  288.98 0855.16
2009/04/23 10:54:38.3     133   -303     30    332    334 156.3   5.2  34130  289.08 0855.16
2009/04/23 10:54:38.4     114   -306      8    327    328 159.5   1.5  34132  289.09 0855.16
2009/04/23 10:54:38.5      89   -246     -2    262    263 160.0  -0.5  34132  289.10 0855.16
2009/04/23 10:54:38.6      90   -248     18    265    266 160.0   3.9  34128  289.03 0855.16
2009/04/23 10:54:38.7     125   -259    -30    288    290 154.1  -6.1  34128  289.03 0855.16
2009/04/23 10:54:38.8     289   -327    113    437    452 138.5  14.5  34138  289.21 0855.16
2009/04/23 10:54:38.9      -9   -336     85    337    348 181.6  14.3  34130  289.06 0855.16
2009/04/23 10:54:39.0      24   -309     27    311    313 175.5   5.1  34142  289.27 0855.16
2009/04/23 10:54:39.1       3   -228     68    229    239 179.0  16.6  34146  289.34 0855.16
2009/04/23 10:54:39.2      73   -307    -47    316    320 166.6  -8.6  34148  289.37 0855.16
2009/04/23 10:54:39.3     249   -294     20    386    387 139.7   3.0  34132  289.11 0855.16
2009/04/23 10:54:39.4     230   -203     77    308    318 131.4  14.2  34140  289.24 0855.16
2009/04/23 10:54:39.5     249   -143     14    288    289 119.8   2.9  34142  289.27 0855.16
2009/04/23 10:54:39.6     106   -223    -85    248    262 154.5 -23.6  34140  289.24 0855.16
2009/04/23 10:54:39.7      42   -195    -43    200    205 167.7 -12.4  34144  289.30 0855.16
2009/04/23 10:54:39.8      56   -231     60    238    246 166.2  14.2  34148  289.37 0855.16
2009/04/23 10:54:39.9     121   -235    130    265    295 152.8  28.0  34146  289.34 0855.16
2009/04/23 10:54:40.0     149   -269    129    308    333 151.0  23.9  34148  289.36 0855.16
2009/04/23 10:54:40.1     140   -268    151    303    338 152.4  28.5  34150  289.39 0855.16
2009/04/23 10:54:40.2     186   -346    112    394    410 151.7  15.9  34152  289.44 0855.16
2009/04/23 10:54:40.3     112   -375     62    392    397 163.4   9.0  34154  289.48 0855.16
2009/04/23 10:54:40.4     103   -312     49    329    333 161.7   8.5  34154  289.47 0855.16
2009/04/23 10:54:40.5     127   -231     31    264    266 151.1   6.9  34146  289.34 0855.16
2009/04/23 10:54:40.6     127   -259    -74    289    299 153.9 -14.4  34156  289.51 0855.16
2009/04/23 10:54:40.7     146   -246     -5    287    288 149.3  -1.2  34152  289.44 0855.16
2009/04/23 10:54:40.8     113   -229     85    256    270 153.7  18.4  34152  289.44 0855.16
2009/04/23 10:54:40.9      95   -238     63    257    265 158.2  13.9  34152  289.42 0855.16
2009/04/23 10:54:41.0     222   -235    108    324    342 136.7  18.5  34150  289.40 0855.17
2009/04/23 10:54:41.1     223   -223    138    316    344 135.0  25.2  34152  289.43 0855.17
2009/04/23 10:54:41.2     302   -199    199    362    413 123.4  31.3  34148  289.38 0855.17
2009/04/23 10:54:41.3     176   -185    231    256    344 136.3  46.8  34156  289.49 0855.17
2009/04/23 10:54:41.4       0    -62     90     63    109 179.1  61.5  34164  289.65 0855.17
2009/04/23 10:54:41.5     152   -208    -23    258    260 143.9  -5.2  34154  289.47 0855.17
2009/04/23 10:54:41.6      99   -179    -42    205    210 151.0 -11.6  34154  289.46 0855.17
2009/04/23 10:54:41.7      94   -217    -75    237    248 156.4 -22.8  34152  289.44 0855.17
2009/04/23 10:54:41.8     130   -197    -55    237    244 146.6 -13.2  34156  289.51 0855.17
2009/04/23 10:54:41.9     173   -173    -35    245    248 135.0  -8.2  34154  289.47 0855.17
2009/04/23 10:54:42.0     227   -227     84    322    333 135.0  14.7  34146  289.35 0855.17
2009/04/23 10:54:42.1     188   -218    159    288    328 139.2  31.4  34152  289.42 0855.17
2009/04/23 10:54:42.2     152   -204    176    255    309 143.3  37.6  34154  289.46 0855.17
2009/04/23 10:54:42.3      83   -223    200    239    311 159.5  43.8  34160  289.58 0855.17
2009/04/23 10:54:42.4      75   -226    197    239    309 161.7  43.7  34156  289.49 0855.17
2009/04/23 10:54:42.5     183   -421    129    460    478 156.5  15.7  34156  289.52 0855.17
2009/04/23 10:54:42.6      71   -335    202    343    398 167.9  33.3  34156  289.50 0855.17
2009/04/23 10:54:42.7     160   -329    202    367    418 154.0  31.4  34158  289.54 0855.17
2009/04/23 10:54:42.8     117   -349    154    369    399 161.4  24.1  34152  289.45 0855.17
2009/04/23 10:54:42.9      97   -375    123    388    408 165.5  17.7  34152  289.42 0855.17
2009/04/23 10:54:43.0     106   -418     79    432    440 165.7  10.4  34154  289.48 0855.18
2009/04/23 10:54:43.1     102   -348    159    363    396 163.6  25.1  34152  289.42 0855.18
2009/04/23 10:54:43.2     141   -289    154    322    356 153.9  27.3  34154  289.48 0855.18
2009/04/23 10:54:43.3     184   -222    163    289    331 140.3  32.0  34156  289.51 0855.18
2009/04/23 10:54:43.4     186   -172    186    254    314 132.7  39.9  34162  289.59 0855.18
2009/04/23 10:54:43.5     181   -219    189    285    341 140.4  36.6  34150  289.41 0855.18
2009/04/23 10:54:43.6     161   -189    161    249    296 139.5  35.7  34148  289.36 0855.18
2009/04/23 10:54:43.7     197   -181    192    268    329 132.7  39.1  34154  289.46 0855.18
2009/04/23 10:54:43.8     144   -144    214    204    295 134.9  51.6  34156  289.49 0855.18
2009/04/23 10:54:43.9     136   -140    200    196    280 135.9  50.2  34158  289.54 0855.18
2009/04/23 10:54:44.0      91    -67    136    114    177 126.4  55.8  34156  289.52 0855.18
2009/04/23 10:54:44.1      88    -82     99    121    156 133.2  43.7  34160  289.58 0855.18
2009/04/23 10:54:44.2     168   -149     55    225    232 131.6  13.9  34156  289.52 0855.18
2009/04/23 10:54:44.3     165   -165     -9    234    235 135.0  -2.2  34156  289.49 0855.18
2009/04/23 10:54:44.4     166   -214     93    271    287 142.2  18.9  34154  289.46 0855.18
2009/04/23 10:54:44.5     121   -188     14    224    225 147.3   3.8  34154  289.46 0855.18
2009/04/23 10:54:44.6     117   -145     57    187    196 141.3  17.1  34150  289.40 0855.18
2009/04/23 10:54:44.7     191    -85    180    210    276 114.0  45.1  34156  289.49 0855.18
2009/04/23 10:54:44.8     174    -64    176    186    256 110.4  48.2  34156  289.49 0855.18
2009/04/23 10:54:44.9     262   -131    206    294    358 116.6  38.4  34152  289.45 0855.18
2009/04/23 10:54:45.0     257   -102    173    277    326 111.8  35.1  34154  289.47 0855.18
2009/04/23 10:54:45.1     251   -123    125    280    306 116.2  25.7  34154  289.47 0855.18
2009/04/23 10:54:45.2     207    -49    179    213    278 103.5  44.3  34154  289.47 0855.18
2009/04/23 10:54:45.3     191    -63    149    202    251 108.2  40.1  34156  289.49 0855.18
2009/04/23 10:54:45.4     127    -58    149    140    204 114.8  52.0  34158  289.53 0855.18
2009/04/23 10:54:45.5     224    -53    130    231    265 103.5  31.6  34156  289.51 0855.18
2009/04/23 10:54:45.6     253    -26    127    255    284  95.9  28.2  34156  289.49 0855.18
2009/04/23 10:54:45.7     246    -30    121    248    275  97.0  27.8  34156  289.49 0855.18
2009/04/23 10:54:45.8     247   -111    128    271    299 114.2  27.1  34160  289.56 0855.18
2009/04/23 10:54:45.9     222    -67    109    233    257 106.9  27.0  34160  289.58 0855.18
2009/04/23 10:54:46.0     196    -92     85    217    233 115.1  22.5  34158  289.55 0855.18
2009/04/23 10:54:46.1     186    -74    107    201    227 111.7  30.6  34160  289.57 0855.18
2009/04/23 10:54:46.2     183    -75    114    199    229 112.4  32.4  34156  289.52 0855.18
2009/04/23 10:54:46.3     120   -120     41    170    175 134.9  13.7  34158  289.53 0855.18
2009/04/23 10:54:46.4      88   -153     53    177    185 149.9  16.8  34158  289.53 0855.18
2009/04/23 10:54:46.5     141    -90     58    168    178 122.5  19.2  34158  289.53 0855.18
2009/04/23 10:54:46.6     143    -40     19    149    151 105.9   7.5  34158  289.53 0855.18
2009/04/23 10:54:46.7     122     23     24    125    128  79.0  11.1  34162  289.60 0855.18
2009/04/23 10:54:46.8      65     55     22     86     89  49.6  14.7  34172  289.77 0855.18
2009/04/23 10:54:46.9      41     87    -20     97    100  25.5 -11.9  34200  290.25 0855.18
2009/04/23 10:54:47.0      33     40    -17     52     55  39.6 -18.7  34224  290.67 0855.18
2009/04/23 10:54:47.1      44      8     26     45     51  79.4  32.4  34228  290.74 0855.18
2009/04/23 10:54:47.2      21     29     55     37     66  36.1  63.6  34252  291.13 0855.18
2009/04/23 10:54:47.3      -6      2     61      7     61 288.2  90.0  34264  291.33 0855.18
2009/04/23 10:54:47.4      19    -10     38     22     43 117.1  67.7  34262  291.32 0855.18
2009/04/23 10:54:47.5      26    -28     22     39     44 136.6  32.4  34252  291.13 0855.18
2009/04/23 10:54:47.6      83    -42     32     94    100 117.1  19.2  34276  291.54 0855.18
2009/04/23 10:54:47.7     106    -46     48    116    125 113.5  23.6  34286  291.71 0855.18
2009/04/23 10:54:47.8     139    -50     43    148    155 109.9  16.3  34278  291.59 0855.18
2009/04/23 10:54:47.9     136    -53    115    147    186 111.3  42.4  34266  291.38 0855.18
2009/04/23 10:54:48.0     107    -30    152    112    188 105.9  60.3  34280  291.60 0855.18
2009/04/23 10:54:48.1     156    -26    151    159    219  99.6  48.5  34282  291.66 0855.18
2009/04/23 10:54:48.2     182     24    161    184    244  82.3  45.6  34266  291.37 0855.18
2009/04/23 10:54:48.3     182     59    166    192    253  71.8  45.4  34256  291.21 0855.18
2009/04/23 10:54:48.4      48     13    179     50    185  74.9  84.4  34292  291.83 0855.18
2009/04/23 10:54:48.5     265    -12    187    266    325  92.8  38.5  34266  291.36 0855.18
2009/04/23 10:54:48.6     298     37    111    301    320  82.9  21.1  34246  291.02 0855.18
2009/04/23 10:54:48.7     272     99    159    290    330  70.0  31.3  34236  290.87 0855.18
2009/04/23 10:54:48.8     246     78     91    259    275  72.3  19.4  34234  290.83 0855.18
2009/04/23 10:54:48.9      90     49    201    103    225  61.2  71.0  34252  291.13 0855.18
2009/04/23 10:54:49.0     226     35    247    229    336  81.0  52.3  34268  291.39 0855.18
2009/04/23 10:54:49.1     284     -4    137    285    316  90.8  27.4  34236  290.85 0855.18
2009/04/23 10:54:49.2     240     68    239    250    345  74.1  48.6  34250  291.10 0855.18
2009/04/23 10:54:49.3     227     74    213    239    320  71.8  46.4  34234  290.83 0855.18
2009/04/23 10:54:49.4     315    136    245    344    422  66.6  39.1  34214  290.49 0855.18
2009/04/23 10:54:49.5     232     78    221    245    329  71.4  46.8  34232  290.78 0855.18
2009/04/23 10:54:49.6     177     98    277    203    343  60.9  60.3  34260  291.27 0855.18
2009/04/23 10:54:49.7     -76    -92    126    120    174 219.6  51.2  34250  291.11 0855.18
2009/04/23 10:54:49.8      42   -359    202    362    414 173.2  31.5  34182  289.93 0855.18
2009/04/23 10:54:49.9     165   -285    205    330    388 150.0  35.1  34164  289.65 0855.18
2009/04/23 10:54:50.0     175   -274    172    326    368 147.5  30.1  34154  289.47 0855.18
2009/04/23 10:54:50.1     173   -290    164    338    375 149.1  27.8  34156  289.52 0855.18
2009/04/23 10:54:50.2     173   -296    203    343    398 149.7  33.5  34156  289.52 0855.18
2009/04/23 10:54:50.3     231   -326    197    400    445 144.6  28.2  34152  289.43 0855.18
2009/04/23 10:54:50.4     254   -291    201    387    436 138.9  29.5  34156  289.51 0855.18
2009/04/23 10:54:50.5     368   -233    257    436    506 122.4  33.3  34156  289.52 0855.18
2009/04/23 10:54:50.6     406   -190    165    449    478 115.1  21.0  34164  289.64 0855.18
2009/04/23 10:54:50.7     303   -185    151    356    386 121.4  24.3  34160  289.57 0855.18
2009/04/23 10:54:50.8     292   -132    175    321    365 114.4  31.0  34160  289.57 0855.18
2009/04/23 10:54:50.9      49   -245    170    250    302 168.5  37.4  34166  289.66 0855.18
2009/04/23 10:54:51.0     129   -226     87    261    276 150.2  18.5  34156  289.51 0855.17
2009/04/23 10:54:51.1     169   -203     43    265    269 140.3   9.3  34158  289.53 0855.17
2009/04/23 10:54:51.2     238   -265     72    357    365 138.1  11.4  34162  289.60 0855.17
2009/04/23 10:54:51.3     251   -249    116    354    373 134.8  18.2  34154  289.47 0855.17
2009/04/23 10:54:51.4     167   -198    191    260    322 139.9  40.0  34158  289.53 0855.17
2009/04/23 10:54:51.6     141   -232    210    272    343 148.6  41.7  34150  289.39 0855.17
2009/04/23 10:54:51.6     166   -229    145    284    318 144.0  29.2  34162  289.61 0855.17
2009/04/23 10:54:51.7     154   -278    172    318    361 151.0  30.8  34164  289.65 0855.17
2009/04/23 10:54:51.8     139   -273    190    307    361 153.0  34.9  34156  289.50 0855.17
2009/04/23 10:54:51.9     215   -227    206    313    374 136.6  36.4  34158  289.55 0855.17
2009/04/23 10:54:52.0     116   -199     90    231    247 149.7  22.3  34162  289.59 0855.17
2009/04/23 10:54:52.1      68   -199    151    211    259 161.1  39.3  34172  289.76 0855.17
2009/04/23 10:54:52.2      31   -193     77    196    210 170.7  22.5  34170  289.75 0855.17
2009/04/23 10:54:52.3      43   -255     77    259    271 170.4  16.6  34170  289.73 0855.17
2009/04/23 10:54:52.4       0   -258    -10    259    260 179.8  -2.2  34168  289.70 0855.17
2009/04/23 10:54:52.5      -6   -224     21    225    227 181.6   5.4  34168  289.70 0855.17
2009/04/23 10:54:52.6      -9   -167    181    168    246 183.1  52.2  34164  289.65 0855.17
2009/04/23 10:54:52.7     -17   -216    156    217    267 184.7  39.5  34174  289.80 0855.17
2009/04/23 10:54:52.8      65   -180    185    192    266 160.2  49.0  34172  289.76 0855.17
2009/04/23 10:54:52.9      11    -55    141     57    152 168.4  77.1  34176  289.85 0855.17
2009/04/23 10:54:53.0      66    -96    102    117    155 145.3  45.8  34174  289.80 0855.18
2009/04/23 10:54:53.1     168   -133    117    215    244 128.4  30.8  34166  289.66 0855.18
2009/04/23 10:54:53.2     145   -122    106    190    217 130.2  31.4  34168  289.72 0855.18
2009/04/23 10:54:53.3      36   -194    142    198    243 169.5  39.1  34170  289.75 0855.18
2009/04/23 10:54:53.4     -49   -160    198    168    259 197.2  55.4  34168  289.70 0855.18
2009/04/23 10:54:53.5     -58   -174     71    184    197 198.5  22.3  34164  289.65 0855.18
2009/04/23 10:54:53.6     -63   -108    -18    126    128 210.3  -8.2  34166  289.67 0855.18
2009/04/23 10:54:53.7      39   -128     -4    134    135 163.1  -1.8  34168  289.70 0855.18
2009/04/23 10:54:53.8     143   -134     94    197    218 133.2  27.3  34164  289.63 0855.18
2009/04/23 10:54:53.9     159   -161    138    227    265 135.5  34.4  34170  289.73 0855.18
2009/04/23 10:54:54.0     206   -196     73    285    295 133.6  14.5  34170  289.73 0855.18
2009/04/23 10:54:54.1     237    -72     13    248    249 107.1   3.1  34166  289.68 0855.18
2009/04/23 10:54:54.3     167   -133    -60    214    222 128.6 -20.2  34170  289.75 0855.18
2009/04/23 10:54:54.3     176   -181     49    253    258 135.9  11.0  34164  289.64 0855.18
2009/04/23 10:54:54.5      68   -157     65    172    183 156.6  21.5  34170  289.75 0855.18
2009/04/23 10:54:54.5      34   -166    139    170    219 168.2  43.7  34170  289.74 0855.18
2009/04/23 10:54:54.7      -8   -182    119    183    218 182.7  36.0  34172  289.79 0855.18
2009/04/23 10:54:54.8     -35   -178     53    182    190 191.3  16.3  34174  289.80 0855.18
2009/04/23 10:54:54.9     -85    -96     59    129    141 221.4  26.6  34174  289.80 0855.18
2009/04/23 10:54:55.0     -78   -156      7    175    176 206.7   2.3  34170  289.75 0855.18
2009/04/23 10:54:55.1     -50   -167     34    175    179 196.7  11.0  34164  289.65 0855.19
2009/04/23 10:54:55.2     -60   -141     62    154    166 203.2  23.4  34168  289.70 0855.19
2009/04/23 10:54:55.3     -23   -103      0    106    107 192.9  -0.3  34172  289.79 0855.19
2009/04/23 10:54:55.4     -36    -94    -20    101    104 200.9 -11.3  34180  289.91 0855.19
2009/04/23 10:54:55.5     -24    -72      6     76     77 198.5   4.9  34176  289.84 0855.19
2009/04/23 10:54:55.6      -7    -91    -22     92     95 184.4 -13.4  34176  289.85 0855.19
2009/04/23 10:54:55.7      15   -105    -27    107    111 171.9 -14.5  34176  289.84 0855.19
2009/04/23 10:54:55.8      38    -99    -13    107    108 159.1  -7.3  34174  289.82 0855.19
2009/04/23 10:54:55.9     -28   -143     -5    146    147 191.1  -2.2  34184  289.97 0855.19
2009/04/23 10:54:56.0     -37   -173     -3    178    179 192.3  -1.3  34188  290.04 0855.19
2009/04/23 10:54:56.1     -65   -162    -23    175    177 202.1  -7.5  34186  290.02 0855.19
2009/04/23 10:54:56.2     -50   -138    -18    147    149 200.0  -7.2  34190  290.08 0855.19
2009/04/23 10:54:56.3     -19   -123      2    125    126 188.9   1.2  34192  290.13 0855.19
2009/04/23 10:54:56.4     -10   -119      6    120    121 184.9   2.9  34190  290.08 0855.19
2009/04/23 10:54:56.5       0   -102      4    103    104 179.5   2.3  34192  290.11 0855.19
2009/04/23 10:54:56.6      24    -79      4     83     84 162.6   3.3  34188  290.04 0855.19
2009/04/23 10:54:56.7      46    -21     43     51     66 114.4  44.8  34192  290.13 0855.19
2009/04/23 10:54:56.8      82     -6     53     83     98  94.4  35.6  34188  290.04 0855.19
2009/04/23 10:54:56.9      55      0     -4     56     57  89.2  -4.1  34184  289.97 0855.19
2009/04/23 10:54:57.0      64     22    -74     68    100  70.9 -56.6  34186  290.02 0855.19
2009/04/23 10:54:57.1     128    -21    -69    130    147  99.7 -34.2  34184  289.97 0855.18
2009/04/23 10:54:57.2     131    -62   -117    146    187 115.3 -47.7  34188  290.06 0855.18
2009/04/23 10:54:57.3     153    -59    -72    165    180 111.3 -29.5  34178  289.89 0855.18
2009/04/23 10:54:57.4     138    -55    -80    149    169 111.8 -35.0  34180  289.91 0855.18
2009/04/23 10:54:57.5     101    -71    -63    124    139 125.1 -33.6  34180  289.92 0855.18
2009/04/23 10:54:57.6      58    -34    -80     68    104 120.7 -59.8  34194  290.14 0855.18
2009/04/23 10:54:57.7      26      8    -88     28     92  73.2 -85.6  34196  290.19 0855.18
2009/04/23 10:54:57.8      -6     -7    -55     10     55 223.2 -90.0  34202  290.28 0855.18
2009/04/23 10:54:57.9     -10      2    -63     11     63 285.1 -90.0  34202  290.28 0855.18
2009/04/23 10:54:58.0     -12     -6    -67     14     68 241.1 -90.0  34204  290.33 0855.18
2009/04/23 10:54:58.1      -4    -36    -53     37     64 186.2 -65.9  34206  290.36 0855.18
2009/04/23 10:54:58.2       1    -71    -21     72     76 179.1 -16.6  34194  290.16 0855.18
2009/04/23 10:54:58.3     -29    -48      2     57     58 211.6   2.8  34192  290.11 0855.18
2009/04/23 10:54:58.4     -69    -37    -37     79     87 242.0 -31.0  34190  290.09 0855.18
2009/04/23 10:54:58.5     -72    -34    -67     80    104 244.8 -48.2  34188  290.06 0855.18
2009/04/23 10:54:58.6     -48    -45    -55     67     86 226.9 -48.1  34184  289.99 0855.18
2009/04/23 10:54:58.7     -54    -67    -16     87     89 218.7 -10.9  34186  290.02 0855.18
2009/04/23 10:54:58.8     -35    -81     -3     89     90 203.6  -2.2  34186  290.01 0855.18
2009/04/23 10:54:58.9      -5    -88     12     89     90 183.6   8.0  34186  290.01 0855.18
2009/04/23 10:54:59.0      48   -126     40    135    141 159.1  16.8  34184  289.99 0855.18
2009/04/23 10:54:59.1     163   -170    -21    236    237 136.1  -5.2  34174  289.80 0855.17
2009/04/23 10:54:59.2     139   -218    -37    259    262 147.4  -8.2  34172  289.76 0855.17
2009/04/23 10:54:59.3     106   -266    -10    287    288 158.2  -2.1  34164  289.64 0855.17
2009/04/23 10:54:59.4     144   -364    -26    392    393 158.3  -3.8  34164  289.65 0855.17
2009/04/23 10:54:59.5     160   -335     97    372    385 154.5  14.6  34160  289.57 0855.17
2009/04/23 10:54:59.6     103   -267    202    287    350 158.8  38.6  34162  289.59 0855.17
2009/04/23 10:54:59.7     120   -344    124    365    386 160.7  18.8  34172  289.76 0855.17
2009/04/23 10:54:59.8     146   -332     32    363    365 156.2   5.1  34178  289.89 0855.17
2009/04/23 10:54:59.9      96   -321     67    336    343 163.3  11.3  34162  289.60 0855.17
2009/04/23 10:55:00.0      66   -326     43    333    336 168.4   7.4  34164  289.64 0855.17
2009/04/23 10:55:00.1      14   -310     40    311    314 177.3   7.5  34176  289.83 0855.17
2009/04/23 10:55:00.2      33   -312    -14    314    315 173.8  -2.7  34178  289.86 0855.17
2009/04/23 10:55:00.3     -31   -338     22    340    341 185.4   3.7  34166  289.69 0855.17
2009/04/23 10:55:00.4     -47   -343     34    347    349 187.8   5.7  34168  289.71 0855.17
2009/04/23 10:55:00.5      26   -282    -26    284    286 174.7  -5.4  34168  289.71 0855.17
2009/04/23 10:55:00.6      58   -265     13    272    273 167.5   2.9  34178  289.86 0855.17
2009/04/23 10:55:00.7       5   -277     23    278    280 178.9   4.9  34164  289.64 0855.17
2009/04/23 10:55:00.8     -30   -277     39    279    282 186.3   8.0  34172  289.76 0855.17
2009/04/23 10:55:00.9     -60   -232    -18    240    241 194.5  -4.4  34176  289.83 0855.17
2009/04/23 10:55:01.0     -40   -225     -9    229    230 190.2  -2.3  34178  289.87 0855.17
2009/04/23 10:55:01.1      -1   -190     53    191    199 180.5  15.6  34170  289.75 0855.18
2009/04/23 10:55:01.2     -30   -176     34    179    183 189.8  11.0  34170  289.75 0855.18
2009/04/23 10:55:01.3     -60   -151     33    163    167 201.8  11.4  34170  289.74 0855.18
2009/04/23 10:55:01.4     -80   -159      3    179    180 206.7   1.2  34174  289.80 0855.18
2009/04/23 10:55:01.5    -104   -173     59    202    211 211.0  16.3  34172  289.77 0855.18
2009/04/23 10:55:01.6     -42   -161     58    167    177 194.9  19.2  34174  289.80 0855.18
2009/04/23 10:55:01.7      19   -181     -4    183    184 174.0  -1.3  34168  289.70 0855.18
2009/04/23 10:55:01.8    -121   -219     -9    251    252 209.0  -2.1  34168  289.70 0855.18
2009/04/23 10:55:01.9    -110   -333    105    351    367 198.4  16.7  34168  289.72 0855.18
2009/04/23 10:55:02.0    -159   -206     -2    261    262 217.8  -0.5  34168  289.70 0855.18
2009/04/23 10:55:02.1    -135   -188     11    232    233 215.6   2.9  34166  289.67 0855.18
2009/04/23 10:55:02.2    -140   -192     12    238    239 216.1   2.9  34168  289.71 0855.18
2009/04/23 10:55:02.3    -111   -243     65    268    276 204.5  13.7  34168  289.71 0855.18
2009/04/23 10:55:02.4     -94   -309     46    324    328 196.9   8.2  34168  289.70 0855.18
2009/04/23 10:55:02.5     -44   -262     34    266    269 189.7   7.5  34172  289.78 0855.18
2009/04/23 10:55:02.6      -9   -295     23    296    297 181.8   4.6  34176  289.83 0855.18
2009/04/23 10:55:02.7     -10   -291     62    292    299 182.0  12.0  34174  289.81 0855.18
2009/04/23 10:55:02.8     -54   -258    -37    264    267 192.0  -8.0  34172  289.78 0855.18
2009/04/23 10:55:02.9    -162   -303    -75    344    353 208.2 -12.4  34174  289.82 0855.18
2009/04/23 10:55:03.0    -133   -321     15    348    349 202.5   2.5  34172  289.79 0855.18
2009/04/23 10:55:03.1       8   -316     21    317    318 178.4   3.8  34178  289.88 0855.18
2009/04/23 10:55:03.2      18   -292     25    293    295 176.4   4.9  34178  289.86 0855.18
2009/04/23 10:55:03.3      32   -252     -1    255    256 172.7  -0.3  34178  289.86 0855.18
2009/04/23 10:55:03.4      54   -249     -9    255    256 167.7  -2.2  34176  289.85 0855.18
2009/04/23 10:55:03.5     -12   -267     -2    268    269 182.7  -0.5  34176  289.83 0855.18
2009/04/23 10:55:03.6     -61   -321     36    327    330 190.8   6.4  34166  289.69 0855.18
2009/04/23 10:55:03.7     -44   -442    -39    445    447 185.8  -5.1  34166  289.68 0855.18
2009/04/23 10:55:03.8     -79   -393    -11    401    402 191.5  -1.7  34164  289.65 0855.18
2009/04/23 10:55:03.9     -27   -353     35    354    356 184.4   5.8  34172  289.76 0855.18
2009/04/23 10:55:04.0     -42   -310    116    313    333 187.8  21.4  34170  289.73 0855.18
2009/04/23 10:55:04.1       3   -379     89    380    391 179.5  13.3  34168  289.72 0855.18
2009/04/23 10:55:04.2     -69   -354    100    361    375 191.1  15.6  34168  289.72 0855.18
2009/04/23 10:55:04.3    -112   -350     86    368    378 197.8  13.2  34166  289.69 0855.18
2009/04/23 10:55:04.4     -80   -390     38    399    401 191.7   5.5  34164  289.65 0855.18
2009/04/23 10:55:04.5     -73   -404    -55    411    415 190.3  -7.7  34166  289.68 0855.18
2009/04/23 10:55:04.6    -100   -387    -46    400    403 194.5  -6.7  34170  289.74 0855.18
2009/04/23 10:55:04.7     -75   -362    -96    370    383 191.8 -14.6  34162  289.59 0855.18
2009/04/23 10:55:04.8     -44   -323    -99    327    342 187.9 -16.9  34162  289.60 0855.18
2009/04/23 10:55:04.9     -57   -305    -72    311    320 190.7 -13.1  34164  289.63 0855.18
2009/04/23 10:55:05.0      -2   -281    -83    282    294 180.5 -16.4  34164  289.63 0855.18
2009/04/23 10:55:05.1       8   -455    -75    456    463 178.9  -9.3  34162  289.60 0855.18
2009/04/23 10:55:05.2      46   -437    -72    440    446 173.9  -9.4  34162  289.61 0855.18
2009/04/23 10:55:05.3      73   -340    -47    348    352 167.9  -7.7  34162  289.59 0855.18
2009/04/23 10:55:05.4     168   -259    -86    309    321 147.0 -15.7  34164  289.64 0855.18
2009/04/23 10:55:05.5     132   -262    -39    294    297 153.3  -7.7  34166  289.66 0855.18
2009/04/23 10:55:05.6      70   -259    -74    269    280 164.9 -15.5  34158  289.54 0855.18
2009/04/23 10:55:05.7      78   -327    -12    337    338 166.5  -2.1  34168  289.71 0855.18
2009/04/23 10:55:05.8      86   -315    -41    327    330 164.6  -7.2  34174  289.81 0855.18
2009/04/23 10:55:05.9      58   -337    -74    343    352 170.2 -12.3  34168  289.72 0855.18
2009/04/23 10:55:06.0      98   -362   -111    376    392 164.9 -21.1  34164  289.65 0855.18
2009/04/23 10:55:06.1     101   -340    -32    355    357 163.4  -5.2  34164  289.64 0855.17
2009/04/23 10:55:06.2     135   -317    -82    345    355 156.8 -13.4  34164  289.65 0855.17
2009/04/23 10:55:06.3     112   -363    -58    381    386 162.8  -8.7  34162  289.60 0855.17
2009/04/23 10:55:06.4     126   -344     28    367    369 159.8   4.5  34172  289.79 0855.17
2009/04/23 10:55:06.5     118   -294    -12    317    318 158.1  -2.2  34166  289.68 0855.17
2009/04/23 10:55:06.6      58   -310     -6    316    317 169.3  -1.3  34174  289.80 0855.17
2009/04/23 10:55:06.7      -5   -358    -25    359    360 180.8  -4.1  34178  289.87 0855.17
2009/04/23 10:55:06.8      44   -339     32    342    344 172.6   5.4  34176  289.84 0855.17
2009/04/23 10:55:06.9      71   -397      7    404    405 169.8   1.1  34176  289.85 0855.17
2009/04/23 10:55:07.0     142   -355     -7    383    384 158.2  -1.1  34166  289.69 0855.17
2009/04/23 10:55:07.1     185   -337     36    385    387 151.2   5.5  34166  289.67 0855.17
2009/04/23 10:55:07.2     150   -327    -48    361    365 155.3  -7.7  34166  289.67 0855.17
2009/04/23 10:55:07.3     175   -284     -2    334    335 148.4  -0.5  34164  289.65 0855.17
2009/04/23 10:55:07.4     124   -260     -5    289    290 154.5  -1.1  34168  289.71 0855.17
2009/04/23 10:55:07.5     154   -234      7    281    282 146.6   1.6  34166  289.66 0855.17
2009/04/23 10:55:07.6     118   -215     88    246    261 151.3  20.2  34162  289.59 0855.17
2009/04/23 10:55:07.7       7   -248     58    249    256 178.2  13.1  34172  289.76 0855.17
2009/04/23 10:55:07.8     120   -212     -9    244    245 150.4  -2.2  34174  289.81 0855.17
2009/04/23 10:55:07.9     123   -229     62    261    269 151.7  13.5  34172  289.76 0855.17
2009/04/23 10:55:08.0     107   -346     62    363    369 162.7   9.7  34172  289.77 0855.17
2009/04/23 10:55:08.1     129   -384     73    406    413 161.4  10.2  34168  289.72 0855.17
2009/04/23 10:55:08.2     136   -325      0    353    354 157.3   0.1  34174  289.81 0855.17
2009/04/23 10:55:08.3     178   -303    -13    352    353 149.5  -2.2  34172  289.79 0855.17
2009/04/23 10:55:08.4     148   -275     15    313    314 151.7   2.8  34164  289.64 0855.17
2009/04/23 10:55:08.5      52   -217     69    224    235 166.4  17.3  34178  289.87 0855.17
2009/04/23 10:55:08.6      78   -238    -56    251    258 161.7 -12.6  34180  289.90 0855.17
2009/04/23 10:55:08.7     103   -305      6    323    324 161.3   1.1  34180  289.92 0855.17
2009/04/23 10:55:08.8      63   -312      6    319    320 168.4   1.2  34180  289.92 0855.17
2009/04/23 10:55:08.9      91   -318     66    331    338 164.0  11.3  34176  289.84 0855.17
2009/04/23 10:55:09.0     171   -297     69    343    350 150.1  11.5  34172  289.79 0855.17
2009/04/23 10:55:09.1     144   -248     41    287    291 149.9   8.2  34166  289.66 0855.17
2009/04/23 10:55:09.2     158   -296    -62    336    342 151.9 -10.5  34182  289.93 0855.17
2009/04/23 10:55:09.3     137   -350    -10    377    378 158.6  -1.6  34180  289.91 0855.17
2009/04/23 10:55:09.4     144   -379     14    406    407 159.1   2.1  34176  289.85 0855.17
2009/04/23 10:55:09.5     163   -336      0    374    375 154.1   0.0  34178  289.87 0855.17
2009/04/23 10:55:09.6     122   -329     -2    352    353 159.6  -0.4  34178  289.86 0855.17
2009/04/23 10:55:09.7      77   -340     19    349    350 167.2   3.1  34162  289.62 0855.17
2009/04/23 10:55:09.8      61   -360    -14    366    367 170.3  -2.2  34168  289.72 0855.17
2009/04/23 10:55:09.9       0   -368     64    369    375 180.1   9.9  34166  289.67 0855.17
2009/04/23 10:55:10.0      55   -273    130    279    307 168.4  27.1  34156  289.51 0855.17
2009/04/23 10:55:10.1     191   -397    -34    441    443 154.3  -4.5  34164  289.63 0855.17
2009/04/23 10:55:10.2     101   -482      6    493    494 168.1   0.7  34166  289.69 0855.17
2009/04/23 10:55:10.3     132   -530    -51    547    550 166.0  -5.4  34166  289.68 0855.17
2009/04/23 10:55:10.4     139   -515    -32    534    535 164.9  -3.5  34166  289.68 0855.17
2009/04/23 10:55:10.5     164   -522      6    548    549 162.6   0.7  34172  289.77 0855.17
2009/04/23 10:55:10.6     192   -460     25    499    500 157.3   2.9  34166  289.69 0855.17
2009/04/23 10:55:10.7     186   -447     -7    485    486 157.4  -0.9  34168  289.71 0855.17
2009/04/23 10:55:10.8     196   -382     82    430    438 152.8  10.8  34174  289.80 0855.17
2009/04/23 10:55:10.9     139   -373     71    399    406 159.6  10.1  34170  289.73 0855.17
2009/04/23 10:55:11.0     177   -324     -1    370    371 151.3  -0.3  34160  289.57 0855.17
2009/04/23 10:55:11.1     180   -330     14    376    377 151.4   2.2  34158  289.54 0855.17
2009/04/23 10:55:11.2     194   -329    -14    383    384 149.5  -2.1  34160  289.57 0855.17
2009/04/23 10:55:11.3     114   -376    -14    394    395 163.1  -2.1  34174  289.81 0855.17
2009/04/23 10:55:11.4     117   -384     23    402    403 163.1   3.3  34176  289.83 0855.17
2009/04/23 10:55:11.5      51   -414      1    418    419 172.9   0.2  34178  289.87 0855.17
2009/04/23 10:55:11.6      87   -431    -39    440    442 168.6  -5.1  34174  289.80 0855.17
2009/04/23 10:55:11.7     110   -406      5    421    422 164.8   0.8  34170  289.75 0855.17
2009/04/23 10:55:11.8     111   -413     -1    428    429 164.9  -0.3  34172  289.77 0855.17
2009/04/23 10:55:11.9      25   -418    -71    419    426 176.5  -9.7  34178  289.88 0855.17
2009/04/23 10:55:12.0     -44   -421   -100    424    436 186.1 -13.3  34186  290.02 0855.17
2009/04/23 10:55:12.1      18   -398    -58    399    404 177.4  -8.3  34168  289.71 0855.16
2009/04/23 10:55:12.2     -26   -294    -38    296    299 185.1  -7.3  34188  290.03 0855.16
2009/04/23 10:55:12.3    -100   -303   -113    320    340 198.3 -19.5  34200  290.25 0855.16
2009/04/23 10:55:12.4     -43   -252   -130    256    287 189.8 -33.6  34194  290.15 0855.16
2009/04/23 10:55:12.5      14   -309   -133    310    337 177.4 -29.0  34196  290.18 0855.16
2009/04/23 10:55:12.6     -31   -333   -197    335    388 185.4 -37.8  34208  290.38 0855.16
2009/04/23 10:55:12.7      -4   -263   -224    264    346 181.0 -48.9  34204  290.32 0855.16
2009/04/23 10:55:12.8      10   -234   -166    235    287 177.4 -43.0  34200  290.24 0855.16
2009/04/23 10:55:12.9      69   -199   -144    211    255 160.8 -42.0  34210  290.42 0855.16
2009/04/23 10:55:13.0      93   -167   -122    192    227 151.0 -39.9  34204  290.33 0855.16
2009/04/23 10:55:13.1     137   -250   -144    286    320 151.3 -33.1  34208  290.37 0855.16
2009/04/23 10:55:13.2     177   -201    -85    269    282 138.6 -22.8  34186  290.00 0855.16
2009/04/23 10:55:13.3     150   -216    -84    264    277 145.3 -22.8  34190  290.07 0855.16
2009/04/23 10:55:13.4     150   -173    -79    230    244 139.0 -19.1  34188  290.05 0855.16
2009/04/23 10:55:13.5     194   -215    -47    290    294 137.9  -9.3  34166  289.68 0855.16
2009/04/23 10:55:13.6     191   -238   -108    306    325 141.2 -19.6  34176  289.83 0855.16
2009/04/23 10:55:13.7     232   -250    -26    342    344 137.2  -4.5  34162  289.60 0855.16
2009/04/23 10:55:13.8     192   -274    -18    335    336 145.0  -3.1  34162  289.59 0855.16
2009/04/23 10:55:13.9     112   -280     15    302    303 158.2   2.9  34162  289.59 0855.16
2009/04/23 10:55:14.0     104   -271     54    291    296 159.0  10.6  34164  289.63 0855.16
2009/04/23 10:55:14.1     115   -176     26    211    213 146.8   7.1  34162  289.60 0855.16
2009/04/23 10:55:14.2     187   -138     33    233    236 126.6   8.2  34168  289.71 0855.16
2009/04/23 10:55:14.3     120   -188    -12    224    225 147.4  -3.1  34168  289.72 0855.16
2009/04/23 10:55:14.4     173   -124     -1    214    215 125.7  -0.5  34164  289.65 0855.16
2009/04/23 10:55:14.6     110   -146    -49    184    191 143.0 -15.0  34162  289.60 0855.16
2009/04/23 10:55:14.6     103   -167    -56    197    206 148.4 -16.0  34164  289.63 0855.16
2009/04/23 10:55:14.7     115   -181      0    215    216 147.5   0.2  34172  289.77 0855.16
2009/04/23 10:55:14.8      61   -148     14    161    162 157.7   5.2  34172  289.77 0855.16
2009/04/23 10:55:14.9     -33   -143     34    147    151 193.3  13.2  34168  289.70 0855.16
2009/04/23 10:55:15.0     -28   -124     47    128    136 192.9  20.9  34168  289.70 0855.16
2009/04/23 10:55:15.1      10   -138     38    139    145 175.6  15.3  34170  289.75 0855.16
2009/04/23 10:55:15.2      23   -168     34    170    174 172.0  11.6  34170  289.75 0855.16
2009/04/23 10:55:15.3     -13   -162     29    163    166 184.7  10.1  34170  289.74 0855.16
2009/04/23 10:55:15.4       0   -144     28    145    148 180.0  11.0  34174  289.80 0855.16
2009/04/23 10:55:15.5     -10   -130    -16    131    133 184.4  -7.2  34170  289.74 0855.16
2009/04/23 10:55:15.6     -43   -131      7    139    140 198.3   2.9  34166  289.69 0855.16
2009/04/23 10:55:15.7     -50   -126     21    136    138 201.8   9.0  34164  289.63 0855.16
2009/04/23 10:55:15.8     -42   -158     36    164    169 195.1  12.6  34166  289.69 0855.16
2009/04/23 10:55:15.9     -50   -170     29    178    181 196.5   9.5  34164  289.65 0855.16
2009/04/23 10:55:16.0     -66   -171     35    184    188 201.2  11.0  34166  289.69 0855.16
2009/04/23 10:55:16.1     -73   -149     20    167    169 206.3   6.9  34162  289.62 0855.14
2009/04/23 10:55:16.2     -31   -124     65    128    143 194.3  29.2  34170  289.75 0855.14
2009/04/23 10:55:16.3     -40   -160     70    166    180 194.3  24.1  34170  289.74 0855.14
2009/04/23 10:55:16.4     -63   -167     74    179    193 200.7  23.4  34168  289.70 0855.14
2009/04/23 10:55:16.5     -17   -176     63    177    187 185.6  20.2  34172  289.77 0855.14
2009/04/23 10:55:16.6     -35   -220     75    223    236 189.1  18.6  34170  289.75 0855.14
2009/04/23 10:55:16.7     -53   -179     65    187    199 196.5  19.2  34170  289.75 0855.14
2009/04/23 10:55:16.8     -62   -184     92    195    215 198.7  27.1  34170  289.75 0855.14
2009/04/23 10:55:16.9     -87   -143     59    168    179 211.2  19.6  34168  289.72 0855.14
2009/04/23 10:55:17.0     -87   -131     49    158    166 213.8  17.3  34168  289.72 0855.14
2009/04/23 10:55:17.1      13   -140    110    141    178 174.7  42.0  34170  289.75 0855.14
2009/04/23 10:55:17.2     -20   -163    101    165    193 187.1  35.0  34172  289.79 0855.14
2009/04/23 10:55:17.3     -11   -150    123    151    194 184.4  43.7  34172  289.79 0855.14
2009/04/23 10:55:17.4     -30   -147    112    151    188 191.6  40.1  34170  289.74 0855.14
2009/04/23 10:55:17.5     -31   -133    101    137    170 193.4  40.1  34174  289.80 0855.14
2009/04/23 10:55:17.6     -14   -136    116    137    179 186.2  44.5  34176  289.84 0855.14
2009/04/23 10:55:17.7     -24   -159     73    161    176 188.9  26.2  34168  289.72 0855.14
2009/04/23 10:55:17.8       0   -160     90    161    184 180.2  31.6  34170  289.75 0855.14
2009/04/23 10:55:17.9      -2   -150     47    151    159 180.9  17.3  34174  289.80 0855.14
2009/04/23 10:55:18.0     -11   -146     76    147    165 184.5  29.5  34174  289.80 0855.14
2009/04/23 10:55:18.1     -48   -170     69    177    189 195.8  22.3  34176  289.84 0855.14
2009/04/23 10:55:18.2     -50   -176     29    184    187 196.0   9.0  34178  289.89 0855.14
2009/04/23 10:55:18.3    -112   -244     25    269    271 204.7   5.4  34176  289.83 0855.14
2009/04/23 10:55:18.4    -160   -227     13    279    280 215.2   2.8  34178  289.88 0855.14
2009/04/23 10:55:18.5    -109   -173     56    205    213 212.3  15.3  34186  290.02 0855.14
2009/04/23 10:55:18.6    -106   -176     66    206    217 211.0  17.9  34178  289.87 0855.14
2009/04/23 10:55:18.7    -154   -169    -10    229    230 222.3  -2.6  34174  289.82 0855.14
2009/04/23 10:55:18.8    -139   -148     39    204    208 223.3  10.8  34174  289.80 0855.14
2009/04/23 10:55:18.9    -106   -127     43    166    172 219.9  14.5  34174  289.82 0855.14
2009/04/23 10:55:19.0     -69   -135     61    152    163 207.1  22.8  34176  289.85 0855.14
2009/04/23 10:55:19.1     -90   -156     63    181    192 209.9  19.4  34170  289.74 0855.14
2009/04/23 10:55:19.2    -101   -101    -42    143    149 225.0 -21.2  34174  289.80 0855.14
2009/04/23 10:55:19.3     -93   -185      2    208    209 206.7   0.8  34174  289.80 0855.14
2009/04/23 10:55:19.4     -89   -173    -58    195    204 207.2 -16.8  34172  289.77 0855.14
2009/04/23 10:55:19.5     -73   -144    -60    162    172 207.1 -25.4  34172  289.79 0855.14
2009/04/23 10:55:19.6     -94   -142    -34    171    175 213.4 -11.3  34172  289.77 0855.14
2009/04/23 10:55:19.7     -82   -129    -19    154    156 212.6  -7.3  34172  289.79 0855.14
2009/04/23 10:55:19.8     -29   -140     85    144    167 192.0  33.1  34170  289.75 0855.14
2009/04/23 10:55:19.9     -90   -184    126    205    240 206.1  34.4  34170  289.74 0855.14
2009/04/23 10:55:20.0     -88   -164    157    187    244 208.3  44.3  34174  289.82 0855.14
2009/04/23 10:55:20.1    -146   -157    162    215    269 222.8  40.7  34196  290.19 0855.15
2009/04/23 10:55:20.2    -123   -164    157    206    259 217.0  41.2  34182  289.93 0855.15
2009/04/23 10:55:20.3     -97    -79    135    126    184 230.9  52.1  34198  290.23 0855.15
2009/04/23 10:55:20.4    -130    -71    156    149    215 241.1  52.0  34212  290.45 0855.15
2009/04/23 10:55:20.5    -124     -1     64    125    140 269.2  29.3  34208  290.40 0855.15
2009/04/23 10:55:20.6    -160     18    116    162    199 276.6  39.3  34186  290.02 0855.15
2009/04/23 10:55:20.8    -134      8     71    135    152 273.5  29.8  34186  290.01 0855.15
2009/04/23 10:55:20.8     -21    -32     97     39    104 214.3  77.1  34194  290.14 0855.15
2009/04/23 10:55:21.0     -31    -42     85     53    100 216.1  64.7  34194  290.16 0855.15
2009/04/23 10:55:21.1     -27    -79     81     84    116 199.2  49.4  34190  290.09 0855.15
2009/04/23 10:55:21.2     -30    -75     58     81     99 201.8  39.5  34184  289.99 0855.15
2009/04/23 10:55:21.3     -66    -65     29     93     98 225.4  17.3  34182  289.96 0855.15
2009/04/23 10:55:21.4    -101   -107     65    148    161 223.3  25.1  34176  289.84 0855.15
2009/04/23 10:55:21.5    -164    -12     17    165    166 265.6   6.1  34216  290.52 0855.15
2009/04/23 10:55:21.6     -93     -7    -63     94    113 265.6 -40.9  34204  290.31 0855.15
2009/04/23 10:55:21.7     -51   -109    -10    121    122 205.3  -5.1  34194  290.16 0855.15
2009/04/23 10:55:21.8     -91   -158      8    183    184 209.9   2.8  34168  289.72 0855.15
2009/04/23 10:55:21.9    -111   -160     17    195    196 214.7   5.2  34170  289.75 0855.15
2009/04/23 10:55:22.0     -55   -166     68    176    188 198.5  22.3  34172  289.77 0855.15
2009/04/23 10:55:22.1     -56   -142     84    153    174 201.8  31.4  34172  289.77 0855.15
2009/04/23 10:55:22.2     -24   -109    104    112    152 192.5  47.9  34172  289.79 0855.15
2009/04/23 10:55:22.3     -50   -142    134    151    201 199.6  46.2  34174  289.80 0855.15
2009/04/23 10:55:22.4       1   -131    132    132    186 179.5  50.1  34176  289.84 0855.15
2009/04/23 10:55:22.5     -53   -161    107    170    200 198.5  35.2  34174  289.80 0855.15
2009/04/23 10:55:22.6    -110   -138     81    177    194 218.7  26.6  34198  290.21 0855.15
2009/04/23 10:55:22.7    -174   -111     59    207    216 237.5  16.0  34212  290.47 0855.15
2009/04/23 10:55:22.8    -119   -208     90    240    256 209.9  21.7  34198  290.20 0855.15
2009/04/23 10:55:22.9    -174   -282     48    332    336 211.6   8.3  34172  289.76 0855.15
2009/04/23 10:55:23.0    -212   -265     26    340    342 218.6   4.5  34174  289.81 0855.15
2009/04/23 10:55:23.1    -232   -300     -7    380    381 217.8  -1.2  34168  289.72 0855.15
2009/04/23 10:55:23.2    -270   -278   -130    388    410 224.1 -18.6  34178  289.88 0855.15
2009/04/23 10:55:23.3    -230   -266   -142    352    379 220.9 -27.5  34168  289.72 0855.15
2009/04/23 10:55:23.4    -230   -201   -118    306    327 228.9 -26.6  34170  289.75 0855.15
2009/04/23 10:55:23.5    -269    -88   -140    284    316 251.8 -32.6  34210  290.41 0855.15
2009/04/23 10:55:23.6    -298    -37   -106    301    320 262.8 -19.4  34226  290.70 0855.15
2009/04/23 10:55:23.7    -265   -116    -93    290    305 246.4 -17.9  34232  290.80 0855.15
2009/04/23 10:55:23.8    -290    -69    -69    299    307 256.5 -13.1  34220  290.58 0855.15
2009/04/23 10:55:23.9    -198   -163    -92    257    274 230.5 -19.7  34214  290.48 0855.15
2009/04/23 10:55:24.0    -200   -165   -124    260    288 230.5 -31.7  34188  290.03 0855.15
2009/04/23 10:55:24.1    -152   -138   -105    206    231 227.6 -33.5  34198  290.23 0855.15
2009/04/23 10:55:24.2    -140   -160    -87    213    230 221.2 -27.8  34196  290.19 0855.15
2009/04/23 10:55:24.3    -176   -186    -37    257    260 223.3  -8.2  34188  290.05 0855.15
2009/04/23 10:55:24.4    -245    -33   -105    248    269 262.3 -28.6  34190  290.09 0855.15
2009/04/23 10:55:24.5    -278    -32    -77    280    291 263.4 -15.5  34180  289.92 0855.15
2009/04/23 10:55:24.6    -211    -49    -70    217    228 256.7 -23.3  34184  289.97 0855.15
2009/04/23 10:55:24.7    -183   -144    -82    233    247 231.8 -24.4  34184  289.97 0855.15
2009/04/23 10:55:24.8     -77   -215    -29    229    231 199.8  -7.3  34194  290.16 0855.15
2009/04/23 10:55:24.9     -51   -195    -60    202    211 194.7 -16.6  34198  290.21 0855.15
2009/04/23 10:55:25.0     -42   -177     -7    182    183 193.4  -2.2  34208  290.38 0855.15
2009/04/23 10:55:25.1     -58   -176    -37    186    190 198.5 -11.3  34202  290.30 0855.15
2009/04/23 10:55:25.2    -115   -160    -56    198    205 215.8 -20.4  34204  290.33 0855.14
2009/04/23 10:55:25.3     -35   -150    -34    155    159 193.4 -12.4  34200  290.26 0855.14
2009/04/23 10:55:25.4    -127    -95    -74    159    175 233.1 -31.4  34216  290.52 0855.14
2009/04/23 10:55:25.5     -69   -148   -117    164    201 204.9 -43.5  34192  290.11 0855.14
2009/04/23 10:55:25.6     -23   -140   -140    142    199 189.3 -54.4  34188  290.04 0855.14
2009/04/23 10:55:25.7       8   -105   -129    106    166 175.5 -60.8  34184  289.99 0855.14
2009/04/23 10:55:25.8     -40    -38   -105     56    119 225.9 -74.2  34194  290.14 0855.14
2009/04/23 10:55:25.9     -63    -28   -118     70    137 245.6 -71.2  34208  290.38 0855.14
2009/04/23 10:55:26.0      55    -55    -81     79    113 134.9 -54.5  34210  290.43 0855.14
2009/04/23 10:55:26.1     -19    -35    -40     41     57 209.0 -55.5  34214  290.48 0855.14
2009/04/23 10:55:26.2    -152     16    -46    153    161 276.1 -17.0  34230  290.75 0855.14
2009/04/23 10:55:26.3     -89      7   -178     90    199 274.8 -75.5  34184  289.99 0855.14
2009/04/23 10:55:26.4    -108     16    -70    110    130 278.8 -39.9  34182  289.96 0855.14
2009/04/23 10:55:26.5     -45     63     15     78     80 323.9  11.1  34184  289.97 0855.14
2009/04/23 10:55:26.6     -73    -18    -12     76     78 255.8  -9.3  34206  290.36 0855.14
2009/04/23 10:55:26.7     -89    -13    -32     91     96 261.2 -23.3  34234  290.84 0855.14
2009/04/23 10:55:26.8       5    -23    -62     24     66 166.6 -82.6  34236  290.86 0855.14
2009/04/23 10:55:26.9      33     26    -54     43     69  52.2 -60.8  34226  290.70 0855.14
2009/04/23 10:55:27.0      51     84     -2     99    100  31.6  -1.3  34218  290.55 0855.14
2009/04/23 10:55:27.1      55    -29    -83     63    104 118.0 -63.8  34218  290.57 0855.14
2009/04/23 10:55:27.2      89    -40    -80     98    126 114.4 -48.1  34218  290.55 0855.13
2009/04/23 10:55:27.3     112     16    -42    114    121  81.6 -25.4  34206  290.36 0855.13
2009/04/23 10:55:27.4     171     -3     37    172    177  91.3  12.4  34190  290.08 0855.13
2009/04/23 10:55:27.5     129   -164    -69    209    221 141.7 -18.3  34182  289.94 0855.13
2009/04/23 10:55:27.6     143   -243    -43    283    287 149.5  -8.8  34182  289.93 0855.13
2009/04/23 10:55:27.7     109   -281     65    302    309 158.8  12.2  34182  289.93 0855.13
2009/04/23 10:55:27.8     102   -267      8    287    288 159.0   1.7  34180  289.90 0855.13
2009/04/23 10:55:27.9     103   -206     11    231    232 153.3   2.9  34180  289.91 0855.13
2009/04/23 10:55:28.0     104   -128     31    166    170 140.8  10.8  34180  289.91 0855.13
2009/04/23 10:55:28.1     120   -131     10    178    179 137.5   3.3  34182  289.94 0855.13
2009/04/23 10:55:28.2     166    -99     -6    194    195 120.9  -1.8  34176  289.85 0855.13
2009/04/23 10:55:28.3     174    -60     53    185    193 109.1  16.0  34182  289.96 0855.13
2009/04/23 10:55:28.4     145    -49     70    154    169 108.6  26.4  34186  290.02 0855.13
2009/04/23 10:55:28.5      71    -19     24     74     78 105.0  17.9  34190  290.08 0855.13
2009/04/23 10:55:28.6     -20     24    -68     32     75 320.3 -77.3  34188  290.06 0855.13
2009/04/23 10:55:28.7     -69     34   -131     78    152 296.2 -71.1  34190  290.09 0855.13
2009/04/23 10:55:28.8     -31     48   -141     58    152 326.6 -81.4  34188  290.06 0855.13
2009/04/23 10:55:28.9     -22     47   -120     52    130 334.7 -79.4  34184  289.97 0855.13
2009/04/23 10:55:29.0     -86     46   -119     98    154 298.4 -60.8  34184  289.97 0855.13
2009/04/23 10:55:29.1     -60     16   -134     63    148 285.1 -77.5  34184  289.97 0855.13
2009/04/23 10:55:29.2     -84      0   -165     85    185 269.6 -75.2  34186  290.01 0855.12
2009/04/23 10:55:29.3     -76    -75    -88    107    138 225.4 -48.1  34188  290.06 0855.12
2009/04/23 10:55:29.4     -57   -153    -49    164    171 200.7 -21.5  34182  289.96 0855.12
2009/04/23 10:55:29.5     -19   -210     81    211    226 185.3  22.3  34184  289.99 0855.12
2009/04/23 10:55:29.6     -81   -175     53    193    201 204.9  15.3  34196  290.19 0855.12
2009/04/23 10:55:29.7    -108   -198      9    226    227 208.7   2.3  34208  290.40 0855.12
2009/04/23 10:55:29.8    -117   -155    -17    195    196 217.2  -5.2  34210  290.41 0855.12
2009/04/23 10:55:29.9    -102   -150    -47    182    189 214.1 -14.5  34212  290.47 0855.12
2009/04/23 10:55:30.0    -168   -119    -60    207    215 234.7 -21.2  34196  290.19 0855.12
2009/04/23 10:55:30.1    -136   -200    -34    243    246 214.3  -8.0  34206  290.34 0855.12
2009/04/23 10:55:30.2    -148   -251    -75    292    302 210.7 -14.5  34196  290.19 0855.12
2009/04/23 10:55:30.3    -183   -165    -11    247    248 227.8  -2.6  34206  290.36 0855.12
2009/04/23 10:55:30.4    -112   -201    -18    231    232 209.2  -4.6  34180  289.92 0855.12
2009/04/23 10:55:30.5    -102   -192    -16    218    219 207.9  -4.4  34184  289.97 0855.12
2009/04/23 10:55:30.6     -98   -209    -40    232    236 205.2  -9.8  34180  289.92 0855.12
2009/04/23 10:55:30.7     -71   -240      2    251    252 196.5   0.5  34178  289.86 0855.12
2009/04/23 10:55:30.8      -9   -207    -11    208    209 182.5  -3.1  34176  289.85 0855.12
2009/04/23 10:55:30.9       4   -216    -40    217    221 178.9 -10.5  34178  289.87 0855.12
2009/04/23 10:55:31.0       8   -174    -26    175    177 177.1  -8.6  34180  289.91 0855.12
2009/04/23 10:55:31.1       6   -131    -60    132    145 177.3 -30.6  34180  289.91 0855.12
2009/04/23 10:55:31.2     -24    -97    -13    101    102 194.3  -7.7  34182  289.96 0855.11
2009/04/23 10:55:31.3     -70    -34    -45     79     90 243.8 -36.8  34190  290.09 0855.11
2009/04/23 10:55:31.4     -98    -54    -52    113    124 241.1 -31.0  34194  290.14 0855.11
2009/04/23 10:55:31.5     -16   -117    -46    119    127 188.0 -26.4  34186  290.01 0855.11
2009/04/23 10:55:31.6     -53   -124    -92    136    164 203.2 -41.7  34202  290.28 0855.11
2009/04/23 10:55:31.7     -66   -128   -104    145    178 207.2 -43.7  34200  290.26 0855.11
2009/04/23 10:55:31.8     -84    -66    -60    108    123 231.8 -35.8  34202  290.30 0855.11
2009/04/23 10:55:31.9     -71    -45    -66     85    107 237.6 -46.6  34206  290.36 0855.11
2009/04/23 10:55:32.0     -17    -43    -49     47     67 201.8 -54.5  34196  290.19 0855.11
2009/04/23 10:55:32.1     -18    -82    -32     84     89 192.5 -25.9  34184  289.99 0855.11
2009/04/23 10:55:32.2     -13   -117    -48    118    127 186.7 -27.5  34186  290.01 0855.11
2009/04/23 10:55:32.3     -16    -97    -64     99    117 189.3 -40.0  34196  290.18 0855.11
2009/04/23 10:55:32.4      16    -92    -52     94    107 169.8 -35.8  34192  290.13 0855.11
2009/04/23 10:55:32.5      48    -60    -42     77     87 141.3 -35.2  34188  290.04 0855.11
2009/04/23 10:55:32.6      21    -13    -44     25     50 122.4 -72.1  34188  290.06 0855.11
2009/04/23 10:55:32.7     -11     18    -45     22     50 329.3 -77.2  34194  290.16 0855.11
2009/04/23 10:55:32.8     -10     35    -44     37     57 343.1 -60.7  34200  290.26 0855.11
2009/04/23 10:55:32.9      -3     80    -34     81     87 357.3 -28.0  34196  290.18 0855.11
2009/04/23 10:55:33.0     -24     33    -80     42     90 323.9 -74.8  34204  290.31 0855.11
2009/04/23 10:55:33.1      -4     28    -80     29     85 350.2 -84.6  34204  290.33 0855.11
2009/04/23 10:55:33.2     -29     43    -63     53     82 325.7 -59.8  34204  290.33 0855.11
2009/04/23 10:55:33.3     -44     75    -69     88    111 329.7 -47.1  34200  290.25 0855.11
2009/04/23 10:55:33.4     -48     73    -90     88    125 326.6 -54.5  34206  290.35 0855.11
2009/04/23 10:55:33.5      -9     16    -70     19     72 331.0 -89.3  34210  290.43 0855.11
2009/04/23 10:55:33.6       0      3    -22      4     22 355.5 -90.0  34210  290.43 0855.11
2009/04/23 10:55:33.7      18     49    -18     53     55  20.9 -23.6  34208  290.38 0855.11
2009/04/23 10:55:33.8       4     57    -36     58     68   4.4 -39.9  34200  290.26 0855.11
2009/04/23 10:55:33.9     -38     53    -74     66     99 324.0 -57.7  34200  290.25 0855.11
2009/04/23 10:55:34.0     -52     73    -67     91    113 324.4 -44.5  34186  290.02 0855.11
2009/04/23 10:55:34.1    -118     36   -111    124    166 286.9 -50.8  34198  290.21 0855.11
2009/04/23 10:55:34.2    -119     11   -102    120    157 275.7 -49.5  34196  290.18 0855.11
2009/04/23 10:55:34.3     -97    -32    -74    103    126 251.6 -43.9  34200  290.25 0855.11
2009/04/23 10:55:34.4    -135    -31    -89    139    165 256.7 -40.0  34184  289.97 0855.11
2009/04/23 10:55:34.5    -111    -22    -75    114    136 258.6 -40.0  34178  289.89 0855.11
2009/04/23 10:55:34.6    -107      0    -75    108    131 270.0 -42.4  34168  289.72 0855.11
2009/04/23 10:55:34.7    -115     13    -83    116    142 276.6 -43.9  34170  289.74 0855.11
2009/04/23 10:55:34.8    -124      7    -74    125    145 273.5 -37.9  34178  289.89 0855.11
2009/04/23 10:55:34.9     -83     14    -87     85    121 280.1 -54.6  34170  289.75 0855.11
2009/04/23 10:55:35.0     -35     23   -103     42    111 303.3 -81.4  34178  289.87 0855.11
2009/04/23 10:55:35.1      -3     -3    -65      5     65 226.7 -90.0  34182  289.94 0855.11
2009/04/23 10:55:35.2       3     -3    -58      5     58 133.3 -90.0  34184  289.99 0855.11
2009/04/23 10:55:35.3      15      4    -45     16     47  74.9 -85.6  34184  289.99 0855.11
2009/04/23 10:55:35.4    -111    -17    -41    113    120 261.2 -25.3  34180  289.91 0855.11
2009/04/23 10:55:35.5    -114     67   -107    133    170 300.7 -47.7  34174  289.82 0855.11
2009/04/23 10:55:35.6    -121     57   -132    134    188 295.2 -54.4  34176  289.85 0855.11
2009/04/23 10:55:35.7    -197    115   -167    229    283 300.4 -44.1  34176  289.85 0855.11
2009/04/23 10:55:35.8    -134    111   -116    175    209 309.6 -40.9  34180  289.91 0855.11
2009/04/23 10:55:35.9    -110     90    -82    143    164 309.1 -37.1  34180  289.91 0855.11
2009/04/23 10:55:36.0    -131    118   -175    177    248 312.2 -54.4  34180  289.92 0855.11
2009/04/23 10:55:36.1    -250     18   -196    251    318 274.1 -46.4  34188  290.03 0855.11
2009/04/23 10:55:36.2    -146      2   -147    147    207 270.8 -54.5  34184  289.99 0855.11
2009/04/23 10:55:36.3     -66     31   -144     74    161 295.4 -75.2  34190  290.09 0855.11
2009/04/23 10:55:36.4    -148     31   -194    152    246 281.9 -62.1  34186  290.02 0855.11
2009/04/23 10:55:36.5    -215     -6   -175    216    277 268.3 -47.7  34192  290.12 0855.11
2009/04/23 10:55:36.6    -195      1   -167    196    257 270.4 -49.2  34200  290.24 0855.11
2009/04/23 10:55:36.7    -196    -20   -173    198    262 263.9 -50.2  34192  290.12 0855.11
2009/04/23 10:55:36.8    -176      1   -166    177    242 270.4 -52.4  34182  289.96 0855.11
2009/04/23 10:55:36.9    -202    -22   -153    204    255 263.8 -45.1  34186  290.00 0855.11
2009/04/23 10:55:37.0    -238    -68   -152    248    290 254.0 -38.9  34190  290.09 0855.11
2009/04/23 10:55:37.1    -206    -68   -155    218    267 251.6 -43.2  34186  290.00 0855.11
2009/04/23 10:55:37.2    -155    -52   -105    164    194 251.4 -40.0  34184  289.97 0855.11
2009/04/23 10:55:37.3    -209    -11   -140    210    252 267.0 -40.9  34178  289.88 0855.11
2009/04/23 10:55:37.4    -219    -18   -148    220    265 265.2 -41.4  34178  289.88 0855.11
2009/04/23 10:55:37.5    -179    -64   -123    191    227 250.3 -40.0  34184  289.99 0855.11
2009/04/23 10:55:37.6    -163    -66   -133    177    221 247.8 -45.1  34184  289.99 0855.11
2009/04/23 10:55:37.7    -167   -109   -127    200    236 236.9 -39.9  34186  290.02 0855.11
2009/04/23 10:55:37.8    -187   -151   -121    241    269 231.1 -32.9  34190  290.07 0855.11
2009/04/23 10:55:37.9    -193   -137   -119    237    265 234.7 -32.9  34188  290.03 0855.11
2009/04/23 10:55:38.0    -160   -105   -113    192    222 236.5 -37.8  34182  289.96 0855.11
2009/04/23 10:55:38.1    -181   -115   -121    215    246 237.5 -36.5  34188  290.03 0855.11
2009/04/23 10:55:38.2    -228   -156   -105    277    296 235.6 -26.4  34188  290.05 0855.11
2009/04/23 10:55:38.3    -133   -147    -46    199    205 222.1 -13.2  34186  290.01 0855.11
2009/04/23 10:55:38.4    -183    -89   -143    204    249 244.0 -42.9  34186  290.02 0855.11
2009/04/23 10:55:38.5      23     13   -124     27    126  61.1 -90.0  34186  290.02 0855.11
2009/04/23 10:55:38.6      34    -26    -52     43     67 127.8 -60.7  34188  290.06 0855.11
2009/04/23 10:55:38.7      -2    -48    -50     49     70 182.7 -53.5  34190  290.09 0855.11
2009/04/23 10:55:38.8       3    -35    -76     36     84 173.8 -77.3  34190  290.09 0855.11
2009/04/23 10:55:38.9      95      0    -64     96    115  90.0 -40.4  34208  290.38 0855.11
2009/04/23 10:55:39.0     -40    -63   -138     75    157 212.5 -74.0  34206  290.36 0855.11
2009/04/23 10:55:39.1    -123    -90   -120    153    194 233.6 -46.6  34200  290.26 0855.11
2009/04/23 10:55:39.2     -29    -92   -103     97    141 197.4 -56.5  34194  290.16 0855.13
2009/04/23 10:55:39.3      15    -13   -110     20    111 131.3 -90.0  34200  290.26 0855.13
2009/04/23 10:55:39.4     -14    -57    -99     59    115 194.3 -70.1  34210  290.41 0855.13
2009/04/23 10:55:39.5      41   -133   -151    140    205 162.6 -56.9  34210  290.41 0855.13
2009/04/23 10:55:39.6     -10   -173   -130    174    217 183.4 -44.8  34190  290.08 0855.13
2009/04/23 10:55:39.7      50   -169    -90    177    198 163.5 -33.6  34194  290.16 0855.13
2009/04/23 10:55:39.8     179    -94    -68    203    214 117.8 -23.6  34202  290.28 0855.13
2009/04/23 10:55:39.9      51   -151    -45    160    166 161.3 -20.4  34210  290.43 0855.13
2009/04/23 10:55:40.0      13   -200    -73    201    213 176.2 -25.1  34202  290.28 0855.13
2009/04/23 10:55:40.1     103   -235    -91    257    273 156.2 -19.7  34194  290.14 0855.13
2009/04/23 10:55:40.2     135   -243    -71    279    288 151.0 -14.3  34190  290.09 0855.13
2009/04/23 10:55:40.3     138   -209     -7    251    252 146.4  -1.6  34188  290.03 0855.13
2009/04/23 10:55:40.4     231   -201     43    307    311 131.1   8.0  34188  290.05 0855.13
2009/04/23 10:55:40.5     139   -292    -12    324    325 154.5  -2.2  34188  290.05 0855.13
2009/04/23 10:55:40.6     137   -285     54    317    322 154.4   9.7  34186  290.02 0855.13
2009/04/23 10:55:40.7     226   -175    101    286    303 127.8  20.0  34186  290.02 0855.13
2009/04/23 10:55:40.8     271   -108     98    293    310 111.8  18.5  34192  290.10 0855.13
2009/04/23 10:55:40.9     247   -116     96    274    290 115.2  20.0  34186  290.02 0855.13
2009/04/23 10:55:41.0     193   -151    148    246    287 128.0  34.0  34192  290.10 0855.13
2009/04/23 10:55:41.1     222   -184     56    289    295 129.6  11.1  34182  289.95 0855.13
2009/04/23 10:55:41.2     205   -162     30    262    264 128.4   6.7  34186  290.02 0855.14
2009/04/23 10:55:41.3      39   -251    120    255    281 171.1  27.1  34186  290.00 0855.14
2009/04/23 10:55:41.4     133   -216     48    254    259 148.4  10.8  34190  290.07 0855.14
2009/04/23 10:55:41.6     109   -274      5    296    297 158.2   1.0  34186  290.02 0855.14
2009/04/23 10:55:41.6     102   -260    109    280    300 158.6  22.3  34188  290.05 0855.14
2009/04/23 10:55:41.7      89   -221    106    239    261 158.1  25.3  34188  290.05 0855.14
2009/04/23 10:55:41.8      93   -278     46    294    298 161.5   9.0  34178  289.88 0855.14
2009/04/23 10:55:41.9      31   -263    112    265    287 173.1  24.2  34190  290.07 0855.14
2009/04/23 10:55:42.0      33   -267    106    270    290 172.8  22.8  34188  290.05 0855.14
2009/04/23 10:55:42.1     -31   -217     60    220    229 188.1  15.3  34186  290.02 0855.14
2009/04/23 10:55:42.2     -59   -311     68    317    325 190.9  12.1  34190  290.09 0855.14
2009/04/23 10:55:42.3      41   -326    -15    329    330 172.8  -2.7  34184  289.99 0855.14
2009/04/23 10:55:42.4     -14   -367     86    368    378 182.2  13.2  34188  290.04 0855.14
2009/04/23 10:55:42.5     -50   -297     85    302    314 189.7  15.8  34188  290.05 0855.14
2009/04/23 10:55:42.6     -35   -262    211    265    338 187.8  42.7  34190  290.07 0855.14
2009/04/23 10:55:42.7     -68   -268    160    277    319 194.3  32.8  34202  290.29 0855.14
2009/04/23 10:55:42.8     -85   -279    111    292    312 197.0  21.7  34208  290.39 0855.14
2009/04/23 10:55:42.9     -82   -307     99    318    334 195.0  17.3  34204  290.32 0855.14
2009/04/23 10:55:43.0     -67   -265    151    274    312 194.2  31.3  34196  290.19 0855.14
2009/04/23 10:55:43.1     -30   -276    141    278    311 186.3  29.2  34200  290.26 0855.14
2009/04/23 10:55:43.2      -6   -239    176    240    297 181.6  39.7  34198  290.20 0855.14
2009/04/23 10:55:43.3      22   -275    169    276    323 175.3  34.4  34188  290.05 0855.14
2009/04/23 10:55:43.4      42   -270    171    274    322 171.1  35.0  34186  290.02 0855.14
2009/04/23 10:55:43.5      23   -252    194    254    319 174.7  41.3  34196  290.17 0855.14
2009/04/23 10:55:43.6      -2   -233    154    234    280 180.7  36.5  34196  290.17 0855.14
2009/04/23 10:55:43.7      14   -259    150    260    300 176.9  32.7  34194  290.15 0855.14
2009/04/23 10:55:43.8      15   -237    144    238    278 176.2  34.0  34196  290.17 0855.14
2009/04/23 10:55:43.9     -23   -245    177    247    303 185.4  39.5  34194  290.15 0855.14
2009/04/23 10:55:44.0       5   -296    194    297    354 179.0  36.3  34192  290.10 0855.14
2009/04/23 10:55:44.1      45   -264    164    268    314 170.2  34.3  34184  289.97 0855.14
2009/04/23 10:55:44.2     -32   -317    158    319    355 185.8  28.4  34192  290.10 0855.15
2009/04/23 10:55:44.3     -24   -315    189    316    368 184.4  33.6  34198  290.20 0855.15
2009/04/23 10:55:44.4      -7   -323    142    324    353 181.4  25.2  34194  290.16 0855.15
2009/04/23 10:55:44.5       8   -297    117    298    320 178.4  22.4  34190  290.09 0855.15
2009/04/23 10:55:44.6      31   -286    156    288    327 173.8  30.8  34194  290.14 0855.15
2009/04/23 10:55:44.7      11   -241    159    242    289 177.3  36.5  34190  290.07 0855.15
2009/04/23 10:55:44.8      -4   -292    166    293    336 180.9  32.0  34198  290.22 0855.15
2009/04/23 10:55:44.9      -4   -277    167    278    324 180.9  33.7  34198  290.22 0855.15
2009/04/23 10:55:45.0     -33   -312    178    314    360 186.2  32.1  34198  290.21 0855.15
2009/04/23 10:55:45.1     -22   -322    192    323    375 184.0  33.5  34196  290.18 0855.15
2009/04/23 10:55:45.2      24   -320    163    321    360 175.6  29.2  34192  290.13 0855.15
2009/04/23 10:55:45.3      12   -269    139    270    303 177.3  29.3  34192  290.10 0855.15
2009/04/23 10:55:45.4     -38   -311    155    314    350 187.1  28.0  34190  290.08 0855.15
2009/04/23 10:55:45.5     -48   -283    184    288    341 189.8  35.6  34192  290.12 0855.15
2009/04/23 10:55:45.6      -4   -279    156    280    320 181.0  31.7  34202  290.27 0855.15
2009/04/23 10:55:45.7      -7   -296    169    297    341 181.4  32.3  34202  290.29 0855.15
2009/04/23 10:55:45.8      17   -274    169    275    322 176.4  34.6  34202  290.29 0855.15
2009/04/23 10:55:45.9      17   -300    244    301    387 176.6  43.4  34200  290.25 0855.15
2009/04/23 10:55:46.0       0   -255    230    256    344 180.1  46.6  34194  290.14 0855.15
2009/04/23 10:55:46.1       2   -191    213    192    286 179.1  53.3  34200  290.24 0855.15
2009/04/23 10:55:46.2     -35   -244    203    247    319 188.2  43.6  34196  290.19 0855.15
2009/04/23 10:55:46.3     -31   -221    239    224    327 188.1  52.1  34192  290.12 0855.15
2009/04/23 10:55:46.4     -43   -229    293    234    374 190.7  57.5  34212  290.47 0855.15
2009/04/23 10:55:46.5     -27   -202    290    204    354 187.8  61.5  34200  290.24 0855.15
2009/04/23 10:55:46.6       7    -90    258     91    273 175.1  80.3  34218  290.57 0855.15
2009/04/23 10:55:46.7      12   -277    272    278    388 177.5  49.7  34218  290.54 0855.15
2009/04/23 10:55:46.8     -59   -419    168    424    456 188.0  23.0  34214  290.50 0855.15
2009/04/23 10:55:46.9    -224   -360    155    425    452 211.9  21.0  34218  290.55 0855.15
2009/04/23 10:55:47.0    -268   -297    248    401    471 222.0  34.5  34210  290.41 0855.15
2009/04/23 10:55:47.1    -193   -225    167    297    340 220.5  31.9  34220  290.59 0855.15
2009/04/23 10:55:47.2    -347   -199    171    401    435 240.1  24.6  34226  290.70 0855.15
2009/04/23 10:55:47.3    -339   -154    120    373    392 245.5  17.9  34262  291.30 0855.15
2009/04/23 10:55:47.4    -313   -159    -24    352    353 243.0  -4.0  34246  291.03 0855.15
2009/04/23 10:55:47.6    -178   -210    -97    276    293 220.3 -19.4  34256  291.19 0855.15
2009/04/23 10:55:47.7    -263   -190    -24    325    326 234.0  -4.2  34258  291.22 0855.15
2009/04/23 10:55:47.8    -395   -190    -35    439    441 244.3  -4.6  34282  291.63 0855.15
2009/04/23 10:55:47.9    -227   -248    106    337    354 222.4  17.5  34224  290.67 0855.15
2009/04/23 10:55:48.0    -269    -40     -8    273    274 261.4  -1.8  34278  291.58 0855.15
2009/04/23 10:55:48.1    -367   -159   -144    401    426 246.6 -24.8  34270  291.45 0855.15
2009/04/23 10:55:48.2    -406   -109   -149    421    447 254.9 -19.6  34242  290.97 0855.15
2009/04/23 10:55:48.3    -328    -36   -130    331    355 263.7 -27.1  34282  291.66 0855.14
2009/04/23 10:55:48.4    -254   -110   -124    277    303 246.5 -30.3  34292  291.80 0855.14
2009/04/23 10:55:48.5    -228   -163   -124    281    307 234.5 -29.6  34292  291.80 0855.14
2009/04/23 10:55:48.6    -173   -124    -99    214    235 234.3 -30.8  34296  291.89 0855.14
2009/04/23 10:55:48.7    -199    -66    -80    210    224 251.6 -26.1  34294  291.84 0855.14
2009/04/23 10:55:48.8    -216   -126    -32    251    254 239.8  -7.3  34300  291.96 0855.14
2009/04/23 10:55:48.9    -164   -162    -27    231    233 225.3  -6.9  34304  292.03 0855.14
2009/04/23 10:55:49.0    -183   -128    -44    224    229 234.9 -11.3  34268  291.40 0855.14
2009/04/23 10:55:49.1    -262   -107    -30    284    286 247.8  -6.2  34244  291.00 0855.14
2009/04/23 10:55:49.2    -252    -81    -10    265    266 252.1  -2.2  34270  291.43 0855.14
2009/04/23 10:55:49.3    -260    -74    -52    271    277 254.0 -10.9  34218  290.56 0855.14
2009/04/23 10:55:49.4    -284    -98    -38    301    304 250.9  -7.3  34242  290.97 0855.14
2009/04/23 10:55:49.5    -264    -38    -69    267    276 261.6 -14.5  34210  290.41 0855.14
2009/04/23 10:55:49.6    -278    -65    -82    286    297 256.8 -20.7  34194  290.14 0855.14
2009/04/23 10:55:49.7    -258    -90    -81    274    286 250.7 -16.6  34218  290.56 0855.14
2009/04/23 10:55:49.8    -243   -137    -20    280    281 240.5  -4.1  34232  290.78 0855.14
2009/04/23 10:55:49.9    -295    -84    -28    307    309 254.0  -5.4  34216  290.51 0855.14
2009/04/23 10:55:50.0    -288    -40    -80    291    302 262.0 -15.4  34244  291.00 0855.14
2009/04/23 10:55:50.1    -332     10    -32    333    335 271.9  -5.6  34264  291.34 0855.14
2009/04/23 10:55:50.2    -248      0     35    249    252 270.0   8.0  34244  290.99 0855.14
2009/04/23 10:55:50.3    -299     58     -6    305    306 281.0  -1.2  34230  290.76 0855.13
2009/04/23 10:55:50.4    -258    -48    -47    263    268 259.4 -10.1  34226  290.68 0855.13
2009/04/23 10:55:50.5    -263    -48    -63    268    276 259.5 -13.3  34188  290.03 0855.13
2009/04/23 10:55:50.6    -200    -64     -8    211    212 252.1  -2.2  34190  290.09 0855.13
2009/04/23 10:55:50.7    -154    -96     35    182    186 238.0  11.1  34194  290.14 0855.13
2009/04/23 10:55:50.8    -131   -182     11    225    226 215.8   2.8  34192  290.13 0855.13
2009/04/23 10:55:50.9    -144   -174     -6    227    228 219.6  -1.6  34192  290.13 0855.13
2009/04/23 10:55:51.0    -142   -185    -15    234    235 217.6  -3.9  34194  290.15 0855.13
2009/04/23 10:55:51.1    -127   -186    -37    226    230 214.2  -9.4  34192  290.11 0855.13
2009/04/23 10:55:51.2    -124   -173     -4    213    214 215.6  -1.3  34194  290.14 0855.13
2009/04/23 10:55:51.3    -126   -183    -12    223    224 214.5  -3.1  34190  290.09 0855.13
2009/04/23 10:55:51.4    -134   -209     26    249    251 212.6   6.1  34190  290.07 0855.13
2009/04/23 10:55:51.5    -126   -202     40    239    243 211.9   9.5  34196  290.19 0855.13
2009/04/23 10:55:51.6    -125   -182     23    221    223 214.5   6.1  34192  290.13 0855.13
2009/04/23 10:55:51.7    -144   -152     26    210    212 223.4   7.1  34190  290.09 0855.13
2009/04/23 10:55:51.8    -126   -119     15    174    175 226.7   5.2  34192  290.11 0855.13
2009/04/23 10:55:51.9    -145    -16     -8    146    147 263.4  -3.1  34206  290.36 0855.13
2009/04/23 10:55:52.0    -146    -44     29    153    156 253.1  11.0  34202  290.30 0855.13
2009/04/23 10:55:52.1    -155     21     21    157    159 277.9   7.8  34204  290.33 0855.13
2009/04/23 10:55:52.2    -148      0     83    149    170 269.6  31.6  34196  290.18 0855.13
2009/04/23 10:55:52.3    -151     50     66    160    173 288.6  23.6  34210  290.43 0855.12
2009/04/23 10:55:52.4    -109     19     13    111    112 280.1   6.9  34212  290.45 0855.12
2009/04/23 10:55:52.5    -111     23      5    114    115 281.9   2.9  34218  290.57 0855.12
2009/04/23 10:55:52.6    -142     15    -22    143    145 276.1  -8.8  34226  290.69 0855.12
2009/04/23 10:55:52.7    -146      6    -49    147    156 272.5 -18.7  34212  290.47 0855.12
2009/04/23 10:55:52.8    -145      0    -44    146    152 270.0 -21.8  34196  290.18 0855.12
2009/04/23 10:55:52.9    -150     -2    -48    151    159 269.1 -17.6  34180  289.92 0855.12
2009/04/23 10:55:53.0    -138    -45     -5    146    147 251.8  -2.2  34190  290.08 0855.12
2009/04/23 10:55:53.1    -117    -34    -24    122    125 253.6 -11.5  34182  289.96 0855.12
2009/04/23 10:55:53.2    -123     -9     -9    124    125 265.6  -4.6  34190  290.09 0855.12
2009/04/23 10:55:53.3    -112    -52    -16    124    126 245.2  -7.3  34192  290.11 0855.12
2009/04/23 10:55:53.4    -112    -59     53    127    137 242.0  23.6  34198  290.21 0855.12
2009/04/23 10:55:53.5    -144     -6    -14    145    146 267.4  -5.6  34198  290.21 0855.12
2009/04/23 10:55:53.6    -132     -8    -21    133    135 266.5  -9.3  34190  290.08 0855.12
2009/04/23 10:55:53.7    -125      0    -31    126    130 270.0 -13.9  34190  290.08 0855.12
2009/04/23 10:55:53.8    -108    -22    -35    111    117 258.5 -17.6  34188  290.06 0855.12
2009/04/23 10:55:53.9    -123     -2    -34    124    129 268.7 -15.5  34182  289.96 0855.12
2009/04/23 10:55:54.0    -154     17    -43    156    161 276.6 -20.0  34198  290.21 0855.12
2009/04/23 10:55:54.1    -130    -12    -39    131    137 264.3 -16.6  34180  289.92 0855.12
2009/04/23 10:55:54.2    -157    -30    -44    160    167 259.0 -15.5  34178  289.89 0855.12
2009/04/23 10:55:54.3    -149    -44    -38    156    161 253.6 -13.7  34182  289.94 0855.12
2009/04/23 10:55:54.4    -155    -21    -25    157    160 262.1  -9.3  34180  289.91 0855.12
2009/04/23 10:55:54.5    -163    -10    -17    164    165 266.3  -6.0  34178  289.89 0855.12
2009/04/23 10:55:54.6    -157    -29     -6    160    161 259.4  -2.2  34182  289.94 0855.12
2009/04/23 10:55:54.7    -140    -25    -13    143    144 259.9  -5.2  34178  289.87 0855.12
2009/04/23 10:55:54.8    -127      8      8    128    129 273.9   3.8  34176  289.85 0855.12
2009/04/23 10:55:54.9    -106      7     -4    107    108 274.3  -2.2  34180  289.91 0855.12
2009/04/23 10:55:55.0     -98      0    -14     99    101 270.0  -8.2  34188  290.06 0855.12
2009/04/23 10:55:55.1     -71    -75      0    104    105 223.7  -0.3  34200  290.26 0855.12
2009/04/23 10:55:55.2     -53    -74     -8     92     93 215.6  -5.2  34200  290.26 0855.12
2009/04/23 10:55:55.3     -31    -62     13     70     72 207.2  11.1  34202  290.30 0855.12
2009/04/23 10:55:55.4       0    -80     46     81     93 180.5  31.9  34204  290.31 0855.12
2009/04/23 10:55:55.5       2   -126     58    127    139 179.0  26.6  34194  290.16 0855.12
2009/04/23 10:55:55.6     -10   -136     37    137    143 184.5  15.3  34192  290.13 0855.12
2009/04/23 10:55:55.7     -15   -143      2    144    145 186.2   0.8  34192  290.13 0855.12
2009/04/23 10:55:55.8       8   -162    -25    163    165 177.1  -8.8  34192  290.13 0855.12
2009/04/23 10:55:55.9     -20   -166     -6    168    169 187.1  -2.3  34196  290.18 0855.12
2009/04/23 10:55:56.0      -8   -183      5    184    185 182.5   1.8  34198  290.23 0855.12
2009/04/23 10:55:56.1     -11   -200      8    201    202 183.4   2.5  34202  290.28 0855.12
2009/04/23 10:55:56.2     -47   -170     77    177    193 195.6  24.9  34200  290.25 0855.12
2009/04/23 10:55:56.3     -40   -171     62    176    187 193.4  19.4  34202  290.30 0855.12
2009/04/23 10:55:56.4     -50   -169     39    177    182 196.7  12.4  34198  290.23 0855.12
2009/04/23 10:55:56.5     -49   -145     90    154    178 198.7  32.9  34200  290.26 0855.12
2009/04/23 10:55:56.6     -20   -147    100    149    179 188.0  37.0  34202  290.28 0855.12
2009/04/23 10:55:56.7     -21   -196     93    198    218 186.2  27.1  34208  290.38 0855.12
2009/04/23 10:55:56.8     -10   -227     88    228    244 182.7  22.0  34206  290.36 0855.12
2009/04/23 10:55:56.9       0   -220     60    221    230 180.0  15.3  34194  290.16 0855.12
2009/04/23 10:55:57.0     -25   -201     48    203    209 187.1  13.5  34192  290.11 0855.12
2009/04/23 10:55:57.1     -98   -111     53    149    158 221.4  20.4  34196  290.19 0855.12
2009/04/23 10:55:57.2     -52    -21    111     57    124 247.4  70.8  34206  290.35 0855.12
2009/04/23 10:55:57.3      39      0     87     40     95  90.8  73.5  34220  290.60 0855.12
2009/04/23 10:55:57.4      37    -70     94     80    123 151.9  54.8  34214  290.48 0855.12
2009/04/23 10:55:57.5      45    -94    101    105    145 154.6  49.0  34210  290.41 0855.12
2009/04/23 10:55:57.6      15    -76     95     78    122 168.4  56.4  34214  290.50 0855.12
2009/04/23 10:55:57.7      78   -101     74    128    147 142.2  32.9  34208  290.40 0855.12
2009/04/23 10:55:57.8      94   -120     82    153    173 141.7  30.6  34206  290.35 0855.12
2009/04/23 10:55:57.9      93   -145     31    173    176 147.4  10.3  34196  290.18 0855.12
2009/04/23 10:55:58.0      50   -139     18    148    150 160.0   7.1  34194  290.14 0855.12
2009/04/23 10:55:58.1      72   -102      2    125    126 144.8   1.2  34194  290.14 0855.12
2009/04/23 10:55:58.2     107    -98      5    146    147 132.7   2.3  34198  290.23 0855.10
2009/04/23 10:55:58.4      94   -119     -8    152    153 141.7  -3.2  34192  290.11 0855.10
2009/04/23 10:55:58.4      70   -148     14    164    165 154.5   5.2  34194  290.16 0855.10
2009/04/23 10:55:58.5      68   -180     24    193    195 159.3   7.1  34196  290.18 0855.10
2009/04/23 10:55:58.6      80   -174     -1    192    193 155.3  -0.5  34198  290.23 0855.10
2009/04/23 10:55:58.7      46   -125     46    134    142 159.9  18.9  34198  290.21 0855.10
2009/04/23 10:55:58.8     -15   -131     77    132    152 186.7  33.4  34204  290.33 0855.10
2009/04/23 10:55:58.9     -23   -162     71    164    178 188.2  24.6  34204  290.31 0855.10
2009/04/23 10:55:59.0     -34   -155     56    159    169 192.5  19.4  34200  290.26 0855.10
2009/04/23 10:55:59.1     -17    -90    114     92    146 190.7  56.4  34206  290.36 0855.10
2009/04/23 10:55:59.2       9    -77    104     78    130 172.9  59.0  34210  290.43 0855.10
2009/04/23 10:55:59.3      44   -131    133    139    192 161.3  49.0  34210  290.41 0855.10
2009/04/23 10:55:59.4     -19   -213    146    215    259 185.3  37.6  34200  290.24 0855.10
2009/04/23 10:55:59.5     -37   -220     47    224    230 189.6  12.0  34194  290.16 0855.10
2009/04/23 10:55:59.6       7   -237     98    238    257 178.2  23.6  34196  290.17 0855.10
2009/04/23 10:55:59.7       0   -255     67    256    265 180.0  14.7  34198  290.20 0855.10
2009/04/23 10:55:59.8     -51   -260     62    266    274 191.1  13.2  34196  290.19 0855.10
2009/04/23 10:55:59.9     -20   -270     83    271    284 184.4  17.1  34196  290.17 0855.10
2009/04/23 10:56:00.0      25   -272     85    274    287 174.7  17.3  34192  290.12 0855.10
2009/04/23 10:56:00.1      24   -283     88    285    299 175.1  17.3  34188  290.05 0855.10
2009/04/23 10:56:00.2      26   -275    123    277    303 174.4  25.7  34186  290.02 0855.10
2009/04/23 10:56:00.3       0   -273    131    274    303 180.0  27.3  34188  290.05 0855.10
2009/04/23 10:56:00.4       8   -270    150    271    309 178.2  31.4  34194  290.15 0855.10
2009/04/23 10:56:00.5     -21   -279    142    280    313 184.4  29.1  34194  290.15 0855.10
2009/04/23 10:56:00.6     -16   -323    118    324    344 182.9  20.8  34198  290.23 0855.10
2009/04/23 10:56:00.7     -41   -291    146    294    328 188.1  28.4  34194  290.15 0855.10
2009/04/23 10:56:00.8     -30   -282    100    284    302 186.3  19.4  34194  290.14 0855.10
2009/04/23 10:56:00.9     -84   -259     34    273    276 198.0   7.2  34200  290.24 0855.10
2009/04/23 10:56:01.0    -137   -223     33    263    266 211.6   7.2  34200  290.26 0855.10
2009/04/23 10:56:01.1     -92   -166    -32    190    193 209.0  -9.8  34200  290.25 0855.10
2009/04/23 10:56:01.2     -58   -175    -30    185    188 198.5  -9.3  34196  290.19 0855.10
2009/04/23 10:56:01.3       1   -223    -53    224    231 179.5 -13.4  34198  290.21 0855.10
2009/04/23 10:56:01.4      15   -218    -56    219    227 176.0 -14.5  34196  290.19 0855.10
2009/04/23 10:56:01.5      58   -252    -22    259    261 166.9  -4.9  34198  290.22 0855.10
2009/04/23 10:56:01.6     119   -244     -5    272    273 153.9  -1.1  34198  290.20 0855.10
2009/04/23 10:56:01.7     151   -230     22    276    277 146.6   4.6  34202  290.29 0855.10
2009/04/23 10:56:01.8     148   -268     15    307    308 151.1   2.9  34198  290.22 0855.10
2009/04/23 10:56:01.9     114   -245     38    271    274 155.1   8.0  34210  290.42 0855.10
2009/04/23 10:56:02.0      74   -330     20    339    340 167.2   3.5  34216  290.52 0855.10
2009/04/23 10:56:02.1      16   -357     27    358    359 177.3   4.4  34214  290.50 0855.10
2009/04/23 10:56:02.2     -59   -295     22    301    302 191.5   4.2  34202  290.27 0855.10
2009/04/23 10:56:02.3      84   -206     81    223    237 157.7  21.0  34200  290.26 0855.10
2009/04/23 10:56:02.4      77   -227     79    240    253 161.1  18.4  34200  290.24 0855.10
2009/04/23 10:56:02.5      74   -223     61    236    244 161.5  14.7  34194  290.14 0855.10
2009/04/23 10:56:02.6      77   -216     36    230    233 160.4   9.0  34198  290.21 0855.10
2009/04/23 10:56:02.7     106   -172     43    203    208 148.4  12.2  34192  290.11 0855.10
2009/04/23 10:56:02.8      90   -169      4    192    193 151.9   1.2  34194  290.16 0855.10
2009/04/23 10:56:02.9      90   -152     -9    177    178 149.3  -3.1  34192  290.11 0855.10
2009/04/23 10:56:03.0      76   -146     70    165    179 152.4  24.1  34184  289.99 0855.10
2009/04/23 10:56:03.1     -19   -159    141    161    214 186.9  45.8  34190  290.08 0855.10
2009/04/23 10:56:03.2       0   -121    119    122    170 180.4  49.8  34196  290.18 0855.10
2009/04/23 10:56:03.3      16   -128    106    130    167 172.9  43.7  34188  290.06 0855.10
2009/04/23 10:56:03.4      -2   -149     59    150    161 180.9  22.5  34190  290.08 0855.10
2009/04/23 10:56:03.5      10   -131     31    132    136 175.6  13.2  34188  290.04 0855.10
2009/04/23 10:56:03.6     -44   -188     -3    194    195 193.1  -1.2  34198  290.23 0855.10
2009/04/23 10:56:03.7     -77   -253    -10    265    266 196.9  -2.2  34196  290.17 0855.10
2009/04/23 10:56:03.8      -7   -254    -18    255    256 181.8  -4.1  34192  290.12 0855.10
2009/04/23 10:56:03.9      10   -227    -16    228    229 177.3  -4.1  34198  290.21 0855.10
2009/04/23 10:56:04.0       0   -190    -61    191    200 180.2 -23.0  34206  290.35 0855.10
2009/04/23 10:56:04.1      53   -133    -47    144    152 158.1 -18.3  34200  290.25 0855.10
2009/04/23 10:56:04.2      77   -141     22    161    163 151.1   7.8  34198  290.21 0855.10
2009/04/23 10:56:04.3      74   -134     42    154    160 151.1  15.3  34200  290.26 0855.11
2009/04/23 10:56:04.4      62    -97     65    116    132 147.5  31.4  34196  290.18 0855.11
2009/04/23 10:56:04.5      71    -97     58    121    134 143.9  27.3  34196  290.19 0855.11
2009/04/23 10:56:04.6      51   -115    119    127    174 155.9  48.5  34200  290.25 0855.11
2009/04/23 10:56:04.7      74   -109     92    132    160 145.7  38.4  34206  290.36 0855.11
2009/04/23 10:56:04.8       5    -86     71     87    112 176.4  43.7  34202  290.30 0855.11
2009/04/23 10:56:04.9      41   -104     67    113    131 158.2  33.5  34204  290.31 0855.11
2009/04/23 10:56:05.0      53   -110     65    123    139 154.1  30.3  34202  290.30 0855.11
2009/04/23 10:56:05.1      42   -105     65    114    131 158.2  32.4  34202  290.30 0855.11
2009/04/23 10:56:05.2      34   -105     69    111    130 161.7  35.5  34206  290.35 0855.11
2009/04/23 10:56:05.3     -27   -116     67    120    137 193.4  31.4  34204  290.33 0855.13
2009/04/23 10:56:05.4     -31   -180     85    183    201 190.0  26.6  34204  290.33 0855.13
2009/04/23 10:56:05.5      31   -173    102    176    203 169.8  33.1  34204  290.31 0855.13
2009/04/23 10:56:05.6      49   -176     70    183    195 164.2  22.0  34202  290.28 0855.13
2009/04/23 10:56:05.7      28   -205    103    208    232 172.0  28.0  34204  290.31 0855.13
2009/04/23 10:56:05.8      75   -188     73    203    215 158.1  20.7  34204  290.33 0855.13
2009/04/23 10:56:05.9      73   -154     42    171    177 154.4  13.9  34198  290.23 0855.13
2009/04/23 10:56:06.0      51   -190     68    197    209 164.9  19.2  34194  290.14 0855.13
2009/04/23 10:56:06.1      33   -232     78    235    248 171.9  18.4  34200  290.26 0855.13
2009/04/23 10:56:06.2       0   -216     74    217    230 180.0  18.9  34200  290.26 0855.13
2009/04/23 10:56:06.3      39   -228     17    232    233 170.3   4.2  34200  290.25 0855.13
2009/04/23 10:56:06.4      51   -200    -52    207    214 165.5 -14.3  34200  290.25 0855.13
2009/04/23 10:56:06.5      51   -248    -32    254    257 168.2  -7.3  34206  290.36 0855.13
2009/04/23 10:56:06.6      68   -211     10    222    223 162.0   2.8  34206  290.36 0855.13
2009/04/23 10:56:06.7     130   -124      7    180    181 133.6   2.5  34202  290.30 0855.13
2009/04/23 10:56:06.8      84   -156    -55    178    186 151.5 -22.5  34206  290.35 0855.13
2009/04/23 10:56:06.9      81   -187    -59    204    212 156.6 -21.0  34210  290.41 0855.13
2009/04/23 10:56:07.0     156   -171    -25    232    234 137.7  -6.2  34206  290.36 0855.13
2009/04/23 10:56:07.1     171   -171     -5    242    243 135.0  -1.3  34196  290.19 0855.13
2009/04/23 10:56:07.2     166   -110     58    200    209 123.7  16.3  34196  290.18 0855.13
2009/04/23 10:56:07.3     137    -61     71    151    166 114.0  27.1  34190  290.08 0855.12
2009/04/23 10:56:07.4     125    -31     20    129    131 104.2   9.0  34188  290.04 0855.12
2009/04/23 10:56:07.5     225    -64    -11    234    235 105.9  -2.8  34194  290.15 0855.12
2009/04/23 10:56:07.6     205    -92     27    225    227 114.2   6.9  34194  290.14 0855.12
2009/04/23 10:56:07.7     150   -110     19    187    188 126.4   5.9  34194  290.14 0855.12
2009/04/23 10:56:07.8     114   -137    -38    179    184 140.1 -12.2  34202  290.28 0855.12
2009/04/23 10:56:07.9     114   -154    -54    192    199 143.5 -20.4  34208  290.38 0855.12
2009/04/23 10:56:08.0      80   -148    -51    169    177 151.7 -17.0  34208  290.38 0855.12
2009/04/23 10:56:08.1      53   -160    -12    169    170 161.5  -4.1  34204  290.33 0855.12
2009/04/23 10:56:08.2      14   -153      3    154    155 174.7   1.2  34206  290.35 0855.12
2009/04/23 10:56:08.3      15   -193     27    194    196 175.3   8.0  34202  290.30 0855.12
2009/04/23 10:56:08.4       9   -196     25    197    199 177.1   7.5  34204  290.31 0855.12
2009/04/23 10:56:08.5      11   -176     10    177    178 176.4   3.3  34196  290.18 0855.12
2009/04/23 10:56:08.6     -72   -168    -56    183    192 203.2 -17.0  34200  290.25 0855.12
2009/04/23 10:56:08.7     -73   -157    -40    174    179 204.9 -13.2  34198  290.23 0855.12
2009/04/23 10:56:08.8     -78   -143     12    164    165 208.7   4.2  34198  290.21 0855.12
2009/04/23 10:56:08.9     -87   -191    -11    210    211 204.5  -3.2  34196  290.19 0855.12
2009/04/23 10:56:09.0     -38   -222     11    226    227 189.7   2.8  34200  290.26 0855.12
2009/04/23 10:56:09.1     -71   -215     -4    227    228 198.3  -1.2  34196  290.19 0855.12
2009/04/23 10:56:09.2    -109   -213     16    240    241 207.1   3.9  34198  290.20 0855.12
2009/04/23 10:56:09.3     -45   -245     45    250    255 190.6  10.3  34196  290.17 0855.12
2009/04/23 10:56:09.4    -148   -236    -65    279    287 212.1 -13.3  34196  290.17 0855.12
2009/04/23 10:56:09.5    -150   -374    -56    404    409 201.9  -8.0  34194  290.14 0855.12
2009/04/23 10:56:09.6    -148   -338    -35    370    372 203.7  -5.5  34192  290.11 0855.12
2009/04/23 10:56:09.7     -70   -409    -83    416    425 189.8 -11.3  34190  290.07 0855.12
2009/04/23 10:56:09.8     -39   -313    -88    316    328 187.1 -20.3  34188  290.03 0855.12
2009/04/23 10:56:09.9    -131   -387   -105    409    423 198.7 -14.4  34196  290.17 0855.12
2009/04/23 10:56:10.0    -144   -320    -18    352    353 204.3  -3.0  34186  290.01 0855.12
2009/04/23 10:56:10.1    -204   -320     29    380    382 212.6   4.5  34194  290.16 0855.12
2009/04/23 10:56:10.2    -209   -503   -119    545    559 202.6 -12.4  34206  290.35 0855.12
2009/04/23 10:56:10.3    -225   -472     54    523    526 205.5   6.0  34196  290.19 0855.12
2009/04/23 10:56:10.4    -216   -379    -28    437    438 209.7  -3.8  34192  290.11 0855.12
2009/04/23 10:56:10.5    -264   -356    -41    444    447 216.5  -5.4  34196  290.19 0855.12
2009/04/23 10:56:10.6    -213   -335   -134    398    421 212.5 -18.7  34182  289.94 0855.12
2009/04/23 10:56:10.7    -199   -314   -119    373    391 212.4 -22.8  34190  290.08 0855.12
2009/04/23 10:56:10.8    -135   -373   -133    397    418 200.0 -23.3  34198  290.21 0855.12
2009/04/23 10:56:10.9    -156   -312   -149    349    379 206.6 -29.0  34202  290.28 0855.12
2009/04/23 10:56:11.0    -290   -276   -111    401    417 226.5 -15.5  34206  290.34 0855.12
2009/04/23 10:56:11.1    -253   -196   -138    321    349 232.2 -29.2  34208  290.37 0855.12
2009/04/23 10:56:11.2    -182   -176   -143    254    291 226.0 -36.3  34218  290.54 0855.12
2009/04/23 10:56:11.3    -110   -214   -149    241    283 207.4 -39.2  34222  290.63 0855.13
2009/04/23 10:56:11.4     -43   -279   -146    283    318 188.9 -33.8  34216  290.51 0855.13
2009/04/23 10:56:11.5     -42   -287   -129    291    318 188.5 -30.0  34202  290.29 0855.13
2009/04/23 10:56:11.6     -35   -272    -97    275    292 187.3 -19.4  34198  290.20 0855.13
2009/04/23 10:56:11.7     -69   -288   -106    297    316 193.6 -19.7  34194  290.14 0855.13
2009/04/23 10:56:11.8       0   -251    -77    252    263 180.2 -22.1  34202  290.27 0855.13
2009/04/23 10:56:11.9     -16   -219    -66    220    230 184.4 -16.8  34194  290.16 0855.13
2009/04/23 10:56:12.0      -3   -206    -82    207    222 180.9 -27.4  34198  290.23 0855.13
2009/04/23 10:56:12.1       8   -159    -64    160    172 176.9 -27.2  34196  290.19 0855.13
2009/04/23 10:56:12.2      18   -145    -84    147    169 172.9 -36.8  34196  290.18 0855.13
2009/04/23 10:56:12.3      31   -152   -118    156    195 168.5 -45.6  34198  290.23 0855.13
2009/04/23 10:56:12.4      57   -153   -101    164    192 159.5 -39.4  34210  290.43 0855.13
2009/04/23 10:56:12.5      37   -183   -104    187    213 168.4 -35.8  34212  290.47 0855.13
2009/04/23 10:56:12.6      76   -161    -49    179    186 154.6 -15.4  34208  290.38 0855.13
2009/04/23 10:56:12.7     167   -230    -47    285    289 143.9  -9.4  34186  290.02 0855.13
2009/04/23 10:56:12.8     232   -230      5    327    328 134.8   1.0  34170  289.73 0855.13
2009/04/23 10:56:12.9     270   -214    -22    345    346 128.4  -3.8  34176  289.84 0855.13
2009/04/23 10:56:13.0     266   -156     42    309    312 120.4   7.8  34176  289.85 0855.13
2009/04/23 10:56:13.1     183   -172     26    252    254 133.1   5.9  34176  289.83 0855.13
2009/04/23 10:56:13.2     205   -218    105    300    319 136.7  19.4  34176  289.83 0855.13
2009/04/23 10:56:13.3     153   -238     77    284    295 147.3  15.2  34180  289.92 0855.15
2009/04/23 10:56:13.4     163   -248     46    298    302 146.6   8.9  34188  290.03 0855.15
2009/04/23 10:56:13.5     152   -217    118    265    290 145.0  25.3  34180  289.90 0855.15
2009/04/23 10:56:13.6     155   -127     69    201    213 129.5  18.9  34188  290.06 0855.15
2009/04/23 10:56:13.7     100   -141     69    173    186 144.6  23.0  34186  290.01 0855.15
2009/04/23 10:56:13.8     128   -169     99    213    234 142.8  26.6  34180  289.91 0855.15
2009/04/23 10:56:13.9      99   -149     69    180    192 146.4  21.7  34182  289.94 0855.15
2009/04/23 10:56:14.0     107   -138     68    175    187 142.2  22.3  34190  290.08 0855.15
2009/04/23 10:56:14.1     132   -112     49    174    181 130.4  15.8  34188  290.04 0855.15
2009/04/23 10:56:14.2     113    -37     11    119    120 108.2   5.4  34196  290.18 0855.15
2009/04/23 10:56:14.3      91    -61     34    110    116 123.7  17.3  34198  290.21 0855.15
2009/04/23 10:56:14.4      85    -76     63    115    131 131.8  31.3  34194  290.16 0855.15
2009/04/23 10:56:14.5     117    -73     59    138    150 122.0  24.6  34194  290.14 0855.15
2009/04/23 10:56:14.6     100    -60     82    117    142 121.1  38.0  34196  290.19 0855.15
2009/04/23 10:56:14.7      51   -167    158    175    235 162.8  46.9  34190  290.09 0855.15
2009/04/23 10:56:14.8      32    -63    124     71    142 152.8  67.7  34200  290.25 0855.15
2009/04/23 10:56:14.9     138    -45    111    146    183 108.2  40.9  34194  290.14 0855.15
2009/04/23 10:56:15.0     138    -37    104    143    176 105.0  39.7  34192  290.13 0855.15
2009/04/23 10:56:15.1     159     -2     78    160    178  90.9  28.0  34192  290.11 0855.15
2009/04/23 10:56:15.2     132    -12     61    133    146  95.2  27.1  34192  290.11 0855.15
2009/04/23 10:56:15.4     124    -55     41    136    143 114.0  16.8  34196  290.18 0855.16
2009/04/23 10:56:15.5     105   -129     83    167    186 141.0  28.0  34196  290.18 0855.16
2009/04/23 10:56:15.6      88   -183     82    204    219 154.4  23.1  34192  290.13 0855.16
2009/04/23 10:56:15.7       8   -113    125    114    169 175.5  53.0  34200  290.26 0855.16
2009/04/23 10:56:15.8      85      0    122     86    149  90.4  61.1  34212  290.47 0855.16
2009/04/23 10:56:15.9      42    -34    111     55    123 128.6  71.4  34198  290.23 0855.16
2009/04/23 10:56:16.0      55     11    129     57    141  78.5  74.9  34204  290.33 0855.16
2009/04/23 10:56:16.1     -13     68    123     70    141 348.5  68.3  34214  290.48 0855.16
2009/04/23 10:56:16.2       6      6     68      9     68  43.4  90.0  34212  290.45 0855.16
2009/04/23 10:56:16.3     -40     -8    116     41    123 258.5  80.2  34228  290.72 0855.16
2009/04/23 10:56:16.4     -65     30    125     72    144 295.4  67.2  34226  290.69 0855.16
2009/04/23 10:56:16.5     -35     28     49     45     66 308.6  52.2  34218  290.57 0855.16
2009/04/23 10:56:16.6       7      0     69      8     69  90.0  90.0  34214  290.48 0855.16
2009/04/23 10:56:16.7     -17    -42     30     46     54 201.8  35.6  34204  290.31 0855.16
2009/04/23 10:56:16.8      20    -26    -13     34     36 142.2 -23.3  34204  290.33 0855.16
2009/04/23 10:56:16.9       0     12    -33     13     35 357.3 -83.6  34212  290.45 0855.16
2009/04/23 10:56:17.0     -11     55    -82     57     99 348.5 -65.9  34204  290.31 0855.16
2009/04/23 10:56:17.1      38     85   -123     94    154  24.5 -62.9  34204  290.33 0855.16
2009/04/23 10:56:17.2      98     86   -103    131    166  48.6 -46.8  34200  290.26 0855.16
2009/04/23 10:56:17.3      74     65    -64     99    117  48.7 -40.0  34198  290.23 0855.16
2009/04/23 10:56:17.4     -34     53   -120     64    136 327.5 -74.2  34196  290.19 0855.17
2009/04/23 10:56:17.5     -99     27   -113    103    152 285.5 -56.6  34192  290.13 0855.17
2009/04/23 10:56:17.6     -96     46   -107    107    151 295.8 -54.5  34198  290.23 0855.17
2009/04/23 10:56:17.7    -107     91    -91    141    167 310.4 -40.1  34198  290.21 0855.17
2009/04/23 10:56:17.8     -84     19    -89     87    124 282.8 -54.5  34204  290.31 0855.17
2009/04/23 10:56:17.9     -47      3   -101     48    111 274.4 -77.3  34204  290.33 0855.17
2009/04/23 10:56:18.0     -99    -12   -110    100    148 263.0 -56.6  34206  290.35 0855.17
2009/04/23 10:56:18.1    -118     11   -114    119    164 275.7 -53.6  34196  290.19 0855.17
2009/04/23 10:56:18.2    -177     89    -18    199    200 296.9  -5.2  34200  290.26 0855.17
2009/04/23 10:56:18.3    -270     40     -5    274    275 278.6  -1.2  34212  290.44 0855.17
2009/04/23 10:56:18.4    -305     70    -76    314    324 283.0 -13.6  34218  290.56 0855.17
2009/04/23 10:56:18.5    -273     59    -82    280    291 282.3 -21.5  34210  290.41 0855.17
2009/04/23 10:56:18.6    -279    -38     44    282    286 262.1   9.0  34206  290.36 0855.17
2009/04/23 10:56:18.7    -317     13    -40    318    321 272.5  -7.2  34246  291.02 0855.17
2009/04/23 10:56:18.8    -350    126    -71    373    380 289.9 -10.8  34222  290.62 0855.17
2009/04/23 10:56:18.9    -213     29    -76    215    229 277.9 -19.6  34206  290.36 0855.17
2009/04/23 10:56:19.0    -102      5     51    103    114 273.0  27.8  34216  290.52 0855.17
2009/04/23 10:56:19.1    -145     20     -6    147    148 278.0  -2.6  34224  290.65 0855.17
2009/04/23 10:56:19.2     -70    -44     -6     83     84 237.6  -4.1  34224  290.67 0855.17
2009/04/23 10:56:19.3     -35     22      2     42     43 302.4   2.9  34218  290.57 0855.17
2009/04/23 10:56:19.4     -22     78     24     82     86 344.4  16.3  34220  290.60 0855.15
2009/04/23 10:56:19.5     -29     29     17     42     45 315.0  23.0  34222  290.64 0855.15
2009/04/23 10:56:19.6     -25      4     -6     26     27 279.7 -13.4  34220  290.60 0855.15
2009/04/23 10:56:19.7      -3    -21      9     22     23 189.8  21.0  34222  290.64 0855.15
2009/04/23 10:56:19.8      24    -36     17     44     47 145.7  21.0  34226  290.70 0855.15
2009/04/23 10:56:19.9      49    -76     30     91     96 147.4  18.4  34222  290.62 0855.15
2009/04/23 10:56:20.0      61    -96     13    115    116 147.5   6.9  34220  290.60 0855.15
2009/04/23 10:56:20.1     113    -71     18    134    136 122.5   8.0  34216  290.52 0855.15
2009/04/23 10:56:20.2     129    -51     -5    139    140 111.7  -2.2  34216  290.53 0855.15
2009/04/23 10:56:20.3     142    -56     15    153    154 111.7   5.9  34214  290.50 0855.15
2009/04/23 10:56:20.4     130    -88     54    158    168 124.2  18.9  34218  290.55 0855.15
2009/04/23 10:56:20.5     161    -78     72    180    193 116.0  23.0  34212  290.47 0855.15
2009/04/23 10:56:20.6     116    -76     68    139    154 123.3  27.3  34212  290.45 0855.15
2009/04/23 10:56:20.7     111    -83    110    139    177 126.9  42.7  34206  290.35 0855.15
2009/04/23 10:56:20.8     102    -47     78    113    137 114.8  38.0  34204  290.33 0855.15
2009/04/23 10:56:20.9       3   -125     81    126    149 178.6  35.6  34200  290.26 0855.15
2009/04/23 10:56:21.0     -13   -169    156    170    230 184.5  47.7  34198  290.21 0855.15
2009/04/23 10:56:21.1      49   -189    162    196    254 165.5  43.8  34200  290.24 0855.15
2009/04/23 10:56:21.2      27   -159    170    162    234 170.3  51.4  34198  290.23 0855.15
2009/04/23 10:56:21.3      33   -173    169    177    244 169.1  49.0  34198  290.23 0855.15
2009/04/23 10:56:21.4      61   -223    175    232    290 164.6  40.9  34200  290.24 0855.15
2009/04/23 10:56:21.5     105   -198     80    225    238 152.1  20.2  34194  290.15 0855.15
2009/04/23 10:56:21.6      80   -237     88    251    267 161.3  19.4  34194  290.14 0855.15
2009/04/23 10:56:21.7      32   -229    122    232    262 172.0  30.2  34196  290.17 0855.15
2009/04/23 10:56:21.8      37   -199     91    203    222 169.3  25.7  34192  290.13 0855.15
2009/04/23 10:56:21.9      -9   -205     90    206    224 182.7  25.2  34198  290.21 0855.15
2009/04/23 10:56:22.0       2   -183     98    184    208 179.1  30.3  34194  290.16 0855.15
2009/04/23 10:56:22.1      -8   -256     74    257    268 181.8  16.0  34190  290.09 0855.15
2009/04/23 10:56:22.2     -16   -261     82    262    275 183.6  17.4  34192  290.12 0855.15
2009/04/23 10:56:22.3     -63   -312    164    319    358 191.6  29.3  34192  290.11 0855.15
2009/04/23 10:56:22.4     -23   -287    173    289    336 184.7  33.7  34194  290.15 0855.15
2009/04/23 10:56:22.5       1   -277     24    278    280 179.8   5.0  34194  290.14 0855.15
2009/04/23 10:56:22.6     -11   -147     50    148    157 184.5  18.6  34188  290.06 0855.15
2009/04/23 10:56:22.7     -19    -71    103     74    126 195.2  60.6  34202  290.30 0855.15
2009/04/23 10:56:22.8      91     -6     95     92    132  93.9  50.7  34204  290.31 0855.15
2009/04/23 10:56:22.9     100    -52     91    113    145 117.5  43.7  34204  290.33 0855.15
2009/04/23 10:56:23.0     101    -32     62    106    122 107.7  33.5  34198  290.23 0855.15
2009/04/23 10:56:23.1      98    -32     35    104    111 108.2  18.9  34196  290.19 0855.15
2009/04/23 10:56:23.2      99    -21     62    102    119 101.9  34.0  34204  290.31 0855.15
2009/04/23 10:56:23.3      78    -73      5    108    109 133.2   2.9  34196  290.19 0855.15
2009/04/23 10:56:23.4      88    -91     14    127    128 135.9   6.5  34196  290.19 0855.15
2009/04/23 10:56:23.5     108    -59     34    124    129 118.8  15.3  34196  290.18 0855.15
2009/04/23 10:56:23.6     110    -29     14    114    115 105.1   7.1  34198  290.21 0855.15
2009/04/23 10:56:23.7     109    -20    -14    111    112 100.6  -7.3  34192  290.13 0855.15
2009/04/23 10:56:23.8     132    -14     29    133    137  96.2  12.6  34192  290.13 0855.15
2009/04/23 10:56:23.9     103    -34    -11    109    110 108.6  -6.2  34194  290.14 0855.15
2009/04/23 10:56:24.0      84     -3    -14     85     87  92.1  -9.8  34192  290.13 0855.15
2009/04/23 10:56:24.1      50     15    -14     53     56  73.2 -15.4  34192  290.13 0855.15
2009/04/23 10:56:24.2      44      5     23     45     50  83.0  29.3  34196  290.19 0855.15
2009/04/23 10:56:24.3      36     14     35     39     52  68.3  46.9  34198  290.21 0855.15
2009/04/23 10:56:24.4       1     18     57     19     60   4.5  81.0  34208  290.40 0855.15
2009/04/23 10:56:24.5       7     37     71     38     80  11.6  69.8  34206  290.36 0855.15
2009/04/23 10:56:24.6      -8     11     76     14     77 323.9  89.1  34226  290.69 0855.15
2009/04/23 10:56:24.7     -19    -23     69     31     75 219.6  73.1  34224  290.65 0855.15
2009/04/23 10:56:24.8     -33    -33     46     48     66 225.0  50.0  34218  290.55 0855.15
2009/04/23 10:56:24.9     -59     -8     30     60     67 262.1  28.2  34212  290.45 0855.15
2009/04/23 10:56:25.0     -50      4     39     51     64 275.2  40.7  34210  290.41 0855.15
2009/04/23 10:56:25.1     -34      6      3     35     36 281.5   4.9  34204  290.31 0855.15
2009/04/23 10:56:25.2     -10      0     32     11     33 270.0  81.0  34206  290.35 0855.15
2009/04/23 10:56:25.3      15    -51     75     54     92 163.1  60.5  34216  290.53 0855.15
2009/04/23 10:56:25.4       1    -35     51     36     62 177.3  60.6  34216  290.52 0855.15
2009/04/23 10:56:25.5     -18      3     27     19     33 281.5  60.5  34222  290.62 0855.15
2009/04/23 10:56:25.6     -65    -47     -3     81     82 234.0  -2.2  34212  290.45 0855.15
2009/04/23 10:56:25.7     -58    -40     -9     71     72 234.9  -7.3  34206  290.35 0855.15
2009/04/23 10:56:25.8     -76   -105     74    130    149 216.1  31.9  34208  290.38 0855.15
2009/04/23 10:56:25.9     -67   -150    -58    165    174 204.1 -23.8  34206  290.36 0855.15
2009/04/23 10:56:26.0     -85   -147    -54    170    179 210.1 -17.6  34210  290.41 0855.15
2009/04/23 10:56:26.1    -114   -108    -14    158    159 226.4  -5.4  34212  290.47 0855.15
2009/04/23 10:56:26.2    -114   -129     26    173    176 221.4   8.8  34220  290.58 0855.15
2009/04/23 10:56:26.3     -49   -159     -1    167    168 197.4  -0.5  34224  290.65 0855.15
2009/04/23 10:56:26.4     -11   -262     67    263    272 182.5  14.3  34200  290.26 0855.15
2009/04/23 10:56:26.5      44   -340      0    343    344 172.6   0.0  34204  290.33 0855.15
2009/04/23 10:56:26.6      61   -378     14    383    384 170.8   2.2  34206  290.35 0855.15
2009/04/23 10:56:26.7      99   -292     38    309    312 161.3   7.1  34200  290.26 0855.15
2009/04/23 10:56:26.8     133   -282     63    312    319 154.7  11.5  34206  290.34 0855.15
2009/04/23 10:56:26.9     104   -268      8    288    289 158.8   1.7  34204  290.32 0855.15
2009/04/23 10:56:27.0      98   -254     -5    273    274 158.8  -1.2  34206  290.36 0855.15
2009/04/23 10:56:27.1      31   -218    -73    221    233 171.9 -18.3  34210  290.43 0855.15
2009/04/23 10:56:27.2     138   -229    -10    268    269 148.8  -2.2  34206  290.34 0855.15
2009/04/23 10:56:27.3     153   -244     58    289    295 147.9  11.4  34206  290.34 0855.15
2009/04/23 10:56:27.4      76   -369    106    377    392 168.3  15.8  34202  290.30 0855.15
2009/04/23 10:56:27.5     124   -431     76    449    456 163.9   9.7  34198  290.21 0855.15
2009/04/23 10:56:27.6     152   -387     48    417    420 158.5   6.6  34198  290.21 0855.15
2009/04/23 10:56:27.7     180   -362      6    405    406 153.5   0.9  34190  290.09 0855.15
2009/04/23 10:56:27.8      55   -396     85    400    410 172.0  12.0  34188  290.04 0855.15
2009/04/23 10:56:27.9     -17   -327     77    328    337 183.0  13.2  34192  290.10 0855.15
2009/04/23 10:56:28.0     -42   -213      9    218    219 191.3   2.5  34188  290.06 0855.15
2009/04/23 10:56:28.1     -57   -213     47    221    226 195.2  12.0  34190  290.08 0855.15
2009/04/23 10:56:28.2     -71   -248     14    259    260 196.0   3.1  34186  290.00 0855.15
2009/04/23 10:56:28.3    -216   -339    -60    403    408 212.5  -8.6  34180  289.92 0855.15
2009/04/23 10:56:28.4    -199   -404    -46    451    454 206.3  -5.9  34182  289.94 0855.16
2009/04/23 10:56:28.5    -258   -309   -127    403    423 219.9 -17.5  34182  289.94 0855.16
2009/04/23 10:56:28.6    -246   -190   -110    312    330 232.3 -24.5  34190  290.09 0855.16
2009/04/23 10:56:28.7    -248   -209   -122    325    347 229.8 -25.9  34196  290.18 0855.16
2009/04/23 10:56:28.8    -160   -210   -192    265    327 217.4 -43.9  34176  289.85 0855.16
2009/04/23 10:56:28.9    -112   -228   -169    255    305 206.3 -40.9  34182  289.95 0855.16
2009/04/23 10:56:29.0    -223   -280    -88    359    370 218.5 -13.8  34240  290.94 0855.16
2009/04/23 10:56:29.1    -148   -232   -140    276    309 212.6 -33.5  34220  290.58 0855.16
2009/04/23 10:56:29.2    -283   -229   -149    365    394 231.0 -28.0  34202  290.27 0855.16
2009/04/23 10:56:29.3    -174   -308   -187    355    401 209.5 -34.5  34184  289.98 0855.16
2009/04/23 10:56:29.4    -174   -310   -186    356    401 209.4 -34.2  34186  290.01 0855.16
2009/04/23 10:56:29.5    -239   -289   -136    376    399 219.6 -25.1  34182  289.96 0855.16
2009/04/23 10:56:29.6    -373   -234   -210    441    488 237.9 -31.7  34182  289.96 0855.16
2009/04/23 10:56:29.7    -416   -249   -164    485    513 239.1 -18.7  34188  290.03 0855.16
2009/04/23 10:56:29.8    -257   -257   -281    364    459 225.0 -46.0  34180  289.92 0855.16
2009/04/23 10:56:29.9    -271   -212   -142    345    373 232.0 -27.9  34188  290.04 0855.16
2009/04/23 10:56:30.0    -279   -186    -97    336    350 236.3 -16.2  34186  290.01 0855.16
2009/04/23 10:56:30.1    -163   -192    -55    253    260 220.3 -12.4  34182  289.95 0855.16
2009/04/23 10:56:30.2    -132   -171    -82    217    231 217.8 -25.9  34182  289.94 0855.16
2009/04/23 10:56:30.3     -73   -195    -64    209    218 200.5 -21.8  34184  289.97 0855.16
2009/04/23 10:56:30.4     -64   -161    -57    174    184 201.8 -18.1  34184  289.99 0855.15
2009/04/23 10:56:30.5     -59   -130    -90    143    168 204.5 -39.9  34186  290.02 0855.15
2009/04/23 10:56:30.6    -113   -140    -75    181    195 219.0 -28.2  34186  290.01 0855.15
2009/04/23 10:56:30.7     -83   -162    -53    183    190 207.2 -21.0  34182  289.94 0855.15
2009/04/23 10:56:30.8    -210   -213   -102    300    316 224.5 -23.8  34184  289.97 0855.15
2009/04/23 10:56:30.9    -265   -236   -100    355    369 228.3 -15.8  34190  290.08 0855.15
2009/04/23 10:56:31.0    -181   -159    -69    242    251 228.7 -20.7  34176  289.83 0855.15
2009/04/23 10:56:31.1    -281   -111    -93    303    316 248.3 -22.1  34180  289.90 0855.15
2009/04/23 10:56:31.2    -243   -195   -148    312    345 231.3 -31.6  34182  289.93 0855.15
2009/04/23 10:56:31.3    -257   -219    -79    338    348 229.6 -13.3  34206  290.35 0855.15
2009/04/23 10:56:31.4    -273   -214   -101    348    363 231.9 -16.2  34182  289.94 0855.15
2009/04/23 10:56:31.5     -76   -192    -73    207    219 201.6 -24.6  34188  290.04 0855.15
2009/04/23 10:56:31.6      10   -190    -62    191    200 176.9 -23.3  34192  290.13 0855.15
2009/04/23 10:56:31.7       3   -183   -118    184    218 179.0 -40.0  34194  290.14 0855.15
2009/04/23 10:56:31.8     -59   -135   -101    148    179 203.6 -42.0  34190  290.08 0855.15
2009/04/23 10:56:31.9    -105   -157   -116    190    222 213.8 -39.2  34182  289.94 0855.15
2009/04/23 10:56:32.0    -181    -46   -129    187    227 255.6 -42.2  34188  290.04 0855.15
2009/04/23 10:56:32.1    -285   -113    -55    307    312 248.3 -10.3  34208  290.39 0855.15
2009/04/23 10:56:32.2    -292   -104   -115    311    331 250.3 -25.7  34194  290.14 0855.15
2009/04/23 10:56:32.3    -385   -106   -131    400    420 254.5 -23.5  34186  290.02 0855.15
2009/04/23 10:56:32.4    -378   -101   -145    392    417 255.0 -25.5  34182  289.95 0855.14
2009/04/23 10:56:32.5    -320   -206   -126    381    401 237.1 -23.6  34200  290.25 0855.14
2009/04/23 10:56:32.6    -229   -148   -133    273    303 237.1 -31.8  34194  290.14 0855.14
2009/04/23 10:56:32.7    -131   -133    -92    187    208 224.5 -32.4  34194  290.14 0855.14
2009/04/23 10:56:32.8    -112    -33   -105    117    157 253.2 -51.0  34208  290.38 0855.14
2009/04/23 10:56:32.9    -128   -120   -110    176    207 226.9 -39.9  34224  290.67 0855.14
2009/04/23 10:56:33.0    -127   -128   -146    181    232 224.8 -47.7  34230  290.77 0855.14
2009/04/23 10:56:33.1    -130   -113    -99    173    199 228.9 -36.8  34226  290.69 0855.14
2009/04/23 10:56:33.2    -140   -241     54    279    285 210.1  11.1  34216  290.53 0855.14
2009/04/23 10:56:33.3    -172   -194    -28    260    262 221.5  -6.2  34216  290.51 0855.14
2009/04/23 10:56:33.4    -121   -113    -49    166    173 227.1 -21.5  34204  290.31 0855.14
2009/04/23 10:56:33.5    -176   -151    -76    233    245 229.3 -23.3  34196  290.17 0855.14
2009/04/23 10:56:33.6    -188   -186     37    265    268 225.2   8.0  34204  290.32 0855.14
2009/04/23 10:56:33.7    -102   -226     21    249    250 204.3   4.9  34206  290.36 0855.14
2009/04/23 10:56:33.8    -132   -238    -49    273    278 209.0 -10.3  34204  290.32 0855.14
2009/04/23 10:56:33.9    -135   -285     51    316    321 205.3   9.2  34200  290.24 0855.14
2009/04/23 10:56:34.0    -147   -249     10    290    291 210.5   2.1  34204  290.31 0855.14
2009/04/23 10:56:34.1     -65   -239     77    248    260 195.4  17.4  34204  290.32 0855.14
2009/04/23 10:56:34.2     -47   -302     58    306    312 188.9  10.8  34202  290.29 0855.14
2009/04/23 10:56:34.3     -72   -296     51    305    310 193.8   9.5  34204  290.31 0855.14
2009/04/23 10:56:34.4     -70   -294     57    303    309 193.4  10.7  34200  290.24 0855.14
2009/04/23 10:56:34.5     -59   -231     17    239    240 194.5   4.2  34204  290.32 0855.14
2009/04/23 10:56:34.6     -70   -267     -3    277    278 194.7  -0.7  34208  290.39 0855.14
2009/04/23 10:56:34.7     -35   -250    -32    253    256 188.0  -7.3  34210  290.41 0855.14
2009/04/23 10:56:34.8    -103   -294     -3    312    313 199.4  -0.7  34212  290.46 0855.14
2009/04/23 10:56:34.9     -39   -323     58    326    332 187.0  10.2  34198  290.23 0855.14
2009/04/23 10:56:35.0     -22   -302    159    303    342 184.2  30.0  34202  290.30 0855.14
2009/04/23 10:56:35.1     -26   -218    146    220    264 186.9  36.5  34200  290.24 0855.14
2009/04/23 10:56:35.2     -30   -245     23    247    249 187.2   5.4  34202  290.27 0855.14
2009/04/23 10:56:35.3      51   -224     71    230    241 167.1  17.3  34198  290.22 0855.14
2009/04/23 10:56:35.4      67   -242    -41    252    256 164.4  -9.4  34208  290.39 0855.14
2009/04/23 10:56:35.5     108   -233    -18    258    259 155.1  -4.1  34204  290.32 0855.14
2009/04/23 10:56:35.6     125   -225    -11    258    259 151.0  -2.6  34200  290.24 0855.14
2009/04/23 10:56:35.7     119   -272    -11    298    299 156.4  -2.2  34214  290.48 0855.14
2009/04/23 10:56:35.8     122   -245     -5    274    275 153.5  -1.2  34208  290.39 0855.14
2009/04/23 10:56:35.9     104   -260     23    281    283 158.1   4.9  34192  290.12 0855.14
2009/04/23 10:56:36.0     128   -271     15    300    301 154.7   2.9  34196  290.19 0855.14
2009/04/23 10:56:36.1      79   -240      3    253    254 161.7   0.8  34198  290.22 0855.14
2009/04/23 10:56:36.2      38   -248    -30    251    253 171.3  -6.9  34198  290.20 0855.14
2009/04/23 10:56:36.3      87   -221    -56    238    245 158.4 -13.3  34196  290.17 0855.14
2009/04/23 10:56:36.4      98   -104    -41    143    148 136.7 -20.7  34200  290.25 0855.14
2009/04/23 10:56:36.5     132    -84    -65    157    169 122.4 -28.2  34194  290.14 0855.14
2009/04/23 10:56:36.6     195     -7     -7    196    197  92.1  -2.2  34188  290.06 0855.14
2009/04/23 10:56:36.7     290    -17      3    291    292  93.5   0.7  34188  290.03 0855.14
2009/04/23 10:56:36.8     248     -7     -9    249    250  91.7  -2.2  34190  290.07 0855.14
2009/04/23 10:56:36.9     239     46     79    244    257  79.0  17.9  34198  290.20 0855.14
2009/04/23 10:56:37.0     246     22     26    248    250  84.8   6.1  34196  290.17 0855.14
2009/04/23 10:56:37.1     268     38     45    271    275  81.9   9.5  34190  290.09 0855.14
2009/04/23 10:56:37.2     240    -82    -27    254    256 109.1  -6.2  34188  290.03 0855.14
2009/04/23 10:56:37.3     272    -68    -47    281    286 104.2  -9.6  34188  290.05 0855.14
2009/04/23 10:56:37.4     265    -91    -68    281    290 109.1 -13.7  34194  290.14 0855.14
2009/04/23 10:56:37.5     297    -94     27    312    314 107.7   5.1  34192  290.12 0855.14
2009/04/23 10:56:37.6     214    -99      7    236    237 114.8   1.8  34188  290.03 0855.14
2009/04/23 10:56:37.7     249    -86    -73    264    275 109.1 -15.5  34190  290.09 0855.14
2009/04/23 10:56:37.8     327     10    -73    328    337  88.1 -12.7  34182  289.93 0855.14
2009/04/23 10:56:37.9     269   -154    -51    310    315 119.8  -9.3  34190  290.07 0855.14
2009/04/23 10:56:38.0     287   -299     26    415    416 136.2   3.6  34194  290.14 0855.14
2009/04/23 10:56:38.1     280   -253     74    378    386 132.2  11.1  34194  290.15 0855.14
2009/04/23 10:56:38.2     343   -216    143    406    430 122.3  20.1  34192  290.11 0855.14
2009/04/23 10:56:38.3     339   -243    116    418    435 125.7  15.6  34192  290.12 0855.14
2009/04/23 10:56:38.4     357   -251    111    437    452 125.1  14.3  34194  290.16 0855.13
2009/04/23 10:56:38.5     330   -214    102    394    408 123.0  14.6  34194  290.16 0855.13
2009/04/23 10:56:38.7     245   -149     58    287    294 121.3  11.6  34190  290.09 0855.13
2009/04/23 10:56:38.8     247   -223    120    333    353 132.1  20.8  34188  290.03 0855.13
2009/04/23 10:56:38.8     198   -249     93    319    333 141.5  16.3  34194  290.14 0855.13
2009/04/23 10:56:38.9     162   -278     68    323    331 149.7  12.0  34194  290.14 0855.13
2009/04/23 10:56:39.0     187   -248    101    311    328 143.0  18.0  34192  290.10 0855.13
2009/04/23 10:56:39.1     158   -253     42    299    303 148.1   8.0  34196  290.19 0855.13
2009/04/23 10:56:39.2     141   -245     90    283    297 150.1  17.7  34190  290.07 0855.13
2009/04/23 10:56:39.3     100   -238     82    259    272 157.3  17.7  34192  290.12 0855.13
2009/04/23 10:56:39.4      76   -231    133    244    277 161.7  31.0  34190  290.07 0855.13
2009/04/23 10:56:39.5      49   -252    142    257    293 168.9  31.3  34192  290.10 0855.13
2009/04/23 10:56:39.6     112   -280    146    302    335 158.2  27.7  34190  290.07 0855.13
2009/04/23 10:56:39.7      85   -246    137    261    294 160.9  29.8  34192  290.12 0855.13
2009/04/23 10:56:39.8     118   -224    136    254    288 152.1  30.3  34198  290.22 0855.13
2009/04/23 10:56:39.9      75   -198    142    212    255 159.1  37.3  34200  290.26 0855.13
2009/04/23 10:56:40.0      56   -241    109    248    270 166.7  25.2  34200  290.26 0855.13
2009/04/23 10:56:40.1     -10   -223    133    224    260 182.7  33.5  34198  290.20 0855.13
2009/04/23 10:56:40.2      -8   -312     90    313    326 181.6  16.0  34204  290.32 0855.13
2009/04/23 10:56:40.3     -13   -274    119    275    299 182.9  25.1  34200  290.24 0855.13
2009/04/23 10:56:40.4       2   -245    149    246    287 179.5  34.2  34204  290.32 0855.12
2009/04/23 10:56:40.5      46   -250     92    255    272 169.4  19.9  34206  290.36 0855.12
2009/04/23 10:56:40.6     -26   -246    110    248    271 186.2  25.7  34212  290.44 0855.12
2009/04/23 10:56:40.7     -11   -230    113    231    257 182.9  28.2  34208  290.39 0855.12
2009/04/23 10:56:40.8       8   -297    138    298    328 178.4  26.6  34210  290.41 0855.12
2009/04/23 10:56:40.9     -43   -344    144    347    375 187.2  23.7  34198  290.21 0855.12
2009/04/23 10:56:41.0     -39   -288    140    291    322 187.8  27.4  34198  290.22 0855.12
2009/04/23 10:56:41.1     -24   -224     93    226    244 186.3  23.4  34204  290.31 0855.12
2009/04/23 10:56:41.2     -61   -245     92    253    269 194.0  20.7  34200  290.24 0855.12
2009/04/23 10:56:41.3     -53   -171     62    180    191 197.4  19.2  34200  290.25 0855.12
2009/04/23 10:56:41.4     -80   -174      6    192    193 204.7   1.8  34202  290.30 0855.12
2009/04/23 10:56:41.5       4   -146    -40    147    153 178.2 -15.4  34198  290.23 0855.12
2009/04/23 10:56:41.6      78   -145    -47    165    171 151.7 -20.7  34198  290.21 0855.12
2009/04/23 10:56:41.7     115   -150    -45    190    196 142.4 -13.3  34196  290.19 0855.12
2009/04/23 10:56:41.8      32   -138     29    142    146 166.7  11.6  34198  290.21 0855.12
2009/04/23 10:56:41.9      78   -123     58    146    157 147.5  22.8  34202  290.30 0855.12
2009/04/23 10:56:42.0     133   -167     33    214    217 141.5   8.9  34204  290.31 0855.12
2009/04/23 10:56:42.1      96   -142    -35    172    176 145.9 -11.5  34206  290.36 0855.12
2009/04/23 10:56:42.2      96   -129    -32    161    165 143.3 -11.3  34208  290.40 0855.12
2009/04/23 10:56:42.3     106   -112    -22    155    157 136.8  -8.2  34210  290.41 0855.12
2009/04/23 10:56:42.4      98   -104      7    143    144 136.7   2.9  34206  290.36 0855.13
2009/04/23 10:56:42.5      56   -122     65    135    149 155.1  27.3  34206  290.35 0855.13
2009/04/23 10:56:42.6      55    -89      1    105    106 148.4   0.8  34210  290.43 0855.13
2009/04/23 10:56:42.7     -17    -54      3     57     58 198.3   3.8  34208  290.40 0855.13
2009/04/23 10:56:42.8       5    -95     20     96     99 176.9  12.2  34208  290.40 0855.13
2009/04/23 10:56:42.9      94    -48     52    106    118 117.1  27.8  34216  290.53 0855.13
2009/04/23 10:56:43.0      50    -53     64     74     97 136.7  45.8  34218  290.55 0855.13
2009/04/23 10:56:43.2      -5    -42     54     43     69 188.0  56.4  34214  290.48 0855.13
2009/04/23 10:56:43.3     -66    -31     10     73     74 244.8   8.0  34214  290.48 0855.13
2009/04/23 10:56:43.4     -96     20     -3     99    100 281.9  -2.2  34212  290.47 0855.13
2009/04/23 10:56:43.5     -90     57    -40    107    114 302.5 -24.8  34210  290.43 0855.13
2009/04/23 10:56:43.6     -72     52    -50     90    102 306.0 -35.8  34208  290.38 0855.13
2009/04/23 10:56:43.7     -75     47    -90     89    126 302.0 -54.5  34208  290.38 0855.13
2009/04/23 10:56:43.8     -95     -4   -118     96    152 267.4 -60.8  34212  290.45 0855.13
2009/04/23 10:56:43.9     -68    -58    -66     90    111 229.1 -44.1  34210  290.41 0855.13
2009/04/23 10:56:44.0     -42    -14    -65     45     79 251.6 -66.5  34210  290.43 0855.13
2009/04/23 10:56:44.1      21    -96    -57     99    114 167.5 -37.3  34206  290.36 0855.13
2009/04/23 10:56:44.2     159   -222    -15    274    275 144.4  -3.1  34200  290.26 0855.13
2009/04/23 10:56:44.3     120   -190    -28    225    227 147.7  -7.3  34206  290.36 0855.13
2009/04/23 10:56:44.4      66   -166    -49    179    186 158.2 -15.4  34202  290.28 0855.13
2009/04/23 10:56:44.5      22   -183    -60    185    195 173.1 -17.9  34208  290.38 0855.14
2009/04/23 10:56:44.6     -31   -172    -24    175    177 190.2  -8.0  34208  290.38 0855.14
2009/04/23 10:56:44.7      26   -176    -55    178    187 171.5 -17.3  34202  290.30 0855.14
2009/04/23 10:56:44.8      97   -209    -27    231    233 155.1  -6.7  34206  290.35 0855.14
2009/04/23 10:56:44.9      17   -268    -34    269    272 176.2  -7.2  34206  290.36 0855.14
2009/04/23 10:56:45.0      28   -242     -1    244    245 173.3  -0.3  34208  290.37 0855.14
2009/04/23 10:56:45.1     -23   -255      8    257    258 185.3   1.8  34208  290.37 0855.14
2009/04/23 10:56:45.2    -162   -195    -74    254    264 219.7 -21.0  34206  290.34 0855.14
2009/04/23 10:56:45.3    -308   -308   -144    436    460 225.0 -18.3  34204  290.31 0855.14
2009/04/23 10:56:45.4    -390   -303   -156    495    519 232.2 -22.6  34208  290.39 0855.14
2009/04/23 10:56:45.5    -311   -227   -145    386    412 233.9 -26.1  34204  290.33 0855.14
2009/04/23 10:56:45.6    -311   -228   -119    386    403 233.8 -22.1  34204  290.33 0855.14
2009/04/23 10:56:45.7    -165   -303   -131    346    369 208.6 -25.9  34202  290.27 0855.14
2009/04/23 10:56:45.8    -230   -251   -186    341    388 222.4 -35.4  34202  290.30 0855.14
2009/04/23 10:56:45.9    -285   -229   -165    366    401 231.2 -30.4  34204  290.33 0855.14
2009/04/23 10:56:46.0    -257   -163    -68    305    313 237.5 -12.6  34198  290.22 0855.14
2009/04/23 10:56:46.1    -340   -187   -130    389    411 241.1 -18.6  34206  290.34 0855.14
2009/04/23 10:56:46.2    -344   -211    -58    404    409 238.5  -8.2  34206  290.34 0855.14
2009/04/23 10:56:46.3    -288   -288    -16    408    409 225.0  -2.3  34206  290.34 0855.14
2009/04/23 10:56:46.4    -337   -262    -94    428    439 232.2 -12.4  34198  290.22 0855.14
2009/04/23 10:56:46.5    -344   -261   -112    433    448 232.8 -14.5  34198  290.21 0855.16
2009/04/23 10:56:46.6    -318   -245   -124    402    421 232.3 -17.2  34198  290.22 0855.16
2009/04/23 10:56:46.7    -368   -240   -140    440    462 236.8 -17.7  34200  290.24 0855.16
2009/04/23 10:56:46.8    -306   -247   -128    394    414 231.0 -23.0  34204  290.31 0855.16
2009/04/23 10:56:46.9    -262   -251   -129    363    385 226.2 -24.7  34200  290.25 0855.16
2009/04/23 10:56:47.0    -242   -260   -123    356    376 222.9 -24.0  34202  290.28 0855.16
2009/04/23 10:56:47.1    -206   -272   -104    342    357 217.2 -21.8  34202  290.28 0855.16
2009/04/23 10:56:47.2    -220   -245   -107    330    346 221.9 -23.3  34202  290.30 0855.16
2009/04/23 10:56:47.3    -209   -207   -104    295    312 225.3 -24.6  34204  290.31 0855.16
2009/04/23 10:56:47.4    -266   -168    -98    315    329 237.6 -22.4  34198  290.20 0855.16
2009/04/23 10:56:47.5    -217   -197    -92    294    308 227.7 -22.5  34200  290.26 0855.17
2009/04/23 10:56:47.6    -276   -146    -90    313    325 242.0 -20.9  34200  290.26 0855.17
2009/04/23 10:56:47.7    -179   -139    -81    227    242 232.2 -19.7  34206  290.36 0855.17
2009/04/23 10:56:47.8    -149   -235    -16    279    280 212.5  -3.3  34214  290.49 0855.17
2009/04/23 10:56:47.9    -111   -196    -31    226    229 209.4  -8.0  34216  290.53 0855.17
2009/04/23 10:56:48.0    -212   -135     -9    252    253 237.5  -2.2  34228  290.71 0855.17
2009/04/23 10:56:48.1     -98    -85    -46    130    137 229.1 -24.8  34230  290.75 0855.17
2009/04/23 10:56:48.2     -28   -104    -19    108    110 195.2 -10.3  34222  290.64 0855.17
2009/04/23 10:56:48.3      -2   -155      6    156    157 180.9   2.5  34214  290.50 0855.17
2009/04/23 10:56:48.4      15   -197     27    198    200 175.5   8.0  34208  290.40 0855.17
2009/04/23 10:56:48.5     103   -230      7    253    254 155.9   1.6  34210  290.41 0855.17
2009/04/23 10:56:48.6      92   -253    -13    270    271 160.0  -2.8  34210  290.42 0855.17
2009/04/23 10:56:48.7      -1   -272      4    273    274 180.2   1.0  34210  290.42 0855.17
2009/04/23 10:56:48.8      52   -303     -1    308    309 170.2  -0.3  34214  290.48 0855.17
2009/04/23 10:56:48.9      26   -348    -31    349    351 175.7  -5.1  34208  290.40 0855.17
2009/04/23 10:56:49.0       5   -336    -82    337    347 179.0 -13.7  34212  290.47 0855.17
2009/04/23 10:56:49.1     -41   -293    -84    297    309 188.1 -15.8  34208  290.37 0855.17
2009/04/23 10:56:49.2     -44   -319    -98    322    336 187.9 -22.1  34202  290.28 0855.17
2009/04/23 10:56:49.3     -25   -341   -104    342    358 184.2 -17.0  34204  290.33 0855.17
2009/04/23 10:56:49.4     -14   -398    -61    399    404 182.1  -8.7  34202  290.30 0855.17
2009/04/23 10:56:49.5    -135   -235   -171    272    321 209.9 -39.6  34212  290.46 0855.18
2009/04/23 10:56:49.6      62   -341   -164    347    383 169.7 -31.5  34196  290.18 0855.18
2009/04/23 10:56:49.7     -52   -296   -181    301    351 190.0 -38.2  34214  290.49 0855.18
2009/04/23 10:56:49.8     -68   -260   -147    269    306 194.7 -35.7  34228  290.71 0855.18
2009/04/23 10:56:49.9       4   -297   -213    298    366 179.1 -43.5  34208  290.40 0855.18
2009/04/23 10:56:50.0     -40   -284   -198    287    348 188.1 -42.3  34214  290.50 0855.18
2009/04/23 10:56:50.1       9   -203   -120    204    236 177.4 -37.8  34210  290.41 0855.18
2009/04/23 10:56:50.2     -27   -160    -94    163    188 189.6 -37.1  34220  290.58 0855.18
2009/04/23 10:56:50.3     -39   -104    -90    112    143 200.9 -47.7  34226  290.69 0855.18
2009/04/23 10:56:50.4     -30   -133    -99    137    169 192.9 -44.1  34214  290.50 0855.18
2009/04/23 10:56:50.5     -10   -136   -103    137    171 184.4 -45.3  34206  290.36 0855.18
2009/04/23 10:56:50.6      55    -57   -115     80    140 135.8 -66.5  34210  290.43 0855.18
2009/04/23 10:56:50.7     -19    -39   -111     44    119 206.3 -82.0  34220  290.58 0855.18
2009/04/23 10:56:50.8      -2   -134    -92    135    163 180.9 -41.7  34208  290.38 0855.18
2009/04/23 10:56:50.9      33   -150   -141    154    208 167.5 -51.9  34208  290.40 0855.18
2009/04/23 10:56:51.0      97   -110   -112    147    184 138.6 -45.3  34208  290.40 0855.18
2009/04/23 10:56:51.1     119    -86    -65    148    161 126.0 -29.5  34206  290.35 0855.18
2009/04/23 10:56:51.2     140    -77    -57    160    169 118.9 -24.4  34208  290.40 0855.18
2009/04/23 10:56:51.3     125    -45    -47    133    142 110.0 -19.7  34204  290.31 0855.18
2009/04/23 10:56:51.4     134    -34    -44    139    146 104.2 -17.6  34200  290.26 0855.18
2009/04/23 10:56:51.5     166    -51     -7    174    175 107.3  -2.6  34202  290.30 0855.17
2009/04/23 10:56:51.6     150    -71     51    167    175 115.3  17.1  34202  290.28 0855.17
2009/04/23 10:56:51.7     145    -81      7    167    168 119.3   2.5  34198  290.23 0855.17
2009/04/23 10:56:51.8     200   -127     -2    238    239 122.4  -0.7  34198  290.20 0855.17
2009/04/23 10:56:51.9     152   -239     38    284    287 147.4   7.8  34196  290.17 0855.17
2009/04/23 10:56:52.0     155   -480    -30    505    506 162.1  -3.5  34200  290.25 0855.17
2009/04/23 10:56:52.1     251   -364   -110    443    457 145.4 -14.0  34192  290.11 0855.17
2009/04/23 10:56:52.2      87   -334     50    346    350 165.4   8.2  34204  290.32 0855.17
2009/04/23 10:56:52.3      39   -280     13    283    284 172.0   2.8  34198  290.20 0855.17
2009/04/23 10:56:52.4     130   -395     89    416    426 161.7  12.1  34200  290.24 0855.17
2009/04/23 10:56:52.5     120   -382     78    401    409 162.5  11.1  34204  290.31 0855.17
2009/04/23 10:56:52.6     111   -366    -10    383    384 163.1  -1.6  34202  290.28 0855.17
2009/04/23 10:56:52.7     245   -343     79    422    430 144.4  10.7  34198  290.21 0855.17
2009/04/23 10:56:52.8     223   -321    131    392    414 145.2  18.5  34200  290.24 0855.17
2009/04/23 10:56:52.9     152   -223    173    271    321 145.7  35.6  34198  290.22 0855.17
2009/04/23 10:56:53.0     152   -237    195    282    342 147.3  37.9  34204  290.32 0855.17
2009/04/23 10:56:53.1      93   -181    147    204    251 152.8  39.3  34202  290.27 0855.17
2009/04/23 10:56:53.2      49   -176    160    183    243 164.2  45.8  34202  290.28 0855.17
2009/04/23 10:56:53.3      23   -228    166    230    283 174.0  39.5  34204  290.32 0855.17
2009/04/23 10:56:53.4      23   -303    186    304    356 175.6  34.3  34202  290.28 0855.17
2009/04/23 10:56:53.5      39   -382    151    384    412 174.1  22.8  34194  290.16 0855.18
2009/04/23 10:56:53.6     -14   -364    146    365    393 182.2  23.0  34202  290.27 0855.18
2009/04/23 10:56:53.7     -16   -319    156    320    356 182.9  28.0  34204  290.32 0855.18
2009/04/23 10:56:53.8     -65   -355    108    362    378 190.5  16.6  34204  290.32 0855.18
2009/04/23 10:56:53.9    -105   -412     93    426    437 194.4  12.4  34198  290.22 0855.18
2009/04/23 10:56:54.0    -101   -379    118    393    411 194.9  16.8  34202  290.29 0855.18
2009/04/23 10:56:54.1     -77   -393     58    401    406 191.2   8.2  34202  290.29 0855.18
2009/04/23 10:56:54.2     -73   -314     68    323    331 193.2  12.0  34202  290.29 0855.18
2009/04/23 10:56:54.3    -119   -362     24    382    383 198.3   3.7  34204  290.33 0855.18
2009/04/23 10:56:54.4     -98   -362     21    376    377 195.2   3.3  34208  290.37 0855.18
2009/04/23 10:56:54.5     -90   -395      3    406    407 192.9   0.5  34206  290.34 0855.18
2009/04/23 10:56:54.6     -58   -362    -62    367    373 189.2  -9.7  34202  290.28 0855.18
2009/04/23 10:56:54.7      60   -325   -146    331    361 169.4 -29.6  34194  290.15 0855.18
2009/04/23 10:56:54.8      51   -384   -148    388    415 172.3 -26.4  34196  290.19 0855.18
2009/04/23 10:56:54.9      78   -321   -149    331    362 166.2 -30.4  34198  290.20 0855.18
2009/04/23 10:56:55.0      30   -330    -96    332    346 174.7 -16.2  34192  290.10 0855.18
2009/04/23 10:56:55.1     111   -339   -164    357    392 161.9 -30.7  34194  290.15 0855.18
2009/04/23 10:56:55.2      85   -316   -135    328    354 164.9 -28.1  34188  290.03 0855.18
2009/04/23 10:56:55.3     137   -202    -69    245    255 145.8 -15.8  34188  290.03 0855.18
2009/04/23 10:56:55.4     148   -349    -73    380    388 157.1 -11.0  34184  289.98 0855.18
2009/04/23 10:56:55.5     150   -354   -100    385    398 157.0 -14.7  34178  289.86 0855.19
2009/04/23 10:56:55.6     187   -347    -31    395    397 151.6  -4.6  34172  289.76 0855.19
2009/04/23 10:56:55.7     169   -275    -12    324    325 148.4  -2.2  34176  289.83 0855.19
2009/04/23 10:56:55.8     147   -326    -41    358    361 155.7  -6.6  34184  289.99 0855.19
2009/04/23 10:56:55.9     136   -279    -89    311    324 153.9 -16.0  34186  290.00 0855.19
2009/04/23 10:56:56.0     106   -278    -39    298    301 159.1  -7.5  34170  289.75 0855.19
2009/04/23 10:56:56.1      78   -257    -29    269    271 163.1  -6.2  34164  289.63 0855.19
2009/04/23 10:56:56.2      49   -280    -12    285    286 170.0  -2.6  34162  289.61 0855.19
2009/04/23 10:56:56.3      74   -276    -40    286    289 164.9  -8.0  34166  289.68 0855.19
2009/04/23 10:56:56.4      31   -218    -27    221    223 171.8  -7.2  34162  289.62 0855.19
2009/04/23 10:56:56.5      25   -209    -26    211    213 173.1  -7.2  34170  289.75 0855.19
2009/04/23 10:56:56.6      15   -206    -67    207    218 175.6 -18.1  34178  289.89 0855.19
2009/04/23 10:56:56.7      -3   -241     -9    242    243 180.9  -2.3  34180  289.90 0855.19
2009/04/23 10:56:56.8     -52   -193     47    200    206 195.2  13.2  34184  289.99 0855.19
2009/04/23 10:56:56.9     -38   -210      6    214    215 190.5   1.8  34184  289.97 0855.19
2009/04/23 10:56:57.0     -34   -201     21    204    206 189.7   5.9  34176  289.84 0855.19
2009/04/23 10:56:57.1     -11   -178     17    179    180 183.8   5.7  34176  289.84 0855.19
2009/04/23 10:56:57.2      21   -193     57    195    204 173.8  16.3  34180  289.91 0855.19
2009/04/23 10:56:57.3      28   -175   -116    178    212 170.9 -40.1  34194  290.16 0855.19
2009/04/23 10:56:57.4      24   -117    -88    120    148 168.4 -44.1  34196  290.18 0855.19
2009/04/23 10:56:57.5      40   -142     -8    148    149 164.0  -3.1  34190  290.08 0855.19
2009/04/23 10:56:57.6      30   -166     11    169    170 169.5   3.8  34190  290.09 0855.19
2009/04/23 10:56:57.7      28   -180    -26    183    185 170.9  -8.2  34188  290.04 0855.19
2009/04/23 10:56:57.8     -38   -157    -13    162    163 193.6  -4.6  34188  290.06 0855.19
2009/04/23 10:56:57.9       0   -146    -29    147    150 180.0 -11.3  34186  290.01 0855.19
2009/04/23 10:56:58.0      -3   -121     -8    122    123 181.8  -4.1  34182  289.94 0855.19
2009/04/23 10:56:58.1      31   -154     12    158    159 168.5   4.6  34178  289.89 0855.19
2009/04/23 10:56:58.2      37   -196     -2    200    201 169.1  -0.7  34174  289.80 0855.19
2009/04/23 10:56:58.3      37   -241     16    244    245 171.1   3.8  34172  289.78 0855.19
2009/04/23 10:56:58.4      78   -256    -20    268    269 163.1  -4.4  34180  289.90 0855.19
2009/04/23 10:56:58.5      87   -254    -10    269    270 160.9  -2.2  34180  289.92 0855.19
2009/04/23 10:56:58.6      50   -244    -44    250    254 168.4 -10.1  34182  289.95 0855.19
2009/04/23 10:56:58.7      56   -210    -37    218    222 164.9  -9.8  34190  290.08 0855.19
2009/04/23 10:56:58.8      66   -205    -27    216    218 162.2  -7.3  34192  290.11 0855.19
2009/04/23 10:56:58.9      35   -194    -23    198    200 169.8  -6.7  34184  289.99 0855.19
2009/04/23 10:56:59.0      51   -188     -5    195    196 164.8  -1.6  34186  290.02 0855.19
2009/04/23 10:56:59.1      90   -199    -27    219    221 155.5  -7.2  34188  290.04 0855.19
2009/04/23 10:56:59.2      73   -221    -36    233    236 161.7  -9.0  34182  289.93 0855.19
2009/04/23 10:56:59.3      43   -214      3    219    220 168.5   0.8  34184  289.97 0855.19
2009/04/23 10:56:59.4      64   -212    -31    222    225 163.1  -8.0  34188  290.06 0855.19
2009/04/23 10:56:59.5      60   -245     32    253    256 166.2   7.2  34190  290.07 0855.19
2009/04/23 10:56:59.6      17   -156    -54    158    168 173.5 -19.1  34194  290.16 0855.19
2009/04/23 10:56:59.7      36   -140    -18    145    147 165.3  -7.3  34196  290.18 0855.19
2009/04/23 10:56:59.8      36   -190     30    194    197 169.1   8.8  34192  290.11 0855.19
2009/04/23 10:56:59.9      56   -208     42    216    221 164.8  11.0  34190  290.08 0855.19
2009/04/23 10:57:00.0      92   -215     36    235    238 156.8   8.9  34186  290.02 0855.19
2009/04/23 10:57:00.1      51   -161    -21    169    171 162.4  -7.2  34192  290.13 0855.19
2009/04/23 10:57:00.2       8   -197     20    198    200 177.5   5.9  34192  290.13 0855.19
2009/04/23 10:57:00.3       6   -193     89    194    213 178.0  26.6  34192  290.11 0855.19
2009/04/23 10:57:00.4      58   -261    110    268    289 167.3  23.6  34178  289.88 0855.19
2009/04/23 10:57:00.5     110   -256    109    279    299 156.6  22.5  34178  289.88 0855.19
2009/04/23 10:57:00.6      87   -293     15    306    307 163.3   2.9  34178  289.88 0855.19
2009/04/23 10:57:00.7      60   -301      5    307    308 168.7   1.0  34180  289.92 0855.19
2009/04/23 10:57:00.8      39   -359    128    362    383 173.7  20.3  34178  289.87 0855.19
2009/04/23 10:57:00.9      55   -388    150    393    420 171.9  22.0  34182  289.95 0855.19
2009/04/23 10:57:01.0      10   -341    153    342    374 178.3  25.7  34180  289.91 0855.19
2009/04/23 10:57:01.1      16   -339    131    340    364 177.2  22.2  34188  290.04 0855.19
2009/04/23 10:57:01.2      89   -293    151    307    342 163.0  28.0  34188  290.06 0855.19
2009/04/23 10:57:01.3      44   -291    121    295    318 171.3  23.6  34186  290.00 0855.19
2009/04/23 10:57:01.4       6   -261    105    262    282 178.6  23.0  34186  290.02 0855.19
2009/04/23 10:57:01.5     155   -243    101    289    307 147.4  19.4  34188  290.03 0855.18
2009/04/23 10:57:01.7      69   -202     42    214    219 161.1  11.1  34190  290.09 0855.18
2009/04/23 10:57:01.7      79   -197     27    213    215 158.2   7.5  34192  290.13 0855.18
2009/04/23 10:57:01.8      55   -160     71    170    184 160.8  23.6  34192  290.13 0855.18
2009/04/23 10:57:01.9      28   -161     24    164    166 170.0   8.5  34190  290.09 0855.18
2009/04/23 10:57:02.0     -23   -157     12    159    160 188.5   4.4  34188  290.04 0855.18
2009/04/23 10:57:02.1    -116   -171    -41    207    212 214.3 -11.3  34200  290.25 0855.18
2009/04/23 10:57:02.2    -152   -152    -88    216    233 225.0 -27.5  34212  290.45 0855.18
2009/04/23 10:57:02.3    -129   -152   -101    200    224 220.5 -33.5  34206  290.36 0855.18
2009/04/23 10:57:02.4    -104   -183     -8    211    212 209.6  -2.3  34194  290.14 0855.18
2009/04/23 10:57:02.5    -134   -141     43    195    200 223.4  12.6  34202  290.30 0855.18
2009/04/23 10:57:02.6    -115   -115     48    163    171 225.0  16.6  34204  290.31 0855.18
2009/04/23 10:57:02.7    -121    -98     30    156    160 230.9  11.1  34190  290.09 0855.18
2009/04/23 10:57:02.8    -165    -81      6    184    185 243.8   2.1  34186  290.01 0855.18
2009/04/23 10:57:02.9    -162   -103     -7    193    194 237.6  -2.2  34188  290.06 0855.18
2009/04/23 10:57:03.0    -113   -112    -52    160    169 225.1 -18.1  34182  289.96 0855.18
2009/04/23 10:57:03.1    -112   -136    -60    177    186 219.6 -23.3  34182  289.96 0855.18
2009/04/23 10:57:03.2     -79   -182    -79    199    214 203.4 -27.2  34180  289.91 0855.18
2009/04/23 10:57:03.3     -48   -201    -61    207    215 193.4 -21.2  34180  289.92 0855.18
2009/04/23 10:57:03.4     -37   -177    -61    181    191 192.0 -23.3  34190  290.08 0855.18
2009/04/23 10:57:03.5     -78   -166   -115    184    216 205.2 -39.6  34188  290.06 0855.18
2009/04/23 10:57:03.6    -128   -149    -69    197    208 220.8 -24.4  34188  290.04 0855.18
2009/04/23 10:57:03.7    -106   -233    -81    257    270 204.5 -17.6  34166  289.66 0855.18
2009/04/23 10:57:03.8      -8   -190    -91    191    211 182.5 -31.6  34152  289.43 0855.18
2009/04/23 10:57:03.9     -32   -133    -59    137    149 193.8 -29.5  34154  289.46 0855.18
2009/04/23 10:57:04.0     -15   -174    -11    175    176 185.1  -3.7  34164  289.63 0855.18
2009/04/23 10:57:04.2     -38   -222     -8    226    227 189.8  -2.2  34184  289.97 0855.18
2009/04/23 10:57:04.2     -50   -187      7    194    195 195.2   2.1  34188  290.04 0855.18
2009/04/23 10:57:04.3     -39   -118    -32    125    130 198.5 -14.5  34184  289.99 0855.18
2009/04/23 10:57:04.4     -81   -119    -49    145    154 214.2 -18.7  34190  290.09 0855.18
2009/04/23 10:57:04.5     -72   -131     -5    150    151 209.0  -2.2  34188  290.06 0855.18
2009/04/23 10:57:04.6     -61   -171    -58    182    191 199.8 -23.3  34200  290.25 0855.18
2009/04/23 10:57:04.7    -171   -227    -74    285    295 217.0 -14.7  34202  290.27 0855.18
2009/04/23 10:57:04.8    -133   -334    -23    360    361 201.8  -3.8  34184  289.99 0855.18
2009/04/23 10:57:04.9    -144   -377    -22    404    405 200.9  -3.2  34184  289.99 0855.18
2009/04/23 10:57:05.0     -43   -399     55    402    406 186.2   7.8  34182  289.95 0855.18
2009/04/23 10:57:05.1     -79   -442    -19    450    451 190.2  -2.5  34184  289.97 0855.18
2009/04/23 10:57:05.3     -17   -458     29    459    460 182.2   3.6  34184  289.99 0855.18
2009/04/23 10:57:05.3      58   -563     70    566    571 174.1   7.1  34182  289.93 0855.18
2009/04/23 10:57:05.4     133   -674     52    688    690 168.8   4.3  34180  289.90 0855.18
2009/04/23 10:57:05.5      52   -679     58    681    684 175.6   4.9  34176  289.85 0855.18
2009/04/23 10:57:05.6      73   -633     59    638    642 173.4   5.3  34182  289.96 0855.18
2009/04/23 10:57:05.7      43   -607     63    609    613 175.9   5.9  34174  289.81 0855.18
2009/04/23 10:57:05.8     186   -598     23    627    628 162.7   2.1  34166  289.69 0855.18
2009/04/23 10:57:05.9     199   -664     63    694    697 163.3   5.2  34166  289.66 0855.18
2009/04/23 10:57:06.0     139   -627     49    643    645 167.5   4.4  34160  289.57 0855.18
2009/04/23 10:57:06.1      84   -627     12    633    634 172.3   1.1  34168  289.72 0855.18
2009/04/23 10:57:06.2      47   -622     46    624    626 175.7   4.2  34150  289.40 0855.18
2009/04/23 10:57:06.3      88   -622     65    629    633 171.9   6.0  34146  289.33 0855.18
2009/04/23 10:57:06.4     116   -726      1    736    737 170.9   0.1  34136  289.16 0855.18
2009/04/23 10:57:06.5     138   -707    -49    721    723 168.9  -3.9  34124  288.96 0855.18
2009/04/23 10:57:06.6     234   -557    -43    605    607 157.2  -4.1  34148  289.36 0855.18
2009/04/23 10:57:06.7     153   -554    -95    575    583 164.5  -9.4  34120  288.90 0855.18
2009/04/23 10:57:06.8      54   -488   -132    492    510 173.7 -15.0  34126  289.00 0855.18
2009/04/23 10:57:06.9      44   -496   -178    499    531 174.9 -19.7  34116  288.82 0855.18
2009/04/23 10:57:07.0      -9   -484   -164    485    513 181.2 -18.7  34104  288.61 0855.18
2009/04/23 10:57:07.1     -35   -499    -92    501    510 184.1 -10.5  34108  288.69 0855.18
2009/04/23 10:57:07.2     -25   -478     23    479    480 183.0   2.8  34120  288.90 0855.18
2009/04/23 10:57:07.3      41   -484     -2    486    487 175.1  -0.3  34126  289.00 0855.18
2009/04/23 10:57:07.4      25   -486   -109    487    500 177.0 -12.7  34126  288.98 0855.18
2009/04/23 10:57:07.5      -4   -441   -121    442    459 180.6 -15.4  34128  289.04 0855.18
2009/04/23 10:57:07.6      49   -450   -143    453    476 173.7 -17.6  34136  289.15 0855.18
2009/04/23 10:57:07.7      72   -400   -123    407    425 169.7 -21.8  34130  289.07 0855.18
2009/04/23 10:57:07.8      65   -362   -178    368    408 169.7 -32.1  34128  289.04 0855.18
2009/04/23 10:57:07.9       0   -347   -152    348    379 180.0 -29.5  34134  289.13 0855.18
2009/04/23 10:57:08.0      66   -389    -86    395    405 170.3 -12.4  34128  289.04 0855.18
2009/04/23 10:57:08.1      87   -357    -24    368    369 166.2  -3.8  34126  289.01 0855.18
2009/04/23 10:57:08.2      81   -433    -95    441    452 169.4 -12.2  34128  289.02 0855.18
2009/04/23 10:57:08.3     160   -382    -62    415    420 157.3  -8.6  34122  288.92 0855.18
2009/04/23 10:57:08.4     102   -368     10    382    383 164.5   1.6  34126  288.98 0855.18
2009/04/23 10:57:08.5      42   -241   -181    245    304 170.0 -44.5  34132  289.09 0855.20
2009/04/23 10:57:08.6     -41   -114    -24    122    125 200.0 -11.5  34130  289.06 0855.20
2009/04/23 10:57:08.7      -6   -278    173    279    328 181.4  34.9  34122  288.92 0855.20
2009/04/23 10:57:08.8      65   -340    144    347    375 169.2  23.7  34126  289.01 0855.20
2009/04/23 10:57:08.9     -41   -378     25    381    382 186.2   3.8  34120  288.89 0855.20
2009/04/23 10:57:09.0     -71   -384     46    391    394 190.6   6.8  34122  288.93 0855.20
2009/04/23 10:57:09.1    -188   -432     24    472    473 203.5   3.0  34138  289.20 0855.20
2009/04/23 10:57:09.2    -232   -455     79    511    517 207.1   8.8  34134  289.13 0855.20
2009/04/23 10:57:09.3    -173   -338    159    380    411 207.1  24.1  34138  289.20 0855.20
2009/04/23 10:57:09.4    -180   -212    109    279    299 220.3  22.5  34164  289.64 0855.20
2009/04/23 10:57:09.5     -83   -137    -52    161    169 211.2 -23.0  34148  289.38 0855.20
2009/04/23 10:57:09.6     -73   -176    125    191    228 202.7  36.0  34162  289.62 0855.20
2009/04/23 10:57:09.7     -62   -184    121    195    229 198.7  35.2  34162  289.62 0855.20
2009/04/23 10:57:09.8     -32   -211    121    214    245 188.7  31.9  34134  289.14 0855.20
2009/04/23 10:57:09.9      19   -271    127    272    300 176.0  27.1  34134  289.14 0855.20
2009/04/23 10:57:10.0      -1   -287     78    288    299 180.2  15.3  34130  289.07 0855.20
2009/04/23 10:57:10.1     -13   -293    140    294    325 182.6  27.3  34130  289.05 0855.20
2009/04/23 10:57:10.2      22   -295    118    296    318 175.6  22.9  34134  289.12 0855.20
2009/04/23 10:57:10.3      22   -362     72    363    371 176.5  11.3  34132  289.11 0855.20
2009/04/23 10:57:10.5     -81   -347     13    357    358 193.2   2.2  34132  289.11 0855.20
2009/04/23 10:57:10.6    -146   -186    -65    237    245 218.1 -20.0  34148  289.37 0855.20
2009/04/23 10:57:10.7     -75   -148     -9    167    168 207.0  -3.3  34148  289.38 0855.20
2009/04/23 10:57:10.8      69   -205     51    217    223 161.3  13.2  34136  289.18 0855.20
2009/04/23 10:57:10.9     112   -280    156    302    339 158.1  29.5  34128  289.03 0855.20
2009/04/23 10:57:11.0      86   -396    111    406    421 167.7  15.3  34134  289.14 0855.20
2009/04/23 10:57:11.1      52   -429    111    433    448 173.0  14.4  34138  289.19 0855.20
2009/04/23 10:57:11.2     119   -392    140    410    434 163.1  18.9  34140  289.22 0855.20
2009/04/23 10:57:11.3     118   -444    148    460    484 165.1  17.9  34136  289.15 0855.20
2009/04/23 10:57:11.4     -78   -552    -51    558    561 188.1  -5.3  34150  289.40 0855.20
2009/04/23 10:57:11.5     -99   -443    -74    454    461 192.6  -9.3  34144  289.31 0855.20
2009/04/23 10:57:11.6     -81   -399    114    408    424 191.6  15.7  34148  289.38 0855.20
2009/04/23 10:57:11.7     -99   -398    150    411    437 194.0  20.9  34144  289.29 0855.20
2009/04/23 10:57:11.8    -119   -391    104    409    423 197.0  14.3  34144  289.31 0855.20
2009/04/23 10:57:11.9     -87   -397    112    407    423 192.4  15.4  34142  289.26 0855.20
2009/04/23 10:57:12.0      51   -366    145    370    397 172.0  22.5  34144  289.30 0855.20
2009/04/23 10:57:12.1      75   -336    215    345    406 167.3  35.0  34140  289.23 0855.20
2009/04/23 10:57:12.2      40   -450    123    452    469 174.9  15.3  34152  289.44 0855.20
2009/04/23 10:57:12.3      29   -382     86    383    393 175.6  12.8  34148  289.38 0855.20
2009/04/23 10:57:12.4      36   -440    117    442    458 175.3  14.9  34144  289.29 0855.20
2009/04/23 10:57:12.5      13   -395    143    396    421 178.1  20.6  34148  289.36 0855.20
2009/04/23 10:57:12.6      -5   -418    126    419    438 180.8  16.8  34144  289.31 0855.20
2009/04/23 10:57:12.7       0   -367    148    368    396 179.9  23.1  34142  289.26 0855.20
2009/04/23 10:57:12.8      60   -390     51    395    399 171.2   7.4  34156  289.50 0855.20
2009/04/23 10:57:12.9     -22   -370    101    371    385 183.4  15.3  34152  289.45 0855.20
2009/04/23 10:57:13.0     -27   -377     65    378    384 184.1   9.9  34164  289.65 0855.20
2009/04/23 10:57:13.1     -28   -376      6    377    378 184.4   1.0  34166  289.67 0855.20
2009/04/23 10:57:13.2      -3   -332     65    333    340 180.6  11.1  34162  289.59 0855.20
2009/04/23 10:57:13.3     -73   -288     53    298    303 194.3  10.1  34166  289.66 0855.20
2009/04/23 10:57:13.4       8   -212      4    213    214 177.8   1.2  34164  289.65 0855.20
2009/04/23 10:57:13.5      67   -270     65    279    287 166.0  13.1  34164  289.63 0855.20
2009/04/23 10:57:13.6     148   -289    127    325    348 152.8  22.5  34162  289.62 0855.20
2009/04/23 10:57:13.7     146   -298    207    332    391 153.9  34.9  34162  289.60 0855.20
2009/04/23 10:57:13.8     111   -339    129    357    379 161.9  20.7  34168  289.72 0855.20
2009/04/23 10:57:13.9      60   -362    161    367    400 170.6  25.2  34170  289.74 0855.20
2009/04/23 10:57:14.0      31   -249    147    251    290 172.8  33.4  34166  289.68 0855.20
2009/04/23 10:57:14.1    -101   -289    129    307    333 199.4  24.1  34164  289.63 0855.20
2009/04/23 10:57:14.2    -105   -213     83    238    253 206.3  19.2  34162  289.59 0855.20
2009/04/23 10:57:14.3    -126   -197      4    234    235 212.6   1.0  34168  289.71 0855.20
2009/04/23 10:57:14.4    -133   -240     13    275    276 209.0   2.8  34158  289.54 0855.20
2009/04/23 10:57:14.5     -41   -223     56    227    234 190.5  13.9  34154  289.48 0855.20
2009/04/23 10:57:14.6      11   -249     73    250    261 177.3  16.4  34152  289.44 0855.18
2009/04/23 10:57:14.7     -45   -274     44    278    282 189.3   9.0  34152  289.42 0855.18
2009/04/23 10:57:14.8    -116   -216     10    246    247 208.3   2.3  34152  289.44 0855.18
2009/04/23 10:57:14.9     -26   -195     32    197    200 187.8   9.5  34152  289.45 0855.18
2009/04/23 10:57:15.0      12   -218     68    219    230 176.6  17.4  34150  289.40 0855.18
2009/04/23 10:57:15.1      12   -266     57    267    274 177.4  12.2  34156  289.51 0855.18
2009/04/23 10:57:15.2      21   -224     31    226    229 174.4   7.8  34152  289.45 0855.18
2009/04/23 10:57:15.3      13   -225     70    226    237 176.6  17.3  34158  289.53 0855.18
2009/04/23 10:57:15.4    -137   -177    -26    225    227 217.8  -6.7  34154  289.48 0855.18
2009/04/23 10:57:15.5    -222    -92    -71    241    252 247.4 -16.4  34116  288.83 0855.18
2009/04/23 10:57:15.6    -216   -129    -82    252    265 239.1 -23.6  34096  288.49 0855.18
2009/04/23 10:57:15.7    -214    -85   -130    231    265 248.3 -36.0  34130  289.07 0855.18
2009/04/23 10:57:15.8    -203    -85   -177    221    283 247.2 -47.2  34124  288.97 0855.18
2009/04/23 10:57:15.9    -220     37    -97    224    244 279.7 -29.3  34134  289.12 0855.18
2009/04/23 10:57:16.0    -147    138   -235    202    309 313.1 -59.7  34142  289.25 0855.18
2009/04/23 10:57:16.1     -89     23   -232     92    249 284.6 -81.8  34154  289.48 0855.18
2009/04/23 10:57:16.2     -65    -31    -92     73    117 244.7 -61.3  34170  289.75 0855.18
2009/04/23 10:57:16.3     -65    -65     86     92    125 225.0  48.0  34174  289.82 0855.18
2009/04/23 10:57:16.4     -82   -161    145    181    231 207.2  43.3  34148  289.38 0855.18
2009/04/23 10:57:16.5      34   -227     85    230    245 171.3  21.0  34134  289.14 0855.18
2009/04/23 10:57:16.6    -104   -282     98    301    317 200.3  18.2  34142  289.25 0855.20
2009/04/23 10:57:16.7     -17   -287     62    288    295 183.4  12.2  34138  289.20 0855.20
2009/04/23 10:57:16.8     -41   -242     24    246    248 189.8   5.7  34140  289.24 0855.20
2009/04/23 10:57:16.9     -90   -221     77    239    252 202.3  17.9  34138  289.20 0855.20
2009/04/23 10:57:17.0    -103   -188    142    215    257 208.9  36.5  34160  289.56 0855.20
2009/04/23 10:57:17.1     -47   -146    152    154    216 197.8  49.9  34154  289.48 0855.20
2009/04/23 10:57:17.2      49   -128    113    138    178 159.1  43.7  34150  289.40 0855.20
2009/04/23 10:57:17.3      -7   -188     61    189    199 182.2  17.9  34156  289.52 0855.20
2009/04/23 10:57:17.4     -50     19    131     54    141 290.8  77.0  34166  289.67 0855.20
2009/04/23 10:57:17.5     -36   -111     84    117    144 198.3  39.5  34158  289.55 0855.20
2009/04/23 10:57:17.6     -72   -122     27    142    145 210.7  11.1  34164  289.65 0855.20
2009/04/23 10:57:17.7    -106   -112    123    155    197 223.2  42.4  34162  289.62 0855.20
2009/04/23 10:57:17.8     -21     46    127     51    136 334.5  77.1  34166  289.69 0855.20
2009/04/23 10:57:17.9     -12     72     14     74     76 350.2  11.1  34162  289.62 0855.20
2009/04/23 10:57:18.0       0    116     78    117    140   0.0  37.0  34170  289.74 0855.20
2009/04/23 10:57:18.1    -159     59     16    170    171 290.4   5.4  34160  289.58 0855.20
2009/04/23 10:57:18.2    -162    155     53    225    232 313.6  13.2  34162  289.60 0855.20
2009/04/23 10:57:18.3     -85    264     -1    278    279 342.1  -0.3  34154  289.46 0855.20
2009/04/23 10:57:18.4    -127    228    -20    262    263 330.8  -4.6  34150  289.41 0855.20
2009/04/23 10:57:18.5     -90    224    -23    242    244 338.1  -5.6  34152  289.44 0855.20
2009/04/23 10:57:18.6    -233    138    -23    271    273 300.7  -4.9  34148  289.36 0855.20
2009/04/23 10:57:18.7    -289    241    145    377    403 309.8  22.1  34126  288.99 0855.20
2009/04/23 10:57:18.8    -231    167    204    286    351 306.0  39.1  34144  289.30 0855.20
2009/04/23 10:57:18.9    -180     89    130    201    239 296.4  36.0  34146  289.35 0855.20
2009/04/23 10:57:19.0    -209    282     99    352    366 323.4  15.8  34148  289.37 0855.20
2009/04/23 10:57:19.1    -246    297    114    386    403 320.3  16.5  34142  289.26 0855.20
2009/04/23 10:57:19.2    -425    308     78    526    532 306.0   8.5  34138  289.19 0855.20
2009/04/23 10:57:19.3    -334    532    274    629    686 327.9  25.1  34140  289.24 0855.20
2009/04/23 10:57:19.4    -335    708    205    784    811 334.7  14.7  34136  289.15 0855.20
2009/04/23 10:57:19.5     -98    591     74    600    605 350.6   7.1  34144  289.30 0855.20
2009/04/23 10:57:19.6    -149    703    163    719    738 348.0  12.8  34156  289.50 0855.20
2009/04/23 10:57:19.7    -294    355   -181    461    495 320.4 -27.1  34148  289.37 0855.20
2009/04/23 10:57:19.8    -264    383   -154    466    490 325.4 -23.5  34154  289.47 0855.20
2009/04/23 10:57:19.9    -212    298   -210    366    421 324.5 -36.8  34160  289.58 0855.20
2009/04/23 10:57:20.0      26    342   -200    343    397   4.4 -37.3  34144  289.30 0855.20
2009/04/23 10:57:20.1    -107    295   -233    315    391 340.0 -44.6  34148  289.38 0855.20
2009/04/23 10:57:20.2    -202    244   -121    318    340 320.4 -26.1  34158  289.55 0855.20
2009/04/23 10:57:20.3     112    218   -122    246    274  27.2 -32.6  34156  289.49 0855.20
2009/04/23 10:57:20.4      68    240    -41    250    254  15.8  -9.3  34156  289.49 0855.20
2009/04/23 10:57:20.5     203    165    -29    262    264  50.9  -6.5  34142  289.27 0855.20
2009/04/23 10:57:20.6     418    208     26    468    469  63.5   3.3  34142  289.27 0855.21
2009/04/23 10:57:20.7     440    175     35    474    476  68.3   4.3  34142  289.27 0855.21
2009/04/23 10:57:20.8     363    167    -54    400    404  65.3  -7.7  34146  289.33 0855.21
2009/04/23 10:57:20.9     214    102    -82    238    251  64.5 -23.8  34152  289.44 0855.21
2009/04/23 10:57:21.0     198    148    -70    248    258  53.1 -15.8  34146  289.34 0855.21
2009/04/23 10:57:21.1     322     59    106    328    345  79.5  17.9  34152  289.43 0855.21
2009/04/23 10:57:21.2     299    118    112    322    341  68.3  19.2  34156  289.52 0855.21
2009/04/23 10:57:21.3     292    127     49    319    323  66.5   8.8  34150  289.41 0855.21
2009/04/23 10:57:21.4     124    102    -98    161    188  50.5 -38.8  34150  289.40 0855.21
2009/04/23 10:57:21.5     362    109   -104    379    394  73.2 -15.4  34142  289.28 0855.21
2009/04/23 10:57:21.6     371    145     25    399    400  68.6   3.6  34150  289.40 0855.21
2009/04/23 10:57:21.7     329    140    -39    358    361  66.9  -6.3  34162  289.62 0855.21
2009/04/23 10:57:21.8     339    200   -109    394    409  59.4 -15.5  34172  289.77 0855.21
2009/04/23 10:57:21.9     155    309   -148    346    376  26.7 -29.0  34162  289.60 0855.21
2009/04/23 10:57:22.0     196     63     -1    207    208  72.1  -0.5  34170  289.75 0855.21
2009/04/23 10:57:22.1     161    161     76    228    241  45.0  18.5  34166  289.66 0855.21
2009/04/23 10:57:22.2     186     60     92    196    216  72.1  27.1  34162  289.60 0855.21
2009/04/23 10:57:22.3      50     97     84    110    138  27.2  41.6  34170  289.74 0855.21
2009/04/23 10:57:22.4      93     94     78    133    154  44.9  33.5  34172  289.79 0855.21
2009/04/23 10:57:22.5     231    156     25    280    282  55.9   5.2  34180  289.92 0855.21
2009/04/23 10:57:22.6      75    151     16    169    170  26.5   5.4  34204  290.31 0855.23
2009/04/23 10:57:22.7      48     73     68     88    111  33.4  42.2  34170  289.74 0855.23
2009/04/23 10:57:22.8     -14     -1     12     15     19 265.6  43.7  34166  289.69 0855.23
2009/04/23 10:57:22.9     -51   -108    -33    120    125 205.4 -15.5  34174  289.82 0855.23
2009/04/23 10:57:23.0      44   -104    -75    114    136 156.8 -40.0  34202  290.28 0855.23
2009/04/23 10:57:23.1      27    -28      5     39     40 135.9   8.0  34180  289.91 0855.23
2009/04/23 10:57:23.2       0   -133    101    134    167 180.4  40.9  34158  289.53 0855.23
2009/04/23 10:57:23.3      35   -122    123    127    176 164.0  49.0  34160  289.58 0855.23
2009/04/23 10:57:23.4      19    -83    104     86    134 166.6  56.3  34166  289.69 0855.23
2009/04/23 10:57:23.5       1   -188     88    189    208 179.5  27.1  34156  289.52 0855.23
2009/04/23 10:57:23.6      24   -240     54    242    249 174.2  12.6  34162  289.59 0855.23
2009/04/23 10:57:23.7     107   -217    -35    243    246 153.7  -8.2  34158  289.53 0855.23
2009/04/23 10:57:23.8      66   -181    101    193    217 160.0  29.8  34154  289.48 0855.23
2009/04/23 10:57:23.9     -41   -254    174    258    311 189.3  37.3  34164  289.64 0855.23
2009/04/23 10:57:24.0     -56   -280    126    286    312 191.5  25.2  34188  290.05 0855.23
2009/04/23 10:57:24.1     -96   -359    122    372    392 195.1  18.2  34176  289.84 0855.23
2009/04/23 10:57:24.2     -69   -318    181    326    372 192.4  31.4  34178  289.89 0855.23
2009/04/23 10:57:24.3    -132   -306    143    334    363 203.3  24.6  34166  289.67 0855.23
2009/04/23 10:57:24.4    -235   -271     84    359    369 220.9  13.3  34182  289.93 0855.23
2009/04/23 10:57:24.5    -190   -312    -47    366    369 211.4  -7.3  34174  289.81 0855.23
2009/04/23 10:57:24.6    -216   -285   -136    358    382 217.2 -26.2  34172  289.77 0855.22
2009/04/23 10:57:24.7    -259   -224   -115    343    361 229.1 -23.3  34186  290.01 0855.22
2009/04/23 10:57:24.8    -240   -213   -113    321    340 228.4 -24.5  34204  290.32 0855.22
2009/04/23 10:57:24.9    -219   -158   -132    271    301 234.1 -31.8  34196  290.19 0855.22
2009/04/23 10:57:25.0    -278   -182   -121    333    354 236.7 -25.3  34192  290.10 0855.22
2009/04/23 10:57:25.1    -173   -231    -82    289    300 216.9 -20.7  34192  290.12 0855.22
2009/04/23 10:57:25.2    -147   -272   -101    310    326 208.5 -23.2  34168  289.71 0855.22
2009/04/23 10:57:25.3    -147   -202   -115    251    276 216.1 -30.6  34122  288.93 0855.22
2009/04/23 10:57:25.4    -137   -256   -100    291    307 208.1 -23.6  34134  289.14 0855.22
2009/04/23 10:57:25.5    -160   -211   -181    266    321 217.2 -41.8  34100  288.54 0855.22
2009/04/23 10:57:25.6    -185   -301   -112    354    371 211.7 -22.6  34122  288.93 0855.22
2009/04/23 10:57:25.7    -147   -344   -127    375    395 203.2 -23.8  34116  288.82 0855.22
2009/04/23 10:57:25.8    -145   -363    -71    392    399 201.8 -10.3  34130  289.06 0855.22
2009/04/23 10:57:25.9    -168   -331    -14    372    373 207.0  -2.2  34138  289.21 0855.22
2009/04/23 10:57:26.0    -255   -274     51    375    379 223.0   7.8  34128  289.04 0855.22
2009/04/23 10:57:26.1    -231   -239    -42    333    336 224.0  -7.2  34136  289.16 0855.22
2009/04/23 10:57:26.2    -241   -213    -92    322    336 228.6 -16.0  34140  289.23 0855.22
2009/04/23 10:57:26.3    -231   -164    -69    284    293 234.7 -13.7  34142  289.27 0855.22
2009/04/23 10:57:26.4    -225   -117     -9    254    255 242.5  -2.2  34144  289.31 0855.22
2009/04/23 10:57:26.5    -183    -15    -25    184    186 265.0  -8.0  34142  289.28 0855.22
2009/04/23 10:57:26.6     -82    -43    -11     93     94 242.0  -7.2  34146  289.35 0855.21
2009/04/23 10:57:26.7       0    -89    -25     90     94 179.5 -15.5  34150  289.41 0855.21
2009/04/23 10:57:26.8      -1    -52     -2     53     54 181.8  -2.2  34150  289.40 0855.21
2009/04/23 10:57:26.9       2   -142    -68    143    158 179.0 -31.4  34154  289.48 0855.21
2009/04/23 10:57:27.0     172   -269    106    320    338 147.4  18.4  34152  289.42 0855.21
2009/04/23 10:57:27.1    -159   -249     87    296    309 212.6  16.5  34156  289.51 0855.21
2009/04/23 10:57:27.2    -194   -176    -70    263    273 227.8 -15.0  34160  289.56 0855.21
2009/04/23 10:57:27.3     -93   -291   -272    306    409 197.8 -50.8  34146  289.33 0855.21
2009/04/23 10:57:27.4      84   -309    -94    321    334 164.8 -21.1  34146  289.33 0855.21
2009/04/23 10:57:27.5     149   -235    -79    279    289 147.7 -20.7  34140  289.24 0855.21
2009/04/23 10:57:27.6     129   -216    -74    252    262 149.2 -21.2  34134  289.14 0855.21
2009/04/23 10:57:27.7      76   -270   -103    281    299 164.2 -25.4  34138  289.19 0855.21
2009/04/23 10:57:27.8     105   -280   -117    300    322 159.3 -26.7  34148  289.37 0855.21
2009/04/23 10:57:27.9      92   -313   -123    327    349 163.5 -25.9  34146  289.32 0855.21
2009/04/23 10:57:28.0      98   -249   -108    268    288 158.4 -27.4  34136  289.17 0855.21
2009/04/23 10:57:28.1      52   -243    -54    249    255 167.7 -12.4  34122  288.92 0855.21
2009/04/23 10:57:28.2      48   -283    -97    288    305 170.2 -18.7  34136  289.15 0855.21
2009/04/23 10:57:28.3       2   -269    -54    270    276 179.5 -11.3  34150  289.39 0855.21
2009/04/23 10:57:28.4     -32   -226    -69    229    239 188.1 -21.7  34158  289.53 0855.21
2009/04/23 10:57:28.5     -93   -211    -41    231    235 203.8 -10.1  34146  289.32 0855.21
2009/04/23 10:57:28.6    -134   -281     66    312    320 205.6  12.0  34162  289.61 0855.20
2009/04/23 10:57:28.7    -168   -267     95    316    331 212.2  16.8  34166  289.68 0855.20
2009/04/23 10:57:28.8    -169   -404    105    439    452 202.7  13.5  34160  289.56 0855.20
2009/04/23 10:57:28.9    -125   -396    110    416    431 197.6  14.9  34164  289.63 0855.20
2009/04/23 10:57:29.0    -205   -415     37    463    465 206.3   4.6  34160  289.56 0855.20
2009/04/23 10:57:29.1    -138   -367     41    393    396 200.6   6.0  34148  289.38 0855.20
2009/04/23 10:57:29.2    -103   -410    -67    423    429 194.2  -9.0  34104  288.63 0855.20
2009/04/23 10:57:29.3    -119   -377     -4    396    397 197.5  -0.7  34092  288.42 0855.20
2009/04/23 10:57:29.4     -58   -362   -104    367    381 189.1 -20.3  34102  288.59 0855.20
2009/04/23 10:57:29.5      58   -407   -173    412    446 171.8 -28.5  34104  288.63 0855.20
2009/04/23 10:57:29.6      39   -406    -59    409    414 174.4  -8.2  34136  289.17 0855.19
2009/04/23 10:57:29.7      53   -429    -54    433    437 172.9  -7.2  34152  289.43 0855.19
2009/04/23 10:57:29.8      97   -495   -111    505    518 168.9 -12.4  34146  289.34 0855.19
2009/04/23 10:57:29.9      78   -412   -115    420    436 169.3 -15.4  34122  288.92 0855.19
2009/04/23 10:57:30.0      20   -430   -128    431    449 177.3 -21.5  34102  288.60 0855.19
2009/04/23 10:57:30.1      -4   -374   -107    375    391 180.7 -16.0  34104  288.64 0855.19
2009/04/23 10:57:30.2     -28   -400   -122    401    420 184.0 -17.0  34106  288.67 0855.19
2009/04/23 10:57:30.3       1   -425   -121    426    443 179.8 -15.9  34108  288.70 0855.19
2009/04/23 10:57:30.4      17   -352   -119    353    372 177.2 -23.5  34104  288.64 0855.19
2009/04/23 10:57:30.5      81   -354    -16    364    365 167.1  -2.6  34114  288.79 0855.19
2009/04/23 10:57:30.6      89   -366     -7    377    378 166.2  -1.2  34112  288.76 0855.19
2009/04/23 10:57:30.7      47   -321    -62    325    332 171.5 -10.9  34116  288.84 0855.19
2009/04/23 10:57:30.8      21   -329    -12    330    331 176.2  -2.2  34112  288.77 0855.19
2009/04/23 10:57:30.9      -1   -340    -45    341    345 180.3  -7.6  34116  288.84 0855.19
2009/04/23 10:57:31.0     -60   -296    -32    302    304 191.5  -6.2  34118  288.87 0855.19
2009/04/23 10:57:31.1     -70   -353    -43    361    364 191.3  -6.9  34122  288.93 0855.19
2009/04/23 10:57:31.2     -60   -347      0    353    354 189.9   0.0  34120  288.88 0855.19
2009/04/23 10:57:31.3       8   -348    -41    349    352 178.6  -6.8  34120  288.91 0855.19
2009/04/23 10:57:31.4     -42   -246   -192    250    315 189.8 -45.9  34122  288.92 0855.19
2009/04/23 10:57:31.5     -15   -126    -98    127    160 187.1 -46.1  34120  288.91 0855.19
2009/04/23 10:57:31.6      15   -175     22    176    178 174.9   7.1  34124  288.96 0855.17
2009/04/23 10:57:31.7       6   -177     74    178    192 178.0  23.6  34118  288.87 0855.17
2009/04/23 10:57:31.8     139   -228    198    268    333 148.6  40.1  34124  288.95 0855.17
2009/04/23 10:57:31.9     236   -201    183    311    360 130.4  33.4  34126  289.01 0855.17
2009/04/23 10:57:32.0     208   -207    -11    294    295 134.8  -2.2  34120  288.88 0855.17
2009/04/23 10:57:32.1     187   -235     -8    301    302 141.5  -1.6  34116  288.83 0855.17
2009/04/23 10:57:32.2     217   -253    -88    334    346 139.5 -14.8  34106  288.67 0855.17
2009/04/23 10:57:32.3     198   -211    -67    290    298 136.7 -13.2  34110  288.73 0855.17
2009/04/23 10:57:32.4      98   -209    -65    231    239 154.8 -20.7  34122  288.93 0855.17
2009/04/23 10:57:32.5      88   -191     15    211    212 155.1   4.2  34124  288.97 0855.17
2009/04/23 10:57:32.6      44   -135    -64    143    156 161.7 -30.1  34124  288.96 0855.17
2009/04/23 10:57:32.7      57    -97    -40    113    119 149.7 -24.4  34126  289.01 0855.17
2009/04/23 10:57:32.8     -23    -70    -24     74     77 198.3 -23.8  34130  289.08 0855.17
2009/04/23 10:57:32.9     -15      4     32     16     35 288.2  72.8  34124  288.97 0855.17
2009/04/23 10:57:33.0     -74     19     73     77    106 285.1  48.5  34130  289.06 0855.17
2009/04/23 10:57:33.1      10    -92     73     93    118 173.8  42.2  34136  289.18 0855.17
2009/04/23 10:57:33.2      -4   -102     42    103    111 182.7  23.1  34132  289.09 0855.17
2009/04/23 10:57:33.3       6   -135      2    136    137 177.3   1.2  34130  289.06 0855.17
2009/04/23 10:57:33.4      50   -232    -43    238    242 167.7 -10.3  34126  288.98 0855.17
2009/04/23 10:57:33.5      31   -173    -48    176    183 169.8 -15.4  34122  288.92 0855.17
2009/04/23 10:57:33.6     -69   -158     30    173    176 203.8  10.1  34126  288.99 0855.16
2009/04/23 10:57:33.7    -142    -84     55    166    175 239.3  18.4  34132  289.11 0855.16
2009/04/23 10:57:33.8    -160    -65     25    173    175 247.8   8.5  34126  289.01 0855.16
2009/04/23 10:57:33.9    -225    -53    -20    232    233 256.7  -5.1  34122  288.92 0855.16
2009/04/23 10:57:34.0    -181    -49     36    188    192 254.9  11.1  34126  289.01 0855.16
2009/04/23 10:57:34.1    -170    -46     66    177    188 254.9  21.3  34144  289.31 0855.16
2009/04/23 10:57:34.2    -202    -49    150    208    256 256.3  39.5  34144  289.31 0855.16
2009/04/23 10:57:34.3    -390     54    -44    394    397 277.9  -6.5  34122  288.94 0855.16
2009/04/23 10:57:34.4    -395     15   -113    396    411 272.3 -20.5  34126  288.99 0855.16
2009/04/23 10:57:34.5    -308     10   -106    309    327 271.9 -19.0  34128  289.03 0855.16
2009/04/23 10:57:34.6    -291      0    -82    292    303 270.0 -20.2  34124  288.97 0855.16
2009/04/23 10:57:34.7    -275     17    -80    276    287 273.7 -21.0  34122  288.93 0855.16
2009/04/23 10:57:34.8    -204     20   -195    206    283 275.7 -52.6  34126  289.00 0855.16
2009/04/23 10:57:34.9    -196     14   -106    197    223 274.1 -35.2  34122  288.94 0855.16
2009/04/23 10:57:35.0    -170     16     -6    171    172 275.5  -2.2  34118  288.87 0855.16
2009/04/23 10:57:35.1    -159     75     -6    177    178 295.4  -2.2  34122  288.94 0855.16
2009/04/23 10:57:35.2    -183     60     -7    193    194 288.4  -2.2  34122  288.94 0855.16
2009/04/23 10:57:35.3    -150    -30    -43    154    159 258.5 -20.4  34130  289.08 0855.16
2009/04/23 10:57:35.4    -134    -54    -63    145    158 247.8 -29.3  34134  289.14 0855.16
2009/04/23 10:57:35.5    -143    -54      7    153    154 249.2   2.9  34130  289.08 0855.16
2009/04/23 10:57:35.6     -94    -78     20    123    125 230.4   9.5  34132  289.09 0855.17
2009/04/23 10:57:35.7     -68    -77     20    103    105 221.4  11.0  34138  289.19 0855.17
2009/04/23 10:57:35.8     -44    -96      0    106    107 204.9  -0.3  34144  289.30 0855.17
2009/04/23 10:57:35.9     -18    -64     23     67     72 196.0  19.4  34138  289.21 0855.17
2009/04/23 10:57:36.0      23   -128     25    131    134 169.8  11.1  34138  289.21 0855.17
2009/04/23 10:57:36.1      67   -158     60    172    183 156.8  19.2  34132  289.11 0855.17
2009/04/23 10:57:36.2      59   -147     39    159    164 158.2  13.9  34128  289.02 0855.17
2009/04/23 10:57:36.3     126   -198     95    235    253 147.5  23.0  34132  289.09 0855.17
2009/04/23 10:57:36.4      21   -151     34    153    157 171.9  12.6  34132  289.09 0855.17
2009/04/23 10:57:36.5      78   -228    -22    242    244 161.1  -5.2  34130  289.07 0855.17
2009/04/23 10:57:36.7     103   -350      7    365    366 163.6   1.2  34136  289.15 0855.17
2009/04/23 10:57:36.8       8   -358     51    359    363 178.6   8.2  34132  289.11 0855.17
2009/04/23 10:57:36.9    -104   -341    110    357    374 197.0  17.2  34132  289.11 0855.17
2009/04/23 10:57:37.0    -143   -356     63    384    390 201.9   9.3  34130  289.08 0855.17
2009/04/23 10:57:37.1    -151   -327     84    361    371 204.8  13.2  34128  289.03 0855.17
2009/04/23 10:57:37.2     -88   -328    105    340    356 195.0  17.2  34132  289.10 0855.17
2009/04/23 10:57:37.3     -52   -423    152    427    453 187.1  20.3  34132  289.11 0855.17
2009/04/23 10:57:37.4     -82   -405     68    414    420 191.6   9.3  34128  289.02 0855.17
2009/04/23 10:57:37.5     -15   -428    -17    429    430 182.0  -2.3  34134  289.14 0855.17
2009/04/23 10:57:37.6     -26   -408      1    409    410 183.7   0.2  34132  289.11 0855.17
2009/04/23 10:57:37.7       2   -387     -1    388    389 179.7  -0.3  34128  289.03 0855.18
2009/04/23 10:57:37.8     -75   -541    -33    547    548 187.9  -3.5  34094  288.47 0855.18
2009/04/23 10:57:37.9    -113   -553    -74    565    570 191.6  -7.5  34094  288.47 0855.18
2009/04/23 10:57:38.0    -238   -448   -151    508    531 208.0 -16.6  34122  288.92 0855.18
2009/04/23 10:57:38.1    -203   -446   -169    491    520 204.5 -19.1  34120  288.91 0855.18
2009/04/23 10:57:38.2    -304   -368   -112    478    492 219.5 -13.3  34138  289.20 0855.18
2009/04/23 10:57:38.3    -244   -438   -116    502    516 209.1 -13.0  34120  288.88 0855.18
2009/04/23 10:57:38.4    -285   -454    -75    536    542 212.1  -8.0  34108  288.70 0855.18
2009/04/23 10:57:38.5    -222   -455    -84    507    515 206.0  -9.5  34100  288.57 0855.18
2009/04/23 10:57:38.6    -189   -482    -27    518    519 201.4  -3.0  34100  288.57 0855.18
2009/04/23 10:57:38.7    -152   -466    -39    491    493 198.1  -4.6  34098  288.51 0855.18
2009/04/23 10:57:38.8    -179   -509    -65    540    544 199.4  -6.9  34092  288.43 0855.18
2009/04/23 10:57:38.9    -191   -485   -154    522    545 201.6 -16.5  34092  288.41 0855.18
2009/04/23 10:57:39.0     -76   -489   -157    496    521 188.9 -17.6  34114  288.79 0855.18
2009/04/23 10:57:39.1     -52   -528   -110    531    543 185.7 -11.8  34134  289.13 0855.18
2009/04/23 10:57:39.2    -109   -516   -135    528    546 192.0 -14.4  34134  289.13 0855.18
2009/04/23 10:57:39.3      -8   -524     53    525    528 180.9   5.8  34130  289.07 0855.18
2009/04/23 10:57:39.4     -80   -459     89    466    475 189.9  10.8  34134  289.13 0855.18
2009/04/23 10:57:39.5     -64   -317     61    324    330 191.6  10.8  34130  289.07 0855.18
2009/04/23 10:57:39.6      22   -300     15    301    302 175.8   2.9  34124  288.97 0855.18
2009/04/23 10:57:39.7     -60   -413    -12    418    419 188.3  -1.7  34130  289.05 0855.18
2009/04/23 10:57:39.8     -50   -435    -69    438    444 186.6  -9.0  34122  288.94 0855.18
2009/04/23 10:57:39.9    -118   -474    -80    489    496 194.1  -9.3  34116  288.81 0855.18
2009/04/23 10:57:40.0     -85   -455   -152    463    488 190.6 -18.2  34136  289.15 0855.18
2009/04/23 10:57:40.1    -187   -310   -138    363    388 211.1 -26.1  34138  289.21 0855.18
2009/04/23 10:57:40.2    -161   -309   -127    349    371 207.6 -25.3  34140  289.23 0855.18
2009/04/23 10:57:40.3     -97   -353   -134    367    390 195.4 -25.3  34142  289.26 0855.18
2009/04/23 10:57:40.4     -75   -384   -105    392    406 191.1 -15.0  34138  289.21 0855.18
2009/04/23 10:57:40.5      90   -323    -24    336    337 164.4  -4.2  34128  289.04 0855.18
2009/04/23 10:57:40.6      -5   -385    -39    386    389 180.8  -5.9  34126  289.01 0855.18
2009/04/23 10:57:40.7      22   -372    -58    373    378 176.6  -8.9  34110  288.74 0855.18
2009/04/23 10:57:40.8      -1   -367    -38    368    371 180.3  -6.0  34138  289.21 0855.18
2009/04/23 10:57:40.9       8   -317    -40    318    321 178.4  -7.3  34148  289.36 0855.18
2009/04/23 10:57:41.0     -16   -327    -30    328    330 182.9  -5.4  34142  289.26 0855.18
2009/04/23 10:57:41.1      17   -288    -24    289    291 176.5  -4.9  34126  289.00 0855.18
2009/04/23 10:57:41.2       7   -251    -53    252    258 178.2 -11.9  34122  288.93 0855.18
2009/04/23 10:57:41.3     -43   -247    -55    251    258 190.0 -12.4  34154  289.47 0855.18
2009/04/23 10:57:41.4      10   -192    -84    193    210 176.9 -29.5  34144  289.30 0855.18
2009/04/23 10:57:41.5      82   -233    -88    248    264 160.6 -19.7  34124  288.97 0855.18
2009/04/23 10:57:41.6      82   -206    -50    222    228 158.2 -12.9  34120  288.91 0855.18
2009/04/23 10:57:41.7       4   -173     20    174    176 178.4   6.7  34110  288.72 0855.18
2009/04/23 10:57:41.8       0   -178     27    179    182 180.2   8.8  34116  288.84 0855.18
2009/04/23 10:57:41.9     -10   -217     10    218    219 182.7   2.8  34126  288.99 0855.18
2009/04/23 10:57:42.0     -24   -156    -65    158    170 188.9 -28.0  34142  289.28 0855.18
2009/04/23 10:57:42.1     -49   -178    -74    185    199 195.4 -27.4  34140  289.23 0855.18
2009/04/23 10:57:42.2      51   -158    -19    167    169 162.0  -6.5  34140  289.23 0855.18
2009/04/23 10:57:42.3      52   -219    -12    226    227 166.6  -3.1  34142  289.26 0855.18
2009/04/23 10:57:42.4      71   -235    -22    246    248 163.1  -5.2  34150  289.39 0855.18
2009/04/23 10:57:42.5     120   -219    -70    250    260 151.3 -15.8  34140  289.22 0855.18
2009/04/23 10:57:42.6      77   -265    -55    277    283 163.7 -11.3  34146  289.34 0855.18
2009/04/23 10:57:42.7      88   -233    -75    250    262 159.3 -16.8  34142  289.27 0855.18
2009/04/23 10:57:42.8      69   -235    -85    246    260 163.5 -24.0  34148  289.37 0855.18
2009/04/23 10:57:42.9      32   -234    -88    237    252 172.0 -25.4  34144  289.31 0855.18
2009/04/23 10:57:43.0     -76   -285    -38    296    299 195.1  -7.5  34136  289.17 0855.18
2009/04/23 10:57:43.1    -137   -277    -94    310    323 206.3 -21.9  34146  289.32 0855.18
2009/04/23 10:57:43.2    -155   -325   -121    361    380 205.5 -23.3  34142  289.28 0855.18
2009/04/23 10:57:43.3    -159   -323   -124    361    382 206.3 -19.1  34138  289.21 0855.18
2009/04/23 10:57:43.4     -41   -356   -117    359    377 186.6 -23.5  34126  288.99 0855.18
2009/04/23 10:57:43.5      17   -376   -138    377    401 177.4 -25.3  34126  289.01 0855.18
2009/04/23 10:57:43.6       3   -299   -105    300    317 179.3 -24.4  34124  288.95 0855.18
2009/04/23 10:57:43.7      26   -324    -63    326    333 175.3 -11.0  34128  289.04 0855.18
2009/04/23 10:57:43.8     111   -314     28    334    336 160.4   4.9  34128  289.03 0855.18
2009/04/23 10:57:43.9      54   -263    104    269    288 168.2  22.1  34134  289.14 0855.18
2009/04/23 10:57:44.0     110   -180    131    212    249 148.6  34.8  34124  288.95 0855.18
2009/04/23 10:57:44.1      44   -238    158    243    289 169.5  36.0  34128  289.03 0855.18
2009/04/23 10:57:44.2      45   -346    159    349    383 172.6  26.4  34130  289.06 0855.18
2009/04/23 10:57:44.3      27   -427    258    428    499 176.4  34.0  34126  289.01 0855.18
2009/04/23 10:57:44.4     116   -507    237    521    572 167.1  26.2  34140  289.23 0855.18
2009/04/23 10:57:44.5     180   -490     81    523    530 159.8   8.8  34142  289.28 0855.18
2009/04/23 10:57:44.6     188   -549     18    581    582 161.1   1.8  34138  289.20 0855.18
2009/04/23 10:57:44.7     213   -594     91    632    639 160.2   8.2  34136  289.15 0855.18
2009/04/23 10:57:44.8     185   -587    109    616    626 162.5  10.1  34136  289.16 0855.18
2009/04/23 10:57:44.9     136   -590    124    606    619 167.0  11.6  34146  289.33 0855.18
2009/04/23 10:57:45.0     114   -594    118    605    617 169.1  11.1  34140  289.22 0855.18
2009/04/23 10:57:45.1     171   -517    159    545    568 161.7  16.3  34140  289.24 0855.18
2009/04/23 10:57:45.2     168   -495    150    524    546 161.2  16.0  34136  289.16 0855.18
2009/04/23 10:57:45.3      98   -547     23    556    557 169.8   2.4  34138  289.19 0855.18
2009/04/23 10:57:45.4     103   -472     -6    484    485 167.6  -0.7  34142  289.25 0855.18
2009/04/23 10:57:45.5      35   -461     17    463    464 175.6   2.1  34136  289.16 0855.18
2009/04/23 10:57:45.6    -192   -413    -38    456    458 205.0  -4.9  34146  289.34 0855.18
2009/04/23 10:57:45.7    -118   -421    -68    438    444 195.7  -8.9  34152  289.43 0855.18
2009/04/23 10:57:45.8    -129   -419    -24    439    440 197.2  -3.2  34150  289.39 0855.18
2009/04/23 10:57:45.9     -78   -335    -35    344    346 193.1  -5.9  34162  289.59 0855.18
2009/04/23 10:57:46.0     -99   -488     55    499    503 191.6   6.4  34162  289.59 0855.18
2009/04/23 10:57:46.1     -74   -430    111    437    452 189.8  14.3  34156  289.49 0855.18
2009/04/23 10:57:46.2     -20   -383     25    384    385 183.0   3.7  34162  289.62 0855.18
2009/04/23 10:57:46.3      90   -298     69    312    320 163.1  12.5  34164  289.64 0855.18
2009/04/23 10:57:46.4     200   -245    129    317    342 140.8  23.4  34170  289.74 0855.18
2009/04/23 10:57:46.5     199   -212    223    291    366 136.8  41.4  34174  289.81 0855.18
2009/04/23 10:57:46.6     162   -344    221    381    440 154.8  32.8  34166  289.68 0855.18
2009/04/23 10:57:46.7     108   -460    167    473    502 166.7  19.5  34172  289.79 0855.18
2009/04/23 10:57:46.8     -47   -438    138    441    463 186.2  17.4  34166  289.66 0855.18
2009/04/23 10:57:46.9     111   -445    222    459    509 165.9  27.8  34156  289.49 0855.18
2009/04/23 10:57:47.0       0   -333    102    334    350 180.1  17.0  34162  289.60 0855.18
2009/04/23 10:57:47.1      77   -403     51    411    415 169.1   7.1  34166  289.66 0855.18
2009/04/23 10:57:47.2      73   -285    114    295    316 165.5  22.3  34164  289.64 0855.18
2009/04/23 10:57:47.3      25   -348    109    349    366 175.9  17.4  34166  289.67 0855.18
2009/04/23 10:57:47.4      43   -358     98    361    375 173.0  15.2  34162  289.62 0855.18
2009/04/23 10:57:47.5     155   -377    137    408    431 157.6  18.6  34160  289.58 0855.18
2009/04/23 10:57:47.6     170   -416      7    450    451 157.7   0.9  34172  289.78 0855.18
2009/04/23 10:57:47.7     195   -452    -32    493    495 156.7  -3.8  34170  289.74 0855.19
2009/04/23 10:57:47.8     294   -473    -46    558    560 148.1  -4.8  34150  289.41 0855.19
2009/04/23 10:57:47.9     301   -381    -70    486    492 141.7  -8.2  34156  289.50 0855.19
2009/04/23 10:57:48.0     360   -318    -49    481    484 131.4  -5.9  34156  289.49 0855.19
2009/04/23 10:57:48.1     334   -276    113    434    449 129.5  14.7  34152  289.43 0855.19
2009/04/23 10:57:48.2     222   -193    129    295    321 130.9  25.2  34160  289.56 0855.19
2009/04/23 10:57:48.3     135   -164    123    213    245 140.4  32.7  34164  289.63 0855.19
2009/04/23 10:57:48.4     217   -249     50    331    335 139.0   8.7  34160  289.57 0855.19
2009/04/23 10:57:48.5     154   -163     73    225    237 136.8  18.1  34158  289.53 0855.19
2009/04/23 10:57:48.6      -4    -57    107     58    121 184.5  69.3  34162  289.62 0855.19
2009/04/23 10:57:48.7     -24   -109     88    112    142 192.5  42.2  34168  289.70 0855.19
2009/04/23 10:57:48.8     100   -128    201    163    258 142.2  56.6  34170  289.74 0855.19
2009/04/23 10:57:48.9     146   -222    179    266    320 146.6  37.0  34174  289.80 0855.19
2009/04/23 10:57:49.0     190   -199    183    276    331 136.3  36.5  34168  289.70 0855.19
2009/04/23 10:57:49.1     171   -145    186    225    291 130.2  43.8  34172  289.76 0855.19
2009/04/23 10:57:49.2     169    -99    106    197    223 120.4  30.8  34168  289.72 0855.19
2009/04/23 10:57:49.3      75   -187    157    202    255 158.2  41.7  34172  289.78 0855.19
2009/04/23 10:57:49.4      62   -189    171    200    263 161.7  44.8  34174  289.80 0855.19
2009/04/23 10:57:49.5       0   -171    176    172    246 180.0  50.7  34172  289.79 0855.19
2009/04/23 10:57:49.6     -20   -263    218    264    342 184.5  43.7  34170  289.75 0855.19
2009/04/23 10:57:49.7      34   -222    180    225    288 171.3  42.8  34170  289.73 0855.20
2009/04/23 10:57:49.8       7   -250    180    251    308 178.2  39.5  34170  289.75 0855.20
2009/04/23 10:57:49.9      28   -176    201    179    269 170.9  53.7  34172  289.76 0855.20
2009/04/23 10:57:50.0      98   -277    173    295    341 160.4  33.1  34164  289.64 0855.20
2009/04/23 10:57:50.1      58   -290    135    296    325 168.5  26.3  34162  289.61 0855.20
2009/04/23 10:57:50.2       0   -195    153    196    248 180.2  42.0  34164  289.65 0855.20
2009/04/23 10:57:50.3      60   -191    104    201    226 162.4  29.3  34168  289.70 0855.20
2009/04/23 10:57:50.4      47   -129    123    138    184 160.0  46.4  34166  289.67 0855.20
2009/04/23 10:57:50.5       0   -178    123    179    217 180.0  37.8  34164  289.63 0855.20
2009/04/23 10:57:50.6      16   -212    126    213    247 175.5  33.5  34164  289.63 0855.20
2009/04/23 10:57:50.7      26   -178    181    180    255 171.5  50.1  34162  289.59 0855.20
2009/04/23 10:57:50.8     -50    -73    107     89    139 214.7  56.3  34170  289.74 0855.20
2009/04/23 10:57:50.9      27   -170    139    173    221 170.9  43.3  34162  289.60 0855.20
2009/04/23 10:57:51.0      43   -243    178    247    304 169.8  39.5  34162  289.59 0855.20
2009/04/23 10:57:51.1      43   -172    149    178    232 166.0  43.8  34164  289.65 0855.20
2009/04/23 10:57:51.2       2   -209    147    210    256 179.3  38.5  34160  289.56 0855.20
2009/04/23 10:57:51.3     -56   -216    148    224    268 194.7  36.5  34160  289.56 0855.20
2009/04/23 10:57:51.4    -116   -264    167    289    333 203.8  32.6  34154  289.47 0855.20
2009/04/23 10:57:51.5    -185   -179    185    258    317 226.0  39.2  34162  289.61 0855.20
2009/04/23 10:57:51.6    -169   -167    150    238    281 225.3  35.5  34162  289.59 0855.20
2009/04/23 10:57:51.7    -164   -175     99    241    260 223.2  23.6  34168  289.70 0855.20
2009/04/23 10:57:51.8     -97   -174    135    200    241 209.0  37.3  34166  289.67 0855.20
2009/04/23 10:57:51.9    -139   -129     56    190    199 227.1  16.6  34170  289.75 0855.20
2009/04/23 10:57:52.0    -107   -163    134    196    237 213.4  37.6  34166  289.69 0855.20
2009/04/23 10:57:52.1    -120   -154    139    196    240 217.8  38.8  34162  289.60 0855.20
2009/04/23 10:57:52.2    -134   -170     90    217    234 218.3  24.1  34158  289.53 0855.20
2009/04/23 10:57:52.3    -261   -148    112    301    321 240.5  21.3  34174  289.81 0855.20
2009/04/23 10:57:52.4    -263   -179     11    319    320 235.8   2.1  34178  289.86 0855.20
2009/04/23 10:57:52.5    -136   -127     29    187    190 226.9   9.0  34160  289.58 0855.20
2009/04/23 10:57:52.6    -121    -57     53    134    144 244.6  23.0  34160  289.58 0855.20
2009/04/23 10:57:52.7     -67   -122     87    140    164 209.0  35.0  34158  289.53 0855.20
2009/04/23 10:57:52.8    -124   -106     92    164    188 229.3  31.6  34164  289.63 0855.20
2009/04/23 10:57:52.9    -155    -56    128    166    209 250.0  41.7  34178  289.89 0855.20
2009/04/23 10:57:53.0    -244   -107    -45    267    271 246.3  -9.6  34180  289.90 0855.20
2009/04/23 10:57:53.1    -157    -78    -71    176    189 243.4 -27.4  34186  290.01 0855.20
2009/04/23 10:57:53.2    -113   -111      5    159    160 225.6   2.1  34184  289.99 0855.20
2009/04/23 10:57:53.3    -165   -113    -17    201    202 235.6  -4.9  34176  289.84 0855.20
2009/04/23 10:57:53.4     -79   -127    -45    150    157 212.1 -17.0  34154  289.48 0855.20
2009/04/23 10:57:53.5      -9    -48    -16     49     51 190.7 -23.8  34150  289.41 0855.20
2009/04/23 10:57:53.6      17     -5     17     18     24 108.2  52.0  34156  289.50 0855.20
2009/04/23 10:57:53.7      53    -28     25     61     65 118.0  23.0  34156  289.52 0855.20
2009/04/23 10:57:53.8      72   -113     47    135    144 147.4  19.4  34146  289.33 0855.20
2009/04/23 10:57:53.9     159    -56     66    169    181 109.7  22.5  34156  289.52 0855.20
2009/04/23 10:57:54.0      77    -82      3    113    114 136.8   1.8  34160  289.57 0855.20
2009/04/23 10:57:54.1       8   -219     18    220    221 177.8   4.9  34160  289.58 0855.20
2009/04/23 10:57:54.2       8   -237     81    238    252 178.0  18.9  34154  289.47 0855.20
2009/04/23 10:57:54.3      43   -305     60    309    315 171.9  11.0  34152  289.42 0855.20
2009/04/23 10:57:54.4      66   -250     86    259    274 165.1  18.5  34152  289.42 0855.20
2009/04/23 10:57:54.5      -8   -262     92    263    278 181.8  20.0  34156  289.49 0855.20
2009/04/23 10:57:54.6      -4   -301    135    302    330 180.9  25.7  34154  289.46 0855.20
2009/04/23 10:57:54.7     -23   -294    102    295    313 184.5  19.1  34156  289.49 0855.21
2009/04/23 10:57:54.8     -67   -316     42    324    327 192.1   7.5  34156  289.49 0855.21
2009/04/23 10:57:54.9    -105   -300     16    319    320 199.4   3.0  34154  289.46 0855.21
2009/04/23 10:57:55.0    -116   -264     18    289    290 203.7   3.6  34150  289.41 0855.21
2009/04/23 10:57:55.1    -139   -211     -9    253    254 213.4  -2.2  34150  289.39 0855.21
2009/04/23 10:57:55.2    -121   -146     -7    190    191 219.6  -2.2  34152  289.45 0855.21
2009/04/23 10:57:55.3    -126   -131     19    183    185 223.9   6.1  34146  289.33 0855.21
2009/04/23 10:57:55.4     -67   -120     57    138    149 209.4  23.1  34146  289.35 0855.21
2009/04/23 10:57:55.5     -13   -209    151    210    258 183.8  39.5  34142  289.27 0855.21
2009/04/23 10:57:55.6     -63   -165    100    177    203 200.9  32.1  34140  289.23 0855.21
2009/04/23 10:57:55.7      51   -116     93    127    157 156.3  39.9  34146  289.33 0855.21
2009/04/23 10:57:55.8      42    -80    116     91    147 151.9  57.5  34156  289.52 0855.21
2009/04/23 10:57:55.9      98    -98    138    140    196 135.0  49.9  34154  289.48 0855.21
2009/04/23 10:57:56.0     125    -96     47    158    165 127.7  16.6  34154  289.46 0855.21
2009/04/23 10:57:56.1     155   -104     -2    187    188 124.0  -0.7  34154  289.46 0855.21
2009/04/23 10:57:56.2     181   -115      3    215    216 122.4   0.8  34160  289.57 0855.21
2009/04/23 10:57:56.3     191   -107     47    220    226 119.3  12.2  34162  289.62 0855.21
2009/04/23 10:57:56.4      86   -215     89    232    248 158.2  22.0  34154  289.47 0855.21
2009/04/23 10:57:56.5      81   -254     37    267    270 162.2   8.0  34160  289.58 0855.21
2009/04/23 10:57:56.6      28   -175     76    178    193 170.7  24.3  34156  289.50 0855.21
2009/04/23 10:57:56.7     -20   -136     72    138    155 188.5  29.8  34158  289.53 0855.22
2009/04/23 10:57:56.8     -55    -86     18    103    105 212.5  10.1  34154  289.46 0855.22
2009/04/23 10:57:56.9     -33    -50     26     61     66 213.4  23.1  34160  289.57 0855.22
2009/04/23 10:57:57.0     -17      4     29     18     34 285.1  64.7  34166  289.67 0855.22
2009/04/23 10:57:57.1     -91     35     11     98     99 291.3   6.9  34162  289.62 0855.22
2009/04/23 10:57:57.2    -117     34     29    122    126 286.4  13.7  34164  289.63 0855.22
2009/04/23 10:57:57.3     -90     55     51    106    117 301.5  27.2  34168  289.72 0855.22
2009/04/23 10:57:57.4     -37    104    -31    111    116 340.4 -15.5  34158  289.55 0855.22
2009/04/23 10:57:57.5     -23    108    -44    111    119 348.0 -26.9  34164  289.63 0855.22
2009/04/23 10:57:57.6     -34     -6   -109     35    114 258.5 -85.1  34172  289.79 0855.22
2009/04/23 10:57:57.7      63    -65    -55     91    106 135.9 -38.8  34166  289.69 0855.22
2009/04/23 10:57:57.8      97   -111    -16    148    149 139.0  -6.2  34164  289.65 0855.22
2009/04/23 10:57:57.9     108   -187     75    217    230 149.9  19.2  34170  289.75 0855.22
2009/04/23 10:57:58.0      26   -157     28    160    163 170.3  10.1  34162  289.60 0855.22
2009/04/23 10:57:58.1      14   -183     37    184    188 175.5  11.6  34162  289.60 0855.22
2009/04/23 10:57:58.2       7   -172     40    173    178 177.5  13.2  34158  289.53 0855.22
2009/04/23 10:57:58.3      44   -122     67    130    146 160.0  29.3  34156  289.52 0855.22
2009/04/23 10:57:58.4     125   -135     85    184    202 137.2  26.4  34144  289.31 0855.22
2009/04/23 10:57:58.5       8   -173     49    174    181 177.3  15.8  34146  289.33 0855.22
2009/04/23 10:57:58.6     -34   -247     98    250    268 188.0  22.5  34148  289.37 0855.22
2009/04/23 10:57:58.7     -48   -216     87    222    238 192.7  22.3  34150  289.39 0855.23
2009/04/23 10:57:58.8     -63   -237     47    246    251 195.1  11.0  34152  289.44 0855.23
2009/04/23 10:57:58.9    -100   -218     59    241    249 204.7  13.9  34144  289.31 0855.23
2009/04/23 10:57:59.0    -157   -231      3    280    281 214.3   0.8  34146  289.32 0855.23
2009/04/23 10:57:59.1    -148   -263     22    302    303 209.4   4.2  34138  289.19 0855.23
2009/04/23 10:57:59.2     -91   -275     45    290    294 198.3   9.0  34138  289.19 0855.23
2009/04/23 10:57:59.3    -105   -262     24    283    285 201.8   5.0  34146  289.34 0855.23
2009/04/23 10:57:59.4    -111   -309     39    329    332 199.8   6.8  34148  289.37 0855.23
2009/04/23 10:57:59.5    -164   -232     19    285    286 215.2   3.9  34150  289.39 0855.23
2009/04/23 10:57:59.6    -125   -244     58    275    282 207.1  12.0  34148  289.36 0855.23
2009/04/23 10:57:59.8     -40   -270     58    274    281 188.5  12.0  34146  289.34 0855.23
2009/04/23 10:57:59.8     -57   -204     -4    213    214 195.8  -1.3  34148  289.38 0855.23
2009/04/23 10:57:59.9      53   -192     33    200    203 164.6   9.5  34148  289.36 0855.23
2009/04/23 10:58:00.0      98   -258     65    277    285 159.1  13.2  34154  289.46 0855.23
2009/04/23 10:58:00.1      85   -301     73    313    322 164.2  13.2  34152  289.42 0855.23
2009/04/23 10:58:00.2     103   -377    143    391    416 164.7  21.0  34160  289.56 0855.23
2009/04/23 10:58:00.3     138   -299    205    330    388 155.2  35.1  34150  289.40 0855.23
2009/04/23 10:58:00.4     139   -293    137    325    352 154.5  24.2  34150  289.40 0855.23
2009/04/23 10:58:00.5      93   -299     80    314    325 162.6  14.4  34156  289.51 0855.23
2009/04/23 10:58:00.6      27   -248     95    250    267 173.8  22.0  34156  289.51 0855.23
2009/04/23 10:58:00.7     -31   -206     67    209    220 188.7  17.9  34158  289.55 0855.23
2009/04/23 10:58:00.8     -15   -209    147    210    256 184.2  38.5  34162  289.61 0855.23
2009/04/23 10:58:00.9     -54   -261    110    267    288 191.8  23.6  34160  289.58 0855.23
2009/04/23 10:58:01.0    -105   -232     84    255    269 204.5  18.4  34162  289.59 0855.23
2009/04/23 10:58:01.1     -94   -211    136    232    268 204.1  33.1  34156  289.51 0855.23
2009/04/23 10:58:01.2     -90   -250    124    266    293 200.0  27.1  34160  289.56 0855.23
2009/04/23 10:58:01.3     -73   -212     84    225    240 199.2  21.3  34158  289.53 0855.23
2009/04/23 10:58:01.4    -132   -268     36    299    302 206.3   6.9  34154  289.47 0855.23
2009/04/23 10:58:01.5    -106   -291     30    310    312 200.1   5.7  34154  289.47 0855.23
2009/04/23 10:58:01.6    -120   -334      9    356    357 199.8   1.6  34158  289.54 0855.23
2009/04/23 10:58:01.7     -49   -390      5    394    395 187.2   0.8  34154  289.48 0855.23
2009/04/23 10:58:01.8     -62   -437    -17    442    443 188.1  -2.2  34150  289.39 0855.23
2009/04/23 10:58:01.9     -40   -370    116    373    391 186.2  17.3  34152  289.45 0855.23
2009/04/23 10:58:02.0       0   -277    161    278    321 180.0  32.8  34152  289.42 0855.23
2009/04/23 10:58:02.1     -12   -274    150    275    313 182.6  30.9  34152  289.42 0855.23
2009/04/23 10:58:02.2      13   -287    151    288    325 177.3  29.8  34156  289.51 0855.23
2009/04/23 10:58:02.3     -22   -367    130    368    391 183.5  19.6  34154  289.47 0855.23
2009/04/23 10:58:02.5      13   -353    193    354    403 177.9  30.9  34154  289.47 0855.23
2009/04/23 10:58:02.5      -6   -417    109    418    433 180.9  14.7  34154  289.46 0855.23
2009/04/23 10:58:02.6      27   -436     60    437    442 176.4   7.9  34148  289.36 0855.23
2009/04/23 10:58:02.8      33   -370    104    372    387 174.8  15.7  34146  289.33 0855.24
2009/04/23 10:58:02.8      76   -337    121    346    366 167.2  20.0  34148  289.37 0855.24
2009/04/23 10:58:02.9     124   -350    106    372    387 160.5  15.9  34152  289.43 0855.24
2009/04/23 10:58:03.1     137   -346    135    373    396 158.3  20.8  34146  289.33 0855.24
2009/04/23 10:58:03.2      50   -361     24    365    366 172.0   3.8  34154  289.47 0855.24
2009/04/23 10:58:03.3      49   -356     52    360    364 172.1   8.2  34156  289.50 0855.24
2009/04/23 10:58:03.4      72   -357     85    365    375 168.6  13.1  34158  289.55 0855.24
2009/04/23 10:58:03.5      77   -380     79    389    397 168.4  11.5  34152  289.43 0855.24
2009/04/23 10:58:03.6     154   -384     94    414    425 158.1  12.8  34140  289.24 0855.24
2009/04/23 10:58:03.7     184   -369    101    413    426 153.5  13.8  34144  289.29 0855.24
2009/04/23 10:58:03.8     159   -303    147    343    373 152.3  24.8  34138  289.20 0855.24
2009/04/23 10:58:03.9      35   -230    175    233    291 171.3  40.7  34142  289.27 0855.24
2009/04/23 10:58:04.0      18   -239    181    240    300 175.5  40.7  34138  289.20 0855.24
2009/04/23 10:58:04.1      24   -282    222    284    360 175.1  41.9  34142  289.28 0855.24
2009/04/23 10:58:04.2      67   -334    233    341    413 168.6  37.6  34142  289.25 0855.24
2009/04/23 10:58:04.3      29   -317    251    319    405 174.7  42.2  34138  289.21 0855.24
2009/04/23 10:58:04.4      97   -292    261    308    403 161.5  44.5  34152  289.42 0855.24
2009/04/23 10:58:04.5      94   -209    223    230    320 155.7  49.2  34156  289.49 0855.24
2009/04/23 10:58:04.6      94   -113    184    148    236 140.3  57.1  34156  289.50 0855.24
2009/04/23 10:58:04.7      57    -21    167     61    177 110.8  79.2  34162  289.62 0855.24
2009/04/23 10:58:04.8      48   -230    143    236    275 168.2  34.0  34152  289.42 0855.25
2009/04/23 10:58:04.9      94   -395     87    407    417 166.6  12.2  34154  289.48 0855.25
2009/04/23 10:58:05.0      94   -354    137    367    391 165.1  21.6  34150  289.40 0855.25
2009/04/23 10:58:05.1      36   -265    150    268    307 172.2  31.4  34152  289.42 0855.25
2009/04/23 10:58:05.2      -8   -273    141    274    308 181.8  29.3  34148  289.37 0855.25
2009/04/23 10:58:05.3       0   -273    178    274    326 180.0  36.0  34152  289.44 0855.25
2009/04/23 10:58:05.4     -39   -249    163    253    300 188.9  35.6  34154  289.46 0855.25
2009/04/23 10:58:05.5     -17   -200    131    201    239 185.1  36.5  34150  289.41 0855.25
2009/04/23 10:58:05.6     -31   -155    104    159    189 191.5  36.0  34150  289.41 0855.25
2009/04/23 10:58:05.7       6   -130     91    131    159 177.3  38.4  34150  289.41 0855.25
2009/04/23 10:58:05.8      21    -62    118     66    135 160.8  68.3  34164  289.65 0855.25
2009/04/23 10:58:05.9      14   -127    115    128    172 173.7  46.6  34160  289.58 0855.25
2009/04/23 10:58:06.0       7    -54     87     55    102 172.0  64.7  34168  289.72 0855.25
2009/04/23 10:58:06.1      21    -88     34     91     97 166.6  20.4  34158  289.53 0855.25
2009/04/23 10:58:06.2       9   -114     15    115    116 175.1   7.5  34152  289.45 0855.25
2009/04/23 10:58:06.3       8   -199      0    200    201 177.5   0.2  34150  289.40 0855.25
2009/04/23 10:58:06.4      44   -275    -31    279    281 170.9  -6.5  34150  289.39 0855.25
2009/04/23 10:58:06.5      32   -228    -48    231    237 172.0 -11.9  34152  289.44 0855.25
2009/04/23 10:58:06.6     -23   -300    -91    301    315 184.5 -16.8  34152  289.42 0855.25
2009/04/23 10:58:06.7      -1   -339    -84    340    351 180.2 -13.9  34146  289.33 0855.25
2009/04/23 10:58:06.8     -34   -243     92    246    262 188.1  21.5  34152  289.42 0855.25
2009/04/23 10:58:06.9     -11   -255    111    256    279 182.6  25.1  34152  289.44 0855.25
2009/04/23 10:58:07.0      19   -251    114    252    276 175.6  26.2  34152  289.44 0855.25
2009/04/23 10:58:07.1      38   -235    160    239    287 170.7  37.0  34158  289.53 0855.25
2009/04/23 10:58:07.2      -8   -250    150    251    292 182.0  33.7  34156  289.51 0855.25
2009/04/23 10:58:07.3     -31   -274    127    276    303 186.5  26.6  34150  289.39 0855.25
2009/04/23 10:58:07.4     -70   -149    195    165    255 205.2  55.4  34156  289.52 0855.25
2009/04/23 10:58:07.5     -73   -160    181    176    252 204.5  50.7  34152  289.45 0855.25
2009/04/23 10:58:07.6     -41   -266    119    270    295 188.9  25.2  34158  289.53 0855.25
2009/04/23 10:58:07.7      -8   -252    120    253    280 182.0  27.2  34152  289.42 0855.25
2009/04/23 10:58:07.8     -13   -120    159    121    199 186.3  58.7  34150  289.41 0855.25
2009/04/23 10:58:07.9     -28   -138    178    141    227 191.5  57.5  34154  289.48 0855.25
2009/04/23 10:58:08.0     -50   -244    117    250    276 191.6  27.0  34152  289.44 0855.25
2009/04/23 10:58:08.1     -23   -304     35    305    308 184.4   6.7  34148  289.37 0855.25
2009/04/23 10:58:08.2     -38   -412     81    414    422 185.4  11.1  34152  289.44 0855.25
2009/04/23 10:58:08.3    -138   -438     23    460    461 197.5   2.9  34170  289.75 0855.25
2009/04/23 10:58:08.4     -46   -392     56    395    400 186.7   8.1  34152  289.45 0855.25
2009/04/23 10:58:08.5     -39   -381     78    384    393 186.0  11.6  34158  289.55 0855.25
2009/04/23 10:58:08.6    -152   -419    116    446    461 200.0  14.7  34172  289.77 0855.25
2009/04/23 10:58:08.7    -313   -303     69    436    442 226.0   9.0  34216  290.53 0855.25
2009/04/23 10:58:08.8    -151   -295     71    332    340 207.1  12.1  34172  289.76 0855.25
2009/04/23 10:58:08.9    -211   -293     52    362    366 215.8   8.2  34158  289.55 0855.25
2009/04/23 10:58:09.0    -261   -305     58    402    407 220.5   8.3  34148  289.38 0855.25
2009/04/23 10:58:09.1    -227   -265    121    350    371 220.6  19.2  34152  289.43 0855.25
2009/04/23 10:58:09.2    -192   -252    111    318    337 217.3  19.3  34152  289.43 0855.25
2009/04/23 10:58:09.3    -154   -321     86    357    368 205.6  13.5  34152  289.42 0855.25
2009/04/23 10:58:09.4    -139   -296    105    328    345 205.2  17.8  34152  289.43 0855.25
2009/04/23 10:58:09.5    -142   -276    110    311    331 207.2  19.6  34152  289.42 0855.25
2009/04/23 10:58:09.6     -95   -244    139    263    297 201.4  30.2  34154  289.47 0855.25
2009/04/23 10:58:09.7      -8   -276    119    277    301 181.8  24.9  34154  289.47 0855.25
2009/04/23 10:58:09.8       6   -248    136    249    283 178.4  31.3  34156  289.49 0855.25
2009/04/23 10:58:09.9      31   -231     90    234    250 172.2  22.0  34154  289.47 0855.25
2009/04/23 10:58:10.0     103   -269     56    289    295 159.1  11.0  34162  289.59 0855.25
2009/04/23 10:58:10.1     129   -231      9    265    266 150.8   2.1  34160  289.58 0855.25
2009/04/23 10:58:10.2     109   -212     15    239    240 152.8   3.8  34158  289.53 0855.25
2009/04/23 10:58:10.3     119   -244     45    272    276 153.9   9.5  34160  289.58 0855.25
2009/04/23 10:58:10.4      61   -267     92    274    290 167.1  18.6  34162  289.61 0855.25
2009/04/23 10:58:10.5      69   -227     83    238    253 163.1  19.2  34162  289.61 0855.25
2009/04/23 10:58:10.6      52   -197     68    204    216 165.1  18.4  34162  289.62 0855.25
2009/04/23 10:58:10.7      54   -194     93    202    222 164.2  26.4  34162  289.60 0855.25
2009/04/23 10:58:10.8      45   -109      6    119    120 157.3   2.9  34166  289.67 0855.26
2009/04/23 10:58:10.9      13    -59     34     61     69 167.5  31.4  34170  289.74 0855.26
2009/04/23 10:58:11.0      29    -59     29     66     72 153.7  25.1  34164  289.63 0855.26
2009/04/23 10:58:11.1      43    -68     63     81    102 147.5  42.2  34162  289.62 0855.26
2009/04/23 10:58:11.2     111   -119      2    163    164 137.0   1.0  34158  289.53 0855.26
2009/04/23 10:58:11.3     109   -163     10    197    198 146.2   2.9  34156  289.50 0855.26
2009/04/23 10:58:11.4     113   -232    -10    259    260 153.9  -2.2  34160  289.58 0855.26
2009/04/23 10:58:11.5      43   -212    -58    217    225 168.5 -15.0  34158  289.55 0855.26
2009/04/23 10:58:11.6      31   -327    -89    329    341 174.6 -15.2  34162  289.59 0855.26
2009/04/23 10:58:11.7     -65   -293    -71    301    310 192.5 -13.4  34162  289.59 0855.26
2009/04/23 10:58:11.8     -46   -274    -35    278    281 189.6  -7.3  34164  289.64 0855.23
2009/04/23 10:58:11.9      -4   -281    -46    282    286 180.9  -9.3  34166  289.66 0855.23
2009/04/23 10:58:12.0       5   -290     -9    291    292 179.0  -1.8  34158  289.54 0855.23
2009/04/23 10:58:12.1     -22   -252     93    254    270 185.1  20.9  34168  289.71 0855.23
2009/04/23 10:58:12.2    -140   -357    -32    384    386 201.5  -4.9  34184  289.98 0855.23
2009/04/23 10:58:12.3     -86   -402     42    412    415 192.1   5.9  34180  289.92 0855.23
2009/04/23 10:58:12.4    -180   -360     42    403    406 206.6   6.0  34200  290.26 0855.23
2009/04/23 10:58:12.5     -75   -270     35    281    284 195.6   7.2  34196  290.19 0855.23
2009/04/23 10:58:12.6    -168   -357      0    395    396 205.3   0.1  34202  290.27 0855.23
2009/04/23 10:58:12.7    -288   -401    -84    495    503 215.7  -9.7  34192  290.12 0855.23
2009/04/23 10:58:12.8    -209   -409   -111    460    474 207.1 -13.6  34192  290.13 0855.23
2009/04/23 10:58:12.9    -217   -399    -33    455    457 208.5  -4.2  34184  289.97 0855.23
2009/04/23 10:58:13.0    -249   -295    -21    387    388 220.2  -3.2  34180  289.91 0855.23
2009/04/23 10:58:13.1    -224   -199   -131    300    327 228.4 -29.5  34188  290.05 0855.23
2009/04/23 10:58:13.2    -146   -192   -183    242    303 217.2 -45.3  34170  289.73 0855.23
2009/04/23 10:58:13.3    -145   -173   -229    226    321 219.9 -54.8  34156  289.51 0855.23
2009/04/23 10:58:13.4    -265   -162   -146    311    343 238.5 -31.5  34156  289.52 0855.23
2009/04/23 10:58:13.5    -270   -287   -184    395    435 223.3 -31.0  34130  289.07 0855.23
2009/04/23 10:58:13.6    -278   -290   -122    402    420 223.8 -21.9  34132  289.09 0855.23
2009/04/23 10:58:13.7    -336   -315   -173    461    492 226.9 -26.0  34110  288.71 0855.23
2009/04/23 10:58:13.8    -264   -393   -164    474    501 213.9 -24.3  34122  288.93 0855.20
2009/04/23 10:58:13.9    -395   -337   -104    520    531 229.6 -11.3  34162  289.62 0855.20
2009/04/23 10:58:14.0    -303   -315   -164    438    467 223.9 -25.9  34128  289.04 0855.20
2009/04/23 10:58:14.1    -307   -230    -11    384    385 233.1  -1.7  34178  289.89 0855.20
2009/04/23 10:58:14.2    -227   -188    -99    296    313 230.4 -18.6  34158  289.53 0855.20
2009/04/23 10:58:14.3    -193   -213    -86    288    301 222.1 -16.8  34146  289.32 0855.20
2009/04/23 10:58:14.4     -91   -205     27    225    227 204.1   6.9  34134  289.14 0855.20
2009/04/23 10:58:14.5    -248   -301     36    391    393 219.5   5.3  34148  289.38 0855.20
2009/04/23 10:58:14.6    -192   -355     16    404    405 208.4   2.4  34162  289.60 0855.20
2009/04/23 10:58:14.7    -146   -382    -82    410    419 200.9 -11.3  34160  289.56 0855.20
2009/04/23 10:58:14.8    -197   -415    -59    460    464 205.5  -7.3  34142  289.26 0855.20
2009/04/23 10:58:14.9    -111   -446   -132    460    479 194.1 -16.0  34140  289.22 0855.20
2009/04/23 10:58:15.0       7   -370    -87    371    382 178.8 -13.3  34142  289.25 0855.20
2009/04/23 10:58:15.1     -43   -349   -106    352    368 187.1 -16.8  34126  289.01 0855.20
2009/04/23 10:58:15.2    -116   -375   -114    393    409 197.2 -21.0  34106  288.65 0855.20
2009/04/23 10:58:15.3     -78   -381   -137    390    414 191.7 -19.4  34096  288.50 0855.20
2009/04/23 10:58:15.4     -80   -380   -107    389    404 191.9 -15.4  34112  288.76 0855.20
2009/04/23 10:58:15.5     -50   -357     20    361    362 188.0   3.3  34138  289.21 0855.20
2009/04/23 10:58:15.6     -12   -347    106    348    364 182.0  17.0  34136  289.16 0855.20
2009/04/23 10:58:15.7      44   -317     98    321    336 172.0  17.0  34140  289.23 0855.20
2009/04/23 10:58:15.8      72   -360     71    368    375 168.7  11.0  34140  289.23 0855.15
2009/04/23 10:58:15.9      96   -352     92    365    377 164.7  14.2  34142  289.28 0855.15
2009/04/23 10:58:16.0      90   -296     35    310    313 163.1   6.5  34130  289.07 0855.15
2009/04/23 10:58:16.1     132   -255     34    288    291 152.6   6.9  34114  288.78 0855.15
2009/04/23 10:58:16.2     147   -255     60    295    302 150.1  11.6  34134  289.14 0855.15
2009/04/23 10:58:16.3     130   -239     53    273    279 151.5  11.0  34150  289.39 0855.15
2009/04/23 10:58:16.4      62   -283     14    290    291 167.5   2.8  34150  289.41 0855.15
2009/04/23 10:58:16.5      41   -319    -27    322    324 172.6  -4.8  34152  289.42 0855.15
2009/04/23 10:58:16.6      53   -284    -13    290    291 169.3  -2.6  34150  289.39 0855.15
2009/04/23 10:58:16.7      46   -341     10    345    346 172.3   1.7  34142  289.28 0855.15
2009/04/23 10:58:16.8      54   -360    -14    365    366 171.4  -2.2  34132  289.10 0855.15
2009/04/23 10:58:16.9      26   -314    -40    316    319 175.1  -7.3  34134  289.14 0855.15
2009/04/23 10:58:17.0      -4   -278     23    279    281 180.9   4.9  34136  289.17 0855.15
2009/04/23 10:58:17.1      33   -257     19    260    261 172.7   4.2  34136  289.15 0855.15
2009/04/23 10:58:17.2       9   -254     16    255    256 177.8   3.6  34134  289.12 0855.15
2009/04/23 10:58:17.3      17   -233      8    234    235 175.6   2.1  34128  289.02 0855.15
2009/04/23 10:58:17.4     -13   -244     12    245    246 183.1   2.9  34110  288.73 0855.15
2009/04/23 10:58:17.5     -41   -288    -19    292    293 188.2  -3.9  34122  288.93 0855.15
2009/04/23 10:58:17.6     -20   -265    -18    266    267 184.4  -3.9  34130  289.07 0855.15
2009/04/23 10:58:17.7     -44   -208    -35    213    216 192.0  -9.3  34124  288.96 0855.15
2009/04/23 10:58:17.8     -65   -208    -27    219    221 197.4  -7.2  34120  288.91 0855.16
2009/04/23 10:58:17.9     -72   -200    -58    213    221 200.0 -15.4  34098  288.52 0855.16
2009/04/23 10:58:18.0     -77   -164    -90    182    203 205.3 -32.9  34102  288.58 0855.16
2009/04/23 10:58:18.1     -68   -205    -77    217    231 198.5 -19.7  34104  288.64 0855.16
2009/04/23 10:58:18.2     -82   -189    -52    207    214 203.6 -14.3  34096  288.50 0855.16
2009/04/23 10:58:18.3     -22   -190    -16    192    193 186.7  -4.9  34102  288.60 0855.16
2009/04/23 10:58:18.4     -49   -189    -54    196    204 194.7 -15.5  34104  288.64 0855.16
2009/04/23 10:58:18.5     -22   -167    -48    169    175 187.8 -20.4  34110  288.72 0855.16
2009/04/23 10:58:18.6     -32   -187    -53    190    197 189.8 -20.0  34112  288.75 0855.16
2009/04/23 10:58:18.7       0   -233    -40    234    238 180.2  -9.8  34116  288.83 0855.16
2009/04/23 10:58:18.8     -25   -268    -36    270    273 185.3  -7.7  34118  288.85 0855.16
2009/04/23 10:58:18.9      34   -247    -55    250    257 172.0 -12.4  34116  288.83 0855.16
2009/04/23 10:58:19.0     -37   -231    -59    235    243 189.1 -14.3  34118  288.85 0855.16
2009/04/23 10:58:19.1     -62   -253    -94    261    277 193.8 -25.3  34120  288.88 0855.16
2009/04/23 10:58:19.2     -43   -254    -94    258    274 189.8 -25.4  34122  288.92 0855.16
2009/04/23 10:58:19.3     -13   -243    -83    244    259 183.1 -18.9  34120  288.90 0855.16
2009/04/23 10:58:19.4      16   -234    -76    235    247 176.0 -17.9  34118  288.87 0855.16
2009/04/23 10:58:19.5       7   -238    -68    239    249 178.2 -16.0  34118  288.87 0855.16
2009/04/23 10:58:19.6      -9   -209    -34    210    213 182.7  -9.4  34120  288.89 0855.16
2009/04/23 10:58:19.7      15   -201    -50    202    209 175.5 -13.9  34124  288.96 0855.16
2009/04/23 10:58:19.8       7   -179    -57    180    189 177.5 -17.6  34122  288.92 0855.18
2009/04/23 10:58:19.9     -11   -143    -40    144    150 184.4 -15.5  34122  288.92 0855.18
2009/04/23 10:58:20.0     -21   -148    -40    150    156 188.1 -15.0  34120  288.89 0855.18
2009/04/23 10:58:20.1     -10   -131    -38    132    137 184.4 -20.7  34114  288.79 0855.18
2009/04/23 10:58:20.2     -22   -128    -49    130    138 189.8 -25.9  34108  288.70 0855.18
2009/04/23 10:58:20.3     -44   -154    -49    161    168 196.0 -22.1  34108  288.69 0855.18
2009/04/23 10:58:20.4       0   -182    -60    183    192 180.0 -23.8  34106  288.67 0855.18
2009/04/23 10:58:20.5     -18   -187    -52    188    196 185.6 -15.5  34108  288.70 0855.18
2009/04/23 10:58:20.6     -31   -163    -21    167    169 190.9  -7.2  34106  288.65 0855.18
2009/04/23 10:58:20.7     -68   -138    -29    155    158 206.3 -10.9  34110  288.72 0855.18
2009/04/23 10:58:20.8     -40   -161     17    166    167 194.0   5.9  34104  288.62 0855.18
2009/04/23 10:58:20.9     -36   -134     21    139    141 195.2   8.9  34106  288.67 0855.18
2009/04/23 10:58:21.0     -12   -149     38    150    155 184.9  14.3  34114  288.80 0855.18
2009/04/23 10:58:21.1     -12   -154     40    155    161 184.5  14.5  34106  288.65 0855.18
2009/04/23 10:58:21.2     -12   -156     31    157    161 184.5  11.1  34106  288.67 0855.18
2009/04/23 10:58:21.3      10   -136     16    137    138 175.5   6.9  34108  288.69 0855.18
2009/04/23 10:58:21.4       3   -140     22    141    143 178.6   8.9  34104  288.62 0855.18
2009/04/23 10:58:21.5     -16   -148     41    149    155 186.3  15.6  34098  288.52 0855.18
2009/04/23 10:58:21.6     -17   -145     57    146    156 186.7  22.5  34102  288.58 0855.18
2009/04/23 10:58:21.7     -24   -135     64    138    152 190.2  27.1  34100  288.57 0855.18
2009/04/23 10:58:21.8     -11   -147     90    148    173 184.4  34.8  34110  288.72 0855.20
2009/04/23 10:58:21.9       9   -127     93    128    158 175.5  39.7  34114  288.80 0855.20
2009/04/23 10:58:22.0      -8   -114     58    115    128 184.5  28.7  34114  288.80 0855.20
2009/04/23 10:58:22.1       4   -102     57    103    117 177.8  31.4  34114  288.80 0855.20
2009/04/23 10:58:22.2     -21   -127     39    129    135 189.7  16.8  34108  288.69 0855.20
2009/04/23 10:58:22.3      -5   -142     28    143    146 182.2  11.1  34106  288.67 0855.20
2009/04/23 10:58:22.4       8   -133     21    134    136 176.4   9.0  34106  288.65 0855.20
2009/04/23 10:58:22.5      45    -98      4    109    110 155.1   2.3  34106  288.67 0855.20
2009/04/23 10:58:22.6      93    -76     37    121    127 129.1  17.3  34108  288.69 0855.20
2009/04/23 10:58:22.7      79    -94     33    123    128 139.9  15.2  34108  288.69 0855.20
2009/04/23 10:58:22.8      77   -130     81    152    172 149.3  30.1  34108  288.69 0855.20
2009/04/23 10:58:22.9     118   -137     84    181    199 139.2  26.6  34112  288.75 0855.20
2009/04/23 10:58:23.0     114   -123     62    169    180 137.2  20.7  34112  288.75 0855.20
2009/04/23 10:58:23.1     101   -122     56    159    168 140.3  20.0  34114  288.79 0855.20
2009/04/23 10:58:23.2     111   -111     91    158    182 134.9  32.7  34120  288.91 0855.20
2009/04/23 10:58:23.3      95   -142     28    172    175 146.2   9.3  34118  288.86 0855.20
2009/04/23 10:58:23.4     117   -113     37    163    168 134.0  12.9  34120  288.89 0855.20
2009/04/23 10:58:23.5     113   -152     30    190    193 143.5   9.0  34118  288.87 0855.20
2009/04/23 10:58:23.6     148   -161     83    219    234 137.5  21.5  34114  288.80 0855.20
2009/04/23 10:58:23.7     164   -124     58    206    215 127.1  15.8  34118  288.87 0855.20
2009/04/23 10:58:23.8     139   -167     39    218    222 140.3  10.3  34120  288.89 0855.22
2009/04/23 10:58:23.9     122   -191      0    227    228 147.4   0.2  34122  288.94 0855.22
2009/04/23 10:58:24.0     146   -154     25    213    215 136.7   6.7  34120  288.91 0855.22
2009/04/23 10:58:24.1     118   -129     21    176    178 137.5   6.9  34118  288.87 0855.22
2009/04/23 10:58:24.2      98   -140    -13    172    173 145.0  -4.6  34126  288.99 0855.22
2009/04/23 10:58:24.3      97   -160    -14    188    189 148.6  -4.4  34122  288.94 0855.22
2009/04/23 10:58:24.4     101   -146    -21    178    180 145.3  -6.9  34116  288.84 0855.22
2009/04/23 10:58:24.5      99   -135    -23    168    170 143.9  -8.0  34114  288.79 0855.22
2009/04/23 10:58:24.6      52   -164     19    173    175 162.4   6.5  34122  288.92 0855.22
2009/04/23 10:58:24.7      21   -181      8    183    184 173.3   2.8  34120  288.91 0855.22
2009/04/23 10:58:24.8      24   -185     19    187    188 172.4   5.9  34126  288.99 0855.22
2009/04/23 10:58:24.9     -15   -199     39    200    204 184.5  11.1  34128  289.02 0855.22
2009/04/23 10:58:25.0      28   -214     82    216    231 172.4  21.7  34128  289.02 0855.22
2009/04/23 10:58:25.1      44   -182     34    188    192 166.4  10.3  34124  288.96 0855.22
2009/04/23 10:58:25.2      66   -156      4    170    171 157.1   1.6  34122  288.94 0855.22
2009/04/23 10:58:25.3      84   -132     11    157    158 147.5   4.2  34120  288.91 0855.22
2009/04/23 10:58:25.4     108   -153     16    188    189 144.6   4.9  34122  288.92 0855.22
2009/04/23 10:58:25.5      65   -159    -39    172    177 157.7 -12.9  34120  288.89 0855.22
2009/04/23 10:58:25.6      80   -138    -30    160    163 149.9 -10.9  34126  288.99 0855.22
2009/04/23 10:58:25.7      63   -145    -22    159    161 156.3  -8.0  34120  288.89 0855.22
2009/04/23 10:58:25.8      94   -123    -17    155    156 142.6  -6.5  34114  288.80 0855.25
2009/04/23 10:58:25.9      96   -140     -7    170    171 145.5  -2.6  34122  288.94 0855.25
2009/04/23 10:58:26.0      83    -80     57    116    129 134.0  27.8  34124  288.96 0855.25
2009/04/23 10:58:26.1      85    -96     66    129    144 138.6  29.3  34128  289.02 0855.25
2009/04/23 10:58:26.2      96    -79     10    125    126 129.5   4.9  34124  288.96 0855.25
2009/04/23 10:58:26.3      51    -68     49     86     98 143.0  31.9  34136  289.16 0855.25
2009/04/23 10:58:26.4      47    -71     77     86    115 146.2  46.9  34132  289.09 0855.25
2009/04/23 10:58:26.5      67    -99     55    120    132 145.7  26.6  34128  289.02 0855.25
2009/04/23 10:58:26.6      87    -79     14    118    119 132.2   6.9  34126  289.01 0855.25
2009/04/23 10:58:26.7     113    -53      6    126    127 115.3   2.8  34126  288.99 0855.25
2009/04/23 10:58:26.8     110    -49      3    121    122 114.0   1.8  34128  289.02 0855.25
2009/04/23 10:58:26.9     112    -34     41    118    126 106.8  19.2  34138  289.19 0855.25
2009/04/23 10:58:27.0      96    -61     24    114    117 122.5  12.2  34134  289.13 0855.25
2009/04/23 10:58:27.1      79    -64     27    102    106 129.1  15.2  34124  288.97 0855.25
2009/04/23 10:58:27.2      80    -56     19     98    100 125.1  11.1  34122  288.94 0855.25
2009/04/23 10:58:27.3     107    -68     57    127    139 122.4  26.2  34122  288.92 0855.25
2009/04/23 10:58:27.4     105    -71     82    127    151 124.2  35.6  34114  288.79 0855.25
2009/04/23 10:58:27.5     115    -42     69    123    141 110.4  31.4  34112  288.77 0855.25
2009/04/23 10:58:27.6     104    -36     79    111    136 109.1  39.1  34114  288.80 0855.25
2009/04/23 10:58:27.7     122    -45     95    131    161 110.4  39.7  34116  288.84 0855.25
2009/04/23 10:58:27.8     112    -62     99    129    162 118.9  41.4  34122  288.94 0855.26
2009/04/23 10:58:27.9      90    -87    102    126    162 134.0  43.3  34118  288.87 0855.26
2009/04/23 10:58:28.0      63   -106    112    124    167 149.3  46.9  34128  289.02 0855.26
2009/04/23 10:58:28.1      78   -104    102    131    166 143.0  42.0  34124  288.97 0855.26
2009/04/23 10:58:28.2      81    -78     85    113    141 134.0  40.7  34126  289.01 0855.26
2009/04/23 10:58:28.3      66    -77     83    102    131 139.5  43.7  34126  289.01 0855.26
2009/04/23 10:58:28.4     100    -88     59    134    146 131.3  25.1  34124  288.97 0855.26
2009/04/23 10:58:28.5     120    -71     27    140    143 120.7  11.0  34120  288.89 0855.26
2009/04/23 10:58:28.6     115    -84      7    143    144 126.4   2.8  34116  288.84 0855.26
2009/04/23 10:58:28.7     100    -92      6    137    138 132.7   2.9  34116  288.84 0855.26
2009/04/23 10:58:28.8      62    -97     38    116    123 147.4  18.4  34118  288.87 0855.26
2009/04/23 10:58:28.9      59    -92     49    110    120 147.5  25.2  34122  288.92 0855.26
2009/04/23 10:58:29.0      64    -70     41     96    104 137.7  23.6  34120  288.89 0855.26
2009/04/23 10:58:29.1      60    -95     45    113    121 147.5  23.0  34124  288.96 0855.26
2009/04/23 10:58:29.2      51   -118     60    129    142 156.4  27.1  34130  289.08 0855.26
2009/04/23 10:58:29.4      50   -151     81    160    179 161.7  28.7  34134  289.14 0855.26
2009/04/23 10:58:29.5      57   -184     95    193    215 162.6  28.0  34128  289.02 0855.26
2009/04/23 10:58:29.5     128   -178    105    220    243 144.4  27.3  34136  289.17 0855.26
2009/04/23 10:58:29.7     128   -165     57    210    218 142.2  15.3  34134  289.14 0855.26
2009/04/23 10:58:29.8     149   -183     67    237    247 140.8  15.8  34134  289.12 0855.26
2009/04/23 10:58:29.9     126   -231     72    264    274 151.3  15.3  34126  288.98 0855.27
2009/04/23 10:58:30.0      98   -219     93    240    257 155.9  22.3  34122  288.93 0855.27
2009/04/23 10:58:30.1     109   -189     96    219    239 150.1  25.1  34124  288.97 0855.27
2009/04/23 10:58:30.2     132   -217     64    255    263 148.6  14.2  34124  288.97 0855.27
2009/04/23 10:58:30.3     116   -200     78    232    245 149.9  18.6  34126  288.98 0855.27
2009/04/23 10:58:30.4      88   -195     66    215    225 155.7  17.1  34126  288.99 0855.27
2009/04/23 10:58:30.5      42   -173     34    179    183 166.2  10.8  34134  289.14 0855.27
2009/04/23 10:58:30.6      50   -178     26    186    188 164.2   8.0  34138  289.21 0855.27
2009/04/23 10:58:30.7      41   -177     22    182    184 166.9   7.1  34140  289.24 0855.27
2009/04/23 10:58:30.8      41   -159      8    165    166 165.3   2.8  34134  289.13 0855.27
2009/04/23 10:58:30.9      59   -168     -3    179    180 160.6  -1.3  34134  289.13 0855.27
2009/04/23 10:58:31.0      41   -164     -9    170    171 165.7  -3.1  34132  289.09 0855.27
2009/04/23 10:58:31.1      37   -164     -6    169    170 167.1  -2.2  34134  289.14 0855.27
2009/04/23 10:58:31.2      12   -165     31    166    170 175.5  10.8  34128  289.04 0855.27
2009/04/23 10:58:31.3      43   -255    -14    259    260 170.4  -3.3  34126  289.00 0855.27
2009/04/23 10:58:31.4      30   -243    -13    245    246 172.9  -3.1  34128  289.02 0855.27
2009/04/23 10:58:31.5      25   -230    -21    232    234 173.8  -5.4  34124  288.97 0855.27
2009/04/23 10:58:31.6      35   -203    -42    207    212 170.2 -11.6  34124  288.96 0855.27
2009/04/23 10:58:31.7      38   -205    -31    209    212 169.3  -8.6  34128  289.04 0855.27
2009/04/23 10:58:31.8      46   -167    -35    174    178 164.6 -11.5  34136  289.18 0855.27
2009/04/23 10:58:31.9      18   -138    -21    140    142 172.4  -8.8  34138  289.19 0855.25
2009/04/23 10:58:32.0     -50   -140     -8    149    150 200.0  -3.1  34148  289.38 0855.25
2009/04/23 10:58:32.1     -47   -118    -10    128    129 201.8  -4.6  34150  289.41 0855.25
2009/04/23 10:58:32.2     -43   -108     -4    117    118 201.8  -2.2  34152  289.43 0855.25
2009/04/23 10:58:32.3     -39   -119     24    126    129 198.3  11.0  34154  289.46 0855.25
2009/04/23 10:58:32.4     -58   -123     59    137    149 205.4  25.1  34158  289.53 0855.25
2009/04/23 10:58:32.5     -30   -149     25    153    156 191.6   9.3  34160  289.58 0855.25
2009/04/23 10:58:32.6     -18   -119     19    121    123 188.9   8.9  34148  289.38 0855.25
2009/04/23 10:58:32.7     -57   -135     74    147    164 203.2  28.7  34144  289.31 0855.25
2009/04/23 10:58:32.8     -79   -141     20    162    164 209.2   7.2  34144  289.30 0855.25
2009/04/23 10:58:32.9     -77   -121     -7    144    145 212.5  -3.1  34142  289.28 0855.28
2009/04/23 10:58:33.0     -63    -99    -33    118    122 212.5 -20.2  34150  289.40 0855.28
2009/04/23 10:58:33.1     -41   -154    -52    160    168 195.1 -23.3  34142  289.28 0855.28
2009/04/23 10:58:33.2     -16   -169    -15    170    171 185.6  -5.2  34128  289.02 0855.28
2009/04/23 10:58:33.3     -21   -157    -18    159    161 187.8  -6.7  34126  288.99 0855.28
2009/04/23 10:58:33.4     -18   -144     -8    146    147 187.1  -3.1  34124  288.96 0855.28
2009/04/23 10:58:33.5     -38   -174     42    179    184 192.5  13.2  34130  289.06 0855.28
2009/04/23 10:58:33.6     -25   -188     68    190    201 187.8  20.7  34128  289.04 0855.28
2009/04/23 10:58:33.7     -34   -170     57    174    184 191.6  18.1  34124  288.97 0855.28
2009/04/23 10:58:33.8     -13   -189     -7    190    191 184.0  -2.2  34120  288.91 0855.28
2009/04/23 10:58:33.9      -3   -182     26    183    185 181.1   8.2  34122  288.94 0855.28
2009/04/23 10:58:34.0       0   -186     89    187    207 179.8  27.2  34142  289.28 0855.28
2009/04/23 10:58:34.1      26   -236    111    238    262 173.7  26.6  34134  289.14 0855.28
2009/04/23 10:58:34.2      75   -234     55    246    253 162.2  12.6  34134  289.12 0855.28
2009/04/23 10:58:34.3      74   -197     26    211    213 159.3   7.1  34124  288.96 0855.28
2009/04/23 10:58:34.4      74   -176     15    192    193 157.1   4.6  34128  289.04 0855.28
2009/04/23 10:58:34.5       9   -191      0    192    193 177.1  -0.3  34132  289.11 0855.28
2009/04/23 10:58:34.6      26   -217     39    219    223 173.1  10.1  34132  289.09 0855.28
2009/04/23 10:58:34.7      62   -215     79    224    237 163.7  20.2  34128  289.03 0855.28
2009/04/23 10:58:34.8     142   -177     80    228    241 141.3  20.0  34132  289.09 0855.28
2009/04/23 10:58:34.9     120   -201     75    235    247 149.3  17.7  34154  289.46 0855.27
2009/04/23 10:58:35.0      92   -191     68    213    224 154.1  17.9  34154  289.48 0855.27
2009/04/23 10:58:35.1      85   -186     79    205    219 155.3  22.3  34152  289.45 0855.27
2009/04/23 10:58:35.2      63   -188     70    199    211 161.5  19.4  34154  289.48 0855.27
2009/04/23 10:58:35.3      33   -171     61    175    186 168.9  19.2  34148  289.38 0855.27
2009/04/23 10:58:35.4      33   -194    116    197    228 170.2  33.4  34152  289.43 0855.27
2009/04/23 10:58:35.5      40   -200    120    204    236 168.7  33.4  34152  289.45 0855.27
2009/04/23 10:58:35.6      48   -219    139    225    264 167.5  35.0  34160  289.58 0855.27
2009/04/23 10:58:35.7      12   -269    149    270    308 177.3  31.4  34150  289.41 0855.27
2009/04/23 10:58:35.8      85   -230    130    246    278 159.7  30.2  34154  289.46 0855.27
2009/04/23 10:58:35.9      28   -163    155    166    227 170.2  47.9  34188  290.06 0855.27
2009/04/23 10:58:36.0      44    -14    147     47    154 108.2  80.7  34210  290.43 0855.27
2009/04/23 10:58:36.1       0    -19    109     20    110 180.9  90.0  34218  290.57 0855.27
2009/04/23 10:58:36.2      55   -129    114    141    181 156.8  43.3  34162  289.60 0855.27
2009/04/23 10:58:36.3      19    -64    124     67    140 163.1  68.9  34176  289.84 0855.27
2009/04/23 10:58:36.4     -12    -57     92     59    109 192.5  64.6  34178  289.89 0855.27
2009/04/23 10:58:36.5      34    -53     91     64    111 147.5  61.5  34172  289.79 0855.27
2009/04/23 10:58:36.6     -10    -52     74     54     91 191.5  60.0  34178  289.89 0855.27
2009/04/23 10:58:36.7      63   -100     94    119    151 147.5  42.7  34166  289.67 0855.27
2009/04/23 10:58:36.8      97   -116     90    152    176 139.9  33.1  34156  289.50 0855.27
2009/04/23 10:58:36.9     112   -136    121    177    214 140.4  37.6  34156  289.50 0855.26
2009/04/23 10:58:37.0     156   -156    124    221    253 135.0  31.9  34158  289.53 0855.26
2009/04/23 10:58:37.1     160   -119    126    200    236 126.6  35.5  34176  289.85 0855.26
2009/04/23 10:58:37.2     134   -117    123    179    217 131.1  37.8  34166  289.67 0855.26
2009/04/23 10:58:37.3     115   -169    166    205    263 145.7  43.5  34164  289.63 0855.26
2009/04/23 10:58:37.4      32    -68    129     76    149 154.5  66.8  34166  289.69 0855.26
2009/04/23 10:58:37.5      62      3     99     63    117  86.5  64.7  34162  289.62 0855.26
2009/04/23 10:58:37.6      86   -134    135    160    209 147.4  44.3  34160  289.58 0855.26
2009/04/23 10:58:37.7      16   -101    150    103    181 170.7  62.4  34158  289.55 0855.26
2009/04/23 10:58:37.8     -20   -143    184    145    234 188.0  57.9  34160  289.57 0855.26
2009/04/23 10:58:37.9       5   -123    158    124    200 177.3  57.9  34160  289.58 0855.26
2009/04/23 10:58:38.0       4    -57    108     58    122 175.5  69.3  34168  289.72 0855.26
2009/04/23 10:58:38.1      15   -176    117    177    212 174.9  36.3  34158  289.53 0855.26
2009/04/23 10:58:38.2      12   -206     76    207    220 176.6  20.9  34156  289.52 0855.26
2009/04/23 10:58:38.3      73   -144    107    162    194 152.9  36.0  34156  289.52 0855.26
2009/04/23 10:58:38.4      63   -167     80    179    196 159.1  25.3  34154  289.48 0855.26
2009/04/23 10:58:38.5       7   -130    100    131    164 176.9  41.2  34160  289.58 0855.26
2009/04/23 10:58:38.6      11   -151     80    152    171 175.5  29.8  34162  289.62 0855.26
2009/04/23 10:58:38.7     -21   -155    101    157    186 188.0  35.6  34162  289.60 0855.26
2009/04/23 10:58:38.8      -8   -133    105    134    170 183.6  42.2  34160  289.58 0855.26
2009/04/23 10:58:38.9     -17   -118    104    120    158 188.5  45.4  34154  289.46 0855.25
2009/04/23 10:58:39.0     -15   -128    135    129    186 187.1  51.4  34152  289.45 0855.25
2009/04/23 10:58:39.1     -12   -143    140    144    200 184.9  49.4  34158  289.53 0855.25
2009/04/23 10:58:39.2     -19   -197    102    198    222 185.6  29.3  34150  289.41 0855.25
2009/04/23 10:58:39.3     -35   -207    127    211    246 189.8  34.0  34150  289.41 0855.25
2009/04/23 10:58:39.4     -72   -218    109    230    254 198.3  27.2  34150  289.41 0855.25
2009/04/23 10:58:39.5     -44   -212    105    217    241 191.8  27.8  34152  289.44 0855.25
2009/04/23 10:58:39.6     -56   -212    110    220    245 194.9  28.2  34152  289.44 0855.25
2009/04/23 10:58:39.7     -75   -209     89    223    240 199.8  23.0  34152  289.42 0855.25
2009/04/23 10:58:39.8     -82   -174     67    193    205 205.4  19.2  34154  289.46 0855.25
2009/04/23 10:58:39.9     -35   -136     77    141    160 194.7  31.0  34152  289.45 0855.25
2009/04/23 10:58:40.0     -25   -165     84    167    186 188.7  28.2  34152  289.45 0855.25
2009/04/23 10:58:40.1       2   -134     64    135    149 179.1  27.2  34158  289.53 0855.25
2009/04/23 10:58:40.2     -14   -114     86    115    143 187.1  40.1  34164  289.65 0855.25
2009/04/23 10:58:40.3       8   -108     57    109    123 175.5  29.3  34162  289.62 0855.25
2009/04/23 10:58:40.4     -24   -118      6    121    122 191.5   2.9  34158  289.53 0855.25
2009/04/23 10:58:40.5     -46   -139     17    147    149 198.3   6.9  34158  289.53 0855.25
2009/04/23 10:58:40.6     -50   -158     20    166    168 197.8   6.9  34154  289.48 0855.25
2009/04/23 10:58:40.7     -58   -154     35    165    169 200.7  12.2  34158  289.55 0855.25
2009/04/23 10:58:40.8     -61   -119     46    134    142 207.1  19.2  34156  289.52 0855.25
2009/04/23 10:58:40.9      31    -92     43     98    107 161.3  24.6  34160  289.57 0855.24
2009/04/23 10:58:41.0      55   -125     53    137    146 156.3  22.0  34162  289.62 0855.24
2009/04/23 10:58:41.1      58   -119     11    133    134 153.7   4.9  34160  289.58 0855.24
2009/04/23 10:58:41.2      77   -125     -5    147    148 148.4  -2.2  34164  289.65 0855.24
2009/04/23 10:58:41.3      43   -131     -7    139    140 161.7  -3.1  34164  289.65 0855.24
2009/04/23 10:58:41.4      48   -113     29    124    128 156.8  13.2  34168  289.70 0855.24
2009/04/23 10:58:41.5      12   -124      5    125    126 174.2   2.3  34170  289.74 0855.24
2009/04/23 10:58:41.6     -39   -140    -33    146    150 195.6 -12.9  34170  289.75 0855.24
2009/04/23 10:58:41.7     -41   -107     -6    115    116 201.4  -3.2  34170  289.74 0855.24
2009/04/23 10:58:41.8     -20   -182     26    184    186 186.5   8.2  34168  289.72 0855.24
2009/04/23 10:58:41.9     -11   -142     60    143    155 184.5  23.6  34170  289.75 0855.24
2009/04/23 10:58:42.0      14   -136     56    137    148 173.8  23.1  34172  289.77 0855.24
2009/04/23 10:58:42.1      24    -82     49     86     98 163.5  31.9  34174  289.82 0855.24
2009/04/23 10:58:42.2     -22   -133   -118    135    179 189.8 -50.0  34168  289.72 0855.24
2009/04/23 10:58:42.3     -56   -169    -73    179    193 198.3 -27.5  34164  289.63 0855.24
2009/04/23 10:58:42.4     -65   -178    -32    190    193 200.3  -9.6  34162  289.60 0855.24
2009/04/23 10:58:42.5      -6   -217     23    218    220 181.6   6.1  34164  289.63 0855.24
2009/04/23 10:58:42.6     -83   -243    -39    257    261 198.9  -8.8  34170  289.75 0855.24
2009/04/23 10:58:42.7    -142   -161    -39    215    219 221.4 -10.5  34168  289.70 0855.24
2009/04/23 10:58:42.8    -125   -133    -72    183    196 223.2 -27.2  34170  289.74 0855.24
2009/04/23 10:58:42.9    -160   -130   -104    207    231 230.9 -32.9  34174  289.80 0855.23
2009/04/23 10:58:43.0    -190    -55    -89    198    217 253.8 -30.1  34174  289.82 0855.23
2009/04/23 10:58:43.1    -197    -51   -129    204    241 255.4 -39.9  34188  290.04 0855.23
2009/04/23 10:58:43.2    -211    -71   -104    223    246 251.4 -31.4  34188  290.03 0855.23
2009/04/23 10:58:43.3    -250    -69   -131    260    291 254.5 -33.1  34196  290.19 0855.23
2009/04/23 10:58:43.4    -228     -6    -96    229    248 268.3 -28.5  34208  290.37 0855.23
2009/04/23 10:58:43.5    -219    -62    -91    228    245 254.1 -27.4  34196  290.19 0855.23
2009/04/23 10:58:43.6    -182   -102   -113    209    237 240.7 -35.2  34162  289.62 0855.23
2009/04/23 10:58:43.7    -155    -77   -118    174    210 243.6 -41.8  34150  289.41 0855.23
2009/04/23 10:58:43.8    -185   -106   -106    214    238 240.2 -32.6  34156  289.50 0855.23
2009/04/23 10:58:43.9    -220    -95    -68    240    249 246.5 -20.7  34156  289.49 0855.23
2009/04/23 10:58:44.0    -186    -87   -100    206    228 244.8 -31.8  34146  289.33 0855.23
2009/04/23 10:58:44.1    -163    -27   -102    166    194 260.3 -39.4  34148  289.38 0855.23
2009/04/23 10:58:44.2    -185    -52    -89    193    212 254.1 -31.0  34160  289.57 0855.23
2009/04/23 10:58:44.3    -271     20   -225    272    353 274.4 -48.1  34140  289.23 0855.23
2009/04/23 10:58:44.4    -314     13   -163    315    354 272.5 -33.8  34142  289.28 0855.23
2009/04/23 10:58:44.5    -301      5   -195    302    359 271.0 -40.1  34162  289.62 0855.23
2009/04/23 10:58:44.6    -304     30   -167    306    348 275.7 -35.4  34160  289.57 0855.23
2009/04/23 10:58:44.7    -235     11   -136    236    272 272.8 -37.1  34166  289.66 0855.23
2009/04/23 10:58:44.8    -318    -71   -103    326    342 257.3 -17.6  34154  289.48 0855.23
2009/04/23 10:58:44.9    -209    -39    -59    213    222 259.2 -15.5  34166  289.69 0855.21
2009/04/23 10:58:45.0    -159    -46    -70    166    180 253.6 -28.5  34154  289.48 0855.21
2009/04/23 10:58:45.1    -174     71    -39    188    193 292.2 -11.9  34164  289.63 0855.21
2009/04/23 10:58:45.2    -222    131    -59    259    266 300.6 -12.9  34170  289.75 0855.21
2009/04/23 10:58:45.3    -251    100   -108    271    291 291.8 -27.4  34146  289.32 0855.21
2009/04/23 10:58:45.4    -204     86   -170    222    279 292.8 -46.0  34144  289.31 0855.21
2009/04/23 10:58:45.5    -100     58   -127    116    172 300.2 -57.4  34154  289.46 0855.21
2009/04/23 10:58:45.6      20     98   -124    101    159  11.6 -61.3  34160  289.58 0855.21
2009/04/23 10:58:45.7      20     63    -83     67    106  17.8 -60.8  34170  289.74 0855.21
2009/04/23 10:58:45.8      -4     44    -33     45     55 353.8 -44.1  34170  289.75 0855.21
2009/04/23 10:58:45.9     -37     34      0     51     52 312.2  -0.3  34168  289.70 0855.21
2009/04/23 10:58:46.0    -158    -77    -60    176    185 244.0 -23.3  34164  289.63 0855.21
2009/04/23 10:58:46.1    -266   -136   -124    299    323 242.9 -28.2  34156  289.49 0855.21
2009/04/23 10:58:46.2    -281   -101   -185    299    351 250.1 -39.2  34142  289.28 0855.21
2009/04/23 10:58:46.3    -249    -97   -200    268    334 248.7 -45.0  34150  289.39 0855.21
2009/04/23 10:58:46.4    -238     25   -127    240    271 276.2 -34.7  34164  289.63 0855.21
2009/04/23 10:58:46.5    -306     22   -215    307    374 274.3 -42.9  34150  289.40 0855.21
2009/04/23 10:58:46.6    -241    -26   -193    243    310 263.6 -47.1  34148  289.37 0855.21
2009/04/23 10:58:46.7    -209     37   -111    213    240 280.1 -34.2  34152  289.43 0855.21
2009/04/23 10:58:46.8    -192    -16    -46    193    199 265.0 -13.4  34168  289.72 0855.21
2009/04/23 10:58:46.9    -209   -133    -60    249    257 237.5 -13.7  34150  289.41 0855.20
2009/04/23 10:58:47.0    -186   -121    -20    223    224 236.9  -5.2  34140  289.23 0855.20
2009/04/23 10:58:47.1    -250    -82    -73    264    274 251.8 -15.5  34138  289.19 0855.20
2009/04/23 10:58:47.2    -302    -88    -95    315    330 253.7 -16.8  34154  289.46 0855.20
2009/04/23 10:58:47.3    -244   -101   -109    265    286 247.4 -28.0  34152  289.42 0855.20
2009/04/23 10:58:47.4    -182    -82    -93    200    220 245.6 -31.4  34172  289.77 0855.20
2009/04/23 10:58:47.5    -160     19   -143    162    216 277.0 -50.3  34140  289.24 0855.20
2009/04/23 10:58:47.6    -119     -5   -108    120    161 267.4 -51.3  34126  288.99 0855.20
2009/04/23 10:58:47.7    -213   -140    -88    255    269 236.7 -23.8  34150  289.39 0855.20
2009/04/23 10:58:47.8    -275    -83   -138    288    319 253.2 -31.8  34154  289.46 0855.20
2009/04/23 10:58:47.9    -269   -136    -99    302    317 243.1 -23.3  34152  289.44 0855.20
2009/04/23 10:58:48.0    -306    -24   -143    308    339 265.4 -31.0  34138  289.21 0855.20
2009/04/23 10:58:48.1    -226    -61   -135    235    271 254.9 -36.8  34144  289.31 0855.20
2009/04/23 10:58:48.2    -300      7   -147    301    334 271.5 -32.3  34134  289.14 0855.20
2009/04/23 10:58:48.3    -231    -32   -143    234    274 262.1 -38.8  34128  289.03 0855.20
2009/04/23 10:58:48.4    -269    -40   -238    273    362 261.4 -50.0  34130  289.08 0855.20
2009/04/23 10:58:48.5    -355    -49   -206    359    413 262.1 -36.8  34138  289.20 0855.20
2009/04/23 10:58:48.6    -317    -24   -201    318    376 265.6 -39.9  34142  289.25 0855.20
2009/04/23 10:58:48.7    -364    -54   -210    369    424 261.5 -36.7  34144  289.29 0855.20
2009/04/23 10:58:48.8    -361    -74   -183    369    411 258.3 -32.6  34148  289.38 0855.20
2009/04/23 10:58:48.9    -330   -193   -190    383    427 239.6 -32.6  34170  289.73 0855.19
2009/04/23 10:58:49.0    -339   -213   -138    401    424 237.9 -23.9  34170  289.73 0855.19
2009/04/23 10:58:49.1    -244   -142    -78    283    294 239.8 -15.4  34184  289.97 0855.19
2009/04/23 10:58:49.2    -237   -139    -54    275    281 239.6 -11.1  34172  289.78 0855.19
2009/04/23 10:58:49.3    -280   -144    -33    316    318 242.7  -6.0  34186  290.00 0855.19
2009/04/23 10:58:49.4    -182   -183    -51    259    265 224.9 -11.1  34184  289.97 0855.19
2009/04/23 10:58:49.5    -212   -138   -100    254    272 236.9 -27.2  34154  289.47 0855.19
2009/04/23 10:58:49.6    -308   -154   -141    345    372 243.4 -27.8  34182  289.96 0855.19
2009/04/23 10:58:49.7    -317   -179   -107    365    380 240.6 -21.4  34178  289.86 0855.19
2009/04/23 10:58:49.8    -290   -159    -84    331    342 241.2 -14.3  34148  289.37 0855.19
2009/04/23 10:58:49.9    -220   -142    -92    262    277 237.1 -24.6  34138  289.19 0855.19
2009/04/23 10:58:50.0    -221    -95   -135    241    276 246.7 -36.0  34140  289.24 0855.19
2009/04/23 10:58:50.1    -272   -113   -142    295    327 247.4 -31.8  34138  289.19 0855.19
2009/04/23 10:58:50.2    -269    -82   -146    282    317 253.1 -33.9  34134  289.14 0855.19
2009/04/23 10:58:50.3    -244   -102   -158    265    308 247.2 -37.9  34140  289.22 0855.19
2009/04/23 10:58:50.4    -279    -70   -173    288    335 255.8 -38.2  34142  289.25 0855.19
2009/04/23 10:58:50.5    -300    -75   -158    310    347 255.8 -33.5  34138  289.21 0855.19
2009/04/23 10:58:50.6    -270    -69   -149    279    316 255.6 -34.9  34142  289.27 0855.19
2009/04/23 10:58:50.7    -235    -82   -168    250    301 250.7 -41.7  34150  289.39 0855.19
2009/04/23 10:58:50.8    -217    -97   -141    238    276 245.8 -37.9  34146  289.34 0855.19
2009/04/23 10:58:50.9    -112    -76   -129    136    187 235.8 -52.6  34146  289.33 0855.19
2009/04/23 10:58:51.0    -105    -98   -109    144    180 226.9 -45.3  34146  289.33 0855.19
2009/04/23 10:58:51.1    -173    -88    -82    195    211 242.9 -28.5  34160  289.57 0855.19
2009/04/23 10:58:51.2    -170    -94    -74    195    208 240.9 -25.9  34168  289.70 0855.19
2009/04/23 10:58:51.3    -131   -106    -49    169    175 230.9 -21.0  34182  289.96 0855.19
2009/04/23 10:58:51.4    -163    -77    -34    181    185 244.8 -10.9  34172  289.79 0855.19
2009/04/23 10:58:51.5    -189    -45    -78    195    210 256.5 -27.4  34152  289.45 0855.19
2009/04/23 10:58:51.6    -198     -2   -102    199    223 269.2 -33.7  34150  289.40 0855.19
2009/04/23 10:58:51.7    -147   -154    -35    214    217 223.7  -9.3  34170  289.75 0855.19
2009/04/23 10:58:51.8    -162    -83   -116    183    216 242.9 -39.9  34166  289.69 0855.19
2009/04/23 10:58:51.9    -134    -32    -68    138    153 256.3 -32.2  34162  289.62 0855.19
2009/04/23 10:58:52.0    -177     28   -112    180    212 279.0 -39.9  34168  289.70 0855.19
2009/04/23 10:58:52.1    -119     30   -143    123    188 284.2 -59.8  34156  289.50 0855.19
2009/04/23 10:58:52.2    -115    -81   -106    141    176 234.9 -45.1  34166  289.67 0855.19
2009/04/23 10:58:52.3    -120     -9   -136    121    182 265.7 -58.1  34178  289.87 0855.19
2009/04/23 10:58:52.4    -207      9   -164    208    264 272.5 -47.1  34168  289.70 0855.19
2009/04/23 10:58:52.5    -187     19   -142    188    235 275.9 -45.3  34158  289.55 0855.19
2009/04/23 10:58:52.6    -216     21   -146    218    262 275.7 -41.1  34156  289.51 0855.19
2009/04/23 10:58:52.7    -140    -50   -119    149    190 250.1 -47.7  34168  289.70 0855.19
2009/04/23 10:58:52.8    -178    -49   -144    185    234 254.5 -46.1  34174  289.82 0855.19
2009/04/23 10:58:52.9    -111    -52   -181    123    218 244.8 -67.0  34176  289.84 0855.18
2009/04/23 10:58:53.0    -146    -93   -177    174    248 237.6 -54.8  34162  289.62 0855.18
2009/04/23 10:58:53.1    -168   -116   -153    205    255 235.4 -45.0  34174  289.81 0855.18
2009/04/23 10:58:53.2    -210   -142   -179    254    310 235.8 -43.0  34168  289.70 0855.18
2009/04/23 10:58:53.3    -143   -139   -163    200    258 226.0 -47.9  34170  289.75 0855.18
2009/04/23 10:58:53.4    -173   -125   -137    214    254 234.0 -40.0  34182  289.95 0855.18
2009/04/23 10:58:53.5    -168   -307    -82    351    361 208.7 -13.3  34178  289.87 0855.18
2009/04/23 10:58:53.6     -63   -312    -85    319    331 191.6 -15.0  34170  289.73 0855.18
2009/04/23 10:58:53.7     -83   -275    -79    288    299 196.9 -15.5  34180  289.90 0855.18
2009/04/23 10:58:53.8    -100   -275    -84    293    305 200.1 -16.0  34184  289.97 0855.18
2009/04/23 10:58:53.9    -129   -365   -139    388    413 199.6 -19.7  34152  289.44 0855.16
2009/04/23 10:58:54.0     -79   -325   -117    335    355 193.8 -19.3  34162  289.62 0855.16
2009/04/23 10:58:54.1     -50   -311     23    316    317 189.1   4.3  34160  289.56 0855.16
2009/04/23 10:58:54.2     -32   -344     33    346    348 185.3   5.5  34158  289.55 0855.16
2009/04/23 10:58:54.3     -20   -400     56    401    406 182.9   8.0  34162  289.60 0855.16
2009/04/23 10:58:54.4     -10   -363    -32    364    366 181.7  -5.1  34188  290.04 0855.16
2009/04/23 10:58:54.5     -46   -401     52    404    408 186.6   7.4  34162  289.60 0855.16
2009/04/23 10:58:54.6     -78   -385     69    393    400 191.5  10.0  34162  289.62 0855.16
2009/04/23 10:58:54.7     -70   -336     88    344    356 191.8  14.4  34158  289.54 0855.16
2009/04/23 10:58:54.8    -121   -342     51    363    367 199.5   8.1  34154  289.48 0855.16
2009/04/23 10:58:54.9    -140   -339     41    367    370 202.5   6.5  34156  289.50 0855.16
2009/04/23 10:58:55.0    -159   -321     63    359    365 206.4  10.0  34148  289.38 0855.16
2009/04/23 10:58:55.1    -151   -325     78    359    368 204.9  12.3  34152  289.43 0855.16
2009/04/23 10:58:55.2    -125   -264     80    293    304 205.3  15.3  34150  289.41 0855.16
2009/04/23 10:58:55.4     -37   -264    125    267    294 188.0  27.1  34156  289.51 0855.16
2009/04/23 10:58:55.4     -38   -187    118    191    224 191.6  35.0  34162  289.60 0855.16
2009/04/23 10:58:55.6     -57   -128     67    141    156 204.1  27.2  34158  289.55 0855.16
2009/04/23 10:58:55.6     -55    -45    110     72    131 230.5  64.1  34168  289.70 0855.16
2009/04/23 10:58:55.8     -66    -58    107     88    138 228.7  56.4  34174  289.80 0855.16
2009/04/23 10:58:55.9     -65    -69     96     96    135 223.2  50.1  34164  289.63 0855.16
2009/04/23 10:58:55.9    -162   -172    184    237    300 223.2  41.7  34158  289.53 0855.16
2009/04/23 10:58:56.0    -181   -191    160    264    308 223.4  34.2  34170  289.75 0855.16
2009/04/23 10:58:56.2    -193    -72    148    207    254 249.4  39.1  34190  290.07 0855.16
2009/04/23 10:58:56.3    -330    -73    -26    339    341 257.5  -4.5  34218  290.54 0855.16
2009/04/23 10:58:56.4    -355    -91    -43    367    370 255.6  -6.8  34220  290.60 0855.16
2009/04/23 10:58:56.5    -393    -96    -24    405    406 256.2  -3.5  34218  290.56 0855.16
2009/04/23 10:58:56.6    -373    -74    -40    381    384 258.8  -6.1  34232  290.81 0855.16
2009/04/23 10:58:56.7    -348   -105    -51    364    368 253.2  -8.0  34210  290.43 0855.16
2009/04/23 10:58:56.8    -317   -146    -55    350    355 245.3  -9.0  34218  290.54 0855.16
2009/04/23 10:58:56.9    -364    -96   -140    377    402 255.2 -25.8  34196  290.18 0855.16
2009/04/23 10:58:57.0    -324    -67   -117    332    352 258.2 -24.5  34212  290.47 0855.16
2009/04/23 10:58:57.1    -327    -73   -112    336    354 257.3 -23.6  34208  290.40 0855.16
2009/04/23 10:58:57.2    -294    -93   -124    309    332 252.3 -27.4  34224  290.65 0855.16
2009/04/23 10:58:57.3    -325    -45    -92    329    341 262.0 -20.2  34198  290.23 0855.16
2009/04/23 10:58:57.4    -311    -42   -112    314    334 262.3 -19.7  34200  290.26 0855.16
2009/04/23 10:58:57.5    -317    -63   -126    324    347 258.8 -26.8  34228  290.74 0855.16
2009/04/23 10:58:57.6    -326     21   -101    327    342 273.7 -22.3  34198  290.21 0855.16
2009/04/23 10:58:57.7    -363     -5   -145    364    391 269.2 -27.4  34214  290.49 0855.16
2009/04/23 10:58:57.8    -370      5   -179    371    411 270.8 -32.1  34208  290.37 0855.16
2009/04/23 10:58:57.9    -305     23    -94    306    320 274.4 -22.2  34180  289.90 0855.16
2009/04/23 10:58:58.0    -315     56   -151    320    353 280.1 -31.5  34164  289.65 0855.15
2009/04/23 10:58:58.1    -359     19   -121    360    380 273.2 -18.6  34172  289.76 0855.15
2009/04/23 10:58:58.2    -371     54   -104    375    389 278.4 -20.1  34168  289.71 0855.15
2009/04/23 10:58:58.3    -312     84   -112    324    342 285.1 -23.9  34166  289.69 0855.15
2009/04/23 10:58:58.4    -340    115    -91    360    372 288.7 -14.3  34172  289.76 0855.15
2009/04/23 10:58:58.5    -364     85   -164    374    408 283.2 -29.6  34172  289.77 0855.15
2009/04/23 10:58:58.6    -335     72   -140    343    370 282.3 -27.6  34158  289.55 0855.15
2009/04/23 10:58:58.7    -346     27   -174    348    389 274.6 -32.9  34136  289.16 0855.15
2009/04/23 10:58:58.8    -290     49   -186    295    348 279.6 -39.9  34138  289.21 0855.15
2009/04/23 10:58:58.9    -252     81   -167    265    313 287.8 -39.6  34172  289.78 0855.15
2009/04/23 10:58:59.0    -194     63   -183    205    274 288.2 -50.8  34146  289.34 0855.15
2009/04/23 10:58:59.1    -198     76   -165    213    269 291.1 -46.1  34178  289.88 0855.15
2009/04/23 10:58:59.2    -194     81   -148    211    257 292.8 -43.0  34178  289.86 0855.15
2009/04/23 10:58:59.3    -155     98   -145    184    234 302.4 -46.6  34184  289.97 0855.15
2009/04/23 10:58:59.4    -130    135   -118    188    221 316.1 -39.9  34174  289.82 0855.15
2009/04/23 10:58:59.5    -140    104   -118    175    211 306.6 -41.7  34162  289.62 0855.15
2009/04/23 10:58:59.6    -140     99   -115    172    206 305.5 -41.4  34168  289.72 0855.15
2009/04/23 10:58:59.7    -146    130   -107    196    223 311.6 -35.7  34160  289.57 0855.15
2009/04/23 10:58:59.8    -125    124   -106    177    206 314.8 -37.9  34152  289.43 0855.15
2009/04/23 10:58:59.9     -77    119    -96    143    172 327.0 -41.1  34154  289.48 0855.15
2009/04/23 10:59:00.0     -47    129   -114    138    178 340.0 -48.1  34154  289.48 0855.14
2009/04/23 10:59:00.1     -94    148    -66    176    187 327.5 -25.9  34166  289.67 0855.14
2009/04/23 10:59:00.2     -71    121    -42    141    148 329.7 -16.6  34148  289.38 0855.14
2009/04/23 10:59:00.3      35     64    -95     74    120  29.0 -62.8  34138  289.19 0855.14
2009/04/23 10:59:00.4     -14     41    -91     44    101 340.8 -77.2  34138  289.19 0855.14
2009/04/23 10:59:00.5     -24     52   -109     58    123 334.5 -74.2  34138  289.19 0855.14
2009/04/23 10:59:00.6      48     76   -100     91    135  32.5 -57.1  34140  289.23 0855.14
2009/04/23 10:59:00.7      49     53    -97     73    121  42.3 -63.4  34144  289.31 0855.14
2009/04/23 10:59:00.8      69     27    -74     75    105  68.3 -54.9  34150  289.40 0855.14
2009/04/23 10:59:00.9      92     -7    -71     93    117  94.4 -46.1  34152  289.45 0855.14
2009/04/23 10:59:01.0     124    -28    -90    128    156 102.8 -43.0  34134  289.13 0855.14
2009/04/23 10:59:01.1      71     -1    -93     72    117  90.9 -62.8  34136  289.18 0855.14
2009/04/23 10:59:01.2      57     26    -89     63    109  65.6 -65.5  34142  289.26 0855.14
2009/04/23 10:59:01.3      77     26    -74     82    110  71.4 -51.3  34142  289.26 0855.14
2009/04/23 10:59:01.4      82     22    -74     86    113  74.5 -49.8  34142  289.28 0855.14
2009/04/23 10:59:01.5     107     30    -45    112    120  74.1 -27.4  34140  289.24 0855.14
2009/04/23 10:59:01.6     120     -9    -30    121    125  94.4 -13.9  34140  289.23 0855.14
2009/04/23 10:59:01.7     121    -22     -8    124    125 100.6  -4.1  34140  289.23 0855.14
2009/04/23 10:59:01.8     127    -64     -5    143    144 117.0  -2.2  34134  289.14 0855.14
2009/04/23 10:59:01.9     116    -56      0    129    130 115.8   0.2  34136  289.18 0855.14
2009/04/23 10:59:02.0      75    -66      7    101    102 131.3   4.4  34138  289.19 0855.12
2009/04/23 10:59:02.1     101     -6     29    102    107  93.9  15.8  34140  289.24 0855.12
2009/04/23 10:59:02.2      65     27      8     71     72  67.4   6.9  34142  289.26 0855.12
2009/04/23 10:59:02.3      67     36     50     77     91  62.0  35.6  34140  289.23 0855.12
2009/04/23 10:59:02.4     157     16     66    158    171  83.9  24.1  34148  289.36 0855.12
2009/04/23 10:59:02.5     167     17     79    168    185  84.1  27.1  34146  289.33 0855.12
2009/04/23 10:59:02.6     164     12     70    165    179  85.6  24.1  34146  289.35 0855.12
2009/04/23 10:59:02.7     134     10     47    135    144  85.6  19.2  34162  289.62 0855.12
2009/04/23 10:59:02.8     138     40     66    144    158  73.6  26.2  34160  289.57 0855.12
2009/04/23 10:59:02.9     159     -7    124    160    202  92.6  41.7  34160  289.57 0855.12
2009/04/23 10:59:03.0     166    -33    102    170    198 101.2  33.7  34158  289.55 0855.12
2009/04/23 10:59:03.1     174    -45     72    180    193 104.8  23.0  34160  289.57 0855.12
2009/04/23 10:59:03.2     163    -33     55    167    176 101.7  18.4  34158  289.55 0855.12
2009/04/23 10:59:03.3     139    -52     77    149    167 110.8  29.5  34152  289.43 0855.12
2009/04/23 10:59:03.4      41    -55    140     69    156 143.0  72.8  34178  289.87 0855.12
2009/04/23 10:59:03.5     107   -136     75    174    189 141.9  24.9  34194  290.16 0855.12
2009/04/23 10:59:03.6      98   -118    102    154    184 140.4  36.5  34164  289.63 0855.12
2009/04/23 10:59:03.7      25    -72     98     77    124 160.8  58.4  34202  290.28 0855.12
2009/04/23 10:59:03.8       8    -63     65     64     91 172.0  50.1  34210  290.41 0855.12
2009/04/23 10:59:03.9     -37   -112      1    118    119 198.3   0.7  34190  290.09 0855.12
2009/04/23 10:59:04.0     -73   -123    -10    144    145 210.7  -4.1  34180  289.92 0855.11
2009/04/23 10:59:04.1    -138   -105     17    174    175 232.5   5.9  34196  290.19 0855.11
2009/04/23 10:59:04.2    -118   -110     54    162    171 226.9  18.4  34196  290.18 0855.11
2009/04/23 10:59:04.3    -138   -112     66    178    189 230.9  21.0  34200  290.26 0855.11
2009/04/23 10:59:04.4    -154    -86      5    177    178 240.7   1.8  34206  290.36 0855.11
2009/04/23 10:59:04.5    -181   -105    -30    210    213 239.8  -8.2  34200  290.26 0855.11
2009/04/23 10:59:04.6    -170    -80     14    189    190 244.7   4.4  34192  290.13 0855.11
2009/04/23 10:59:04.7    -144    -97    -41    174    179 236.0 -13.4  34190  290.09 0855.11
2009/04/23 10:59:04.8    -101    -93    -69    138    154 227.3 -32.6  34186  290.01 0855.11
2009/04/23 10:59:04.9     -98    -63    -73    117    137 237.1 -39.9  34186  290.01 0855.11
2009/04/23 10:59:05.0    -105    -71    -62    128    142 235.8 -31.7  34184  289.99 0855.11
2009/04/23 10:59:05.1     -57   -131    -40    144    150 203.6 -15.5  34188  290.06 0855.11
2009/04/23 10:59:05.2    -105    -97    -15    144    145 227.3  -6.2  34198  290.21 0855.11
2009/04/23 10:59:05.3    -102   -123    -15    160    161 219.6  -5.6  34214  290.48 0855.11
2009/04/23 10:59:05.4     -98   -137    -21    169    171 215.6  -7.3  34210  290.43 0855.11
2009/04/23 10:59:05.5     -80   -104     11    132    133 217.8   5.0  34214  290.50 0855.11
2009/04/23 10:59:05.6    -109    -69     -2    130    131 237.6  -1.3  34212  290.45 0855.11
2009/04/23 10:59:05.7    -108   -157    -21    191    193 214.5  -6.5  34186  290.01 0855.11
2009/04/23 10:59:05.8     -98   -199      2    222    223 206.3   0.7  34182  289.94 0855.11
2009/04/23 10:59:05.9     -97   -243     56    262    269 201.8  12.2  34184  289.98 0855.11
2009/04/23 10:59:06.0    -105   -232     65    255    264 204.5  14.3  34184  289.97 0855.13
2009/04/23 10:59:06.1     -84   -188     15    206    207 204.1   4.4  34176  289.85 0855.13
2009/04/23 10:59:06.2    -108   -197    -82    225    239 208.9 -25.3  34172  289.76 0855.13
2009/04/23 10:59:06.3    -108   -145   -115    182    215 216.7 -39.9  34176  289.85 0855.13
2009/04/23 10:59:06.4    -141    -89    -86    167    187 237.6 -33.7  34190  290.08 0855.13
2009/04/23 10:59:06.5     -99     -9   -130    100    164 264.3 -63.1  34200  290.25 0855.13
2009/04/23 10:59:06.6      44    -91   -148    102    179 154.1 -66.5  34172  289.77 0855.13
2009/04/23 10:59:06.7     -28   -137    -65    140    154 191.6 -31.5  34168  289.70 0855.13
2009/04/23 10:59:06.8     -71   -120    -28    140    143 210.8 -11.5  34166  289.69 0855.13
2009/04/23 10:59:06.9     -68   -121      7    139    140 209.4   2.9  34168  289.70 0855.13
2009/04/23 10:59:07.0      43   -101     49    110    120 156.8  25.2  34170  289.75 0855.13
2009/04/23 10:59:07.1      29   -110      6    114    115 164.9   3.3  34168  289.72 0855.13
2009/04/23 10:59:07.2      42    -75     -7     87     88 150.6  -5.2  34166  289.67 0855.13
2009/04/23 10:59:07.3      57    -75     23     95     98 142.6  13.7  34170  289.74 0855.13
2009/04/23 10:59:07.4      48   -105     22    116    119 155.5  11.1  34168  289.70 0855.13
2009/04/23 10:59:07.5      14   -115    -46    116    124 172.9 -26.9  34168  289.70 0855.13
2009/04/23 10:59:07.6     -25   -187      1    189    190 187.8   0.5  34152  289.43 0855.13
2009/04/23 10:59:07.7     -51   -163     16    172    173 197.6   5.4  34152  289.45 0855.13
2009/04/23 10:59:07.8     -39   -106     52    114    125 200.5  26.2  34160  289.57 0855.13
2009/04/23 10:59:07.9     -26    -25    145     37    149 226.7  85.4  34190  290.08 0855.13
2009/04/23 10:59:08.0    -115     13    101    116    153 276.6  45.8  34178  289.89 0855.14
2009/04/23 10:59:08.1    -161    -55     78    171    187 250.9  26.4  34168  289.70 0855.14
2009/04/23 10:59:08.2    -127    -38    -17    133    135 253.1  -7.3  34164  289.63 0855.14
2009/04/23 10:59:08.3    -192     27    -24    194    196 278.1  -7.3  34162  289.60 0855.14
2009/04/23 10:59:08.4    -151     19     51    153    162 277.5  18.4  34164  289.63 0855.14
2009/04/23 10:59:08.5    -176     -1     33    177    181 269.6  10.8  34160  289.57 0855.14
2009/04/23 10:59:08.6    -213     64     -4    223    224 286.9  -1.2  34162  289.60 0855.14
2009/04/23 10:59:08.7    -176    170    -93    245    262 314.0 -26.4  34148  289.37 0855.14
2009/04/23 10:59:08.8      21    161   -134    163    211   7.6 -48.1  34142  289.26 0855.14
2009/04/23 10:59:08.9      31     91     -3     97     98  18.7  -2.2  34142  289.26 0855.14
2009/04/23 10:59:09.0      75    154     85    172    191  25.9  27.8  34154  289.46 0855.14
2009/04/23 10:59:09.1     -46    180     31    186    189 345.5   9.5  34162  289.60 0855.14
2009/04/23 10:59:09.2       1     71    106     72    128   1.0  62.6  34170  289.74 0855.14
2009/04/23 10:59:09.3     -31     56    104     65    122 331.0  65.1  34178  289.87 0855.14
2009/04/23 10:59:09.4     -24     74     81     78    112 341.7  51.2  34170  289.75 0855.14
2009/04/23 10:59:09.5     -31    123     80    127    150 345.7  35.5  34170  289.74 0855.14
2009/04/23 10:59:09.6      -8    106    114    107    156 355.6  52.1  34178  289.87 0855.14
2009/04/23 10:59:09.7     -22    119     98    122    156 349.3  43.0  34166  289.67 0855.14
2009/04/23 10:59:09.8     -16    151    147    152    211 353.7  49.2  34164  289.65 0855.14
2009/04/23 10:59:09.9     113      8    121    114    166  85.7  51.6  34178  289.87 0855.14
2009/04/23 10:59:10.0      10    -51     82     53     97 168.4  64.6  34186  290.02 0855.16
2009/04/23 10:59:10.1     -32    -96    107    102    147 198.7  51.6  34178  289.89 0855.16
2009/04/23 10:59:10.2     170    -24     97    172    197  98.1  31.9  34166  289.69 0855.16
2009/04/23 10:59:10.3     102    -65     79    122    145 122.5  35.6  34156  289.50 0855.16
2009/04/23 10:59:10.4     284    -86    177    297    345 106.9  33.7  34152  289.45 0855.16
2009/04/23 10:59:10.5     289   -141    136    322    349 116.0  24.3  34154  289.48 0855.16
2009/04/23 10:59:10.6     299   -295     -2    421    422 134.6  -0.4  34168  289.72 0855.16
2009/04/23 10:59:10.7     306   -239   -137    389    413 128.0 -19.4  34174  289.82 0855.16
2009/04/23 10:59:10.8     270   -270   -102    383    397 135.0 -15.0  34178  289.86 0855.16
2009/04/23 10:59:10.9     351   -274    -89    446    455 128.0 -11.3  34166  289.68 0855.16
2009/04/23 10:59:11.0     377   -204     -9    429    430 118.5  -1.3  34136  289.17 0855.16
2009/04/23 10:59:11.1     449   -134    -15    469    470 106.7  -1.9  34140  289.22 0855.16
2009/04/23 10:59:11.2     433    -75    -30    440    442  99.9  -4.0  34136  289.16 0855.16
2009/04/23 10:59:11.3     390   -110    -31    406    408 105.8  -4.5  34144  289.31 0855.16
2009/04/23 10:59:11.4     336    -71    -13    344    345 102.1  -2.2  34142  289.26 0855.16
2009/04/23 10:59:11.5     310    -23     58    311    317  94.3  10.6  34142  289.25 0855.16
2009/04/23 10:59:11.6     244    -27     12    246    247  96.4   2.8  34142  289.27 0855.16
2009/04/23 10:59:11.7     248     35     92    251    267  81.9  21.0  34180  289.90 0855.16
2009/04/23 10:59:11.8     162     25    115    164    200  81.2  38.6  34198  290.21 0855.16
2009/04/23 10:59:11.9      74   -110    150    133    200 146.2  54.0  34164  289.65 0855.16
2009/04/23 10:59:12.0     185     -8    255    186    315  92.6  60.4  34172  289.76 0855.18
2009/04/23 10:59:12.1      33    -24    165     42    170 126.0  85.9  34186  290.01 0855.18
2009/04/23 10:59:12.2      36   -119    180    125    219 163.1  62.1  34172  289.79 0855.18
2009/04/23 10:59:12.3     -14   -181    183    182    258 184.5  50.1  34166  289.68 0855.18
2009/04/23 10:59:12.4     -85   -202    163    220    273 202.9  40.4  34178  289.88 0855.18
2009/04/23 10:59:12.5     -98   -272     95    290    306 199.8  18.1  34186  290.00 0855.18
2009/04/23 10:59:12.6     -25   -326    114    328    348 184.5  19.3  34166  289.67 0855.18
2009/04/23 10:59:12.7     -62   -315     90    322    335 191.2  15.7  34168  289.71 0855.18
2009/04/23 10:59:12.8    -153   -295    122    333    354 207.5  21.0  34172  289.79 0855.18
2009/04/23 10:59:12.9    -154   -255     -2    299    300 211.2  -0.5  34156  289.51 0855.18
2009/04/23 10:59:13.0    -124   -225     11    258    259 208.9   2.5  34164  289.63 0855.18
2009/04/23 10:59:13.1     -37   -292     25    295    297 187.3   4.9  34172  289.76 0855.18
2009/04/23 10:59:13.2     -52   -325     25    330    331 189.2   4.3  34162  289.62 0855.18
2009/04/23 10:59:13.3     -63   -318    -17    325    326 191.3  -3.1  34162  289.59 0855.18
2009/04/23 10:59:13.4    -102   -304     40    321    324 198.7   7.2  34160  289.56 0855.18
2009/04/23 10:59:13.5     -29   -315    -24    317    319 185.4  -4.5  34154  289.47 0855.18
2009/04/23 10:59:13.6      42   -296    -35    300    303 171.9  -6.7  34154  289.47 0855.18
2009/04/23 10:59:13.7      -9   -324     30    325    327 181.6   5.3  34152  289.42 0855.18
2009/04/23 10:59:13.8     -15   -295    -11    296    297 182.9  -2.2  34156  289.49 0855.18
2009/04/23 10:59:13.9       0   -249      2    250    251 180.0   0.5  34156  289.49 0855.18
2009/04/23 10:59:14.0     -12   -230      8    231    232 183.1   2.1  34154  289.46 0855.19
2009/04/23 10:59:14.1      -2   -253    -14    254    255 180.5  -3.2  34156  289.51 0855.19
2009/04/23 10:59:14.2      18   -308     15    309    310 176.6   2.8  34156  289.51 0855.19
2009/04/23 10:59:14.3      28   -326    -63    328    335 175.0 -11.0  34150  289.40 0855.19
2009/04/23 10:59:14.4     -73   -330    -51    339    343 192.6  -8.7  34154  289.48 0855.19
2009/04/23 10:59:14.6     -43   -309    -81    313    324 188.0 -14.6  34154  289.46 0855.19
2009/04/23 10:59:14.6     -46   -300    -81    304    315 188.9 -15.0  34154  289.46 0855.19
2009/04/23 10:59:14.7     -72   -266    -15    276    277 195.2  -3.2  34158  289.53 0855.19
2009/04/23 10:59:14.8    -143   -236    -65    277    285 211.2 -13.3  34156  289.51 0855.19
2009/04/23 10:59:14.9    -125   -199    -69    236    247 212.1 -16.4  34156  289.51 0855.19
2009/04/23 10:59:15.0     -72   -219     31    231    234 198.3   7.8  34152  289.42 0855.19
2009/04/23 10:59:15.1     -92   -177     -4    200    201 207.4  -1.3  34154  289.46 0855.19
2009/04/23 10:59:15.2     -57   -195    -57    204    211 196.3 -20.2  34152  289.45 0855.19
2009/04/23 10:59:15.3     -27   -224    -81    226    241 187.1 -19.7  34158  289.53 0855.19
2009/04/23 10:59:15.4     -30   -245    -68    247    257 187.1 -15.5  34158  289.54 0855.19
2009/04/23 10:59:15.5      14   -260    -47    261    266 176.9 -10.3  34160  289.56 0855.19
2009/04/23 10:59:15.6      12   -255    -21    256    258 177.1  -4.9  34160  289.58 0855.19
2009/04/23 10:59:15.7      64   -273     51    281    286 166.7  10.3  34170  289.73 0855.19
2009/04/23 10:59:15.8      83   -303     24    315    316 164.6   4.4  34172  289.78 0855.19
2009/04/23 10:59:15.9     103   -269     56    289    295 159.1  11.0  34166  289.66 0855.19
2009/04/23 10:59:16.0     160   -235     45    285    289 145.7   9.0  34160  289.56 0855.19
2009/04/23 10:59:16.1     182   -332     81    379    388 151.3  12.2  34158  289.54 0855.19
2009/04/23 10:59:16.2      58   -190     86    199    216 162.8  24.9  34154  289.48 0855.19
2009/04/23 10:59:16.3      85   -229    158    245    291 159.5  35.6  34152  289.44 0855.19
2009/04/23 10:59:16.4     275   -275    143    389    414 135.0  21.1  34156  289.49 0855.19
2009/04/23 10:59:16.5     233   -231    152    329    362 134.7  26.6  34162  289.59 0855.19
2009/04/23 10:59:16.6     115   -233    191    260    322 153.7  40.0  34154  289.47 0855.19
2009/04/23 10:59:16.7      39   -108    192    115    223 160.0  66.4  34154  289.48 0855.19
2009/04/23 10:59:16.8      99    -85    191    131    231 130.9  62.6  34160  289.58 0855.19
2009/04/23 10:59:17.0     152    -16    185    153    240  96.2  56.3  34158  289.53 0855.20
2009/04/23 10:59:17.0      10     71    204     72    216   8.0  79.9  34168  289.72 0855.20
2009/04/23 10:59:17.1     101      6    156    102    186  86.5  64.1  34170  289.74 0855.20
2009/04/23 10:59:17.2      19    -31    123     37    128 147.5  82.8  34172  289.79 0855.20
2009/04/23 10:59:17.3      40    -75    114     86    142 151.9  59.4  34170  289.74 0855.20
2009/04/23 10:59:17.4     -23    -17    120     29    123 234.0  86.9  34176  289.85 0855.20
2009/04/23 10:59:17.5      71     14    173     73    187  78.6  76.1  34170  289.74 0855.20
2009/04/23 10:59:17.6     171   -124    195    212    288 125.9  47.7  34162  289.61 0855.20
2009/04/23 10:59:17.7     183   -165    191    247    312 132.2  41.5  34158  289.54 0855.20
2009/04/23 10:59:17.8      43   -277    211    281    351 171.1  40.8  34156  289.50 0855.20
2009/04/23 10:59:17.9      56   -230    207    237    314 166.2  45.7  34154  289.46 0855.20
2009/04/23 10:59:18.0      91   -257    215    273    347 160.4  42.3  34154  289.47 0855.20
2009/04/23 10:59:18.2      57   -239    181    246    305 166.6  39.7  34154  289.47 0855.20
2009/04/23 10:59:18.2      74   -157    175    174    246 154.7  50.1  34158  289.53 0855.20
2009/04/23 10:59:18.3      19   -129    162    131    208 171.5  56.9  34162  289.60 0855.20
2009/04/23 10:59:18.4     -40   -138    165    144    219 196.5  54.3  34160  289.57 0855.20
2009/04/23 10:59:18.5    -100    -55    109    115    158 241.1  48.7  34164  289.65 0855.20
2009/04/23 10:59:18.6    -252     16    116    253    278 273.7  26.2  34164  289.63 0855.20
2009/04/23 10:59:18.7    -212    -94    174    232    290 246.0  40.7  34176  289.83 0855.20
2009/04/23 10:59:18.8    -182   -183    140    259    294 224.9  30.8  34158  289.54 0855.20
2009/04/23 10:59:18.9     -80    -66    200    104    225 230.4  70.8  34180  289.91 0855.20
2009/04/23 10:59:19.0    -177   -202    215    269    344 221.2  43.0  34166  289.66 0855.19
2009/04/23 10:59:19.1     -39   -212    213    216    303 190.5  49.9  34166  289.66 0855.19
2009/04/23 10:59:19.3     -15   -199    250    200    320 184.5  57.3  34168  289.70 0855.19
2009/04/23 10:59:19.4    -146   -167    218    223    311 221.2  49.8  34164  289.63 0855.19
2009/04/23 10:59:19.4       8     48    139     49    147   9.8  80.2  34180  289.92 0855.19
2009/04/23 10:59:19.5       2   -116    249    117    275 178.6  73.1  34178  289.86 0855.19
2009/04/23 10:59:19.6    -111   -201    193    230    300 208.9  44.1  34166  289.66 0855.19
2009/04/23 10:59:19.7    -101   -107    173    148    227 223.3  55.4  34170  289.74 0855.19
2009/04/23 10:59:19.8     -22   -274    232    275    359 184.7  44.4  34168  289.71 0855.19
2009/04/23 10:59:19.9    -198   -470    185    511    544 202.8  19.9  34164  289.65 0855.19
2009/04/23 10:59:20.0    -233    -67    -31    243    245 254.0  -7.3  34158  289.54 0855.19
2009/04/23 10:59:20.1    -369    -62    -67    375    382 260.4 -10.2  34188  290.06 0855.19
2009/04/23 10:59:20.2    -464    -49    -60    467    471 263.9  -7.3  34162  289.61 0855.19
2009/04/23 10:59:20.3    -407    -88   -126    417    436 257.7 -16.8  34170  289.73 0855.19
2009/04/23 10:59:20.4    -446   -122    -36    463    465 254.6  -4.5  34170  289.75 0855.19
2009/04/23 10:59:20.5    -509    -42   -102    511    522 265.2 -11.3  34190  290.08 0855.19
2009/04/23 10:59:20.6    -528    -98    -38    538    540 259.4  -4.1  34188  290.06 0855.19
2009/04/23 10:59:20.7    -284   -310     61    421    426 222.4   8.3  34158  289.55 0855.19
2009/04/23 10:59:20.8    -182   -512    160    544    567 199.6  16.4  34164  289.63 0855.19
2009/04/23 10:59:20.9    -133   -558     29    574    575 193.4   2.9  34162  289.61 0855.19
2009/04/23 10:59:21.0    -206   -495     16    537    538 202.6   1.7  34158  289.55 0855.19
2009/04/23 10:59:21.1    -214   -379     45    436    439 209.5   5.9  34156  289.51 0855.19
2009/04/23 10:59:21.2    -166   -349     -1    387    388 205.5  -0.2  34158  289.54 0855.19
2009/04/23 10:59:21.3    -129   -410    112    430    445 197.5  14.7  34160  289.58 0855.19
2009/04/23 10:59:21.4     155   -312    131    349    372 153.6  21.6  34148  289.37 0855.19
2009/04/23 10:59:21.5     337   -205    194    395    440 121.4  28.1  34156  289.51 0855.19
2009/04/23 10:59:21.6     309   -116    118    331    351 110.6  20.2  34164  289.65 0855.19
2009/04/23 10:59:21.7     282   -262     97    386    399 132.9  14.2  34160  289.57 0855.19
2009/04/23 10:59:21.8     255   -217     60    335    341 130.4  10.2  34160  289.57 0855.19
2009/04/23 10:59:21.9      57    -81    172    100    198 144.8  67.2  34162  289.62 0855.19
2009/04/23 10:59:22.0     168   -387     29    423    425 156.5   4.0  34162  289.60 0855.19
2009/04/23 10:59:22.1     228   -267    109    352    369 139.5  17.3  34160  289.57 0855.19
2009/04/23 10:59:22.2     123   -333    149    356    385 159.7  23.9  34162  289.59 0855.19
2009/04/23 10:59:22.3     -31   -377     74    379    387 184.7  11.1  34168  289.71 0855.19
2009/04/23 10:59:22.4      17   -490    111    491    504 178.0  12.8  34166  289.67 0855.19
2009/04/23 10:59:22.5      88   -627     35    634    636 172.0   3.2  34162  289.59 0855.19
2009/04/23 10:59:22.6     -54   -631     82    634    640 185.0   7.4  34162  289.60 0855.19
2009/04/23 10:59:22.7    -114   -557     63    569    573 191.6   6.4  34186  290.00 0855.19
2009/04/23 10:59:22.8      -3   -493     19    494    495 180.4   2.2  34172  289.76 0855.19
2009/04/23 10:59:22.9      45   -485    152    488    512 174.7  17.3  34172  289.79 0855.19
2009/04/23 10:59:23.0    -123   -597   -124    610    623 191.7 -11.6  34158  289.55 0855.19
2009/04/23 10:59:23.2    -128   -545   -209    560    597 193.3 -25.9  34152  289.44 0855.19
2009/04/23 10:59:23.3    -338   -321   -236    467    523 226.5 -33.3  34164  289.64 0855.19
2009/04/23 10:59:23.4    -209   -377   -244    432    496 209.0 -36.4  34158  289.54 0855.19
2009/04/23 10:59:23.5    -277   -277   -208    392    443 225.0 -34.6  34172  289.77 0855.19
2009/04/23 10:59:23.6    -352   -345    -62    493    497 225.6  -7.2  34188  290.06 0855.19
2009/04/23 10:59:23.7    -358   -162   -148    394    420 245.6 -26.0  34190  290.09 0855.19
2009/04/23 10:59:23.8    -205    113    -76    235    248 298.9 -18.1  34204  290.32 0855.19
2009/04/23 10:59:23.9     -13     -8   -100     16    101 237.6 -90.0  34198  290.23 0855.19
2009/04/23 10:59:24.0      49   -176    -70    183    195 164.2 -26.4  34194  290.14 0855.19
2009/04/23 10:59:24.1      70   -174    -34    188    192 158.1 -10.5  34180  289.91 0855.19
2009/04/23 10:59:24.2     -25    -39    -61     47     77 212.5 -61.9  34192  290.13 0855.19
2009/04/23 10:59:24.3    -445   -111   -140    459    479 255.9 -21.8  34172  289.78 0855.19
2009/04/23 10:59:24.4    -400   -132   -243    422    486 251.7 -37.0  34182  289.96 0855.19
2009/04/23 10:59:24.5    -406    -89   -338    416    536 257.6 -47.7  34182  289.93 0855.19
2009/04/23 10:59:24.6    -167      8   -230    168    284 272.8 -64.9  34186  290.00 0855.19
2009/04/23 10:59:24.7    -106   -109    -78    153    171 224.1 -33.1  34176  289.84 0855.19
2009/04/23 10:59:24.8    -214   -109    -66    241    250 242.9 -15.4  34188  290.03 0855.19
2009/04/23 10:59:24.9     -56   -185   -123    194    229 196.9 -39.9  34188  290.06 0855.19
2009/04/23 10:59:25.0     -45   -218   -113    223    249 191.8 -33.5  34186  290.00 0855.19
2009/04/23 10:59:25.1     -33   -206    -59    209    217 189.1 -20.2  34188  290.04 0855.19
2009/04/23 10:59:25.2      59   -254    -47    261    266 166.7 -10.4  34184  289.97 0855.19
2009/04/23 10:59:25.3     -81   -384   -124    393    413 192.0 -17.5  34170  289.73 0855.19
2009/04/23 10:59:25.4     -85   -366   -161    376    409 193.2 -29.0  34166  289.67 0855.19
2009/04/23 10:59:25.5     -44   -286   -111    290    310 188.9 -26.4  34170  289.73 0855.19
2009/04/23 10:59:25.6    -129   -323    -63    349    355 201.9 -10.2  34172  289.77 0855.19
2009/04/23 10:59:25.7     -79   -333     22    343    344 193.4   3.7  34164  289.64 0855.19
2009/04/23 10:59:25.8    -277   -323    -23    426    427 220.6  -3.2  34170  289.75 0855.19
2009/04/23 10:59:25.9    -191   -372     32    419    421 207.2   4.4  34170  289.75 0855.19
2009/04/23 10:59:26.0    -190   -170    -74    256    266 228.2 -20.8  34170  289.75 0855.19
2009/04/23 10:59:26.1    -144    -79   -106    165    196 241.1 -40.0  34180  289.91 0855.19
2009/04/23 10:59:26.2     -14   -104   -118    106    158 188.1 -57.7  34166  289.67 0855.19
2009/04/23 10:59:26.3     -90    -94    -49    131    139 223.7 -25.4  34184  289.97 0855.19
2009/04/23 10:59:26.4     -45   -115    -47    124    132 201.4 -25.4  34176  289.84 0855.19
2009/04/23 10:59:26.5     -64     10   -100     65    119 279.7 -68.5  34172  289.79 0855.19
2009/04/23 10:59:26.6      -3   -199    -33    200    203 180.9  -9.6  34166  289.67 0855.19
2009/04/23 10:59:26.7     -61   -185    -97    195    217 198.3 -32.9  34172  289.77 0855.19
2009/04/23 10:59:26.8     -42   -125   -163    132    209 198.7 -61.0  34178  289.89 0855.19
2009/04/23 10:59:26.9      82   -250    -43    264    268 161.7  -9.4  34176  289.85 0855.19
2009/04/23 10:59:27.0     -49   -340     60    344    350 188.3   9.9  34164  289.64 0855.19
2009/04/23 10:59:27.1      63   -455    125    460    477 172.1  15.3  34178  289.89 0855.19
2009/04/23 10:59:27.2      96   -619     -5    627    628 171.1  -0.5  34178  289.87 0855.19
2009/04/23 10:59:27.3      88   -538    -29    546    547 170.7  -3.1  34176  289.84 0855.19
2009/04/23 10:59:27.4      60   -511   -104    515    526 173.3 -11.5  34176  289.84 0855.19
2009/04/23 10:59:27.5      35   -431    -21    433    434 175.3  -2.8  34172  289.77 0855.19
2009/04/23 10:59:27.6     162   -350      2    386    387 155.2   0.4  34172  289.79 0855.19
2009/04/23 10:59:27.7     239   -292     77    378    387 140.7  11.6  34176  289.84 0855.19
2009/04/23 10:59:27.8     315   -479    -31    574    575 146.7  -3.2  34176  289.83 0855.19
2009/04/23 10:59:27.9     291   -604     26    671    672 154.3   2.2  34168  289.71 0855.19
2009/04/23 10:59:28.0     315   -577    110    658    668 151.4   9.5  34164  289.65 0855.19
2009/04/23 10:59:28.1     381   -453    116    593    605 139.9  11.1  34158  289.54 0855.19
2009/04/23 10:59:28.2     241   -328    313    408    514 143.7  41.3  34174  289.81 0855.19
2009/04/23 10:59:28.3     281   -321    354    427    554 138.8  43.8  34170  289.74 0855.19
2009/04/23 10:59:28.4     243   -201    291    316    429 129.6  47.6  34168  289.71 0855.19
2009/04/23 10:59:28.5     207   -250    206    325    384 140.4  35.5  34168  289.72 0855.19
2009/04/23 10:59:28.6     211   -345    205    405    453 148.6  29.2  34160  289.56 0855.19
2009/04/23 10:59:28.7     218   -327     61    394    399 146.3   8.9  34172  289.79 0855.19
2009/04/23 10:59:28.8     295   -379    -49    481    484 142.2  -5.9  34166  289.69 0855.19
2009/04/23 10:59:28.9     243   -322      5    404    405 143.0   0.7  34164  289.63 0855.19
2009/04/23 10:59:29.0     440   -324    -60    547    551 126.4  -6.3  34164  289.65 0855.19
2009/04/23 10:59:29.1     327   -303      9    447    448 132.8   1.2  34164  289.63 0855.19
2009/04/23 10:59:29.2     237   -149     99    281    297 122.2  20.2  34158  289.54 0855.19
2009/04/23 10:59:29.3     206      7    164    207    264  87.9  42.7  34168  289.70 0855.19
2009/04/23 10:59:29.4     225   -222    200    317    374 134.7  35.5  34156  289.52 0855.19
2009/04/23 10:59:29.5     150   -138    216    205    297 132.7  52.0  34168  289.71 0855.19
2009/04/23 10:59:29.6     -66   -185    274    197    337 199.8  60.8  34170  289.75 0855.19
2009/04/23 10:59:29.7    -168   -133    200    215    293 231.8  47.9  34178  289.88 0855.19
2009/04/23 10:59:29.8     -67    -79    142    104    176 220.5  60.3  34180  289.91 0855.19
2009/04/23 10:59:29.9     126     -7    197    127    234  93.5  64.1  34168  289.70 0855.19
2009/04/23 10:59:30.0     188    -35    222    192    293 100.6  54.8  34172  289.78 0855.19
2009/04/23 10:59:30.1      25    -11    239     28    240 113.5  90.0  34174  289.80 0855.19
2009/04/23 10:59:30.2     153   -153    214    217    304 134.9  49.9  34168  289.71 0855.19
2009/04/23 10:59:30.3      91   -165    210    189    282 151.0  53.3  34170  289.75 0855.19
2009/04/23 10:59:30.4      19    -97    204     99    226 168.9  72.8  34172  289.79 0855.19
2009/04/23 10:59:30.5       3    -22    189     23    190 170.2  90.0  34182  289.96 0855.19
2009/04/23 10:59:30.6     -31    -94    152    100    181 198.3  63.9  34184  289.97 0855.19
2009/04/23 10:59:30.7     -51   -117    175    128    216 203.6  60.5  34172  289.79 0855.19
2009/04/23 10:59:30.8    -162   -183    177    245    302 221.5  39.5  34166  289.68 0855.19
2009/04/23 10:59:30.9    -465    -94    102    475    486 258.6  12.2  34206  290.34 0855.19
2009/04/23 10:59:31.0    -580    -33   -164    581    603 266.7 -20.4  34208  290.37 0855.19
2009/04/23 10:59:31.1    -451   -149   -141    475    496 251.7 -16.6  34212  290.47 0855.19
2009/04/23 10:59:31.2    -469   -294   -203    554    590 237.9 -25.4  34216  290.51 0855.19
2009/04/23 10:59:31.3    -470   -106   -167    482    510 257.2 -24.4  34192  290.13 0855.19
2009/04/23 10:59:31.4    -503   -112   -104    516    527 257.4 -11.5  34198  290.23 0855.19
2009/04/23 10:59:31.5    -461   -196   -207    502    543 246.9 -28.0  34206  290.36 0855.19
2009/04/23 10:59:31.6    -478   -191   -206    515    554 248.2 -27.4  34194  290.14 0855.19
2009/04/23 10:59:31.7    -547   -110   -313    559    640 258.6 -36.3  34190  290.09 0855.19
2009/04/23 10:59:31.8    -360    -83   -253    370    448 257.0 -42.0  34212  290.44 0855.19
2009/04/23 10:59:31.9    -382   -125   -171    403    437 251.8 -28.7  34208  290.38 0855.19
2009/04/23 10:59:32.0    -354     -9   -198    355    406 268.5 -36.0  34198  290.23 0855.19
2009/04/23 10:59:32.1    -480    -21   -135    481    499 267.4 -20.3  34188  290.05 0855.19
2009/04/23 10:59:32.2    -378   -349   -122    515    530 227.3 -13.4  34198  290.21 0855.19
2009/04/23 10:59:32.3    -138   -322     81    351    361 203.2  13.1  34184  289.99 0855.19
2009/04/23 10:59:32.4    -172   -195    -52    261    267 221.5 -11.3  34204  290.32 0855.19
2009/04/23 10:59:32.5    -150   -180    -90    235    251 219.7 -26.4  34178  289.86 0855.19
2009/04/23 10:59:32.6    -114   -156    -82    194    210 216.1 -28.7  34166  289.69 0855.19
2009/04/23 10:59:32.7    -107   -136    -82    174    192 218.3 -31.5  34176  289.84 0855.19
2009/04/23 10:59:32.8     -47   -134    -65    143    157 199.6 -30.6  34180  289.92 0855.19
2009/04/23 10:59:32.9     -70   -109    -83    130    154 213.0 -39.9  34180  289.92 0855.19
2009/04/23 10:59:33.0     -23    -71   -164     75    180 198.3 -78.2  34196  290.18 0855.19
2009/04/23 10:59:33.1      25   -160   -222    162    274 171.1 -64.9  34178  289.88 0855.19
2009/04/23 10:59:33.2      23   -188   -211    190    283 172.9 -57.7  34176  289.85 0855.19
2009/04/23 10:59:33.3      87   -233   -203    249    321 159.5 -47.8  34174  289.81 0855.19
2009/04/23 10:59:33.4     120   -274   -185    300    352 156.4 -39.0  34172  289.79 0855.19
2009/04/23 10:59:33.5      52   -317    -84    322    333 170.7 -14.6  34168  289.71 0855.19
2009/04/23 10:59:33.6      77   -284    -91    295    309 164.8 -17.2  34174  289.80 0855.19
2009/04/23 10:59:33.7     118   -305    -12    328    329 158.8  -2.2  34172  289.78 0855.19
2009/04/23 10:59:33.8     121   -298     -5    322    323 157.9  -0.9  34172  289.76 0855.19
2009/04/23 10:59:33.9     105   -237     11    260    261 156.2   2.5  34172  289.76 0855.19
2009/04/23 10:59:34.0      47   -191      9    197    198 166.0   2.8  34174  289.80 0855.19
2009/04/23 10:59:34.1     114   -210     -9    239    240 151.5  -2.2  34174  289.80 0855.19
2009/04/23 10:59:34.2     201   -161    -98    258    275 128.6 -26.4  34178  289.88 0855.19
2009/04/23 10:59:34.3     184   -184   -108    261    282 135.1 -28.0  34178  289.86 0855.19
2009/04/23 10:59:34.4     219   -180    -79    284    294 129.5 -20.0  34182  289.93 0855.19
2009/04/23 10:59:34.5     226   -187      4    294    295 129.5   0.8  34176  289.83 0855.19
2009/04/23 10:59:34.6     154   -172     40    232    236 138.1   9.9  34174  289.81 0855.19
2009/04/23 10:59:34.7     203    -55      6    211    212 105.3   1.8  34170  289.75 0855.19
2009/04/23 10:59:34.8     179    -14     21    180    182  94.6   6.7  34174  289.80 0855.19
2009/04/23 10:59:34.9      68    -75     55    102    115 138.1  30.8  34174  289.80 0855.19
2009/04/23 10:59:35.0      71    -19     35     74     81 105.1  26.6  34174  289.82 0855.19
2009/04/23 10:59:35.1      57   -142      7    154    155 158.2   2.9  34174  289.80 0855.19
2009/04/23 10:59:35.2     108   -185     28    215    217 149.7   7.5  34174  289.80 0855.19
2009/04/23 10:59:35.3      70   -228     22    239    241 163.0   5.4  34170  289.75 0855.19
2009/04/23 10:59:35.4       3   -218     26    219    221 179.1   6.9  34164  289.63 0855.19
2009/04/23 10:59:35.5     -18   -228    100    229    249 184.7  25.1  34170  289.73 0855.19
2009/04/23 10:59:35.6     -65   -207    100    218    239 197.6  26.2  34172  289.76 0855.19
2009/04/23 10:59:35.7     -57   -204     66    213    224 195.8  17.3  34172  289.77 0855.19
2009/04/23 10:59:35.8    -101   -149     92    181    203 214.3  29.2  34180  289.92 0855.19
2009/04/23 10:59:35.9    -117   -138     56    181    190 220.3  17.3  34184  289.99 0855.19
2009/04/23 10:59:36.0    -156    -85    -27    178    181 241.4  -8.8  34184  289.97 0855.19
2009/04/23 10:59:36.1      28   -110    -38    114    120 165.7 -23.6  34184  289.97 0855.19
2009/04/23 10:59:36.2      41   -118   -119    126    173 160.8 -52.9  34174  289.82 0855.19
2009/04/23 10:59:36.3      48   -115   -170    125    211 157.3 -64.7  34178  289.89 0855.19
2009/04/23 10:59:36.4     -44    -31   -112     54    124 234.9 -76.8  34180  289.92 0855.19
2009/04/23 10:59:36.5     -86    -91    -74    126    146 223.2 -37.9  34184  289.97 0855.19
2009/04/23 10:59:36.6     -31   -146    -23    150    152 192.0  -8.8  34172  289.77 0855.19
2009/04/23 10:59:36.7       6   -149    -64    150    163 177.4 -28.7  34172  289.77 0855.19
2009/04/23 10:59:36.8      70   -133     41    151    157 152.4  15.2  34172  289.77 0855.19
2009/04/23 10:59:36.9      66   -112     11    131    132 149.3   5.0  34174  289.80 0855.19
2009/04/23 10:59:37.0      31   -185    -77    188    203 170.4 -27.5  34170  289.75 0855.19
2009/04/23 10:59:37.1     -43   -132   -100    140    172 198.3 -43.2  34176  289.84 0855.19
2009/04/23 10:59:37.2     -52   -240    -98    246    264 192.4 -27.4  34170  289.75 0855.19
2009/04/23 10:59:37.3     -11   -181    -96    182    205 183.6 -34.2  34186  290.01 0855.19
2009/04/23 10:59:37.4     -18   -215    -70    216    227 184.9 -23.6  34176  289.85 0855.19
2009/04/23 10:59:37.5       7   -189    -40    190    195 177.8 -11.9  34176  289.84 0855.19
2009/04/23 10:59:37.6      88   -212    -33    230    233 157.3  -8.3  34172  289.77 0855.19
2009/04/23 10:59:37.7      46   -204    -35    210    213 167.1  -9.6  34170  289.75 0855.19
2009/04/23 10:59:37.8      36   -258    -85    261    274 172.0 -23.3  34174  289.80 0855.19
2009/04/23 10:59:37.9      24   -237    -84    239    253 174.0 -24.3  34170  289.73 0855.19
2009/04/23 10:59:38.0     -56   -173    -23    182    184 198.0  -7.5  34172  289.77 0855.19
2009/04/23 10:59:38.1     -52   -111    -43    123    130 205.3 -23.8  34178  289.87 0855.19
2009/04/23 10:59:38.2     -55   -161    -28    171    174 198.9  -9.3  34176  289.85 0855.19
2009/04/23 10:59:38.3     -43   -124     58    132    144 199.2  25.2  34174  289.82 0855.19
2009/04/23 10:59:38.4     -33   -160    103    164    193 191.8  35.5  34178  289.89 0855.19
2009/04/23 10:59:38.5     -28   -142     94    145    172 191.5  35.6  34172  289.79 0855.19
2009/04/23 10:59:38.6     -27   -122    101    125    160 192.5  43.3  34180  289.91 0855.19
2009/04/23 10:59:38.7       1   -104     64    105    122 179.1  34.0  34186  290.01 0855.19
2009/04/23 10:59:38.8       0   -121      5    122    123 180.0   2.8  34186  290.01 0855.19
2009/04/23 10:59:38.9     -74   -135     18    155    157 208.9   6.9  34188  290.04 0855.19
2009/04/23 10:59:39.0     -50   -152     -2    161    162 198.3  -0.7  34190  290.09 0855.19
2009/04/23 10:59:39.1     -68   -190    130    202    240 199.8  35.7  34172  289.77 0855.19
2009/04/23 10:59:39.2     -72   -171    147    186    237 202.9  42.4  34174  289.80 0855.19
2009/04/23 10:59:39.3     -63   -171    160    183    243 200.3  45.8  34174  289.82 0855.19
2009/04/23 10:59:39.4     -59   -202    107    211    236 196.3  29.1  34178  289.89 0855.19
2009/04/23 10:59:39.5       0    -58    131     59    143 180.9  74.5  34194  290.14 0855.19
2009/04/23 10:59:39.6     -32   -110    101    115    153 196.5  45.9  34194  290.16 0855.19
2009/04/23 10:59:39.7       3    -48     77     49     91 175.5  64.7  34188  290.06 0855.19
2009/04/23 10:59:39.8      53    -94     82    109    136 150.6  40.7  34178  289.89 0855.19
2009/04/23 10:59:39.9      37   -157    131    162    208 166.7  43.3  34176  289.84 0855.19
2009/04/23 10:59:40.0      30   -186    107    189    217 170.7  31.9  34176  289.84 0855.19
2009/04/23 10:59:40.1     -14   -186     77    187    202 184.5  23.6  34176  289.84 0855.17
2009/04/23 10:59:40.2     -40   -197     77    201    215 191.5  21.7  34176  289.85 0855.17
2009/04/23 10:59:40.3     -23   -121     92    124    154 191.1  39.7  34180  289.91 0855.17
2009/04/23 10:59:40.4      -9   -145     83    146    167 183.6  32.1  34182  289.96 0855.17
2009/04/23 10:59:40.5      28   -197     24    200    202 171.9   6.9  34176  289.84 0855.17
2009/04/23 10:59:40.6       0   -215     27    216    218 180.2   7.2  34176  289.84 0855.17
2009/04/23 10:59:40.7      -7   -247    -39    248    252 181.8  -9.0  34190  290.07 0855.17
2009/04/23 10:59:40.8      56   -213    -28    221    223 165.3  -7.3  34180  289.92 0855.17
2009/04/23 10:59:40.9      28   -188    -26    191    193 171.3  -8.0  34188  290.06 0855.17
2009/04/23 10:59:41.0     -59   -220    -46    229    234 195.2 -11.5  34212  290.47 0855.17
2009/04/23 10:59:41.1     -25   -237    -64    239    248 186.2 -15.0  34220  290.58 0855.17
2009/04/23 10:59:41.2      23   -218    -39    220    224 173.8 -10.1  34202  290.30 0855.17
2009/04/23 10:59:41.3      50   -211     29    217    219 166.6   7.8  34174  289.80 0855.17
2009/04/23 10:59:41.4      68   -247     83    257    271 164.6  17.9  34174  289.80 0855.17
2009/04/23 10:59:41.5      89   -342     32    354    356 165.4   5.3  34172  289.77 0855.17
2009/04/23 10:59:41.6     106   -255     96    277    294 157.3  19.2  34174  289.81 0855.17
2009/04/23 10:59:41.7      59   -253     90    260    275 166.9  20.0  34176  289.85 0855.17
2009/04/23 10:59:41.8      23   -257     26    259    261 174.7   5.9  34176  289.83 0855.17
2009/04/23 10:59:41.9      15   -197     -1    198    199 175.5  -0.5  34172  289.79 0855.17
2009/04/23 10:59:42.0       0   -197     14    198    199 180.0   4.2  34174  289.80 0855.17
2009/04/23 10:59:42.1      -6   -229     32    230    233 181.6   8.0  34172  289.79 0855.16
2009/04/23 10:59:42.2      86   -190     78    209    223 155.7  21.0  34174  289.80 0855.16
2009/04/23 10:59:42.3      78   -167     82    185    202 155.1  25.2  34174  289.80 0855.16
2009/04/23 10:59:42.4      94   -142    132    171    216 146.4  41.7  34180  289.92 0855.16
2009/04/23 10:59:42.5     108   -113    138    157    209 136.3  45.8  34182  289.96 0855.16
2009/04/23 10:59:42.6     129    -88    118    157    196 124.2  40.9  34186  290.01 0855.16
2009/04/23 10:59:42.7     133    -73    111    152    188 118.8  39.7  34182  289.96 0855.16
2009/04/23 10:59:42.8     104   -124     93    163    187 139.9  32.4  34178  289.87 0855.16
2009/04/23 10:59:42.9     154    -98     37    183    187 122.4  11.6  34172  289.77 0855.16
2009/04/23 10:59:43.0     131    -57     60    143    155 113.5  23.6  34178  289.87 0855.16
2009/04/23 10:59:43.1      19    -99     69    101    122 168.9  37.6  34176  289.85 0855.16
2009/04/23 10:59:43.2     -26   -156    130    159    205 189.7  43.7  34176  289.84 0855.16
2009/04/23 10:59:43.3     -17   -231    141    232    271 184.2  34.4  34170  289.75 0855.16
2009/04/23 10:59:43.4     -30   -243     92    245    261 187.1  21.5  34170  289.75 0855.16
2009/04/23 10:59:43.5     -91   -270    101    286    303 198.7  20.0  34170  289.75 0855.16
2009/04/23 10:59:43.6     -25   -335    186    336    384 184.4  31.4  34166  289.69 0855.16
2009/04/23 10:59:43.7     -22   -295    158    296    335 184.4  30.6  34170  289.73 0855.16
2009/04/23 10:59:43.8     -27   -324    184    326    374 184.9  31.9  34168  289.71 0855.16
2009/04/23 10:59:43.9     -73   -247    139    258    293 196.5  30.8  34166  289.68 0855.16
2009/04/23 10:59:44.0     -63   -249    204    257    328 194.3  42.6  34170  289.75 0855.16
2009/04/23 10:59:44.1     -54   -226     93    233    250 193.6  23.0  34164  289.63 0855.15
2009/04/23 10:59:44.2     -16   -265    105    266    285 183.6  23.0  34172  289.76 0855.15
2009/04/23 10:59:44.3     -41   -289     52    292    297 188.1  10.1  34172  289.76 0855.15
2009/04/23 10:59:44.4      17   -256     52    257    263 176.0  11.6  34172  289.76 0855.15
2009/04/23 10:59:44.5      17   -245     34    246    249 176.0   8.0  34170  289.73 0855.15
2009/04/23 10:59:44.6      49   -288     52    293    298 170.2  10.1  34168  289.71 0855.15
2009/04/23 10:59:44.7      30   -323     95    325    339 174.7  16.3  34178  289.86 0855.15
2009/04/23 10:59:44.8     -32   -316     41    318    321 185.8   7.5  34188  290.05 0855.15
2009/04/23 10:59:44.9     -83   -289     25    301    303 196.1   4.9  34204  290.31 0855.15
2009/04/23 10:59:45.0     -83   -250     13    264    265 198.5   2.9  34202  290.27 0855.15
2009/04/23 10:59:45.1     -68   -248    -54    258    264 195.4 -11.9  34192  290.10 0855.15
2009/04/23 10:59:45.2     -72   -212    -79    225    239 198.9 -19.4  34192  290.12 0855.15
2009/04/23 10:59:45.3      16   -179    -21    180    182 174.7  -6.9  34190  290.09 0855.15
2009/04/23 10:59:45.4      79   -158     62    177    188 153.3  19.6  34192  290.11 0855.15
2009/04/23 10:59:45.5      77   -171     71    188    200 155.5  21.5  34192  290.11 0855.15
2009/04/23 10:59:45.6      78   -141     66    162    174 151.1  23.4  34188  290.06 0855.15
2009/04/23 10:59:45.7      42   -101     90    110    142 157.3  43.7  34192  290.11 0855.15
2009/04/23 10:59:45.8      69    -74    112    102    151 137.2  52.2  34184  289.99 0855.15
2009/04/23 10:59:45.9      50     16     90     53    104  71.4  66.8  34198  290.21 0855.15
2009/04/23 10:59:46.0      51      8     70     52     87  80.3  59.4  34190  290.09 0855.15
2009/04/23 10:59:46.1      41    -28     79     50     93 124.2  64.7  34192  290.11 0855.15
2009/04/23 10:59:46.2       0    -54     81     55     97 180.9  63.2  34198  290.21 0855.15
2009/04/23 10:59:46.3      -3    -43     50     44     66 184.5  53.3  34192  290.13 0855.15
2009/04/23 10:59:46.4      -8    -62     45     63     77 188.1  39.5  34194  290.16 0855.15
2009/04/23 10:59:46.5     -18    -55     35     58     67 198.3  34.4  34190  290.09 0855.15
2009/04/23 10:59:46.6      -7    -43     26     44     51 189.8  34.4  34184  289.99 0855.15
2009/04/23 10:59:46.7      -8    -62     21     63     67 188.1  18.4  34184  289.97 0855.15
2009/04/23 10:59:46.8     -24    -87     38     91     98 195.6  23.6  34184  289.99 0855.15
2009/04/23 10:59:46.9       3    -76     44     77     88 177.3  32.4  34190  290.09 0855.15
2009/04/23 10:59:47.0      34    -73      5     81     82 154.5   3.8  34188  290.04 0855.15
2009/04/23 10:59:47.1      21    -81     -9     84     85 164.9  -6.2  34184  289.99 0855.15
2009/04/23 10:59:47.2     -10    -94    -27     95     99 186.2 -16.0  34182  289.96 0855.15
2009/04/23 10:59:47.3     -37    -80    -36     89     96 204.9 -27.4  34186  290.01 0855.15
2009/04/23 10:59:47.4     -17    -58    -44     61     75 196.9 -43.9  34184  289.97 0855.15
2009/04/23 10:59:47.5      18    -49    -55     53     76 159.1 -54.5  34186  290.01 0855.15
2009/04/23 10:59:47.6      51    -50    -24     72     77 134.1 -18.7  34188  290.04 0855.15
2009/04/23 10:59:47.7      77    -51     14     93     95 123.3   9.0  34194  290.14 0855.15
2009/04/23 10:59:47.8      80    -46     27     93     97 119.8  16.3  34192  290.13 0855.15
2009/04/23 10:59:47.9     105    -42     39    114    121 111.7  18.9  34194  290.14 0855.15
2009/04/23 10:59:48.0      94   -103    109    140    177 137.7  42.0  34198  290.23 0855.15
2009/04/23 10:59:48.1     103   -103     78    147    166 135.0  30.3  34196  290.18 0855.15
2009/04/23 10:59:48.2      63    -99    115    118    164 147.5  49.8  34200  290.25 0855.15
2009/04/23 10:59:48.3      47   -116    128    126    179 157.7  50.1  34202  290.30 0855.15
2009/04/23 10:59:48.4      38   -131    124    137    184 163.5  47.1  34200  290.26 0855.15
2009/04/23 10:59:48.5      62   -141    107    155    188 156.4  38.0  34202  290.28 0855.15
2009/04/23 10:59:48.6      59   -156    100    167    194 159.3  34.0  34202  290.30 0855.15
2009/04/23 10:59:48.7      58   -276    161    283    325 168.0  32.3  34182  289.93 0855.15
2009/04/23 10:59:48.8     124   -296    179    322    368 157.3  31.4  34182  289.96 0855.15
2009/04/23 10:59:48.9      97   -300    122    316    338 162.0  22.3  34178  289.89 0855.15
2009/04/23 10:59:49.0      90   -196     86    216    232 155.3  23.0  34174  289.80 0855.15
2009/04/23 10:59:49.1      -8   -257    182    258    315 181.8  38.7  34174  289.81 0855.15
2009/04/23 10:59:49.2       0   -244    208    245    321 179.8  44.8  34178  289.88 0855.15
2009/04/23 10:59:49.3      23   -229    173    231    288 174.2  40.7  34174  289.80 0855.15
2009/04/23 10:59:49.4      80   -241    193    255    319 161.5  41.1  34174  289.80 0855.15
2009/04/23 10:59:49.5      78   -260    188    272    330 163.3  37.9  34170  289.75 0855.15
2009/04/23 10:59:49.6     105   -221    132    245    278 154.5  30.6  34170  289.75 0855.15
2009/04/23 10:59:49.7      17   -223    145    224    266 175.6  35.6  34168  289.71 0855.15
2009/04/23 10:59:49.8      82   -208     93    224    242 158.4  23.8  34174  289.81 0855.15
2009/04/23 10:59:49.9      79   -199    137    215    254 158.4  35.6  34176  289.85 0855.15
2009/04/23 10:59:50.0      65   -209    123    220    252 162.6  31.9  34174  289.80 0855.15
2009/04/23 10:59:50.1     -16   -250    105    251    272 183.8  24.1  34168  289.71 0855.13
2009/04/23 10:59:50.2      -8   -218    105    219    242 182.2  27.4  34172  289.76 0855.13
2009/04/23 10:59:50.3       0   -241     97    242    260 180.0  23.0  34172  289.76 0855.13
2009/04/23 10:59:50.4       3   -203    108    204    230 178.9  30.1  34176  289.84 0855.13
2009/04/23 10:59:50.5      23   -179     98    181    205 172.4  30.6  34176  289.84 0855.13
2009/04/23 10:59:50.6      34   -173     67    177    189 168.7  21.7  34176  289.84 0855.13
2009/04/23 10:59:50.7      31   -152     58    156    166 168.4  21.5  34172  289.79 0855.13
2009/04/23 10:59:50.8      31   -155     58    159    169 168.4  20.7  34170  289.75 0855.13
2009/04/23 10:59:51.0      61   -156     58    168    178 158.6  19.2  34172  289.77 0855.13
2009/04/23 10:59:51.1      85   -133     72    159    174 147.4  26.2  34178  289.89 0855.13
2009/04/23 10:59:51.2     116   -130     49    175    182 138.3  15.8  34180  289.91 0855.13
2009/04/23 10:59:51.3      36   -119     82    125    149 163.1  35.6  34184  289.99 0855.13
2009/04/23 10:59:51.4     -25   -114     97    117    151 192.5  43.8  34186  290.01 0855.13
2009/04/23 10:59:51.5      34     22     89     41     97  56.7  73.5  34204  290.31 0855.13
2009/04/23 10:59:51.6      37    -60     -1     71     72 148.4  -1.2  34192  290.13 0855.13
2009/04/23 10:59:51.7      23   -169    -33    171    175 172.0 -11.1  34180  289.91 0855.13
2009/04/23 10:59:51.8     -13   -149    -49    150    157 185.3 -23.0  34174  289.80 0855.13
2009/04/23 10:59:51.9     -38   -152     46    157    164 194.3  16.3  34174  289.82 0855.13
2009/04/23 10:59:52.0     -27   -117     82    121    146 192.9  37.4  34178  289.89 0855.13
2009/04/23 10:59:52.1     -48    -76     61     91    109 212.5  37.0  34180  289.91 0855.13
2009/04/23 10:59:52.2     -17    -51     72     54     90 198.5  59.0  34190  290.09 0855.14
2009/04/23 10:59:52.3      82    -54     96     99    137 123.3  49.0  34198  290.21 0855.14
2009/04/23 10:59:52.4     173    -86     66    194    206 116.4  18.9  34180  289.91 0855.14
2009/04/23 10:59:52.5     150    -42     81    156    175 105.9  29.5  34176  289.85 0855.14
2009/04/23 10:59:52.6      74    -59    100     95    137 128.6  52.1  34180  289.92 0855.14
2009/04/23 10:59:52.7      52   -101    149    114    187 152.8  59.0  34182  289.96 0855.14
2009/04/23 10:59:52.8      71   -156     68    172    184 155.5  22.8  34176  289.85 0855.14
2009/04/23 10:59:52.9     126   -104    -44    164    170 129.8 -15.2  34178  289.89 0855.14
2009/04/23 10:59:53.0      29   -168    -61    171    182 170.2 -19.7  34178  289.87 0855.14
2009/04/23 10:59:53.1       3   -229     -5    230    231 179.1  -1.3  34180  289.92 0855.14
2009/04/23 10:59:53.2     -27   -235     29    237    239 186.7   7.1  34184  289.97 0855.14
2009/04/23 10:59:53.3     -56   -240     23    247    249 193.1   5.4  34180  289.90 0855.14
2009/04/23 10:59:53.4      15   -155    -65    156    169 174.2 -28.2  34180  289.92 0855.14
2009/04/23 10:59:53.5      51   -145    -76    154    171 160.4 -32.4  34182  289.94 0855.14
2009/04/23 10:59:53.6      96   -120    -93    154    179 141.3 -38.4  34180  289.92 0855.14
2009/04/23 10:59:53.7     130   -122    -52    179    187 133.2 -16.4  34184  289.99 0855.14
2009/04/23 10:59:53.8      94    -94    -58    134    146 135.0 -29.5  34186  290.01 0855.14
2009/04/23 10:59:53.9     130    -84    -53    155    165 122.9 -19.1  34186  290.02 0855.14
2009/04/23 10:59:54.0     109   -120      8    163    164 137.9   2.9  34182  289.94 0855.14
2009/04/23 10:59:54.1      84   -123     -9    150    151 145.7  -3.7  34184  289.97 0855.14
2009/04/23 10:59:54.2      93   -112    -29    146    149 140.4 -11.3  34184  289.99 0855.12
2009/04/23 10:59:54.3      64   -126    -18    142    144 152.9  -7.2  34188  290.06 0855.12
2009/04/23 10:59:54.4      19   -114    -47    116    125 170.2 -27.4  34188  290.04 0855.12
2009/04/23 10:59:54.5      30    -84    -85     90    123 160.4 -52.9  34190  290.09 0855.12
2009/04/23 10:59:54.6      77    -76    -61    109    124 134.9 -36.3  34186  290.02 0855.12
2009/04/23 10:59:54.7     142   -103    -21    176    178 126.0  -6.9  34188  290.04 0855.12
2009/04/23 10:59:54.8      39   -196      4    200    201 168.5   1.2  34182  289.94 0855.12
2009/04/23 10:59:54.9      48   -174     80    181    197 164.4  25.2  34176  289.84 0855.12
2009/04/23 10:59:55.0      12   -216    108    217    242 176.6  28.5  34184  289.97 0855.12
2009/04/23 10:59:55.1      -2   -173    129    174    216 180.9  40.1  34182  289.94 0855.12
2009/04/23 10:59:55.2     -34   -174    123    178    216 191.3  38.0  34178  289.87 0855.12
2009/04/23 10:59:55.3     -44   -153    100    160    188 196.0  35.5  34180  289.91 0855.12
2009/04/23 10:59:55.4     -33   -191    157    195    250 190.0  43.3  34172  289.78 0855.12
2009/04/23 10:59:55.5     -53   -198     94    205    225 195.1  26.6  34174  289.80 0855.12
2009/04/23 10:59:55.6     -79   -235     78    249    261 198.7  17.4  34174  289.81 0855.12
2009/04/23 10:59:55.7     -48   -273    131    278    307 190.0  27.1  34176  289.83 0855.12
2009/04/23 10:59:55.8     -51   -271    118    276    300 190.7  24.6  34178  289.88 0855.12
2009/04/23 10:59:55.9     -14   -337    143    338    367 182.5  24.3  34178  289.89 0855.12
2009/04/23 10:59:56.0       7   -402    117    403    420 178.9  16.3  34176  289.85 0855.12
2009/04/23 10:59:56.1     -80   -389    125    398    418 191.7  17.4  34176  289.85 0855.12
2009/04/23 10:59:56.2     -18   -415     49    416    419 182.5   6.8  34168  289.72 0855.11
2009/04/23 10:59:56.3      50   -308     10    313    314 170.7   1.9  34168  289.71 0855.11
2009/04/23 10:59:56.4      41   -397    109    400    415 174.0  15.3  34172  289.77 0855.11
2009/04/23 10:59:56.5     -20   -327     74    328    337 183.5  12.8  34170  289.74 0855.11
2009/04/23 10:59:56.6     -38   -317     94    320    334 187.0  16.5  34172  289.76 0855.11
2009/04/23 10:59:56.7       1   -313     51    314    319 179.8   9.3  34172  289.76 0855.11
2009/04/23 10:59:56.8      24   -255    161    257    303 174.4  35.5  34178  289.88 0855.11
2009/04/23 10:59:56.9      92   -186    184    208    277 153.5  45.9  34184  289.97 0855.11
2009/04/23 10:59:57.0      25   -165    151    168    225 171.1  46.6  34182  289.94 0855.11
2009/04/23 10:59:57.1      40      4    163     41    168  83.9  85.9  34190  290.08 0855.11
2009/04/23 10:59:57.2     153    -87    138    177    224 119.8  41.7  34182  289.94 0855.11
2009/04/23 10:59:57.3      94   -166     82    191    207 150.4  24.9  34178  289.89 0855.11
2009/04/23 10:59:57.4      40   -168     96    173    197 166.6  31.4  34178  289.89 0855.11
2009/04/23 10:59:57.5     -59   -245    112    253    276 193.6  25.2  34168  289.71 0855.11
2009/04/23 10:59:57.6     -48   -226     92    232    249 192.0  22.8  34180  289.92 0855.11
2009/04/23 10:59:57.7      -7   -164    132    165    211 182.5  43.0  34182  289.96 0855.11
2009/04/23 10:59:57.8      75   -153     98    171    197 153.9  32.4  34184  289.99 0855.11
2009/04/23 10:59:57.9     125   -103    106    162    193 129.5  35.7  34186  290.02 0855.11
2009/04/23 10:59:58.0      -3    -66    112     67    130 182.7  66.7  34196  290.19 0855.11
2009/04/23 10:59:58.1     -26     -8     88     28     92 253.2  81.2  34198  290.21 0855.11
2009/04/23 10:59:58.2     -69    -83     41    109    116 219.7  21.0  34190  290.08 0855.11
2009/04/23 10:59:58.3     -70    -51      5     87     88 233.6   3.3  34188  290.04 0855.11
2009/04/23 10:59:58.4     -86    -31    -34     92     98 250.0 -25.9  34184  289.99 0855.11
2009/04/23 10:59:58.5     -32     64     36     72     80 332.8  28.7  34186  290.02 0855.11
2009/04/23 10:59:58.6     -45     45    114     64    130 315.0  68.3  34196  290.19 0855.11
2009/04/23 10:59:58.7     -95     13     33     96    102 277.9  18.9  34198  290.23 0855.11
2009/04/23 10:59:58.8    -116     87     70    145    161 306.9  27.4  34190  290.08 0855.11
2009/04/23 10:59:58.9    -148     11      7    149    150 274.4   2.9  34190  290.09 0855.11
2009/04/23 10:59:59.0    -231     23     57    233    241 275.7  13.9  34184  289.97 0855.11
2009/04/23 10:59:59.1    -228     54     50    235    241 283.5  12.2  34178  289.88 0855.11
2009/04/23 10:59:59.2    -217     98     94    239    256 294.4  22.8  34188  290.03 0855.11
2009/04/23 10:59:59.3    -192     40     89    197    216 281.9  25.9  34182  289.96 0855.11
2009/04/23 10:59:59.4    -202    -17     92    203    222 265.0  25.9  34184  289.97 0855.11
2009/04/23 10:59:59.5    -162    -12     68    163    176 265.6  23.8  34180  289.92 0855.11
2009/04/23 10:59:59.6    -130    -99     47    164    171 232.7  16.3  34182  289.96 0855.11
2009/04/23 10:59:59.7    -110   -146     67    184    195 217.0  20.7  34184  289.97 0855.11
2009/04/23 10:59:59.8    -142   -134     73    196    209 226.7  21.0  34182  289.96 0855.11
